<?xml version='1.0' encoding='UTF-8'?><gpx version="1.1" creator="JPX - https://github.com/jenetics/jpx" xmlns="http://www.topografix.com/GPX/1/1"><trk><trkseg><trkpt lat="38.20768817854094" lon="15.24402466000976"><ele>9.0</ele><time>2026-04-08T11:06:11.541Z</time></trkpt><trkpt lat="38.2076381899821" lon="15.24396485449108"><ele>9.0</ele><time>2026-04-08T11:06:12.071Z</time></trkpt><trkpt lat="38.20752836947817" lon="15.243848216264789"><ele>9.0</ele><time>2026-04-08T11:06:20.071Z</time></trkpt><trkpt lat="38.20743173940496" lon="15.243796410830798"><ele>9.0</ele><time>2026-04-08T11:06:21.071Z</time></trkpt><trkpt lat="38.20747340493294" lon="15.243712202893208"><ele>9.0</ele><time>2026-04-08T11:06:23.071Z</time></trkpt><trkpt lat="38.20735821718155" lon="15.243653703328556"><ele>9.0</ele><time>2026-04-08T11:06:28.071Z</time></trkpt><trkpt lat="38.207249248320856" lon="15.24358955755017"><ele>9.0</ele><time>2026-04-08T11:06:30.999Z</time></trkpt><trkpt lat="38.20722164527819" lon="15.243439964824402"><ele>9.0</ele><time>2026-04-08T11:06:41.999Z</time></trkpt><trkpt lat="38.20719585809283" lon="15.243308376355033"><ele>9.0</ele><time>2026-04-08T11:06:43.999Z</time></trkpt><trkpt lat="38.207167324568964" lon="15.243197432607602"><ele>9.0</ele><time>2026-04-08T11:06:45.999Z</time></trkpt><trkpt lat="38.207173108908" lon="15.243082130181866"><ele>9.0</ele><time>2026-04-08T11:06:47.998Z</time></trkpt><trkpt lat="38.20728843395166" lon="15.243106544796417"><ele>9.0</ele><time>2026-04-08T11:06:49.998Z</time></trkpt><trkpt lat="38.2073388801485" lon="15.243031243746877"><ele>9.0</ele><time>2026-04-08T11:06:50.998Z</time></trkpt><trkpt lat="38.20740198044777" lon="15.243036562796737"><ele>9.0</ele><time>2026-04-08T11:06:51.998Z</time></trkpt><trkpt lat="38.207468307300346" lon="15.243040043908382"><ele>9.0</ele><time>2026-04-08T11:06:52.998Z</time></trkpt><trkpt lat="38.20753119034044" lon="15.243035580778484"><ele>9.0</ele><time>2026-04-08T11:06:53.998Z</time></trkpt><trkpt lat="38.20765348927259" lon="15.243018448492942"><ele>9.0</ele><time>2026-04-08T11:06:55.998Z</time></trkpt><trkpt lat="38.207719052204226" lon="15.243011046086155"><ele>9.0</ele><time>2026-04-08T11:06:56.998Z</time></trkpt><trkpt lat="38.20779156697668" lon="15.242998677296892"><ele>9.0</ele><time>2026-04-08T11:06:57.998Z</time></trkpt><trkpt lat="38.207869466362894" lon="15.24299014988334"><ele>9.0</ele><time>2026-04-08T11:06:58.998Z</time></trkpt><trkpt lat="38.207944698974075" lon="15.24298574974772"><ele>9.0</ele><time>2026-04-08T11:06:59.998Z</time></trkpt><trkpt lat="38.20801332358786" lon="15.242978931489565"><ele>9.0</ele><time>2026-04-08T11:07:00.998Z</time></trkpt><trkpt lat="38.208126438080164" lon="15.242974096211265"><ele>9.000000000000002</ele><time>2026-04-08T11:07:02.998Z</time></trkpt><trkpt lat="38.2081918046859" lon="15.242963363716827"><ele>9.0</ele><time>2026-04-08T11:07:03.998Z</time></trkpt><trkpt lat="38.20826327026481" lon="15.242937458912968"><ele>9.0</ele><time>2026-04-08T11:07:04.998Z</time></trkpt><trkpt lat="38.2083357446331" lon="15.24290161286774"><ele>9.0</ele><time>2026-04-08T11:07:05.998Z</time></trkpt><trkpt lat="38.20840240509114" lon="15.242885184834206"><ele>9.0</ele><time>2026-04-08T11:07:06.998Z</time></trkpt><trkpt lat="38.20847766451763" lon="15.242866164168127"><ele>9.000000000000002</ele><time>2026-04-08T11:07:07.998Z</time></trkpt><trkpt lat="38.2085521721739" lon="15.242870158185307"><ele>9.0</ele><time>2026-04-08T11:07:08.998Z</time></trkpt><trkpt lat="38.20862218431238" lon="15.242898409539489"><ele>9.0</ele><time>2026-04-08T11:07:09.998Z</time></trkpt><trkpt lat="38.20865727416485" lon="15.243089456706391"><ele>9.0</ele><time>2026-04-08T11:07:11.998Z</time></trkpt><trkpt lat="38.20867852659" lon="15.24320943906152"><ele>9.0</ele><time>2026-04-08T11:07:12.998Z</time></trkpt><trkpt lat="38.20869964263933" lon="15.243328651466575"><ele>9.0</ele><time>2026-04-08T11:07:13.998Z</time></trkpt><trkpt lat="38.20872144219972" lon="15.24345172270722"><ele>9.0</ele><time>2026-04-08T11:07:14.998Z</time></trkpt><trkpt lat="38.208742675077914" lon="15.243571594623583"><ele>9.0</ele><time>2026-04-08T11:07:15.998Z</time></trkpt><trkpt lat="38.20878700731469" lon="15.243682982312775"><ele>9.0</ele><time>2026-04-08T11:07:16.998Z</time></trkpt><trkpt lat="38.208808071924196" lon="15.243788220740543"><ele>9.0</ele><time>2026-04-08T11:07:17.998Z</time></trkpt><trkpt lat="38.20882789959954" lon="15.2438814084254"><ele>9.0</ele><time>2026-04-08T11:07:18.998Z</time></trkpt><trkpt lat="38.20885433176629" lon="15.2439812187513"><ele>9.0</ele><time>2026-04-08T11:07:19.998Z</time></trkpt><trkpt lat="38.20888032291861" lon="15.244076727844883"><ele>9.0</ele><time>2026-04-08T11:07:20.998Z</time></trkpt><trkpt lat="38.208913676791134" lon="15.24417648992146"><ele>9.2</ele><time>2026-04-08T11:07:21.998Z</time></trkpt><trkpt lat="38.20888266595162" lon="15.24438603825203"><ele>9.4</ele><time>2026-04-08T11:07:23.998Z</time></trkpt><trkpt lat="38.208898007594094" lon="15.24447951705355"><ele>9.6</ele><time>2026-04-08T11:07:24.998Z</time></trkpt><trkpt lat="38.20891649615148" lon="15.244593237034385"><ele>9.8</ele><time>2026-04-08T11:07:25.998Z</time></trkpt><trkpt lat="38.20894739969107" lon="15.244701144279368"><ele>10.0</ele><time>2026-04-08T11:07:26.998Z</time></trkpt><trkpt lat="38.20896187361609" lon="15.244825186690173"><ele>9.4</ele><time>2026-04-08T11:07:27.998Z</time></trkpt><trkpt lat="38.20898759237846" lon="15.244950687489558"><ele>8.8</ele><time>2026-04-08T11:07:28.998Z</time></trkpt><trkpt lat="38.20903526570704" lon="15.24506313053748"><ele>8.2</ele><time>2026-04-08T11:07:29.998Z</time></trkpt><trkpt lat="38.20909142512547" lon="15.245168978372488"><ele>7.6</ele><time>2026-04-08T11:07:30.998Z</time></trkpt><trkpt lat="38.20916757423504" lon="15.245271183204217"><ele>7.0</ele><time>2026-04-08T11:07:31.998Z</time></trkpt><trkpt lat="38.20924876542136" lon="15.245360551744733"><ele>7.0</ele><time>2026-04-08T11:07:32.998Z</time></trkpt><trkpt lat="38.209325094571334" lon="15.245442214224255"><ele>6.999999999999999</ele><time>2026-04-08T11:07:33.998Z</time></trkpt><trkpt lat="38.209392552909854" lon="15.245525827072592"><ele>6.999999999999999</ele><time>2026-04-08T11:07:34.998Z</time></trkpt><trkpt lat="38.20947675277052" lon="15.24564998290905"><ele>7.0</ele><time>2026-04-08T11:07:37Z</time></trkpt><trkpt lat="38.20956316449444" lon="15.24572603184779"><ele>7.0</ele><time>2026-04-08T11:07:38.999Z</time></trkpt><trkpt lat="38.20960251360102" lon="15.245821257374306"><ele>6.8</ele><time>2026-04-08T11:07:41Z</time></trkpt><trkpt lat="38.2094740390389" lon="15.24592292506325"><ele>6.6</ele><time>2026-04-08T11:07:41.999Z</time></trkpt><trkpt lat="38.20946394809014" lon="15.246052988975807"><ele>6.3999999999999995</ele><time>2026-04-08T11:07:43Z</time></trkpt><trkpt lat="38.2094074135937" lon="15.246150825919361"><ele>6.199999999999999</ele><time>2026-04-08T11:07:44Z</time></trkpt><trkpt lat="38.209361412008974" lon="15.246258983196608"><ele>6.0</ele><time>2026-04-08T11:07:44.999Z</time></trkpt><trkpt lat="38.20931610161929" lon="15.246373376100475"><ele>6.0</ele><time>2026-04-08T11:07:46Z</time></trkpt><trkpt lat="38.209267904086374" lon="15.246491502120938"><ele>6.0</ele><time>2026-04-08T11:07:47Z</time></trkpt><trkpt lat="38.20921932105635" lon="15.246614893421437"><ele>6.0</ele><time>2026-04-08T11:07:47.999Z</time></trkpt><trkpt lat="38.20916842196765" lon="15.246743190038726"><ele>6.0</ele><time>2026-04-08T11:07:48.999Z</time></trkpt><trkpt lat="38.209119571126394" lon="15.246868273502479"><ele>6.0</ele><time>2026-04-08T11:07:50Z</time></trkpt><trkpt lat="38.209065391314674" lon="15.2469930237608"><ele>6.0</ele><time>2026-04-08T11:07:50.999Z</time></trkpt><trkpt lat="38.20897958535911" lon="15.247084205951198"><ele>6.0</ele><time>2026-04-08T11:07:51.999Z</time></trkpt><trkpt lat="38.208897273791294" lon="15.247182909348561"><ele>6.0</ele><time>2026-04-08T11:07:52.999Z</time></trkpt><trkpt lat="38.20880093217866" lon="15.24726724348491"><ele>6.0</ele><time>2026-04-08T11:07:53.999Z</time></trkpt><trkpt lat="38.2086958655337" lon="15.247331324847087"><ele>6.0</ele><time>2026-04-08T11:07:54.999Z</time></trkpt><trkpt lat="38.20858253809203" lon="15.247390000078108"><ele>6.0</ele><time>2026-04-08T11:07:55.999Z</time></trkpt><trkpt lat="38.2084584089648" lon="15.247450891742638"><ele>6.0</ele><time>2026-04-08T11:07:56.999Z</time></trkpt><trkpt lat="38.20833752314421" lon="15.24750960403138"><ele>6.0</ele><time>2026-04-08T11:07:57.999Z</time></trkpt><trkpt lat="38.20821782246628" lon="15.247569848826629"><ele>6.25</ele><time>2026-04-08T11:07:58.999Z</time></trkpt><trkpt lat="38.20809594395967" lon="15.247631832300186"><ele>6.5</ele><time>2026-04-08T11:07:59.999Z</time></trkpt><trkpt lat="38.207975816497076" lon="15.247693282892538"><ele>6.75</ele><time>2026-04-08T11:08:00.999Z</time></trkpt><trkpt lat="38.207854791279786" lon="15.247755144091707"><ele>7.0</ele><time>2026-04-08T11:08:01.999Z</time></trkpt><trkpt lat="38.207738929481806" lon="15.24781436604786"><ele>7.0</ele><time>2026-04-08T11:08:02.999Z</time></trkpt><trkpt lat="38.207627459180365" lon="15.247866133408873"><ele>7.0</ele><time>2026-04-08T11:08:03.999Z</time></trkpt><trkpt lat="38.207513556675266" lon="15.247910337367733"><ele>7.0</ele><time>2026-04-08T11:08:04.999Z</time></trkpt><trkpt lat="38.20739308011807" lon="15.247947622724366"><ele>7.0</ele><time>2026-04-08T11:08:05.999Z</time></trkpt><trkpt lat="38.207268757828174" lon="15.248001806081742"><ele>7.0</ele><time>2026-04-08T11:08:06.999Z</time></trkpt><trkpt lat="38.2071405263329" lon="15.24803193606697"><ele>7.0</ele><time>2026-04-08T11:08:07.999Z</time></trkpt><trkpt lat="38.20701456724566" lon="15.248068101857722"><ele>7.0</ele><time>2026-04-08T11:08:08.999Z</time></trkpt><trkpt lat="38.20689217125482" lon="15.248077514844617"><ele>7.0</ele><time>2026-04-08T11:08:09.999Z</time></trkpt><trkpt lat="38.20677184906284" lon="15.248104848617592"><ele>7.25</ele><time>2026-04-08T11:08:10.999Z</time></trkpt><trkpt lat="38.20665684547873" lon="15.248133530349143"><ele>7.5</ele><time>2026-04-08T11:08:11.999Z</time></trkpt><trkpt lat="38.206543883971975" lon="15.248161799331308"><ele>7.75</ele><time>2026-04-08T11:08:12.999Z</time></trkpt><trkpt lat="38.20643273482565" lon="15.24818945797113"><ele>8.0</ele><time>2026-04-08T11:08:13.999Z</time></trkpt><trkpt lat="38.206317013324046" lon="15.248214084830732"><ele>8.0</ele><time>2026-04-08T11:08:14.999Z</time></trkpt><trkpt lat="38.20619811879188" lon="15.248238604105751"><ele>8.0</ele><time>2026-04-08T11:08:15.999Z</time></trkpt><trkpt lat="38.206072936135804" lon="15.248265431658162"><ele>8.0</ele><time>2026-04-08T11:08:16.999Z</time></trkpt><trkpt lat="38.20594115679988" lon="15.248294537286279"><ele>8.0</ele><time>2026-04-08T11:08:17.999Z</time></trkpt><trkpt lat="38.20582329284229" lon="15.24837831243887"><ele>8.0</ele><time>2026-04-08T11:08:18.999Z</time></trkpt><trkpt lat="38.205698785521605" lon="15.248395395082458"><ele>8.0</ele><time>2026-04-08T11:08:19.999Z</time></trkpt><trkpt lat="38.205566582302744" lon="15.248397046069114"><ele>8.0</ele><time>2026-04-08T11:08:20.999Z</time></trkpt><trkpt lat="38.205439663634216" lon="15.248432496221104"><ele>8.0</ele><time>2026-04-08T11:08:21.999Z</time></trkpt><trkpt lat="38.205309886437604" lon="15.248449818989119"><ele>8.25</ele><time>2026-04-08T11:08:22.999Z</time></trkpt><trkpt lat="38.20517204948707" lon="15.248487818535867"><ele>8.5</ele><time>2026-04-08T11:08:23.999Z</time></trkpt><trkpt lat="38.20503503057339" lon="15.248524014571386"><ele>8.75</ele><time>2026-04-08T11:08:24.999Z</time></trkpt><trkpt lat="38.20490951928026" lon="15.24855591348793"><ele>9.0</ele><time>2026-04-08T11:08:25.999Z</time></trkpt><trkpt lat="38.204790213763864" lon="15.248586180753371"><ele>9.0</ele><time>2026-04-08T11:08:26.999Z</time></trkpt><trkpt lat="38.20467638211708" lon="15.248648268280588"><ele>9.0</ele><time>2026-04-08T11:08:27.999Z</time></trkpt><trkpt lat="38.20455834553975" lon="15.24867397036635"><ele>9.0</ele><time>2026-04-08T11:08:28.999Z</time></trkpt><trkpt lat="38.204444977234786" lon="15.248704366431303"><ele>9.0</ele><time>2026-04-08T11:08:29.999Z</time></trkpt><trkpt lat="38.20433505435619" lon="15.248732656456193"><ele>9.0</ele><time>2026-04-08T11:08:30.999Z</time></trkpt><trkpt lat="38.20422205415032" lon="15.248741098764766"><ele>9.0</ele><time>2026-04-08T11:08:31.999Z</time></trkpt><trkpt lat="38.204125980019754" lon="15.248771452039552"><ele>9.0</ele><time>2026-04-08T11:08:32.999Z</time></trkpt><trkpt lat="38.20403622673618" lon="15.248804648595705"><ele>9.0</ele><time>2026-04-08T11:08:33.999Z</time></trkpt><trkpt lat="38.20395700756635" lon="15.2488380120505"><ele>9.0</ele><time>2026-04-08T11:08:34.999Z</time></trkpt><trkpt lat="38.20386147528312" lon="15.24887822700068"><ele>9.25</ele><time>2026-04-08T11:08:36.999Z</time></trkpt><trkpt lat="38.20392670048502" lon="15.249095819794514"><ele>9.5</ele><time>2026-04-08T11:08:37.999Z</time></trkpt><trkpt lat="38.20394533089728" lon="15.249213731807947"><ele>9.75</ele><time>2026-04-08T11:08:38.999Z</time></trkpt><trkpt lat="38.20400305960311" lon="15.249338650228767"><ele>10.0</ele><time>2026-04-08T11:08:39.999Z</time></trkpt><trkpt lat="38.204058955616524" lon="15.249492096602918"><ele>10.0</ele><time>2026-04-08T11:08:41Z</time></trkpt><trkpt lat="38.204117606889874" lon="15.249630034830302"><ele>10.0</ele><time>2026-04-08T11:08:42Z</time></trkpt><trkpt lat="38.20415323919493" lon="15.24975968639509"><ele>10.0</ele><time>2026-04-08T11:08:43Z</time></trkpt><trkpt lat="38.20420187903267" lon="15.249899453952896"><ele>10.0</ele><time>2026-04-08T11:08:44Z</time></trkpt><trkpt lat="38.204263380172584" lon="15.250036516920211"><ele>10.0</ele><time>2026-04-08T11:08:45Z</time></trkpt><trkpt lat="38.20433813305841" lon="15.250165484081402"><ele>10.0</ele><time>2026-04-08T11:08:46Z</time></trkpt><trkpt lat="38.20441762846709" lon="15.250287048437468"><ele>10.0</ele><time>2026-04-08T11:08:47Z</time></trkpt><trkpt lat="38.204503486085514" lon="15.250399256925862"><ele>10.0</ele><time>2026-04-08T11:08:48Z</time></trkpt><trkpt lat="38.204595006118865" lon="15.250502452313592"><ele>10.0</ele><time>2026-04-08T11:08:48.999Z</time></trkpt><trkpt lat="38.204714813887016" lon="15.250633663493298"><ele>10.0</ele><time>2026-04-08T11:08:49.999Z</time></trkpt><trkpt lat="38.20485816098984" lon="15.250782764106603"><ele>10.0</ele><time>2026-04-08T11:08:50.999Z</time></trkpt><trkpt lat="38.20500774088613" lon="15.250928185241635"><ele>10.0</ele><time>2026-04-08T11:08:51.999Z</time></trkpt><trkpt lat="38.20516838343068" lon="15.251074200812061"><ele>10.0</ele><time>2026-04-08T11:08:52.999Z</time></trkpt><trkpt lat="38.2053102886991" lon="15.251232145244943"><ele>10.0</ele><time>2026-04-08T11:08:53.999Z</time></trkpt><trkpt lat="38.205438637160775" lon="15.25133871906605"><ele>9.5</ele><time>2026-04-08T11:08:54.999Z</time></trkpt><trkpt lat="38.20554792941775" lon="15.251463961319391"><ele>9.0</ele><time>2026-04-08T11:08:55.999Z</time></trkpt><trkpt lat="38.205666429779846" lon="15.25157229666655"><ele>8.5</ele><time>2026-04-08T11:08:56.999Z</time></trkpt><trkpt lat="38.205760437215986" lon="15.251647968861636"><ele>8.0</ele><time>2026-04-08T11:08:57.999Z</time></trkpt><trkpt lat="38.205860281911534" lon="15.251725256631195"><ele>7.800000000000001</ele><time>2026-04-08T11:08:58.999Z</time></trkpt><trkpt lat="38.205958337161164" lon="15.251806129660515"><ele>7.6000000000000005</ele><time>2026-04-08T11:08:59.999Z</time></trkpt><trkpt lat="38.20604555219411" lon="15.25188720558225"><ele>7.3999999999999995</ele><time>2026-04-08T11:09:00.999Z</time></trkpt><trkpt lat="38.20612895447432" lon="15.251956566470971"><ele>7.199999999999999</ele><time>2026-04-08T11:09:01.999Z</time></trkpt><trkpt lat="38.206183885532795" lon="15.252055518127664"><ele>7.0</ele><time>2026-04-08T11:09:02.999Z</time></trkpt><trkpt lat="38.206198901414226" lon="15.252161179281682"><ele>7.0</ele><time>2026-04-08T11:09:03.999Z</time></trkpt><trkpt lat="38.206197067662835" lon="15.252272436602885"><ele>6.999999999999999</ele><time>2026-04-08T11:09:04.999Z</time></trkpt><trkpt lat="38.20615895329784" lon="15.252370511027319"><ele>6.999999999999999</ele><time>2026-04-08T11:09:05.999Z</time></trkpt><trkpt lat="38.206102562287676" lon="15.25245069704061"><ele>7.0</ele><time>2026-04-08T11:09:06.999Z</time></trkpt><trkpt lat="38.20603870062261" lon="15.252544581710831"><ele>7.0</ele><time>2026-04-08T11:09:07.999Z</time></trkpt><trkpt lat="38.20596315815638" lon="15.252645617204331"><ele>7.0</ele><time>2026-04-08T11:09:08.999Z</time></trkpt><trkpt lat="38.20588846912668" lon="15.25274551126646"><ele>6.999999999999999</ele><time>2026-04-08T11:09:09.999Z</time></trkpt><trkpt lat="38.205815554924094" lon="15.252841649830417"><ele>6.999999999999999</ele><time>2026-04-08T11:09:10.999Z</time></trkpt><trkpt lat="38.205739430462664" lon="15.252941578749885"><ele>7.0</ele><time>2026-04-08T11:09:11.999Z</time></trkpt><trkpt lat="38.20566385297953" lon="15.253040789652035"><ele>7.0</ele><time>2026-04-08T11:09:12.999Z</time></trkpt><trkpt lat="38.20558397747076" lon="15.25314564259485"><ele>7.0</ele><time>2026-04-08T11:09:13.999Z</time></trkpt><trkpt lat="38.205496894703494" lon="15.253259539625311"><ele>7.0</ele><time>2026-04-08T11:09:14.999Z</time></trkpt><trkpt lat="38.2054034979256" lon="15.25337684292471"><ele>7.0</ele><time>2026-04-08T11:09:15.999Z</time></trkpt><trkpt lat="38.20531447954488" lon="15.253484566568988"><ele>7.0</ele><time>2026-04-08T11:09:16.999Z</time></trkpt><trkpt lat="38.20522350051661" lon="15.253596687008951"><ele>7.0</ele><time>2026-04-08T11:09:17.999Z</time></trkpt><trkpt lat="38.20514506949148" lon="15.253703504438061"><ele>6.999999999999999</ele><time>2026-04-08T11:09:18.999Z</time></trkpt><trkpt lat="38.205072621602234" lon="15.25380308227448"><ele>6.999999999999999</ele><time>2026-04-08T11:09:19.999Z</time></trkpt><trkpt lat="38.204994959910074" lon="15.253902031392045"><ele>7.0</ele><time>2026-04-08T11:09:20.999Z</time></trkpt><trkpt lat="38.204926229446684" lon="15.253989081203201"><ele>7.0</ele><time>2026-04-08T11:09:21.999Z</time></trkpt><trkpt lat="38.204869016452044" lon="15.254061543678448"><ele>8.0</ele><time>2026-04-08T11:09:22.999Z</time></trkpt><trkpt lat="38.20482066609608" lon="15.254132197718553"><ele>9.0</ele><time>2026-04-08T11:09:23.999Z</time></trkpt><trkpt lat="38.20477096293124" lon="15.254244348446523"><ele>10.0</ele><time>2026-04-08T11:09:25.999Z</time></trkpt><trkpt lat="38.204692678647994" lon="15.254185614704236"><ele>11.0</ele><time>2026-04-08T11:09:27.999Z</time></trkpt><trkpt lat="38.20462972744735" lon="15.254159661273071"><ele>11.999999999999998</ele><time>2026-04-08T11:09:28.999Z</time></trkpt><trkpt lat="38.204565896321924" lon="15.254135378743813"><ele>13.0</ele><time>2026-04-08T11:09:29.999Z</time></trkpt><trkpt lat="38.2045034168826" lon="15.254111610407952"><ele>13.0</ele><time>2026-04-08T11:09:30.999Z</time></trkpt><trkpt lat="38.20438981292185" lon="15.254076527172273"><ele>13.0</ele><time>2026-04-08T11:09:32.999Z</time></trkpt><trkpt lat="38.20432281523563" lon="15.254058143442114"><ele>13.0</ele><time>2026-04-08T11:09:33.999Z</time></trkpt><trkpt lat="38.20423555696112" lon="15.254034200332585"><ele>13.0</ele><time>2026-04-08T11:09:35.999Z</time></trkpt><trkpt lat="38.20418023682619" lon="15.254337851525094"><ele>12.999999999999998</ele><time>2026-04-08T11:09:36.999Z</time></trkpt><trkpt lat="38.204181009671515" lon="15.25444775202549"><ele>13.0</ele><time>2026-04-08T11:09:37.999Z</time></trkpt><trkpt lat="38.20418683965293" lon="15.254560258574129"><ele>13.0</ele><time>2026-04-08T11:09:38.999Z</time></trkpt><trkpt lat="38.20418858355834" lon="15.254672657126676"><ele>13.0</ele><time>2026-04-08T11:09:39.999Z</time></trkpt><trkpt lat="38.20418232785013" lon="15.254779707648895"><ele>12.999999999999998</ele><time>2026-04-08T11:09:40.999Z</time></trkpt><trkpt lat="38.204179950638135" lon="15.25490032279434"><ele>13.0</ele><time>2026-04-08T11:09:41.999Z</time></trkpt><trkpt lat="38.20417288292302" lon="15.255023193684691"><ele>13.0</ele><time>2026-04-08T11:09:43.001Z</time></trkpt><trkpt lat="38.204161908136605" lon="15.255151952237114"><ele>13.0</ele><time>2026-04-08T11:09:44.001Z</time></trkpt><trkpt lat="38.20414599946185" lon="15.255293900427084"><ele>13.0</ele><time>2026-04-08T11:09:45.001Z</time></trkpt><trkpt lat="38.204129445506034" lon="15.255446061080454"><ele>13.0</ele><time>2026-04-08T11:09:46.001Z</time></trkpt><trkpt lat="38.20410867425816" lon="15.2555947132832"><ele>13.0</ele><time>2026-04-08T11:09:47.001Z</time></trkpt><trkpt lat="38.204082595753" lon="15.25575266658424"><ele>13.0</ele><time>2026-04-08T11:09:48.001Z</time></trkpt><trkpt lat="38.204041245333165" lon="15.255912423652235"><ele>13.0</ele><time>2026-04-08T11:09:49.001Z</time></trkpt><trkpt lat="38.2039952770446" lon="15.256074020050834"><ele>13.0</ele><time>2026-04-08T11:09:50.001Z</time></trkpt><trkpt lat="38.20395050180458" lon="15.256236437445871"><ele>13.0</ele><time>2026-04-08T11:09:51.001Z</time></trkpt><trkpt lat="38.20390642905574" lon="15.256391074229944"><ele>13.0</ele><time>2026-04-08T11:09:52.001Z</time></trkpt><trkpt lat="38.203859835053066" lon="15.25654543570851"><ele>13.0</ele><time>2026-04-08T11:09:53.001Z</time></trkpt><trkpt lat="38.203792726389594" lon="15.25668571699273"><ele>13.0</ele><time>2026-04-08T11:09:54.001Z</time></trkpt><trkpt lat="38.203749576725826" lon="15.256844899548572"><ele>13.0</ele><time>2026-04-08T11:09:55.001Z</time></trkpt><trkpt lat="38.20368946929761" lon="15.257004871002557"><ele>13.0</ele><time>2026-04-08T11:09:56.001Z</time></trkpt><trkpt lat="38.203632895184825" lon="15.25715724508403"><ele>13.0</ele><time>2026-04-08T11:09:57.001Z</time></trkpt><trkpt lat="38.203563908453035" lon="15.25730203689994"><ele>13.0</ele><time>2026-04-08T11:09:58Z</time></trkpt><trkpt lat="38.203509352562605" lon="15.25744961678863"><ele>13.0</ele><time>2026-04-08T11:09:59Z</time></trkpt><trkpt lat="38.20345607310387" lon="15.257592679673023"><ele>13.0</ele><time>2026-04-08T11:10:00Z</time></trkpt><trkpt lat="38.203401563127514" lon="15.25773306363864"><ele>13.0</ele><time>2026-04-08T11:10:01Z</time></trkpt><trkpt lat="38.20334722882016" lon="15.257872995192567"><ele>13.0</ele><time>2026-04-08T11:10:02Z</time></trkpt><trkpt lat="38.20329282375658" lon="15.258013108968054"><ele>13.25</ele><time>2026-04-08T11:10:03Z</time></trkpt><trkpt lat="38.20323944735325" lon="15.258145067072967"><ele>13.5</ele><time>2026-04-08T11:10:04Z</time></trkpt><trkpt lat="38.20318272708223" lon="15.258277518151855"><ele>13.75</ele><time>2026-04-08T11:10:05Z</time></trkpt><trkpt lat="38.203129332553" lon="15.258417500665761"><ele>14.0</ele><time>2026-04-08T11:10:06Z</time></trkpt><trkpt lat="38.20305293598417" lon="15.258538336457057"><ele>14.0</ele><time>2026-04-08T11:10:07Z</time></trkpt><trkpt lat="38.202974259336834" lon="15.258653455894725"><ele>14.0</ele><time>2026-04-08T11:10:08Z</time></trkpt><trkpt lat="38.202880238040756" lon="15.258755483164318"><ele>14.0</ele><time>2026-04-08T11:10:09Z</time></trkpt><trkpt lat="38.202797437273496" lon="15.25887785691671"><ele>14.0</ele><time>2026-04-08T11:10:10Z</time></trkpt><trkpt lat="38.20271674746996" lon="15.259002513257922"><ele>13.75</ele><time>2026-04-08T11:10:11Z</time></trkpt><trkpt lat="38.20265276424803" lon="15.259147702531742"><ele>13.5</ele><time>2026-04-08T11:10:12Z</time></trkpt><trkpt lat="38.202580678663004" lon="15.259293340903595"><ele>13.25</ele><time>2026-04-08T11:10:13Z</time></trkpt><trkpt lat="38.20252171090733" lon="15.259452601191942"><ele>13.0</ele><time>2026-04-08T11:10:14Z</time></trkpt><trkpt lat="38.20247764014527" lon="15.25963154868528"><ele>13.0</ele><time>2026-04-08T11:10:15Z</time></trkpt><trkpt lat="38.202443389541244" lon="15.25982212420945"><ele>13.0</ele><time>2026-04-08T11:10:16Z</time></trkpt><trkpt lat="38.20241601153397" lon="15.2600239399155"><ele>13.0</ele><time>2026-04-08T11:10:17Z</time></trkpt><trkpt lat="38.20238441339456" lon="15.260218670780425"><ele>13.0</ele><time>2026-04-08T11:10:18Z</time></trkpt><trkpt lat="38.20234700520983" lon="15.260393093671334"><ele>13.0</ele><time>2026-04-08T11:10:19Z</time></trkpt><trkpt lat="38.20230953370826" lon="15.260564592378877"><ele>13.0</ele><time>2026-04-08T11:10:20Z</time></trkpt><trkpt lat="38.20226013392507" lon="15.260757491266249"><ele>13.0</ele><time>2026-04-08T11:10:21Z</time></trkpt><trkpt lat="38.202192863242175" lon="15.260939031575873"><ele>13.333333333333332</ele><time>2026-04-08T11:10:22Z</time></trkpt><trkpt lat="38.20211055598613" lon="15.26111015168916"><ele>13.666666666666668</ele><time>2026-04-08T11:10:23Z</time></trkpt><trkpt lat="38.20199296238597" lon="15.261261102587971"><ele>14.0</ele><time>2026-04-08T11:10:24Z</time></trkpt><trkpt lat="38.201898911541925" lon="15.26143051195032"><ele>12.333333333333334</ele><time>2026-04-08T11:10:25Z</time></trkpt><trkpt lat="38.20181521440501" lon="15.261602955638919"><ele>10.666666666666668</ele><time>2026-04-08T11:10:26Z</time></trkpt><trkpt lat="38.20172121952192" lon="15.261765848275633"><ele>9.0</ele><time>2026-04-08T11:10:27Z</time></trkpt><trkpt lat="38.20163700211885" lon="15.261935099416442"><ele>9.0</ele><time>2026-04-08T11:10:28Z</time></trkpt><trkpt lat="38.20154185035781" lon="15.262110118631627"><ele>9.0</ele><time>2026-04-08T11:10:29Z</time></trkpt><trkpt lat="38.20146347143944" lon="15.262319826951316"><ele>9.0</ele><time>2026-04-08T11:10:30Z</time></trkpt><trkpt lat="38.20139309423736" lon="15.262565464943048"><ele>9.666666666666666</ele><time>2026-04-08T11:10:31Z</time></trkpt><trkpt lat="38.20133918251193" lon="15.262824275094381"><ele>10.333333333333332</ele><time>2026-04-08T11:10:32Z</time></trkpt><trkpt lat="38.20129382023218" lon="15.26308119059853"><ele>11.0</ele><time>2026-04-08T11:10:33Z</time></trkpt><trkpt lat="38.201241237886975" lon="15.263331164237828"><ele>11.0</ele><time>2026-04-08T11:10:34Z</time></trkpt><trkpt lat="38.20119600410899" lon="15.2635845141169"><ele>11.0</ele><time>2026-04-08T11:10:35Z</time></trkpt><trkpt lat="38.20114830704867" lon="15.26383457411227"><ele>11.0</ele><time>2026-04-08T11:10:36Z</time></trkpt><trkpt lat="38.20107911879904" lon="15.264070505320475"><ele>11.666666666666666</ele><time>2026-04-08T11:10:37Z</time></trkpt><trkpt lat="38.20101621807709" lon="15.264301878903302"><ele>12.333333333333332</ele><time>2026-04-08T11:10:38Z</time></trkpt><trkpt lat="38.20095215916018" lon="15.264530489599691"><ele>13.0</ele><time>2026-04-08T11:10:39Z</time></trkpt><trkpt lat="38.20088714709753" lon="15.264762249924091"><ele>14.0</ele><time>2026-04-08T11:10:40Z</time></trkpt><trkpt lat="38.200822093698264" lon="15.265003667200638"><ele>15.0</ele><time>2026-04-08T11:10:41Z</time></trkpt><trkpt lat="38.2007520128686" lon="15.26525102803"><ele>16.0</ele><time>2026-04-08T11:10:42Z</time></trkpt><trkpt lat="38.2006777576252" lon="15.265497758859702"><ele>16.333333333333332</ele><time>2026-04-08T11:10:43Z</time></trkpt><trkpt lat="38.20060379980116" lon="15.265742491419534"><ele>16.666666666666668</ele><time>2026-04-08T11:10:44Z</time></trkpt><trkpt lat="38.200542948370256" lon="15.265988908332746"><ele>17.0</ele><time>2026-04-08T11:10:45Z</time></trkpt><trkpt lat="38.200459285878715" lon="15.266223294458706"><ele>17.666666666666668</ele><time>2026-04-08T11:10:46Z</time></trkpt><trkpt lat="38.20037342368713" lon="15.266462771893014"><ele>18.333333333333332</ele><time>2026-04-08T11:10:47Z</time></trkpt><trkpt lat="38.200279902648006" lon="15.266714854774376"><ele>19.0</ele><time>2026-04-08T11:10:48Z</time></trkpt><trkpt lat="38.20018425564963" lon="15.266954512091818"><ele>19.0</ele><time>2026-04-08T11:10:49Z</time></trkpt><trkpt lat="38.20008112689301" lon="15.267182673606241"><ele>19.0</ele><time>2026-04-08T11:10:50Z</time></trkpt><trkpt lat="38.19994829497943" lon="15.267366208652069"><ele>19.0</ele><time>2026-04-08T11:10:51Z</time></trkpt><trkpt lat="38.19980305955061" lon="15.267531909668373"><ele>19.333333333333332</ele><time>2026-04-08T11:10:52Z</time></trkpt><trkpt lat="38.199652185590004" lon="15.267700460846472"><ele>19.666666666666668</ele><time>2026-04-08T11:10:53Z</time></trkpt><trkpt lat="38.19950515318311" lon="15.267867882029572"><ele>20.0</ele><time>2026-04-08T11:10:54Z</time></trkpt><trkpt lat="38.19936949024098" lon="15.268046747873358"><ele>20.333333333333336</ele><time>2026-04-08T11:10:54.999Z</time></trkpt><trkpt lat="38.19925282758488" lon="15.268251860147974"><ele>20.666666666666668</ele><time>2026-04-08T11:10:55.999Z</time></trkpt><trkpt lat="38.19916837076678" lon="15.268483647814524"><ele>21.0</ele><time>2026-04-08T11:10:56.999Z</time></trkpt><trkpt lat="38.19905798360695" lon="15.268700108028124"><ele>21.0</ele><time>2026-04-08T11:10:57.999Z</time></trkpt><trkpt lat="38.19896184225259" lon="15.26892391100005"><ele>21.0</ele><time>2026-04-08T11:10:58.999Z</time></trkpt><trkpt lat="38.198864536288106" lon="15.26915042499055"><ele>21.0</ele><time>2026-04-08T11:10:59.999Z</time></trkpt><trkpt lat="38.198768466838" lon="15.269376670262735"><ele>21.0</ele><time>2026-04-08T11:11:00.999Z</time></trkpt><trkpt lat="38.198673238728446" lon="15.269601345238161"><ele>21.0</ele><time>2026-04-08T11:11:01.999Z</time></trkpt><trkpt lat="38.19857964639176" lon="15.269822339015313"><ele>21.0</ele><time>2026-04-08T11:11:02.999Z</time></trkpt><trkpt lat="38.19849084034919" lon="15.270028059101366"><ele>21.0</ele><time>2026-04-08T11:11:03.999Z</time></trkpt><trkpt lat="38.19840768306783" lon="15.27021870083192"><ele>21.0</ele><time>2026-04-08T11:11:04.999Z</time></trkpt><trkpt lat="38.19832910589841" lon="15.270398842450472"><ele>21.0</ele><time>2026-04-08T11:11:05.999Z</time></trkpt><trkpt lat="38.19825920728014" lon="15.270559088115412"><ele>21.0</ele><time>2026-04-08T11:11:06.999Z</time></trkpt><trkpt lat="38.19820138297361" lon="15.2706916528783"><ele>21.0</ele><time>2026-04-08T11:11:07.999Z</time></trkpt><trkpt lat="38.19814682504655" lon="15.270816729330237"><ele>21.0</ele><time>2026-04-08T11:11:08.999Z</time></trkpt><trkpt lat="38.198081491153026" lon="15.270983835854913"><ele>21.0</ele><time>2026-04-08T11:11:09.999Z</time></trkpt><trkpt lat="38.19802530326821" lon="15.271172809070805"><ele>21.0</ele><time>2026-04-08T11:11:10.999Z</time></trkpt><trkpt lat="38.19800532352242" lon="15.2713759409788"><ele>21.0</ele><time>2026-04-08T11:11:11.999Z</time></trkpt><trkpt lat="38.19797977841228" lon="15.27159417853446"><ele>21.0</ele><time>2026-04-08T11:11:12.999Z</time></trkpt><trkpt lat="38.19793559278721" lon="15.271825288063463"><ele>21.0</ele><time>2026-04-08T11:11:13.999Z</time></trkpt><trkpt lat="38.197905774750375" lon="15.27206267112379"><ele>21.0</ele><time>2026-04-08T11:11:14.999Z</time></trkpt><trkpt lat="38.197875588290245" lon="15.272300690523807"><ele>21.0</ele><time>2026-04-08T11:11:15.999Z</time></trkpt><trkpt lat="38.19786144352954" lon="15.272540886951921"><ele>21.0</ele><time>2026-04-08T11:11:16.999Z</time></trkpt><trkpt lat="38.197830496188345" lon="15.272775519461728"><ele>21.0</ele><time>2026-04-08T11:11:17.999Z</time></trkpt><trkpt lat="38.197793800986865" lon="15.273008645702264"><ele>21.0</ele><time>2026-04-08T11:11:18.999Z</time></trkpt><trkpt lat="38.19775035859336" lon="15.273241081898037"><ele>21.666666666666668</ele><time>2026-04-08T11:11:19.999Z</time></trkpt><trkpt lat="38.19769980427103" lon="15.273467794582718"><ele>22.333333333333336</ele><time>2026-04-08T11:11:20.999Z</time></trkpt><trkpt lat="38.197631307221656" lon="15.273683001548777"><ele>23.0</ele><time>2026-04-08T11:11:21.999Z</time></trkpt><trkpt lat="38.19754972374578" lon="15.273893757373791"><ele>22.333333333333336</ele><time>2026-04-08T11:11:22.999Z</time></trkpt><trkpt lat="38.19743013196728" lon="15.274065526931084"><ele>21.666666666666668</ele><time>2026-04-08T11:11:23.999Z</time></trkpt><trkpt lat="38.197304071757166" lon="15.274217916859447"><ele>21.0</ele><time>2026-04-08T11:11:24.999Z</time></trkpt><trkpt lat="38.19716578334282" lon="15.274350771142558"><ele>20.666666666666668</ele><time>2026-04-08T11:11:25.999Z</time></trkpt><trkpt lat="38.197032713437856" lon="15.27447511600229"><ele>20.333333333333336</ele><time>2026-04-08T11:11:26.999Z</time></trkpt><trkpt lat="38.19691889733285" lon="15.274605259584998"><ele>20.0</ele><time>2026-04-08T11:11:27.999Z</time></trkpt><trkpt lat="38.196796316131426" lon="15.27469615814918"><ele>20.0</ele><time>2026-04-08T11:11:28.999Z</time></trkpt><trkpt lat="38.19667523691189" lon="15.274809372658794"><ele>20.0</ele><time>2026-04-08T11:11:29.999Z</time></trkpt><trkpt lat="38.19654891721073" lon="15.274927528638713"><ele>20.0</ele><time>2026-04-08T11:11:30.999Z</time></trkpt><trkpt lat="38.19640491229761" lon="15.27506265231806"><ele>21.333333333333336</ele><time>2026-04-08T11:11:31.999Z</time></trkpt><trkpt lat="38.19626131289553" lon="15.275198090575268"><ele>22.666666666666668</ele><time>2026-04-08T11:11:32.999Z</time></trkpt><trkpt lat="38.196132187759304" lon="15.275318059863451"><ele>24.0</ele><time>2026-04-08T11:11:33.999Z</time></trkpt><trkpt lat="38.1959993534595" lon="15.27544087423243"><ele>24.0</ele><time>2026-04-08T11:11:34.999Z</time></trkpt><trkpt lat="38.195884725240965" lon="15.2755742457676"><ele>24.0</ele><time>2026-04-08T11:11:35.999Z</time></trkpt><trkpt lat="38.19577759414594" lon="15.275700618792666"><ele>24.0</ele><time>2026-04-08T11:11:36.999Z</time></trkpt><trkpt lat="38.195698358706736" lon="15.275849259006666"><ele>24.0</ele><time>2026-04-08T11:11:37.999Z</time></trkpt><trkpt lat="38.19564415945879" lon="15.276020883348684"><ele>24.666666666666664</ele><time>2026-04-08T11:11:38.999Z</time></trkpt><trkpt lat="38.19561490298941" lon="15.276206188421954"><ele>25.333333333333332</ele><time>2026-04-08T11:11:39.999Z</time></trkpt><trkpt lat="38.195575237024336" lon="15.276399682786844"><ele>26.0</ele><time>2026-04-08T11:11:40.999Z</time></trkpt><trkpt lat="38.195547419672046" lon="15.276629927336115"><ele>26.0</ele><time>2026-04-08T11:11:41.999Z</time></trkpt><trkpt lat="38.195517610362" lon="15.276886465471865"><ele>26.0</ele><time>2026-04-08T11:11:42.999Z</time></trkpt><trkpt lat="38.19548977793483" lon="15.277117317808363"><ele>26.0</ele><time>2026-04-08T11:11:43.999Z</time></trkpt><trkpt lat="38.195464269272655" lon="15.277341653351675"><ele>26.333333333333332</ele><time>2026-04-08T11:11:44.999Z</time></trkpt><trkpt lat="38.195446983137565" lon="15.27755029905976"><ele>26.666666666666664</ele><time>2026-04-08T11:11:45.999Z</time></trkpt><trkpt lat="38.19541760384142" lon="15.27774220991868"><ele>27.0</ele><time>2026-04-08T11:11:46.999Z</time></trkpt><trkpt lat="38.195407752389364" lon="15.277927185353809"><ele>27.25</ele><time>2026-04-08T11:11:47.999Z</time></trkpt><trkpt lat="38.195421178293266" lon="15.278109436903526"><ele>27.5</ele><time>2026-04-08T11:11:49.001Z</time></trkpt><trkpt lat="38.19546254251858" lon="15.278293889199164"><ele>27.75</ele><time>2026-04-08T11:11:50.001Z</time></trkpt><trkpt lat="38.195529817554316" lon="15.278468936927995"><ele>28.0</ele><time>2026-04-08T11:11:51.001Z</time></trkpt><trkpt lat="38.19561469641466" lon="15.278623749358836"><ele>27.5</ele><time>2026-04-08T11:11:52.001Z</time></trkpt><trkpt lat="38.19570977817409" lon="15.278758142116553"><ele>27.0</ele><time>2026-04-08T11:11:53.001Z</time></trkpt><trkpt lat="38.19580268325287" lon="15.278865796603126"><ele>26.5</ele><time>2026-04-08T11:11:54.001Z</time></trkpt><trkpt lat="38.19588746134202" lon="15.278950088815296"><ele>26.0</ele><time>2026-04-08T11:11:55.001Z</time></trkpt><trkpt lat="38.195952437785984" lon="15.279026175042471"><ele>25.75</ele><time>2026-04-08T11:11:56.001Z</time></trkpt><trkpt lat="38.19602302183806" lon="15.279060333729188"><ele>25.5</ele><time>2026-04-08T11:11:57.001Z</time></trkpt><trkpt lat="38.19609089054177" lon="15.279135905340079"><ele>25.25</ele><time>2026-04-08T11:11:59.001Z</time></trkpt><trkpt lat="38.19595047766225" lon="15.279375130783428"><ele>25.0</ele><time>2026-04-08T11:12:00.001Z</time></trkpt><trkpt lat="38.19589868308644" lon="15.279476231815963"><ele>25.0</ele><time>2026-04-08T11:12:01.001Z</time></trkpt><trkpt lat="38.19583919562818" lon="15.279598133755265"><ele>25.0</ele><time>2026-04-08T11:12:02.001Z</time></trkpt><trkpt lat="38.19577536284624" lon="15.279730175481463"><ele>25.0</ele><time>2026-04-08T11:12:03.001Z</time></trkpt><trkpt lat="38.19570859930669" lon="15.279868279609468"><ele>25.0</ele><time>2026-04-08T11:12:04Z</time></trkpt><trkpt lat="38.19564601899476" lon="15.279994101486725"><ele>25.4</ele><time>2026-04-08T11:12:05Z</time></trkpt><trkpt lat="38.195593632624174" lon="15.280092294716262"><ele>25.8</ele><time>2026-04-08T11:12:06Z</time></trkpt><trkpt lat="38.19555164873547" lon="15.280155490749953"><ele>26.200000000000003</ele><time>2026-04-08T11:12:07Z</time></trkpt><trkpt lat="38.19549398209183" lon="15.280211918332046"><ele>26.6</ele><time>2026-04-08T11:12:09Z</time></trkpt><trkpt lat="38.195559109273674" lon="15.280388302996043"><ele>27.0</ele><time>2026-04-08T11:12:11Z</time></trkpt><trkpt lat="38.19561046096254" lon="15.28050367537399"><ele>27.0</ele><time>2026-04-08T11:12:13Z</time></trkpt><trkpt lat="38.195645451927525" lon="15.280590979311722"><ele>27.000000000000004</ele><time>2026-04-08T11:12:15Z</time></trkpt><trkpt lat="38.19568092240313" lon="15.280672717219767"><ele>27.000000000000004</ele><time>2026-04-08T11:12:17Z</time></trkpt><trkpt lat="38.195730824130486" lon="15.280765324525502"><ele>27.0</ele><time>2026-04-08T11:12:19Z</time></trkpt><trkpt lat="38.195792127526126" lon="15.280882608521521"><ele>27.0</ele><time>2026-04-08T11:12:21Z</time></trkpt><trkpt lat="38.19585483067094" lon="15.280995515260972"><ele>26.8</ele><time>2026-04-08T11:12:23Z</time></trkpt><trkpt lat="38.19588507128152" lon="15.281071416617925"><ele>26.6</ele><time>2026-04-08T11:12:27Z</time></trkpt><trkpt lat="38.195914726877575" lon="15.28118012579109"><ele>26.400000000000002</ele><time>2026-04-08T11:12:29Z</time></trkpt><trkpt lat="38.19596582640753" lon="15.281258141805473"><ele>26.200000000000003</ele><time>2026-04-08T11:12:30Z</time></trkpt><trkpt lat="38.19602536988684" lon="15.28137239262784"><ele>26.0</ele><time>2026-04-08T11:12:31Z</time></trkpt><trkpt lat="38.19609236477103" lon="15.281517271487825"><ele>26.0</ele><time>2026-04-08T11:12:32Z</time></trkpt><trkpt lat="38.19616647666161" lon="15.281690285918021"><ele>26.0</ele><time>2026-04-08T11:12:33Z</time></trkpt><trkpt lat="38.19624619070525" lon="15.281896777571838"><ele>26.0</ele><time>2026-04-08T11:12:34Z</time></trkpt><trkpt lat="38.196318638617505" lon="15.282127115071086"><ele>26.333333333333332</ele><time>2026-04-08T11:12:35Z</time></trkpt><trkpt lat="38.196418630801425" lon="15.282364745498644"><ele>26.666666666666664</ele><time>2026-04-08T11:12:36Z</time></trkpt><trkpt lat="38.19653546391711" lon="15.282595303954539"><ele>27.0</ele><time>2026-04-08T11:12:37Z</time></trkpt><trkpt lat="38.196674557219794" lon="15.282803594356468"><ele>27.5</ele><time>2026-04-08T11:12:38Z</time></trkpt><trkpt lat="38.19681748813537" lon="15.283023892874919"><ele>28.0</ele><time>2026-04-08T11:12:39Z</time></trkpt><trkpt lat="38.19696976091628" lon="15.283270827351464"><ele>26.5</ele><time>2026-04-08T11:12:40Z</time></trkpt><trkpt lat="38.197111929884485" lon="15.283528032492388"><ele>25.0</ele><time>2026-04-08T11:12:41Z</time></trkpt><trkpt lat="38.197237499410384" lon="15.28377126302409"><ele>23.333333333333336</ele><time>2026-04-08T11:12:42Z</time></trkpt><trkpt lat="38.19735418494964" lon="15.283996690762839"><ele>21.666666666666668</ele><time>2026-04-08T11:12:43Z</time></trkpt><trkpt lat="38.1974717249633" lon="15.284193240363928"><ele>20.0</ele><time>2026-04-08T11:12:44Z</time></trkpt><trkpt lat="38.19760877857681" lon="15.284360244087262"><ele>20.0</ele><time>2026-04-08T11:12:45Z</time></trkpt><trkpt lat="38.19776848382626" lon="15.284504250305435"><ele>20.0</ele><time>2026-04-08T11:12:46Z</time></trkpt><trkpt lat="38.19795825803638" lon="15.284640040981916"><ele>20.0</ele><time>2026-04-08T11:12:47Z</time></trkpt><trkpt lat="38.19814986293647" lon="15.28477436939839"><ele>19.0</ele><time>2026-04-08T11:12:48Z</time></trkpt><trkpt lat="38.1983245717475" lon="15.284913269948879"><ele>18.0</ele><time>2026-04-08T11:12:49Z</time></trkpt><trkpt lat="38.198483196536216" lon="15.285059354387398"><ele>17.0</ele><time>2026-04-08T11:12:50Z</time></trkpt><trkpt lat="38.198624460096184" lon="15.285229413746144"><ele>17.0</ele><time>2026-04-08T11:12:51Z</time></trkpt><trkpt lat="38.19874609872862" lon="15.285425017454822"><ele>17.0</ele><time>2026-04-08T11:12:52Z</time></trkpt><trkpt lat="38.19884325264234" lon="15.285629889813112"><ele>17.0</ele><time>2026-04-08T11:12:53Z</time></trkpt><trkpt lat="38.19891839494658" lon="15.285854770373586"><ele>16.666666666666668</ele><time>2026-04-08T11:12:54Z</time></trkpt><trkpt lat="38.198972993009555" lon="15.286095923650562"><ele>16.333333333333332</ele><time>2026-04-08T11:12:55Z</time></trkpt><trkpt lat="38.199017593182916" lon="15.286335940103559"><ele>16.0</ele><time>2026-04-08T11:12:56Z</time></trkpt><trkpt lat="38.19907021250214" lon="15.286569923168011"><ele>16.666666666666664</ele><time>2026-04-08T11:12:57Z</time></trkpt><trkpt lat="38.19909989256859" lon="15.286787003775782"><ele>17.333333333333332</ele><time>2026-04-08T11:12:58Z</time></trkpt><trkpt lat="38.19912185363237" lon="15.286993334288933"><ele>18.0</ele><time>2026-04-08T11:12:59Z</time></trkpt><trkpt lat="38.199105432831324" lon="15.287197268091886"><ele>17.5</ele><time>2026-04-08T11:13:00Z</time></trkpt><trkpt lat="38.199102082106684" lon="15.28738778072675"><ele>17.0</ele><time>2026-04-08T11:13:00.999Z</time></trkpt><trkpt lat="38.19910994812665" lon="15.287571033709602"><ele>16.5</ele><time>2026-04-08T11:13:01.999Z</time></trkpt><trkpt lat="38.199090285884665" lon="15.287751815848853"><ele>16.0</ele><time>2026-04-08T11:13:02.999Z</time></trkpt><trkpt lat="38.19910044309365" lon="15.287937969015722"><ele>16.0</ele><time>2026-04-08T11:13:03.999Z</time></trkpt><trkpt lat="38.19910300758777" lon="15.288120749475482"><ele>16.0</ele><time>2026-04-08T11:13:04.999Z</time></trkpt><trkpt lat="38.199091726373574" lon="15.288298762315257"><ele>16.0</ele><time>2026-04-08T11:13:05.999Z</time></trkpt><trkpt lat="38.19909541990917" lon="15.288469463544239"><ele>16.0</ele><time>2026-04-08T11:13:06.999Z</time></trkpt><trkpt lat="38.19909864636098" lon="15.288648444761584"><ele>16.0</ele><time>2026-04-08T11:13:07.999Z</time></trkpt><trkpt lat="38.19910162153172" lon="15.28883508407239"><ele>16.0</ele><time>2026-04-08T11:13:08.999Z</time></trkpt><trkpt lat="38.19910469304743" lon="15.28902776722009"><ele>16.0</ele><time>2026-04-08T11:13:09.999Z</time></trkpt><trkpt lat="38.199108143844285" lon="15.289244243550392"><ele>14.666666666666666</ele><time>2026-04-08T11:13:10.999Z</time></trkpt><trkpt lat="38.199112147982255" lon="15.28946796067455"><ele>13.333333333333332</ele><time>2026-04-08T11:13:11.999Z</time></trkpt><trkpt lat="38.19911679197087" lon="15.289710418072676"><ele>12.0</ele><time>2026-04-08T11:13:12.999Z</time></trkpt><trkpt lat="38.199120920203576" lon="15.2899259485236"><ele>12.0</ele><time>2026-04-08T11:13:13.999Z</time></trkpt><trkpt lat="38.199124847556696" lon="15.290130991262059"><ele>12.0</ele><time>2026-04-08T11:13:14.999Z</time></trkpt><trkpt lat="38.1991278556197" lon="15.290321063020388"><ele>12.0</ele><time>2026-04-08T11:13:15.999Z</time></trkpt><trkpt lat="38.19912982419061" lon="15.29049951848273"><ele>12.75</ele><time>2026-04-08T11:13:16.999Z</time></trkpt><trkpt lat="38.19913649952787" lon="15.290668406622643"><ele>13.5</ele><time>2026-04-08T11:13:17.999Z</time></trkpt><trkpt lat="38.19915584613997" lon="15.290842259324517"><ele>14.25</ele><time>2026-04-08T11:13:18.999Z</time></trkpt><trkpt lat="38.19918563281739" lon="15.291018062364014"><ele>15.0</ele><time>2026-04-08T11:13:19.999Z</time></trkpt><trkpt lat="38.199239999311786" lon="15.291198364783174"><ele>15.0</ele><time>2026-04-08T11:13:20.999Z</time></trkpt><trkpt lat="38.19928097672028" lon="15.291375379977447"><ele>15.0</ele><time>2026-04-08T11:13:21.999Z</time></trkpt><trkpt lat="38.19932083997289" lon="15.291559009166393"><ele>15.0</ele><time>2026-04-08T11:13:22.999Z</time></trkpt><trkpt lat="38.199358815238774" lon="15.291728328634887"><ele>15.0</ele><time>2026-04-08T11:13:23.999Z</time></trkpt><trkpt lat="38.19938161641096" lon="15.291887654335552"><ele>14.75</ele><time>2026-04-08T11:13:24.999Z</time></trkpt><trkpt lat="38.19941779932867" lon="15.292043046104208"><ele>14.5</ele><time>2026-04-08T11:13:25.999Z</time></trkpt><trkpt lat="38.199460509963686" lon="15.292221675097249"><ele>14.25</ele><time>2026-04-08T11:13:26.999Z</time></trkpt><trkpt lat="38.19951083910962" lon="15.2924253469918"><ele>14.0</ele><time>2026-04-08T11:13:27.999Z</time></trkpt><trkpt lat="38.1995751114756" lon="15.292618908503758"><ele>13.333333333333334</ele><time>2026-04-08T11:13:28.999Z</time></trkpt><trkpt lat="38.1996208919085" lon="15.292808962041345"><ele>12.666666666666668</ele><time>2026-04-08T11:13:29.999Z</time></trkpt><trkpt lat="38.19966297966554" lon="15.292991502623359"><ele>12.0</ele><time>2026-04-08T11:13:30.999Z</time></trkpt><trkpt lat="38.19968863468554" lon="15.293174768608928"><ele>11.333333333333334</ele><time>2026-04-08T11:13:31.999Z</time></trkpt><trkpt lat="38.19970120881919" lon="15.29337132225563"><ele>10.666666666666668</ele><time>2026-04-08T11:13:32.999Z</time></trkpt><trkpt lat="38.199695442652164" lon="15.293571667287848"><ele>10.0</ele><time>2026-04-08T11:13:33.999Z</time></trkpt><trkpt lat="38.19967723386088" lon="15.293770383280334"><ele>10.0</ele><time>2026-04-08T11:13:34.999Z</time></trkpt><trkpt lat="38.199652947717716" lon="15.293980905856102"><ele>10.0</ele><time>2026-04-08T11:13:35.999Z</time></trkpt><trkpt lat="38.19963785688819" lon="15.29417245207918"><ele>10.0</ele><time>2026-04-08T11:13:36.999Z</time></trkpt><trkpt lat="38.19962237397158" lon="15.29434094137872"><ele>10.0</ele><time>2026-04-08T11:13:37.999Z</time></trkpt><trkpt lat="38.199610070256604" lon="15.29450356964206"><ele>10.0</ele><time>2026-04-08T11:13:38.999Z</time></trkpt><trkpt lat="38.199597570294564" lon="15.294701603629163"><ele>10.0</ele><time>2026-04-08T11:13:39.999Z</time></trkpt><trkpt lat="38.19958350985869" lon="15.29490475898419"><ele>10.0</ele><time>2026-04-08T11:13:40.999Z</time></trkpt><trkpt lat="38.19957237267023" lon="15.295102858456167"><ele>10.666666666666668</ele><time>2026-04-08T11:13:41.999Z</time></trkpt><trkpt lat="38.19955906883066" lon="15.295300351968647"><ele>11.333333333333334</ele><time>2026-04-08T11:13:42.999Z</time></trkpt><trkpt lat="38.19955043159136" lon="15.295501446007382"><ele>12.0</ele><time>2026-04-08T11:13:43.999Z</time></trkpt><trkpt lat="38.19954604823153" lon="15.295704764251562"><ele>12.666666666666668</ele><time>2026-04-08T11:13:44.999Z</time></trkpt><trkpt lat="38.199520461812796" lon="15.295925307041447"><ele>13.333333333333334</ele><time>2026-04-08T11:13:45.999Z</time></trkpt><trkpt lat="38.19952660532079" lon="15.296149161768833"><ele>14.0</ele><time>2026-04-08T11:13:46.999Z</time></trkpt><trkpt lat="38.19951638688085" lon="15.296373805178053"><ele>14.0</ele><time>2026-04-08T11:13:47.999Z</time></trkpt><trkpt lat="38.19950970853104" lon="15.296597143384094"><ele>14.0</ele><time>2026-04-08T11:13:48.999Z</time></trkpt><trkpt lat="38.199499742265196" lon="15.296806273121865"><ele>14.0</ele><time>2026-04-08T11:13:49.999Z</time></trkpt><trkpt lat="38.199489837690976" lon="15.297014119519194"><ele>14.0</ele><time>2026-04-08T11:13:50.999Z</time></trkpt><trkpt lat="38.19948465155108" lon="15.297234384209855"><ele>14.0</ele><time>2026-04-08T11:13:51.999Z</time></trkpt><trkpt lat="38.19946173113999" lon="15.297485706240472"><ele>14.0</ele><time>2026-04-08T11:13:52.999Z</time></trkpt><trkpt lat="38.19945275541058" lon="15.297758192572816"><ele>15.5</ele><time>2026-04-08T11:13:53.999Z</time></trkpt><trkpt lat="38.19945703744532" lon="15.298058970078051"><ele>17.0</ele><time>2026-04-08T11:13:55Z</time></trkpt><trkpt lat="38.19942968182482" lon="15.298386106637432"><ele>17.5</ele><time>2026-04-08T11:13:56Z</time></trkpt><trkpt lat="38.199412913867626" lon="15.298692756186833"><ele>18.0</ele><time>2026-04-08T11:13:57Z</time></trkpt><trkpt lat="38.19940399135598" lon="15.2990082681496"><ele>16.5</ele><time>2026-04-08T11:13:58Z</time></trkpt><trkpt lat="38.19939737585946" lon="15.299304498515133"><ele>15.0</ele><time>2026-04-08T11:13:59Z</time></trkpt><trkpt lat="38.19938792940018" lon="15.299582113478209"><ele>15.333333333333332</ele><time>2026-04-08T11:14:00Z</time></trkpt><trkpt lat="38.199380861626516" lon="15.29984936471476"><ele>15.666666666666666</ele><time>2026-04-08T11:14:01Z</time></trkpt><trkpt lat="38.199375963435486" lon="15.300089897146178"><ele>16.0</ele><time>2026-04-08T11:14:02Z</time></trkpt><trkpt lat="38.199373222707585" lon="15.300309946497086"><ele>16.0</ele><time>2026-04-08T11:14:03Z</time></trkpt><trkpt lat="38.19937830335304" lon="15.300521995693808"><ele>16.0</ele><time>2026-04-08T11:14:04Z</time></trkpt><trkpt lat="38.199386531551426" lon="15.30073835264499"><ele>16.0</ele><time>2026-04-08T11:14:05Z</time></trkpt><trkpt lat="38.19939921806637" lon="15.300958607895868"><ele>16.666666666666664</ele><time>2026-04-08T11:14:06Z</time></trkpt><trkpt lat="38.19941801493335" lon="15.30118077560168"><ele>17.333333333333332</ele><time>2026-04-08T11:14:07Z</time></trkpt><trkpt lat="38.19943881125668" lon="15.30139491941447"><ele>18.0</ele><time>2026-04-08T11:14:08Z</time></trkpt><trkpt lat="38.199469254795645" lon="15.301606099122834"><ele>18.0</ele><time>2026-04-08T11:14:09Z</time></trkpt><trkpt lat="38.1995083328564" lon="15.301826037143707"><ele>18.0</ele><time>2026-04-08T11:14:10Z</time></trkpt><trkpt lat="38.199567381209796" lon="15.302065992432482"><ele>18.0</ele><time>2026-04-08T11:14:11Z</time></trkpt><trkpt lat="38.19964112989242" lon="15.302321869722595"><ele>18.0</ele><time>2026-04-08T11:14:12Z</time></trkpt><trkpt lat="38.199703457657286" lon="15.302569645346292"><ele>18.0</ele><time>2026-04-08T11:14:13Z</time></trkpt><trkpt lat="38.19975842914241" lon="15.30280298029811"><ele>18.0</ele><time>2026-04-08T11:14:14Z</time></trkpt><trkpt lat="38.19980426220044" lon="15.30301493230702"><ele>17.0</ele><time>2026-04-08T11:14:15Z</time></trkpt><trkpt lat="38.199851024179154" lon="15.303215952088184"><ele>16.0</ele><time>2026-04-08T11:14:16Z</time></trkpt><trkpt lat="38.199898203878625" lon="15.303400386550955"><ele>15.0</ele><time>2026-04-08T11:14:17Z</time></trkpt><trkpt lat="38.19994373899096" lon="15.303574077235199"><ele>15.0</ele><time>2026-04-08T11:14:18Z</time></trkpt><trkpt lat="38.19998704917716" lon="15.303733373193007"><ele>15.0</ele><time>2026-04-08T11:14:19Z</time></trkpt><trkpt lat="38.200028177589566" lon="15.3038825834064"><ele>15.0</ele><time>2026-04-08T11:14:20Z</time></trkpt><trkpt lat="38.20006265982987" lon="15.304004967731675"><ele>15.0</ele><time>2026-04-08T11:14:21Z</time></trkpt><trkpt lat="38.200089476186854" lon="15.304112769159165"><ele>15.0</ele><time>2026-04-08T11:14:22Z</time></trkpt><trkpt lat="38.20010971023486" lon="15.304201933983032"><ele>15.25</ele><time>2026-04-08T11:14:23Z</time></trkpt><trkpt lat="38.20013723471102" lon="15.30434317303334"><ele>15.5</ele><time>2026-04-08T11:14:25Z</time></trkpt><trkpt lat="38.20031952689927" lon="15.304393717234689"><ele>15.75</ele><time>2026-04-08T11:14:27Z</time></trkpt><trkpt lat="38.20033777658866" lon="15.304563084341817"><ele>16.0</ele><time>2026-04-08T11:19:51.999Z</time></trkpt><trkpt lat="38.20029393299833" lon="15.304649246849717"><ele>16.400000000000002</ele><time>2026-04-08T11:19:53.999Z</time></trkpt><trkpt lat="38.20029754537727" lon="15.304771573908736"><ele>16.8</ele><time>2026-04-08T11:19:55.999Z</time></trkpt><trkpt lat="38.20030814771251" lon="15.304871745199987"><ele>17.200000000000003</ele><time>2026-04-08T11:19:56.999Z</time></trkpt><trkpt lat="38.200321401771404" lon="15.305016524125127"><ele>17.6</ele><time>2026-04-08T11:19:57.999Z</time></trkpt><trkpt lat="38.20035214871145" lon="15.305195400260425"><ele>18.0</ele><time>2026-04-08T11:19:58.999Z</time></trkpt><trkpt lat="38.2003467983193" lon="15.305385594424427"><ele>18.0</ele><time>2026-04-08T11:19:59.999Z</time></trkpt><trkpt lat="38.20037479506427" lon="15.305550205095184"><ele>18.0</ele><time>2026-04-08T11:20:00.999Z</time></trkpt><trkpt lat="38.20039778181158" lon="15.30568521769038"><ele>18.0</ele><time>2026-04-08T11:20:01.999Z</time></trkpt><trkpt lat="38.200420615700274" lon="15.305804133764417"><ele>18.0</ele><time>2026-04-08T11:20:02.999Z</time></trkpt><trkpt lat="38.20044142758757" lon="15.305917406397269"><ele>18.0</ele><time>2026-04-08T11:20:03.999Z</time></trkpt><trkpt lat="38.2004598695722" lon="15.30601778034439"><ele>18.6</ele><time>2026-04-08T11:20:04.999Z</time></trkpt><trkpt lat="38.200479484819944" lon="15.306127774541151"><ele>19.200000000000003</ele><time>2026-04-08T11:20:05.999Z</time></trkpt><trkpt lat="38.200501685968945" lon="15.30625351456582"><ele>19.8</ele><time>2026-04-08T11:20:06.998Z</time></trkpt><trkpt lat="38.20052378026203" lon="15.306382273831698"><ele>20.400000000000002</ele><time>2026-04-08T11:20:07.998Z</time></trkpt><trkpt lat="38.20054500087005" lon="15.30650594148595"><ele>21.0</ele><time>2026-04-08T11:20:08.998Z</time></trkpt><trkpt lat="38.20057962348724" lon="15.30661843750967"><ele>21.200000000000003</ele><time>2026-04-08T11:20:09.998Z</time></trkpt><trkpt lat="38.20059710553016" lon="15.30673608659832"><ele>21.400000000000002</ele><time>2026-04-08T11:20:10.998Z</time></trkpt><trkpt lat="38.20061666941168" lon="15.3068548241627"><ele>21.6</ele><time>2026-04-08T11:20:12Z</time></trkpt><trkpt lat="38.200634776809274" lon="15.306964425026466"><ele>21.8</ele><time>2026-04-08T11:20:13Z</time></trkpt><trkpt lat="38.20065359150838" lon="15.307079934070474"><ele>22.0</ele><time>2026-04-08T11:20:14Z</time></trkpt><trkpt lat="38.20067371526356" lon="15.307201589750234"><ele>21.0</ele><time>2026-04-08T11:20:15Z</time></trkpt><trkpt lat="38.20069399479778" lon="15.307326922770587"><ele>20.0</ele><time>2026-04-08T11:20:16Z</time></trkpt><trkpt lat="38.20071769790928" lon="15.307453030734989"><ele>19.0</ele><time>2026-04-08T11:20:17Z</time></trkpt><trkpt lat="38.20074211504931" lon="15.307596227867863"><ele>18.0</ele><time>2026-04-08T11:20:18Z</time></trkpt><trkpt lat="38.20076902774419" lon="15.30775454900354"><ele>17.0</ele><time>2026-04-08T11:20:19Z</time></trkpt><trkpt lat="38.200797749451034" lon="15.307925158513928"><ele>17.25</ele><time>2026-04-08T11:20:20Z</time></trkpt><trkpt lat="38.20082299864229" lon="15.308091336306303"><ele>17.5</ele><time>2026-04-08T11:20:21Z</time></trkpt><trkpt lat="38.20085653036372" lon="15.308243680363315"><ele>17.75</ele><time>2026-04-08T11:20:22Z</time></trkpt><trkpt lat="38.20089030235386" lon="15.308406018422238"><ele>18.0</ele><time>2026-04-08T11:20:23Z</time></trkpt><trkpt lat="38.200911551172695" lon="15.308608613266895"><ele>18.0</ele><time>2026-04-08T11:20:24Z</time></trkpt><trkpt lat="38.20096133807184" lon="15.308815561647991"><ele>18.0</ele><time>2026-04-08T11:20:25Z</time></trkpt><trkpt lat="38.20098816307516" lon="15.309024288072266"><ele>18.0</ele><time>2026-04-08T11:20:26Z</time></trkpt><trkpt lat="38.20101862909327" lon="15.309214978807496"><ele>18.5</ele><time>2026-04-08T11:20:27Z</time></trkpt><trkpt lat="38.20105478467258" lon="15.309393017693811"><ele>19.0</ele><time>2026-04-08T11:20:28Z</time></trkpt><trkpt lat="38.20108521132259" lon="15.309563604814572"><ele>19.5</ele><time>2026-04-08T11:20:29Z</time></trkpt><trkpt lat="38.20111283087171" lon="15.309716010524212"><ele>20.0</ele><time>2026-04-08T11:20:30Z</time></trkpt><trkpt lat="38.20113189232942" lon="15.309866164978434"><ele>20.25</ele><time>2026-04-08T11:20:31Z</time></trkpt><trkpt lat="38.20115362002796" lon="15.310018785493428"><ele>20.5</ele><time>2026-04-08T11:20:32Z</time></trkpt><trkpt lat="38.20118208326399" lon="15.310164760142754"><ele>20.75</ele><time>2026-04-08T11:20:33Z</time></trkpt><trkpt lat="38.20121360251466" lon="15.310313022969956"><ele>21.0</ele><time>2026-04-08T11:20:34Z</time></trkpt><trkpt lat="38.20124040810873" lon="15.3104571555662"><ele>21.0</ele><time>2026-04-08T11:20:35Z</time></trkpt><trkpt lat="38.20126075033357" lon="15.310599046806294"><ele>21.0</ele><time>2026-04-08T11:20:36Z</time></trkpt><trkpt lat="38.20128903297978" lon="15.310739501552515"><ele>21.0</ele><time>2026-04-08T11:20:37Z</time></trkpt><trkpt lat="38.201314123958156" lon="15.310879920170914"><ele>21.0</ele><time>2026-04-08T11:20:38Z</time></trkpt><trkpt lat="38.20134565082857" lon="15.311046162403615"><ele>21.0</ele><time>2026-04-08T11:20:39Z</time></trkpt><trkpt lat="38.20137349742052" lon="15.311245892684138"><ele>21.0</ele><time>2026-04-08T11:20:40Z</time></trkpt><trkpt lat="38.201412674514856" lon="15.311463149469132"><ele>21.0</ele><time>2026-04-08T11:20:41Z</time></trkpt><trkpt lat="38.20144879381704" lon="15.311663449267824"><ele>20.25</ele><time>2026-04-08T11:20:42Z</time></trkpt><trkpt lat="38.20147710959635" lon="15.31182047458889"><ele>19.5</ele><time>2026-04-08T11:20:43Z</time></trkpt><trkpt lat="38.20151486240287" lon="15.311955971880188"><ele>18.75</ele><time>2026-04-08T11:20:44Z</time></trkpt><trkpt lat="38.201535332177656" lon="15.312095299238537"><ele>18.0</ele><time>2026-04-08T11:20:45Z</time></trkpt><trkpt lat="38.20156144606912" lon="15.312221853918466"><ele>17.8</ele><time>2026-04-08T11:20:46Z</time></trkpt><trkpt lat="38.20157892180386" lon="15.312335541411258"><ele>17.6</ele><time>2026-04-08T11:20:47Z</time></trkpt><trkpt lat="38.201602872090355" lon="15.312439642179207"><ele>17.4</ele><time>2026-04-08T11:20:48Z</time></trkpt><trkpt lat="38.20160595876673" lon="15.312541853102298"><ele>17.2</ele><time>2026-04-08T11:20:49Z</time></trkpt><trkpt lat="38.2016450804741" lon="15.312682216824546"><ele>17.0</ele><time>2026-04-08T11:20:51Z</time></trkpt><trkpt lat="38.201669540439156" lon="15.312842502910922"><ele>17.0</ele><time>2026-04-08T11:20:53Z</time></trkpt><trkpt lat="38.201689229263586" lon="15.31292918579608"><ele>17.0</ele><time>2026-04-08T11:20:54Z</time></trkpt><trkpt lat="38.20170748985809" lon="15.313023215877553"><ele>17.0</ele><time>2026-04-08T11:20:55Z</time></trkpt><trkpt lat="38.201724343063184" lon="15.313118372412225"><ele>17.0</ele><time>2026-04-08T11:20:56Z</time></trkpt><trkpt lat="38.20172612961999" lon="15.31321469018423"><ele>17.0</ele><time>2026-04-08T11:20:57Z</time></trkpt><trkpt lat="38.201756156875526" lon="15.313310001150708"><ele>17.0</ele><time>2026-04-08T11:20:58Z</time></trkpt><trkpt lat="38.20177190985227" lon="15.31340052170695"><ele>17.0</ele><time>2026-04-08T11:20:59Z</time></trkpt><trkpt lat="38.20178684944842" lon="15.313492811146064"><ele>17.0</ele><time>2026-04-08T11:21:00Z</time></trkpt><trkpt lat="38.20180688032222" lon="15.3135805451808"><ele>17.0</ele><time>2026-04-08T11:21:01Z</time></trkpt><trkpt lat="38.20180942758498" lon="15.313682936674219"><ele>17.0</ele><time>2026-04-08T11:21:02Z</time></trkpt><trkpt lat="38.20182693765607" lon="15.313782149726414"><ele>17.0</ele><time>2026-04-08T11:21:03Z</time></trkpt><trkpt lat="38.20184600507035" lon="15.31389018669952"><ele>17.0</ele><time>2026-04-08T11:21:04Z</time></trkpt><trkpt lat="38.20186232351645" lon="15.31398264796591"><ele>17.0</ele><time>2026-04-08T11:21:05Z</time></trkpt><trkpt lat="38.20188194144058" lon="15.31409139370959"><ele>17.0</ele><time>2026-04-08T11:21:06Z</time></trkpt><trkpt lat="38.20190458300799" lon="15.314214146909604"><ele>17.0</ele><time>2026-04-08T11:21:07Z</time></trkpt><trkpt lat="38.201930412899465" lon="15.314352484109364"><ele>17.0</ele><time>2026-04-08T11:21:08Z</time></trkpt><trkpt lat="38.20195692107654" lon="15.314494454303912"><ele>17.0</ele><time>2026-04-08T11:21:09Z</time></trkpt><trkpt lat="38.20198281236987" lon="15.314633120187375"><ele>16.8</ele><time>2026-04-08T11:21:10Z</time></trkpt><trkpt lat="38.20200783341137" lon="15.314767125647357"><ele>16.6</ele><time>2026-04-08T11:21:10.999Z</time></trkpt><trkpt lat="38.202032353308866" lon="15.314902437554654"><ele>16.400000000000002</ele><time>2026-04-08T11:21:11.999Z</time></trkpt><trkpt lat="38.20205527262476" lon="15.315036721193191"><ele>16.2</ele><time>2026-04-08T11:21:12.999Z</time></trkpt><trkpt lat="38.202093874019894" lon="15.315164887784256"><ele>16.0</ele><time>2026-04-08T11:21:13.999Z</time></trkpt><trkpt lat="38.20211896581069" lon="15.31530502876156"><ele>16.0</ele><time>2026-04-08T11:21:14.999Z</time></trkpt><trkpt lat="38.20214398764328" lon="15.31544459857123"><ele>16.0</ele><time>2026-04-08T11:21:15.999Z</time></trkpt><trkpt lat="38.20216686517567" lon="15.315578520536999"><ele>16.0</ele><time>2026-04-08T11:21:16.999Z</time></trkpt><trkpt lat="38.20218814426613" lon="15.315701035619124"><ele>16.0</ele><time>2026-04-08T11:21:17.999Z</time></trkpt><trkpt lat="38.20221004464584" lon="15.31580995715094"><ele>16.0</ele><time>2026-04-08T11:21:18.999Z</time></trkpt><trkpt lat="38.20223492723269" lon="15.315916972476725"><ele>15.8</ele><time>2026-04-08T11:21:19.999Z</time></trkpt><trkpt lat="38.20222813894939" lon="15.31602159949767"><ele>15.600000000000001</ele><time>2026-04-08T11:21:20.999Z</time></trkpt><trkpt lat="38.20224725201311" lon="15.31612628378633"><ele>15.4</ele><time>2026-04-08T11:21:21.999Z</time></trkpt><trkpt lat="38.202269857747076" lon="15.316245841049192"><ele>15.2</ele><time>2026-04-08T11:21:22.999Z</time></trkpt><trkpt lat="38.20229126759131" lon="15.316359073362866"><ele>15.0</ele><time>2026-04-08T11:21:23.999Z</time></trkpt><trkpt lat="38.2023156820712" lon="15.316490198124004"><ele>14.8</ele><time>2026-04-08T11:21:24.999Z</time></trkpt><trkpt lat="38.20234021825941" lon="15.316621731934413"><ele>14.6</ele><time>2026-04-08T11:21:25.999Z</time></trkpt><trkpt lat="38.20236274383652" lon="15.316748448586953"><ele>14.399999999999999</ele><time>2026-04-08T11:21:26.999Z</time></trkpt><trkpt lat="38.202383881491635" lon="15.316873646305906"><ele>14.2</ele><time>2026-04-08T11:21:27.999Z</time></trkpt><trkpt lat="38.202406493401845" lon="15.317007576001002"><ele>14.0</ele><time>2026-04-08T11:21:28.999Z</time></trkpt><trkpt lat="38.20242939656957" lon="15.317141146962925"><ele>14.0</ele><time>2026-04-08T11:21:29.999Z</time></trkpt><trkpt lat="38.202454391727734" lon="15.317277781691686"><ele>13.999999999999998</ele><time>2026-04-08T11:21:30.999Z</time></trkpt><trkpt lat="38.20247897544474" lon="15.317412167334933"><ele>13.999999999999998</ele><time>2026-04-08T11:21:31.999Z</time></trkpt><trkpt lat="38.20250338891935" lon="15.317546179051709"><ele>14.0</ele><time>2026-04-08T11:21:32.999Z</time></trkpt><trkpt lat="38.20252858625643" lon="15.317684723875646"><ele>14.0</ele><time>2026-04-08T11:21:33.999Z</time></trkpt><trkpt lat="38.202552685601724" lon="15.317817231684836"><ele>14.0</ele><time>2026-04-08T11:21:34.999Z</time></trkpt><trkpt lat="38.20257603353728" lon="15.31794727233127"><ele>13.999999999999998</ele><time>2026-04-08T11:21:35.999Z</time></trkpt><trkpt lat="38.20259929553635" lon="15.318076564948225"><ele>13.999999999999998</ele><time>2026-04-08T11:21:36.999Z</time></trkpt><trkpt lat="38.202621576382626" lon="15.318200823922716"><ele>14.0</ele><time>2026-04-08T11:21:37.999Z</time></trkpt><trkpt lat="38.2026421129343" lon="15.31831604170116"><ele>14.0</ele><time>2026-04-08T11:21:38.999Z</time></trkpt><trkpt lat="38.20266059729061" lon="15.318419745876694"><ele>14.5</ele><time>2026-04-08T11:21:39.999Z</time></trkpt><trkpt lat="38.20268443649146" lon="15.318553492734631"><ele>15.0</ele><time>2026-04-08T11:21:40.999Z</time></trkpt><trkpt lat="38.20271196175064" lon="15.318706965510593"><ele>15.5</ele><time>2026-04-08T11:21:41.999Z</time></trkpt><trkpt lat="38.20274111611847" lon="15.318869638450254"><ele>16.0</ele><time>2026-04-08T11:21:42.999Z</time></trkpt><trkpt lat="38.202772377304385" lon="15.319022318684446"><ele>16.0</ele><time>2026-04-08T11:21:43.999Z</time></trkpt><trkpt lat="38.202797531929875" lon="15.319180427315462"><ele>16.0</ele><time>2026-04-08T11:21:44.999Z</time></trkpt><trkpt lat="38.202826045707" lon="15.319328793725457"><ele>16.0</ele><time>2026-04-08T11:21:45.999Z</time></trkpt><trkpt lat="38.202848812841985" lon="15.319459649537402"><ele>16.0</ele><time>2026-04-08T11:21:46.999Z</time></trkpt><trkpt lat="38.20286913368133" lon="15.319589890960916"><ele>16.0</ele><time>2026-04-08T11:21:47.999Z</time></trkpt><trkpt lat="38.20289695172571" lon="15.319718247923928"><ele>16.0</ele><time>2026-04-08T11:21:48.999Z</time></trkpt><trkpt lat="38.20292091769901" lon="15.319847258631745"><ele>16.0</ele><time>2026-04-08T11:21:49.999Z</time></trkpt><trkpt lat="38.20294221984436" lon="15.319976040597044"><ele>16.0</ele><time>2026-04-08T11:21:50.999Z</time></trkpt><trkpt lat="38.2029580885562" lon="15.32010199141576"><ele>16.0</ele><time>2026-04-08T11:21:51.999Z</time></trkpt><trkpt lat="38.202966161498786" lon="15.320224535085524"><ele>16.2</ele><time>2026-04-08T11:21:52.999Z</time></trkpt><trkpt lat="38.20297541934998" lon="15.32033861564892"><ele>16.400000000000002</ele><time>2026-04-08T11:21:53.999Z</time></trkpt><trkpt lat="38.20295983341691" lon="15.320457181382315"><ele>16.6</ele><time>2026-04-08T11:21:54.999Z</time></trkpt><trkpt lat="38.202956053773136" lon="15.320586794193037"><ele>16.8</ele><time>2026-04-08T11:21:55.999Z</time></trkpt><trkpt lat="38.20295194925881" lon="15.320721237923612"><ele>17.0</ele><time>2026-04-08T11:21:56.999Z</time></trkpt><trkpt lat="38.20294778155534" lon="15.320857751473364"><ele>17.0</ele><time>2026-04-08T11:21:57.999Z</time></trkpt><trkpt lat="38.20294344646446" lon="15.320999747977496"><ele>17.0</ele><time>2026-04-08T11:21:58.999Z</time></trkpt><trkpt lat="38.20293778571046" lon="15.321148063733952"><ele>17.0</ele><time>2026-04-08T11:21:59.999Z</time></trkpt><trkpt lat="38.202932298738055" lon="15.321300138672848"><ele>17.0</ele><time>2026-04-08T11:22:00.999Z</time></trkpt><trkpt lat="38.20294156419447" lon="15.321456744362274"><ele>17.0</ele><time>2026-04-08T11:22:01.999Z</time></trkpt><trkpt lat="38.20292073953264" lon="15.32162176468287"><ele>17.0</ele><time>2026-04-08T11:22:02.999Z</time></trkpt><trkpt lat="38.20291444636823" lon="15.321798569521574"><ele>17.0</ele><time>2026-04-08T11:22:03.999Z</time></trkpt><trkpt lat="38.20290781370658" lon="15.32198158029852"><ele>17.0</ele><time>2026-04-08T11:22:04.999Z</time></trkpt><trkpt lat="38.202900578923916" lon="15.322167237185038"><ele>17.0</ele><time>2026-04-08T11:22:05.999Z</time></trkpt><trkpt lat="38.20289398164544" lon="15.322345454434002"><ele>17.0</ele><time>2026-04-08T11:22:06.999Z</time></trkpt><trkpt lat="38.20288958202471" lon="15.322503878593912"><ele>17.0</ele><time>2026-04-08T11:22:07.999Z</time></trkpt><trkpt lat="38.20288823341869" lon="15.322638420611003"><ele>17.0</ele><time>2026-04-08T11:22:08.999Z</time></trkpt><trkpt lat="38.20288943750713" lon="15.322754188063673"><ele>17.0</ele><time>2026-04-08T11:22:09.999Z</time></trkpt><trkpt lat="38.20289104777685" lon="15.32287764213487"><ele>17.0</ele><time>2026-04-08T11:22:10.999Z</time></trkpt><trkpt lat="38.20289933352012" lon="15.323017721248455"><ele>17.0</ele><time>2026-04-08T11:22:11.998Z</time></trkpt><trkpt lat="38.2029075491005" lon="15.323166049259752"><ele>17.0</ele><time>2026-04-08T11:22:12.998Z</time></trkpt><trkpt lat="38.20291898777873" lon="15.323355728651125"><ele>17.0</ele><time>2026-04-08T11:22:13.998Z</time></trkpt><trkpt lat="38.20293335931591" lon="15.323579949467565"><ele>17.0</ele><time>2026-04-08T11:22:14.998Z</time></trkpt><trkpt lat="38.20295534337177" lon="15.323816028343982"><ele>17.0</ele><time>2026-04-08T11:22:15.998Z</time></trkpt><trkpt lat="38.20298073125865" lon="15.32400794051095"><ele>17.0</ele><time>2026-04-08T11:22:16.998Z</time></trkpt><trkpt lat="38.2030217085883" lon="15.324196639805079"><ele>17.0</ele><time>2026-04-08T11:22:18Z</time></trkpt><trkpt lat="38.20311202958775" lon="15.324374446456497"><ele>17.0</ele><time>2026-04-08T11:22:19Z</time></trkpt><trkpt lat="38.20318658247223" lon="15.324542931700687"><ele>16.666666666666668</ele><time>2026-04-08T11:22:20Z</time></trkpt><trkpt lat="38.20325546678558" lon="15.32467771878489"><ele>16.333333333333336</ele><time>2026-04-08T11:22:21Z</time></trkpt><trkpt lat="38.20330687216462" lon="15.324780436213166"><ele>16.0</ele><time>2026-04-08T11:22:22Z</time></trkpt><trkpt lat="38.203341551072754" lon="15.324862796348333"><ele>15.666666666666668</ele><time>2026-04-08T11:22:23Z</time></trkpt><trkpt lat="38.203334937622955" lon="15.324944394568034"><ele>15.333333333333334</ele><time>2026-04-08T11:22:25Z</time></trkpt><trkpt lat="38.20324851284048" lon="15.324940047492962"><ele>15.0</ele><time>2026-04-08T11:22:26Z</time></trkpt><trkpt lat="38.2031796976476" lon="15.324938861916381"><ele>16.2</ele><time>2026-04-08T11:22:27Z</time></trkpt><trkpt lat="38.203103798779914" lon="15.324957421161693"><ele>17.4</ele><time>2026-04-08T11:22:28Z</time></trkpt><trkpt lat="38.20304482463192" lon="15.324998282601396"><ele>18.6</ele><time>2026-04-08T11:22:29Z</time></trkpt><trkpt lat="38.202937677988224" lon="15.325013813189141"><ele>19.8</ele><time>2026-04-08T11:22:31Z</time></trkpt><trkpt lat="38.20296177293165" lon="15.32523988444087"><ele>21.0</ele><time>2026-04-08T11:22:33Z</time></trkpt><trkpt lat="38.2029882512932" lon="15.325325178988171"><ele>21.0</ele><time>2026-04-08T11:22:34Z</time></trkpt><trkpt lat="38.20294559991365" lon="15.325429214822133"><ele>21.0</ele><time>2026-04-08T11:22:35Z</time></trkpt><trkpt lat="38.20293540914216" lon="15.325549837085866"><ele>21.0</ele><time>2026-04-08T11:22:36Z</time></trkpt><trkpt lat="38.202949652044154" lon="15.325692884093126"><ele>21.0</ele><time>2026-04-08T11:22:37Z</time></trkpt><trkpt lat="38.20298785189311" lon="15.325866917364012"><ele>21.0</ele><time>2026-04-08T11:22:38Z</time></trkpt><trkpt lat="38.20301365886473" lon="15.32606970822986"><ele>23.200000000000003</ele><time>2026-04-08T11:22:39Z</time></trkpt><trkpt lat="38.203031048800156" lon="15.326215520598495"><ele>25.400000000000002</ele><time>2026-04-08T11:22:40Z</time></trkpt><trkpt lat="38.2030526158605" lon="15.326343363685076"><ele>27.6</ele><time>2026-04-08T11:22:41Z</time></trkpt><trkpt lat="38.20307921252664" lon="15.326456715395066"><ele>29.8</ele><time>2026-04-08T11:22:42Z</time></trkpt><trkpt lat="38.20309910943569" lon="15.326547445167906"><ele>32.0</ele><time>2026-04-08T11:22:43Z</time></trkpt><trkpt lat="38.20325913982776" lon="15.326562499119298"><ele>32.2</ele><time>2026-04-08T11:22:46Z</time></trkpt><trkpt lat="38.20330214241307" lon="15.326644177410078"><ele>32.400000000000006</ele><time>2026-04-08T11:22:48Z</time></trkpt><trkpt lat="38.20328465307353" lon="15.326820852445103"><ele>32.599999999999994</ele><time>2026-04-08T11:22:50Z</time></trkpt><trkpt lat="38.203277532298536" lon="15.32695290454685"><ele>32.8</ele><time>2026-04-08T11:22:51Z</time></trkpt><trkpt lat="38.20328419542927" lon="15.327093807109621"><ele>33.0</ele><time>2026-04-08T11:22:52Z</time></trkpt><trkpt lat="38.20328859264265" lon="15.327234133630062"><ele>33.0</ele><time>2026-04-08T11:22:53Z</time></trkpt><trkpt lat="38.20330273466628" lon="15.327358503526685"><ele>33.0</ele><time>2026-04-08T11:22:54Z</time></trkpt><trkpt lat="38.20329781205674" lon="15.327452981738281"><ele>33.0</ele><time>2026-04-08T11:22:55Z</time></trkpt><trkpt lat="38.203280003470866" lon="15.32754757555436"><ele>33.0</ele><time>2026-04-08T11:22:56Z</time></trkpt><trkpt lat="38.20314961449391" lon="15.327604066630617"><ele>33.0</ele><time>2026-04-08T11:22:58Z</time></trkpt><trkpt lat="38.20304830771566" lon="15.327669120341836"><ele>35.5</ele><time>2026-04-08T11:22:59Z</time></trkpt><trkpt lat="38.202947728201046" lon="15.327721289729942"><ele>38.0</ele><time>2026-04-08T11:23:00Z</time></trkpt><trkpt lat="38.202834062737196" lon="15.327770613864235"><ele>40.5</ele><time>2026-04-08T11:23:01Z</time></trkpt><trkpt lat="38.20270985488512" lon="15.327822489121964"><ele>43.0</ele><time>2026-04-08T11:23:02Z</time></trkpt><trkpt lat="38.20258856674711" lon="15.327891568582405"><ele>43.0</ele><time>2026-04-08T11:23:03Z</time></trkpt><trkpt lat="38.20246869336331" lon="15.327915535587481"><ele>43.0</ele><time>2026-04-08T11:23:04Z</time></trkpt><trkpt lat="38.20235763026761" lon="15.327965327444144"><ele>43.0</ele><time>2026-04-08T11:23:05Z</time></trkpt><trkpt lat="38.202252296484126" lon="15.32803131485981"><ele>43.0</ele><time>2026-04-08T11:23:06Z</time></trkpt><trkpt lat="38.20216507964583" lon="15.32815284700346"><ele>41.75</ele><time>2026-04-08T11:23:07Z</time></trkpt><trkpt lat="38.20209219909917" lon="15.328291300645047"><ele>40.5</ele><time>2026-04-08T11:23:08Z</time></trkpt><trkpt lat="38.202061439153916" lon="15.328449977308118"><ele>39.25</ele><time>2026-04-08T11:23:09Z</time></trkpt><trkpt lat="38.20206714376467" lon="15.328605177645239"><ele>38.0</ele><time>2026-04-08T11:23:10Z</time></trkpt><trkpt lat="38.202093239219295" lon="15.32875634714002"><ele>38.0</ele><time>2026-04-08T11:23:11Z</time></trkpt><trkpt lat="38.20217781997395" lon="15.32888853598508"><ele>38.0</ele><time>2026-04-08T11:23:12Z</time></trkpt><trkpt lat="38.202272310378014" lon="15.329025282794642"><ele>38.0</ele><time>2026-04-08T11:23:13Z</time></trkpt><trkpt lat="38.20239415341357" lon="15.329181435696785"><ele>32.666666666666664</ele><time>2026-04-08T11:23:14Z</time></trkpt><trkpt lat="38.202526294611765" lon="15.329366940165807"><ele>27.333333333333332</ele><time>2026-04-08T11:23:15Z</time></trkpt><trkpt lat="38.20265063798094" lon="15.329563346175906"><ele>22.0</ele><time>2026-04-08T11:23:16Z</time></trkpt><trkpt lat="38.20276740179596" lon="15.329751207833233"><ele>20.666666666666664</ele><time>2026-04-08T11:23:17Z</time></trkpt><trkpt lat="38.20287343400975" lon="15.329928854323684"><ele>19.333333333333332</ele><time>2026-04-08T11:23:18Z</time></trkpt><trkpt lat="38.20297182422495" lon="15.330103078044292"><ele>18.0</ele><time>2026-04-08T11:23:19Z</time></trkpt><trkpt lat="38.20306338175439" lon="15.33026640987164"><ele>18.0</ele><time>2026-04-08T11:23:20Z</time></trkpt><trkpt lat="38.20315179592816" lon="15.330421755784423"><ele>18.0</ele><time>2026-04-08T11:23:21Z</time></trkpt><trkpt lat="38.20323577229445" lon="15.330569128157615"><ele>18.0</ele><time>2026-04-08T11:23:22Z</time></trkpt><trkpt lat="38.203304941381305" lon="15.330695120827489"><ele>18.0</ele><time>2026-04-08T11:23:22.999Z</time></trkpt><trkpt lat="38.20336492175502" lon="15.330803944985824"><ele>17.8</ele><time>2026-04-08T11:23:23.999Z</time></trkpt><trkpt lat="38.20341646768593" lon="15.3308953280122"><ele>17.6</ele><time>2026-04-08T11:23:24.999Z</time></trkpt><trkpt lat="38.20345778127258" lon="15.330962280570265"><ele>17.4</ele><time>2026-04-08T11:23:25.999Z</time></trkpt><trkpt lat="38.20351284714518" lon="15.331062850274348"><ele>17.2</ele><time>2026-04-08T11:23:27.999Z</time></trkpt><trkpt lat="38.20351293323941" lon="15.331161911391728"><ele>17.0</ele><time>2026-04-08T11:23:30.999Z</time></trkpt><trkpt lat="38.20340461611092" lon="15.331237330207284"><ele>17.0</ele><time>2026-04-08T11:23:32.999Z</time></trkpt><trkpt lat="38.20331830874143" lon="15.331317413287968"><ele>17.0</ele><time>2026-04-08T11:23:33.999Z</time></trkpt><trkpt lat="38.20321931338512" lon="15.331410929992165"><ele>17.0</ele><time>2026-04-08T11:23:34.999Z</time></trkpt><trkpt lat="38.203106608862434" lon="15.331517397136805"><ele>17.0</ele><time>2026-04-08T11:23:35.999Z</time></trkpt><trkpt lat="38.202974020610945" lon="15.331642647610613"><ele>17.333333333333336</ele><time>2026-04-08T11:23:36.999Z</time></trkpt><trkpt lat="38.2028289424245" lon="15.331779169076352"><ele>17.666666666666668</ele><time>2026-04-08T11:23:37.999Z</time></trkpt><trkpt lat="38.20268430867964" lon="15.331915078444288"><ele>18.0</ele><time>2026-04-08T11:23:38.999Z</time></trkpt><trkpt lat="38.20253754828721" lon="15.332051964871681"><ele>18.0</ele><time>2026-04-08T11:23:39.999Z</time></trkpt><trkpt lat="38.20238398394011" lon="15.332194285081414"><ele>18.0</ele><time>2026-04-08T11:23:40.999Z</time></trkpt><trkpt lat="38.202219538229805" lon="15.33234812161993"><ele>18.0</ele><time>2026-04-08T11:23:41.999Z</time></trkpt><trkpt lat="38.202056482783" lon="15.33250143462158"><ele>18.0</ele><time>2026-04-08T11:23:42.999Z</time></trkpt><trkpt lat="38.201889216912676" lon="15.33265870645409"><ele>18.0</ele><time>2026-04-08T11:23:43.999Z</time></trkpt><trkpt lat="38.2017219161246" lon="15.332816011136154"><ele>18.0</ele><time>2026-04-08T11:23:44.999Z</time></trkpt><trkpt lat="38.201549479137775" lon="15.332976444586967"><ele>18.666666666666668</ele><time>2026-04-08T11:23:45.999Z</time></trkpt><trkpt lat="38.201372329433426" lon="15.333139668212047"><ele>19.333333333333336</ele><time>2026-04-08T11:23:46.999Z</time></trkpt><trkpt lat="38.20118963391912" lon="15.33331300856559"><ele>20.0</ele><time>2026-04-08T11:23:47.999Z</time></trkpt><trkpt lat="38.20101641986279" lon="15.3334777816643"><ele>20.0</ele><time>2026-04-08T11:23:48.999Z</time></trkpt><trkpt lat="38.20084325581726" lon="15.333639423677342"><ele>20.0</ele><time>2026-04-08T11:23:49.999Z</time></trkpt><trkpt lat="38.20066796645579" lon="15.333804002356535"><ele>20.0</ele><time>2026-04-08T11:23:50.999Z</time></trkpt><trkpt lat="38.20050622311887" lon="15.333982892474612"><ele>21.0</ele><time>2026-04-08T11:23:51.999Z</time></trkpt><trkpt lat="38.200327785183035" lon="15.33412639717521"><ele>22.0</ele><time>2026-04-08T11:23:52.999Z</time></trkpt><trkpt lat="38.200152009862336" lon="15.334291259845738"><ele>23.0</ele><time>2026-04-08T11:23:53.999Z</time></trkpt><trkpt lat="38.19995967701639" lon="15.334471051753834"><ele>23.0</ele><time>2026-04-08T11:23:54.999Z</time></trkpt><trkpt lat="38.19976748992488" lon="15.334670420521887"><ele>23.0</ele><time>2026-04-08T11:23:55.999Z</time></trkpt><trkpt lat="38.19954200679848" lon="15.334877196436938"><ele>22.0</ele><time>2026-04-08T11:23:56.999Z</time></trkpt><trkpt lat="38.19931051818849" lon="15.335096103380032"><ele>21.0</ele><time>2026-04-08T11:23:57.999Z</time></trkpt><trkpt lat="38.19909557397252" lon="15.335307124686105"><ele>22.0</ele><time>2026-04-08T11:23:58.999Z</time></trkpt><trkpt lat="38.198899859407895" lon="15.335491522532173"><ele>23.0</ele><time>2026-04-08T11:23:59.999Z</time></trkpt><trkpt lat="38.19871203709199" lon="15.335671206827731"><ele>23.5</ele><time>2026-04-08T11:24:00.999Z</time></trkpt><trkpt lat="38.198528874890954" lon="15.335846179003163"><ele>24.0</ele><time>2026-04-08T11:24:01.999Z</time></trkpt><trkpt lat="38.19833806066074" lon="15.33602139126084"><ele>24.0</ele><time>2026-04-08T11:24:02.999Z</time></trkpt><trkpt lat="38.19814531667551" lon="15.336192512763333"><ele>24.0</ele><time>2026-04-08T11:24:03.999Z</time></trkpt><trkpt lat="38.19794143611182" lon="15.336359067185143"><ele>24.0</ele><time>2026-04-08T11:24:04.999Z</time></trkpt><trkpt lat="38.19772880323317" lon="15.336515157354663"><ele>24.0</ele><time>2026-04-08T11:24:05.999Z</time></trkpt><trkpt lat="38.19749901016556" lon="15.336635399348408"><ele>24.5</ele><time>2026-04-08T11:24:06.999Z</time></trkpt><trkpt lat="38.197269828528306" lon="15.336751510108718"><ele>25.0</ele><time>2026-04-08T11:24:07.999Z</time></trkpt><trkpt lat="38.197045564869434" lon="15.33686512931444"><ele>25.0</ele><time>2026-04-08T11:24:08.999Z</time></trkpt><trkpt lat="38.196825939513715" lon="15.336975550158932"><ele>25.0</ele><time>2026-04-08T11:24:09.999Z</time></trkpt><trkpt lat="38.19660357716412" lon="15.337088000769015"><ele>26.0</ele><time>2026-04-08T11:24:10.999Z</time></trkpt><trkpt lat="38.196374260734785" lon="15.33720389653195"><ele>27.0</ele><time>2026-04-08T11:24:11.999Z</time></trkpt><trkpt lat="38.1961522509407" lon="15.337336580281242"><ele>27.0</ele><time>2026-04-08T11:24:12.999Z</time></trkpt><trkpt lat="38.195938735309205" lon="15.337437471378221"><ele>27.0</ele><time>2026-04-08T11:24:13.999Z</time></trkpt><trkpt lat="38.195730721620315" lon="15.337541963267594"><ele>28.0</ele><time>2026-04-08T11:24:14.999Z</time></trkpt><trkpt lat="38.19552193438354" lon="15.337652478157686"><ele>29.0</ele><time>2026-04-08T11:24:15.999Z</time></trkpt><trkpt lat="38.195315473363536" lon="15.337762630682152"><ele>29.0</ele><time>2026-04-08T11:24:16.999Z</time></trkpt><trkpt lat="38.195110425831984" lon="15.337870004736413"><ele>29.0</ele><time>2026-04-08T11:24:17.999Z</time></trkpt><trkpt lat="38.19490126653502" lon="15.337953080804603"><ele>29.0</ele><time>2026-04-08T11:24:18.999Z</time></trkpt><trkpt lat="38.19471719584611" lon="15.338111735523107"><ele>28.666666666666664</ele><time>2026-04-08T11:24:19.999Z</time></trkpt><trkpt lat="38.194533375010785" lon="15.338255016515758"><ele>28.333333333333336</ele><time>2026-04-08T11:24:20.999Z</time></trkpt><trkpt lat="38.19435138712218" lon="15.33841191849333"><ele>28.0</ele><time>2026-04-08T11:24:21.999Z</time></trkpt><trkpt lat="38.194166784663665" lon="15.338578599244396"><ele>29.0</ele><time>2026-04-08T11:24:23Z</time></trkpt><trkpt lat="38.19397770632216" lon="15.338748126941377"><ele>30.0</ele><time>2026-04-08T11:24:24Z</time></trkpt><trkpt lat="38.19378413743337" lon="15.338920730205245"><ele>30.0</ele><time>2026-04-08T11:24:25Z</time></trkpt><trkpt lat="38.19359774716274" lon="15.339086364379604"><ele>30.0</ele><time>2026-04-08T11:24:26Z</time></trkpt><trkpt lat="38.19341225225154" lon="15.339247740309967"><ele>30.0</ele><time>2026-04-08T11:24:27Z</time></trkpt><trkpt lat="38.19323037591387" lon="15.339408429455121"><ele>30.0</ele><time>2026-04-08T11:24:28Z</time></trkpt><trkpt lat="38.19305253014821" lon="15.339568726895473"><ele>30.0</ele><time>2026-04-08T11:24:29Z</time></trkpt><trkpt lat="38.19287549073491" lon="15.339729294805158"><ele>30.333333333333336</ele><time>2026-04-08T11:24:30Z</time></trkpt><trkpt lat="38.19269863220106" lon="15.339895800053501"><ele>30.666666666666668</ele><time>2026-04-08T11:24:31Z</time></trkpt><trkpt lat="38.19252488038575" lon="15.340070093774212"><ele>31.0</ele><time>2026-04-08T11:24:32Z</time></trkpt><trkpt lat="38.19235546700668" lon="15.340257667798937"><ele>32.0</ele><time>2026-04-08T11:24:33Z</time></trkpt><trkpt lat="38.1921887097349" lon="15.340463609544685"><ele>33.0</ele><time>2026-04-08T11:24:34Z</time></trkpt><trkpt lat="38.192010115793266" lon="15.340693252146242"><ele>33.0</ele><time>2026-04-08T11:24:35Z</time></trkpt><trkpt lat="38.19181618748187" lon="15.340936856765545"><ele>33.0</ele><time>2026-04-08T11:24:36Z</time></trkpt><trkpt lat="38.19160691491862" lon="15.341194938710828"><ele>34.0</ele><time>2026-04-08T11:24:37Z</time></trkpt><trkpt lat="38.191397289871844" lon="15.341451619311586"><ele>35.0</ele><time>2026-04-08T11:24:38Z</time></trkpt><trkpt lat="38.19121091152541" lon="15.341683243765717"><ele>35.0</ele><time>2026-04-08T11:24:39Z</time></trkpt><trkpt lat="38.191038579783566" lon="15.341902975733209"><ele>35.0</ele><time>2026-04-08T11:24:40Z</time></trkpt><trkpt lat="38.19086917739964" lon="15.34212090572626"><ele>35.5</ele><time>2026-04-08T11:24:41Z</time></trkpt><trkpt lat="38.19070150029264" lon="15.342338969239252"><ele>36.0</ele><time>2026-04-08T11:24:42Z</time></trkpt><trkpt lat="38.19053361376997" lon="15.342546618845757"><ele>36.0</ele><time>2026-04-08T11:24:43Z</time></trkpt><trkpt lat="38.19036470613134" lon="15.34275003777886"><ele>36.0</ele><time>2026-04-08T11:24:44Z</time></trkpt><trkpt lat="38.19019418484175" lon="15.342943798080501"><ele>35.5</ele><time>2026-04-08T11:24:45Z</time></trkpt><trkpt lat="38.190019525448506" lon="15.343134646133334"><ele>35.0</ele><time>2026-04-08T11:24:46Z</time></trkpt><trkpt lat="38.18984135499183" lon="15.343318401470807"><ele>36.5</ele><time>2026-04-08T11:24:47Z</time></trkpt><trkpt lat="38.18966377639468" lon="15.343497549365347"><ele>38.0</ele><time>2026-04-08T11:24:48Z</time></trkpt><trkpt lat="38.189487378153935" lon="15.343673956936332"><ele>38.0</ele><time>2026-04-08T11:24:49Z</time></trkpt><trkpt lat="38.189309327551264" lon="15.343848579618458"><ele>38.0</ele><time>2026-04-08T11:24:50Z</time></trkpt><trkpt lat="38.18912409177247" lon="15.34402090701837"><ele>38.666666666666664</ele><time>2026-04-08T11:24:51Z</time></trkpt><trkpt lat="38.18894246199438" lon="15.344185616792736"><ele>39.333333333333336</ele><time>2026-04-08T11:24:52Z</time></trkpt><trkpt lat="38.188763513935896" lon="15.344342535071892"><ele>40.0</ele><time>2026-04-08T11:24:53Z</time></trkpt><trkpt lat="38.1885928437621" lon="15.344498152431148"><ele>40.0</ele><time>2026-04-08T11:24:54Z</time></trkpt><trkpt lat="38.18841758401919" lon="15.344641733127068"><ele>40.0</ele><time>2026-04-08T11:24:55Z</time></trkpt><trkpt lat="38.18822569948312" lon="15.344751572646098"><ele>40.0</ele><time>2026-04-08T11:24:56Z</time></trkpt><trkpt lat="38.18801734222895" lon="15.34483090347146"><ele>39.66666666666667</ele><time>2026-04-08T11:24:57Z</time></trkpt><trkpt lat="38.18779888622585" lon="15.34488830258433"><ele>39.333333333333336</ele><time>2026-04-08T11:24:58Z</time></trkpt><trkpt lat="38.18757940166132" lon="15.344936703364612"><ele>39.0</ele><time>2026-04-08T11:24:59Z</time></trkpt><trkpt lat="38.18736889732603" lon="15.344989825770723"><ele>40.0</ele><time>2026-04-08T11:25:00Z</time></trkpt><trkpt lat="38.187171201826004" lon="15.345045073945425"><ele>41.0</ele><time>2026-04-08T11:25:01Z</time></trkpt><trkpt lat="38.18697618504366" lon="15.345097017962715"><ele>42.0</ele><time>2026-04-08T11:25:02Z</time></trkpt><trkpt lat="38.186781286914055" lon="15.345148052720633"><ele>42.0</ele><time>2026-04-08T11:25:03Z</time></trkpt><trkpt lat="38.186587695218115" lon="15.345201753607467"><ele>42.0</ele><time>2026-04-08T11:25:04Z</time></trkpt><trkpt lat="38.18639586181371" lon="15.345260304830658"><ele>42.0</ele><time>2026-04-08T11:25:05Z</time></trkpt><trkpt lat="38.186202564962294" lon="15.34532160290537"><ele>42.333333333333336</ele><time>2026-04-08T11:25:06Z</time></trkpt><trkpt lat="38.18600653475662" lon="15.345367588729044"><ele>42.66666666666667</ele><time>2026-04-08T11:25:07Z</time></trkpt><trkpt lat="38.18580338264845" lon="15.345397729578664"><ele>43.0</ele><time>2026-04-08T11:25:08Z</time></trkpt><trkpt lat="38.185601299204805" lon="15.345397658364583"><ele>43.66666666666667</ele><time>2026-04-08T11:25:09Z</time></trkpt><trkpt lat="38.18540913300424" lon="15.345361218755418"><ele>44.333333333333336</ele><time>2026-04-08T11:25:10Z</time></trkpt><trkpt lat="38.185221134756496" lon="15.345295874552216"><ele>45.0</ele><time>2026-04-08T11:25:11Z</time></trkpt><trkpt lat="38.18503478094637" lon="15.345214328840656"><ele>45.0</ele><time>2026-04-08T11:25:12Z</time></trkpt><trkpt lat="38.18484442675583" lon="15.345121169301747"><ele>45.0</ele><time>2026-04-08T11:25:13Z</time></trkpt><trkpt lat="38.18464943565396" lon="15.345035696634081"><ele>45.0</ele><time>2026-04-08T11:25:14Z</time></trkpt><trkpt lat="38.18445595895354" lon="15.344967828238232"><ele>45.0</ele><time>2026-04-08T11:25:15Z</time></trkpt><trkpt lat="38.18426022694616" lon="15.344915149417556"><ele>45.0</ele><time>2026-04-08T11:25:16Z</time></trkpt><trkpt lat="38.184058341041215" lon="15.344882939922464"><ele>45.0</ele><time>2026-04-08T11:25:17Z</time></trkpt><trkpt lat="38.18385341539135" lon="15.344881709802554"><ele>44.666666666666664</ele><time>2026-04-08T11:25:18Z</time></trkpt><trkpt lat="38.18364981099831" lon="15.344913742833004"><ele>44.33333333333333</ele><time>2026-04-08T11:25:19Z</time></trkpt><trkpt lat="38.18344826759931" lon="15.344970266787387"><ele>44.0</ele><time>2026-04-08T11:25:20Z</time></trkpt><trkpt lat="38.183247629379416" lon="15.345032258314141"><ele>45.0</ele><time>2026-04-08T11:25:21Z</time></trkpt><trkpt lat="38.183047033315454" lon="15.34508197568793"><ele>46.0</ele><time>2026-04-08T11:25:22Z</time></trkpt><trkpt lat="38.182846925399524" lon="15.345107524413157"><ele>47.0</ele><time>2026-04-08T11:25:23Z</time></trkpt><trkpt lat="38.1826522158802" lon="15.345074025057263"><ele>47.0</ele><time>2026-04-08T11:25:24Z</time></trkpt><trkpt lat="38.182454858283705" lon="15.345041568112617"><ele>47.0</ele><time>2026-04-08T11:25:25Z</time></trkpt><trkpt lat="38.18225791677103" lon="15.345021357982759"><ele>47.0</ele><time>2026-04-08T11:25:26Z</time></trkpt><trkpt lat="38.182068205510376" lon="15.344964481494976"><ele>47.33333333333333</ele><time>2026-04-08T11:25:27Z</time></trkpt><trkpt lat="38.18188123736113" lon="15.344899232623401"><ele>47.666666666666664</ele><time>2026-04-08T11:25:28Z</time></trkpt><trkpt lat="38.18170782161337" lon="15.344802139573858"><ele>48.0</ele><time>2026-04-08T11:25:29Z</time></trkpt><trkpt lat="38.18153199586599" lon="15.344736246766267"><ele>49.0</ele><time>2026-04-08T11:25:29.999Z</time></trkpt><trkpt lat="38.18135286225444" lon="15.34473551337743"><ele>50.0</ele><time>2026-04-08T11:25:30.999Z</time></trkpt><trkpt lat="38.181184903795334" lon="15.344744830498053"><ele>51.0</ele><time>2026-04-08T11:25:31.999Z</time></trkpt><trkpt lat="38.181018471654326" lon="15.344783458707472"><ele>51.0</ele><time>2026-04-08T11:25:32.999Z</time></trkpt><trkpt lat="38.18085867120245" lon="15.344822332070876"><ele>51.0</ele><time>2026-04-08T11:25:33.999Z</time></trkpt><trkpt lat="38.180709238893876" lon="15.3448510123731"><ele>51.0</ele><time>2026-04-08T11:25:34.999Z</time></trkpt><trkpt lat="38.1805603169813" lon="15.344870332404506"><ele>51.33333333333333</ele><time>2026-04-08T11:25:35.999Z</time></trkpt><trkpt lat="38.180405487758435" lon="15.344871392801107"><ele>51.666666666666664</ele><time>2026-04-08T11:25:36.999Z</time></trkpt><trkpt lat="38.180255303426215" lon="15.344823182526572"><ele>52.0</ele><time>2026-04-08T11:25:37.999Z</time></trkpt><trkpt lat="38.180098893313755" lon="15.344776422891899"><ele>52.0</ele><time>2026-04-08T11:25:38.999Z</time></trkpt><trkpt lat="38.17994420204107" lon="15.344793820283009"><ele>52.0</ele><time>2026-04-08T11:25:39.999Z</time></trkpt><trkpt lat="38.17979883065134" lon="15.344824850973309"><ele>52.0</ele><time>2026-04-08T11:25:40.999Z</time></trkpt><trkpt lat="38.17965319866474" lon="15.344887695761258"><ele>52.0</ele><time>2026-04-08T11:25:41.999Z</time></trkpt><trkpt lat="38.17950484436988" lon="15.344976143633136"><ele>52.0</ele><time>2026-04-08T11:25:42.999Z</time></trkpt><trkpt lat="38.17935401846713" lon="15.34506927635934"><ele>52.0</ele><time>2026-04-08T11:25:43.999Z</time></trkpt><trkpt lat="38.17920124023686" lon="15.345167533982513"><ele>52.0</ele><time>2026-04-08T11:25:44.999Z</time></trkpt><trkpt lat="38.179050119597534" lon="15.345263090237303"><ele>52.0</ele><time>2026-04-08T11:25:45.999Z</time></trkpt><trkpt lat="38.17889547754149" lon="15.345356426304303"><ele>52.0</ele><time>2026-04-08T11:25:46.999Z</time></trkpt><trkpt lat="38.178734963977725" lon="15.345461271720326"><ele>52.666666666666664</ele><time>2026-04-08T11:25:47.999Z</time></trkpt><trkpt lat="38.17857648977085" lon="15.345580168993855"><ele>53.33333333333333</ele><time>2026-04-08T11:25:48.999Z</time></trkpt><trkpt lat="38.17842132130454" lon="15.345712169130433"><ele>54.0</ele><time>2026-04-08T11:25:49.999Z</time></trkpt><trkpt lat="38.17826833775974" lon="15.345842468492764"><ele>54.66666666666667</ele><time>2026-04-08T11:25:50.999Z</time></trkpt><trkpt lat="38.17810951583165" lon="15.345971425722938"><ele>55.333333333333336</ele><time>2026-04-08T11:25:51.999Z</time></trkpt><trkpt lat="38.177951381951296" lon="15.346095848482069"><ele>56.0</ele><time>2026-04-08T11:25:52.999Z</time></trkpt><trkpt lat="38.177797412944344" lon="15.346219888312849"><ele>56.0</ele><time>2026-04-08T11:25:53.999Z</time></trkpt><trkpt lat="38.177646388622996" lon="15.346343605160111"><ele>56.0</ele><time>2026-04-08T11:25:54.999Z</time></trkpt><trkpt lat="38.17749836764467" lon="15.346465811764274"><ele>56.0</ele><time>2026-04-08T11:25:55.999Z</time></trkpt><trkpt lat="38.17735545911093" lon="15.346586342994959"><ele>57.0</ele><time>2026-04-08T11:25:56.999Z</time></trkpt><trkpt lat="38.17721334745157" lon="15.346702994793445"><ele>58.0</ele><time>2026-04-08T11:25:57.999Z</time></trkpt><trkpt lat="38.17708033455642" lon="15.346808972445814"><ele>59.0</ele><time>2026-04-08T11:25:58.999Z</time></trkpt><trkpt lat="38.17695377593225" lon="15.346911989178302"><ele>59.0</ele><time>2026-04-08T11:25:59.999Z</time></trkpt><trkpt lat="38.1768344951879" lon="15.34700957799597"><ele>59.0</ele><time>2026-04-08T11:26:00.999Z</time></trkpt><trkpt lat="38.17672977965234" lon="15.347098802269675"><ele>59.0</ele><time>2026-04-08T11:26:01.999Z</time></trkpt><trkpt lat="38.17663661629623" lon="15.347180628894936"><ele>59.0</ele><time>2026-04-08T11:26:02.999Z</time></trkpt><trkpt lat="38.17656425123015" lon="15.347246491827981"><ele>59.00000000000001</ele><time>2026-04-08T11:26:03.999Z</time></trkpt><trkpt lat="38.17650914828256" lon="15.347298244410013"><ele>59.0</ele><time>2026-04-08T11:26:04.999Z</time></trkpt><trkpt lat="38.17649734520737" lon="15.34720434986606"><ele>59.0</ele><time>2026-04-08T11:26:09.999Z</time></trkpt><trkpt lat="38.176568619231304" lon="15.347151264073798"><ele>59.0</ele><time>2026-04-08T11:26:10.999Z</time></trkpt><trkpt lat="38.1766209616588" lon="15.347093595218245"><ele>59.00000000000001</ele><time>2026-04-08T11:26:11.999Z</time></trkpt><trkpt lat="38.17667616368584" lon="15.34697897270028"><ele>59.0</ele><time>2026-04-08T11:26:13.999Z</time></trkpt><trkpt lat="38.176731767759456" lon="15.34693753355018"><ele>59.0</ele><time>2026-04-08T11:26:18.999Z</time></trkpt><trkpt lat="38.176792860599754" lon="15.346865471115152"><ele>59.0</ele><time>2026-04-08T11:26:20.999Z</time></trkpt><trkpt lat="38.17690546628649" lon="15.347113900781737"><ele>59.0</ele><time>2026-04-08T11:26:22.999Z</time></trkpt><trkpt lat="38.17692467739177" lon="15.347204731713553"><ele>59.0</ele><time>2026-04-08T11:26:24.999Z</time></trkpt><trkpt lat="38.176971510025574" lon="15.347271688416242"><ele>59.0</ele><time>2026-04-08T11:26:28Z</time></trkpt><trkpt lat="38.1769312444465" lon="15.347339392227962"><ele>59.0</ele><time>2026-04-08T11:36:09.999Z</time></trkpt><trkpt lat="38.176881900575594" lon="15.347394633831364"><ele>59.0</ele><time>2026-04-08T11:36:15.999Z</time></trkpt><trkpt lat="38.17693346562649" lon="15.347346468423323"><ele>59.0</ele><time>2026-04-08T11:36:29.999Z</time></trkpt><trkpt lat="38.17696719326156" lon="15.34727437289308"><ele>59.0</ele><time>2026-04-08T11:39:36Z</time></trkpt><trkpt lat="38.177004170828994" lon="15.347345713707066"><ele>59.0</ele><time>2026-04-08T11:42:54.999Z</time></trkpt><trkpt lat="38.17695856937502" lon="15.34728676600754"><ele>59.0</ele><time>2026-04-08T11:42:57.998Z</time></trkpt><trkpt lat="38.176931588566056" lon="15.347189668288227"><ele>59.00000000000001</ele><time>2026-04-08T11:42:59.998Z</time></trkpt><trkpt lat="38.17688295468233" lon="15.347130173891236"><ele>59.0</ele><time>2026-04-08T11:43:01.998Z</time></trkpt><trkpt lat="38.17682976225578" lon="15.347053681008786"><ele>59.0</ele><time>2026-04-08T11:43:04.998Z</time></trkpt><trkpt lat="38.176768989642916" lon="15.34696613918369"><ele>59.0</ele><time>2026-04-08T11:43:07.998Z</time></trkpt><trkpt lat="38.176691645951614" lon="15.346957270617011"><ele>59.00000000000001</ele><time>2026-04-08T11:43:09.998Z</time></trkpt><trkpt lat="38.176637818493276" lon="15.347018391300514"><ele>59.0</ele><time>2026-04-08T11:43:11.998Z</time></trkpt><trkpt lat="38.17657361906535" lon="15.347130217875485"><ele>58.800000000000004</ele><time>2026-04-08T11:43:14Z</time></trkpt><trkpt lat="38.176517955145414" lon="15.347198741295081"><ele>58.60000000000001</ele><time>2026-04-08T11:43:15Z</time></trkpt><trkpt lat="38.176462834027134" lon="15.34727835759951"><ele>58.4</ele><time>2026-04-08T11:43:16Z</time></trkpt><trkpt lat="38.17641632028014" lon="15.347358676863369"><ele>58.2</ele><time>2026-04-08T11:43:17Z</time></trkpt><trkpt lat="38.176350746101306" lon="15.347450522746303"><ele>58.0</ele><time>2026-04-08T11:43:18Z</time></trkpt><trkpt lat="38.17624626534342" lon="15.347553089548033"><ele>58.0</ele><time>2026-04-08T11:43:19Z</time></trkpt><trkpt lat="38.17613558754183" lon="15.347646984042258"><ele>58.0</ele><time>2026-04-08T11:43:20Z</time></trkpt><trkpt lat="38.17601485242654" lon="15.347798029541282"><ele>58.0</ele><time>2026-04-08T11:43:21Z</time></trkpt><trkpt lat="38.17588706664791" lon="15.347953110817954"><ele>59.0</ele><time>2026-04-08T11:43:22Z</time></trkpt><trkpt lat="38.17575361251426" lon="15.348123627348986"><ele>60.0</ele><time>2026-04-08T11:43:23Z</time></trkpt><trkpt lat="38.17562217897229" lon="15.348298656390494"><ele>61.0</ele><time>2026-04-08T11:43:24Z</time></trkpt><trkpt lat="38.17549244154094" lon="15.348487324950739"><ele>61.33333333333333</ele><time>2026-04-08T11:43:25Z</time></trkpt><trkpt lat="38.17535731198408" lon="15.348684665171547"><ele>61.66666666666667</ele><time>2026-04-08T11:43:26Z</time></trkpt><trkpt lat="38.175223197148256" lon="15.348886497926848"><ele>62.0</ele><time>2026-04-08T11:43:27Z</time></trkpt><trkpt lat="38.175093726928715" lon="15.349073669633132"><ele>62.0</ele><time>2026-04-08T11:43:28Z</time></trkpt><trkpt lat="38.17497150440453" lon="15.349256836310127"><ele>62.0</ele><time>2026-04-08T11:43:29Z</time></trkpt><trkpt lat="38.17485851213594" lon="15.349428826662159"><ele>62.0</ele><time>2026-04-08T11:43:30Z</time></trkpt><trkpt lat="38.174738074859256" lon="15.349599199023022"><ele>63.0</ele><time>2026-04-08T11:43:31Z</time></trkpt><trkpt lat="38.174606254694325" lon="15.349757154639443"><ele>64.0</ele><time>2026-04-08T11:43:32Z</time></trkpt><trkpt lat="38.1744481670114" lon="15.34987670663834"><ele>65.0</ele><time>2026-04-08T11:43:33Z</time></trkpt><trkpt lat="38.17430460381272" lon="15.349972160861583"><ele>65.0</ele><time>2026-04-08T11:43:34Z</time></trkpt><trkpt lat="38.1741564866715" lon="15.350051250884468"><ele>65.0</ele><time>2026-04-08T11:43:35Z</time></trkpt><trkpt lat="38.17398925347589" lon="15.350111866124163"><ele>65.0</ele><time>2026-04-08T11:43:36Z</time></trkpt><trkpt lat="38.173807439127195" lon="15.350178437659412"><ele>67.66666666666667</ele><time>2026-04-08T11:43:37Z</time></trkpt><trkpt lat="38.17363096232042" lon="15.350245108991503"><ele>70.33333333333333</ele><time>2026-04-08T11:43:38Z</time></trkpt><trkpt lat="38.17346801072331" lon="15.350306669704262"><ele>73.0</ele><time>2026-04-08T11:43:39Z</time></trkpt><trkpt lat="38.17331132395646" lon="15.350365863490392"><ele>71.33333333333333</ele><time>2026-04-08T11:43:40Z</time></trkpt><trkpt lat="38.17315613505867" lon="15.35042444071501"><ele>69.66666666666667</ele><time>2026-04-08T11:43:41Z</time></trkpt><trkpt lat="38.17299079660107" lon="15.35048674490029"><ele>68.0</ele><time>2026-04-08T11:43:42Z</time></trkpt><trkpt lat="38.172816795189064" lon="15.350552313535314"><ele>68.0</ele><time>2026-04-08T11:43:43Z</time></trkpt><trkpt lat="38.17263192237914" lon="15.350622049684828"><ele>68.0</ele><time>2026-04-08T11:43:44Z</time></trkpt><trkpt lat="38.172445069128614" lon="15.350692556096416"><ele>68.0</ele><time>2026-04-08T11:43:45Z</time></trkpt><trkpt lat="38.172250560086816" lon="15.350766205911514"><ele>68.5</ele><time>2026-04-08T11:43:46Z</time></trkpt><trkpt lat="38.172037508658995" lon="15.3508489340008"><ele>69.0</ele><time>2026-04-08T11:43:47Z</time></trkpt><trkpt lat="38.171801922667846" lon="15.350940412294666"><ele>69.0</ele><time>2026-04-08T11:43:48Z</time></trkpt><trkpt lat="38.1715751600084" lon="15.351025860744967"><ele>69.0</ele><time>2026-04-08T11:43:49Z</time></trkpt><trkpt lat="38.17135458811963" lon="15.351108604528765"><ele>68.66666666666667</ele><time>2026-04-08T11:43:50Z</time></trkpt><trkpt lat="38.17113950459802" lon="15.35121057643027"><ele>68.33333333333334</ele><time>2026-04-08T11:43:51Z</time></trkpt><trkpt lat="38.17093620818973" lon="15.351290843528982"><ele>68.0</ele><time>2026-04-08T11:43:52Z</time></trkpt><trkpt lat="38.17074605976732" lon="15.351377774921893"><ele>69.0</ele><time>2026-04-08T11:43:53Z</time></trkpt><trkpt lat="38.17056150174208" lon="15.351490208537848"><ele>70.0</ele><time>2026-04-08T11:43:54Z</time></trkpt><trkpt lat="38.17038779917408" lon="15.35163018826004"><ele>71.0</ele><time>2026-04-08T11:43:55Z</time></trkpt><trkpt lat="38.17021924351218" lon="15.35179425531126"><ele>71.0</ele><time>2026-04-08T11:43:56Z</time></trkpt><trkpt lat="38.17005244418534" lon="15.351980899543406"><ele>71.0</ele><time>2026-04-08T11:43:57Z</time></trkpt><trkpt lat="38.16988899397649" lon="15.352175933151694"><ele>71.0</ele><time>2026-04-08T11:43:58Z</time></trkpt><trkpt lat="38.16972798533807" lon="15.352366149112997"><ele>71.33333333333334</ele><time>2026-04-08T11:43:59Z</time></trkpt><trkpt lat="38.169579286808364" lon="15.352549652714162"><ele>71.66666666666667</ele><time>2026-04-08T11:43:59.999Z</time></trkpt><trkpt lat="38.16944485709259" lon="15.352739202053657"><ele>72.0</ele><time>2026-04-08T11:44:00.999Z</time></trkpt><trkpt lat="38.16932200024442" lon="15.35294049048173"><ele>72.66666666666667</ele><time>2026-04-08T11:44:01.999Z</time></trkpt><trkpt lat="38.16920410539349" lon="15.353161000941729"><ele>73.33333333333334</ele><time>2026-04-08T11:44:02.999Z</time></trkpt><trkpt lat="38.16908835193904" lon="15.353384675463328"><ele>74.0</ele><time>2026-04-08T11:44:03.999Z</time></trkpt><trkpt lat="38.16897729169153" lon="15.35360762035162"><ele>74.33333333333334</ele><time>2026-04-08T11:44:04.999Z</time></trkpt><trkpt lat="38.1688779751582" lon="15.35383914339254"><ele>74.66666666666667</ele><time>2026-04-08T11:44:05.999Z</time></trkpt><trkpt lat="38.16879135469429" lon="15.354086193638475"><ele>75.0</ele><time>2026-04-08T11:44:06.999Z</time></trkpt><trkpt lat="38.168716660388654" lon="15.35434137015445"><ele>75.0</ele><time>2026-04-08T11:44:07.999Z</time></trkpt><trkpt lat="38.16865312024769" lon="15.354603895263372"><ele>75.0</ele><time>2026-04-08T11:44:08.999Z</time></trkpt><trkpt lat="38.16859957940765" lon="15.354880604303714"><ele>75.0</ele><time>2026-04-08T11:44:09.999Z</time></trkpt><trkpt lat="38.16855462585207" lon="15.355165894360077"><ele>75.0</ele><time>2026-04-08T11:44:10.999Z</time></trkpt><trkpt lat="38.16851512556183" lon="15.355448043412633"><ele>75.0</ele><time>2026-04-08T11:44:11.999Z</time></trkpt><trkpt lat="38.16847441134247" lon="15.35572578915648"><ele>75.0</ele><time>2026-04-08T11:44:12.999Z</time></trkpt><trkpt lat="38.168432508042216" lon="15.355996190096702"><ele>75.0</ele><time>2026-04-08T11:44:13.999Z</time></trkpt><trkpt lat="38.16839259060867" lon="15.356265879269575"><ele>75.0</ele><time>2026-04-08T11:44:14.999Z</time></trkpt><trkpt lat="38.16835061250964" lon="15.356538552629056"><ele>75.0</ele><time>2026-04-08T11:44:15.999Z</time></trkpt><trkpt lat="38.16830916240096" lon="15.356811397867844"><ele>75.33333333333333</ele><time>2026-04-08T11:44:16.999Z</time></trkpt><trkpt lat="38.168268337057405" lon="15.357073904897907"><ele>75.66666666666666</ele><time>2026-04-08T11:44:17.999Z</time></trkpt><trkpt lat="38.16822674032728" lon="15.357337185157597"><ele>76.0</ele><time>2026-04-08T11:44:18.999Z</time></trkpt><trkpt lat="38.168184118438035" lon="15.35759651022224"><ele>77.0</ele><time>2026-04-08T11:44:19.999Z</time></trkpt><trkpt lat="38.168145094948834" lon="15.357854157459547"><ele>78.0</ele><time>2026-04-08T11:44:20.999Z</time></trkpt><trkpt lat="38.16810577912912" lon="15.358110103818"><ele>79.0</ele><time>2026-04-08T11:44:21.999Z</time></trkpt><trkpt lat="38.16806856070638" lon="15.358359210981291"><ele>79.0</ele><time>2026-04-08T11:44:22.999Z</time></trkpt><trkpt lat="38.16803438110328" lon="15.358604099514295"><ele>79.0</ele><time>2026-04-08T11:44:23.999Z</time></trkpt><trkpt lat="38.16798692968172" lon="15.358825675782438"><ele>79.0</ele><time>2026-04-08T11:44:24.999Z</time></trkpt><trkpt lat="38.167985949094366" lon="15.35902890778826"><ele>78.75</ele><time>2026-04-08T11:44:25.999Z</time></trkpt><trkpt lat="38.16797113710553" lon="15.359220731220649"><ele>78.5</ele><time>2026-04-08T11:44:26.999Z</time></trkpt><trkpt lat="38.167951960930914" lon="15.359403555973602"><ele>78.25</ele><time>2026-04-08T11:44:27.999Z</time></trkpt><trkpt lat="38.16792755137062" lon="15.359581929775853"><ele>78.0</ele><time>2026-04-08T11:44:28.999Z</time></trkpt><trkpt lat="38.167901887324355" lon="15.359750747535209"><ele>78.5</ele><time>2026-04-08T11:44:29.999Z</time></trkpt><trkpt lat="38.167882178805286" lon="15.35991241510938"><ele>79.0</ele><time>2026-04-08T11:44:30.999Z</time></trkpt><trkpt lat="38.16787895315844" lon="15.36006871347632"><ele>79.5</ele><time>2026-04-08T11:44:31.999Z</time></trkpt><trkpt lat="38.1678724739008" lon="15.360207274438794"><ele>80.0</ele><time>2026-04-08T11:44:32.999Z</time></trkpt><trkpt lat="38.167848424937354" lon="15.360335900761994"><ele>80.0</ele><time>2026-04-08T11:44:33.999Z</time></trkpt><trkpt lat="38.167827782101526" lon="15.360444946209682"><ele>80.0</ele><time>2026-04-08T11:44:34.999Z</time></trkpt><trkpt lat="38.16781080048916" lon="15.360525419949735"><ele>80.0</ele><time>2026-04-08T11:44:35.999Z</time></trkpt><trkpt lat="38.16781700192569" lon="15.36063514934396"><ele>80.0</ele><time>2026-04-08T11:44:37.999Z</time></trkpt><trkpt lat="38.16783307547471" lon="15.360729333409678"><ele>80.0</ele><time>2026-04-08T11:44:40.999Z</time></trkpt><trkpt lat="38.16783964317731" lon="15.360823032887355"><ele>80.0</ele><time>2026-04-08T11:44:42.999Z</time></trkpt><trkpt lat="38.167827925352384" lon="15.360938543373312"><ele>80.25</ele><time>2026-04-08T11:44:44.999Z</time></trkpt><trkpt lat="38.167845276619516" lon="15.361082963562735"><ele>80.5</ele><time>2026-04-08T11:44:46.999Z</time></trkpt><trkpt lat="38.1678874521361" lon="15.361227544010873"><ele>80.75</ele><time>2026-04-08T11:44:48.999Z</time></trkpt><trkpt lat="38.16792852996613" lon="15.361364508264801"><ele>81.0</ele><time>2026-04-08T11:44:50.999Z</time></trkpt><trkpt lat="38.167956823965575" lon="15.361497719650096"><ele>81.33333333333333</ele><time>2026-04-08T11:44:52.999Z</time></trkpt><trkpt lat="38.16797812104068" lon="15.36157675996732"><ele>81.66666666666667</ele><time>2026-04-08T11:44:53.999Z</time></trkpt><trkpt lat="38.16798427082631" lon="15.361719462349628"><ele>82.0</ele><time>2026-04-08T11:44:55.999Z</time></trkpt><trkpt lat="38.16798148728281" lon="15.36181209871301"><ele>82.33333333333334</ele><time>2026-04-08T11:44:56.999Z</time></trkpt><trkpt lat="38.16799114030217" lon="15.36190043138006"><ele>82.66666666666667</ele><time>2026-04-08T11:44:57.999Z</time></trkpt><trkpt lat="38.16801834836265" lon="15.362013695001515"><ele>83.0</ele><time>2026-04-08T11:44:58.999Z</time></trkpt><trkpt lat="38.16803614297205" lon="15.362124121567845"><ele>83.0</ele><time>2026-04-08T11:44:59.999Z</time></trkpt><trkpt lat="38.16802340900268" lon="15.36222953296557"><ele>83.0</ele><time>2026-04-08T11:45:00.998Z</time></trkpt><trkpt lat="38.16799241305618" lon="15.362334536138397"><ele>83.0</ele><time>2026-04-08T11:45:01.998Z</time></trkpt><trkpt lat="38.167937211705635" lon="15.362469669496265"><ele>83.0</ele><time>2026-04-08T11:45:02.998Z</time></trkpt><trkpt lat="38.16784787498511" lon="15.362639369396343"><ele>83.0</ele><time>2026-04-08T11:45:03.998Z</time></trkpt><trkpt lat="38.16775678407616" lon="15.362814542710856"><ele>83.0</ele><time>2026-04-08T11:45:04.998Z</time></trkpt><trkpt lat="38.167640896443444" lon="15.363008992090231"><ele>83.0</ele><time>2026-04-08T11:45:05.998Z</time></trkpt><trkpt lat="38.167531212536566" lon="15.363196618470852"><ele>83.33333333333334</ele><time>2026-04-08T11:45:06.998Z</time></trkpt><trkpt lat="38.167440636989355" lon="15.363390102317856"><ele>83.66666666666667</ele><time>2026-04-08T11:45:07.998Z</time></trkpt><trkpt lat="38.167382021827706" lon="15.363571332618397"><ele>84.0</ele><time>2026-04-08T11:45:08.998Z</time></trkpt><trkpt lat="38.16735729639656" lon="15.363730903001201"><ele>84.80000000000001</ele><time>2026-04-08T11:45:09.998Z</time></trkpt><trkpt lat="38.167317781848894" lon="15.363863967845843"><ele>85.60000000000001</ele><time>2026-04-08T11:45:10.998Z</time></trkpt><trkpt lat="38.16727106481188" lon="15.363926212477802"><ele>86.4</ele><time>2026-04-08T11:45:12.998Z</time></trkpt><trkpt lat="38.16720462411822" lon="15.363986328857461"><ele>87.2</ele><time>2026-04-08T11:45:14.998Z</time></trkpt><trkpt lat="38.16713522481668" lon="15.364061682896159"><ele>88.0</ele><time>2026-04-08T11:45:16.998Z</time></trkpt><trkpt lat="38.167026365694824" lon="15.364128138950859"><ele>88.0</ele><time>2026-04-08T11:45:19Z</time></trkpt><trkpt lat="38.16697218323249" lon="15.364180187406347"><ele>88.0</ele><time>2026-04-08T11:45:20Z</time></trkpt><trkpt lat="38.16691411550953" lon="15.36424103771605"><ele>88.0</ele><time>2026-04-08T11:45:21Z</time></trkpt><trkpt lat="38.16685859602201" lon="15.364307666566637"><ele>88.0</ele><time>2026-04-08T11:45:22Z</time></trkpt><trkpt lat="38.16679335528506" lon="15.364391608259867"><ele>88.0</ele><time>2026-04-08T11:45:23Z</time></trkpt><trkpt lat="38.1667160764313" lon="15.364471476301365"><ele>88.0</ele><time>2026-04-08T11:45:24Z</time></trkpt><trkpt lat="38.16663481942567" lon="15.364554912596201"><ele>88.0</ele><time>2026-04-08T11:45:25Z</time></trkpt><trkpt lat="38.16655638959335" lon="15.364645966446737"><ele>88.0</ele><time>2026-04-08T11:45:26Z</time></trkpt><trkpt lat="38.166472550045356" lon="15.36474606019399"><ele>88.0</ele><time>2026-04-08T11:45:27Z</time></trkpt><trkpt lat="38.1663828082308" lon="15.364849018464605"><ele>88.0</ele><time>2026-04-08T11:45:28Z</time></trkpt><trkpt lat="38.16628119212875" lon="15.364959937616288"><ele>88.5</ele><time>2026-04-08T11:45:29Z</time></trkpt><trkpt lat="38.16617326350969" lon="15.365087120162443"><ele>89.0</ele><time>2026-04-08T11:45:30Z</time></trkpt><trkpt lat="38.16607320350845" lon="15.365206018159025"><ele>89.5</ele><time>2026-04-08T11:45:31Z</time></trkpt><trkpt lat="38.1659658248437" lon="15.365305246890056"><ele>90.0</ele><time>2026-04-08T11:45:32Z</time></trkpt><trkpt lat="38.16587413418955" lon="15.365410608632057"><ele>90.0</ele><time>2026-04-08T11:45:33Z</time></trkpt><trkpt lat="38.16579115201421" lon="15.365525883378565"><ele>90.0</ele><time>2026-04-08T11:45:34Z</time></trkpt><trkpt lat="38.16570359826726" lon="15.365626131956025"><ele>90.0</ele><time>2026-04-08T11:45:35Z</time></trkpt><trkpt lat="38.165611040213854" lon="15.365710984061268"><ele>90.0</ele><time>2026-04-08T11:45:36Z</time></trkpt><trkpt lat="38.16553061053835" lon="15.36579846897201"><ele>90.2</ele><time>2026-04-08T11:45:37Z</time></trkpt><trkpt lat="38.16544986052104" lon="15.365879776692067"><ele>90.4</ele><time>2026-04-08T11:45:38Z</time></trkpt><trkpt lat="38.165372291271" lon="15.36595261633083"><ele>90.6</ele><time>2026-04-08T11:45:39Z</time></trkpt><trkpt lat="38.16530130556802" lon="15.366016204306874"><ele>90.8</ele><time>2026-04-08T11:45:40Z</time></trkpt><trkpt lat="38.16523403921433" lon="15.366070139523506"><ele>91.0</ele><time>2026-04-08T11:45:41Z</time></trkpt><trkpt lat="38.16516187093002" lon="15.366128748783074"><ele>91.0</ele><time>2026-04-08T11:45:42Z</time></trkpt><trkpt lat="38.16511098705988" lon="15.366211771185313"><ele>91.0</ele><time>2026-04-08T11:45:43Z</time></trkpt><trkpt lat="38.16505490951737" lon="15.366270483895327"><ele>91.0</ele><time>2026-04-08T11:45:44Z</time></trkpt><trkpt lat="38.16499621176799" lon="15.366314647651773"><ele>91.0</ele><time>2026-04-08T11:45:45Z</time></trkpt><trkpt lat="38.16492578865387" lon="15.366341858836744"><ele>91.0</ele><time>2026-04-08T11:45:46Z</time></trkpt><trkpt lat="38.16484072447692" lon="15.366332078121124"><ele>91.0</ele><time>2026-04-08T11:45:47Z</time></trkpt><trkpt lat="38.16476412707633" lon="15.366366560794228"><ele>91.0</ele><time>2026-04-08T11:45:48Z</time></trkpt><trkpt lat="38.16468049312652" lon="15.366419862475754"><ele>91.0</ele><time>2026-04-08T11:45:49Z</time></trkpt><trkpt lat="38.164571667614425" lon="15.366451225418942"><ele>91.0</ele><time>2026-04-08T11:45:50Z</time></trkpt><trkpt lat="38.16441479057815" lon="15.366491136469536"><ele>91.0</ele><time>2026-04-08T11:45:51Z</time></trkpt><trkpt lat="38.16423317410552" lon="15.366524331295768"><ele>91.0</ele><time>2026-04-08T11:45:52Z</time></trkpt><trkpt lat="38.16404468999712" lon="15.36651843929834"><ele>91.0</ele><time>2026-04-08T11:45:53Z</time></trkpt><trkpt lat="38.16383768164625" lon="15.366511451134919"><ele>91.0</ele><time>2026-04-08T11:45:54Z</time></trkpt><trkpt lat="38.163626582644135" lon="15.366485456287592"><ele>91.66666666666666</ele><time>2026-04-08T11:45:55Z</time></trkpt><trkpt lat="38.16341120427654" lon="15.36645511956068"><ele>92.33333333333333</ele><time>2026-04-08T11:45:56Z</time></trkpt><trkpt lat="38.163198149049364" lon="15.366424215242732"><ele>93.0</ele><time>2026-04-08T11:45:57Z</time></trkpt><trkpt lat="38.16297465523663" lon="15.366392429102996"><ele>93.5</ele><time>2026-04-08T11:45:58Z</time></trkpt><trkpt lat="38.16273826140189" lon="15.366359303514027"><ele>94.0</ele><time>2026-04-08T11:45:59Z</time></trkpt><trkpt lat="38.16250934618184" lon="15.366325941250786"><ele>94.66666666666666</ele><time>2026-04-08T11:46:00Z</time></trkpt><trkpt lat="38.162283715895306" lon="15.366292303263066"><ele>95.33333333333333</ele><time>2026-04-08T11:46:01Z</time></trkpt><trkpt lat="38.16206854014278" lon="15.366259814743772"><ele>96.0</ele><time>2026-04-08T11:46:02Z</time></trkpt><trkpt lat="38.16187025898829" lon="15.366229989087975"><ele>96.0</ele><time>2026-04-08T11:46:03Z</time></trkpt><trkpt lat="38.161678426394545" lon="15.366202498766638"><ele>96.0</ele><time>2026-04-08T11:46:04Z</time></trkpt><trkpt lat="38.16149843138495" lon="15.366176171277294"><ele>96.0</ele><time>2026-04-08T11:46:05Z</time></trkpt><trkpt lat="38.16132820615875" lon="15.366149003737428"><ele>97.0</ele><time>2026-04-08T11:46:06Z</time></trkpt><trkpt lat="38.16115572565766" lon="15.366125917663407"><ele>98.0</ele><time>2026-04-08T11:46:07Z</time></trkpt><trkpt lat="38.16098277129835" lon="15.366102768142197"><ele>99.0</ele><time>2026-04-08T11:46:07.999Z</time></trkpt><trkpt lat="38.16080141960995" lon="15.366084764403668"><ele>99.0</ele><time>2026-04-08T11:46:08.999Z</time></trkpt><trkpt lat="38.16061588255667" lon="15.366092192539991"><ele>99.0</ele><time>2026-04-08T11:46:09.999Z</time></trkpt><trkpt lat="38.16043545922255" lon="15.366134585859513"><ele>99.0</ele><time>2026-04-08T11:46:10.999Z</time></trkpt><trkpt lat="38.16025417936367" lon="15.366170576896867"><ele>99.0</ele><time>2026-04-08T11:46:11.999Z</time></trkpt><trkpt lat="38.160072230651885" lon="15.366224639621198"><ele>99.0</ele><time>2026-04-08T11:46:12.999Z</time></trkpt><trkpt lat="38.15989653104791" lon="15.366293664214641"><ele>99.0</ele><time>2026-04-08T11:46:13.999Z</time></trkpt><trkpt lat="38.15972375610859" lon="15.366380470818932"><ele>100.0</ele><time>2026-04-08T11:46:14.999Z</time></trkpt><trkpt lat="38.15955883347224" lon="15.366478315342652"><ele>101.0</ele><time>2026-04-08T11:46:15.999Z</time></trkpt><trkpt lat="38.15940070657604" lon="15.366587307184247"><ele>102.0</ele><time>2026-04-08T11:46:16.999Z</time></trkpt><trkpt lat="38.15924954321379" lon="15.366705207981045"><ele>102.0</ele><time>2026-04-08T11:46:17.999Z</time></trkpt><trkpt lat="38.15909637775349" lon="15.366831558707027"><ele>102.0</ele><time>2026-04-08T11:46:18.999Z</time></trkpt><trkpt lat="38.15894821790738" lon="15.366960697073528"><ele>102.0</ele><time>2026-04-08T11:46:19.999Z</time></trkpt><trkpt lat="38.15879386988504" lon="15.367084393142335"><ele>103.0</ele><time>2026-04-08T11:46:20.999Z</time></trkpt><trkpt lat="38.15863555622702" lon="15.367198992230268"><ele>104.0</ele><time>2026-04-08T11:46:21.999Z</time></trkpt><trkpt lat="38.15847247293766" lon="15.367293023894328"><ele>105.0</ele><time>2026-04-08T11:46:22.999Z</time></trkpt><trkpt lat="38.158301654222775" lon="15.367372304753406"><ele>104.66666666666666</ele><time>2026-04-08T11:46:23.999Z</time></trkpt><trkpt lat="38.15813606709017" lon="15.367455511143634"><ele>104.33333333333333</ele><time>2026-04-08T11:46:24.999Z</time></trkpt><trkpt lat="38.15797763971893" lon="15.367554199309096"><ele>104.0</ele><time>2026-04-08T11:46:25.999Z</time></trkpt><trkpt lat="38.157829264600494" lon="15.367672455358994"><ele>104.0</ele><time>2026-04-08T11:46:26.999Z</time></trkpt><trkpt lat="38.15769825493787" lon="15.367815302531069"><ele>104.0</ele><time>2026-04-08T11:46:27.999Z</time></trkpt><trkpt lat="38.15757389654819" lon="15.367966495878699"><ele>104.0</ele><time>2026-04-08T11:46:28.999Z</time></trkpt><trkpt lat="38.1574533025676" lon="15.368137313145338"><ele>104.33333333333333</ele><time>2026-04-08T11:46:29.999Z</time></trkpt><trkpt lat="38.157332872762176" lon="15.368309686021407"><ele>104.66666666666666</ele><time>2026-04-08T11:46:30.999Z</time></trkpt><trkpt lat="38.15720393389955" lon="15.36847661271781"><ele>105.0</ele><time>2026-04-08T11:46:31.999Z</time></trkpt><trkpt lat="38.15707010528205" lon="15.368642935345266"><ele>105.0</ele><time>2026-04-08T11:46:32.999Z</time></trkpt><trkpt lat="38.15692931217667" lon="15.36879430041083"><ele>105.0</ele><time>2026-04-08T11:46:33.999Z</time></trkpt><trkpt lat="38.15678019480387" lon="15.368938530302009"><ele>105.0</ele><time>2026-04-08T11:46:34.999Z</time></trkpt><trkpt lat="38.15662994338544" lon="15.369067354437062"><ele>105.66666666666666</ele><time>2026-04-08T11:46:35.999Z</time></trkpt><trkpt lat="38.15647415064362" lon="15.369189079163002"><ele>106.33333333333333</ele><time>2026-04-08T11:46:36.999Z</time></trkpt><trkpt lat="38.156314521204926" lon="15.369307675408209"><ele>107.0</ele><time>2026-04-08T11:46:37.999Z</time></trkpt><trkpt lat="38.156154241750436" lon="15.369431235875451"><ele>107.0</ele><time>2026-04-08T11:46:38.999Z</time></trkpt><trkpt lat="38.15599108435585" lon="15.369559079247018"><ele>107.0</ele><time>2026-04-08T11:46:39.999Z</time></trkpt><trkpt lat="38.15582968718939" lon="15.369686472719287"><ele>107.0</ele><time>2026-04-08T11:46:40.999Z</time></trkpt><trkpt lat="38.155670203821046" lon="15.369814143038338"><ele>108.0</ele><time>2026-04-08T11:46:41.999Z</time></trkpt><trkpt lat="38.155503148107556" lon="15.369921540694998"><ele>109.0</ele><time>2026-04-08T11:46:42.999Z</time></trkpt><trkpt lat="38.15534207675032" lon="15.370039138373695"><ele>110.0</ele><time>2026-04-08T11:46:43.999Z</time></trkpt><trkpt lat="38.15517971761972" lon="15.370150312974566"><ele>110.0</ele><time>2026-04-08T11:46:44.999Z</time></trkpt><trkpt lat="38.15501586466221" lon="15.370244288664315"><ele>110.0</ele><time>2026-04-08T11:46:45.999Z</time></trkpt><trkpt lat="38.15484760521751" lon="15.370324693965879"><ele>110.0</ele><time>2026-04-08T11:46:46.999Z</time></trkpt><trkpt lat="38.15467233883533" lon="15.37040425045505"><ele>109.66666666666666</ele><time>2026-04-08T11:46:47.999Z</time></trkpt><trkpt lat="38.154495908779396" lon="15.370495446824664"><ele>109.33333333333334</ele><time>2026-04-08T11:46:48.999Z</time></trkpt><trkpt lat="38.15432405203578" lon="15.370560872343466"><ele>109.0</ele><time>2026-04-08T11:46:49.999Z</time></trkpt><trkpt lat="38.1541544017633" lon="15.370618629702651"><ele>110.66666666666667</ele><time>2026-04-08T11:46:50.999Z</time></trkpt><trkpt lat="38.15397988147834" lon="15.370663940750912"><ele>112.33333333333334</ele><time>2026-04-08T11:46:51.999Z</time></trkpt><trkpt lat="38.153798170917725" lon="15.370691211762923"><ele>114.0</ele><time>2026-04-08T11:46:52.999Z</time></trkpt><trkpt lat="38.153609772874184" lon="15.370728150664837"><ele>114.0</ele><time>2026-04-08T11:46:53.999Z</time></trkpt><trkpt lat="38.15342503096759" lon="15.370781580871894"><ele>114.0</ele><time>2026-04-08T11:46:54.999Z</time></trkpt><trkpt lat="38.1532374774427" lon="15.370863249762978"><ele>114.0</ele><time>2026-04-08T11:46:55.999Z</time></trkpt><trkpt lat="38.15304726420523" lon="15.370969387074055"><ele>113.33333333333334</ele><time>2026-04-08T11:46:56.999Z</time></trkpt><trkpt lat="38.15285189134874" lon="15.371081687297865"><ele>112.66666666666667</ele><time>2026-04-08T11:46:57.999Z</time></trkpt><trkpt lat="38.15265158794215" lon="15.371188872428844"><ele>112.0</ele><time>2026-04-08T11:46:58.999Z</time></trkpt><trkpt lat="38.152446714172555" lon="15.371294390366753"><ele>114.0</ele><time>2026-04-08T11:46:59.999Z</time></trkpt><trkpt lat="38.152237951104865" lon="15.371404866968689"><ele>116.0</ele><time>2026-04-08T11:47:00.999Z</time></trkpt><trkpt lat="38.15202647397485" lon="15.371516538267704"><ele>116.0</ele><time>2026-04-08T11:47:01.999Z</time></trkpt><trkpt lat="38.15182249587045" lon="15.371636316979576"><ele>116.0</ele><time>2026-04-08T11:47:02.999Z</time></trkpt><trkpt lat="38.151627597642175" lon="15.37177146992108"><ele>116.0</ele><time>2026-04-08T11:47:03.999Z</time></trkpt><trkpt lat="38.15144477796302" lon="15.3719279419608"><ele>117.0</ele><time>2026-04-08T11:47:04.999Z</time></trkpt><trkpt lat="38.15126413614247" lon="15.372100827065523"><ele>118.0</ele><time>2026-04-08T11:47:05.999Z</time></trkpt><trkpt lat="38.15108101949632" lon="15.372284891855518"><ele>118.0</ele><time>2026-04-08T11:47:06.999Z</time></trkpt><trkpt lat="38.15091254550661" lon="15.372458050167372"><ele>118.0</ele><time>2026-04-08T11:47:07.999Z</time></trkpt><trkpt lat="38.15075735554982" lon="15.372627511025842"><ele>118.0</ele><time>2026-04-08T11:47:08.998Z</time></trkpt><trkpt lat="38.15060805141401" lon="15.372808746990811"><ele>119.0</ele><time>2026-04-08T11:47:09.998Z</time></trkpt><trkpt lat="38.15046458685817" lon="15.372996875050813"><ele>120.0</ele><time>2026-04-08T11:47:10.998Z</time></trkpt><trkpt lat="38.150321484565495" lon="15.373178664518843"><ele>121.0</ele><time>2026-04-08T11:47:11.998Z</time></trkpt><trkpt lat="38.15018071978447" lon="15.37335912914983"><ele>121.33333333333334</ele><time>2026-04-08T11:47:12.998Z</time></trkpt><trkpt lat="38.150040033746116" lon="15.373526709173756"><ele>121.66666666666666</ele><time>2026-04-08T11:47:13.998Z</time></trkpt><trkpt lat="38.149882294940426" lon="15.373656648082495"><ele>122.0</ele><time>2026-04-08T11:47:14.998Z</time></trkpt><trkpt lat="38.14973498210529" lon="15.373810504945071"><ele>122.66666666666666</ele><time>2026-04-08T11:47:15.998Z</time></trkpt><trkpt lat="38.14957023100438" lon="15.37393093501991"><ele>123.33333333333334</ele><time>2026-04-08T11:47:16.998Z</time></trkpt><trkpt lat="38.14941081612535" lon="15.374051999270192"><ele>124.0</ele><time>2026-04-08T11:47:17.998Z</time></trkpt><trkpt lat="38.14925317299363" lon="15.374171866421229"><ele>124.0</ele><time>2026-04-08T11:47:18.998Z</time></trkpt><trkpt lat="38.14910033591726" lon="15.374291580328505"><ele>124.0</ele><time>2026-04-08T11:47:19.998Z</time></trkpt><trkpt lat="38.14894601823254" lon="15.374416692521093"><ele>124.0</ele><time>2026-04-08T11:47:20.998Z</time></trkpt><trkpt lat="38.14879802482909" lon="15.374548264991617"><ele>124.66666666666667</ele><time>2026-04-08T11:47:21.998Z</time></trkpt><trkpt lat="38.14865853191302" lon="15.374681580817034"><ele>125.33333333333334</ele><time>2026-04-08T11:47:22.998Z</time></trkpt><trkpt lat="38.14852874356906" lon="15.374817601012888"><ele>126.0</ele><time>2026-04-08T11:47:23.998Z</time></trkpt><trkpt lat="38.148409105462775" lon="15.37494946625537"><ele>126.0</ele><time>2026-04-08T11:47:25Z</time></trkpt><trkpt lat="38.14829938447228" lon="15.375072374294964"><ele>126.0</ele><time>2026-04-08T11:47:26Z</time></trkpt><trkpt lat="38.14818286037319" lon="15.375167515002833"><ele>126.0</ele><time>2026-04-08T11:47:27Z</time></trkpt><trkpt lat="38.14808284318125" lon="15.375269295094169"><ele>126.0</ele><time>2026-04-08T11:47:28Z</time></trkpt><trkpt lat="38.14799267380012" lon="15.375357184551923"><ele>126.6</ele><time>2026-04-08T11:47:29Z</time></trkpt><trkpt lat="38.1478991430265" lon="15.37544583756259"><ele>127.19999999999999</ele><time>2026-04-08T11:47:30Z</time></trkpt><trkpt lat="38.14780682286304" lon="15.375527571477203"><ele>127.80000000000001</ele><time>2026-04-08T11:47:31Z</time></trkpt><trkpt lat="38.14771230070425" lon="15.375585109324293"><ele>128.4</ele><time>2026-04-08T11:47:32Z</time></trkpt><trkpt lat="38.1476041260949" lon="15.375633957149114"><ele>129.0</ele><time>2026-04-08T11:47:33Z</time></trkpt><trkpt lat="38.14747427239863" lon="15.375671073217083"><ele>129.25</ele><time>2026-04-08T11:47:34Z</time></trkpt><trkpt lat="38.14734873627259" lon="15.375689659027806"><ele>129.5</ele><time>2026-04-08T11:47:35Z</time></trkpt><trkpt lat="38.14722718472066" lon="15.375686780220947"><ele>129.75</ele><time>2026-04-08T11:47:36Z</time></trkpt><trkpt lat="38.147085319300196" lon="15.375671747567045"><ele>130.0</ele><time>2026-04-08T11:47:37Z</time></trkpt><trkpt lat="38.14692181613432" lon="15.375646116716206"><ele>130.0</ele><time>2026-04-08T11:47:38Z</time></trkpt><trkpt lat="38.1467467555778" lon="15.37560934592508"><ele>130.0</ele><time>2026-04-08T11:47:39Z</time></trkpt><trkpt lat="38.14656932188479" lon="15.375571095537643"><ele>130.0</ele><time>2026-04-08T11:47:40Z</time></trkpt><trkpt lat="38.146378020736876" lon="15.375533253716073"><ele>130.66666666666669</ele><time>2026-04-08T11:47:41Z</time></trkpt><trkpt lat="38.146188622163514" lon="15.375498433107722"><ele>131.33333333333334</ele><time>2026-04-08T11:47:42Z</time></trkpt><trkpt lat="38.14599738683827" lon="15.375463762161885"><ele>132.0</ele><time>2026-04-08T11:47:43Z</time></trkpt><trkpt lat="38.145809154113195" lon="15.375429635587466"><ele>132.33333333333334</ele><time>2026-04-08T11:47:44Z</time></trkpt><trkpt lat="38.145626194020586" lon="15.375397662697358"><ele>132.66666666666669</ele><time>2026-04-08T11:47:45Z</time></trkpt><trkpt lat="38.14544652435585" lon="15.375367264744588"><ele>133.0</ele><time>2026-04-08T11:47:46Z</time></trkpt><trkpt lat="38.14527342515393" lon="15.375348329237742"><ele>133.0</ele><time>2026-04-08T11:47:47Z</time></trkpt><trkpt lat="38.14510411494954" lon="15.375311407573276"><ele>133.0</ele><time>2026-04-08T11:47:48Z</time></trkpt><trkpt lat="38.14493128289517" lon="15.375277899818538"><ele>133.0</ele><time>2026-04-08T11:47:49Z</time></trkpt><trkpt lat="38.144759768844956" lon="15.375241492835132"><ele>133.0</ele><time>2026-04-08T11:47:50Z</time></trkpt><trkpt lat="38.14459728593106" lon="15.375212065876633"><ele>133.0</ele><time>2026-04-08T11:47:51Z</time></trkpt><trkpt lat="38.14443934590277" lon="15.375199572698405"><ele>133.0</ele><time>2026-04-08T11:47:52Z</time></trkpt><trkpt lat="38.144287083440695" lon="15.375200381409092"><ele>133.0</ele><time>2026-04-08T11:47:53Z</time></trkpt><trkpt lat="38.144123817530726" lon="15.375219126680763"><ele>133.0</ele><time>2026-04-08T11:47:54Z</time></trkpt><trkpt lat="38.14395165141063" lon="15.375243297905447"><ele>133.0</ele><time>2026-04-08T11:47:55Z</time></trkpt><trkpt lat="38.143787420018754" lon="15.375257855496187"><ele>133.66666666666669</ele><time>2026-04-08T11:47:56Z</time></trkpt><trkpt lat="38.143623829154464" lon="15.375256854108137"><ele>134.33333333333334</ele><time>2026-04-08T11:47:57Z</time></trkpt><trkpt lat="38.14346682051543" lon="15.375257701460686"><ele>135.0</ele><time>2026-04-08T11:47:58Z</time></trkpt><trkpt lat="38.14332104480829" lon="15.375269565501897"><ele>136.25</ele><time>2026-04-08T11:47:59Z</time></trkpt><trkpt lat="38.14317961415777" lon="15.375293349810873"><ele>137.5</ele><time>2026-04-08T11:48:00Z</time></trkpt><trkpt lat="38.143046798153556" lon="15.375334889919923"><ele>138.75</ele><time>2026-04-08T11:48:01Z</time></trkpt><trkpt lat="38.14292125446333" lon="15.375407325084664"><ele>140.0</ele><time>2026-04-08T11:48:02Z</time></trkpt><trkpt lat="38.14280013708537" lon="15.375503051972206"><ele>140.5</ele><time>2026-04-08T11:48:03Z</time></trkpt><trkpt lat="38.14267556152068" lon="15.375598114116437"><ele>141.0</ele><time>2026-04-08T11:48:04Z</time></trkpt><trkpt lat="38.142553457401554" lon="15.375688891348346"><ele>141.5</ele><time>2026-04-08T11:48:05Z</time></trkpt><trkpt lat="38.142446081390105" lon="15.375780998789699"><ele>142.0</ele><time>2026-04-08T11:48:06Z</time></trkpt><trkpt lat="38.142356432892996" lon="15.375887949133128"><ele>143.5</ele><time>2026-04-08T11:48:07Z</time></trkpt><trkpt lat="38.14228679942242" lon="15.376010370560127"><ele>145.0</ele><time>2026-04-08T11:48:08Z</time></trkpt><trkpt lat="38.1422445546031" lon="15.376133371272312"><ele>146.5</ele><time>2026-04-08T11:48:09Z</time></trkpt><trkpt lat="38.14221317450412" lon="15.376271571361682"><ele>148.0</ele><time>2026-04-08T11:48:10Z</time></trkpt><trkpt lat="38.14220882547079" lon="15.376430311772438"><ele>148.0</ele><time>2026-04-08T11:48:11Z</time></trkpt><trkpt lat="38.14222482851743" lon="15.376597392014256"><ele>148.0</ele><time>2026-04-08T11:48:12Z</time></trkpt><trkpt lat="38.14225928991567" lon="15.376759291596956"><ele>148.0</ele><time>2026-04-08T11:48:12.999Z</time></trkpt><trkpt lat="38.1423078036734" lon="15.376925845931593"><ele>148.0</ele><time>2026-04-08T11:48:13.999Z</time></trkpt><trkpt lat="38.14232486346045" lon="15.377085864393663"><ele>146.6</ele><time>2026-04-08T11:48:14.999Z</time></trkpt><trkpt lat="38.142345247751805" lon="15.377228297833607"><ele>145.20000000000002</ele><time>2026-04-08T11:48:15.999Z</time></trkpt><trkpt lat="38.14235785995762" lon="15.377385510627168"><ele>143.8</ele><time>2026-04-08T11:48:16.999Z</time></trkpt><trkpt lat="38.142316802644075" lon="15.377490951400166"><ele>142.4</ele><time>2026-04-08T11:48:17.999Z</time></trkpt><trkpt lat="38.14226421957702" lon="15.377588908425249"><ele>141.0</ele><time>2026-04-08T11:48:18.999Z</time></trkpt><trkpt lat="38.14219919352424" lon="15.377683168470849"><ele>141.0</ele><time>2026-04-08T11:48:19.999Z</time></trkpt><trkpt lat="38.14211057056594" lon="15.377761137979304"><ele>141.0</ele><time>2026-04-08T11:48:20.999Z</time></trkpt><trkpt lat="38.14200276139007" lon="15.377824422594493"><ele>141.0</ele><time>2026-04-08T11:48:21.999Z</time></trkpt><trkpt lat="38.14190884643202" lon="15.377840522500946"><ele>141.0</ele><time>2026-04-08T11:48:22.999Z</time></trkpt><trkpt lat="38.14182495966111" lon="15.37782709626284"><ele>141.0</ele><time>2026-04-08T11:48:23.999Z</time></trkpt><trkpt lat="38.14174264849122" lon="15.377800541929291"><ele>141.0</ele><time>2026-04-08T11:48:24.999Z</time></trkpt><trkpt lat="38.1416384555898" lon="15.377773968051006"><ele>141.0</ele><time>2026-04-08T11:48:25.999Z</time></trkpt><trkpt lat="38.14152234752117" lon="15.377744590259718"><ele>141.0</ele><time>2026-04-08T11:48:26.999Z</time></trkpt><trkpt lat="38.14138984405014" lon="15.377710051193986"><ele>141.0</ele><time>2026-04-08T11:48:27.999Z</time></trkpt><trkpt lat="38.1412267511965" lon="15.377667040641752"><ele>142.0</ele><time>2026-04-08T11:48:28.999Z</time></trkpt><trkpt lat="38.141082589456644" lon="15.377629022557525"><ele>143.0</ele><time>2026-04-08T11:48:29.999Z</time></trkpt><trkpt lat="38.14094863370003" lon="15.377613554411152"><ele>144.0</ele><time>2026-04-08T11:48:30.999Z</time></trkpt><trkpt lat="38.14082607608045" lon="15.377583211657134"><ele>145.0</ele><time>2026-04-08T11:48:31.999Z</time></trkpt><trkpt lat="38.1407303788446" lon="15.377592393357698"><ele>146.0</ele><time>2026-04-08T11:48:32.999Z</time></trkpt><trkpt lat="38.14064154446225" lon="15.377636977296378"><ele>147.0</ele><time>2026-04-08T11:48:33.999Z</time></trkpt><trkpt lat="38.140553166843084" lon="15.377696545500132"><ele>148.0</ele><time>2026-04-08T11:48:34.999Z</time></trkpt><trkpt lat="38.14043999114658" lon="15.37779128802915"><ele>149.0</ele><time>2026-04-08T11:48:35.999Z</time></trkpt><trkpt lat="38.14033105392051" lon="15.377901471438944"><ele>149.0</ele><time>2026-04-08T11:48:36.999Z</time></trkpt><trkpt lat="38.140210228398395" lon="15.378009150240498"><ele>149.0</ele><time>2026-04-08T11:48:37.999Z</time></trkpt><trkpt lat="38.14008028479909" lon="15.378136031337117"><ele>149.0</ele><time>2026-04-08T11:48:38.999Z</time></trkpt><trkpt lat="38.139929535999066" lon="15.378280243376075"><ele>149.66666666666666</ele><time>2026-04-08T11:48:39.999Z</time></trkpt><trkpt lat="38.13973904573752" lon="15.378434050148192"><ele>150.33333333333334</ele><time>2026-04-08T11:48:40.999Z</time></trkpt><trkpt lat="38.139569336885806" lon="15.378580197550574"><ele>151.0</ele><time>2026-04-08T11:48:41.999Z</time></trkpt><trkpt lat="38.13940830441228" lon="15.378725606529253"><ele>152.0</ele><time>2026-04-08T11:48:42.999Z</time></trkpt><trkpt lat="38.13925794584476" lon="15.378856293424315"><ele>153.0</ele><time>2026-04-08T11:48:43.999Z</time></trkpt><trkpt lat="38.13911825911485" lon="15.378980867020056"><ele>154.0</ele><time>2026-04-08T11:48:44.999Z</time></trkpt><trkpt lat="38.138996301697965" lon="15.37910027982663"><ele>154.0</ele><time>2026-04-08T11:48:45.999Z</time></trkpt><trkpt lat="38.13890004510473" lon="15.37921727322483"><ele>154.0</ele><time>2026-04-08T11:48:46.999Z</time></trkpt><trkpt lat="38.138828558374854" lon="15.379345520272006"><ele>154.0</ele><time>2026-04-08T11:48:47.999Z</time></trkpt><trkpt lat="38.13878685919194" lon="15.379488862654654"><ele>154.0</ele><time>2026-04-08T11:48:48.999Z</time></trkpt><trkpt lat="38.13874639030595" lon="15.379620171974882"><ele>155.25</ele><time>2026-04-08T11:48:49.999Z</time></trkpt><trkpt lat="38.13870074140639" lon="15.379755265504626"><ele>156.5</ele><time>2026-04-08T11:48:50.999Z</time></trkpt><trkpt lat="38.13865361000199" lon="15.379898741619956"><ele>157.75</ele><time>2026-04-08T11:48:51.999Z</time></trkpt><trkpt lat="38.13861023813634" lon="15.380030773171544"><ele>159.0</ele><time>2026-04-08T11:48:52.999Z</time></trkpt><trkpt lat="38.13856654424578" lon="15.380163784967873"><ele>159.0</ele><time>2026-04-08T11:48:53.999Z</time></trkpt><trkpt lat="38.13852270625298" lon="15.380297235391199"><ele>159.0</ele><time>2026-04-08T11:48:54.999Z</time></trkpt><trkpt lat="38.13848124031437" lon="15.38043730017252"><ele>159.0</ele><time>2026-04-08T11:48:55.999Z</time></trkpt><trkpt lat="38.13842402413032" lon="15.380571909660153"><ele>159.0</ele><time>2026-04-08T11:48:56.999Z</time></trkpt><trkpt lat="38.1383667979508" lon="15.380722236589115"><ele>158.75</ele><time>2026-04-08T11:48:57.999Z</time></trkpt><trkpt lat="38.13832335082409" lon="15.38088176335136"><ele>158.5</ele><time>2026-04-08T11:48:58.999Z</time></trkpt><trkpt lat="38.13827920721159" lon="15.381057814665866"><ele>158.25</ele><time>2026-04-08T11:48:59.999Z</time></trkpt><trkpt lat="38.13822766894142" lon="15.381211380272399"><ele>158.0</ele><time>2026-04-08T11:49:00.999Z</time></trkpt><trkpt lat="38.13817353233142" lon="15.38135836073512"><ele>158.0</ele><time>2026-04-08T11:49:01.999Z</time></trkpt><trkpt lat="38.13812067328315" lon="15.381491841731318"><ele>158.0</ele><time>2026-04-08T11:49:02.999Z</time></trkpt><trkpt lat="38.138020044613846" lon="15.381612865019791"><ele>158.0</ele><time>2026-04-08T11:49:03.999Z</time></trkpt><trkpt lat="38.137916872008425" lon="15.381754039922091"><ele>158.0</ele><time>2026-04-08T11:49:04.999Z</time></trkpt><trkpt lat="38.137816163921045" lon="15.381901671343593"><ele>158.0</ele><time>2026-04-08T11:49:05.999Z</time></trkpt><trkpt lat="38.1376968246049" lon="15.38202087824696"><ele>158.0</ele><time>2026-04-08T11:49:06.999Z</time></trkpt><trkpt lat="38.13757047412878" lon="15.382149923622942"><ele>158.0</ele><time>2026-04-08T11:49:07.999Z</time></trkpt><trkpt lat="38.13744517295669" lon="15.38225235758134"><ele>158.5</ele><time>2026-04-08T11:49:08.999Z</time></trkpt><trkpt lat="38.137321738151506" lon="15.382372745532896"><ele>159.0</ele><time>2026-04-08T11:49:09.999Z</time></trkpt><trkpt lat="38.13720912972817" lon="15.382478921205962"><ele>159.5</ele><time>2026-04-08T11:49:10.999Z</time></trkpt><trkpt lat="38.13709810214432" lon="15.382579205746062"><ele>160.0</ele><time>2026-04-08T11:49:11.999Z</time></trkpt><trkpt lat="38.13698106381736" lon="15.382649237127898"><ele>160.0</ele><time>2026-04-08T11:49:12.998Z</time></trkpt><trkpt lat="38.13685493331801" lon="15.382717250530176"><ele>160.0</ele><time>2026-04-08T11:49:13.998Z</time></trkpt><trkpt lat="38.13672663325673" lon="15.382780845298928"><ele>160.0</ele><time>2026-04-08T11:49:14.998Z</time></trkpt><trkpt lat="38.13659825142946" lon="15.382853274682573"><ele>160.0</ele><time>2026-04-08T11:49:15.998Z</time></trkpt><trkpt lat="38.1364715935769" lon="15.382924731546407"><ele>160.25</ele><time>2026-04-08T11:49:16.998Z</time></trkpt><trkpt lat="38.13634674766899" lon="15.382995166146369"><ele>160.5</ele><time>2026-04-08T11:49:17.998Z</time></trkpt><trkpt lat="38.13622527310854" lon="15.383063698748876"><ele>160.75</ele><time>2026-04-08T11:49:18.998Z</time></trkpt><trkpt lat="38.136104801096046" lon="15.383131665724413"><ele>161.0</ele><time>2026-04-08T11:49:19.998Z</time></trkpt><trkpt lat="38.13599223394038" lon="15.383217045083"><ele>161.8</ele><time>2026-04-08T11:49:20.998Z</time></trkpt><trkpt lat="38.13587384510227" lon="15.383278873684066"><ele>162.60000000000002</ele><time>2026-04-08T11:49:21.998Z</time></trkpt><trkpt lat="38.13576167860233" lon="15.383338700737092"><ele>163.4</ele><time>2026-04-08T11:49:22.998Z</time></trkpt><trkpt lat="38.135655620272786" lon="15.383376064890474"><ele>164.2</ele><time>2026-04-08T11:49:23.998Z</time></trkpt><trkpt lat="38.13557241806455" lon="15.38341877313663"><ele>165.0</ele><time>2026-04-08T11:49:24.998Z</time></trkpt><trkpt lat="38.13551226118151" lon="15.383444441188837"><ele>165.4</ele><time>2026-04-08T11:49:25.998Z</time></trkpt><trkpt lat="38.13551013621684" lon="15.383546768037503"><ele>165.8</ele><time>2026-04-08T11:49:27.998Z</time></trkpt><trkpt lat="38.13553128988287" lon="15.383683539552926"><ele>166.2</ele><time>2026-04-08T11:49:29.998Z</time></trkpt><trkpt lat="38.135543155674625" lon="15.38380441149847"><ele>166.6</ele><time>2026-04-08T11:49:31Z</time></trkpt><trkpt lat="38.13555741507962" lon="15.383970869995316"><ele>167.0</ele><time>2026-04-08T11:49:32Z</time></trkpt><trkpt lat="38.135568307198135" lon="15.38417143845656"><ele>167.0</ele><time>2026-04-08T11:49:33Z</time></trkpt><trkpt lat="38.13558088621606" lon="15.384394791569088"><ele>167.0</ele><time>2026-04-08T11:49:34Z</time></trkpt><trkpt lat="38.135586737981384" lon="15.384586357862771"><ele>167.0</ele><time>2026-04-08T11:49:35Z</time></trkpt><trkpt lat="38.13558794196371" lon="15.384745092513182"><ele>167.39999999999998</ele><time>2026-04-08T11:49:36Z</time></trkpt><trkpt lat="38.135578936394595" lon="15.384864579305393"><ele>167.79999999999998</ele><time>2026-04-08T11:49:37Z</time></trkpt><trkpt lat="38.135593193643714" lon="15.384956182920124"><ele>168.2</ele><time>2026-04-08T11:49:38Z</time></trkpt><trkpt lat="38.13568927191135" lon="15.385003116452129"><ele>168.6</ele><time>2026-04-08T11:49:40Z</time></trkpt><trkpt lat="38.13578895730524" lon="15.38501592819783"><ele>169.0</ele><time>2026-04-08T11:49:42Z</time></trkpt><trkpt lat="38.13592088180823" lon="15.38501458671554"><ele>169.0</ele><time>2026-04-08T11:49:44Z</time></trkpt><trkpt lat="38.1359889020537" lon="15.385073082350555"><ele>169.0</ele><time>2026-04-08T11:49:45Z</time></trkpt><trkpt lat="38.13605742643722" lon="15.385135159963179"><ele>169.0</ele><time>2026-04-08T11:49:46Z</time></trkpt><trkpt lat="38.136123579568356" lon="15.385175397314542"><ele>169.0</ele><time>2026-04-08T11:49:47Z</time></trkpt><trkpt lat="38.13621130670258" lon="15.38517608894818"><ele>169.0</ele><time>2026-04-08T11:49:48Z</time></trkpt><trkpt lat="38.13629684280545" lon="15.385198633246139"><ele>169.0</ele><time>2026-04-08T11:49:49Z</time></trkpt><trkpt lat="38.13637753814259" lon="15.38523795250213"><ele>169.0</ele><time>2026-04-08T11:49:50Z</time></trkpt><trkpt lat="38.13646758210937" lon="15.385313191091443"><ele>169.0</ele><time>2026-04-08T11:49:51Z</time></trkpt><trkpt lat="38.13659279479995" lon="15.3853887960676"><ele>169.0</ele><time>2026-04-08T11:49:52Z</time></trkpt><trkpt lat="38.13670152625507" lon="15.385465223401996"><ele>169.0</ele><time>2026-04-08T11:49:53Z</time></trkpt><trkpt lat="38.13680351770059" lon="15.385527996475846"><ele>171.5</ele><time>2026-04-08T11:49:54Z</time></trkpt><trkpt lat="38.13691457837093" lon="15.385569670306293"><ele>174.0</ele><time>2026-04-08T11:49:55Z</time></trkpt><trkpt lat="38.137035283112034" lon="15.38557615160314"><ele>176.5</ele><time>2026-04-08T11:49:56Z</time></trkpt><trkpt lat="38.13716663636483" lon="15.385567414823072"><ele>179.0</ele><time>2026-04-08T11:49:57Z</time></trkpt><trkpt lat="38.13728487369467" lon="15.38560656614938"><ele>179.75</ele><time>2026-04-08T11:49:58Z</time></trkpt><trkpt lat="38.13740545676955" lon="15.385659421072221"><ele>180.5</ele><time>2026-04-08T11:49:59Z</time></trkpt><trkpt lat="38.13754024937712" lon="15.385699495332531"><ele>181.25</ele><time>2026-04-08T11:50:00Z</time></trkpt><trkpt lat="38.13767963358573" lon="15.385757193410393"><ele>182.0</ele><time>2026-04-08T11:50:01Z</time></trkpt><trkpt lat="38.13784509367928" lon="15.385807483262296"><ele>182.0</ele><time>2026-04-08T11:50:02Z</time></trkpt><trkpt lat="38.13798403823188" lon="15.38584384336593"><ele>182.0</ele><time>2026-04-08T11:50:03Z</time></trkpt><trkpt lat="38.13809836784714" lon="15.385877688746335"><ele>182.0</ele><time>2026-04-08T11:50:04Z</time></trkpt><trkpt lat="38.13820387212575" lon="15.385918017063858"><ele>182.0</ele><time>2026-04-08T11:50:05Z</time></trkpt><trkpt lat="38.13829080246424" lon="15.385971863223482"><ele>186.5</ele><time>2026-04-08T11:50:06Z</time></trkpt><trkpt lat="38.13833843666804" lon="15.38604682711022"><ele>191.0</ele><time>2026-04-08T11:50:07Z</time></trkpt><trkpt lat="38.13838264886094" lon="15.38612663911416"><ele>195.5</ele><time>2026-04-08T11:50:08Z</time></trkpt><trkpt lat="38.13840816418367" lon="15.386233875737938"><ele>200.0</ele><time>2026-04-08T11:50:09Z</time></trkpt><trkpt lat="38.138449722295036" lon="15.386299216493567"><ele>204.50000000000003</ele><time>2026-04-08T11:50:10Z</time></trkpt><trkpt lat="38.13854014433074" lon="15.386178637326012"><ele>209.0</ele><time>2026-04-08T11:50:13Z</time></trkpt><trkpt lat="38.138521816932986" lon="15.386090492561923"><ele>209.00000000000003</ele><time>2026-04-08T11:50:14Z</time></trkpt><trkpt lat="38.138487885830706" lon="15.385992025157533"><ele>209.0</ele><time>2026-04-08T11:50:15Z</time></trkpt><trkpt lat="38.138424420049816" lon="15.385905142387088"><ele>209.0</ele><time>2026-04-08T11:50:16Z</time></trkpt><trkpt lat="38.138345079071016" lon="15.38582850009158"><ele>209.0</ele><time>2026-04-08T11:50:17Z</time></trkpt><trkpt lat="38.13829490026305" lon="15.38575314747954"><ele>209.00000000000003</ele><time>2026-04-08T11:50:17.999Z</time></trkpt><trkpt lat="38.13827432320593" lon="15.385676744921282"><ele>209.0</ele><time>2026-04-08T11:50:18.999Z</time></trkpt><trkpt lat="38.138296166276994" lon="15.38557995505319"><ele>208.79999999999998</ele><time>2026-04-08T11:50:19.999Z</time></trkpt><trkpt lat="38.13830252497584" lon="15.385448755990922"><ele>208.6</ele><time>2026-04-08T11:50:20.999Z</time></trkpt><trkpt lat="38.138303243689414" lon="15.385299619753345"><ele>208.4</ele><time>2026-04-08T11:50:21.999Z</time></trkpt><trkpt lat="38.13829479409186" lon="15.385164036875832"><ele>208.2</ele><time>2026-04-08T11:50:22.999Z</time></trkpt><trkpt lat="38.138292227383246" lon="15.385072525734833"><ele>208.0</ele><time>2026-04-08T11:50:23.999Z</time></trkpt><trkpt lat="38.138388670627336" lon="15.385079350349478"><ele>208.0</ele><time>2026-04-08T11:50:26.999Z</time></trkpt><trkpt lat="38.138343318208946" lon="15.38523426067282"><ele>208.0</ele><time>2026-04-08T11:50:28.999Z</time></trkpt><trkpt lat="38.13836562811018" lon="15.385364311135461"><ele>208.0</ele><time>2026-04-08T11:50:29.999Z</time></trkpt><trkpt lat="38.138349472479796" lon="15.385495151531996"><ele>208.0</ele><time>2026-04-08T11:50:30.999Z</time></trkpt><trkpt lat="38.13835408285738" lon="15.385592638267646"><ele>208.0</ele><time>2026-04-08T11:50:31.999Z</time></trkpt><trkpt lat="38.13837694778503" lon="15.385690277570706"><ele>208.16666666666666</ele><time>2026-04-08T11:50:32.999Z</time></trkpt><trkpt lat="38.13844648337771" lon="15.385774038922936"><ele>208.33333333333331</ele><time>2026-04-08T11:50:33.999Z</time></trkpt><trkpt lat="38.138517694428934" lon="15.385843907794452"><ele>208.5</ele><time>2026-04-08T11:50:34.999Z</time></trkpt><trkpt lat="38.13859119109991" lon="15.385909061890583"><ele>208.66666666666669</ele><time>2026-04-08T11:50:35.999Z</time></trkpt><trkpt lat="38.13865757541028" lon="15.385981805926114"><ele>208.83333333333334</ele><time>2026-04-08T11:50:36.999Z</time></trkpt><trkpt lat="38.1387098017302" lon="15.386049197311024"><ele>209.0</ele><time>2026-04-08T11:50:37.999Z</time></trkpt><trkpt lat="38.13875614584479" lon="15.386109640603127"><ele>209.00000000000003</ele><time>2026-04-08T11:50:38.999Z</time></trkpt><trkpt lat="38.13883467447313" lon="15.386099093538954"><ele>209.0</ele><time>2026-04-08T11:50:40.999Z</time></trkpt><trkpt lat="38.13885406103078" lon="15.385990204806713"><ele>209.0</ele><time>2026-04-08T11:50:41.999Z</time></trkpt><trkpt lat="38.138843043151724" lon="15.385893523457204"><ele>209.0</ele><time>2026-04-08T11:50:42.999Z</time></trkpt><trkpt lat="38.13880461443544" lon="15.385763274376124"><ele>209.00000000000003</ele><time>2026-04-08T11:50:43.999Z</time></trkpt><trkpt lat="38.13875149765626" lon="15.385667477519789"><ele>209.0</ele><time>2026-04-08T11:50:44.999Z</time></trkpt><trkpt lat="38.13862895616977" lon="15.385642803320724"><ele>209.0</ele><time>2026-04-08T11:50:45.999Z</time></trkpt><trkpt lat="38.13855961385677" lon="15.385576213307578"><ele>209.0</ele><time>2026-04-08T11:50:46.999Z</time></trkpt><trkpt lat="38.13850400281065" lon="15.385522809528263"><ele>209.0</ele><time>2026-04-08T11:50:47.999Z</time></trkpt><trkpt lat="38.13850864485845" lon="15.385407922635206"><ele>209.0</ele><time>2026-04-08T11:50:48.999Z</time></trkpt><trkpt lat="38.138558830300965" lon="15.385301617250072"><ele>209.0</ele><time>2026-04-08T11:50:49.999Z</time></trkpt><trkpt lat="38.13860605457003" lon="15.385175513633786"><ele>208.79999999999998</ele><time>2026-04-08T11:50:50.999Z</time></trkpt><trkpt lat="38.138657886932926" lon="15.38504549250664"><ele>208.6</ele><time>2026-04-08T11:50:51.999Z</time></trkpt><trkpt lat="38.138728836434396" lon="15.384943566862749"><ele>208.4</ele><time>2026-04-08T11:50:52.999Z</time></trkpt><trkpt lat="38.13878707212364" lon="15.384881783984603"><ele>208.2</ele><time>2026-04-08T11:50:53.999Z</time></trkpt><trkpt lat="38.138890818291166" lon="15.384901261083028"><ele>208.0</ele><time>2026-04-08T11:50:55.999Z</time></trkpt><trkpt lat="38.138985929569984" lon="15.384899786576195"><ele>213.0</ele><time>2026-04-08T11:50:56.999Z</time></trkpt><trkpt lat="38.139063168416484" lon="15.38485116288792"><ele>218.0</ele><time>2026-04-08T11:50:57.999Z</time></trkpt><trkpt lat="38.139087767704545" lon="15.384707948246717"><ele>223.0</ele><time>2026-04-08T11:50:58.999Z</time></trkpt><trkpt lat="38.139105305073855" lon="15.384594902588015"><ele>228.0</ele><time>2026-04-08T11:50:59.999Z</time></trkpt><trkpt lat="38.139155270214246" lon="15.384484549814378"><ele>233.0</ele><time>2026-04-08T11:51:00.999Z</time></trkpt><trkpt lat="38.139207697852804" lon="15.384360149220663"><ele>233.0</ele><time>2026-04-08T11:51:01.999Z</time></trkpt><trkpt lat="38.13927890183583" lon="15.384290778157581"><ele>233.0</ele><time>2026-04-08T11:51:02.999Z</time></trkpt><trkpt lat="38.139376310371254" lon="15.384207468780641"><ele>233.0</ele><time>2026-04-08T11:51:03.999Z</time></trkpt><trkpt lat="38.139464048219644" lon="15.384174578858552"><ele>233.0</ele><time>2026-04-08T11:51:04.999Z</time></trkpt><trkpt lat="38.13954927056302" lon="15.38416372181613"><ele>233.0</ele><time>2026-04-08T11:51:05.999Z</time></trkpt><trkpt lat="38.13959927966303" lon="15.384262079557836"><ele>233.0</ele><time>2026-04-08T11:51:06.999Z</time></trkpt><trkpt lat="38.13973692804577" lon="15.38422764916884"><ele>233.0</ele><time>2026-04-08T11:51:08.999Z</time></trkpt><trkpt lat="38.13977650666626" lon="15.38409849253857"><ele>233.0</ele><time>2026-04-08T11:51:09.999Z</time></trkpt><trkpt lat="38.139728865349134" lon="15.383966137526897"><ele>233.0</ele><time>2026-04-08T11:51:10.999Z</time></trkpt><trkpt lat="38.13964282498639" lon="15.383889783527977"><ele>231.60000000000002</ele><time>2026-04-08T11:51:11.999Z</time></trkpt><trkpt lat="38.13957881577045" lon="15.383807536925374"><ele>230.20000000000002</ele><time>2026-04-08T11:51:12.999Z</time></trkpt><trkpt lat="38.13956966270895" lon="15.383722297173755"><ele>228.8</ele><time>2026-04-08T11:51:13.999Z</time></trkpt><trkpt lat="38.139585874514424" lon="15.383583497716074"><ele>227.4</ele><time>2026-04-08T11:51:14.999Z</time></trkpt><trkpt lat="38.13957100773857" lon="15.38345375480519"><ele>226.0</ele><time>2026-04-08T11:51:15.999Z</time></trkpt><trkpt lat="38.13946992038002" lon="15.383406853685004"><ele>226.0</ele><time>2026-04-08T11:51:16.999Z</time></trkpt><trkpt lat="38.13942962441584" lon="15.383287290374351"><ele>226.00000000000003</ele><time>2026-04-08T11:51:18.998Z</time></trkpt><trkpt lat="38.13953787760387" lon="15.383305379056045"><ele>226.00000000000003</ele><time>2026-04-08T11:51:20.998Z</time></trkpt><trkpt lat="38.139606406110595" lon="15.38343500154368"><ele>226.0</ele><time>2026-04-08T11:51:22.998Z</time></trkpt><trkpt lat="38.139652001584565" lon="15.383509642132175"><ele>226.0</ele><time>2026-04-08T11:51:23.998Z</time></trkpt><trkpt lat="38.139648349006734" lon="15.383634098056207"><ele>226.0</ele><time>2026-04-08T11:51:24.998Z</time></trkpt><trkpt lat="38.139685399222394" lon="15.383727774483425"><ele>226.00000000000003</ele><time>2026-04-08T11:51:25.998Z</time></trkpt><trkpt lat="38.13972610690308" lon="15.383801692898018"><ele>226.00000000000003</ele><time>2026-04-08T11:51:26.998Z</time></trkpt><trkpt lat="38.13981213508069" lon="15.38382002729483"><ele>226.0</ele><time>2026-04-08T11:51:27.998Z</time></trkpt><trkpt lat="38.139901864773634" lon="15.383733626368512"><ele>226.0</ele><time>2026-04-08T11:51:28.998Z</time></trkpt><trkpt lat="38.139922038561096" lon="15.383585476669635"><ele>233.60000000000002</ele><time>2026-04-08T11:51:29.998Z</time></trkpt><trkpt lat="38.13996387519474" lon="15.383464052324895"><ele>241.20000000000002</ele><time>2026-04-08T11:51:30.998Z</time></trkpt><trkpt lat="38.140007611878616" lon="15.383348416065573"><ele>248.79999999999998</ele><time>2026-04-08T11:51:31.998Z</time></trkpt><trkpt lat="38.14005585960777" lon="15.383265288573492"><ele>256.4</ele><time>2026-04-08T11:51:32.998Z</time></trkpt><trkpt lat="38.14012549406622" lon="15.383270479034342"><ele>264.0</ele><time>2026-04-08T11:51:33.998Z</time></trkpt><trkpt lat="38.14024967500418" lon="15.383348873625673"><ele>264.0</ele><time>2026-04-08T11:51:35.998Z</time></trkpt><trkpt lat="38.140335201970615" lon="15.38339062204413"><ele>264.0</ele><time>2026-04-08T11:51:37Z</time></trkpt><trkpt lat="38.140409278175845" lon="15.383469406826949"><ele>264.0</ele><time>2026-04-08T11:51:38Z</time></trkpt><trkpt lat="38.14044801152973" lon="15.383588659478184"><ele>264.0</ele><time>2026-04-08T11:51:39Z</time></trkpt><trkpt lat="38.140505056521405" lon="15.383640578908851"><ele>264.0</ele><time>2026-04-08T11:51:40Z</time></trkpt><trkpt lat="38.140586381163956" lon="15.38362036531775"><ele>264.0</ele><time>2026-04-08T11:51:41Z</time></trkpt><trkpt lat="38.14068853200775" lon="15.383595071445487"><ele>265.6666666666667</ele><time>2026-04-08T11:51:42Z</time></trkpt><trkpt lat="38.140798345358164" lon="15.383568979910773"><ele>267.3333333333333</ele><time>2026-04-08T11:51:43Z</time></trkpt><trkpt lat="38.140884705465986" lon="15.383579718071285"><ele>269.0</ele><time>2026-04-08T11:51:44Z</time></trkpt><trkpt lat="38.14092872378288" lon="15.383652438400718"><ele>270.66666666666663</ele><time>2026-04-08T11:51:45Z</time></trkpt><trkpt lat="38.14090928540351" lon="15.383744156988755"><ele>272.3333333333333</ele><time>2026-04-08T11:51:46Z</time></trkpt><trkpt lat="38.14090609117256" lon="15.383826702045004"><ele>274.0</ele><time>2026-04-08T11:51:47Z</time></trkpt><trkpt lat="38.14092332089232" lon="15.383948535764636"><ele>278.4</ele><time>2026-04-08T11:51:48Z</time></trkpt><trkpt lat="38.140930264923874" lon="15.384103955546218"><ele>282.79999999999995</ele><time>2026-04-08T11:51:49Z</time></trkpt><trkpt lat="38.14094473586206" lon="15.38422657878401"><ele>287.20000000000005</ele><time>2026-04-08T11:51:50Z</time></trkpt><trkpt lat="38.14096710095579" lon="15.384338346712926"><ele>291.6</ele><time>2026-04-08T11:51:51Z</time></trkpt><trkpt lat="38.1410079745508" lon="15.384449067958107"><ele>296.0</ele><time>2026-04-08T11:51:52Z</time></trkpt><trkpt lat="38.14105648873216" lon="15.384549706872214"><ele>296.0</ele><time>2026-04-08T11:51:54Z</time></trkpt><trkpt lat="38.14116089160747" lon="15.384493845208805"><ele>296.0</ele><time>2026-04-08T11:51:55Z</time></trkpt><trkpt lat="38.14122926824965" lon="15.38453347570457"><ele>296.0</ele><time>2026-04-08T11:51:56Z</time></trkpt><trkpt lat="38.14129624344932" lon="15.384597403566772"><ele>296.0</ele><time>2026-04-08T11:51:57Z</time></trkpt><trkpt lat="38.14131958989863" lon="15.384735680223006"><ele>296.0</ele><time>2026-04-08T11:51:58Z</time></trkpt><trkpt lat="38.14140064829144" lon="15.384800956172986"><ele>296.2</ele><time>2026-04-08T11:51:59Z</time></trkpt><trkpt lat="38.141489899515186" lon="15.384888474116627"><ele>296.40000000000003</ele><time>2026-04-08T11:52:00Z</time></trkpt><trkpt lat="38.14157034385057" lon="15.385006551318435"><ele>296.6</ele><time>2026-04-08T11:52:01Z</time></trkpt><trkpt lat="38.14162755026114" lon="15.385120514367113"><ele>296.8</ele><time>2026-04-08T11:52:02Z</time></trkpt><trkpt lat="38.141672568912036" lon="15.38520683276587"><ele>297.0</ele><time>2026-04-08T11:52:03Z</time></trkpt><trkpt lat="38.141670037891075" lon="15.385310028687513"><ele>297.0</ele><time>2026-04-08T11:52:04Z</time></trkpt><trkpt lat="38.14161627257241" lon="15.385443718864074"><ele>297.0</ele><time>2026-04-08T11:52:05Z</time></trkpt><trkpt lat="38.14157923471036" lon="15.385578386013815"><ele>297.0</ele><time>2026-04-08T11:52:06Z</time></trkpt><trkpt lat="38.14156298320766" lon="15.38571552536704"><ele>297.0</ele><time>2026-04-08T11:52:07Z</time></trkpt><trkpt lat="38.141553426741545" lon="15.385839951227643"><ele>297.0</ele><time>2026-04-08T11:52:08Z</time></trkpt><trkpt lat="38.14153780878955" lon="15.385973857703615"><ele>301.0</ele><time>2026-04-08T11:52:09Z</time></trkpt><trkpt lat="38.14147828000919" lon="15.386072400519774"><ele>305.0</ele><time>2026-04-08T11:52:10Z</time></trkpt><trkpt lat="38.14144234898335" lon="15.386183109814583"><ele>309.0</ele><time>2026-04-08T11:52:11Z</time></trkpt><trkpt lat="38.141423656101054" lon="15.38630304266278"><ele>313.0</ele><time>2026-04-08T11:52:12Z</time></trkpt><trkpt lat="38.14142185516412" lon="15.386416449082173"><ele>317.0</ele><time>2026-04-08T11:52:13Z</time></trkpt><trkpt lat="38.141431358866775" lon="15.386532277231623"><ele>317.0</ele><time>2026-04-08T11:52:14Z</time></trkpt><trkpt lat="38.14146218043935" lon="15.386615667736715"><ele>317.0</ele><time>2026-04-08T11:52:15Z</time></trkpt><trkpt lat="38.141578464265294" lon="15.38666087720568"><ele>317.0</ele><time>2026-04-08T11:52:17Z</time></trkpt><trkpt lat="38.141659077980364" lon="15.386646827293495"><ele>317.0</ele><time>2026-04-08T11:52:18Z</time></trkpt><trkpt lat="38.141752519032636" lon="15.386665128929105"><ele>317.0</ele><time>2026-04-08T11:52:19Z</time></trkpt><trkpt lat="38.14184394602132" lon="15.386742471299325"><ele>316.8</ele><time>2026-04-08T11:52:20Z</time></trkpt><trkpt lat="38.14191748553141" lon="15.386811763143806"><ele>316.6</ele><time>2026-04-08T11:52:21Z</time></trkpt><trkpt lat="38.14200879445299" lon="15.38685076187997"><ele>316.40000000000003</ele><time>2026-04-08T11:52:22Z</time></trkpt><trkpt lat="38.142115438133075" lon="15.38686525159481"><ele>316.2</ele><time>2026-04-08T11:52:23Z</time></trkpt><trkpt lat="38.14221196033742" lon="15.386857766765281"><ele>316.0</ele><time>2026-04-08T11:52:23.999Z</time></trkpt><trkpt lat="38.142305779549375" lon="15.386850587199323"><ele>313.2</ele><time>2026-04-08T11:52:24.999Z</time></trkpt><trkpt lat="38.14238531358185" lon="15.386931143369832"><ele>310.40000000000003</ele><time>2026-04-08T11:52:25.999Z</time></trkpt><trkpt lat="38.14247972467317" lon="15.38698552452063"><ele>307.6</ele><time>2026-04-08T11:52:26.999Z</time></trkpt><trkpt lat="38.14259247943246" lon="15.387019610110675"><ele>304.8</ele><time>2026-04-08T11:52:27.999Z</time></trkpt><trkpt lat="38.14270500123311" lon="15.387022406947608"><ele>302.0</ele><time>2026-04-08T11:52:28.999Z</time></trkpt><trkpt lat="38.142815577943935" lon="15.386991227789574"><ele>302.0</ele><time>2026-04-08T11:52:29.999Z</time></trkpt><trkpt lat="38.14291173521912" lon="15.386950641729257"><ele>302.0</ele><time>2026-04-08T11:52:30.999Z</time></trkpt><trkpt lat="38.14300333902201" lon="15.386950792290525"><ele>302.0</ele><time>2026-04-08T11:52:31.999Z</time></trkpt><trkpt lat="38.14308066616757" lon="15.386989723311114"><ele>302.0</ele><time>2026-04-08T11:52:32.999Z</time></trkpt><trkpt lat="38.14316625065287" lon="15.387002611055626"><ele>302.0</ele><time>2026-04-08T11:52:33.999Z</time></trkpt><trkpt lat="38.14324448254157" lon="15.38700890030181"><ele>302.0</ele><time>2026-04-08T11:52:34.999Z</time></trkpt><trkpt lat="38.14333009225966" lon="15.386975459437028"><ele>302.2</ele><time>2026-04-08T11:52:35.999Z</time></trkpt><trkpt lat="38.14340914692364" lon="15.386921978583755"><ele>302.4</ele><time>2026-04-08T11:52:36.999Z</time></trkpt><trkpt lat="38.14348630986314" lon="15.386836482425604"><ele>302.6</ele><time>2026-04-08T11:52:37.999Z</time></trkpt><trkpt lat="38.14353361984377" lon="15.386717598583466"><ele>302.8</ele><time>2026-04-08T11:52:38.999Z</time></trkpt><trkpt lat="38.14361262177606" lon="15.386612273855752"><ele>303.0</ele><time>2026-04-08T11:52:39.999Z</time></trkpt><trkpt lat="38.14366954303255" lon="15.38649546489239"><ele>303.0</ele><time>2026-04-08T11:52:40.999Z</time></trkpt><trkpt lat="38.143749094674256" lon="15.386430375273125"><ele>303.0</ele><time>2026-04-08T11:52:41.999Z</time></trkpt><trkpt lat="38.14382930556557" lon="15.386418131681356"><ele>303.0</ele><time>2026-04-08T11:52:42.999Z</time></trkpt><trkpt lat="38.14391698387481" lon="15.386441781525816"><ele>303.0</ele><time>2026-04-08T11:52:43.999Z</time></trkpt><trkpt lat="38.14400135673307" lon="15.386441185546367"><ele>303.0</ele><time>2026-04-08T11:52:44.999Z</time></trkpt><trkpt lat="38.144060759236226" lon="15.386381521369948"><ele>303.0</ele><time>2026-04-08T11:52:45.999Z</time></trkpt><trkpt lat="38.144101923601426" lon="15.386296709382975"><ele>305.5</ele><time>2026-04-08T11:52:46.999Z</time></trkpt><trkpt lat="38.144142527338275" lon="15.386182521757767"><ele>308.0</ele><time>2026-04-08T11:52:47.999Z</time></trkpt><trkpt lat="38.14417723967459" lon="15.386086375973926"><ele>310.5</ele><time>2026-04-08T11:52:48.999Z</time></trkpt><trkpt lat="38.14418135897801" lon="15.385991167078618"><ele>313.0</ele><time>2026-04-08T11:52:49.999Z</time></trkpt><trkpt lat="38.14417225261688" lon="15.385875785776253"><ele>315.5</ele><time>2026-04-08T11:52:50.999Z</time></trkpt><trkpt lat="38.144150827385715" lon="15.385767889672623"><ele>318.0</ele><time>2026-04-08T11:52:51.999Z</time></trkpt><trkpt lat="38.14421453576061" lon="15.385615466418473"><ele>318.0</ele><time>2026-04-08T11:52:53.999Z</time></trkpt><trkpt lat="38.144286144244475" lon="15.38554919611329"><ele>318.0</ele><time>2026-04-08T11:52:54.999Z</time></trkpt><trkpt lat="38.14438500461018" lon="15.38550870284529"><ele>318.0</ele><time>2026-04-08T11:52:55.999Z</time></trkpt><trkpt lat="38.14446123942497" lon="15.385437836794953"><ele>318.0</ele><time>2026-04-08T11:52:56.999Z</time></trkpt><trkpt lat="38.144505333640154" lon="15.385319016716139"><ele>318.0</ele><time>2026-04-08T11:52:57.999Z</time></trkpt><trkpt lat="38.14457860704415" lon="15.38521822036673"><ele>316.0</ele><time>2026-04-08T11:52:58.999Z</time></trkpt><trkpt lat="38.14464251654332" lon="15.385087232780577"><ele>314.0</ele><time>2026-04-08T11:52:59.999Z</time></trkpt><trkpt lat="38.14465962493497" lon="15.384950574103067"><ele>312.0</ele><time>2026-04-08T11:53:00.999Z</time></trkpt><trkpt lat="38.14465247542917" lon="15.38482327408802"><ele>310.0</ele><time>2026-04-08T11:53:01.999Z</time></trkpt><trkpt lat="38.144619697537784" lon="15.384697339104632"><ele>308.0</ele><time>2026-04-08T11:53:02.999Z</time></trkpt><trkpt lat="38.14455984053949" lon="15.384573397167664"><ele>307.1666666666667</ele><time>2026-04-08T11:53:03.999Z</time></trkpt><trkpt lat="38.14451795887215" lon="15.38446293140888"><ele>306.33333333333337</ele><time>2026-04-08T11:53:04.999Z</time></trkpt><trkpt lat="38.14451225103831" lon="15.384373845081543"><ele>305.5</ele><time>2026-04-08T11:53:05.999Z</time></trkpt><trkpt lat="38.144568695771355" lon="15.384331229112473"><ele>304.6666666666667</ele><time>2026-04-08T11:53:06.999Z</time></trkpt><trkpt lat="38.14463154600467" lon="15.384304703127077"><ele>303.8333333333333</ele><time>2026-04-08T11:53:08.999Z</time></trkpt><trkpt lat="38.144660685323736" lon="15.38442239964992"><ele>303.0</ele><time>2026-04-08T11:53:10.999Z</time></trkpt><trkpt lat="38.1446208094398" lon="15.384531145332147"><ele>303.0</ele><time>2026-04-08T11:53:11.999Z</time></trkpt><trkpt lat="38.14466778328126" lon="15.38463745261423"><ele>303.0</ele><time>2026-04-08T11:53:12.999Z</time></trkpt><trkpt lat="38.14473799495039" lon="15.384751457906322"><ele>303.0</ele><time>2026-04-08T11:53:13.999Z</time></trkpt><trkpt lat="38.144790398255665" lon="15.384870732603934"><ele>303.0</ele><time>2026-04-08T11:53:14.999Z</time></trkpt><trkpt lat="38.14483636600162" lon="15.384977933601881"><ele>303.0</ele><time>2026-04-08T11:53:15.999Z</time></trkpt><trkpt lat="38.14477904778225" lon="15.385091875631662"><ele>304.0</ele><time>2026-04-08T11:53:16.999Z</time></trkpt><trkpt lat="38.14474565827914" lon="15.385213119396898"><ele>305.0</ele><time>2026-04-08T11:53:17.999Z</time></trkpt><trkpt lat="38.144720114953486" lon="15.385338936926136"><ele>306.0</ele><time>2026-04-08T11:53:18.999Z</time></trkpt><trkpt lat="38.14473889500239" lon="15.385452687706684"><ele>307.0</ele><time>2026-04-08T11:53:19.999Z</time></trkpt><trkpt lat="38.14477435638045" lon="15.385558801767562"><ele>308.0</ele><time>2026-04-08T11:53:20.999Z</time></trkpt><trkpt lat="38.14483725558897" lon="15.385695390400496"><ele>310.5</ele><time>2026-04-08T11:53:21.999Z</time></trkpt><trkpt lat="38.14490706443647" lon="15.385842740844776"><ele>313.0</ele><time>2026-04-08T11:53:22.998Z</time></trkpt><trkpt lat="38.144924984607805" lon="15.386013817172497"><ele>315.5</ele><time>2026-04-08T11:53:23.998Z</time></trkpt><trkpt lat="38.14491778071637" lon="15.386170634238656"><ele>318.0</ele><time>2026-04-08T11:53:24.998Z</time></trkpt><trkpt lat="38.14487664271173" lon="15.386332565276476"><ele>319.8</ele><time>2026-04-08T11:53:25.998Z</time></trkpt><trkpt lat="38.144850026301384" lon="15.386497946558848"><ele>321.6</ele><time>2026-04-08T11:53:26.998Z</time></trkpt><trkpt lat="38.144847534136346" lon="15.386644356008654"><ele>323.40000000000003</ele><time>2026-04-08T11:53:27.998Z</time></trkpt><trkpt lat="38.144899343189344" lon="15.386769376682153"><ele>325.20000000000005</ele><time>2026-04-08T11:53:28.998Z</time></trkpt><trkpt lat="38.14496132396014" lon="15.386851357160971"><ele>327.0</ele><time>2026-04-08T11:53:29.998Z</time></trkpt><trkpt lat="38.14506019323581" lon="15.386906121724993"><ele>335.3333333333333</ele><time>2026-04-08T11:53:30.998Z</time></trkpt><trkpt lat="38.14518129439883" lon="15.386975556186766"><ele>343.66666666666663</ele><time>2026-04-08T11:53:31.998Z</time></trkpt><trkpt lat="38.14532606513761" lon="15.38704890350382"><ele>352.0</ele><time>2026-04-08T11:53:32.998Z</time></trkpt><trkpt lat="38.14549476897755" lon="15.387147504843867"><ele>357.3333333333333</ele><time>2026-04-08T11:53:33.998Z</time></trkpt><trkpt lat="38.14564741902132" lon="15.387233673748757"><ele>362.6666666666667</ele><time>2026-04-08T11:53:34.998Z</time></trkpt><trkpt lat="38.14579912567942" lon="15.387273384606752"><ele>368.0</ele><time>2026-04-08T11:53:35.998Z</time></trkpt><trkpt lat="38.14595555466347" lon="15.387286659208165"><ele>368.4</ele><time>2026-04-08T11:53:36.998Z</time></trkpt><trkpt lat="38.14609673903068" lon="15.387293432700186"><ele>368.79999999999995</ele><time>2026-04-08T11:53:37.998Z</time></trkpt><trkpt lat="38.14622107079689" lon="15.387302785126968"><ele>369.2</ele><time>2026-04-08T11:53:38.998Z</time></trkpt><trkpt lat="38.14631857431029" lon="15.387308994771587"><ele>369.6</ele><time>2026-04-08T11:53:39.998Z</time></trkpt><trkpt lat="38.1463560203486" lon="15.38737787693146"><ele>370.0</ele><time>2026-04-08T11:53:46Z</time></trkpt><trkpt lat="38.146236198427275" lon="15.387418883201475"><ele>370.0</ele><time>2026-04-08T11:53:48Z</time></trkpt><trkpt lat="38.14615271828867" lon="15.387448102358027"><ele>370.0</ele><time>2026-04-08T11:53:49Z</time></trkpt><trkpt lat="38.14608256878884" lon="15.387522275989408"><ele>370.0</ele><time>2026-04-08T11:53:50Z</time></trkpt><trkpt lat="38.146022284148565" lon="15.387637401344668"><ele>370.0</ele><time>2026-04-08T11:53:51Z</time></trkpt><trkpt lat="38.1459530593888" lon="15.387756506068634"><ele>370.0</ele><time>2026-04-08T11:53:52Z</time></trkpt><trkpt lat="38.14590227356968" lon="15.387881403063046"><ele>370.0</ele><time>2026-04-08T11:53:53Z</time></trkpt><trkpt lat="38.145850393492005" lon="15.388008991350972"><ele>370.0</ele><time>2026-04-08T11:53:54Z</time></trkpt><trkpt lat="38.1457926637739" lon="15.388125365952483"><ele>370.0</ele><time>2026-04-08T11:53:55Z</time></trkpt><trkpt lat="38.1457141393662" lon="15.388195011176146"><ele>370.0</ele><time>2026-04-08T11:53:56Z</time></trkpt><trkpt lat="38.14561694618705" lon="15.388268499307035"><ele>370.0</ele><time>2026-04-08T11:53:57Z</time></trkpt><trkpt lat="38.14549620195052" lon="15.388359181203363"><ele>371.75</ele><time>2026-04-08T11:53:58Z</time></trkpt><trkpt lat="38.14538120625614" lon="15.388460221696128"><ele>373.5</ele><time>2026-04-08T11:53:59Z</time></trkpt><trkpt lat="38.14527407976248" lon="15.388570889787873"><ele>375.25</ele><time>2026-04-08T11:54:00Z</time></trkpt><trkpt lat="38.145193584478086" lon="15.388732478554383"><ele>377.0</ele><time>2026-04-08T11:54:01Z</time></trkpt><trkpt lat="38.14510906294041" lon="15.3888885528384"><ele>376.75</ele><time>2026-04-08T11:54:02Z</time></trkpt><trkpt lat="38.145013027927085" lon="15.389038892067884"><ele>376.5</ele><time>2026-04-08T11:54:03Z</time></trkpt><trkpt lat="38.14493206383369" lon="15.389193052343689"><ele>376.25</ele><time>2026-04-08T11:54:04Z</time></trkpt><trkpt lat="38.14485479010763" lon="15.389337977690097"><ele>376.0</ele><time>2026-04-08T11:54:05Z</time></trkpt><trkpt lat="38.144781072105964" lon="15.389469852428796"><ele>376.0</ele><time>2026-04-08T11:54:06Z</time></trkpt><trkpt lat="38.14470031571179" lon="15.389595009795018"><ele>376.0</ele><time>2026-04-08T11:54:07Z</time></trkpt><trkpt lat="38.14461646064176" lon="15.38969287824147"><ele>376.0</ele><time>2026-04-08T11:54:08Z</time></trkpt><trkpt lat="38.14451234937473" lon="15.389741884993464"><ele>376.0</ele><time>2026-04-08T11:54:09Z</time></trkpt><trkpt lat="38.14438260521408" lon="15.389806163586107"><ele>380.3333333333333</ele><time>2026-04-08T11:54:10Z</time></trkpt><trkpt lat="38.14423720294025" lon="15.38987716797909"><ele>384.66666666666663</ele><time>2026-04-08T11:54:11Z</time></trkpt><trkpt lat="38.144077730035576" lon="15.389941223042017"><ele>389.0</ele><time>2026-04-08T11:54:12Z</time></trkpt><trkpt lat="38.14390722292099" lon="15.390019441415529"><ele>389.3333333333333</ele><time>2026-04-08T11:54:13Z</time></trkpt><trkpt lat="38.14374760593726" lon="15.390114949118026"><ele>389.66666666666663</ele><time>2026-04-08T11:54:14Z</time></trkpt><trkpt lat="38.14362815733707" lon="15.39024126731828"><ele>390.0</ele><time>2026-04-08T11:54:15Z</time></trkpt><trkpt lat="38.14350338439586" lon="15.390338799919082"><ele>390.0</ele><time>2026-04-08T11:54:16Z</time></trkpt><trkpt lat="38.14339615262802" lon="15.390444810209862"><ele>390.0</ele><time>2026-04-08T11:54:17Z</time></trkpt><trkpt lat="38.14335533598788" lon="15.390610242775823"><ele>390.0</ele><time>2026-04-08T11:54:18Z</time></trkpt><trkpt lat="38.14330734118847" lon="15.390769134396015"><ele>390.0</ele><time>2026-04-08T11:54:19Z</time></trkpt><trkpt lat="38.143275884378184" lon="15.390953123676129"><ele>396.0</ele><time>2026-04-08T11:54:20Z</time></trkpt><trkpt lat="38.1432470047704" lon="15.391153744414213"><ele>402.0</ele><time>2026-04-08T11:54:21Z</time></trkpt><trkpt lat="38.143226937126" lon="15.391362026312105"><ele>408.0</ele><time>2026-04-08T11:54:22Z</time></trkpt><trkpt lat="38.14322321118308" lon="15.391568774001243"><ele>409.25</ele><time>2026-04-08T11:54:23Z</time></trkpt><trkpt lat="38.14323686274313" lon="15.39174739070176"><ele>410.5</ele><time>2026-04-08T11:54:24Z</time></trkpt><trkpt lat="38.14324241708151" lon="15.391905172364398"><ele>411.75</ele><time>2026-04-08T11:54:25Z</time></trkpt><trkpt lat="38.14320207443286" lon="15.392026538738111"><ele>413.0</ele><time>2026-04-08T11:54:26Z</time></trkpt><trkpt lat="38.1431588625214" lon="15.392152280417271"><ele>415.0</ele><time>2026-04-08T11:54:27Z</time></trkpt><trkpt lat="38.14310016483689" lon="15.392269714700959"><ele>417.0</ele><time>2026-04-08T11:54:28Z</time></trkpt><trkpt lat="38.143018619275246" lon="15.392378264750288"><ele>419.0</ele><time>2026-04-08T11:54:29Z</time></trkpt><trkpt lat="38.14293222979834" lon="15.392466757982806"><ele>421.0</ele><time>2026-04-08T11:54:29.999Z</time></trkpt><trkpt lat="38.142847358486044" lon="15.392542975907409"><ele>423.0</ele><time>2026-04-08T11:54:30.999Z</time></trkpt><trkpt lat="38.14276307076208" lon="15.392607961366794"><ele>423.0</ele><time>2026-04-08T11:54:31.999Z</time></trkpt><trkpt lat="38.14268696949681" lon="15.392636311454252"><ele>423.0</ele><time>2026-04-08T11:54:32.999Z</time></trkpt><trkpt lat="38.142619445436544" lon="15.392606464806793"><ele>423.0</ele><time>2026-04-08T11:54:33.999Z</time></trkpt><trkpt lat="38.14256198643268" lon="15.392527935134302"><ele>423.0</ele><time>2026-04-08T11:54:34.999Z</time></trkpt><trkpt lat="38.14247103160548" lon="15.392450308177171"><ele>423.0</ele><time>2026-04-08T11:54:35.999Z</time></trkpt><trkpt lat="38.14236673389486" lon="15.392407338110903"><ele>426.5</ele><time>2026-04-08T11:54:36.999Z</time></trkpt><trkpt lat="38.14225499191683" lon="15.392426751287061"><ele>430.0</ele><time>2026-04-08T11:54:37.999Z</time></trkpt><trkpt lat="38.14215355416415" lon="15.392516948529433"><ele>433.5</ele><time>2026-04-08T11:54:38.999Z</time></trkpt><trkpt lat="38.14204822556178" lon="15.392623509934747"><ele>437.0</ele><time>2026-04-08T11:54:39.999Z</time></trkpt><trkpt lat="38.14192676283626" lon="15.392762486436366"><ele>437.0</ele><time>2026-04-08T11:54:40.999Z</time></trkpt><trkpt lat="38.14180416096937" lon="15.392903025567442"><ele>437.0</ele><time>2026-04-08T11:54:41.999Z</time></trkpt><trkpt lat="38.14169523179022" lon="15.393042197969761"><ele>437.0</ele><time>2026-04-08T11:54:42.999Z</time></trkpt><trkpt lat="38.14160497524028" lon="15.393181353491954"><ele>431.8</ele><time>2026-04-08T11:54:43.999Z</time></trkpt><trkpt lat="38.14154372160068" lon="15.393301891342913"><ele>426.6</ele><time>2026-04-08T11:54:44.999Z</time></trkpt><trkpt lat="38.14148544057462" lon="15.393428892527641"><ele>421.40000000000003</ele><time>2026-04-08T11:54:45.999Z</time></trkpt><trkpt lat="38.14143597208717" lon="15.393530929095881"><ele>416.20000000000005</ele><time>2026-04-08T11:54:46.999Z</time></trkpt><trkpt lat="38.14137894551797" lon="15.393595975397286"><ele>411.0</ele><time>2026-04-08T11:54:47.999Z</time></trkpt><trkpt lat="38.141286603884794" lon="15.39361031528513"><ele>411.0</ele><time>2026-04-08T11:54:48.999Z</time></trkpt><trkpt lat="38.14118672872492" lon="15.393661132326065"><ele>411.0</ele><time>2026-04-08T11:54:49.999Z</time></trkpt><trkpt lat="38.14112616954587" lon="15.393818164267586"><ele>411.0</ele><time>2026-04-08T11:54:50.999Z</time></trkpt><trkpt lat="38.14107557824924" lon="15.393946716838714"><ele>411.0</ele><time>2026-04-08T11:54:51.999Z</time></trkpt><trkpt lat="38.1410309243527" lon="15.394088661981273"><ele>410.8</ele><time>2026-04-08T11:54:52.999Z</time></trkpt><trkpt lat="38.14098590630268" lon="15.394247944583482"><ele>410.6</ele><time>2026-04-08T11:54:53.999Z</time></trkpt><trkpt lat="38.14094069470392" lon="15.394388459437634"><ele>410.4</ele><time>2026-04-08T11:54:54.999Z</time></trkpt><trkpt lat="38.140900619027605" lon="15.394502940065935"><ele>410.2</ele><time>2026-04-08T11:54:55.999Z</time></trkpt><trkpt lat="38.14087632938748" lon="15.394606372792627"><ele>410.0</ele><time>2026-04-08T11:54:56.999Z</time></trkpt><trkpt lat="38.14085848704195" lon="15.394704260038987"><ele>412.0</ele><time>2026-04-08T11:54:57.999Z</time></trkpt><trkpt lat="38.14083151971301" lon="15.394812218984457"><ele>414.0</ele><time>2026-04-08T11:54:58.999Z</time></trkpt><trkpt lat="38.14080531291732" lon="15.394926738875217"><ele>416.0</ele><time>2026-04-08T11:54:59.999Z</time></trkpt><trkpt lat="38.14076902763515" lon="15.39505698646457"><ele>418.0</ele><time>2026-04-08T11:55:00.999Z</time></trkpt><trkpt lat="38.1407395341138" lon="15.395194411508985"><ele>420.0</ele><time>2026-04-08T11:55:01.999Z</time></trkpt><trkpt lat="38.14076123196907" lon="15.395308983938161"><ele>420.0</ele><time>2026-04-08T11:55:02.999Z</time></trkpt><trkpt lat="38.14075762979148" lon="15.395425440460947"><ele>420.0</ele><time>2026-04-08T11:55:03.999Z</time></trkpt><trkpt lat="38.140734561355245" lon="15.395535274771248"><ele>420.0</ele><time>2026-04-08T11:55:04.999Z</time></trkpt><trkpt lat="38.1406684914577" lon="15.395627467605575"><ele>420.0</ele><time>2026-04-08T11:55:05.999Z</time></trkpt><trkpt lat="38.140588999747074" lon="15.395717179263043"><ele>420.0</ele><time>2026-04-08T11:55:06.999Z</time></trkpt><trkpt lat="38.140509615814096" lon="15.395832142361062"><ele>415.4</ele><time>2026-04-08T11:55:07.999Z</time></trkpt><trkpt lat="38.140416087693644" lon="15.395921250279905"><ele>410.8</ele><time>2026-04-08T11:55:08.999Z</time></trkpt><trkpt lat="38.14034117760697" lon="15.396004476244798"><ele>406.20000000000005</ele><time>2026-04-08T11:55:09.999Z</time></trkpt><trkpt lat="38.14026565270238" lon="15.39605664951337"><ele>401.6</ele><time>2026-04-08T11:55:10.999Z</time></trkpt><trkpt lat="38.14020701113374" lon="15.396132606794158"><ele>397.0</ele><time>2026-04-08T11:55:11.999Z</time></trkpt><trkpt lat="38.140174134478706" lon="15.39622805764582"><ele>397.0</ele><time>2026-04-08T11:55:12.999Z</time></trkpt><trkpt lat="38.14014603475034" lon="15.39631649039251"><ele>397.0</ele><time>2026-04-08T11:55:13.999Z</time></trkpt><trkpt lat="38.14015448182327" lon="15.396471288217468"><ele>397.0</ele><time>2026-04-08T11:55:14.999Z</time></trkpt><trkpt lat="38.140164676906025" lon="15.396610628726895"><ele>397.0</ele><time>2026-04-08T11:55:15.999Z</time></trkpt><trkpt lat="38.140148015288055" lon="15.396733621996958"><ele>397.0</ele><time>2026-04-08T11:55:16.999Z</time></trkpt><trkpt lat="38.14014205327654" lon="15.396845228241148"><ele>398.33333333333337</ele><time>2026-04-08T11:55:17.999Z</time></trkpt><trkpt lat="38.14012375368632" lon="15.396950067342964"><ele>399.6666666666667</ele><time>2026-04-08T11:55:18.999Z</time></trkpt><trkpt lat="38.140083586531624" lon="15.397027192376061"><ele>401.0</ele><time>2026-04-08T11:55:19.999Z</time></trkpt><trkpt lat="38.140030060981495" lon="15.397094608322972"><ele>402.33333333333337</ele><time>2026-04-08T11:55:20.999Z</time></trkpt><trkpt lat="38.1399574401655" lon="15.397101595506902"><ele>403.6666666666667</ele><time>2026-04-08T11:55:21.999Z</time></trkpt><trkpt lat="38.13987664578806" lon="15.397083827563161"><ele>405.0</ele><time>2026-04-08T11:55:22.999Z</time></trkpt><trkpt lat="38.139772850357424" lon="15.397048874845146"><ele>405.0</ele><time>2026-04-08T11:55:23.999Z</time></trkpt><trkpt lat="38.13965249165946" lon="15.397038097170576"><ele>405.0</ele><time>2026-04-08T11:55:24.999Z</time></trkpt><trkpt lat="38.13953298882536" lon="15.3970756514072"><ele>405.0</ele><time>2026-04-08T11:55:25.999Z</time></trkpt><trkpt lat="38.13940446397061" lon="15.397147893816"><ele>405.0</ele><time>2026-04-08T11:55:26.999Z</time></trkpt><trkpt lat="38.13927231003215" lon="15.397261472891158"><ele>411.66666666666663</ele><time>2026-04-08T11:55:27.998Z</time></trkpt><trkpt lat="38.139162116508516" lon="15.397378213085622"><ele>418.3333333333333</ele><time>2026-04-08T11:55:28.998Z</time></trkpt><trkpt lat="38.13905757744281" lon="15.39750201055558"><ele>425.0</ele><time>2026-04-08T11:55:29.998Z</time></trkpt><trkpt lat="38.13896357478955" lon="15.397680309831125"><ele>425.0</ele><time>2026-04-08T11:55:30.998Z</time></trkpt><trkpt lat="38.13885751722312" lon="15.397872945419422"><ele>425.0</ele><time>2026-04-08T11:55:31.998Z</time></trkpt><trkpt lat="38.13874350243284" lon="15.39809316351285"><ele>425.0</ele><time>2026-04-08T11:55:32.998Z</time></trkpt><trkpt lat="38.13861521947793" lon="15.398292613914657"><ele>429.0</ele><time>2026-04-08T11:55:33.998Z</time></trkpt><trkpt lat="38.13854749312442" lon="15.39849923963574"><ele>433.0</ele><time>2026-04-08T11:55:34.998Z</time></trkpt><trkpt lat="38.13846079145321" lon="15.398709476290696"><ele>437.0</ele><time>2026-04-08T11:55:35.998Z</time></trkpt><trkpt lat="38.13837303690935" lon="15.398899003733895"><ele>435.75</ele><time>2026-04-08T11:55:36.998Z</time></trkpt><trkpt lat="38.13827461327786" lon="15.39905136782399"><ele>434.5</ele><time>2026-04-08T11:55:37.998Z</time></trkpt><trkpt lat="38.13813232317737" lon="15.39910154953113"><ele>433.25</ele><time>2026-04-08T11:55:38.998Z</time></trkpt><trkpt lat="38.13802878115029" lon="15.399195595712571"><ele>432.0</ele><time>2026-04-08T11:55:39.998Z</time></trkpt><trkpt lat="38.13792861043172" lon="15.39930002196821"><ele>432.0</ele><time>2026-04-08T11:55:40.998Z</time></trkpt><trkpt lat="38.13787022103767" lon="15.399439380661686"><ele>432.0</ele><time>2026-04-08T11:55:41.998Z</time></trkpt><trkpt lat="38.13782672932078" lon="15.39961226935258"><ele>432.0</ele><time>2026-04-08T11:55:42.998Z</time></trkpt><trkpt lat="38.13779204559241" lon="15.399795780517069"><ele>432.0</ele><time>2026-04-08T11:55:43.998Z</time></trkpt><trkpt lat="38.137749144996164" lon="15.399990576023942"><ele>439.0</ele><time>2026-04-08T11:55:44.998Z</time></trkpt><trkpt lat="38.13770249466501" lon="15.400194791918645"><ele>446.0</ele><time>2026-04-08T11:55:45.998Z</time></trkpt><trkpt lat="38.137652085168114" lon="15.400396320632884"><ele>453.0</ele><time>2026-04-08T11:55:46.998Z</time></trkpt><trkpt lat="38.13756586511157" lon="15.400563497921427"><ele>455.0</ele><time>2026-04-08T11:55:47.998Z</time></trkpt><trkpt lat="38.13751462941887" lon="15.400724068648959"><ele>457.0</ele><time>2026-04-08T11:55:49Z</time></trkpt><trkpt lat="38.137480960328084" lon="15.400880540225765"><ele>459.0</ele><time>2026-04-08T11:55:50Z</time></trkpt><trkpt lat="38.13748434364789" lon="15.401052838113158"><ele>461.0</ele><time>2026-04-08T11:55:51Z</time></trkpt><trkpt lat="38.13748789907406" lon="15.401237274634365"><ele>458.0</ele><time>2026-04-08T11:55:52Z</time></trkpt><trkpt lat="38.137463723975834" lon="15.401421238049139"><ele>455.0</ele><time>2026-04-08T11:55:53Z</time></trkpt><trkpt lat="38.13741536677677" lon="15.4016000321604"><ele>452.0</ele><time>2026-04-08T11:55:54Z</time></trkpt><trkpt lat="38.13734901719758" lon="15.401769676847897"><ele>449.0</ele><time>2026-04-08T11:55:55Z</time></trkpt><trkpt lat="38.13725319182757" lon="15.401940096041132"><ele>449.0</ele><time>2026-04-08T11:55:56Z</time></trkpt><trkpt lat="38.13711693763974" lon="15.402072567936253"><ele>449.0</ele><time>2026-04-08T11:55:57Z</time></trkpt><trkpt lat="38.136998853274214" lon="15.402248435134585"><ele>449.0</ele><time>2026-04-08T11:55:58Z</time></trkpt><trkpt lat="38.13689203090988" lon="15.402413266721048"><ele>459.0</ele><time>2026-04-08T11:55:59Z</time></trkpt><trkpt lat="38.136813333122866" lon="15.402601372065021"><ele>469.0</ele><time>2026-04-08T11:56:00Z</time></trkpt><trkpt lat="38.13675741990989" lon="15.402797723997123"><ele>479.0</ele><time>2026-04-08T11:56:01Z</time></trkpt><trkpt lat="38.136707412179554" lon="15.402972671730698"><ele>477.6</ele><time>2026-04-08T11:56:02Z</time></trkpt><trkpt lat="38.136654553251006" lon="15.403113006111164"><ele>476.2</ele><time>2026-04-08T11:56:03Z</time></trkpt><trkpt lat="38.13660073902095" lon="15.403214171166638"><ele>474.80000000000007</ele><time>2026-04-08T11:56:04Z</time></trkpt><trkpt lat="38.13655519390545" lon="15.403293864849935"><ele>473.40000000000003</ele><time>2026-04-08T11:56:05Z</time></trkpt><trkpt lat="38.13650428788267" lon="15.40337943019043"><ele>472.0</ele><time>2026-04-08T11:56:07Z</time></trkpt><trkpt lat="38.136432920447064" lon="15.403448104257484"><ele>472.0</ele><time>2026-04-08T11:56:09Z</time></trkpt><trkpt lat="38.136372684943105" lon="15.4034910301674"><ele>472.00000000000006</ele><time>2026-04-08T11:56:10Z</time></trkpt><trkpt lat="38.13629929920607" lon="15.403541835712977"><ele>472.00000000000006</ele><time>2026-04-08T11:56:11Z</time></trkpt><trkpt lat="38.136213947131715" lon="15.40360103484139"><ele>472.0</ele><time>2026-04-08T11:56:12Z</time></trkpt><trkpt lat="38.13611749316656" lon="15.403669162170692"><ele>472.0</ele><time>2026-04-08T11:56:13Z</time></trkpt><trkpt lat="38.136017257726195" lon="15.403756115838327"><ele>478.0</ele><time>2026-04-08T11:56:14Z</time></trkpt><trkpt lat="38.13590931220516" lon="15.403836916018477"><ele>484.0</ele><time>2026-04-08T11:56:15Z</time></trkpt><trkpt lat="38.13579278337433" lon="15.403884475908853"><ele>490.0</ele><time>2026-04-08T11:56:16Z</time></trkpt><trkpt lat="38.13567509825505" lon="15.403919315150851"><ele>496.0</ele><time>2026-04-08T11:56:17Z</time></trkpt><trkpt lat="38.13554842223342" lon="15.403941391494008"><ele>496.0</ele><time>2026-04-08T11:56:18Z</time></trkpt><trkpt lat="38.13543647113285" lon="15.40395181168623"><ele>496.0</ele><time>2026-04-08T11:56:19Z</time></trkpt><trkpt lat="38.13531728732686" lon="15.403982371194532"><ele>496.0</ele><time>2026-04-08T11:56:20Z</time></trkpt><trkpt lat="38.13519379652953" lon="15.404029909827349"><ele>496.0</ele><time>2026-04-08T11:56:21Z</time></trkpt><trkpt lat="38.13507288806001" lon="15.404083802519827"><ele>496.0</ele><time>2026-04-08T11:56:22Z</time></trkpt><trkpt lat="38.13496844438974" lon="15.40413052149969"><ele>496.0</ele><time>2026-04-08T11:56:23Z</time></trkpt><trkpt lat="38.134885392413345" lon="15.404202914226708"><ele>496.0</ele><time>2026-04-08T11:56:24Z</time></trkpt><trkpt lat="38.13482237053421" lon="15.404312415298385"><ele>496.0</ele><time>2026-04-08T11:56:25Z</time></trkpt><trkpt lat="38.13475030997242" lon="15.404434195609962"><ele>496.0</ele><time>2026-04-08T11:56:26Z</time></trkpt><trkpt lat="38.13468156975414" lon="15.4045708332352"><ele>497.4</ele><time>2026-04-08T11:56:27Z</time></trkpt><trkpt lat="38.13462639806507" lon="15.404696430297976"><ele>498.8</ele><time>2026-04-08T11:56:28Z</time></trkpt><trkpt lat="38.13456517065451" lon="15.404792704138767"><ele>500.19999999999993</ele><time>2026-04-08T11:56:29Z</time></trkpt><trkpt lat="38.134496804350206" lon="15.404811732545214"><ele>501.59999999999997</ele><time>2026-04-08T11:56:30Z</time></trkpt><trkpt lat="38.13442190848644" lon="15.404754434660168"><ele>503.0</ele><time>2026-04-08T11:56:31Z</time></trkpt><trkpt lat="38.13431215764735" lon="15.40472912313441"><ele>503.0</ele><time>2026-04-08T11:56:32Z</time></trkpt><trkpt lat="38.134208799168114" lon="15.404743605782725"><ele>502.99999999999994</ele><time>2026-04-08T11:56:33Z</time></trkpt><trkpt lat="38.134144947509796" lon="15.404814323924496"><ele>502.99999999999994</ele><time>2026-04-08T11:56:33.999Z</time></trkpt><trkpt lat="38.13412561296716" lon="15.40490733503126"><ele>503.0</ele><time>2026-04-08T11:56:34.999Z</time></trkpt><trkpt lat="38.13412415546497" lon="15.405050293437393"><ele>503.0</ele><time>2026-04-08T11:56:35.999Z</time></trkpt><trkpt lat="38.13412142738862" lon="15.405223234075406"><ele>497.75</ele><time>2026-04-08T11:56:36.999Z</time></trkpt><trkpt lat="38.13405278341455" lon="15.40537366374737"><ele>492.5</ele><time>2026-04-08T11:56:37.999Z</time></trkpt><trkpt lat="38.13399589141915" lon="15.405535816352963"><ele>487.25</ele><time>2026-04-08T11:56:38.999Z</time></trkpt><trkpt lat="38.1339661217924" lon="15.405695763515906"><ele>482.0</ele><time>2026-04-08T11:56:39.999Z</time></trkpt><trkpt lat="38.13394474926136" lon="15.405826477704547"><ele>482.0</ele><time>2026-04-08T11:56:40.999Z</time></trkpt><trkpt lat="38.13393208198984" lon="15.40598125714938"><ele>482.00000000000006</ele><time>2026-04-08T11:56:41.999Z</time></trkpt><trkpt lat="38.13387679779413" lon="15.406094566075382"><ele>482.00000000000006</ele><time>2026-04-08T11:56:42.999Z</time></trkpt><trkpt lat="38.133823975417044" lon="15.40620605975525"><ele>482.0</ele><time>2026-04-08T11:56:43.999Z</time></trkpt><trkpt lat="38.13376014517634" lon="15.406286162414782"><ele>482.0</ele><time>2026-04-08T11:56:44.999Z</time></trkpt><trkpt lat="38.13365493141528" lon="15.40628234990411"><ele>482.0</ele><time>2026-04-08T11:56:45.999Z</time></trkpt><trkpt lat="38.13356071872615" lon="15.40625826137539"><ele>482.0</ele><time>2026-04-08T11:56:46.999Z</time></trkpt><trkpt lat="38.13346257030472" lon="15.40619246903652"><ele>482.0</ele><time>2026-04-08T11:56:47.999Z</time></trkpt><trkpt lat="38.13331980868465" lon="15.406128826382679"><ele>482.0</ele><time>2026-04-08T11:56:48.999Z</time></trkpt><trkpt lat="38.13314843195846" lon="15.406047129322523"><ele>476.5</ele><time>2026-04-08T11:56:49.999Z</time></trkpt><trkpt lat="38.132996032960165" lon="15.405978996408804"><ele>471.0</ele><time>2026-04-08T11:56:50.999Z</time></trkpt><trkpt lat="38.132906566384" lon="15.40597567628048"><ele>465.5</ele><time>2026-04-08T11:56:51.999Z</time></trkpt><trkpt lat="38.13279655894063" lon="15.40605091302253"><ele>460.0</ele><time>2026-04-08T11:56:53.999Z</time></trkpt><trkpt lat="38.13270548835755" lon="15.406156021970562"><ele>460.0</ele><time>2026-04-08T11:56:54.999Z</time></trkpt><trkpt lat="38.13260740797178" lon="15.406278735050039"><ele>460.0</ele><time>2026-04-08T11:56:55.999Z</time></trkpt><trkpt lat="38.132542611106864" lon="15.406371151829308"><ele>460.0</ele><time>2026-04-08T11:56:56.999Z</time></trkpt><trkpt lat="38.13255029157843" lon="15.406508646845666"><ele>460.0</ele><time>2026-04-08T11:56:58.999Z</time></trkpt><trkpt lat="38.13257691062193" lon="15.406633107598253"><ele>460.0</ele><time>2026-04-08T11:56:59.999Z</time></trkpt><trkpt lat="38.13254817746943" lon="15.406776430746152"><ele>466.75</ele><time>2026-04-08T11:57:00.999Z</time></trkpt><trkpt lat="38.13252159100639" lon="15.406940785929123"><ele>473.5</ele><time>2026-04-08T11:57:01.999Z</time></trkpt><trkpt lat="38.132513640335034" lon="15.40711148524594"><ele>480.25</ele><time>2026-04-08T11:57:02.999Z</time></trkpt><trkpt lat="38.13251549201616" lon="15.4072572502761"><ele>487.0</ele><time>2026-04-08T11:57:03.999Z</time></trkpt><trkpt lat="38.132467494319144" lon="15.40735031135515"><ele>489.0</ele><time>2026-04-08T11:57:04.999Z</time></trkpt><trkpt lat="38.13239159619294" lon="15.407399703634832"><ele>491.00000000000006</ele><time>2026-04-08T11:57:05.999Z</time></trkpt><trkpt lat="38.132319406412115" lon="15.40740654729291"><ele>493.00000000000006</ele><time>2026-04-08T11:57:06.999Z</time></trkpt><trkpt lat="38.132227283391416" lon="15.40737240101939"><ele>495.0</ele><time>2026-04-08T11:57:07.999Z</time></trkpt><trkpt lat="38.13206644425968" lon="15.407347732204544"><ele>497.0</ele><time>2026-04-08T11:57:08.999Z</time></trkpt><trkpt lat="38.13189745965508" lon="15.407318662004142"><ele>497.0</ele><time>2026-04-08T11:57:09.999Z</time></trkpt><trkpt lat="38.13173640199063" lon="15.40728585565435"><ele>497.0</ele><time>2026-04-08T11:57:10.999Z</time></trkpt><trkpt lat="38.13158409008802" lon="15.4072838472777"><ele>497.0</ele><time>2026-04-08T11:57:11.999Z</time></trkpt><trkpt lat="38.13142213169431" lon="15.407290664721529"><ele>491.25</ele><time>2026-04-08T11:57:12.999Z</time></trkpt><trkpt lat="38.131298629222485" lon="15.407239183554898"><ele>485.5</ele><time>2026-04-08T11:57:13.999Z</time></trkpt><trkpt lat="38.13118378923438" lon="15.407231307855312"><ele>479.75</ele><time>2026-04-08T11:57:14.999Z</time></trkpt><trkpt lat="38.13108517412007" lon="15.407238337352673"><ele>474.0</ele><time>2026-04-08T11:57:15.999Z</time></trkpt><trkpt lat="38.13104624658076" lon="15.407398771799219"><ele>474.0</ele><time>2026-04-08T11:57:17.999Z</time></trkpt><trkpt lat="38.13103634723276" lon="15.407534166612988"><ele>474.0</ele><time>2026-04-08T11:57:18.999Z</time></trkpt><trkpt lat="38.13101029980895" lon="15.407635483873227"><ele>474.0</ele><time>2026-04-08T11:57:19.999Z</time></trkpt><trkpt lat="38.1309280515441" lon="15.407688121733388"><ele>474.0</ele><time>2026-04-08T11:57:20.999Z</time></trkpt><trkpt lat="38.13085635069159" lon="15.407808635324017"><ele>474.0</ele><time>2026-04-08T11:57:21.999Z</time></trkpt><trkpt lat="38.13085552158103" lon="15.407934248484384"><ele>479.79999999999995</ele><time>2026-04-08T11:57:22.999Z</time></trkpt><trkpt lat="38.130870850883404" lon="15.408063874334928"><ele>485.59999999999997</ele><time>2026-04-08T11:57:23.999Z</time></trkpt><trkpt lat="38.1308809266669" lon="15.408239079474866"><ele>491.4</ele><time>2026-04-08T11:57:24.999Z</time></trkpt><trkpt lat="38.1308737859785" lon="15.408376868715411"><ele>497.2</ele><time>2026-04-08T11:57:25.999Z</time></trkpt><trkpt lat="38.13083360305877" lon="15.40846411462972"><ele>503.0</ele><time>2026-04-08T11:57:26.999Z</time></trkpt><trkpt lat="38.13077750680948" lon="15.408528735140301"><ele>501.79999999999995</ele><time>2026-04-08T11:57:27.999Z</time></trkpt><trkpt lat="38.13068140370295" lon="15.408538405148835"><ele>500.59999999999997</ele><time>2026-04-08T11:57:28.999Z</time></trkpt><trkpt lat="38.13058503152707" lon="15.408603877253258"><ele>499.40000000000003</ele><time>2026-04-08T11:57:29.999Z</time></trkpt><trkpt lat="38.13049617924339" lon="15.408669932843406"><ele>498.20000000000005</ele><time>2026-04-08T11:57:30.998Z</time></trkpt><trkpt lat="38.13044862304991" lon="15.40875580739377"><ele>497.0</ele><time>2026-04-08T11:57:31.998Z</time></trkpt><trkpt lat="38.13042688750613" lon="15.408868321936172"><ele>497.0</ele><time>2026-04-08T11:57:32.998Z</time></trkpt><trkpt lat="38.13040995006687" lon="15.408991967271616"><ele>497.00000000000006</ele><time>2026-04-08T11:57:33.998Z</time></trkpt><trkpt lat="38.13037389232349" lon="15.40910586689917"><ele>497.00000000000006</ele><time>2026-04-08T11:57:34.998Z</time></trkpt><trkpt lat="38.130287137326484" lon="15.40914680354861"><ele>497.0</ele><time>2026-04-08T11:57:35.998Z</time></trkpt><trkpt lat="38.13023669223437" lon="15.409236840363041"><ele>497.0</ele><time>2026-04-08T11:57:36.998Z</time></trkpt><trkpt lat="38.13019191453209" lon="15.40933985296735"><ele>497.0</ele><time>2026-04-08T11:57:37.998Z</time></trkpt><trkpt lat="38.13015105561434" lon="15.40950905842631"><ele>497.0</ele><time>2026-04-08T11:57:46.998Z</time></trkpt><trkpt lat="38.13009753864524" lon="15.409627917079899"><ele>497.0</ele><time>2026-04-08T11:57:47.998Z</time></trkpt><trkpt lat="38.13006849598632" lon="15.409765151077014"><ele>497.0</ele><time>2026-04-08T11:57:48.998Z</time></trkpt><trkpt lat="38.13003227164442" lon="15.409909277363214"><ele>499.66666666666663</ele><time>2026-04-08T11:57:49.998Z</time></trkpt><trkpt lat="38.130007960402445" lon="15.41003000286315"><ele>502.3333333333333</ele><time>2026-04-08T11:57:50.998Z</time></trkpt><trkpt lat="38.129998357902366" lon="15.41012210032316"><ele>505.0</ele><time>2026-04-08T11:57:51.998Z</time></trkpt><trkpt lat="38.13004591544227" lon="15.410180382828168"><ele>507.66666666666663</ele><time>2026-04-08T11:57:52.998Z</time></trkpt><trkpt lat="38.130115715867575" lon="15.41023177366164"><ele>510.3333333333333</ele><time>2026-04-08T11:57:54Z</time></trkpt><trkpt lat="38.13020907742268" lon="15.41029382729117"><ele>513.0</ele><time>2026-04-08T11:57:55Z</time></trkpt><trkpt lat="38.13031756988217" lon="15.410387225978145"><ele>511.25</ele><time>2026-04-08T11:57:56Z</time></trkpt><trkpt lat="38.13043248230181" lon="15.41049879954389"><ele>509.5</ele><time>2026-04-08T11:57:57Z</time></trkpt><trkpt lat="38.130532445992436" lon="15.410614713628974"><ele>507.75</ele><time>2026-04-08T11:57:58Z</time></trkpt><trkpt lat="38.13062342626144" lon="15.41074439704779"><ele>506.0</ele><time>2026-04-08T11:57:59Z</time></trkpt><trkpt lat="38.13070607511334" lon="15.410872096151778"><ele>516.5</ele><time>2026-04-08T11:58:00Z</time></trkpt><trkpt lat="38.13076891569008" lon="15.410999458536926"><ele>527.0</ele><time>2026-04-08T11:58:01Z</time></trkpt><trkpt lat="38.13082426585188" lon="15.411089295893017"><ele>537.5</ele><time>2026-04-08T11:58:02Z</time></trkpt><trkpt lat="38.13091746692259" lon="15.411187037924764"><ele>548.0</ele><time>2026-04-08T11:58:03Z</time></trkpt><trkpt lat="38.13102811456006" lon="15.411280770924328"><ele>542.6666666666666</ele><time>2026-04-08T11:58:04Z</time></trkpt><trkpt lat="38.131151014997876" lon="15.411401482709703"><ele>537.3333333333334</ele><time>2026-04-08T11:58:05Z</time></trkpt><trkpt lat="38.13126912342209" lon="15.411526786738412"><ele>532.0</ele><time>2026-04-08T11:58:06Z</time></trkpt><trkpt lat="38.13138803133275" lon="15.41164812008462"><ele>532.0</ele><time>2026-04-08T11:58:07Z</time></trkpt><trkpt lat="38.13149261020394" lon="15.41175471564911"><ele>532.0</ele><time>2026-04-08T11:58:08Z</time></trkpt><trkpt lat="38.131580379981486" lon="15.411855408617038"><ele>532.0</ele><time>2026-04-08T11:58:09Z</time></trkpt><trkpt lat="38.131657202841126" lon="15.41193292452941"><ele>532.0</ele><time>2026-04-08T11:58:10Z</time></trkpt><trkpt lat="38.131735528672266" lon="15.41202019097382"><ele>537.4</ele><time>2026-04-08T11:58:11Z</time></trkpt><trkpt lat="38.131776568686746" lon="15.412114507608269"><ele>542.8000000000001</ele><time>2026-04-08T11:58:12Z</time></trkpt><trkpt lat="38.13178182103887" lon="15.412230702449152"><ele>548.2</ele><time>2026-04-08T11:58:13Z</time></trkpt><trkpt lat="38.13174558148544" lon="15.412331791916683"><ele>553.6</ele><time>2026-04-08T11:58:14Z</time></trkpt><trkpt lat="38.13167153506352" lon="15.412406828248232"><ele>559.0</ele><time>2026-04-08T11:58:15Z</time></trkpt><trkpt lat="38.13157302210454" lon="15.412448279042906"><ele>558.5</ele><time>2026-04-08T11:58:16Z</time></trkpt><trkpt lat="38.13147303351351" lon="15.41247728837103"><ele>558.0</ele><time>2026-04-08T11:58:17Z</time></trkpt><trkpt lat="38.13144978116332" lon="15.412583816800431"><ele>557.5</ele><time>2026-04-08T11:58:19Z</time></trkpt><trkpt lat="38.13143201939055" lon="15.412679498407785"><ele>557.0</ele><time>2026-04-08T11:58:20Z</time></trkpt><trkpt lat="38.131409482283004" lon="15.412776192606382"><ele>556.5</ele><time>2026-04-08T11:58:21Z</time></trkpt><trkpt lat="38.13136271116161" lon="15.412873376465162"><ele>556.0</ele><time>2026-04-08T11:58:22Z</time></trkpt><trkpt lat="38.1312973380052" lon="15.412961325247435"><ele>560.0</ele><time>2026-04-08T11:58:23Z</time></trkpt><trkpt lat="38.131205249790355" lon="15.413082147958141"><ele>564.0</ele><time>2026-04-08T11:58:24Z</time></trkpt><trkpt lat="38.13112783309977" lon="15.413198149718239"><ele>568.0</ele><time>2026-04-08T11:58:25Z</time></trkpt><trkpt lat="38.13105664535262" lon="15.413306182093818"><ele>572.0</ele><time>2026-04-08T11:58:26Z</time></trkpt><trkpt lat="38.13098020857857" lon="15.413418301006715"><ele>572.0</ele><time>2026-04-08T11:58:27Z</time></trkpt><trkpt lat="38.130897357777656" lon="15.413500742343023"><ele>572.0</ele><time>2026-04-08T11:58:28Z</time></trkpt><trkpt lat="38.13083514501508" lon="15.41357740640791"><ele>572.0</ele><time>2026-04-08T11:58:29Z</time></trkpt><trkpt lat="38.1307969081908" lon="15.413687850322399"><ele>572.0</ele><time>2026-04-08T11:58:30Z</time></trkpt><trkpt lat="38.1307650034266" lon="15.41382715252355"><ele>572.0</ele><time>2026-04-08T11:58:31Z</time></trkpt><trkpt lat="38.130703692934" lon="15.413964964164451"><ele>566.75</ele><time>2026-04-08T11:58:32Z</time></trkpt><trkpt lat="38.13063469949148" lon="15.414086704862541"><ele>561.5</ele><time>2026-04-08T11:58:33Z</time></trkpt><trkpt lat="38.13054270402456" lon="15.414179325544946"><ele>556.25</ele><time>2026-04-08T11:58:34Z</time></trkpt><trkpt lat="38.130443309339235" lon="15.414251048069554"><ele>551.0</ele><time>2026-04-08T11:58:35Z</time></trkpt><trkpt lat="38.13034699073026" lon="15.414306742627101"><ele>551.0</ele><time>2026-04-08T11:58:36Z</time></trkpt><trkpt lat="38.13025134790984" lon="15.414380670763215"><ele>551.0</ele><time>2026-04-08T11:58:37Z</time></trkpt><trkpt lat="38.130182219605395" lon="15.414462777876969"><ele>551.0</ele><time>2026-04-08T11:58:38Z</time></trkpt><trkpt lat="38.13010662399667" lon="15.414555340482632"><ele>551.0</ele><time>2026-04-08T11:58:38.999Z</time></trkpt><trkpt lat="38.13004319392819" lon="15.414641418913947"><ele>551.0</ele><time>2026-04-08T11:58:39.999Z</time></trkpt><trkpt lat="38.12997685594064" lon="15.414728878196462"><ele>551.2</ele><time>2026-04-08T11:58:40.999Z</time></trkpt><trkpt lat="38.12991640749227" lon="15.414798363377075"><ele>551.4000000000001</ele><time>2026-04-08T11:58:41.999Z</time></trkpt><trkpt lat="38.12981709563287" lon="15.414830020904336"><ele>551.6</ele><time>2026-04-08T11:58:42.999Z</time></trkpt><trkpt lat="38.12971538580913" lon="15.414840450068095"><ele>551.8000000000001</ele><time>2026-04-08T11:58:43.999Z</time></trkpt><trkpt lat="38.12964536703017" lon="15.414855949502538"><ele>552.0</ele><time>2026-04-08T11:58:44.999Z</time></trkpt><trkpt lat="38.129559093945396" lon="15.414911843303337"><ele>552.0</ele><time>2026-04-08T11:58:46.999Z</time></trkpt><trkpt lat="38.12953895491285" lon="15.41499276904524"><ele>552.0</ele><time>2026-04-08T11:59:10.999Z</time></trkpt><trkpt lat="38.12959388740871" lon="15.415080431113633"><ele>552.0</ele><time>2026-04-08T12:03:36.998Z</time></trkpt><trkpt lat="38.12969205017002" lon="15.415128356527925"><ele>552.0</ele><time>2026-04-08T12:03:38.998Z</time></trkpt><trkpt lat="38.12976276870582" lon="15.415138111049293"><ele>552.0</ele><time>2026-04-08T12:03:39.998Z</time></trkpt><trkpt lat="38.12984708202153" lon="15.415159393940737"><ele>552.0</ele><time>2026-04-08T12:03:41.998Z</time></trkpt><trkpt lat="38.1299363832613" lon="15.415197411529475"><ele>552.0</ele><time>2026-04-08T12:03:43.998Z</time></trkpt><trkpt lat="38.130064002348874" lon="15.41520694951314"><ele>552.0</ele><time>2026-04-08T12:03:45.998Z</time></trkpt><trkpt lat="38.130135424110556" lon="15.415197131134343"><ele>552.0</ele><time>2026-04-08T12:03:46.998Z</time></trkpt><trkpt lat="38.13023780495321" lon="15.415244873164871"><ele>552.0</ele><time>2026-04-08T12:03:48.998Z</time></trkpt><trkpt lat="38.130357221831765" lon="15.415329455818016"><ele>552.0</ele><time>2026-04-08T12:03:50.998Z</time></trkpt><trkpt lat="38.13043912998874" lon="15.415392072816747"><ele>552.0</ele><time>2026-04-08T12:03:51.998Z</time></trkpt><trkpt lat="38.1305186530302" lon="15.415457813976458"><ele>552.0</ele><time>2026-04-08T12:03:52.998Z</time></trkpt><trkpt lat="38.13058332650071" lon="15.415497786542497"><ele>552.0</ele><time>2026-04-08T12:03:53.998Z</time></trkpt><trkpt lat="38.130696970968" lon="15.41555205030035"><ele>552.0</ele><time>2026-04-08T12:03:55.998Z</time></trkpt><trkpt lat="38.130793807014555" lon="15.41553302083646"><ele>552.0</ele><time>2026-04-08T12:03:57.998Z</time></trkpt><trkpt lat="38.1308993839671" lon="15.415386861778524"><ele>551.3333333333334</ele><time>2026-04-08T12:03:59.998Z</time></trkpt><trkpt lat="38.130962260589286" lon="15.415315104515486"><ele>550.6666666666666</ele><time>2026-04-08T12:04:00.998Z</time></trkpt><trkpt lat="38.131030440437236" lon="15.415303307731369"><ele>550.0</ele><time>2026-04-08T12:04:02.998Z</time></trkpt><trkpt lat="38.131076555222116" lon="15.415457708203531"><ele>549.3333333333333</ele><time>2026-04-08T12:04:04.998Z</time></trkpt><trkpt lat="38.13106264577493" lon="15.415561961354031"><ele>548.6666666666666</ele><time>2026-04-08T12:04:05.998Z</time></trkpt><trkpt lat="38.131066546982034" lon="15.415663326502852"><ele>548.0</ele><time>2026-04-08T12:04:06.998Z</time></trkpt><trkpt lat="38.13108101491078" lon="15.415748455216026"><ele>545.1666666666666</ele><time>2026-04-08T12:04:07.998Z</time></trkpt><trkpt lat="38.131109071962626" lon="15.415830661542996"><ele>542.3333333333333</ele><time>2026-04-08T12:04:08.998Z</time></trkpt><trkpt lat="38.13115731191251" lon="15.41590825655601"><ele>539.5</ele><time>2026-04-08T12:04:09.998Z</time></trkpt><trkpt lat="38.13121312630586" lon="15.415953901101028"><ele>536.6666666666666</ele><time>2026-04-08T12:04:10.998Z</time></trkpt><trkpt lat="38.13128553126573" lon="15.415996849297386"><ele>533.8333333333334</ele><time>2026-04-08T12:04:11.998Z</time></trkpt><trkpt lat="38.131363522881955" lon="15.416039177962396"><ele>531.0</ele><time>2026-04-08T12:04:12.998Z</time></trkpt><trkpt lat="38.13144846050159" lon="15.416059668709641"><ele>531.0</ele><time>2026-04-08T12:04:13.999Z</time></trkpt><trkpt lat="38.13152922776651" lon="15.416088959773395"><ele>531.0</ele><time>2026-04-08T12:04:14.999Z</time></trkpt><trkpt lat="38.131608983131514" lon="15.416128514074872"><ele>531.0</ele><time>2026-04-08T12:04:15.999Z</time></trkpt><trkpt lat="38.13167749404726" lon="15.416163289954099"><ele>531.0</ele><time>2026-04-08T12:04:16.999Z</time></trkpt><trkpt lat="38.13175645861342" lon="15.416223237599349"><ele>531.0</ele><time>2026-04-08T12:04:18.999Z</time></trkpt><trkpt lat="38.131796423520626" lon="15.4163525675728"><ele>531.0</ele><time>2026-04-08T12:04:30.999Z</time></trkpt><trkpt lat="38.131846276327074" lon="15.416418829302435"><ele>527.8333333333334</ele><time>2026-04-08T12:04:31.999Z</time></trkpt><trkpt lat="38.13190791247115" lon="15.416477169531156"><ele>524.6666666666666</ele><time>2026-04-08T12:04:32.999Z</time></trkpt><trkpt lat="38.13197076485898" lon="15.41650842542935"><ele>521.5</ele><time>2026-04-08T12:04:33.999Z</time></trkpt><trkpt lat="38.13205271283575" lon="15.416544273911269"><ele>518.3333333333333</ele><time>2026-04-08T12:04:35.999Z</time></trkpt><trkpt lat="38.1321201058821" lon="15.416603996491014"><ele>515.1666666666666</ele><time>2026-04-08T12:04:37.999Z</time></trkpt><trkpt lat="38.13220249193502" lon="15.416654985741681"><ele>512.0</ele><time>2026-04-08T12:04:39.999Z</time></trkpt><trkpt lat="38.13227723459967" lon="15.416697457269215"><ele>512.0</ele><time>2026-04-08T12:04:41.999Z</time></trkpt><trkpt lat="38.13234804337714" lon="15.416755465882504"><ele>512.0</ele><time>2026-04-08T12:04:43.999Z</time></trkpt><trkpt lat="38.132436736005204" lon="15.416829724312661"><ele>512.0</ele><time>2026-04-08T12:04:45.999Z</time></trkpt><trkpt lat="38.13253223016812" lon="15.416917219523347"><ele>512.0</ele><time>2026-04-08T12:04:47.999Z</time></trkpt><trkpt lat="38.13259637192057" lon="15.416990688278176"><ele>512.0</ele><time>2026-04-08T12:04:49.999Z</time></trkpt><trkpt lat="38.13265373402051" lon="15.417040405382984"><ele>511.99999999999994</ele><time>2026-04-08T12:04:51.999Z</time></trkpt><trkpt lat="38.1325896349623" lon="15.417062392817867"><ele>512.0</ele><time>2026-04-08T12:04:54.999Z</time></trkpt><trkpt lat="38.13250511490383" lon="15.416992259708875"><ele>512.0</ele><time>2026-04-08T12:04:56.999Z</time></trkpt><trkpt lat="38.13240974506212" lon="15.416946725816107"><ele>512.0</ele><time>2026-04-08T12:04:58.999Z</time></trkpt><trkpt lat="38.13234030896625" lon="15.416917740000834"><ele>511.99999999999994</ele><time>2026-04-08T12:05:00.999Z</time></trkpt><trkpt lat="38.132276889209336" lon="15.416906115398408"><ele>512.0</ele><time>2026-04-08T12:05:02.999Z</time></trkpt><trkpt lat="38.132195754173246" lon="15.416886163397747"><ele>511.99999999999994</ele><time>2026-04-08T12:05:04.999Z</time></trkpt><trkpt lat="38.13211007050915" lon="15.416886733729443"><ele>512.0</ele><time>2026-04-08T12:05:07.999Z</time></trkpt><trkpt lat="38.132054447160286" lon="15.416951202981512"><ele>512.0</ele><time>2026-04-08T12:05:11.999Z</time></trkpt><trkpt lat="38.132060026897214" lon="15.41705242788636"><ele>512.0</ele><time>2026-04-08T12:05:14.999Z</time></trkpt><trkpt lat="38.13215890684328" lon="15.417064085859154"><ele>511.99999999999994</ele><time>2026-04-08T12:05:17.998Z</time></trkpt><trkpt lat="38.13222509490638" lon="15.417056389689103"><ele>512.0</ele><time>2026-04-08T12:05:19.998Z</time></trkpt><trkpt lat="38.13228926720047" lon="15.417138071802267"><ele>508.57142857142856</ele><time>2026-04-08T12:05:22.998Z</time></trkpt><trkpt lat="38.13235653935526" lon="15.41716870159606"><ele>505.1428571428571</ele><time>2026-04-08T12:05:24.998Z</time></trkpt><trkpt lat="38.13233387040124" lon="15.41724663447476"><ele>501.71428571428567</ele><time>2026-04-08T12:05:33.998Z</time></trkpt><trkpt lat="38.132250003609116" lon="15.417265247422586"><ele>498.2857142857142</ele><time>2026-04-08T12:05:36.998Z</time></trkpt><trkpt lat="38.132203122966864" lon="15.41733183747335"><ele>494.85714285714283</ele><time>2026-04-08T12:05:40.998Z</time></trkpt><trkpt lat="38.13221740861793" lon="15.417416368415898"><ele>491.42857142857133</ele><time>2026-04-08T12:05:51.998Z</time></trkpt><trkpt lat="38.13224432831241" lon="15.417495432104753"><ele>487.99999999999994</ele><time>2026-04-08T12:05:57.998Z</time></trkpt><trkpt lat="38.132296269503385" lon="15.417553844577434"><ele>488.0</ele><time>2026-04-08T12:06:00.998Z</time></trkpt><trkpt lat="38.132333091656626" lon="15.417634326873703"><ele>487.99999999999994</ele><time>2026-04-08T12:06:10.998Z</time></trkpt><trkpt lat="38.132386379998806" lon="15.417735384145153"><ele>487.99999999999994</ele><time>2026-04-08T12:06:12.998Z</time></trkpt><trkpt lat="38.13240230325611" lon="15.417822166297178"><ele>488.0</ele><time>2026-04-08T12:06:14.998Z</time></trkpt><trkpt lat="38.13244471060202" lon="15.41795748712587"><ele>488.0</ele><time>2026-04-08T12:06:16.999Z</time></trkpt><trkpt lat="38.13250048765413" lon="15.418088992669205"><ele>483.66666666666663</ele><time>2026-04-08T12:06:18.999Z</time></trkpt><trkpt lat="38.13253425263886" lon="15.418191118823318"><ele>479.3333333333333</ele><time>2026-04-08T12:06:20.999Z</time></trkpt><trkpt lat="38.13256286976675" lon="15.418282043105052"><ele>475.0</ele><time>2026-04-08T12:06:22.999Z</time></trkpt><trkpt lat="38.132571373557624" lon="15.418380546337781"><ele>470.66666666666663</ele><time>2026-04-08T12:06:25.999Z</time></trkpt><trkpt lat="38.13257030392605" lon="15.418491268276716"><ele>466.3333333333333</ele><time>2026-04-08T12:06:28Z</time></trkpt><trkpt lat="38.13262477365204" lon="15.41861288318594"><ele>462.0</ele><time>2026-04-08T12:06:30Z</time></trkpt><trkpt lat="38.13268284089309" lon="15.418733638777136"><ele>458.5</ele><time>2026-04-08T12:06:32Z</time></trkpt><trkpt lat="38.1327226057449" lon="15.418837291192352"><ele>455.0</ele><time>2026-04-08T12:06:34Z</time></trkpt><trkpt lat="38.13277024976103" lon="15.41890144424848"><ele>451.5</ele><time>2026-04-08T12:06:34.999Z</time></trkpt><trkpt lat="38.1328232483532" lon="15.41897904573549"><ele>448.0</ele><time>2026-04-08T12:06:35.999Z</time></trkpt><trkpt lat="38.13285259048031" lon="15.419050283767637"><ele>444.5</ele><time>2026-04-08T12:06:36.999Z</time></trkpt><trkpt lat="38.13288219321519" lon="15.41912137488689"><ele>441.0</ele><time>2026-04-08T12:06:37.999Z</time></trkpt><trkpt lat="38.132964304175935" lon="15.419241299303522"><ele>441.0</ele><time>2026-04-08T12:06:39.999Z</time></trkpt><trkpt lat="38.13302552975829" lon="15.41937443937052"><ele>441.0</ele><time>2026-04-08T12:06:41.999Z</time></trkpt><trkpt lat="38.13308101311176" lon="15.41947267097799"><ele>441.0</ele><time>2026-04-08T12:06:43.999Z</time></trkpt><trkpt lat="38.13317685299361" lon="15.419470175848542"><ele>441.0</ele><time>2026-04-08T12:06:46.999Z</time></trkpt><trkpt lat="38.133194287397146" lon="15.419387567030572"><ele>441.0</ele><time>2026-04-08T12:06:48.999Z</time></trkpt><trkpt lat="38.13316322399718" lon="15.419263991008147"><ele>441.0</ele><time>2026-04-08T12:06:51.999Z</time></trkpt><trkpt lat="38.13314360116049" lon="15.419132475740119"><ele>441.0</ele><time>2026-04-08T12:06:54.999Z</time></trkpt><trkpt lat="38.13311569813695" lon="15.418986103673184"><ele>441.0</ele><time>2026-04-08T12:06:56.999Z</time></trkpt><trkpt lat="38.13311401603493" lon="15.418896320686951"><ele>441.0</ele><time>2026-04-08T12:06:57.999Z</time></trkpt><trkpt lat="38.133131656398916" lon="15.41879847985387"><ele>441.0</ele><time>2026-04-08T12:06:59.999Z</time></trkpt><trkpt lat="38.13318748926997" lon="15.418837353329561"><ele>441.0</ele><time>2026-04-08T12:07:02.999Z</time></trkpt><trkpt lat="38.133226469437915" lon="15.418932561751262"><ele>438.6</ele><time>2026-04-08T12:07:04.999Z</time></trkpt><trkpt lat="38.133273282897434" lon="15.41902047917916"><ele>436.20000000000005</ele><time>2026-04-08T12:07:07.999Z</time></trkpt><trkpt lat="38.13331802595595" lon="15.419128397923815"><ele>433.79999999999995</ele><time>2026-04-08T12:07:09.999Z</time></trkpt><trkpt lat="38.13338458790298" lon="15.419250003748267"><ele>431.4</ele><time>2026-04-08T12:07:11.999Z</time></trkpt><trkpt lat="38.13346372699856" lon="15.419378154820752"><ele>429.0</ele><time>2026-04-08T12:07:13.999Z</time></trkpt><trkpt lat="38.13350248235724" lon="15.419456815544718"><ele>429.0</ele><time>2026-04-08T12:07:14.999Z</time></trkpt><trkpt lat="38.1335354860141" lon="15.41952905742502"><ele>429.0</ele><time>2026-04-08T12:07:15.999Z</time></trkpt><trkpt lat="38.13358375151374" lon="15.419594790401662"><ele>429.0</ele><time>2026-04-08T12:07:16.999Z</time></trkpt><trkpt lat="38.13362200656892" lon="15.419675970339892"><ele>429.0</ele><time>2026-04-08T12:07:17.999Z</time></trkpt><trkpt lat="38.13365607715342" lon="15.419750584297324"><ele>429.0</ele><time>2026-04-08T12:07:18.999Z</time></trkpt><trkpt lat="38.13374414948118" lon="15.4198744295284"><ele>429.0</ele><time>2026-04-08T12:07:20.999Z</time></trkpt><trkpt lat="38.133806004680594" lon="15.419959393895217"><ele>426.6666666666667</ele><time>2026-04-08T12:07:22.999Z</time></trkpt><trkpt lat="38.13384713322923" lon="15.420038067246429"><ele>424.33333333333337</ele><time>2026-04-08T12:07:23.999Z</time></trkpt><trkpt lat="38.13383484236892" lon="15.420119202973755"><ele>422.0</ele><time>2026-04-08T12:07:25.999Z</time></trkpt><trkpt lat="38.13374469362465" lon="15.420096037070968"><ele>419.6666666666667</ele><time>2026-04-08T12:07:27.999Z</time></trkpt><trkpt lat="38.13363710218669" lon="15.420078335152464"><ele>417.33333333333337</ele><time>2026-04-08T12:07:29.999Z</time></trkpt><trkpt lat="38.13354791686946" lon="15.420070311060119"><ele>415.0</ele><time>2026-04-08T12:07:31.999Z</time></trkpt><trkpt lat="38.13346227926942" lon="15.420087053103389"><ele>415.00000000000006</ele><time>2026-04-08T12:07:33.999Z</time></trkpt><trkpt lat="38.13339064218076" lon="15.42006570980247"><ele>415.0</ele><time>2026-04-08T12:07:35.999Z</time></trkpt><trkpt lat="38.13332144994066" lon="15.420026115132215"><ele>415.0</ele><time>2026-04-08T12:07:37.999Z</time></trkpt><trkpt lat="38.13322843501866" lon="15.419979167439834"><ele>415.0</ele><time>2026-04-08T12:07:39.999Z</time></trkpt><trkpt lat="38.133116198545224" lon="15.419959397965545"><ele>415.00000000000006</ele><time>2026-04-08T12:07:41.999Z</time></trkpt><trkpt lat="38.13305034897862" lon="15.41995733022356"><ele>415.0</ele><time>2026-04-08T12:07:42.999Z</time></trkpt><trkpt lat="38.132942282439444" lon="15.41994743130369"><ele>414.7142857142857</ele><time>2026-04-08T12:07:44.999Z</time></trkpt><trkpt lat="38.13287565018898" lon="15.419981787302177"><ele>414.42857142857144</ele><time>2026-04-08T12:07:46.999Z</time></trkpt><trkpt lat="38.132802156340354" lon="15.420010892702251"><ele>414.1428571428571</ele><time>2026-04-08T12:07:48.999Z</time></trkpt><trkpt lat="38.132768583699395" lon="15.420102357865368"><ele>413.8571428571429</ele><time>2026-04-08T12:07:51.999Z</time></trkpt><trkpt lat="38.132797928221166" lon="15.420174560875964"><ele>413.57142857142856</ele><time>2026-04-08T12:07:54.999Z</time></trkpt><trkpt lat="38.13285043545244" lon="15.420231005582085"><ele>413.2857142857143</ele><time>2026-04-08T12:07:57.999Z</time></trkpt><trkpt lat="38.13289888121982" lon="15.420307484059972"><ele>413.0</ele><time>2026-04-08T12:07:59.998Z</time></trkpt><trkpt lat="38.13298434250645" lon="15.420380446607913"><ele>413.0</ele><time>2026-04-08T12:08:01.998Z</time></trkpt><trkpt lat="38.13309162934225" lon="15.420379585453825"><ele>413.0</ele><time>2026-04-08T12:08:03.998Z</time></trkpt><trkpt lat="38.133188353544824" lon="15.42042543103141"><ele>413.0</ele><time>2026-04-08T12:08:05.998Z</time></trkpt><trkpt lat="38.13328442014709" lon="15.420515767119815"><ele>413.0</ele><time>2026-04-08T12:08:07.998Z</time></trkpt><trkpt lat="38.13337572318351" lon="15.420588754699668"><ele>413.0</ele><time>2026-04-08T12:08:09.998Z</time></trkpt><trkpt lat="38.13342669986353" lon="15.420685404081512"><ele>408.99999999999994</ele><time>2026-04-08T12:08:11.998Z</time></trkpt><trkpt lat="38.133437169258386" lon="15.420771172097556"><ele>405.0</ele><time>2026-04-08T12:08:12.998Z</time></trkpt><trkpt lat="38.133422427218875" lon="15.420903364295006"><ele>401.0</ele><time>2026-04-08T12:08:14.998Z</time></trkpt><trkpt lat="38.13335150705788" lon="15.42096838567655"><ele>397.0</ele><time>2026-04-08T12:08:16.998Z</time></trkpt><trkpt lat="38.13336583304555" lon="15.421075953692723"><ele>392.99999999999994</ele><time>2026-04-08T12:08:18.998Z</time></trkpt><trkpt lat="38.133434391556946" lon="15.421057747670025"><ele>389.0</ele><time>2026-04-08T12:08:20.998Z</time></trkpt><trkpt lat="38.13350659032514" lon="15.421018978302431"><ele>389.0</ele><time>2026-04-08T12:08:23Z</time></trkpt><trkpt lat="38.133596374034646" lon="15.421009400837946"><ele>389.0</ele><time>2026-04-08T12:08:25Z</time></trkpt><trkpt lat="38.133699881189614" lon="15.42100433948403"><ele>389.0</ele><time>2026-04-08T12:08:27Z</time></trkpt><trkpt lat="38.13379102026471" lon="15.4210076679601"><ele>389.0</ele><time>2026-04-08T12:08:29Z</time></trkpt><trkpt lat="38.133875067789944" lon="15.420968596411004"><ele>389.0</ele><time>2026-04-08T12:08:32Z</time></trkpt><trkpt lat="38.133936206620106" lon="15.420904433424088"><ele>388.99999999999994</ele><time>2026-04-08T12:08:35Z</time></trkpt><trkpt lat="38.13401164997696" lon="15.42092317430286"><ele>389.0</ele><time>2026-04-08T12:08:37Z</time></trkpt><trkpt lat="38.134053153742926" lon="15.421021072932879"><ele>389.0</ele><time>2026-04-08T12:08:40Z</time></trkpt><trkpt lat="38.13406185969503" lon="15.421122282170877"><ele>389.0</ele><time>2026-04-08T12:08:42Z</time></trkpt><trkpt lat="38.13407281286871" lon="15.421232574654255"><ele>388.99999999999994</ele><time>2026-04-08T12:08:44Z</time></trkpt><trkpt lat="38.13412940026016" lon="15.421268088926848"><ele>389.0</ele><time>2026-04-08T12:08:47Z</time></trkpt><trkpt lat="38.1342432885795" lon="15.421237929779817"><ele>386.66666666666663</ele><time>2026-04-08T12:08:50Z</time></trkpt><trkpt lat="38.134351048099035" lon="15.421226346164289"><ele>384.3333333333333</ele><time>2026-04-08T12:08:52Z</time></trkpt><trkpt lat="38.13442734167325" lon="15.421260379828993"><ele>382.0</ele><time>2026-04-08T12:08:54Z</time></trkpt><trkpt lat="38.134496570562604" lon="15.421306128848498"><ele>379.66666666666663</ele><time>2026-04-08T12:08:57Z</time></trkpt><trkpt lat="38.134469942444134" lon="15.42139387283473"><ele>377.3333333333333</ele><time>2026-04-08T12:08:59Z</time></trkpt><trkpt lat="38.13442600860787" lon="15.421457067246997"><ele>375.0</ele><time>2026-04-08T12:09:01Z</time></trkpt><trkpt lat="38.13437329947842" lon="15.42151046974939"><ele>369.0</ele><time>2026-04-08T12:09:02Z</time></trkpt><trkpt lat="38.13428636760077" lon="15.421564565884193"><ele>363.0</ele><time>2026-04-08T12:09:04Z</time></trkpt><trkpt lat="38.134204223402406" lon="15.421671299524137"><ele>357.0</ele><time>2026-04-08T12:09:06Z</time></trkpt><trkpt lat="38.134171961040394" lon="15.421743626780707"><ele>351.0</ele><time>2026-04-08T12:09:07Z</time></trkpt><trkpt lat="38.13414444446692" lon="15.421881119466978"><ele>345.0</ele><time>2026-04-08T12:09:09Z</time></trkpt><trkpt lat="38.13417833808305" lon="15.421959932820247"><ele>345.0</ele><time>2026-04-08T12:09:10.999Z</time></trkpt><trkpt lat="38.13422877558146" lon="15.422049753879744"><ele>345.0</ele><time>2026-04-08T12:09:12.999Z</time></trkpt><trkpt lat="38.13429949645559" lon="15.421990256284616"><ele>345.0</ele><time>2026-04-08T12:09:15.999Z</time></trkpt><trkpt lat="38.13437337268036" lon="15.422048043298819"><ele>345.0</ele><time>2026-04-08T12:09:17.999Z</time></trkpt><trkpt lat="38.13435556908006" lon="15.422161092938943"><ele>345.0</ele><time>2026-04-08T12:09:19.999Z</time></trkpt><trkpt lat="38.13428599023066" lon="15.422250890039628"><ele>345.0</ele><time>2026-04-08T12:09:21.999Z</time></trkpt><trkpt lat="38.13420443182618" lon="15.422252747030088"><ele>343.8571428571429</ele><time>2026-04-08T12:09:24.999Z</time></trkpt><trkpt lat="38.13419705299055" lon="15.422339788390467"><ele>342.7142857142857</ele><time>2026-04-08T12:09:27.999Z</time></trkpt><trkpt lat="38.13428214497584" lon="15.422340248495555"><ele>341.57142857142856</ele><time>2026-04-08T12:09:30.999Z</time></trkpt><trkpt lat="38.13434982095315" lon="15.422323062583775"><ele>340.42857142857144</ele><time>2026-04-08T12:09:32.999Z</time></trkpt><trkpt lat="38.13440667722096" lon="15.422257411740764"><ele>339.2857142857143</ele><time>2026-04-08T12:09:34.999Z</time></trkpt><trkpt lat="38.13447695011401" lon="15.422214662599636"><ele>338.14285714285717</ele><time>2026-04-08T12:09:36.999Z</time></trkpt><trkpt lat="38.134543076370846" lon="15.422203803934202"><ele>337.0</ele><time>2026-04-08T12:09:37.999Z</time></trkpt><trkpt lat="38.134593694091" lon="15.42226860773134"><ele>337.0</ele><time>2026-04-08T12:09:40.999Z</time></trkpt><trkpt lat="38.13470892847106" lon="15.422306809380203"><ele>337.0</ele><time>2026-04-08T12:09:42.999Z</time></trkpt><trkpt lat="38.13478148944396" lon="15.422270654156648"><ele>337.0</ele><time>2026-04-08T12:09:45.999Z</time></trkpt><trkpt lat="38.134844721144056" lon="15.422222355061727"><ele>337.0</ele><time>2026-04-08T12:09:46.999Z</time></trkpt><trkpt lat="38.134908857705106" lon="15.422167103500668"><ele>337.0</ele><time>2026-04-08T12:09:47.999Z</time></trkpt><trkpt lat="38.13496979203637" lon="15.422119056492063"><ele>337.0</ele><time>2026-04-08T12:09:48.999Z</time></trkpt><trkpt lat="38.13502929578372" lon="15.422022919280703"><ele>335.66666666666663</ele><time>2026-04-08T12:09:50.999Z</time></trkpt><trkpt lat="38.135101386330206" lon="15.421907949337147"><ele>334.3333333333333</ele><time>2026-04-08T12:09:53.999Z</time></trkpt><trkpt lat="38.135181840422256" lon="15.421855744095293"><ele>333.0</ele><time>2026-04-08T12:10:20.999Z</time></trkpt><trkpt lat="38.13524423199698" lon="15.421900319858882"><ele>331.6666666666667</ele><time>2026-04-08T12:10:28Z</time></trkpt><trkpt lat="38.13530217690613" lon="15.421959575579617"><ele>330.33333333333337</ele><time>2026-04-08T12:10:53Z</time></trkpt><trkpt lat="38.135324899539455" lon="15.422060738544321"><ele>329.0</ele><time>2026-04-08T12:10:55Z</time></trkpt><trkpt lat="38.13532035381579" lon="15.42214527240971"><ele>327.83333333333337</ele><time>2026-04-08T12:10:58Z</time></trkpt><trkpt lat="38.135277379241074" lon="15.422222384828245"><ele>326.6666666666667</ele><time>2026-04-08T12:11:00Z</time></trkpt><trkpt lat="38.13523489523495" lon="15.422285198727828"><ele>325.5</ele><time>2026-04-08T12:11:02Z</time></trkpt><trkpt lat="38.13523565235726" lon="15.422366767014418"><ele>324.3333333333333</ele><time>2026-04-08T12:11:25.999Z</time></trkpt><trkpt lat="38.135225656586826" lon="15.422465458935768"><ele>323.16666666666663</ele><time>2026-04-08T12:11:27.999Z</time></trkpt><trkpt lat="38.13533288682431" lon="15.422488704943582"><ele>322.0</ele><time>2026-04-08T12:11:30.999Z</time></trkpt><trkpt lat="38.13540573876032" lon="15.422538957297744"><ele>322.0</ele><time>2026-04-08T12:11:32.999Z</time></trkpt><trkpt lat="38.13545179776931" lon="15.422461113756619"><ele>322.0</ele><time>2026-04-08T12:11:34.999Z</time></trkpt><trkpt lat="38.135520378673704" lon="15.422389283965444"><ele>322.0</ele><time>2026-04-08T12:11:36.999Z</time></trkpt><trkpt lat="38.13554780115361" lon="15.422312558199716"><ele>322.0</ele><time>2026-04-08T12:12:39Z</time></trkpt><trkpt lat="38.13559536344726" lon="15.422367961904948"><ele>322.0</ele><time>2026-04-08T12:12:49Z</time></trkpt><trkpt lat="38.13559406656687" lon="15.422468153794053"><ele>322.0</ele><time>2026-04-08T12:12:52Z</time></trkpt><trkpt lat="38.13559709101637" lon="15.42255184852117"><ele>322.0</ele><time>2026-04-08T12:13:02Z</time></trkpt><trkpt lat="38.13562179776727" lon="15.422639201709172"><ele>322.0</ele><time>2026-04-08T12:13:04Z</time></trkpt><trkpt lat="38.13565890637081" lon="15.422738068329831"><ele>322.0</ele><time>2026-04-08T12:13:07Z</time></trkpt><trkpt lat="38.13568782477267" lon="15.422850411703863"><ele>322.0</ele><time>2026-04-08T12:13:10Z</time></trkpt><trkpt lat="38.135681835344656" lon="15.422950794755657"><ele>322.0</ele><time>2026-04-08T12:13:12Z</time></trkpt><trkpt lat="38.13566368019233" lon="15.42310059939939"><ele>322.0</ele><time>2026-04-08T12:13:14Z</time></trkpt><trkpt lat="38.135617164525954" lon="15.423221442474091"><ele>323.6</ele><time>2026-04-08T12:13:15Z</time></trkpt><trkpt lat="38.13553866633083" lon="15.423368798587001"><ele>325.20000000000005</ele><time>2026-04-08T12:13:16Z</time></trkpt><trkpt lat="38.13552556147206" lon="15.423487382833592"><ele>326.8</ele><time>2026-04-08T12:13:17Z</time></trkpt><trkpt lat="38.135566656930365" lon="15.42360569325464"><ele>328.4</ele><time>2026-04-08T12:13:19Z</time></trkpt><trkpt lat="38.13557285812881" lon="15.423707028497006"><ele>330.0</ele><time>2026-04-08T12:13:20Z</time></trkpt><trkpt lat="38.13558034530255" lon="15.423810382814189"><ele>330.2</ele><time>2026-04-08T12:13:21Z</time></trkpt><trkpt lat="38.135573784442094" lon="15.423903603571727"><ele>330.4</ele><time>2026-04-08T12:13:22Z</time></trkpt><trkpt lat="38.13562712165266" lon="15.424071483678727"><ele>330.6</ele><time>2026-04-08T12:13:24Z</time></trkpt><trkpt lat="38.135694447259496" lon="15.424187959954526"><ele>330.8</ele><time>2026-04-08T12:13:25Z</time></trkpt><trkpt lat="38.135759349207966" lon="15.424299852280315"><ele>331.0</ele><time>2026-04-08T12:13:25.999Z</time></trkpt><trkpt lat="38.135814347911996" lon="15.424449537791077"><ele>332.8</ele><time>2026-04-08T12:13:26.999Z</time></trkpt><trkpt lat="38.13584822419755" lon="15.42455836149461"><ele>334.6</ele><time>2026-04-08T12:13:27.999Z</time></trkpt><trkpt lat="38.13588394491274" lon="15.42466457549737"><ele>336.4</ele><time>2026-04-08T12:13:28.999Z</time></trkpt><trkpt lat="38.13590754641794" lon="15.424785276008652"><ele>338.2</ele><time>2026-04-08T12:13:29.999Z</time></trkpt><trkpt lat="38.13594556335323" lon="15.424893825984475"><ele>340.0</ele><time>2026-04-08T12:13:30.999Z</time></trkpt><trkpt lat="38.1359794309766" lon="15.424987078197876"><ele>340.0</ele><time>2026-04-08T12:13:31.999Z</time></trkpt><trkpt lat="38.13600055301344" lon="15.42506439119682"><ele>340.0</ele><time>2026-04-08T12:13:32.999Z</time></trkpt><trkpt lat="38.136030471123476" lon="15.425135828691506"><ele>340.0</ele><time>2026-04-08T12:13:41.999Z</time></trkpt><trkpt lat="38.136121875516814" lon="15.425148429633294"><ele>340.0</ele><time>2026-04-08T12:13:48.999Z</time></trkpt><trkpt lat="38.13620494858827" lon="15.425191269310238"><ele>340.0</ele><time>2026-04-08T12:13:50.999Z</time></trkpt><trkpt lat="38.13626475466598" lon="15.425227597273738"><ele>340.0</ele><time>2026-04-08T12:13:51.999Z</time></trkpt><trkpt lat="38.13635272964331" lon="15.425252045954604"><ele>340.0</ele><time>2026-04-08T12:13:53.999Z</time></trkpt><trkpt lat="38.136408388408704" lon="15.425324083943451"><ele>340.0</ele><time>2026-04-08T12:13:56.999Z</time></trkpt><trkpt lat="38.13643981714797" lon="15.425416962705063"><ele>340.0</ele><time>2026-04-08T12:13:58.999Z</time></trkpt><trkpt lat="38.136474920611505" lon="15.425499820439953"><ele>340.0</ele><time>2026-04-08T12:14:00.999Z</time></trkpt><trkpt lat="38.13651765533675" lon="15.425564489957717"><ele>340.0</ele><time>2026-04-08T12:14:02.999Z</time></trkpt><trkpt lat="38.13660817586183" lon="15.42555968047965"><ele>340.0</ele><time>2026-04-08T12:14:05.999Z</time></trkpt><trkpt lat="38.136676721149556" lon="15.425631013060473"><ele>342.2</ele><time>2026-04-08T12:14:26.999Z</time></trkpt><trkpt lat="38.136767418957184" lon="15.425745917339393"><ele>344.4</ele><time>2026-04-08T12:14:28.999Z</time></trkpt><trkpt lat="38.13682286750094" lon="15.425829028378642"><ele>346.6</ele><time>2026-04-08T12:14:29.999Z</time></trkpt><trkpt lat="38.136904656549454" lon="15.425917406669619"><ele>348.8</ele><time>2026-04-08T12:14:30.998Z</time></trkpt><trkpt lat="38.13699810116185" lon="15.42600118712439"><ele>351.0</ele><time>2026-04-08T12:14:31.998Z</time></trkpt><trkpt lat="38.13709361344386" lon="15.426076235594238"><ele>351.0</ele><time>2026-04-08T12:14:32.998Z</time></trkpt><trkpt lat="38.13718600661562" lon="15.426160890048093"><ele>351.0</ele><time>2026-04-08T12:14:33.998Z</time></trkpt><trkpt lat="38.1372783183407" lon="15.426254299519512"><ele>351.0</ele><time>2026-04-08T12:14:34.998Z</time></trkpt><trkpt lat="38.13734078155289" lon="15.426358890907423"><ele>351.0</ele><time>2026-04-08T12:14:35.998Z</time></trkpt><trkpt lat="38.13737850084364" lon="15.426475582560204"><ele>351.0</ele><time>2026-04-08T12:14:36.998Z</time></trkpt><trkpt lat="38.137406928960736" lon="15.426617091708112"><ele>351.6</ele><time>2026-04-08T12:14:37.998Z</time></trkpt><trkpt lat="38.13745173003594" lon="15.426782061031398"><ele>352.20000000000005</ele><time>2026-04-08T12:14:38.998Z</time></trkpt><trkpt lat="38.137490049580556" lon="15.426921760898477"><ele>352.79999999999995</ele><time>2026-04-08T12:14:40Z</time></trkpt><trkpt lat="38.13752900742506" lon="15.427030028293165"><ele>353.4</ele><time>2026-04-08T12:14:41Z</time></trkpt><trkpt lat="38.13760099268283" lon="15.427121304644688"><ele>354.0</ele><time>2026-04-08T12:14:42Z</time></trkpt><trkpt lat="38.137678717751115" lon="15.427190282298012"><ele>356.2</ele><time>2026-04-08T12:14:43Z</time></trkpt><trkpt lat="38.13775834625615" lon="15.427243516868865"><ele>358.4</ele><time>2026-04-08T12:14:44Z</time></trkpt><trkpt lat="38.137845963099416" lon="15.427274039297606"><ele>360.6</ele><time>2026-04-08T12:14:45Z</time></trkpt><trkpt lat="38.137920209299516" lon="15.427359012781597"><ele>362.8</ele><time>2026-04-08T12:14:46Z</time></trkpt><trkpt lat="38.1379482876906" lon="15.427459781634873"><ele>365.0</ele><time>2026-04-08T12:14:47Z</time></trkpt><trkpt lat="38.13798951320969" lon="15.427566497198779"><ele>365.0</ele><time>2026-04-08T12:14:48Z</time></trkpt><trkpt lat="38.138049724823674" lon="15.427675301693732"><ele>365.0</ele><time>2026-04-08T12:14:49Z</time></trkpt><trkpt lat="38.13809990856679" lon="15.427755081321047"><ele>365.0</ele><time>2026-04-08T12:14:50Z</time></trkpt><trkpt lat="38.138191163467084" lon="15.4277770681932"><ele>365.0</ele><time>2026-04-08T12:14:51Z</time></trkpt><trkpt lat="38.13829404947393" lon="15.427793651876458"><ele>365.0</ele><time>2026-04-08T12:14:52Z</time></trkpt><trkpt lat="38.13838874555323" lon="15.427855223658657"><ele>365.5</ele><time>2026-04-08T12:14:53Z</time></trkpt><trkpt lat="38.138475155132156" lon="15.427909763359347"><ele>366.0</ele><time>2026-04-08T12:14:54Z</time></trkpt><trkpt lat="38.138556003023204" lon="15.42797083051547"><ele>366.5</ele><time>2026-04-08T12:14:55Z</time></trkpt><trkpt lat="38.13861373515244" lon="15.42802886708785"><ele>367.0</ele><time>2026-04-08T12:14:56Z</time></trkpt><trkpt lat="38.13865242312296" lon="15.428099015910904"><ele>367.5</ele><time>2026-04-08T12:14:57Z</time></trkpt><trkpt lat="38.1386813050113" lon="15.428204430443792"><ele>368.0</ele><time>2026-04-08T12:14:58Z</time></trkpt><trkpt lat="38.13872598131377" lon="15.428337406999669"><ele>368.0</ele><time>2026-04-08T12:14:59Z</time></trkpt><trkpt lat="38.13876526877317" lon="15.428466110896585"><ele>368.0</ele><time>2026-04-08T12:15:00Z</time></trkpt><trkpt lat="38.13878739526212" lon="15.428546613013491"><ele>368.0</ele><time>2026-04-08T12:15:01Z</time></trkpt><trkpt lat="38.13883852706892" lon="15.428697789872706"><ele>368.0</ele><time>2026-04-08T12:15:03Z</time></trkpt><trkpt lat="38.13887423270465" lon="15.428772863232478"><ele>368.0</ele><time>2026-04-08T12:15:04Z</time></trkpt><trkpt lat="38.13892459200772" lon="15.428843103196158"><ele>368.0</ele><time>2026-04-08T12:15:06Z</time></trkpt><trkpt lat="38.13904242186348" lon="15.428787510495253"><ele>367.0</ele><time>2026-04-08T12:15:07Z</time></trkpt><trkpt lat="38.13909859594862" lon="15.428738022755946"><ele>366.0</ele><time>2026-04-08T12:15:08Z</time></trkpt><trkpt lat="38.13918869129487" lon="15.429000262794373"><ele>365.0</ele><time>2026-04-08T12:15:14Z</time></trkpt><trkpt lat="38.13921780543691" lon="15.429107392096533"><ele>364.0</ele><time>2026-04-08T12:15:15Z</time></trkpt><trkpt lat="38.13920619629317" lon="15.429203367005112"><ele>364.0</ele><time>2026-04-08T12:15:16Z</time></trkpt><trkpt lat="38.13916941951248" lon="15.429307982767014"><ele>364.0</ele><time>2026-04-08T12:15:18Z</time></trkpt><trkpt lat="38.139133126740255" lon="15.429377913863314"><ele>364.0</ele><time>2026-04-08T12:15:20Z</time></trkpt><trkpt lat="38.139105567146395" lon="15.429458031677092"><ele>364.0</ele><time>2026-04-08T12:15:22Z</time></trkpt><trkpt lat="38.13915550876088" lon="15.429548239865511"><ele>364.0</ele><time>2026-04-08T12:15:24Z</time></trkpt><trkpt lat="38.13920064474574" lon="15.42961222995473"><ele>364.0</ele><time>2026-04-08T12:15:37.999Z</time></trkpt><trkpt lat="38.13921150616577" lon="15.429704316015611"><ele>364.5</ele><time>2026-04-08T12:15:57.999Z</time></trkpt><trkpt lat="38.13919274748935" lon="15.42980217893647"><ele>365.0</ele><time>2026-04-08T12:15:59.999Z</time></trkpt><trkpt lat="38.13912477838984" lon="15.429813819980955"><ele>365.5</ele><time>2026-04-08T12:16:02.999Z</time></trkpt><trkpt lat="38.13903535884009" lon="15.429772380533244"><ele>366.0</ele><time>2026-04-08T12:16:04.999Z</time></trkpt><trkpt lat="38.138960491872574" lon="15.429750420377808"><ele>366.5</ele><time>2026-04-08T12:16:06.999Z</time></trkpt><trkpt lat="38.13889719606419" lon="15.429734096294917"><ele>367.0</ele><time>2026-04-08T12:16:20.999Z</time></trkpt><trkpt lat="38.138827635100505" lon="15.429752783390544"><ele>371.0</ele><time>2026-04-08T12:16:30.998Z</time></trkpt><trkpt lat="38.13872102362882" lon="15.429669933702861"><ele>375.0</ele><time>2026-04-08T12:17:03Z</time></trkpt><trkpt lat="38.13877717874748" lon="15.42962380846411"><ele>379.0</ele><time>2026-04-08T12:17:23.999Z</time></trkpt><trkpt lat="38.13886465030484" lon="15.429662253790024"><ele>383.0</ele><time>2026-04-08T12:17:38.999Z</time></trkpt><trkpt lat="38.13894889837498" lon="15.429709439607196"><ele>387.0</ele><time>2026-04-08T12:18:00.999Z</time></trkpt><trkpt lat="38.13887293385966" lon="15.429728138598984"><ele>389.14285714285717</ele><time>2026-04-08T12:18:35.998Z</time></trkpt><trkpt lat="38.138812810591155" lon="15.429702700961002"><ele>391.28571428571433</ele><time>2026-04-08T12:18:38.998Z</time></trkpt><trkpt lat="38.13877834085272" lon="15.429800098247718"><ele>393.42857142857144</ele><time>2026-04-08T12:18:46.998Z</time></trkpt><trkpt lat="38.13871819209739" lon="15.429827659903847"><ele>395.57142857142856</ele><time>2026-04-08T12:18:49.998Z</time></trkpt><trkpt lat="38.138663951832726" lon="15.429893881015731"><ele>397.7142857142857</ele><time>2026-04-08T12:19:12Z</time></trkpt><trkpt lat="38.138725392871834" lon="15.42991595675332"><ele>399.85714285714283</ele><time>2026-04-08T12:19:47.999Z</time></trkpt><trkpt lat="38.13874353234222" lon="15.430000434785992"><ele>402.0</ele><time>2026-04-08T12:20:17.999Z</time></trkpt><trkpt lat="38.1387435269879" lon="15.43009675290057"><ele>402.0</ele><time>2026-04-08T12:20:23.999Z</time></trkpt><trkpt lat="38.13870794200166" lon="15.430162841715866"><ele>402.0</ele><time>2026-04-08T12:20:46.998Z</time></trkpt><trkpt lat="38.1386399699766" lon="15.430094630205906"><ele>402.0</ele><time>2026-04-08T12:20:57Z</time></trkpt><trkpt lat="38.13862660581099" lon="15.430006950614548"><ele>402.0</ele><time>2026-04-08T12:21:05Z</time></trkpt><trkpt lat="38.138668867970736" lon="15.430084571466429"><ele>402.0</ele><time>2026-04-08T12:23:45.999Z</time></trkpt><trkpt lat="38.13863798448232" lon="15.430005707149615"><ele>402.0</ele><time>2026-04-08T12:28:14.999Z</time></trkpt><trkpt lat="38.138702890318996" lon="15.430040824451076"><ele>402.0</ele><time>2026-04-08T12:28:22.999Z</time></trkpt><trkpt lat="38.13864738690782" lon="15.430139523967066"><ele>402.0</ele><time>2026-04-08T12:30:07.999Z</time></trkpt><trkpt lat="38.13865889401238" lon="15.430218880724986"><ele>402.0</ele><time>2026-04-08T12:31:09.998Z</time></trkpt><trkpt lat="38.138698056603616" lon="15.430287083589157"><ele>402.0</ele><time>2026-04-08T12:31:15.998Z</time></trkpt><trkpt lat="38.138731807678106" lon="15.430371101802223"><ele>402.0</ele><time>2026-04-08T12:31:19.998Z</time></trkpt><trkpt lat="38.13880291836037" lon="15.430399242585823"><ele>402.0</ele><time>2026-04-08T12:31:24Z</time></trkpt><trkpt lat="38.13886526854287" lon="15.43044808494742"><ele>402.0</ele><time>2026-04-08T12:31:30Z</time></trkpt><trkpt lat="38.138925471922086" lon="15.430418405405904"><ele>402.0</ele><time>2026-04-08T12:32:05.999Z</time></trkpt><trkpt lat="38.138966216762505" lon="15.430485838630904"><ele>403.0</ele><time>2026-04-08T12:32:19.999Z</time></trkpt><trkpt lat="38.139027326721774" lon="15.430535869158241"><ele>404.0</ele><time>2026-04-08T12:32:50.998Z</time></trkpt><trkpt lat="38.13906107339841" lon="15.430611642935741"><ele>405.0</ele><time>2026-04-08T12:34:29.999Z</time></trkpt><trkpt lat="38.1389935732307" lon="15.430657940867828"><ele>406.0</ele><time>2026-04-08T12:34:44.999Z</time></trkpt><trkpt lat="38.13893783464509" lon="15.430703007722142"><ele>407.0</ele><time>2026-04-08T12:34:51.998Z</time></trkpt><trkpt lat="38.139005805371916" lon="15.430661900440583"><ele>408.0</ele><time>2026-04-08T12:35:17.998Z</time></trkpt><trkpt lat="38.138948762618995" lon="15.430704135843877"><ele>409.0</ele><time>2026-04-08T12:36:32.999Z</time></trkpt><trkpt lat="38.138880017617716" lon="15.43068965918205"><ele>409.0</ele><time>2026-04-08T12:36:43.999Z</time></trkpt><trkpt lat="38.13881210390589" lon="15.43070055314015"><ele>409.0</ele><time>2026-04-08T12:36:45.999Z</time></trkpt><trkpt lat="38.138743680943406" lon="15.43070445750901"><ele>409.0</ele><time>2026-04-08T12:36:48.998Z</time></trkpt><trkpt lat="38.1386815597636" lon="15.430756097982057"><ele>409.0</ele><time>2026-04-08T12:36:50.998Z</time></trkpt><trkpt lat="38.13862333427455" lon="15.43079146613578"><ele>409.0</ele><time>2026-04-08T12:36:52.998Z</time></trkpt><trkpt lat="38.138544934876144" lon="15.430813394124137"><ele>409.0</ele><time>2026-04-08T12:36:55.998Z</time></trkpt><trkpt lat="38.13850102130012" lon="15.430875171045415"><ele>409.0</ele><time>2026-04-08T12:37:00.998Z</time></trkpt><trkpt lat="38.13845393130033" lon="15.430928665242448"><ele>409.00000000000006</ele><time>2026-04-08T12:37:04.998Z</time></trkpt><trkpt lat="38.138512936019474" lon="15.43100512771325"><ele>409.0</ele><time>2026-04-08T12:37:12.998Z</time></trkpt><trkpt lat="38.138555091020585" lon="15.431083702009301"><ele>409.0</ele><time>2026-04-08T12:37:15.998Z</time></trkpt><trkpt lat="38.13856825721571" lon="15.431187848238949"><ele>409.0</ele><time>2026-04-08T12:37:19.998Z</time></trkpt><trkpt lat="38.13855818962804" lon="15.431291353331972"><ele>409.00000000000006</ele><time>2026-04-08T12:37:22.998Z</time></trkpt><trkpt lat="38.13856589103378" lon="15.431400663340899"><ele>409.0</ele><time>2026-04-08T12:37:25.998Z</time></trkpt><trkpt lat="38.13858718235381" lon="15.431482304259207"><ele>409.6</ele><time>2026-04-08T12:37:28.998Z</time></trkpt><trkpt lat="38.138604517340156" lon="15.431599961593179"><ele>410.2</ele><time>2026-04-08T12:37:32.998Z</time></trkpt><trkpt lat="38.13863579696892" lon="15.431724621421857"><ele>410.8</ele><time>2026-04-08T12:37:36.998Z</time></trkpt><trkpt lat="38.13864607664868" lon="15.431838817430842"><ele>411.40000000000003</ele><time>2026-04-08T12:37:38.998Z</time></trkpt><trkpt lat="38.138573394013015" lon="15.431915230352335"><ele>412.0</ele><time>2026-04-08T12:37:42.999Z</time></trkpt><trkpt lat="38.138535663052814" lon="15.431987362082062"><ele>412.00000000000006</ele><time>2026-04-08T12:37:45.999Z</time></trkpt><trkpt lat="38.13856866050763" lon="15.432090972482353"><ele>412.0</ele><time>2026-04-08T12:38:09.999Z</time></trkpt><trkpt lat="38.138528755783135" lon="15.43216789476497"><ele>412.0</ele><time>2026-04-08T12:38:14.999Z</time></trkpt><trkpt lat="38.13850914291316" lon="15.432245822243285"><ele>412.0</ele><time>2026-04-08T12:38:19.999Z</time></trkpt><trkpt lat="38.13847377361869" lon="15.432331312768893"><ele>412.00000000000006</ele><time>2026-04-08T12:38:23.999Z</time></trkpt><trkpt lat="38.13843364334913" lon="15.4324105747466"><ele>412.0</ele><time>2026-04-08T12:38:29.999Z</time></trkpt><trkpt lat="38.138359509740766" lon="15.432468370288476"><ele>411.00000000000006</ele><time>2026-04-08T12:38:32.999Z</time></trkpt><trkpt lat="38.13828734088603" lon="15.432491700380723"><ele>410.0</ele><time>2026-04-08T12:38:48.999Z</time></trkpt><trkpt lat="38.138230272036246" lon="15.432559084724817"><ele>409.0</ele><time>2026-04-08T12:38:59.998Z</time></trkpt><trkpt lat="38.13816810718498" lon="15.43260178216084"><ele>408.0</ele><time>2026-04-08T12:39:02.998Z</time></trkpt><trkpt lat="38.13815745817237" lon="15.432690241701055"><ele>407.00000000000006</ele><time>2026-04-08T12:39:06.998Z</time></trkpt><trkpt lat="38.138098589968074" lon="15.432747960027521"><ele>406.0</ele><time>2026-04-08T12:39:09.998Z</time></trkpt><trkpt lat="38.138016888444206" lon="15.43277774552525"><ele>408.7142857142857</ele><time>2026-04-08T12:39:36.998Z</time></trkpt><trkpt lat="38.13796150591223" lon="15.432838073379214"><ele>411.42857142857144</ele><time>2026-04-08T12:39:40.998Z</time></trkpt><trkpt lat="38.1379369724054" lon="15.432945490360451"><ele>414.1428571428571</ele><time>2026-04-08T12:39:43.998Z</time></trkpt><trkpt lat="38.13790695658908" lon="15.433020836542504"><ele>416.8571428571429</ele><time>2026-04-08T12:39:45.998Z</time></trkpt><trkpt lat="38.13789815548206" lon="15.433102173670864"><ele>419.57142857142856</ele><time>2026-04-08T12:39:51.999Z</time></trkpt><trkpt lat="38.13790778673376" lon="15.433193755345133"><ele>422.2857142857143</ele><time>2026-04-08T12:40:06.999Z</time></trkpt><trkpt lat="38.137899584553004" lon="15.433274622886621"><ele>425.0</ele><time>2026-04-08T12:40:08.999Z</time></trkpt><trkpt lat="38.13782884720052" lon="15.43338409348433"><ele>424.99999999999994</ele><time>2026-04-08T12:40:52Z</time></trkpt><trkpt lat="38.13778665208395" lon="15.433485868291001"><ele>425.0</ele><time>2026-04-08T12:42:13Z</time></trkpt><trkpt lat="38.13775977421277" lon="15.433561447846934"><ele>425.0</ele><time>2026-04-08T12:42:16Z</time></trkpt><trkpt lat="38.1377201317997" lon="15.433643798075357"><ele>425.0</ele><time>2026-04-08T12:42:27Z</time></trkpt><trkpt lat="38.1377491249822" lon="15.433719703023801"><ele>424.99999999999994</ele><time>2026-04-08T12:42:36Z</time></trkpt><trkpt lat="38.13771351623278" lon="15.43380442574123"><ele>425.0</ele><time>2026-04-08T12:43:15.999Z</time></trkpt><trkpt lat="38.13767769946698" lon="15.433891489806838"><ele>424.2857142857143</ele><time>2026-04-08T12:43:17.999Z</time></trkpt><trkpt lat="38.137635572494325" lon="15.433961514922814"><ele>423.57142857142856</ele><time>2026-04-08T12:43:21.999Z</time></trkpt><trkpt lat="38.137623098623926" lon="15.434053045964713"><ele>422.8571428571429</ele><time>2026-04-08T12:43:24.999Z</time></trkpt><trkpt lat="38.137570567922594" lon="15.434108513991701"><ele>422.1428571428571</ele><time>2026-04-08T12:43:28.999Z</time></trkpt><trkpt lat="38.13753222342466" lon="15.434191198619283"><ele>421.42857142857144</ele><time>2026-04-08T12:43:32.999Z</time></trkpt><trkpt lat="38.13747973107283" lon="15.434267914412638"><ele>420.7142857142857</ele><time>2026-04-08T12:43:42.999Z</time></trkpt><trkpt lat="38.1374187324464" lon="15.434311876509591"><ele>420.0</ele><time>2026-04-08T12:43:46.999Z</time></trkpt><trkpt lat="38.13743871623996" lon="15.43442302500323"><ele>420.0</ele><time>2026-04-08T12:44:15Z</time></trkpt><trkpt lat="38.13738749750335" lon="15.434525954740671"><ele>420.0</ele><time>2026-04-08T12:44:18Z</time></trkpt><trkpt lat="38.13740845672455" lon="15.434602546328618"><ele>420.0</ele><time>2026-04-08T12:44:21Z</time></trkpt><trkpt lat="38.13744771101641" lon="15.434669410981416"><ele>420.0</ele><time>2026-04-08T12:44:23Z</time></trkpt><trkpt lat="38.137441520712485" lon="15.43477407339178"><ele>420.0</ele><time>2026-04-08T12:44:25Z</time></trkpt><trkpt lat="38.13738842951003" lon="15.43483739745962"><ele>420.0</ele><time>2026-04-08T12:44:27Z</time></trkpt><trkpt lat="38.13740567497471" lon="15.434915441222163"><ele>420.0</ele><time>2026-04-08T12:44:30Z</time></trkpt><trkpt lat="38.13741813358671" lon="15.435025352772747"><ele>422.1666666666667</ele><time>2026-04-08T12:44:32Z</time></trkpt><trkpt lat="38.137395073018325" lon="15.435126721688151"><ele>424.33333333333337</ele><time>2026-04-08T12:44:33Z</time></trkpt><trkpt lat="38.1373678820688" lon="15.435214900511493"><ele>426.5</ele><time>2026-04-08T12:44:34Z</time></trkpt><trkpt lat="38.1373431514437" lon="15.435334878787438"><ele>428.6666666666667</ele><time>2026-04-08T12:44:36Z</time></trkpt><trkpt lat="38.13727810374936" lon="15.43524998246778"><ele>430.83333333333337</ele><time>2026-04-08T12:45:09Z</time></trkpt><trkpt lat="38.13720993027113" lon="15.435309444268396"><ele>433.0</ele><time>2026-04-08T12:45:21.999Z</time></trkpt><trkpt lat="38.13720460637801" lon="15.435396105368229"><ele>435.85714285714283</ele><time>2026-04-08T12:45:25.999Z</time></trkpt><trkpt lat="38.13720335912802" lon="15.43547907396751"><ele>438.71428571428567</ele><time>2026-04-08T12:45:29.999Z</time></trkpt><trkpt lat="38.13713703465463" lon="15.435468813309962"><ele>441.57142857142856</ele><time>2026-04-08T12:45:35.999Z</time></trkpt><trkpt lat="38.13708069007706" lon="15.435373493811637"><ele>444.4285714285714</ele><time>2026-04-08T12:45:48.999Z</time></trkpt><trkpt lat="38.13701181829381" lon="15.435318712812615"><ele>447.2857142857143</ele><time>2026-04-08T12:45:51.999Z</time></trkpt><trkpt lat="38.136959104249456" lon="15.435268003830295"><ele>450.14285714285705</ele><time>2026-04-08T12:45:58.999Z</time></trkpt><trkpt lat="38.136902007779625" lon="15.435309628932226"><ele>452.99999999999994</ele><time>2026-04-08T12:46:13Z</time></trkpt><trkpt lat="38.136944653106376" lon="15.435368890034647"><ele>452.99999999999994</ele><time>2026-04-08T12:46:25Z</time></trkpt><trkpt lat="38.136902401495156" lon="15.435439369257303"><ele>453.0</ele><time>2026-04-08T12:46:42Z</time></trkpt><trkpt lat="38.13684300037814" lon="15.435409039078756"><ele>452.99999999999994</ele><time>2026-04-08T12:47:00Z</time></trkpt><trkpt lat="38.13678029283209" lon="15.435372169036604"><ele>452.99999999999994</ele><time>2026-04-08T12:47:35.999Z</time></trkpt><trkpt lat="38.13672811763621" lon="15.435309010335159"><ele>453.0</ele><time>2026-04-08T12:50:55Z</time></trkpt><trkpt lat="38.13667460297151" lon="15.435366097032773"><ele>452.99999999999994</ele><time>2026-04-08T12:50:59Z</time></trkpt><trkpt lat="38.136594567912844" lon="15.435399674468414"><ele>452.99999999999994</ele><time>2026-04-08T12:51:03Z</time></trkpt><trkpt lat="38.13662211497965" lon="15.435473025160377"><ele>457.1428571428571</ele><time>2026-04-08T12:52:40Z</time></trkpt><trkpt lat="38.13668094122688" lon="15.435526287794826"><ele>461.2857142857143</ele><time>2026-04-08T12:52:51Z</time></trkpt><trkpt lat="38.13671038954376" lon="15.435603922911792"><ele>465.42857142857144</ele><time>2026-04-08T12:52:58Z</time></trkpt><trkpt lat="38.13673454722412" lon="15.435681310051105"><ele>469.57142857142856</ele><time>2026-04-08T12:53:01Z</time></trkpt><trkpt lat="38.13667851292317" lon="15.435617554333001"><ele>473.7142857142858</ele><time>2026-04-08T12:53:33.999Z</time></trkpt><trkpt lat="38.136641622194674" lon="15.435685921060866"><ele>477.8571428571429</ele><time>2026-04-08T12:53:54.999Z</time></trkpt><trkpt lat="38.13670511788806" lon="15.435737590662615"><ele>482.0</ele><time>2026-04-08T12:54:00.999Z</time></trkpt><trkpt lat="38.13674968831154" lon="15.4358072417573"><ele>481.99999999999994</ele><time>2026-04-08T12:54:09.999Z</time></trkpt><trkpt lat="38.13668990533442" lon="15.435833275709719"><ele>482.0</ele><time>2026-04-08T12:54:42Z</time></trkpt><trkpt lat="38.136608328936475" lon="15.435800512787637"><ele>482.0</ele><time>2026-04-08T12:54:44Z</time></trkpt><trkpt lat="38.13652353674546" lon="15.435792024573464"><ele>482.0</ele><time>2026-04-08T12:54:46Z</time></trkpt><trkpt lat="38.13661991843378" lon="15.435803840472467"><ele>481.99999999999994</ele><time>2026-04-08T12:56:58Z</time></trkpt><trkpt lat="38.13655507958645" lon="15.435785491692533"><ele>482.0</ele><time>2026-04-08T12:57:17Z</time></trkpt><trkpt lat="38.13650058695634" lon="15.435831611462895"><ele>486.0</ele><time>2026-04-08T13:01:51.999Z</time></trkpt><trkpt lat="38.13643104277506" lon="15.435813010799624"><ele>490.00000000000006</ele><time>2026-04-08T13:01:56.999Z</time></trkpt><trkpt lat="38.136369892468196" lon="15.435790537269614"><ele>494.0</ele><time>2026-04-08T13:01:59.999Z</time></trkpt><trkpt lat="38.13629982644076" lon="15.435797606468764"><ele>498.0</ele><time>2026-04-08T13:02:02.999Z</time></trkpt><trkpt lat="38.13623123708883" lon="15.435814624319015"><ele>502.00000000000006</ele><time>2026-04-08T13:02:04.999Z</time></trkpt><trkpt lat="38.136157296981644" lon="15.435817939355108"><ele>506.0</ele><time>2026-04-08T13:02:07.999Z</time></trkpt><trkpt lat="38.13608775995734" lon="15.435875993783714"><ele>510.0</ele><time>2026-04-08T13:02:10.999Z</time></trkpt><trkpt lat="38.13600530300144" lon="15.435933511727992"><ele>510.0</ele><time>2026-04-08T13:02:13.999Z</time></trkpt><trkpt lat="38.135942114084344" lon="15.435999471063106"><ele>510.00000000000006</ele><time>2026-04-08T13:02:17.999Z</time></trkpt><trkpt lat="38.13589006913547" lon="15.436056466679403"><ele>510.0</ele><time>2026-04-08T13:02:20.999Z</time></trkpt><trkpt lat="38.13583659631678" lon="15.436127565795848"><ele>510.0</ele><time>2026-04-08T13:02:24.999Z</time></trkpt><trkpt lat="38.13577377174245" lon="15.436166820144225"><ele>510.00000000000006</ele><time>2026-04-08T13:02:29.999Z</time></trkpt><trkpt lat="38.13568948513881" lon="15.436155502682247"><ele>510.0</ele><time>2026-04-08T13:02:33.999Z</time></trkpt><trkpt lat="38.135625606478186" lon="15.436136744310742"><ele>510.0</ele><time>2026-04-08T13:02:35.999Z</time></trkpt><trkpt lat="38.135578775387444" lon="15.436036977401823"><ele>513.4285714285714</ele><time>2026-04-08T13:02:56Z</time></trkpt><trkpt lat="38.13549626408478" lon="15.436038661521277"><ele>516.8571428571429</ele><time>2026-04-08T13:02:58Z</time></trkpt><trkpt lat="38.13543651854863" lon="15.43600508462919"><ele>520.2857142857143</ele><time>2026-04-08T13:03:06Z</time></trkpt><trkpt lat="38.13537018297573" lon="15.43603453439732"><ele>523.7142857142858</ele><time>2026-04-08T13:03:13Z</time></trkpt><trkpt lat="38.13542436029881" lon="15.436078813127748"><ele>527.1428571428571</ele><time>2026-04-08T13:03:27Z</time></trkpt><trkpt lat="38.135429840332414" lon="15.436168604989241"><ele>530.5714285714287</ele><time>2026-04-08T13:03:41Z</time></trkpt><trkpt lat="38.13540663883185" lon="15.436245595185763"><ele>534.0</ele><time>2026-04-08T13:03:57.999Z</time></trkpt><trkpt lat="38.135332698654544" lon="15.436255173608348"><ele>534.0000000000001</ele><time>2026-04-08T13:04:07.999Z</time></trkpt><trkpt lat="38.13535738896058" lon="15.436179615172858"><ele>534.0</ele><time>2026-04-08T13:06:22.999Z</time></trkpt><trkpt lat="38.13541892676212" lon="15.43607392500796"><ele>534.0</ele><time>2026-04-08T13:07:22Z</time></trkpt><trkpt lat="38.13543195469309" lon="15.436156538853687"><ele>534.0</ele><time>2026-04-08T13:08:26.999Z</time></trkpt><trkpt lat="38.13536796909084" lon="15.436189250268937"><ele>534.0</ele><time>2026-04-08T13:08:39.999Z</time></trkpt><trkpt lat="38.135331913814916" lon="15.436267566504739"><ele>534.0000000000001</ele><time>2026-04-08T13:12:02Z</time></trkpt><trkpt lat="38.13526759936122" lon="15.43630353421417"><ele>534.0</ele><time>2026-04-08T13:12:45.999Z</time></trkpt><trkpt lat="38.13520310669383" lon="15.436342080631524"><ele>538.1428571428572</ele><time>2026-04-08T13:13:39Z</time></trkpt><trkpt lat="38.13525383406898" lon="15.436393815795332"><ele>542.2857142857143</ele><time>2026-04-08T13:14:48.999Z</time></trkpt><trkpt lat="38.135296800219606" lon="15.436455820028225"><ele>546.4285714285714</ele><time>2026-04-08T13:16:25.999Z</time></trkpt><trkpt lat="38.1353469923503" lon="15.436508766026792"><ele>550.5714285714287</ele><time>2026-04-08T13:17:57Z</time></trkpt><trkpt lat="38.135292877625005" lon="15.436463330572897"><ele>554.7142857142858</ele><time>2026-04-08T13:18:10Z</time></trkpt><trkpt lat="38.13536775665628" lon="15.43648175602505"><ele>558.8571428571429</ele><time>2026-04-08T13:21:49Z</time></trkpt><trkpt lat="38.13531982181328" lon="15.436426793933759"><ele>563.0</ele><time>2026-04-08T13:23:32.999Z</time></trkpt><trkpt lat="38.13526442281667" lon="15.43649165330223"><ele>563.0</ele><time>2026-04-08T13:23:41.998Z</time></trkpt><trkpt lat="38.1353380470644" lon="15.436475702886398"><ele>563.0</ele><time>2026-04-08T13:25:31.999Z</time></trkpt><trkpt lat="38.13538734939955" lon="15.436556128003732"><ele>563.0</ele><time>2026-04-08T13:28:14Z</time></trkpt><trkpt lat="38.135313415711025" lon="15.436486173901715"><ele>563.0</ele><time>2026-04-08T13:29:41.998Z</time></trkpt><trkpt lat="38.13524515130717" lon="15.43648513468251"><ele>563.0</ele><time>2026-04-08T13:29:56.998Z</time></trkpt><trkpt lat="38.13522182837618" lon="15.436578396268503"><ele>563.0</ele><time>2026-04-08T13:30:01.998Z</time></trkpt><trkpt lat="38.13517515978945" lon="15.436671297189479"><ele>563.0</ele><time>2026-04-08T13:30:06Z</time></trkpt><trkpt lat="38.13512479738975" lon="15.43675878797337"><ele>563.0</ele><time>2026-04-08T13:30:09Z</time></trkpt><trkpt lat="38.13515234450957" lon="15.436843807361727"><ele>563.0</ele><time>2026-04-08T13:30:14Z</time></trkpt><trkpt lat="38.13522788488172" lon="15.436846343562092"><ele>563.0</ele><time>2026-04-08T13:30:33Z</time></trkpt><trkpt lat="38.13528983325226" lon="15.436886507024655"><ele>563.0</ele><time>2026-04-08T13:30:36Z</time></trkpt><trkpt lat="38.135309513832894" lon="15.436963648073027"><ele>563.0</ele><time>2026-04-08T13:31:27.999Z</time></trkpt><trkpt lat="38.135303198817965" lon="15.437047149138635"><ele>563.0</ele><time>2026-04-08T13:31:35.999Z</time></trkpt><trkpt lat="38.13530732945683" lon="15.43713479662682"><ele>567.4285714285714</ele><time>2026-04-08T13:31:42.999Z</time></trkpt><trkpt lat="38.13528928521316" lon="15.437214257339189"><ele>571.8571428571429</ele><time>2026-04-08T13:31:49.998Z</time></trkpt><trkpt lat="38.1352202559532" lon="15.437254857511645"><ele>576.2857142857143</ele><time>2026-04-08T13:31:59.998Z</time></trkpt><trkpt lat="38.13517689740969" lon="15.43731935210489"><ele>580.7142857142858</ele><time>2026-04-08T13:32:05.998Z</time></trkpt><trkpt lat="38.135112285245384" lon="15.437348425166386"><ele>585.1428571428572</ele><time>2026-04-08T13:32:16Z</time></trkpt><trkpt lat="38.13504491256121" lon="15.437358463723163"><ele>589.5714285714286</ele><time>2026-04-08T13:32:19Z</time></trkpt><trkpt lat="38.13508385903787" lon="15.437435225351248"><ele>594.0</ele><time>2026-04-08T13:32:25Z</time></trkpt><trkpt lat="38.13505053183845" lon="15.437514646206385"><ele>594.0</ele><time>2026-04-08T13:32:33Z</time></trkpt><trkpt lat="38.13508399042397" lon="15.437589590255785"><ele>594.0</ele><time>2026-04-08T13:32:37Z</time></trkpt><trkpt lat="38.13509731220454" lon="15.437696719730502"><ele>594.0</ele><time>2026-04-08T13:32:40Z</time></trkpt><trkpt lat="38.13505290119292" lon="15.437770433244172"><ele>594.0</ele><time>2026-04-08T13:32:42Z</time></trkpt><trkpt lat="38.13497208569839" lon="15.437793663237185"><ele>594.0</ele><time>2026-04-08T13:32:44Z</time></trkpt><trkpt lat="38.134899323087076" lon="15.437817171849963"><ele>594.0</ele><time>2026-04-08T13:32:47Z</time></trkpt><trkpt lat="38.13480523756547" lon="15.437885827118855"><ele>601.3333333333334</ele><time>2026-04-08T13:33:24.999Z</time></trkpt><trkpt lat="38.1347390302142" lon="15.437929654984664"><ele>608.6666666666666</ele><time>2026-04-08T13:33:30.999Z</time></trkpt><trkpt lat="38.13472981187128" lon="15.438011563858115"><ele>616.0</ele><time>2026-04-08T13:33:34.999Z</time></trkpt><trkpt lat="38.134764952934034" lon="15.438096954865625"><ele>623.3333333333333</ele><time>2026-04-08T13:33:39.999Z</time></trkpt><trkpt lat="38.134799999473245" lon="15.438171583222836"><ele>630.6666666666666</ele><time>2026-04-08T13:33:50.998Z</time></trkpt><trkpt lat="38.13473097309212" lon="15.438251111830198"><ele>638.0</ele><time>2026-04-08T13:34:31Z</time></trkpt><trkpt lat="38.134651380607416" lon="15.438267523448083"><ele>641.6666666666666</ele><time>2026-04-08T13:34:35Z</time></trkpt><trkpt lat="38.13456284090884" lon="15.438288405610603"><ele>645.3333333333333</ele><time>2026-04-08T13:34:38Z</time></trkpt><trkpt lat="38.13449555394083" lon="15.438272871046214"><ele>649.0</ele><time>2026-04-08T13:34:43Z</time></trkpt><trkpt lat="38.13443087008142" lon="15.438310738615018"><ele>652.6666666666666</ele><time>2026-04-08T13:34:49Z</time></trkpt><trkpt lat="38.13434709493107" lon="15.438254672235049"><ele>656.3333333333334</ele><time>2026-04-08T13:36:10.998Z</time></trkpt><trkpt lat="38.134339302244" lon="15.438363242163112"><ele>660.0</ele><time>2026-04-08T13:36:28Z</time></trkpt><trkpt lat="38.13428334931148" lon="15.438456843251489"><ele>660.0</ele><time>2026-04-08T13:36:35Z</time></trkpt><trkpt lat="38.13428133459653" lon="15.43858291651599"><ele>660.0</ele><time>2026-04-08T13:36:38Z</time></trkpt><trkpt lat="38.13422523378207" lon="15.438651604695329"><ele>660.0</ele><time>2026-04-08T13:36:40Z</time></trkpt><trkpt lat="38.1341747664807" lon="15.4387329281278"><ele>660.0</ele><time>2026-04-08T13:36:42Z</time></trkpt><trkpt lat="38.13415485949184" lon="15.438818993696241"><ele>660.0</ele><time>2026-04-08T13:36:45Z</time></trkpt><trkpt lat="38.13418014126275" lon="15.438900787871521"><ele>660.0</ele><time>2026-04-08T13:36:49Z</time></trkpt><trkpt lat="38.13414426094473" lon="15.438976827559387"><ele>660.6666666666666</ele><time>2026-04-08T13:36:54Z</time></trkpt><trkpt lat="38.13407183606963" lon="15.438982389605737"><ele>661.3333333333334</ele><time>2026-04-08T13:36:57Z</time></trkpt><trkpt lat="38.13400549238273" lon="15.439037460010645"><ele>662.0</ele><time>2026-04-08T13:37:12.999Z</time></trkpt><trkpt lat="38.133943132978104" lon="15.43906537169808"><ele>662.6666666666667</ele><time>2026-04-08T13:37:19.999Z</time></trkpt><trkpt lat="38.133870413380244" lon="15.439078238619594"><ele>663.3333333333334</ele><time>2026-04-08T13:37:30.999Z</time></trkpt><trkpt lat="38.13388947573551" lon="15.439168392647753"><ele>664.0</ele><time>2026-04-08T13:42:08.998Z</time></trkpt><trkpt lat="38.133808602517306" lon="15.439108605219545"><ele>672.1666666666667</ele><time>2026-04-08T13:44:09.999Z</time></trkpt><trkpt lat="38.133762311079565" lon="15.439024150649105"><ele>680.3333333333334</ele><time>2026-04-08T13:44:12.998Z</time></trkpt><trkpt lat="38.133806111819695" lon="15.439094633044878"><ele>688.5</ele><time>2026-04-08T13:45:54.999Z</time></trkpt><trkpt lat="38.13383476411039" lon="15.4391770949721"><ele>696.6666666666666</ele><time>2026-04-08T13:46:22.998Z</time></trkpt><trkpt lat="38.133742010715864" lon="15.439107365994055"><ele>704.8333333333333</ele><time>2026-04-08T13:47:36.999Z</time></trkpt><trkpt lat="38.13380657945803" lon="15.439120555319581"><ele>713.0</ele><time>2026-04-08T13:52:50.998Z</time></trkpt><trkpt lat="38.13378767126395" lon="15.439208960432538"><ele>713.0</ele><time>2026-04-08T14:03:42Z</time></trkpt><trkpt lat="38.13373592199893" lon="15.439274607082568"><ele>713.0</ele><time>2026-04-08T14:03:44Z</time></trkpt><trkpt lat="38.13366953379109" lon="15.439304092599285"><ele>713.0</ele><time>2026-04-08T14:03:46Z</time></trkpt><trkpt lat="38.133627289789665" lon="15.439398329953894"><ele>713.0</ele><time>2026-04-08T14:03:49Z</time></trkpt><trkpt lat="38.13364219363475" lon="15.439483634761457"><ele>713.0</ele><time>2026-04-08T14:03:50Z</time></trkpt><trkpt lat="38.133647165486046" lon="15.439605267253501"><ele>713.0</ele><time>2026-04-08T14:03:52Z</time></trkpt><trkpt lat="38.1336267816796" lon="15.43968332444041"><ele>713.1428571428571</ele><time>2026-04-08T14:03:59Z</time></trkpt><trkpt lat="38.13365260513802" lon="15.439777102649451"><ele>713.2857142857143</ele><time>2026-04-08T14:04:06.999Z</time></trkpt><trkpt lat="38.13369835962512" lon="15.439853116292277"><ele>713.4285714285714</ele><time>2026-04-08T14:04:10.999Z</time></trkpt><trkpt lat="38.13368348493613" lon="15.43993628192711"><ele>713.5714285714286</ele><time>2026-04-08T14:04:17.999Z</time></trkpt><trkpt lat="38.13372323203667" lon="15.440016721141573"><ele>713.7142857142858</ele><time>2026-04-08T14:04:25.999Z</time></trkpt><trkpt lat="38.13369404133394" lon="15.43994444988247"><ele>713.8571428571429</ele><time>2026-04-08T14:04:53.999Z</time></trkpt><trkpt lat="38.13366569155604" lon="15.439862589639729"><ele>714.0</ele><time>2026-04-08T14:05:28.998Z</time></trkpt><trkpt lat="38.13364271283456" lon="15.439939828305985"><ele>714.0</ele><time>2026-04-08T14:05:33.998Z</time></trkpt><trkpt lat="38.133580193049845" lon="15.439895973721013"><ele>714.0</ele><time>2026-04-08T14:05:38.998Z</time></trkpt><trkpt lat="38.13350460971368" lon="15.439901557605591"><ele>714.0</ele><time>2026-04-08T14:05:41.998Z</time></trkpt><trkpt lat="38.13344145541749" lon="15.439888157715284"><ele>714.0</ele><time>2026-04-08T14:05:45Z</time></trkpt><trkpt lat="38.13339353929817" lon="15.439952745420115"><ele>714.0</ele><time>2026-04-08T14:05:48Z</time></trkpt><trkpt lat="38.13332289133092" lon="15.439953616188948"><ele>714.0</ele><time>2026-04-08T14:05:53Z</time></trkpt><trkpt lat="38.13327431713315" lon="15.439896056651905"><ele>714.0</ele><time>2026-04-08T14:05:55Z</time></trkpt><trkpt lat="38.13318024819758" lon="15.439832315554039"><ele>714.5</ele><time>2026-04-08T14:05:57Z</time></trkpt><trkpt lat="38.133102104224946" lon="15.439793522919905"><ele>715.0</ele><time>2026-04-08T14:06:00Z</time></trkpt><trkpt lat="38.133039449353596" lon="15.439770720580153"><ele>715.5</ele><time>2026-04-08T14:06:04Z</time></trkpt><trkpt lat="38.13298658092134" lon="15.439698837531036"><ele>716.0</ele><time>2026-04-08T14:06:07.999Z</time></trkpt><trkpt lat="38.132931160649875" lon="15.439658644204417"><ele>716.5</ele><time>2026-04-08T14:06:11.999Z</time></trkpt><trkpt lat="38.13286547751054" lon="15.439644109004833"><ele>717.0</ele><time>2026-04-08T14:06:14.999Z</time></trkpt><trkpt lat="38.13271995501029" lon="15.439649411597152"><ele>717.0</ele><time>2026-04-08T14:07:58Z</time></trkpt><trkpt lat="38.132676023359856" lon="15.439781277951512"><ele>717.0</ele><time>2026-04-08T14:08:01Z</time></trkpt><trkpt lat="38.13267455017067" lon="15.439882077886034"><ele>717.0</ele><time>2026-04-08T14:08:03Z</time></trkpt><trkpt lat="38.13270942824222" lon="15.4399501662174"><ele>717.0</ele><time>2026-04-08T14:08:05Z</time></trkpt><trkpt lat="38.13275418603763" lon="15.440081184241091"><ele>717.0</ele><time>2026-04-08T14:08:07Z</time></trkpt><trkpt lat="38.13275365319358" lon="15.440185540605263"><ele>717.0</ele><time>2026-04-08T14:08:24.999Z</time></trkpt><trkpt lat="38.13277764368068" lon="15.440294420780768"><ele>717.0</ele><time>2026-04-08T14:08:26.999Z</time></trkpt><trkpt lat="38.13283456425986" lon="15.44041894581623"><ele>717.0</ele><time>2026-04-08T14:08:28.999Z</time></trkpt><trkpt lat="38.13287297256273" lon="15.440534225783283"><ele>717.0</ele><time>2026-04-08T14:08:29.999Z</time></trkpt><trkpt lat="38.13292475676727" lon="15.44062707395042"><ele>717.0</ele><time>2026-04-08T14:08:30.999Z</time></trkpt><trkpt lat="38.13295859513883" lon="15.440718173841777"><ele>718.0</ele><time>2026-04-08T14:08:31.999Z</time></trkpt><trkpt lat="38.13300179591071" lon="15.440854575027473"><ele>719.0</ele><time>2026-04-08T14:08:33.999Z</time></trkpt><trkpt lat="38.13301184382146" lon="15.440938298284467"><ele>720.0</ele><time>2026-04-08T14:08:34.999Z</time></trkpt><trkpt lat="38.132983899975734" lon="15.44101395126282"><ele>721.0</ele><time>2026-04-08T14:08:36.999Z</time></trkpt><trkpt lat="38.13296273638279" lon="15.441112272361181"><ele>722.0</ele><time>2026-04-08T14:08:38.999Z</time></trkpt><trkpt lat="38.13295945060676" lon="15.441218602544145"><ele>723.0</ele><time>2026-04-08T14:08:39.999Z</time></trkpt><trkpt lat="38.1329521115033" lon="15.441347197627922"><ele>725.0</ele><time>2026-04-08T14:08:40.999Z</time></trkpt><trkpt lat="38.13294312185203" lon="15.441448551496132"><ele>727.0</ele><time>2026-04-08T14:08:41.999Z</time></trkpt><trkpt lat="38.132908689447234" lon="15.441629047632492"><ele>729.0</ele><time>2026-04-08T14:08:43.999Z</time></trkpt><trkpt lat="38.13286768246988" lon="15.441725682036576"><ele>731.0</ele><time>2026-04-08T14:08:44.999Z</time></trkpt><trkpt lat="38.13282782395441" lon="15.441821654846123"><ele>733.0</ele><time>2026-04-08T14:08:45.999Z</time></trkpt><trkpt lat="38.13279933634013" lon="15.441908149178262"><ele>733.0</ele><time>2026-04-08T14:08:46.999Z</time></trkpt><trkpt lat="38.13279581440322" lon="15.442066980840128"><ele>733.0</ele><time>2026-04-08T14:08:48.999Z</time></trkpt><trkpt lat="38.13280519475134" lon="15.442157317998747"><ele>733.0</ele><time>2026-04-08T14:08:49.999Z</time></trkpt><trkpt lat="38.13282714989761" lon="15.442274992066244"><ele>733.0</ele><time>2026-04-08T14:08:50.999Z</time></trkpt><trkpt lat="38.1328277006999" lon="15.442409506062788"><ele>733.0</ele><time>2026-04-08T14:08:51.999Z</time></trkpt><trkpt lat="38.13283254572387" lon="15.442510227052075"><ele>735.8</ele><time>2026-04-08T14:08:52.999Z</time></trkpt><trkpt lat="38.13282823096802" lon="15.44264224758255"><ele>738.5999999999999</ele><time>2026-04-08T14:08:53.999Z</time></trkpt><trkpt lat="38.132809918862165" lon="15.44277450028591"><ele>741.4000000000001</ele><time>2026-04-08T14:08:54.999Z</time></trkpt><trkpt lat="38.13278720124596" lon="15.44288963351081"><ele>744.2</ele><time>2026-04-08T14:08:55.999Z</time></trkpt><trkpt lat="38.132769036958365" lon="15.442986689062316"><ele>747.0</ele><time>2026-04-08T14:08:56.999Z</time></trkpt><trkpt lat="38.13272930334917" lon="15.443069889228756"><ele>748.6666666666666</ele><time>2026-04-08T14:08:57.999Z</time></trkpt><trkpt lat="38.1326794555251" lon="15.443122872784814"><ele>750.3333333333334</ele><time>2026-04-08T14:08:58.999Z</time></trkpt><trkpt lat="38.13260921506917" lon="15.443179217961248"><ele>752.0</ele><time>2026-04-08T14:08:59.999Z</time></trkpt><trkpt lat="38.13255853052509" lon="15.443251936728194"><ele>753.6666666666667</ele><time>2026-04-08T14:09:00.999Z</time></trkpt><trkpt lat="38.13249901286898" lon="15.443324762027952"><ele>755.3333333333334</ele><time>2026-04-08T14:09:01.999Z</time></trkpt><trkpt lat="38.132439597527345" lon="15.443429077325247"><ele>757.0</ele><time>2026-04-08T14:09:03.999Z</time></trkpt><trkpt lat="38.132370428062366" lon="15.443519338097627"><ele>757.0</ele><time>2026-04-08T14:09:05.999Z</time></trkpt><trkpt lat="38.13232396945481" lon="15.443663578173012"><ele>757.0</ele><time>2026-04-08T14:09:07.998Z</time></trkpt><trkpt lat="38.132305576585125" lon="15.443789601118501"><ele>757.0</ele><time>2026-04-08T14:09:08.998Z</time></trkpt><trkpt lat="38.13229220571877" lon="15.443880925547251"><ele>757.0</ele><time>2026-04-08T14:09:10.998Z</time></trkpt><trkpt lat="38.132241108716826" lon="15.443952920591503"><ele>757.0</ele><time>2026-04-08T14:09:14.998Z</time></trkpt><trkpt lat="38.132155094421854" lon="15.444091337260339"><ele>763.5</ele><time>2026-04-08T14:09:16.998Z</time></trkpt><trkpt lat="38.1319722602027" lon="15.444134741806467"><ele>770.0</ele><time>2026-04-08T14:09:18.998Z</time></trkpt><trkpt lat="38.13189390944325" lon="15.444101198158032"><ele>776.5</ele><time>2026-04-08T14:09:19.998Z</time></trkpt><trkpt lat="38.131797877191715" lon="15.444007754873965"><ele>783.0</ele><time>2026-04-08T14:09:20.998Z</time></trkpt><trkpt lat="38.131720860520716" lon="15.443952162339812"><ele>783.0</ele><time>2026-04-08T14:09:22.998Z</time></trkpt><trkpt lat="38.13169115926471" lon="15.443865974952654"><ele>783.0</ele><time>2026-04-08T14:09:23.998Z</time></trkpt><trkpt lat="38.131635968514416" lon="15.44379708695395"><ele>783.0</ele><time>2026-04-08T14:09:24.998Z</time></trkpt><trkpt lat="38.13157041897662" lon="15.443740935936898"><ele>783.0</ele><time>2026-04-08T14:09:25.998Z</time></trkpt><trkpt lat="38.13147431900251" lon="15.443716098534876"><ele>783.0</ele><time>2026-04-08T14:09:26.998Z</time></trkpt><trkpt lat="38.13139245386435" lon="15.443608735390484"><ele>783.0</ele><time>2026-04-08T14:09:27.998Z</time></trkpt><trkpt lat="38.13131890232151" lon="15.44353592740545"><ele>779.0</ele><time>2026-04-08T14:09:28.998Z</time></trkpt><trkpt lat="38.13124644932193" lon="15.443467967957815"><ele>775.0</ele><time>2026-04-08T14:09:29.998Z</time></trkpt><trkpt lat="38.13117180704024" lon="15.443369966116938"><ele>771.0</ele><time>2026-04-08T14:09:30.998Z</time></trkpt><trkpt lat="38.13113177688367" lon="15.44326700630605"><ele>767.0</ele><time>2026-04-08T14:09:31.998Z</time></trkpt><trkpt lat="38.13111825714235" lon="15.443150424881718"><ele>763.0</ele><time>2026-04-08T14:09:32.998Z</time></trkpt><trkpt lat="38.131073748965925" lon="15.44306202395249"><ele>763.0</ele><time>2026-04-08T14:09:33.998Z</time></trkpt><trkpt lat="38.13103499004361" lon="15.442996841211809"><ele>763.0</ele><time>2026-04-08T14:09:34.998Z</time></trkpt><trkpt lat="38.13096192554044" lon="15.442963111664872"><ele>763.0</ele><time>2026-04-08T14:09:36.998Z</time></trkpt><trkpt lat="38.130935386379285" lon="15.443058262126927"><ele>763.0</ele><time>2026-04-08T14:09:39.998Z</time></trkpt><trkpt lat="38.13095825877575" lon="15.443208110532492"><ele>763.0</ele><time>2026-04-08T14:09:42.998Z</time></trkpt><trkpt lat="38.13094005309363" lon="15.443302574358867"><ele>763.0</ele><time>2026-04-08T14:09:43.998Z</time></trkpt><trkpt lat="38.13094784587557" lon="15.443431108253717"><ele>763.0</ele><time>2026-04-08T14:09:44.998Z</time></trkpt><trkpt lat="38.13091657319225" lon="15.443534336737285"><ele>763.0</ele><time>2026-04-08T14:09:45.998Z</time></trkpt><trkpt lat="38.130927659229215" lon="15.443647783219914"><ele>763.0</ele><time>2026-04-08T14:09:46.998Z</time></trkpt><trkpt lat="38.130936004697645" lon="15.443731780304491"><ele>763.0</ele><time>2026-04-08T14:09:47.998Z</time></trkpt><trkpt lat="38.13091749406409" lon="15.443814906508777"><ele>763.0</ele><time>2026-04-08T14:09:49.998Z</time></trkpt><trkpt lat="38.130835423125895" lon="15.443856308029549"><ele>763.0</ele><time>2026-04-08T14:09:50.998Z</time></trkpt><trkpt lat="38.13071674154577" lon="15.443871537088077"><ele>765.6666666666667</ele><time>2026-04-08T14:09:52.998Z</time></trkpt><trkpt lat="38.13062888188663" lon="15.44385403907859"><ele>768.3333333333334</ele><time>2026-04-08T14:09:54.998Z</time></trkpt><trkpt lat="38.13052232171129" lon="15.443853656167352"><ele>771.0</ele><time>2026-04-08T14:09:57Z</time></trkpt><trkpt lat="38.13045095954108" lon="15.443844547202918"><ele>773.6666666666667</ele><time>2026-04-08T14:09:58Z</time></trkpt><trkpt lat="38.13036983640169" lon="15.443853214235265"><ele>776.3333333333334</ele><time>2026-04-08T14:09:59Z</time></trkpt><trkpt lat="38.13029098765743" lon="15.44388815676183"><ele>779.0</ele><time>2026-04-08T14:10:00Z</time></trkpt><trkpt lat="38.1301821586015" lon="15.443865006473997"><ele>779.0</ele><time>2026-04-08T14:10:02Z</time></trkpt><trkpt lat="38.13009370801289" lon="15.443833166129112"><ele>779.0</ele><time>2026-04-08T14:10:04Z</time></trkpt><trkpt lat="38.13002395825078" lon="15.443830453883681"><ele>779.0</ele><time>2026-04-08T14:10:08Z</time></trkpt><trkpt lat="38.129929521689085" lon="15.443917395824872"><ele>779.0</ele><time>2026-04-08T14:10:10Z</time></trkpt><trkpt lat="38.129843475536774" lon="15.444002018255603"><ele>779.0</ele><time>2026-04-08T14:10:12Z</time></trkpt><trkpt lat="38.12977229239714" lon="15.444070057493532"><ele>780.8000000000001</ele><time>2026-04-08T14:10:13Z</time></trkpt><trkpt lat="38.129742392828746" lon="15.44418280616554"><ele>782.6</ele><time>2026-04-08T14:10:15Z</time></trkpt><trkpt lat="38.1297063550664" lon="15.444317655809654"><ele>784.4</ele><time>2026-04-08T14:10:16.999Z</time></trkpt><trkpt lat="38.12969107913877" lon="15.444435365007735"><ele>786.2</ele><time>2026-04-08T14:10:17.999Z</time></trkpt><trkpt lat="38.129656869580685" lon="15.44455336809525"><ele>788.0</ele><time>2026-04-08T14:10:18.999Z</time></trkpt><trkpt lat="38.12960994539418" lon="15.444679302032924"><ele>788.0</ele><time>2026-04-08T14:10:19.999Z</time></trkpt><trkpt lat="38.129587872201824" lon="15.444776037156844"><ele>788.0</ele><time>2026-04-08T14:10:20.999Z</time></trkpt><trkpt lat="38.12959470727493" lon="15.444924487765672"><ele>788.0</ele><time>2026-04-08T14:10:22.999Z</time></trkpt><trkpt lat="38.12961355665948" lon="15.44503565953329"><ele>788.0</ele><time>2026-04-08T14:10:23.999Z</time></trkpt><trkpt lat="38.12963307602002" lon="15.44515918893864"><ele>788.0</ele><time>2026-04-08T14:10:24.999Z</time></trkpt><trkpt lat="38.129667400877814" lon="15.4452575851448"><ele>788.0</ele><time>2026-04-08T14:10:25.999Z</time></trkpt><trkpt lat="38.129637582584245" lon="15.445372852017504"><ele>788.0</ele><time>2026-04-08T14:10:27.999Z</time></trkpt><trkpt lat="38.129543641968205" lon="15.445399668575309"><ele>788.0</ele><time>2026-04-08T14:10:29.999Z</time></trkpt><trkpt lat="38.129498636631396" lon="15.445343265251118"><ele>788.0</ele><time>2026-04-08T14:10:30.999Z</time></trkpt><trkpt lat="38.12939558195983" lon="15.44531310700618"><ele>788.0</ele><time>2026-04-08T14:10:31.999Z</time></trkpt><trkpt lat="38.12930988940092" lon="15.445271960924112"><ele>788.0</ele><time>2026-04-08T14:10:32.999Z</time></trkpt><trkpt lat="38.129219067705606" lon="15.44528775385527"><ele>788.0</ele><time>2026-04-08T14:10:34.999Z</time></trkpt><trkpt lat="38.1290901859674" lon="15.445316299338625"><ele>788.0</ele><time>2026-04-08T14:10:36.999Z</time></trkpt><trkpt lat="38.12902257629878" lon="15.44522558267965"><ele>788.0</ele><time>2026-04-08T14:10:38.999Z</time></trkpt><trkpt lat="38.12894222786015" lon="15.445180558117276"><ele>788.0</ele><time>2026-04-08T14:10:40.999Z</time></trkpt><trkpt lat="38.128879765425054" lon="15.445199431756288"><ele>788.1666666666667</ele><time>2026-04-08T14:10:41.999Z</time></trkpt><trkpt lat="38.12880678718319" lon="15.445198138947063"><ele>788.3333333333334</ele><time>2026-04-08T14:10:42.999Z</time></trkpt><trkpt lat="38.1287386334128" lon="15.445185564308902"><ele>788.5</ele><time>2026-04-08T14:10:43.999Z</time></trkpt><trkpt lat="38.12865978872017" lon="15.445184484693824"><ele>788.6666666666667</ele><time>2026-04-08T14:10:44.999Z</time></trkpt><trkpt lat="38.12858198560025" lon="15.445164811583505"><ele>788.8333333333334</ele><time>2026-04-08T14:10:45.999Z</time></trkpt><trkpt lat="38.1285015206028" lon="15.445184679265147"><ele>789.0</ele><time>2026-04-08T14:10:47.999Z</time></trkpt><trkpt lat="38.12857101545363" lon="15.445294224501657"><ele>789.0</ele><time>2026-04-08T14:10:49.999Z</time></trkpt><trkpt lat="38.128646099686186" lon="15.445319689402776"><ele>789.0</ele><time>2026-04-08T14:10:50.999Z</time></trkpt><trkpt lat="38.128718457144245" lon="15.445342050524518"><ele>789.0</ele><time>2026-04-08T14:10:51.999Z</time></trkpt><trkpt lat="38.12876929749439" lon="15.445400739101267"><ele>789.0</ele><time>2026-04-08T14:10:53.999Z</time></trkpt><trkpt lat="38.12893084182284" lon="15.445554377732119"><ele>789.0</ele><time>2026-04-08T14:10:56.999Z</time></trkpt><trkpt lat="38.129018999003684" lon="15.445654921964838"><ele>794.6666666666666</ele><time>2026-04-08T14:10:58.999Z</time></trkpt><trkpt lat="38.12908775537852" lon="15.44572195425067"><ele>800.3333333333333</ele><time>2026-04-08T14:10:59.999Z</time></trkpt><trkpt lat="38.12915269035483" lon="15.445772573939774"><ele>806.0</ele><time>2026-04-08T14:11:00.999Z</time></trkpt><trkpt lat="38.12921556418577" lon="15.445809742992722"><ele>811.6666666666666</ele><time>2026-04-08T14:11:01.999Z</time></trkpt><trkpt lat="38.129276861623225" lon="15.445844007514319"><ele>817.3333333333333</ele><time>2026-04-08T14:11:02.999Z</time></trkpt><trkpt lat="38.129342301960705" lon="15.445890556411364"><ele>823.0</ele><time>2026-04-08T14:11:03.999Z</time></trkpt><trkpt lat="38.12941789371178" lon="15.445952441399884"><ele>823.0</ele><time>2026-04-08T14:11:04.999Z</time></trkpt><trkpt lat="38.12949175235042" lon="15.446006027345057"><ele>823.0</ele><time>2026-04-08T14:11:05.999Z</time></trkpt><trkpt lat="38.12956316180723" lon="15.446052708690427"><ele>823.0</ele><time>2026-04-08T14:11:06.999Z</time></trkpt><trkpt lat="38.12964663793492" lon="15.446102116081745"><ele>823.0</ele><time>2026-04-08T14:11:07.999Z</time></trkpt><trkpt lat="38.129755645693265" lon="15.446166873019646"><ele>823.0</ele><time>2026-04-08T14:11:08.999Z</time></trkpt><trkpt lat="38.129852725209176" lon="15.446220066025843"><ele>822.9999999999999</ele><time>2026-04-08T14:11:09.999Z</time></trkpt><trkpt lat="38.129921582845874" lon="15.44624317843006"><ele>823.0</ele><time>2026-04-08T14:11:10.999Z</time></trkpt><trkpt lat="38.12998341351375" lon="15.44622103069727"><ele>823.0</ele><time>2026-04-08T14:11:12.998Z</time></trkpt><trkpt lat="38.12987086561065" lon="15.446259768961951"><ele>823.0</ele><time>2026-04-08T14:11:15.998Z</time></trkpt><trkpt lat="38.129803376293296" lon="15.446285970840021"><ele>822.9999999999999</ele><time>2026-04-08T14:11:33.998Z</time></trkpt><trkpt lat="38.12969858844167" lon="15.446303566386508"><ele>823.0</ele><time>2026-04-08T14:11:36.998Z</time></trkpt><trkpt lat="38.129611561940614" lon="15.446296199976972"><ele>823.0</ele><time>2026-04-08T14:11:38.998Z</time></trkpt><trkpt lat="38.129532693688006" lon="15.446242186935525"><ele>823.0</ele><time>2026-04-08T14:11:54.998Z</time></trkpt><trkpt lat="38.12945633935702" lon="15.446274271367562"><ele>823.0</ele><time>2026-04-08T14:12:03Z</time></trkpt><trkpt lat="38.12936985838497" lon="15.446309961606218"><ele>823.0</ele><time>2026-04-08T14:12:05Z</time></trkpt><trkpt lat="38.12927405809385" lon="15.446318051043432"><ele>823.0</ele><time>2026-04-08T14:12:07Z</time></trkpt><trkpt lat="38.12916748307995" lon="15.446331995561561"><ele>826.8</ele><time>2026-04-08T14:12:09Z</time></trkpt><trkpt lat="38.12904956440151" lon="15.446349570911229"><ele>830.5999999999999</ele><time>2026-04-08T14:12:11Z</time></trkpt><trkpt lat="38.12892849742989" lon="15.44638152022416"><ele>834.4000000000001</ele><time>2026-04-08T14:12:13Z</time></trkpt><trkpt lat="38.128866045053876" lon="15.446422144896449"><ele>838.2</ele><time>2026-04-08T14:12:14Z</time></trkpt><trkpt lat="38.12878062834997" lon="15.446525827305928"><ele>842.0</ele><time>2026-04-08T14:12:16Z</time></trkpt><trkpt lat="38.12871796365903" lon="15.446587041962651"><ele>842.0</ele><time>2026-04-08T14:12:17Z</time></trkpt><trkpt lat="38.12866497240463" lon="15.44666848856194"><ele>842.0</ele><time>2026-04-08T14:12:18Z</time></trkpt><trkpt lat="38.12869135346297" lon="15.446846089070464"><ele>842.0</ele><time>2026-04-08T14:12:20Z</time></trkpt><trkpt lat="38.12869329793021" lon="15.446948928511343"><ele>842.0</ele><time>2026-04-08T14:12:20.999Z</time></trkpt><trkpt lat="38.12868951098805" lon="15.447048887190965"><ele>842.0</ele><time>2026-04-08T14:12:21.999Z</time></trkpt><trkpt lat="38.12868347696612" lon="15.447132974015128"><ele>844.1666666666667</ele><time>2026-04-08T14:12:22.999Z</time></trkpt><trkpt lat="38.12868267156254" lon="15.447223001186861"><ele>846.3333333333334</ele><time>2026-04-08T14:12:23.999Z</time></trkpt><trkpt lat="38.12868319724797" lon="15.447312251243751"><ele>848.5</ele><time>2026-04-08T14:12:24.999Z</time></trkpt><trkpt lat="38.12868481145016" lon="15.44742547710453"><ele>850.6666666666667</ele><time>2026-04-08T14:12:25.999Z</time></trkpt><trkpt lat="38.12868294677193" lon="15.447561501589849"><ele>852.8333333333334</ele><time>2026-04-08T14:12:26.999Z</time></trkpt><trkpt lat="38.1286909315647" lon="15.447685960106819"><ele>855.0</ele><time>2026-04-08T14:12:27.999Z</time></trkpt><trkpt lat="38.1286721626258" lon="15.447777521988074"><ele>855.0</ele><time>2026-04-08T14:12:28.999Z</time></trkpt><trkpt lat="38.1286750788739" lon="15.447916365829347"><ele>855.0</ele><time>2026-04-08T14:12:29.999Z</time></trkpt><trkpt lat="38.12864847885969" lon="15.448027655818839"><ele>855.0</ele><time>2026-04-08T14:12:30.999Z</time></trkpt><trkpt lat="38.12861366940002" lon="15.44816699980377"><ele>855.0</ele><time>2026-04-08T14:12:31.999Z</time></trkpt><trkpt lat="38.12859996398206" lon="15.448272454001422"><ele>855.0</ele><time>2026-04-08T14:12:32.999Z</time></trkpt><trkpt lat="38.128545864497454" lon="15.448369672187313"><ele>854.8333333333334</ele><time>2026-04-08T14:12:34.999Z</time></trkpt><trkpt lat="38.12847217064043" lon="15.44837144987186"><ele>854.6666666666667</ele><time>2026-04-08T14:12:35.999Z</time></trkpt><trkpt lat="38.12838128637007" lon="15.448372431926714"><ele>854.5</ele><time>2026-04-08T14:12:36.999Z</time></trkpt><trkpt lat="38.12830368196143" lon="15.448392456449277"><ele>854.3333333333334</ele><time>2026-04-08T14:12:37.999Z</time></trkpt><trkpt lat="38.12822688526334" lon="15.448387705499341"><ele>854.1666666666667</ele><time>2026-04-08T14:12:38.999Z</time></trkpt><trkpt lat="38.12814382558753" lon="15.448402006841908"><ele>854.0</ele><time>2026-04-08T14:12:39.999Z</time></trkpt><trkpt lat="38.12806498208164" lon="15.448420407497744"><ele>854.0</ele><time>2026-04-08T14:12:40.999Z</time></trkpt><trkpt lat="38.12797010805725" lon="15.448476181416833"><ele>854.0000000000001</ele><time>2026-04-08T14:12:41.999Z</time></trkpt><trkpt lat="38.12787931413351" lon="15.448546644725202"><ele>854.0000000000001</ele><time>2026-04-08T14:12:42.999Z</time></trkpt><trkpt lat="38.127798245317265" lon="15.448588973572255"><ele>854.0</ele><time>2026-04-08T14:12:43.999Z</time></trkpt><trkpt lat="38.12772094721503" lon="15.448647042365813"><ele>854.0</ele><time>2026-04-08T14:12:44.999Z</time></trkpt><trkpt lat="38.12761922344367" lon="15.448666085453999"><ele>854.0</ele><time>2026-04-08T14:12:45.999Z</time></trkpt><trkpt lat="38.12753222839144" lon="15.448686595541805"><ele>854.0000000000001</ele><time>2026-04-08T14:12:46.999Z</time></trkpt><trkpt lat="38.12743216771006" lon="15.44871688737127"><ele>854.0000000000001</ele><time>2026-04-08T14:12:47.999Z</time></trkpt><trkpt lat="38.12734783360474" lon="15.448746316567014"><ele>854.0</ele><time>2026-04-08T14:12:48.999Z</time></trkpt><trkpt lat="38.12728142485562" lon="15.448738147582276"><ele>854.0</ele><time>2026-04-08T14:12:50.999Z</time></trkpt><trkpt lat="38.127193918950105" lon="15.448666338273453"><ele>854.6666666666667</ele><time>2026-04-08T14:12:52.999Z</time></trkpt><trkpt lat="38.127116277049865" lon="15.448643313659506"><ele>855.3333333333334</ele><time>2026-04-08T14:12:53.999Z</time></trkpt><trkpt lat="38.127032687136534" lon="15.448605400325143"><ele>856.0</ele><time>2026-04-08T14:12:54.999Z</time></trkpt><trkpt lat="38.12697400598106" lon="15.448571773014567"><ele>856.6666666666667</ele><time>2026-04-08T14:12:55.999Z</time></trkpt><trkpt lat="38.12691005546047" lon="15.4485484889404"><ele>857.3333333333334</ele><time>2026-04-08T14:12:56.999Z</time></trkpt><trkpt lat="38.12679810787505" lon="15.448648535595444"><ele>858.0</ele><time>2026-04-08T14:12:58.999Z</time></trkpt><trkpt lat="38.12675586720277" lon="15.4487230183642"><ele>861.8333333333334</ele><time>2026-04-08T14:12:59.999Z</time></trkpt><trkpt lat="38.12674203018592" lon="15.448884317221365"><ele>865.6666666666667</ele><time>2026-04-08T14:13:01.999Z</time></trkpt><trkpt lat="38.126716176820544" lon="15.448962963888153"><ele>869.5</ele><time>2026-04-08T14:13:02.999Z</time></trkpt><trkpt lat="38.12666792435863" lon="15.449026364281385"><ele>873.3333333333334</ele><time>2026-04-08T14:13:03.999Z</time></trkpt><trkpt lat="38.12658836216881" lon="15.449061417993123"><ele>877.1666666666667</ele><time>2026-04-08T14:13:05.999Z</time></trkpt><trkpt lat="38.126543650792975" lon="15.449125947334515"><ele>881.0</ele><time>2026-04-08T14:13:06.999Z</time></trkpt><trkpt lat="38.12651515432677" lon="15.449198548793428"><ele>881.0</ele><time>2026-04-08T14:13:07.999Z</time></trkpt><trkpt lat="38.12641159435973" lon="15.449302822647278"><ele>880.9999999999999</ele><time>2026-04-08T14:13:09.999Z</time></trkpt><trkpt lat="38.126340182462485" lon="15.449342759094892"><ele>880.9999999999999</ele><time>2026-04-08T14:13:10.999Z</time></trkpt><trkpt lat="38.12627265748176" lon="15.449384596236449"><ele>881.0</ele><time>2026-04-08T14:13:11.999Z</time></trkpt><trkpt lat="38.12624167323863" lon="15.449474396460886"><ele>881.0</ele><time>2026-04-08T14:13:13.999Z</time></trkpt><trkpt lat="38.12629907844924" lon="15.449588902776878"><ele>882.0000000000001</ele><time>2026-04-08T14:13:15.999Z</time></trkpt><trkpt lat="38.12635747489589" lon="15.44969173135004"><ele>883.0</ele><time>2026-04-08T14:13:16.999Z</time></trkpt><trkpt lat="38.12641712222889" lon="15.449778501045065"><ele>884.0</ele><time>2026-04-08T14:13:17.998Z</time></trkpt><trkpt lat="38.12647383549447" lon="15.449851701251466"><ele>885.0</ele><time>2026-04-08T14:13:18.998Z</time></trkpt><trkpt lat="38.12652971750316" lon="15.44993647611199"><ele>886.0000000000001</ele><time>2026-04-08T14:13:19.998Z</time></trkpt><trkpt lat="38.12657238106828" lon="15.450006206634466"><ele>887.0</ele><time>2026-04-08T14:13:20.998Z</time></trkpt><trkpt lat="38.12662925072136" lon="15.450064331021618"><ele>887.0</ele><time>2026-04-08T14:13:22.998Z</time></trkpt><trkpt lat="38.126676130812214" lon="15.449940246106676"><ele>887.0</ele><time>2026-04-08T14:13:24.998Z</time></trkpt><trkpt lat="38.126725831167136" lon="15.449858612048324"><ele>887.0</ele><time>2026-04-08T14:13:25.998Z</time></trkpt><trkpt lat="38.126788251902866" lon="15.449774808807177"><ele>887.0</ele><time>2026-04-08T14:13:26.998Z</time></trkpt><trkpt lat="38.12685234391981" lon="15.4496726368883"><ele>887.0</ele><time>2026-04-08T14:13:27.998Z</time></trkpt><trkpt lat="38.12692995413691" lon="15.449609925887385"><ele>887.0000000000001</ele><time>2026-04-08T14:13:28.998Z</time></trkpt><trkpt lat="38.12700693820653" lon="15.449604457304343"><ele>887.0</ele><time>2026-04-08T14:13:29.998Z</time></trkpt><trkpt lat="38.12708985431409" lon="15.449598396806104"><ele>887.0</ele><time>2026-04-08T14:13:30.998Z</time></trkpt><trkpt lat="38.12716753622343" lon="15.449617430305425"><ele>887.0</ele><time>2026-04-08T14:13:31.998Z</time></trkpt><trkpt lat="38.127247472393144" lon="15.449658013261054"><ele>887.0000000000001</ele><time>2026-04-08T14:13:32.998Z</time></trkpt><trkpt lat="38.12732585755216" lon="15.449718968109217"><ele>887.0</ele><time>2026-04-08T14:13:33.998Z</time></trkpt><trkpt lat="38.127402923903546" lon="15.449777340582134"><ele>889.2</ele><time>2026-04-08T14:13:34.998Z</time></trkpt><trkpt lat="38.12748578258171" lon="15.44982606784373"><ele>891.4000000000001</ele><time>2026-04-08T14:13:35.998Z</time></trkpt><trkpt lat="38.127569546124114" lon="15.44989686579808"><ele>893.5999999999999</ele><time>2026-04-08T14:13:36.998Z</time></trkpt><trkpt lat="38.1276494601902" lon="15.449962216170196"><ele>895.8</ele><time>2026-04-08T14:13:37.998Z</time></trkpt><trkpt lat="38.12774732486327" lon="15.450020378941394"><ele>898.0</ele><time>2026-04-08T14:13:38.998Z</time></trkpt><trkpt lat="38.12782694170515" lon="15.450098024104966"><ele>897.9999999999999</ele><time>2026-04-08T14:13:39.998Z</time></trkpt><trkpt lat="38.127900839948495" lon="15.450148588849519"><ele>898.0</ele><time>2026-04-08T14:13:40.998Z</time></trkpt><trkpt lat="38.12796674169209" lon="15.450195759866743"><ele>898.0</ele><time>2026-04-08T14:13:41.998Z</time></trkpt><trkpt lat="38.128032622270446" lon="15.450241884175835"><ele>898.0</ele><time>2026-04-08T14:13:42.998Z</time></trkpt><trkpt lat="38.12811005596407" lon="15.450262848125158"><ele>897.9999999999999</ele><time>2026-04-08T14:13:43.998Z</time></trkpt><trkpt lat="38.12819202859207" lon="15.450344657489014"><ele>898.0</ele><time>2026-04-08T14:13:44.998Z</time></trkpt><trkpt lat="38.128302319398955" lon="15.450294916673016"><ele>897.8</ele><time>2026-04-08T14:13:45.998Z</time></trkpt><trkpt lat="38.12838364004508" lon="15.450254006905372"><ele>897.5999999999999</ele><time>2026-04-08T14:13:46.998Z</time></trkpt><trkpt lat="38.12848216042378" lon="15.45020716503717"><ele>897.4000000000001</ele><time>2026-04-08T14:13:57.998Z</time></trkpt><trkpt lat="38.12854849433766" lon="15.450175938431986"><ele>897.2</ele><time>2026-04-08T14:13:58.998Z</time></trkpt><trkpt lat="38.12865242096581" lon="15.450127015055124"><ele>897.0</ele><time>2026-04-08T14:13:59.998Z</time></trkpt><trkpt lat="38.12879198567858" lon="15.450065319585132"><ele>897.0</ele><time>2026-04-08T14:14:00.998Z</time></trkpt><trkpt lat="38.128952291855924" lon="15.450000761996668"><ele>897.0</ele><time>2026-04-08T14:14:01.998Z</time></trkpt><trkpt lat="38.129112130286636" lon="15.449936896871717"><ele>897.0</ele><time>2026-04-08T14:14:02.998Z</time></trkpt><trkpt lat="38.12923715687133" lon="15.44992695812105"><ele>896.5</ele><time>2026-04-08T14:14:03.998Z</time></trkpt><trkpt lat="38.1293472392973" lon="15.449919640037956"><ele>896.0</ele><time>2026-04-08T14:14:04.998Z</time></trkpt><trkpt lat="38.1294642652829" lon="15.449915899211293"><ele>895.5</ele><time>2026-04-08T14:14:05.998Z</time></trkpt><trkpt lat="38.12958421949358" lon="15.449912688296138"><ele>895.0</ele><time>2026-04-08T14:14:06.998Z</time></trkpt><trkpt lat="38.12971974744343" lon="15.449911496626749"><ele>895.0</ele><time>2026-04-08T14:14:07.998Z</time></trkpt><trkpt lat="38.12985271291201" lon="15.449931893977203"><ele>895.0</ele><time>2026-04-08T14:14:09Z</time></trkpt><trkpt lat="38.12993657724154" lon="15.449935321260634"><ele>895.0</ele><time>2026-04-08T14:14:10Z</time></trkpt><trkpt lat="38.130037861077476" lon="15.449940490194997"><ele>895.0</ele><time>2026-04-08T14:14:12Z</time></trkpt><trkpt lat="38.130198780430035" lon="15.449960174618274"><ele>897.6</ele><time>2026-04-08T14:14:14Z</time></trkpt><trkpt lat="38.130313562854646" lon="15.44994473921505"><ele>900.2</ele><time>2026-04-08T14:14:15Z</time></trkpt><trkpt lat="38.13040106869652" lon="15.449977304557606"><ele>902.8</ele><time>2026-04-08T14:14:16Z</time></trkpt><trkpt lat="38.13048336125576" lon="15.44999636599255"><ele>905.4</ele><time>2026-04-08T14:14:17Z</time></trkpt><trkpt lat="38.13059743422791" lon="15.450021751298168"><ele>908.0</ele><time>2026-04-08T14:14:18Z</time></trkpt><trkpt lat="38.13070669768171" lon="15.450044204966703"><ele>906.25</ele><time>2026-04-08T14:14:19Z</time></trkpt><trkpt lat="38.130827953957386" lon="15.450072219474963"><ele>904.5</ele><time>2026-04-08T14:14:20Z</time></trkpt><trkpt lat="38.13095529680744" lon="15.450106665071734"><ele>902.75</ele><time>2026-04-08T14:14:21Z</time></trkpt><trkpt lat="38.13108991757115" lon="15.450154414740641"><ele>901.0</ele><time>2026-04-08T14:14:22Z</time></trkpt><trkpt lat="38.131171584778905" lon="15.450185331808761"><ele>901.0</ele><time>2026-04-08T14:14:23Z</time></trkpt><trkpt lat="38.13123706011237" lon="15.45021315560829"><ele>900.9999999999999</ele><time>2026-04-08T14:14:24Z</time></trkpt><trkpt lat="38.131326678673666" lon="15.450253836481282"><ele>900.9999999999999</ele><time>2026-04-08T14:14:26.999Z</time></trkpt><trkpt lat="38.1314764144409" lon="15.45013074350648"><ele>901.0</ele><time>2026-04-08T14:14:43.999Z</time></trkpt><trkpt lat="38.13145357456394" lon="15.450227387741702"><ele>901.0</ele><time>2026-04-08T14:14:53.999Z</time></trkpt><trkpt lat="38.131494475949026" lon="15.45029678825971"><ele>901.0</ele><time>2026-04-08T14:15:02.999Z</time></trkpt><trkpt lat="38.13154484108804" lon="15.450374766117651"><ele>900.9999999999999</ele><time>2026-04-08T14:15:04.999Z</time></trkpt><trkpt lat="38.1315974122472" lon="15.450442352467551"><ele>900.9999999999999</ele><time>2026-04-08T14:15:05.999Z</time></trkpt><trkpt lat="38.13165320456216" lon="15.45051133412689"><ele>901.0</ele><time>2026-04-08T14:15:06.999Z</time></trkpt><trkpt lat="38.13176102162405" lon="15.450625336075635"><ele>901.0</ele><time>2026-04-08T14:15:08.999Z</time></trkpt><trkpt lat="38.1318188594135" lon="15.450728114355211"><ele>901.8333333333333</ele><time>2026-04-08T14:15:10.999Z</time></trkpt><trkpt lat="38.13188075918105" lon="15.450762373442224"><ele>902.6666666666666</ele><time>2026-04-08T14:15:12.999Z</time></trkpt><trkpt lat="38.131930921995945" lon="15.45085028890095"><ele>903.5</ele><time>2026-04-08T14:15:15.999Z</time></trkpt><trkpt lat="38.13200178636971" lon="15.450905590454624"><ele>904.3333333333333</ele><time>2026-04-08T14:15:17.999Z</time></trkpt><trkpt lat="38.1320708842818" lon="15.45101745906676"><ele>905.1666666666666</ele><time>2026-04-08T14:15:19.999Z</time></trkpt><trkpt lat="38.13209743600854" lon="15.451094784498041"><ele>906.0</ele><time>2026-04-08T14:15:21.999Z</time></trkpt><trkpt lat="38.13213123349018" lon="15.451166123392563"><ele>909.8</ele><time>2026-04-08T14:15:23.999Z</time></trkpt><trkpt lat="38.132159884287304" lon="15.451321500254231"><ele>913.5999999999999</ele><time>2026-04-08T14:15:25.998Z</time></trkpt><trkpt lat="38.13218535264859" lon="15.45144167397037"><ele>917.4</ele><time>2026-04-08T14:15:27.998Z</time></trkpt><trkpt lat="38.13221677682961" lon="15.451547536157781"><ele>921.2</ele><time>2026-04-08T14:15:29.998Z</time></trkpt><trkpt lat="38.13228919838717" lon="15.451651635887755"><ele>925.0</ele><time>2026-04-08T14:15:31.998Z</time></trkpt><trkpt lat="38.13234132534375" lon="15.45174068280097"><ele>924.9999999999999</ele><time>2026-04-08T14:15:33.998Z</time></trkpt><trkpt lat="38.13237109698948" lon="15.451812695978843"><ele>925.0</ele><time>2026-04-08T14:15:36.998Z</time></trkpt><trkpt lat="38.13242370035856" lon="15.451920421590051"><ele>925.0</ele><time>2026-04-08T14:15:40.998Z</time></trkpt><trkpt lat="38.132457306646295" lon="15.4520420247549"><ele>925.0</ele><time>2026-04-08T14:15:42.998Z</time></trkpt><trkpt lat="38.13248081265787" lon="15.452123617205109"><ele>924.9999999999999</ele><time>2026-04-08T14:15:44.998Z</time></trkpt><trkpt lat="38.132497179947954" lon="15.452213164196543"><ele>925.0</ele><time>2026-04-08T14:15:46.998Z</time></trkpt><trkpt lat="38.132557617520646" lon="15.452307894781393"><ele>928.3333333333333</ele><time>2026-04-08T14:15:49.998Z</time></trkpt><trkpt lat="38.13263347211278" lon="15.45241158585464"><ele>931.6666666666666</ele><time>2026-04-08T14:15:52.998Z</time></trkpt><trkpt lat="38.13268126001223" lon="15.45247331577621"><ele>935.0</ele><time>2026-04-08T14:15:54.998Z</time></trkpt><trkpt lat="38.132726891422095" lon="15.452542463162382"><ele>938.3333333333333</ele><time>2026-04-08T14:15:56.998Z</time></trkpt><trkpt lat="38.13278507943195" lon="15.45262126102375"><ele>941.6666666666666</ele><time>2026-04-08T14:15:59.998Z</time></trkpt><trkpt lat="38.132837570977784" lon="15.452702894488114"><ele>945.0</ele><time>2026-04-08T14:16:03.998Z</time></trkpt><trkpt lat="38.132887605647596" lon="15.452797974003664"><ele>945.0</ele><time>2026-04-08T14:16:05.998Z</time></trkpt><trkpt lat="38.132884791498" lon="15.452912344108451"><ele>945.0</ele><time>2026-04-08T14:16:08.998Z</time></trkpt><trkpt lat="38.132882647678386" lon="15.452995462795274"><ele>945.0</ele><time>2026-04-08T14:16:10.998Z</time></trkpt><trkpt lat="38.13285111782296" lon="15.453069775489197"><ele>945.0</ele><time>2026-04-08T14:16:12.998Z</time></trkpt><trkpt lat="38.132808211863896" lon="15.453166700478782"><ele>945.0</ele><time>2026-04-08T14:16:15Z</time></trkpt><trkpt lat="38.132826623092996" lon="15.453250313340305"><ele>945.0</ele><time>2026-04-08T14:16:24Z</time></trkpt><trkpt lat="38.13288802544177" lon="15.453298796651351"><ele>944.4</ele><time>2026-04-08T14:16:30Z</time></trkpt><trkpt lat="38.13301325244918" lon="15.453336016391207"><ele>943.8</ele><time>2026-04-08T14:16:32Z</time></trkpt><trkpt lat="38.133082736338864" lon="15.453373199609622"><ele>943.2</ele><time>2026-04-08T14:16:32.999Z</time></trkpt><trkpt lat="38.13320801954254" lon="15.45345665884732"><ele>942.6</ele><time>2026-04-08T14:16:34.999Z</time></trkpt><trkpt lat="38.13327614412726" lon="15.453469836589555"><ele>942.0</ele><time>2026-04-08T14:16:35.999Z</time></trkpt><trkpt lat="38.1333614507622" lon="15.453482563690041"><ele>944.3333333333334</ele><time>2026-04-08T14:16:36.999Z</time></trkpt><trkpt lat="38.133430830259925" lon="15.453509480347007"><ele>946.6666666666667</ele><time>2026-04-08T14:16:37.999Z</time></trkpt><trkpt lat="38.133510370834465" lon="15.45350620948269"><ele>949.0</ele><time>2026-04-08T14:16:39.999Z</time></trkpt><trkpt lat="38.133626923539836" lon="15.453477215151405"><ele>951.3333333333334</ele><time>2026-04-08T14:16:41.999Z</time></trkpt><trkpt lat="38.133696265122865" lon="15.453449266777177"><ele>953.6666666666667</ele><time>2026-04-08T14:16:42.999Z</time></trkpt><trkpt lat="38.133757938176444" lon="15.453416430978011"><ele>956.0</ele><time>2026-04-08T14:16:43.999Z</time></trkpt><trkpt lat="38.13382520718782" lon="15.453369888097987"><ele>956.0</ele><time>2026-04-08T14:16:44.999Z</time></trkpt><trkpt lat="38.133924752210206" lon="15.453296404831484"><ele>955.9999999999999</ele><time>2026-04-08T14:16:45.999Z</time></trkpt><trkpt lat="38.13399676644014" lon="15.453232107093896"><ele>955.9999999999999</ele><time>2026-04-08T14:16:46.999Z</time></trkpt><trkpt lat="38.134073949360385" lon="15.453179555454877"><ele>956.0</ele><time>2026-04-08T14:16:47.999Z</time></trkpt><trkpt lat="38.13419010490397" lon="15.453183038316038"><ele>956.0</ele><time>2026-04-08T14:16:49.999Z</time></trkpt><trkpt lat="38.13425936029959" lon="15.453259467496068"><ele>957.0</ele><time>2026-04-08T14:16:50.999Z</time></trkpt><trkpt lat="38.13432560460641" lon="15.453360148835733"><ele>957.9999999999999</ele><time>2026-04-08T14:16:51.999Z</time></trkpt><trkpt lat="38.134400687503195" lon="15.453467977974952"><ele>958.9999999999999</ele><time>2026-04-08T14:16:52.999Z</time></trkpt><trkpt lat="38.134468458110845" lon="15.453550214110658"><ele>960.0</ele><time>2026-04-08T14:16:53.999Z</time></trkpt><trkpt lat="38.134524936376025" lon="15.453644892167219"><ele>961.0</ele><time>2026-04-08T14:16:54.999Z</time></trkpt><trkpt lat="38.13456167318403" lon="15.453741766406434"><ele>963.8333333333333</ele><time>2026-04-08T14:16:55.999Z</time></trkpt><trkpt lat="38.13457818388134" lon="15.453843094153475"><ele>966.6666666666666</ele><time>2026-04-08T14:16:56.999Z</time></trkpt><trkpt lat="38.13460103129588" lon="15.453982360563732"><ele>969.5</ele><time>2026-04-08T14:16:57.999Z</time></trkpt><trkpt lat="38.13464189889795" lon="15.454070172889175"><ele>972.3333333333333</ele><time>2026-04-08T14:16:58.999Z</time></trkpt><trkpt lat="38.13465881568542" lon="15.454151814392754"><ele>975.1666666666666</ele><time>2026-04-08T14:16:59.999Z</time></trkpt><trkpt lat="38.13470505778424" lon="15.454230289997131"><ele>978.0</ele><time>2026-04-08T14:17:00.999Z</time></trkpt><trkpt lat="38.13475114939795" lon="15.454334512043767"><ele>978.0</ele><time>2026-04-08T14:17:02.999Z</time></trkpt><trkpt lat="38.13466922992218" lon="15.454403205555778"><ele>978.0</ele><time>2026-04-08T14:17:04.999Z</time></trkpt><trkpt lat="38.134614154564225" lon="15.454283359920932"><ele>978.0</ele><time>2026-04-08T14:17:06.999Z</time></trkpt><trkpt lat="38.13460695604959" lon="15.454185712869462"><ele>978.0</ele><time>2026-04-08T14:17:07.999Z</time></trkpt><trkpt lat="38.13456566200669" lon="15.454064570938394"><ele>978.0</ele><time>2026-04-08T14:17:08.999Z</time></trkpt><trkpt lat="38.134518644128605" lon="15.453948880007673"><ele>978.0</ele><time>2026-04-08T14:17:09.999Z</time></trkpt><trkpt lat="38.134493426951586" lon="15.453841639379048"><ele>978.0</ele><time>2026-04-08T14:17:10.999Z</time></trkpt><trkpt lat="38.13438737416741" lon="15.453727374128622"><ele>978.0</ele><time>2026-04-08T14:17:12.999Z</time></trkpt><trkpt lat="38.13430406206398" lon="15.453684384243994"><ele>978.0</ele><time>2026-04-08T14:17:13.999Z</time></trkpt><trkpt lat="38.134213507953376" lon="15.453614156140995"><ele>978.0</ele><time>2026-04-08T14:17:14.999Z</time></trkpt><trkpt lat="38.13414833894008" lon="15.453623455730716"><ele>978.0</ele><time>2026-04-08T14:17:16.999Z</time></trkpt><trkpt lat="38.13418852876535" lon="15.45370561469011"><ele>978.0</ele><time>2026-04-08T14:17:17.999Z</time></trkpt><trkpt lat="38.13425217710951" lon="15.453750678957533"><ele>978.0</ele><time>2026-04-08T14:17:18.999Z</time></trkpt><trkpt lat="38.134334214534" lon="15.453784194656153"><ele>978.0</ele><time>2026-04-08T14:17:19.999Z</time></trkpt><trkpt lat="38.13438943286149" lon="15.453844784200834"><ele>978.0</ele><time>2026-04-08T14:17:20.999Z</time></trkpt><trkpt lat="38.13441495618403" lon="15.45392794106729"><ele>978.0</ele><time>2026-04-08T14:17:21.999Z</time></trkpt><trkpt lat="38.134402968947555" lon="15.454044741704509"><ele>978.0</ele><time>2026-04-08T14:17:22.999Z</time></trkpt><trkpt lat="38.13442158333499" lon="15.45418223407648"><ele>978.0</ele><time>2026-04-08T14:17:23.999Z</time></trkpt><trkpt lat="38.134451954669494" lon="15.454349242657285"><ele>978.0</ele><time>2026-04-08T14:17:24.999Z</time></trkpt><trkpt lat="38.134488215107815" lon="15.454479038986435"><ele>978.0</ele><time>2026-04-08T14:17:25.999Z</time></trkpt><trkpt lat="38.13453754507827" lon="15.454593357141128"><ele>980.0</ele><time>2026-04-08T14:17:26.999Z</time></trkpt><trkpt lat="38.134611552689535" lon="15.454702786182931"><ele>982.0</ele><time>2026-04-08T14:17:27.999Z</time></trkpt><trkpt lat="38.13471200588357" lon="15.454821330267533"><ele>984.0</ele><time>2026-04-08T14:17:28.999Z</time></trkpt><trkpt lat="38.1348153768776" lon="15.454954061269406"><ele>986.0</ele><time>2026-04-08T14:17:29.999Z</time></trkpt><trkpt lat="38.13492003710404" lon="15.455089571251953"><ele>986.0</ele><time>2026-04-08T14:17:30.998Z</time></trkpt><trkpt lat="38.13499701352059" lon="15.455244366410081"><ele>986.0</ele><time>2026-04-08T14:17:31.998Z</time></trkpt><trkpt lat="38.13508332100102" lon="15.455412610106078"><ele>986.0</ele><time>2026-04-08T14:17:32.998Z</time></trkpt><trkpt lat="38.13515870999295" lon="15.45557977882512"><ele>983.75</ele><time>2026-04-08T14:17:33.998Z</time></trkpt><trkpt lat="38.135224670284465" lon="15.455748465180887"><ele>981.5</ele><time>2026-04-08T14:17:34.998Z</time></trkpt><trkpt lat="38.13528573742175" lon="15.455906150969296"><ele>979.25</ele><time>2026-04-08T14:17:35.998Z</time></trkpt><trkpt lat="38.13535040327972" lon="15.456042392952861"><ele>977.0</ele><time>2026-04-08T14:17:36.998Z</time></trkpt><trkpt lat="38.13539103348875" lon="15.456145212845204"><ele>977.0</ele><time>2026-04-08T14:17:37.998Z</time></trkpt><trkpt lat="38.13548087728736" lon="15.456213251444092"><ele>977.0</ele><time>2026-04-08T14:17:39.998Z</time></trkpt><trkpt lat="38.13554362980255" lon="15.456230657813267"><ele>977.0</ele><time>2026-04-08T14:17:40.998Z</time></trkpt><trkpt lat="38.135617530477155" lon="15.456281189079743"><ele>977.0</ele><time>2026-04-08T14:17:42.998Z</time></trkpt><trkpt lat="38.135707213759865" lon="15.456377411329447"><ele>977.0</ele><time>2026-04-08T14:17:44.998Z</time></trkpt><trkpt lat="38.135816178359" lon="15.456440594377485"><ele>981.8</ele><time>2026-04-08T14:17:45.998Z</time></trkpt><trkpt lat="38.13589855149942" lon="15.456520259506943"><ele>986.6</ele><time>2026-04-08T14:17:46.998Z</time></trkpt><trkpt lat="38.13596964851744" lon="15.45658743583959"><ele>991.3999999999999</ele><time>2026-04-08T14:17:47.998Z</time></trkpt><trkpt lat="38.136018643318295" lon="15.456701044189305"><ele>996.1999999999999</ele><time>2026-04-08T14:17:49.998Z</time></trkpt><trkpt lat="38.136018228261456" lon="15.456800414050061"><ele>1001.0</ele><time>2026-04-08T14:17:50.998Z</time></trkpt><trkpt lat="38.13602189749572" lon="15.456912663569502"><ele>1001.0</ele><time>2026-04-08T14:17:51.998Z</time></trkpt><trkpt lat="38.1360099525734" lon="15.457004224796973"><ele>1000.9999999999999</ele><time>2026-04-08T14:17:52.998Z</time></trkpt><trkpt lat="38.13598898996752" lon="15.457122450591728"><ele>1000.9999999999999</ele><time>2026-04-08T14:17:53.998Z</time></trkpt><trkpt lat="38.13597065896129" lon="15.457240851832506"><ele>1001.0</ele><time>2026-04-08T14:17:54.998Z</time></trkpt><trkpt lat="38.13595267439457" lon="15.457372398580222"><ele>1001.0</ele><time>2026-04-08T14:17:55.998Z</time></trkpt><trkpt lat="38.13593599410982" lon="15.457519552376413"><ele>1001.25</ele><time>2026-04-08T14:17:56.998Z</time></trkpt><trkpt lat="38.13592138001127" lon="15.457670205924016"><ele>1001.5</ele><time>2026-04-08T14:17:57.998Z</time></trkpt><trkpt lat="38.13590788024232" lon="15.45781885841947"><ele>1001.75</ele><time>2026-04-08T14:17:58.998Z</time></trkpt><trkpt lat="38.13589435889447" lon="15.45798577532161"><ele>1002.0</ele><time>2026-04-08T14:17:59.998Z</time></trkpt><trkpt lat="38.135879887208056" lon="15.458154161238065"><ele>1001.4000000000001</ele><time>2026-04-08T14:18:00.998Z</time></trkpt><trkpt lat="38.135861321566395" lon="15.458316906000887"><ele>1000.8000000000001</ele><time>2026-04-08T14:18:01.998Z</time></trkpt><trkpt lat="38.13585160886523" lon="15.458463371641688"><ele>1000.2</ele><time>2026-04-08T14:18:02.998Z</time></trkpt><trkpt lat="38.13588195855743" lon="15.458581494645584"><ele>999.6</ele><time>2026-04-08T14:18:03.998Z</time></trkpt><trkpt lat="38.13589861476463" lon="15.458671120375138"><ele>999.0</ele><time>2026-04-08T14:18:04.998Z</time></trkpt><trkpt lat="38.13594269020981" lon="15.458733591234456"><ele>999.0</ele><time>2026-04-08T14:18:06.998Z</time></trkpt><trkpt lat="38.13604258769468" lon="15.458641028216839"><ele>999.0000000000001</ele><time>2026-04-08T14:18:07.998Z</time></trkpt><trkpt lat="38.136043909412685" lon="15.458469658766203"><ele>999.0000000000001</ele><time>2026-04-08T14:18:09.998Z</time></trkpt><trkpt lat="38.13603530966619" lon="15.458372474624833"><ele>999.0</ele><time>2026-04-08T14:18:10.998Z</time></trkpt><trkpt lat="38.136078042552185" lon="15.45830270027341"><ele>999.0</ele><time>2026-04-08T14:18:11.998Z</time></trkpt><trkpt lat="38.13618649171158" lon="15.458096638014462"><ele>999.0</ele><time>2026-04-08T14:18:13.998Z</time></trkpt><trkpt lat="38.13627096949408" lon="15.45798276464464"><ele>999.0</ele><time>2026-04-08T14:18:14.998Z</time></trkpt><trkpt lat="38.1363522486761" lon="15.457887827953492"><ele>999.0</ele><time>2026-04-08T14:18:15.998Z</time></trkpt><trkpt lat="38.136420986942454" lon="15.457779252665445"><ele>999.0</ele><time>2026-04-08T14:18:16.998Z</time></trkpt><trkpt lat="38.136498654271804" lon="15.457670458875166"><ele>1007.25</ele><time>2026-04-08T14:18:17.998Z</time></trkpt><trkpt lat="38.13656255544991" lon="15.457554628116153"><ele>1015.5</ele><time>2026-04-08T14:18:18.998Z</time></trkpt><trkpt lat="38.13665309129546" lon="15.457549736251265"><ele>1023.75</ele><time>2026-04-08T14:18:19.998Z</time></trkpt><trkpt lat="38.136801103740055" lon="15.457581478051825"><ele>1032.0</ele><time>2026-04-08T14:18:22Z</time></trkpt><trkpt lat="38.13692432738583" lon="15.457608271882112"><ele>1032.0</ele><time>2026-04-08T14:18:23Z</time></trkpt><trkpt lat="38.13704436987324" lon="15.457613018485477"><ele>1032.0</ele><time>2026-04-08T14:18:24Z</time></trkpt><trkpt lat="38.1371216403635" lon="15.457596647471766"><ele>1032.0</ele><time>2026-04-08T14:18:25Z</time></trkpt><trkpt lat="38.13715231941183" lon="15.45749439971329"><ele>1032.0</ele><time>2026-04-08T14:18:27Z</time></trkpt><trkpt lat="38.13714114978287" lon="15.45738133166383"><ele>1032.0</ele><time>2026-04-08T14:18:28Z</time></trkpt><trkpt lat="38.13714591749167" lon="15.45725194559855"><ele>1032.0</ele><time>2026-04-08T14:18:29Z</time></trkpt><trkpt lat="38.13716699716805" lon="15.457124664324255"><ele>1032.0</ele><time>2026-04-08T14:18:30Z</time></trkpt><trkpt lat="38.13722420010378" lon="15.457052590434504"><ele>1032.0</ele><time>2026-04-08T14:18:31Z</time></trkpt><trkpt lat="38.137290952247106" lon="15.457005504689228"><ele>1032.0</ele><time>2026-04-08T14:18:32Z</time></trkpt><trkpt lat="38.13737617633104" lon="15.4569487157262"><ele>1032.0</ele><time>2026-04-08T14:18:33Z</time></trkpt><trkpt lat="38.13745160847633" lon="15.456882080567704"><ele>1032.0</ele><time>2026-04-08T14:18:34Z</time></trkpt><trkpt lat="38.13754014781389" lon="15.456839424210878"><ele>1031.6666666666667</ele><time>2026-04-08T14:18:35Z</time></trkpt><trkpt lat="38.13762575982354" lon="15.45684230776456"><ele>1031.3333333333333</ele><time>2026-04-08T14:18:36Z</time></trkpt><trkpt lat="38.13770795728763" lon="15.456849392682509"><ele>1031.0</ele><time>2026-04-08T14:18:36.999Z</time></trkpt><trkpt lat="38.13777400128032" lon="15.456829795726048"><ele>1030.6666666666665</ele><time>2026-04-08T14:18:37.999Z</time></trkpt><trkpt lat="38.137843654242616" lon="15.45682442408979"><ele>1030.3333333333333</ele><time>2026-04-08T14:18:44.999Z</time></trkpt><trkpt lat="38.13796479086031" lon="15.456827425280338"><ele>1030.0</ele><time>2026-04-08T14:18:46.999Z</time></trkpt><trkpt lat="38.138043262570825" lon="15.456827270319373"><ele>1030.0</ele><time>2026-04-08T14:18:47.999Z</time></trkpt><trkpt lat="38.13813049473118" lon="15.456833162988547"><ele>1030.0</ele><time>2026-04-08T14:18:48.999Z</time></trkpt><trkpt lat="38.13820796724594" lon="15.456859078177107"><ele>1030.0</ele><time>2026-04-08T14:18:49.999Z</time></trkpt><trkpt lat="38.13830466445198" lon="15.456890821406093"><ele>1030.0</ele><time>2026-04-08T14:18:50.999Z</time></trkpt><trkpt lat="38.138375720131215" lon="15.45690537797846"><ele>1030.0</ele><time>2026-04-08T14:18:51.999Z</time></trkpt><trkpt lat="38.138426807995344" lon="15.456969034221732"><ele>1030.0</ele><time>2026-04-08T14:18:52.999Z</time></trkpt><trkpt lat="38.138508957917544" lon="15.457009521170113"><ele>1031.6666666666665</ele><time>2026-04-08T14:18:53.999Z</time></trkpt><trkpt lat="38.13857693599646" lon="15.457062454395755"><ele>1033.3333333333333</ele><time>2026-04-08T14:18:54.999Z</time></trkpt><trkpt lat="38.13865077758292" lon="15.457097093850146"><ele>1035.0</ele><time>2026-04-08T14:18:55.999Z</time></trkpt><trkpt lat="38.13873221704039" lon="15.457097572574476"><ele>1036.6666666666667</ele><time>2026-04-08T14:18:56.999Z</time></trkpt><trkpt lat="38.13880320598644" lon="15.457072380968505"><ele>1038.3333333333335</ele><time>2026-04-08T14:18:57.999Z</time></trkpt><trkpt lat="38.13887628102025" lon="15.457025403136019"><ele>1040.0</ele><time>2026-04-08T14:18:58.999Z</time></trkpt><trkpt lat="38.13898240996773" lon="15.456909249943466"><ele>1039.6</ele><time>2026-04-08T14:18:59.999Z</time></trkpt><trkpt lat="38.139081558549314" lon="15.456819861144213"><ele>1039.2</ele><time>2026-04-08T14:19:00.999Z</time></trkpt><trkpt lat="38.139166166116794" lon="15.456735164590139"><ele>1038.8</ele><time>2026-04-08T14:19:01.999Z</time></trkpt><trkpt lat="38.139252489483056" lon="15.456681826901866"><ele>1038.4</ele><time>2026-04-08T14:19:02.999Z</time></trkpt><trkpt lat="38.13935151559387" lon="15.45668274462966"><ele>1038.0</ele><time>2026-04-08T14:19:03.999Z</time></trkpt><trkpt lat="38.13943911437603" lon="15.456711016629113"><ele>1038.0</ele><time>2026-04-08T14:19:04.999Z</time></trkpt><trkpt lat="38.13951012357329" lon="15.45673621402093"><ele>1038.0</ele><time>2026-04-08T14:19:05.999Z</time></trkpt><trkpt lat="38.13956254882925" lon="15.456783099783946"><ele>1038.0</ele><time>2026-04-08T14:19:06.999Z</time></trkpt><trkpt lat="38.13961063350548" lon="15.456862422362317"><ele>1038.0</ele><time>2026-04-08T14:19:07.999Z</time></trkpt><trkpt lat="38.139602865407625" lon="15.456948622344807"><ele>1038.0</ele><time>2026-04-08T14:19:08.999Z</time></trkpt><trkpt lat="38.13963230684915" lon="15.457138448055767"><ele>1038.0</ele><time>2026-04-08T14:19:10.999Z</time></trkpt><trkpt lat="38.13966426932835" lon="15.457225937968493"><ele>1030.5</ele><time>2026-04-08T14:19:11.999Z</time></trkpt><trkpt lat="38.13978012039272" lon="15.457337527560497"><ele>1023.0</ele><time>2026-04-08T14:19:12.999Z</time></trkpt><trkpt lat="38.13995523570825" lon="15.457319458930916"><ele>1015.5</ele><time>2026-04-08T14:19:13.999Z</time></trkpt><trkpt lat="38.14006434859907" lon="15.457348919826368"><ele>1008.0</ele><time>2026-04-08T14:19:14.999Z</time></trkpt><trkpt lat="38.14009572256848" lon="15.457424299516925"><ele>1008.0</ele><time>2026-04-08T14:19:15.999Z</time></trkpt><trkpt lat="38.140115654023674" lon="15.457614522113815"><ele>1008.0</ele><time>2026-04-08T14:19:18.999Z</time></trkpt><trkpt lat="38.140166936119535" lon="15.457762533382448"><ele>1008.0</ele><time>2026-04-08T14:19:19.999Z</time></trkpt><trkpt lat="38.14028143670358" lon="15.457846112108017"><ele>1008.0</ele><time>2026-04-08T14:19:20.999Z</time></trkpt><trkpt lat="38.140345664093324" lon="15.457925781296437"><ele>1003.5</ele><time>2026-04-08T14:19:21.999Z</time></trkpt><trkpt lat="38.14041742001819" lon="15.458029963424881"><ele>999.0</ele><time>2026-04-08T14:19:22.999Z</time></trkpt><trkpt lat="38.14050023535982" lon="15.458171268731926"><ele>994.5</ele><time>2026-04-08T14:19:23.999Z</time></trkpt><trkpt lat="38.14060292973932" lon="15.45828635263683"><ele>990.0</ele><time>2026-04-08T14:19:24.999Z</time></trkpt><trkpt lat="38.14070387334825" lon="15.458389582874963"><ele>992.4</ele><time>2026-04-08T14:19:25.999Z</time></trkpt><trkpt lat="38.140799193082636" lon="15.458478729519372"><ele>994.8</ele><time>2026-04-08T14:19:26.999Z</time></trkpt><trkpt lat="38.14089148861723" lon="15.458551416200745"><ele>997.2</ele><time>2026-04-08T14:19:27.999Z</time></trkpt><trkpt lat="38.14100263434466" lon="15.45858226144605"><ele>999.6</ele><time>2026-04-08T14:19:28.999Z</time></trkpt><trkpt lat="38.14109886661402" lon="15.458639500833716"><ele>1002.0</ele><time>2026-04-08T14:19:29.999Z</time></trkpt><trkpt lat="38.14115386427118" lon="15.458682530714496"><ele>1002.0</ele><time>2026-04-08T14:19:30.999Z</time></trkpt><trkpt lat="38.14110197588749" lon="15.458628990094487"><ele>1002.0</ele><time>2026-04-08T14:19:36.998Z</time></trkpt><trkpt lat="38.141015161229035" lon="15.458570762568597"><ele>1002.0</ele><time>2026-04-08T14:20:44.999Z</time></trkpt><trkpt lat="38.1409412437985" lon="15.45855036453513"><ele>1002.0</ele><time>2026-04-08T14:20:45.999Z</time></trkpt><trkpt lat="38.14085306740207" lon="15.458497742894533"><ele>1002.0</ele><time>2026-04-08T14:20:46.999Z</time></trkpt><trkpt lat="38.14078060223756" lon="15.458410655422144"><ele>1002.0</ele><time>2026-04-08T14:20:47.999Z</time></trkpt><trkpt lat="38.140712516958715" lon="15.458344286817358"><ele>1003.5</ele><time>2026-04-08T14:20:48.999Z</time></trkpt><trkpt lat="38.140642873941" lon="15.458273679731317"><ele>1005.0</ele><time>2026-04-08T14:20:49.999Z</time></trkpt><trkpt lat="38.14055247000396" lon="15.458176016728885"><ele>1006.5</ele><time>2026-04-08T14:20:50.999Z</time></trkpt><trkpt lat="38.14046284052557" lon="15.458054181053376"><ele>1008.0</ele><time>2026-04-08T14:20:51.999Z</time></trkpt><trkpt lat="38.14038948421686" lon="15.457922579554902"><ele>1008.0</ele><time>2026-04-08T14:20:52.999Z</time></trkpt><trkpt lat="38.14030315462316" lon="15.45781402988082"><ele>1008.0</ele><time>2026-04-08T14:20:53.999Z</time></trkpt><trkpt lat="38.14021341501574" lon="15.457725496498663"><ele>1008.0</ele><time>2026-04-08T14:20:54.999Z</time></trkpt><trkpt lat="38.140153703134295" lon="15.457640425893299"><ele>1008.0</ele><time>2026-04-08T14:20:55.999Z</time></trkpt><trkpt lat="38.14012559051608" lon="15.457523896025474"><ele>1008.0</ele><time>2026-04-08T14:20:56.999Z</time></trkpt><trkpt lat="38.14010300922874" lon="15.457416405932237"><ele>1008.0</ele><time>2026-04-08T14:20:57.999Z</time></trkpt><trkpt lat="38.140065481053036" lon="15.457349148107529"><ele>1008.0</ele><time>2026-04-08T14:20:58.999Z</time></trkpt><trkpt lat="38.14003663179177" lon="15.457263023129393"><ele>1008.0</ele><time>2026-04-08T14:21:02.999Z</time></trkpt><trkpt lat="38.139962118067736" lon="15.457136226138976"><ele>1008.0</ele><time>2026-04-08T14:21:09.999Z</time></trkpt><trkpt lat="38.139983659873316" lon="15.45696673957299"><ele>1008.0</ele><time>2026-04-08T14:21:11.999Z</time></trkpt><trkpt lat="38.14015329396619" lon="15.456839208332964"><ele>1007.8</ele><time>2026-04-08T14:21:12.999Z</time></trkpt><trkpt lat="38.14013229523294" lon="15.456757730524185"><ele>1007.5999999999999</ele><time>2026-04-08T14:21:13.999Z</time></trkpt><trkpt lat="38.140121090494155" lon="15.456653626242238"><ele>1007.4000000000001</ele><time>2026-04-08T14:21:14.999Z</time></trkpt><trkpt lat="38.140151825610424" lon="15.456549165968894"><ele>1007.2</ele><time>2026-04-08T14:21:15.999Z</time></trkpt><trkpt lat="38.14016575715104" lon="15.456448362795303"><ele>1007.0</ele><time>2026-04-08T14:21:16.999Z</time></trkpt><trkpt lat="38.14009304253112" lon="15.456303733744521"><ele>1007.2</ele><time>2026-04-08T14:21:17.999Z</time></trkpt><trkpt lat="38.14006550296482" lon="15.45613932627249"><ele>1007.4000000000001</ele><time>2026-04-08T14:21:18.999Z</time></trkpt><trkpt lat="38.1400538530277" lon="15.456001884107518"><ele>1007.5999999999999</ele><time>2026-04-08T14:21:19.999Z</time></trkpt><trkpt lat="38.1400502295586" lon="15.455892124858957"><ele>1007.8</ele><time>2026-04-08T14:21:20.999Z</time></trkpt><trkpt lat="38.1400892781367" lon="15.455778664643416"><ele>1008.0</ele><time>2026-04-08T14:21:21.999Z</time></trkpt><trkpt lat="38.14010455558003" lon="15.45569928397771"><ele>1008.0</ele><time>2026-04-08T14:21:22.999Z</time></trkpt><trkpt lat="38.14006791829746" lon="15.455633871288136"><ele>1008.0</ele><time>2026-04-08T14:21:23.999Z</time></trkpt><trkpt lat="38.14002129964535" lon="15.455576892221009"><ele>1008.0</ele><time>2026-04-08T14:21:24.999Z</time></trkpt><trkpt lat="38.14000145217802" lon="15.455491549317635"><ele>1008.0</ele><time>2026-04-08T14:21:25.999Z</time></trkpt><trkpt lat="38.14000055865085" lon="15.455383234790053"><ele>1008.0</ele><time>2026-04-08T14:21:26.999Z</time></trkpt><trkpt lat="38.14001249631046" lon="15.45528718295593"><ele>1008.0</ele><time>2026-04-08T14:21:27.999Z</time></trkpt><trkpt lat="38.14004443294172" lon="15.45520121793841"><ele>1008.0</ele><time>2026-04-08T14:21:28.999Z</time></trkpt><trkpt lat="38.14009116959002" lon="15.455110962770437"><ele>1006.8333333333334</ele><time>2026-04-08T14:21:29.999Z</time></trkpt><trkpt lat="38.140137813837924" lon="15.455014789905832"><ele>1005.6666666666667</ele><time>2026-04-08T14:21:30.999Z</time></trkpt><trkpt lat="38.14018135210586" lon="15.454916409147513"><ele>1004.5</ele><time>2026-04-08T14:21:31.999Z</time></trkpt><trkpt lat="38.1402178284858" lon="15.454825393458876"><ele>1003.3333333333334</ele><time>2026-04-08T14:21:32.999Z</time></trkpt><trkpt lat="38.14025267648671" lon="15.454714436457886"><ele>1002.1666666666667</ele><time>2026-04-08T14:21:34.999Z</time></trkpt><trkpt lat="38.1402203418868" lon="15.454645108193779"><ele>1001.0</ele><time>2026-04-08T14:21:36.999Z</time></trkpt><trkpt lat="38.14011908423856" lon="15.454598439772507"><ele>1000.3333333333334</ele><time>2026-04-08T14:21:38.999Z</time></trkpt><trkpt lat="38.1400538915225" lon="15.454538549461198"><ele>999.6666666666667</ele><time>2026-04-08T14:21:40.999Z</time></trkpt><trkpt lat="38.14001238680638" lon="15.45445453567649"><ele>999.0</ele><time>2026-04-08T14:21:41.999Z</time></trkpt><trkpt lat="38.13999738999768" lon="15.454374546652392"><ele>998.3333333333333</ele><time>2026-04-08T14:21:42.998Z</time></trkpt><trkpt lat="38.13995682858704" lon="15.454281489194324"><ele>997.6666666666666</ele><time>2026-04-08T14:21:43.998Z</time></trkpt><trkpt lat="38.13986441812324" lon="15.454154862698328"><ele>997.0</ele><time>2026-04-08T14:21:45.998Z</time></trkpt><trkpt lat="38.13982070685318" lon="15.45406864481899"><ele>996.9999999999999</ele><time>2026-04-08T14:21:46.998Z</time></trkpt><trkpt lat="38.13981316184343" lon="15.453952767738338"><ele>997.0</ele><time>2026-04-08T14:21:47.998Z</time></trkpt><trkpt lat="38.13980189432933" lon="15.453864161065905"><ele>997.0</ele><time>2026-04-08T14:21:48.998Z</time></trkpt><trkpt lat="38.1397332421899" lon="15.453728659658543"><ele>997.0</ele><time>2026-04-08T14:21:50.998Z</time></trkpt><trkpt lat="38.13968821754321" lon="15.453666822442457"><ele>996.9999999999999</ele><time>2026-04-08T14:21:51.998Z</time></trkpt><trkpt lat="38.139668847402774" lon="15.453561151144049"><ele>997.0</ele><time>2026-04-08T14:21:52.998Z</time></trkpt><trkpt lat="38.139683312574405" lon="15.453482510183209"><ele>993.8333333333333</ele><time>2026-04-08T14:21:53.998Z</time></trkpt><trkpt lat="38.13971543652086" lon="15.453366903219445"><ele>990.6666666666666</ele><time>2026-04-08T14:21:54.998Z</time></trkpt><trkpt lat="38.13972988959874" lon="15.453269393934631"><ele>987.5</ele><time>2026-04-08T14:21:55.998Z</time></trkpt><trkpt lat="38.13973114018863" lon="15.453157322151169"><ele>984.3333333333333</ele><time>2026-04-08T14:21:56.998Z</time></trkpt><trkpt lat="38.13973171720817" lon="15.453043201851813"><ele>981.1666666666666</ele><time>2026-04-08T14:21:57.998Z</time></trkpt><trkpt lat="38.139769635979974" lon="15.452946015574453"><ele>978.0</ele><time>2026-04-08T14:21:58.998Z</time></trkpt><trkpt lat="38.13982821900865" lon="15.452865903886178"><ele>974.8</ele><time>2026-04-08T14:22:00.998Z</time></trkpt><trkpt lat="38.139876475642446" lon="15.452756399458789"><ele>971.5999999999999</ele><time>2026-04-08T14:22:25.998Z</time></trkpt><trkpt lat="38.13997422002648" lon="15.452742748935133"><ele>968.4000000000001</ele><time>2026-04-08T14:22:29.998Z</time></trkpt><trkpt lat="38.140083548876824" lon="15.452686726508556"><ele>965.2</ele><time>2026-04-08T14:22:31.999Z</time></trkpt><trkpt lat="38.14015965890556" lon="15.452643139508112"><ele>962.0</ele><time>2026-04-08T14:22:32.999Z</time></trkpt><trkpt lat="38.14025912154824" lon="15.452577397600239"><ele>962.0000000000001</ele><time>2026-04-08T14:22:34.999Z</time></trkpt><trkpt lat="38.14032244948141" lon="15.45256066846855"><ele>962.0</ele><time>2026-04-08T14:22:35.999Z</time></trkpt><trkpt lat="38.14039522837572" lon="15.45253315915392"><ele>962.0</ele><time>2026-04-08T14:22:37.999Z</time></trkpt><trkpt lat="38.14048020268275" lon="15.45254774238061"><ele>962.0</ele><time>2026-04-08T14:22:41.999Z</time></trkpt><trkpt lat="38.14057646965218" lon="15.452531183425016"><ele>962.0000000000001</ele><time>2026-04-08T14:22:48.999Z</time></trkpt><trkpt lat="38.1406426527715" lon="15.45254266473581"><ele>962.0</ele><time>2026-04-08T14:22:50.999Z</time></trkpt><trkpt lat="38.140706739484344" lon="15.45256083528337"><ele>958.3333333333334</ele><time>2026-04-08T14:22:52.999Z</time></trkpt><trkpt lat="38.14079708385412" lon="15.452552842820015"><ele>954.6666666666667</ele><time>2026-04-08T14:22:54.999Z</time></trkpt><trkpt lat="38.14091672893966" lon="15.452568144181756"><ele>951.0</ele><time>2026-04-08T14:22:56.999Z</time></trkpt><trkpt lat="38.141002733021956" lon="15.45255790815856"><ele>947.3333333333333</ele><time>2026-04-08T14:22:58.999Z</time></trkpt><trkpt lat="38.141041576276" lon="15.45248043500572"><ele>943.6666666666666</ele><time>2026-04-08T14:23:03.999Z</time></trkpt><trkpt lat="38.141066700513726" lon="15.45239037482121"><ele>940.0</ele><time>2026-04-08T14:23:07.999Z</time></trkpt><trkpt lat="38.141042549118836" lon="15.452309054179004"><ele>940.0</ele><time>2026-04-08T14:23:17.999Z</time></trkpt><trkpt lat="38.14109494963166" lon="15.45222598579905"><ele>940.0</ele><time>2026-04-08T14:23:22.999Z</time></trkpt><trkpt lat="38.14110054064103" lon="15.45209015180589"><ele>940.0</ele><time>2026-04-08T14:23:24.999Z</time></trkpt><trkpt lat="38.141137462020495" lon="15.451969558262407"><ele>940.0</ele><time>2026-04-08T14:23:27.999Z</time></trkpt><trkpt lat="38.14118284282876" lon="15.451838062564386"><ele>940.0</ele><time>2026-04-08T14:23:29.999Z</time></trkpt><trkpt lat="38.141227265804616" lon="15.451754457620508"><ele>937.0</ele><time>2026-04-08T14:23:32.999Z</time></trkpt><trkpt lat="38.141339343084525" lon="15.451731977660438"><ele>934.0</ele><time>2026-04-08T14:23:34.999Z</time></trkpt><trkpt lat="38.14141196784042" lon="15.451702799058888"><ele>931.0</ele><time>2026-04-08T14:23:35.999Z</time></trkpt><trkpt lat="38.1414857057459" lon="15.451664362912426"><ele>928.0</ele><time>2026-04-08T14:23:36.999Z</time></trkpt><trkpt lat="38.141573958521555" lon="15.45161803204311"><ele>925.0</ele><time>2026-04-08T14:23:37.999Z</time></trkpt><trkpt lat="38.14166669978334" lon="15.45157017076641"><ele>924.9999999999999</ele><time>2026-04-08T14:23:38.999Z</time></trkpt><trkpt lat="38.14172759487981" lon="15.45150126075988"><ele>925.0</ele><time>2026-04-08T14:23:40.999Z</time></trkpt><trkpt lat="38.141806441027825" lon="15.451464569286028"><ele>925.0</ele><time>2026-04-08T14:23:43.999Z</time></trkpt><trkpt lat="38.14190740662462" lon="15.451491909369846"><ele>925.0</ele><time>2026-04-08T14:23:46.999Z</time></trkpt><trkpt lat="38.14199908768527" lon="15.45149255092858"><ele>924.9999999999999</ele><time>2026-04-08T14:23:48.998Z</time></trkpt><trkpt lat="38.14207150996742" lon="15.451486869538458"><ele>925.0</ele><time>2026-04-08T14:23:49.998Z</time></trkpt><trkpt lat="38.14215240822636" lon="15.45149429667581"><ele>925.0</ele><time>2026-04-08T14:23:50.998Z</time></trkpt><trkpt lat="38.14225126642013" lon="15.45150023773386"><ele>925.0</ele><time>2026-04-08T14:23:52.998Z</time></trkpt><trkpt lat="38.142337118106695" lon="15.45146887870234"><ele>925.0</ele><time>2026-04-08T14:23:55.998Z</time></trkpt><trkpt lat="38.142387129739326" lon="15.451416379066256"><ele>925.0</ele><time>2026-04-08T14:23:57.998Z</time></trkpt><trkpt lat="38.14247264900061" lon="15.451317679134913"><ele>925.0</ele><time>2026-04-08T14:23:59.998Z</time></trkpt><trkpt lat="38.14254823371673" lon="15.451239113920646"><ele>925.4285714285714</ele><time>2026-04-08T14:24:18.998Z</time></trkpt><trkpt lat="38.142590233898424" lon="15.451172523349328"><ele>925.8571428571429</ele><time>2026-04-08T14:24:31.998Z</time></trkpt><trkpt lat="38.14263014048297" lon="15.451090053870534"><ele>926.2857142857143</ele><time>2026-04-08T14:24:46.999Z</time></trkpt><trkpt lat="38.14261956576808" lon="15.451003391833455"><ele>926.7142857142858</ele><time>2026-04-08T14:24:50.999Z</time></trkpt><trkpt lat="38.14264110745299" lon="15.450927559264118"><ele>927.1428571428571</ele><time>2026-04-08T14:24:55.999Z</time></trkpt><trkpt lat="38.14266221300276" lon="15.450834077524073"><ele>927.5714285714287</ele><time>2026-04-08T14:24:58.999Z</time></trkpt><trkpt lat="38.14270907674555" lon="15.450748640803868"><ele>928.0000000000001</ele><time>2026-04-08T14:25:02.999Z</time></trkpt><trkpt lat="38.14275157633394" lon="15.450671069261148"><ele>927.9999999999999</ele><time>2026-04-08T14:25:04.999Z</time></trkpt><trkpt lat="38.14281511762034" lon="15.450644070142214"><ele>928.0</ele><time>2026-04-08T14:25:08.999Z</time></trkpt><trkpt lat="38.142877085531794" lon="15.450613194770554"><ele>928.0</ele><time>2026-04-08T14:25:40.999Z</time></trkpt><trkpt lat="38.142952517828824" lon="15.450565269787752"><ele>928.0</ele><time>2026-04-08T14:25:42.999Z</time></trkpt><trkpt lat="38.143036512148825" lon="15.450509584634313"><ele>927.9999999999999</ele><time>2026-04-08T14:25:44.999Z</time></trkpt><trkpt lat="38.14311697768155" lon="15.450475079219967"><ele>928.0</ele><time>2026-04-08T14:25:46.999Z</time></trkpt><trkpt lat="38.143186025597394" lon="15.450509738803236"><ele>923.8</ele><time>2026-04-08T14:25:49.999Z</time></trkpt><trkpt lat="38.14324696510484" lon="15.450454821091489"><ele>919.5999999999999</ele><time>2026-04-08T14:25:55.998Z</time></trkpt><trkpt lat="38.14333926979593" lon="15.450367409838623"><ele>915.4000000000001</ele><time>2026-04-08T14:25:57.998Z</time></trkpt><trkpt lat="38.143404327634016" lon="15.450340742043998"><ele>911.2</ele><time>2026-04-08T14:25:58.998Z</time></trkpt><trkpt lat="38.14349255493801" lon="15.450305541595162"><ele>907.0</ele><time>2026-04-08T14:26:00.998Z</time></trkpt><trkpt lat="38.1435976078567" lon="15.450302269833696"><ele>907.0000000000001</ele><time>2026-04-08T14:26:03.998Z</time></trkpt><trkpt lat="38.14366723646992" lon="15.45028521668608"><ele>907.0</ele><time>2026-04-08T14:26:14.998Z</time></trkpt><trkpt lat="38.143735537310214" lon="15.450240566232525"><ele>907.0000000000001</ele><time>2026-04-08T14:26:23.998Z</time></trkpt><trkpt lat="38.14381354971605" lon="15.450212299755426"><ele>907.0000000000001</ele><time>2026-04-08T14:26:25.998Z</time></trkpt><trkpt lat="38.143884954189424" lon="15.45020688563667"><ele>907.0</ele><time>2026-04-08T14:26:26.998Z</time></trkpt><trkpt lat="38.143910301156055" lon="15.45012528588185"><ele>907.0000000000001</ele><time>2026-04-08T14:27:01.999Z</time></trkpt><trkpt lat="38.14390856094447" lon="15.450035021020227"><ele>907.0000000000001</ele><time>2026-04-08T14:27:15.999Z</time></trkpt><trkpt lat="38.14392345379186" lon="15.449944977970258"><ele>907.0000000000001</ele><time>2026-04-08T14:27:22.999Z</time></trkpt><trkpt lat="38.14395402480815" lon="15.4498660505817"><ele>907.0</ele><time>2026-04-08T14:27:33.999Z</time></trkpt><trkpt lat="38.14397787682308" lon="15.44975797044545"><ele>907.0000000000001</ele><time>2026-04-08T14:28:01.998Z</time></trkpt><trkpt lat="38.143949382347714" lon="15.449684461048763"><ele>907.0000000000001</ele><time>2026-04-08T14:28:33.998Z</time></trkpt><trkpt lat="38.143908124868666" lon="15.449606485244903"><ele>907.0</ele><time>2026-04-08T14:28:48Z</time></trkpt><trkpt lat="38.14389847187062" lon="15.449519352307924"><ele>907.0000000000001</ele><time>2026-04-08T14:29:00Z</time></trkpt><trkpt lat="38.14392456317843" lon="15.44943659510949"><ele>907.0000000000001</ele><time>2026-04-08T14:29:12.999Z</time></trkpt><trkpt lat="38.14392310711838" lon="15.449341551401146"><ele>905.8333333333333</ele><time>2026-04-08T14:31:20.999Z</time></trkpt><trkpt lat="38.14388273104055" lon="15.44926025674291"><ele>904.6666666666666</ele><time>2026-04-08T14:31:24.999Z</time></trkpt><trkpt lat="38.14383650575986" lon="15.44916794356548"><ele>903.5</ele><time>2026-04-08T14:31:28.999Z</time></trkpt><trkpt lat="38.143827195881485" lon="15.449071976741953"><ele>902.3333333333333</ele><time>2026-04-08T14:31:30.999Z</time></trkpt><trkpt lat="38.14385625457534" lon="15.448981789059944"><ele>901.1666666666666</ele><time>2026-04-08T14:31:32.999Z</time></trkpt><trkpt lat="38.14388070838942" lon="15.448884398641237"><ele>900.0</ele><time>2026-04-08T14:31:34.999Z</time></trkpt><trkpt lat="38.14387989808646" lon="15.448799097390518"><ele>894.3333333333334</ele><time>2026-04-08T14:31:37.999Z</time></trkpt><trkpt lat="38.143851147339" lon="15.448692946780223"><ele>888.6666666666667</ele><time>2026-04-08T14:31:40.999Z</time></trkpt><trkpt lat="38.14386372593332" lon="15.448590450049439"><ele>883.0</ele><time>2026-04-08T14:31:44.999Z</time></trkpt><trkpt lat="38.14388558904484" lon="15.44850121828003"><ele>877.3333333333334</ele><time>2026-04-08T14:31:48.999Z</time></trkpt><trkpt lat="38.143903382366574" lon="15.448419797616932"><ele>871.6666666666667</ele><time>2026-04-08T14:31:55.999Z</time></trkpt><trkpt lat="38.143893377715024" lon="15.448312991507501"><ele>866.0</ele><time>2026-04-08T14:32:06.999Z</time></trkpt><trkpt lat="38.1439111144623" lon="15.448236133013634"><ele>866.0000000000001</ele><time>2026-04-08T14:32:13.999Z</time></trkpt><trkpt lat="38.143959136168746" lon="15.448297143770043"><ele>866.0</ele><time>2026-04-08T14:32:22.998Z</time></trkpt><trkpt lat="38.14400813581234" lon="15.448243306031147"><ele>866.0</ele><time>2026-04-08T14:32:55.998Z</time></trkpt><trkpt lat="38.14401278269763" lon="15.448104738479037"><ele>866.0</ele><time>2026-04-08T14:33:18.999Z</time></trkpt><trkpt lat="38.144043764846856" lon="15.448031292639051"><ele>866.0000000000001</ele><time>2026-04-08T14:33:23.999Z</time></trkpt><trkpt lat="38.14409602391565" lon="15.447946786006606"><ele>866.0</ele><time>2026-04-08T14:33:37.999Z</time></trkpt><trkpt lat="38.14415405906159" lon="15.44790676242973"><ele>859.0000000000001</ele><time>2026-04-08T14:33:48.999Z</time></trkpt><trkpt lat="38.14422904943926" lon="15.44786219156013"><ele>852.0</ele><time>2026-04-08T14:33:55.999Z</time></trkpt><trkpt lat="38.14429719240027" lon="15.447834290899326"><ele>845.0</ele><time>2026-04-08T14:33:59.999Z</time></trkpt><trkpt lat="38.1443645797921" lon="15.447829807378364"><ele>838.0</ele><time>2026-04-08T14:34:02.999Z</time></trkpt><trkpt lat="38.14445807745545" lon="15.44780266200765"><ele>831.0000000000001</ele><time>2026-04-08T14:34:04.999Z</time></trkpt><trkpt lat="38.144524103655115" lon="15.44772520512704"><ele>824.0</ele><time>2026-04-08T14:34:06.999Z</time></trkpt><trkpt lat="38.14457116758326" lon="15.447658896824098"><ele>824.0000000000001</ele><time>2026-04-08T14:34:10.999Z</time></trkpt><trkpt lat="38.14465999583613" lon="15.447587398600614"><ele>824.0</ele><time>2026-04-08T14:34:14.999Z</time></trkpt><trkpt lat="38.14475838306263" lon="15.447569878252944"><ele>824.0</ele><time>2026-04-08T14:34:16.999Z</time></trkpt><trkpt lat="38.14484456366534" lon="15.447571413164138"><ele>824.0</ele><time>2026-04-08T14:34:18.999Z</time></trkpt><trkpt lat="38.14492621896175" lon="15.447543501626978"><ele>824.0000000000001</ele><time>2026-04-08T14:34:20.999Z</time></trkpt><trkpt lat="38.144988037002356" lon="15.447511634971738"><ele>824.0</ele><time>2026-04-08T14:34:22.998Z</time></trkpt><trkpt lat="38.14505075523033" lon="15.44746994332201"><ele>822.0000000000001</ele><time>2026-04-08T14:34:25.998Z</time></trkpt><trkpt lat="38.14511166282064" lon="15.447417298847263"><ele>820.0</ele><time>2026-04-08T14:34:27.998Z</time></trkpt><trkpt lat="38.14516235931124" lon="15.447341943469084"><ele>818.0</ele><time>2026-04-08T14:34:29.998Z</time></trkpt><trkpt lat="38.14520485781564" lon="15.44724780900451"><ele>816.0</ele><time>2026-04-08T14:34:32.998Z</time></trkpt><trkpt lat="38.14523770221518" lon="15.447163597260019"><ele>814.0000000000001</ele><time>2026-04-08T14:34:34.998Z</time></trkpt><trkpt lat="38.145306650846955" lon="15.447070927384921"><ele>812.0</ele><time>2026-04-08T14:34:37.998Z</time></trkpt><trkpt lat="38.145339395074494" lon="15.446979902262498"><ele>810.5714285714286</ele><time>2026-04-08T14:34:39.998Z</time></trkpt><trkpt lat="38.14539430272913" lon="15.44693550841784"><ele>809.1428571428571</ele><time>2026-04-08T14:34:41.998Z</time></trkpt><trkpt lat="38.1454272627063" lon="15.446865636300048"><ele>807.7142857142858</ele><time>2026-04-08T14:34:46.998Z</time></trkpt><trkpt lat="38.145398639462" lon="15.446786590706077"><ele>806.2857142857142</ele><time>2026-04-08T14:34:50.998Z</time></trkpt><trkpt lat="38.14539871717997" lon="15.446692983326832"><ele>804.8571428571429</ele><time>2026-04-08T14:34:53.998Z</time></trkpt><trkpt lat="38.14538380932567" lon="15.446595720285078"><ele>803.4285714285714</ele><time>2026-04-08T14:34:58.998Z</time></trkpt><trkpt lat="38.14539802784725" lon="15.446504841811823"><ele>802.0</ele><time>2026-04-08T14:35:02.998Z</time></trkpt><trkpt lat="38.14542782025923" lon="15.446433699256922"><ele>802.0</ele><time>2026-04-08T14:35:07Z</time></trkpt><trkpt lat="38.14548743012356" lon="15.446344866120247"><ele>802.0</ele><time>2026-04-08T14:35:10Z</time></trkpt><trkpt lat="38.14552750472231" lon="15.446279534360324"><ele>802.0</ele><time>2026-04-08T14:35:16Z</time></trkpt><trkpt lat="38.14554962165041" lon="15.446187565459146"><ele>802.0</ele><time>2026-04-08T14:35:20Z</time></trkpt><trkpt lat="38.14556901102628" lon="15.446109605812481"><ele>802.0</ele><time>2026-04-08T14:35:21Z</time></trkpt><trkpt lat="38.14553572029343" lon="15.446039908533958"><ele>802.0</ele><time>2026-04-08T14:35:24Z</time></trkpt><trkpt lat="38.14557802663496" lon="15.445946762167244"><ele>802.0</ele><time>2026-04-08T14:35:26.999Z</time></trkpt><trkpt lat="38.145615259345085" lon="15.445873954953278"><ele>796.6666666666666</ele><time>2026-04-08T14:35:28.999Z</time></trkpt><trkpt lat="38.14564424990332" lon="15.445786562758164"><ele>791.3333333333333</ele><time>2026-04-08T14:35:32.999Z</time></trkpt><trkpt lat="38.14566812285457" lon="15.445703729243865"><ele>786.0</ele><time>2026-04-08T14:35:34.999Z</time></trkpt><trkpt lat="38.14570219863427" lon="15.445623382636608"><ele>780.6666666666667</ele><time>2026-04-08T14:35:37.999Z</time></trkpt><trkpt lat="38.14569521896157" lon="15.445531117144071"><ele>775.3333333333334</ele><time>2026-04-08T14:35:39.999Z</time></trkpt><trkpt lat="38.14570541119725" lon="15.445418640780524"><ele>770.0</ele><time>2026-04-08T14:35:41.999Z</time></trkpt><trkpt lat="38.145762529833824" lon="15.445331875621088"><ele>767.8333333333334</ele><time>2026-04-08T14:35:43.999Z</time></trkpt><trkpt lat="38.14583607243065" lon="15.445281147447952"><ele>765.6666666666667</ele><time>2026-04-08T14:35:45.999Z</time></trkpt><trkpt lat="38.145878335906914" lon="15.445204262843317"><ele>763.5</ele><time>2026-04-08T14:35:47.999Z</time></trkpt><trkpt lat="38.14591416629145" lon="15.445136201538105"><ele>761.3333333333334</ele><time>2026-04-08T14:35:49.999Z</time></trkpt><trkpt lat="38.14597658353966" lon="15.445019873479163"><ele>759.1666666666667</ele><time>2026-04-08T14:35:51.999Z</time></trkpt><trkpt lat="38.14602545380362" lon="15.4449073139722"><ele>757.0</ele><time>2026-04-08T14:35:53.999Z</time></trkpt><trkpt lat="38.14601489291683" lon="15.444764359693485"><ele>757.0</ele><time>2026-04-08T14:35:55.999Z</time></trkpt><trkpt lat="38.146016186052414" lon="15.444683870258089"><ele>757.0</ele><time>2026-04-08T14:35:56.999Z</time></trkpt><trkpt lat="38.1460717254357" lon="15.44453918087179"><ele>757.0</ele><time>2026-04-08T14:35:58.999Z</time></trkpt><trkpt lat="38.146113364958055" lon="15.444475763329448"><ele>757.0</ele><time>2026-04-08T14:35:59.999Z</time></trkpt><trkpt lat="38.14619707278597" lon="15.444376468072122"><ele>757.0</ele><time>2026-04-08T14:36:01.999Z</time></trkpt><trkpt lat="38.146270748896725" lon="15.444308683080166"><ele>754.2</ele><time>2026-04-08T14:36:03.999Z</time></trkpt><trkpt lat="38.14640132525905" lon="15.444316444365203"><ele>751.4000000000001</ele><time>2026-04-08T14:36:05.999Z</time></trkpt><trkpt lat="38.14647799339834" lon="15.444363666955024"><ele>748.5999999999999</ele><time>2026-04-08T14:36:07.999Z</time></trkpt><trkpt lat="38.14652632225603" lon="15.44443737090149"><ele>745.8</ele><time>2026-04-08T14:36:09.999Z</time></trkpt><trkpt lat="38.14660176981466" lon="15.444464689245784"><ele>743.0</ele><time>2026-04-08T14:36:11.999Z</time></trkpt><trkpt lat="38.14664769945989" lon="15.44455006342949"><ele>743.0</ele><time>2026-04-08T14:36:13.999Z</time></trkpt><trkpt lat="38.146719449790396" lon="15.444629862458546"><ele>743.0</ele><time>2026-04-08T14:36:16.999Z</time></trkpt><trkpt lat="38.146800407373455" lon="15.444663303445246"><ele>743.0</ele><time>2026-04-08T14:36:19.999Z</time></trkpt><trkpt lat="38.14686863451604" lon="15.444620754590069"><ele>743.0</ele><time>2026-04-08T14:36:21.999Z</time></trkpt><trkpt lat="38.14693084530907" lon="15.444581167276294"><ele>743.0</ele><time>2026-04-08T14:36:25.999Z</time></trkpt><trkpt lat="38.14699202781076" lon="15.444601824593377"><ele>743.0</ele><time>2026-04-08T14:36:26.998Z</time></trkpt><trkpt lat="38.14706281892859" lon="15.444703650313425"><ele>745.8333333333333</ele><time>2026-04-08T14:36:28.998Z</time></trkpt><trkpt lat="38.14711176352167" lon="15.444780670276803"><ele>748.6666666666666</ele><time>2026-04-08T14:36:29.998Z</time></trkpt><trkpt lat="38.147129385027384" lon="15.444889179855075"><ele>751.5</ele><time>2026-04-08T14:36:30.998Z</time></trkpt><trkpt lat="38.147162559016316" lon="15.445002759490094"><ele>754.3333333333334</ele><time>2026-04-08T14:36:31.998Z</time></trkpt><trkpt lat="38.14718785848212" lon="15.445101979116181"><ele>757.1666666666667</ele><time>2026-04-08T14:36:32.998Z</time></trkpt><trkpt lat="38.14721187673524" lon="15.445220852751074"><ele>760.0</ele><time>2026-04-08T14:36:33.998Z</time></trkpt><trkpt lat="38.14724898663189" lon="15.44532965044436"><ele>760.0</ele><time>2026-04-08T14:36:34.998Z</time></trkpt><trkpt lat="38.147271129238646" lon="15.445411461301319"><ele>760.0</ele><time>2026-04-08T14:36:35.998Z</time></trkpt><trkpt lat="38.14726763074575" lon="15.445578188035007"><ele>760.0</ele><time>2026-04-08T14:36:37.998Z</time></trkpt><trkpt lat="38.147245728361774" lon="15.445684335512913"><ele>760.0</ele><time>2026-04-08T14:36:38.998Z</time></trkpt><trkpt lat="38.14723294295639" lon="15.445778599187062"><ele>760.0</ele><time>2026-04-08T14:36:39.998Z</time></trkpt><trkpt lat="38.14720826188409" lon="15.445874450495358"><ele>760.0</ele><time>2026-04-08T14:36:40.998Z</time></trkpt><trkpt lat="38.14709945281782" lon="15.445978941705093"><ele>759.25</ele><time>2026-04-08T14:36:42.998Z</time></trkpt><trkpt lat="38.14700730440016" lon="15.446049544534842"><ele>758.5</ele><time>2026-04-08T14:36:43.998Z</time></trkpt><trkpt lat="38.146910443762614" lon="15.446157106913406"><ele>757.75</ele><time>2026-04-08T14:36:44.998Z</time></trkpt><trkpt lat="38.14679777257858" lon="15.446237034361856"><ele>757.0</ele><time>2026-04-08T14:36:45.998Z</time></trkpt><trkpt lat="38.14671576866687" lon="15.446289443091242"><ele>755.3333333333334</ele><time>2026-04-08T14:36:46.998Z</time></trkpt><trkpt lat="38.14662798435991" lon="15.44633821188397"><ele>753.6666666666667</ele><time>2026-04-08T14:36:47.998Z</time></trkpt><trkpt lat="38.146539433970446" lon="15.446369093363176"><ele>752.0</ele><time>2026-04-08T14:36:48.998Z</time></trkpt><trkpt lat="38.14646186814203" lon="15.446435107149213"><ele>750.3333333333334</ele><time>2026-04-08T14:36:49.998Z</time></trkpt><trkpt lat="38.14642050901122" lon="15.446518216566007"><ele>748.6666666666666</ele><time>2026-04-08T14:36:50.998Z</time></trkpt><trkpt lat="38.14649280497382" lon="15.446587249628019"><ele>747.0</ele><time>2026-04-08T14:36:52.998Z</time></trkpt><trkpt lat="38.14658063002436" lon="15.44660094951415"><ele>747.0</ele><time>2026-04-08T14:36:53.998Z</time></trkpt><trkpt lat="38.14667500602436" lon="15.446609993008872"><ele>747.0</ele><time>2026-04-08T14:36:54.998Z</time></trkpt><trkpt lat="38.14678541384894" lon="15.446601158700993"><ele>747.0</ele><time>2026-04-08T14:36:55.998Z</time></trkpt><trkpt lat="38.14686775432353" lon="15.446601431077806"><ele>747.0</ele><time>2026-04-08T14:36:56.998Z</time></trkpt><trkpt lat="38.14700285290719" lon="15.446604988440777"><ele>747.0</ele><time>2026-04-08T14:36:57.998Z</time></trkpt><trkpt lat="38.147143145356296" lon="15.446623668585922"><ele>747.0</ele><time>2026-04-08T14:36:58.998Z</time></trkpt><trkpt lat="38.147265380221604" lon="15.446640616604444"><ele>747.0</ele><time>2026-04-08T14:36:59.998Z</time></trkpt><trkpt lat="38.14739609039787" lon="15.44665570268612"><ele>747.0</ele><time>2026-04-08T14:37:00.998Z</time></trkpt><trkpt lat="38.1475200058774" lon="15.446667528904767"><ele>747.0</ele><time>2026-04-08T14:37:01.998Z</time></trkpt><trkpt lat="38.147604070486835" lon="15.446678135793505"><ele>746.0</ele><time>2026-04-08T14:37:02.998Z</time></trkpt><trkpt lat="38.14771084384755" lon="15.446717758388475"><ele>745.0</ele><time>2026-04-08T14:37:03.998Z</time></trkpt><trkpt lat="38.14782234550186" lon="15.44672072376026"><ele>744.0</ele><time>2026-04-08T14:37:04.998Z</time></trkpt><trkpt lat="38.14789231130275" lon="15.446654649683499"><ele>743.0</ele><time>2026-04-08T14:37:05.998Z</time></trkpt><trkpt lat="38.147942920426566" lon="15.4465670761004"><ele>742.0</ele><time>2026-04-08T14:37:06.998Z</time></trkpt><trkpt lat="38.147983395015096" lon="15.446464742303954"><ele>742.0</ele><time>2026-04-08T14:37:07.998Z</time></trkpt><trkpt lat="38.14805725893433" lon="15.446395447318226"><ele>742.0</ele><time>2026-04-08T14:37:08.998Z</time></trkpt><trkpt lat="38.1481496641536" lon="15.446313026754451"><ele>742.0</ele><time>2026-04-08T14:37:09.998Z</time></trkpt><trkpt lat="38.14823103229856" lon="15.446252033532879"><ele>742.0</ele><time>2026-04-08T14:37:11Z</time></trkpt><trkpt lat="38.14829065511054" lon="15.446318992415998"><ele>742.0</ele><time>2026-04-08T14:37:13Z</time></trkpt><trkpt lat="38.14834171665669" lon="15.446393730808834"><ele>740.8333333333334</ele><time>2026-04-08T14:37:14Z</time></trkpt><trkpt lat="38.14841117962711" lon="15.446472001344267"><ele>739.6666666666667</ele><time>2026-04-08T14:37:15Z</time></trkpt><trkpt lat="38.14846146708243" lon="15.446549604658987"><ele>738.5</ele><time>2026-04-08T14:37:16Z</time></trkpt><trkpt lat="38.14850781887532" lon="15.446664980557994"><ele>737.3333333333334</ele><time>2026-04-08T14:37:17Z</time></trkpt><trkpt lat="38.14853666597296" lon="15.446767863580405"><ele>736.1666666666666</ele><time>2026-04-08T14:37:18Z</time></trkpt><trkpt lat="38.148563401282004" lon="15.446861256645322"><ele>735.0</ele><time>2026-04-08T14:37:19Z</time></trkpt><trkpt lat="38.14860444328624" lon="15.446962915575517"><ele>735.0</ele><time>2026-04-08T14:37:20Z</time></trkpt><trkpt lat="38.14861074791389" lon="15.447045045650839"><ele>735.0</ele><time>2026-04-08T14:37:21Z</time></trkpt><trkpt lat="38.14859257795724" lon="15.447121738476083"><ele>735.0</ele><time>2026-04-08T14:37:22Z</time></trkpt><trkpt lat="38.14855214581201" lon="15.44723187603352"><ele>735.0</ele><time>2026-04-08T14:37:23Z</time></trkpt><trkpt lat="38.14853257704359" lon="15.447351730211835"><ele>735.0</ele><time>2026-04-08T14:37:24Z</time></trkpt><trkpt lat="38.148550408836854" lon="15.447439051758435"><ele>735.0</ele><time>2026-04-08T14:37:25Z</time></trkpt><trkpt lat="38.14860302600995" lon="15.447492776887886"><ele>740.3333333333334</ele><time>2026-04-08T14:37:26Z</time></trkpt><trkpt lat="38.148630995881945" lon="15.447572066091816"><ele>745.6666666666666</ele><time>2026-04-08T14:37:27Z</time></trkpt><trkpt lat="38.14863824652833" lon="15.447669628743961"><ele>751.0</ele><time>2026-04-08T14:37:29Z</time></trkpt><trkpt lat="38.14862438932683" lon="15.447756653550393"><ele>756.3333333333333</ele><time>2026-04-08T14:37:30Z</time></trkpt><trkpt lat="38.14863372558252" lon="15.447871975963796"><ele>761.6666666666666</ele><time>2026-04-08T14:37:31Z</time></trkpt><trkpt lat="38.148655834445115" lon="15.448000282829115"><ele>767.0</ele><time>2026-04-08T14:37:32Z</time></trkpt><trkpt lat="38.14869306511228" lon="15.448096653369907"><ele>767.6666666666666</ele><time>2026-04-08T14:37:32.999Z</time></trkpt><trkpt lat="38.148733353944856" lon="15.448187455677592"><ele>768.3333333333333</ele><time>2026-04-08T14:37:33.999Z</time></trkpt><trkpt lat="38.14874649206849" lon="15.448279451474521"><ele>769.0</ele><time>2026-04-08T14:37:34.999Z</time></trkpt><trkpt lat="38.148778280548605" lon="15.448358950262817"><ele>769.6666666666666</ele><time>2026-04-08T14:37:35.999Z</time></trkpt><trkpt lat="38.14882206212409" lon="15.448457296933785"><ele>770.3333333333334</ele><time>2026-04-08T14:37:36.999Z</time></trkpt><trkpt lat="38.14886596763161" lon="15.44851899701078"><ele>771.0</ele><time>2026-04-08T14:37:37.999Z</time></trkpt><trkpt lat="38.148954644087006" lon="15.448581065305008"><ele>771.0</ele><time>2026-04-08T14:37:39.999Z</time></trkpt><trkpt lat="38.1490384423581" lon="15.448597154824846"><ele>771.0</ele><time>2026-04-08T14:37:42.999Z</time></trkpt><trkpt lat="38.14915272525026" lon="15.448590697175746"><ele>771.0</ele><time>2026-04-08T14:37:44.999Z</time></trkpt><trkpt lat="38.149182190748036" lon="15.448671664726614"><ele>771.0</ele><time>2026-04-08T14:37:46.999Z</time></trkpt><trkpt lat="38.14958625756705" lon="15.4488512938914"><ele>766.3333333333334</ele><time>2026-04-08T14:37:48.999Z</time></trkpt><trkpt lat="38.14964614389385" lon="15.448914087948904"><ele>761.6666666666666</ele><time>2026-04-08T14:37:49.999Z</time></trkpt><trkpt lat="38.14968553581725" lon="15.44897795204953"><ele>757.0</ele><time>2026-04-08T14:37:50.999Z</time></trkpt><trkpt lat="38.149736706288046" lon="15.449068780375125"><ele>752.3333333333333</ele><time>2026-04-08T14:37:51.999Z</time></trkpt><trkpt lat="38.149771665698005" lon="15.449157125613164"><ele>747.6666666666666</ele><time>2026-04-08T14:37:52.999Z</time></trkpt><trkpt lat="38.149796586911265" lon="15.44923501356089"><ele>743.0</ele><time>2026-04-08T14:37:53.999Z</time></trkpt><trkpt lat="38.149769834215284" lon="15.449366198850415"><ele>743.0</ele><time>2026-04-08T14:37:55.999Z</time></trkpt><trkpt lat="38.14969964265864" lon="15.449384566231982"><ele>743.0</ele><time>2026-04-08T14:37:58.999Z</time></trkpt><trkpt lat="38.14960663068491" lon="15.449417082228642"><ele>743.0</ele><time>2026-04-08T14:38:01.999Z</time></trkpt><trkpt lat="38.14952476701376" lon="15.449398672720616"><ele>743.0</ele><time>2026-04-08T14:38:02.999Z</time></trkpt><trkpt lat="38.1494364807866" lon="15.449363281787617"><ele>743.0</ele><time>2026-04-08T14:38:03.999Z</time></trkpt><trkpt lat="38.14936922451665" lon="15.449335567213486"><ele>743.0</ele><time>2026-04-08T14:38:04.999Z</time></trkpt><trkpt lat="38.14930248601265" lon="15.449306461548478"><ele>743.0</ele><time>2026-04-08T14:38:05.999Z</time></trkpt><trkpt lat="38.149226651267625" lon="15.449296027544662"><ele>743.0</ele><time>2026-04-08T14:38:06.999Z</time></trkpt><trkpt lat="38.14898349851634" lon="15.44942574842814"><ele>743.0</ele><time>2026-04-08T14:38:08.999Z</time></trkpt><trkpt lat="38.14904844686798" lon="15.449448126752134"><ele>743.0</ele><time>2026-04-08T14:38:09.999Z</time></trkpt><trkpt lat="38.149176668357704" lon="15.449443709830701"><ele>743.0</ele><time>2026-04-08T14:38:10.999Z</time></trkpt><trkpt lat="38.14926059511006" lon="15.449451605552953"><ele>743.0</ele><time>2026-04-08T14:38:11.999Z</time></trkpt><trkpt lat="38.14937669446964" lon="15.449447452666028"><ele>743.0</ele><time>2026-04-08T14:38:12.999Z</time></trkpt><trkpt lat="38.14945098832562" lon="15.449471614743958"><ele>743.0</ele><time>2026-04-08T14:38:13.999Z</time></trkpt><trkpt lat="38.14935304876432" lon="15.449493597518806"><ele>743.0</ele><time>2026-04-08T14:38:16.999Z</time></trkpt><trkpt lat="38.14923532767837" lon="15.449490900923296"><ele>743.0</ele><time>2026-04-08T14:38:18.999Z</time></trkpt><trkpt lat="38.14916631646316" lon="15.44949009527159"><ele>743.0</ele><time>2026-04-08T14:38:19.999Z</time></trkpt><trkpt lat="38.149098465210024" lon="15.449498775594327"><ele>743.0</ele><time>2026-04-08T14:38:20.999Z</time></trkpt><trkpt lat="38.14903531850765" lon="15.449500488605901"><ele>743.0</ele><time>2026-04-08T14:38:26.999Z</time></trkpt><trkpt lat="38.1489622770551" lon="15.449592991486462"><ele>743.0</ele><time>2026-04-08T14:38:42.998Z</time></trkpt><trkpt lat="38.148942146595644" lon="15.44970245103647"><ele>743.0</ele><time>2026-04-08T14:38:56.998Z</time></trkpt><trkpt lat="38.148995222499494" lon="15.449765758680797"><ele>735.8333333333333</ele><time>2026-04-08T14:42:33.999Z</time></trkpt><trkpt lat="38.14911051652298" lon="15.449779771534846"><ele>728.6666666666666</ele><time>2026-04-08T14:42:35.999Z</time></trkpt><trkpt lat="38.149168697642374" lon="15.4498172781713"><ele>721.5</ele><time>2026-04-08T14:42:38.999Z</time></trkpt><trkpt lat="38.14909301612435" lon="15.449824352376819"><ele>714.3333333333334</ele><time>2026-04-08T14:42:41.998Z</time></trkpt><trkpt lat="38.149033228589495" lon="15.449871191513276"><ele>707.1666666666667</ele><time>2026-04-08T14:42:44.998Z</time></trkpt><trkpt lat="38.149098998781106" lon="15.449963934971787"><ele>700.0</ele><time>2026-04-08T14:42:48.998Z</time></trkpt><trkpt lat="38.149160675925366" lon="15.449991798143973"><ele>700.0</ele><time>2026-04-08T14:42:50.998Z</time></trkpt><trkpt lat="38.14921956530332" lon="15.449948526962462"><ele>700.0</ele><time>2026-04-08T14:42:52.998Z</time></trkpt><trkpt lat="38.1492417612346" lon="15.450026625097108"><ele>700.0</ele><time>2026-04-08T14:42:55.998Z</time></trkpt><trkpt lat="38.14916976359156" lon="15.450089564583411"><ele>700.0</ele><time>2026-04-08T14:42:57.998Z</time></trkpt><trkpt lat="38.149080465655146" lon="15.450089834379694"><ele>700.0</ele><time>2026-04-08T14:43:00.998Z</time></trkpt><trkpt lat="38.14897839757038" lon="15.450100106789288"><ele>700.0</ele><time>2026-04-08T14:43:02.998Z</time></trkpt><trkpt lat="38.1489133850274" lon="15.450065066385767"><ele>700.0</ele><time>2026-04-08T14:43:03.998Z</time></trkpt><trkpt lat="38.14884533488955" lon="15.449986379584086"><ele>700.0</ele><time>2026-04-08T14:43:04.998Z</time></trkpt><trkpt lat="38.14877465374539" lon="15.4499148334056"><ele>700.0</ele><time>2026-04-08T14:43:05.998Z</time></trkpt><trkpt lat="38.14870578483136" lon="15.449869219770225"><ele>700.0</ele><time>2026-04-08T14:43:06.998Z</time></trkpt><trkpt lat="38.148576378420245" lon="15.449789767321839"><ele>700.0</ele><time>2026-04-08T14:43:08.998Z</time></trkpt><trkpt lat="38.14850977378763" lon="15.449715890356671"><ele>700.0</ele><time>2026-04-08T14:43:09.998Z</time></trkpt><trkpt lat="38.148443073358244" lon="15.449684598377761"><ele>700.0</ele><time>2026-04-08T14:43:10.998Z</time></trkpt><trkpt lat="38.14838161081408" lon="15.449639874212924"><ele>700.0</ele><time>2026-04-08T14:43:11.998Z</time></trkpt><trkpt lat="38.1483007788633" lon="15.449650406289337"><ele>700.0</ele><time>2026-04-08T14:43:12.998Z</time></trkpt><trkpt lat="38.14819832433099" lon="15.44970667658606"><ele>700.0</ele><time>2026-04-08T14:43:13.998Z</time></trkpt><trkpt lat="38.14812486721215" lon="15.449769337628837"><ele>700.0</ele><time>2026-04-08T14:43:14.998Z</time></trkpt><trkpt lat="38.14806600278862" lon="15.449817680181047"><ele>704.6666666666667</ele><time>2026-04-08T14:43:15.998Z</time></trkpt><trkpt lat="38.14800865445328" lon="15.449931659275578"><ele>709.3333333333334</ele><time>2026-04-08T14:43:17.998Z</time></trkpt><trkpt lat="38.14799223280736" lon="15.450009554509583"><ele>714.0</ele><time>2026-04-08T14:43:18.998Z</time></trkpt><trkpt lat="38.14798900597745" lon="15.450114261724476"><ele>718.6666666666666</ele><time>2026-04-08T14:43:19.998Z</time></trkpt><trkpt lat="38.14798871963368" lon="15.450230387649945"><ele>723.3333333333333</ele><time>2026-04-08T14:43:20.998Z</time></trkpt><trkpt lat="38.147934542203394" lon="15.450329854645725"><ele>728.0</ele><time>2026-04-08T14:43:22.998Z</time></trkpt><trkpt lat="38.1478415885102" lon="15.450327323533298"><ele>728.0</ele><time>2026-04-08T14:43:24.998Z</time></trkpt><trkpt lat="38.147782634531694" lon="15.45028748011454"><ele>728.0</ele><time>2026-04-08T14:43:25.998Z</time></trkpt><trkpt lat="38.14769495763585" lon="15.450304917807015"><ele>728.0</ele><time>2026-04-08T14:43:30Z</time></trkpt><trkpt lat="38.14766096671568" lon="15.450390115761035"><ele>728.0</ele><time>2026-04-08T14:43:33Z</time></trkpt><trkpt lat="38.147621932151836" lon="15.450463862004321"><ele>728.0</ele><time>2026-04-08T14:43:36Z</time></trkpt><trkpt lat="38.1476096294966" lon="15.450565885580572"><ele>728.0</ele><time>2026-04-08T14:43:38Z</time></trkpt><trkpt lat="38.147556443038525" lon="15.450664799920919"><ele>728.6666666666666</ele><time>2026-04-08T14:43:41Z</time></trkpt><trkpt lat="38.14753224783831" lon="15.450757268123715"><ele>729.3333333333333</ele><time>2026-04-08T14:43:43Z</time></trkpt><trkpt lat="38.14749947401432" lon="15.450856704646121"><ele>730.0</ele><time>2026-04-08T14:43:45Z</time></trkpt><trkpt lat="38.147452051531275" lon="15.450945123421432"><ele>730.6666666666666</ele><time>2026-04-08T14:43:47Z</time></trkpt><trkpt lat="38.14735750148174" lon="15.450987538998525"><ele>731.3333333333334</ele><time>2026-04-08T14:43:48.999Z</time></trkpt><trkpt lat="38.1472725874985" lon="15.450992223037996"><ele>732.0</ele><time>2026-04-08T14:43:50.999Z</time></trkpt><trkpt lat="38.14720046885177" lon="15.451056989184762"><ele>732.0</ele><time>2026-04-08T14:43:52.999Z</time></trkpt><trkpt lat="38.14717724345991" lon="15.45118224167039"><ele>732.0</ele><time>2026-04-08T14:43:54.999Z</time></trkpt><trkpt lat="38.14722355461335" lon="15.451253045060984"><ele>732.0</ele><time>2026-04-08T14:43:57.999Z</time></trkpt><trkpt lat="38.147282365601214" lon="15.451290293386375"><ele>732.0</ele><time>2026-04-08T14:44:04.999Z</time></trkpt><trkpt lat="38.14736053822716" lon="15.451337619585063"><ele>732.0</ele><time>2026-04-08T14:44:06.999Z</time></trkpt><trkpt lat="38.147422632778536" lon="15.451383622378183"><ele>732.0</ele><time>2026-04-08T14:44:07.999Z</time></trkpt><trkpt lat="38.14750224261934" lon="15.451476658123633"><ele>721.6</ele><time>2026-04-08T14:44:09.999Z</time></trkpt><trkpt lat="38.14751474047502" lon="15.45159130181518"><ele>711.2</ele><time>2026-04-08T14:44:11.999Z</time></trkpt><trkpt lat="38.14746999531131" lon="15.451725451276818"><ele>700.8</ele><time>2026-04-08T14:44:13.999Z</time></trkpt><trkpt lat="38.14746541124689" lon="15.451809132316312"><ele>690.4</ele><time>2026-04-08T14:44:14.999Z</time></trkpt><trkpt lat="38.147461637244405" lon="15.4518999120682"><ele>680.0</ele><time>2026-04-08T14:44:15.999Z</time></trkpt><trkpt lat="38.14745223513958" lon="15.452038876068439"><ele>680.0</ele><time>2026-04-08T14:44:17.999Z</time></trkpt><trkpt lat="38.14738791774976" lon="15.452164367816083"><ele>680.0</ele><time>2026-04-08T14:44:19.999Z</time></trkpt><trkpt lat="38.14733866715457" lon="15.452234869600634"><ele>680.0</ele><time>2026-04-08T14:44:20.999Z</time></trkpt><trkpt lat="38.147252845246015" lon="15.452347803944484"><ele>680.0</ele><time>2026-04-08T14:44:22.999Z</time></trkpt><trkpt lat="38.14720676136454" lon="15.452416135500311"><ele>680.0</ele><time>2026-04-08T14:44:23.999Z</time></trkpt><trkpt lat="38.14715365399467" lon="15.452470996767646"><ele>684.5</ele><time>2026-04-08T14:44:24.999Z</time></trkpt><trkpt lat="38.14711194678417" lon="15.452545320327175"><ele>689.0</ele><time>2026-04-08T14:44:25.999Z</time></trkpt><trkpt lat="38.147068648295104" lon="15.452629838231061"><ele>693.5</ele><time>2026-04-08T14:44:26.999Z</time></trkpt><trkpt lat="38.1470246331884" lon="15.452706511297128"><ele>698.0</ele><time>2026-04-08T14:44:27.999Z</time></trkpt><trkpt lat="38.146994673373634" lon="15.452794207238064"><ele>702.5</ele><time>2026-04-08T14:44:28.999Z</time></trkpt><trkpt lat="38.14697531807904" lon="15.452940384561343"><ele>707.0</ele><time>2026-04-08T14:44:30.999Z</time></trkpt><trkpt lat="38.14700661464564" lon="15.453011327560823"><ele>707.0</ele><time>2026-04-08T14:44:31.999Z</time></trkpt><trkpt lat="38.147060232173935" lon="15.453068964770097"><ele>707.0</ele><time>2026-04-08T14:44:32.999Z</time></trkpt><trkpt lat="38.147121840818805" lon="15.45310014293357"><ele>707.0</ele><time>2026-04-08T14:44:33.999Z</time></trkpt><trkpt lat="38.147191140682786" lon="15.453106373763625"><ele>707.0</ele><time>2026-04-08T14:44:34.999Z</time></trkpt><trkpt lat="38.14726682706093" lon="15.453103135439365"><ele>707.0</ele><time>2026-04-08T14:44:35.999Z</time></trkpt><trkpt lat="38.14734250198941" lon="15.4530781536571"><ele>707.0</ele><time>2026-04-08T14:44:36.999Z</time></trkpt><trkpt lat="38.14743534946007" lon="15.453064676047683"><ele>706.5</ele><time>2026-04-08T14:44:37.999Z</time></trkpt><trkpt lat="38.14751984586264" lon="15.453040779439899"><ele>706.0</ele><time>2026-04-08T14:44:38.999Z</time></trkpt><trkpt lat="38.1475976490256" lon="15.453029370648883"><ele>705.5</ele><time>2026-04-08T14:44:39.999Z</time></trkpt><trkpt lat="38.147665243816995" lon="15.45297863246694"><ele>705.0</ele><time>2026-04-08T14:44:40.999Z</time></trkpt><trkpt lat="38.14774743294592" lon="15.45294128465507"><ele>704.5</ele><time>2026-04-08T14:44:41.999Z</time></trkpt><trkpt lat="38.147829517503084" lon="15.452934104384095"><ele>704.0</ele><time>2026-04-08T14:44:42.999Z</time></trkpt><trkpt lat="38.147925309178746" lon="15.452937636875328"><ele>704.0</ele><time>2026-04-08T14:44:43.999Z</time></trkpt><trkpt lat="38.148014139262514" lon="15.45295232753725"><ele>704.0</ele><time>2026-04-08T14:44:44.999Z</time></trkpt><trkpt lat="38.14809539089265" lon="15.452951269561899"><ele>704.0</ele><time>2026-04-08T14:44:45.999Z</time></trkpt><trkpt lat="38.14819214672501" lon="15.452987712480413"><ele>704.0</ele><time>2026-04-08T14:44:46.999Z</time></trkpt><trkpt lat="38.14827691052399" lon="15.453004385573928"><ele>704.0</ele><time>2026-04-08T14:44:47.999Z</time></trkpt><trkpt lat="38.14835153400576" lon="15.45297967674195"><ele>704.0</ele><time>2026-04-08T14:44:48.999Z</time></trkpt><trkpt lat="38.14841968817858" lon="15.452937407662965"><ele>700.8333333333333</ele><time>2026-04-08T14:44:49.998Z</time></trkpt><trkpt lat="38.14846494986185" lon="15.45285377153142"><ele>697.6666666666666</ele><time>2026-04-08T14:44:50.998Z</time></trkpt><trkpt lat="38.14849374688177" lon="15.45276712364479"><ele>694.5</ele><time>2026-04-08T14:44:51.998Z</time></trkpt><trkpt lat="38.148531098579824" lon="15.452694561145602"><ele>691.3333333333334</ele><time>2026-04-08T14:44:52.998Z</time></trkpt><trkpt lat="38.148614444716905" lon="15.452588906107664"><ele>688.1666666666667</ele><time>2026-04-08T14:44:54.998Z</time></trkpt><trkpt lat="38.148680898430165" lon="15.452634724488073"><ele>685.0</ele><time>2026-04-08T14:44:55.998Z</time></trkpt><trkpt lat="38.14873101639727" lon="15.45271187068589"><ele>685.0</ele><time>2026-04-08T14:44:56.998Z</time></trkpt><trkpt lat="38.14873562089848" lon="15.452803090292084"><ele>685.0</ele><time>2026-04-08T14:44:57.998Z</time></trkpt><trkpt lat="38.14869454238139" lon="15.45290769481678"><ele>685.0</ele><time>2026-04-08T14:44:58.998Z</time></trkpt><trkpt lat="38.14864525792849" lon="15.45300494412014"><ele>685.0</ele><time>2026-04-08T14:44:59.998Z</time></trkpt><trkpt lat="38.14860115480759" lon="15.45309740033895"><ele>685.0</ele><time>2026-04-08T14:45:00.998Z</time></trkpt><trkpt lat="38.1485813616546" lon="15.45317370694452"><ele>685.0</ele><time>2026-04-08T14:45:01.998Z</time></trkpt><trkpt lat="38.148577918117965" lon="15.453277659619912"><ele>689.5</ele><time>2026-04-08T14:45:02.998Z</time></trkpt><trkpt lat="38.14858858290709" lon="15.453365630718789"><ele>694.0</ele><time>2026-04-08T14:45:03.998Z</time></trkpt><trkpt lat="38.148679774451054" lon="15.453424257258538"><ele>698.5</ele><time>2026-04-08T14:45:05.998Z</time></trkpt><trkpt lat="38.1487455260343" lon="15.453416550377405"><ele>703.0</ele><time>2026-04-08T14:45:06.998Z</time></trkpt><trkpt lat="38.14881130114888" lon="15.453366729007039"><ele>707.5</ele><time>2026-04-08T14:45:07.998Z</time></trkpt><trkpt lat="38.14886849842847" lon="15.453318181755936"><ele>712.0</ele><time>2026-04-08T14:45:08.998Z</time></trkpt><trkpt lat="38.14894894060816" lon="15.45329862387865"><ele>712.0</ele><time>2026-04-08T14:45:10.998Z</time></trkpt><trkpt lat="38.14901311378003" lon="15.453333362594297"><ele>712.0</ele><time>2026-04-08T14:45:11.998Z</time></trkpt><trkpt lat="38.149074605471625" lon="15.453402074479909"><ele>712.0</ele><time>2026-04-08T14:45:12.998Z</time></trkpt><trkpt lat="38.14912574874053" lon="15.453455428097085"><ele>712.0</ele><time>2026-04-08T14:45:13.998Z</time></trkpt><trkpt lat="38.149162613354164" lon="15.453580449512941"><ele>712.0</ele><time>2026-04-08T14:45:15.998Z</time></trkpt><trkpt lat="38.149195879833165" lon="15.453654054046744"><ele>712.0</ele><time>2026-04-08T14:45:16.998Z</time></trkpt><trkpt lat="38.14923982840495" lon="15.453753010899684"><ele>712.0</ele><time>2026-04-08T14:45:18.998Z</time></trkpt><trkpt lat="38.14926476517482" lon="15.453831047452375"><ele>712.0</ele><time>2026-04-08T14:45:20.998Z</time></trkpt><trkpt lat="38.14926380176257" lon="15.453911424741754"><ele>712.0</ele><time>2026-04-08T14:45:23.998Z</time></trkpt><trkpt lat="38.149155445844436" lon="15.453830235390324"><ele>712.0</ele><time>2026-04-08T14:46:08.999Z</time></trkpt><trkpt lat="38.149090922933865" lon="15.453779379666097"><ele>712.0</ele><time>2026-04-08T14:47:12.998Z</time></trkpt><trkpt lat="38.14902695423107" lon="15.453725543557761"><ele>712.0</ele><time>2026-04-08T14:47:14.998Z</time></trkpt><trkpt lat="38.14892946860912" lon="15.453729510115847"><ele>712.0</ele><time>2026-04-08T14:47:17.998Z</time></trkpt><trkpt lat="38.148812261616" lon="15.453782790010719"><ele>712.0</ele><time>2026-04-08T14:47:19.998Z</time></trkpt><trkpt lat="38.14873517384412" lon="15.453809560295317"><ele>712.0</ele><time>2026-04-08T14:47:20.998Z</time></trkpt><trkpt lat="38.14865215757172" lon="15.453798654637199"><ele>712.0</ele><time>2026-04-08T14:47:22.998Z</time></trkpt><trkpt lat="38.14851852072702" lon="15.453792670203333"><ele>712.0</ele><time>2026-04-08T14:47:24.998Z</time></trkpt><trkpt lat="38.14844663307104" lon="15.453768730984564"><ele>712.0</ele><time>2026-04-08T14:47:25.998Z</time></trkpt><trkpt lat="38.14837253381836" lon="15.453738041807284"><ele>712.0</ele><time>2026-04-08T14:47:26.998Z</time></trkpt><trkpt lat="38.14830732349871" lon="15.45373944707797"><ele>712.0</ele><time>2026-04-08T14:47:27.998Z</time></trkpt><trkpt lat="38.14820734692662" lon="15.453785610554496"><ele>712.0</ele><time>2026-04-08T14:47:29.998Z</time></trkpt><trkpt lat="38.148136853514764" lon="15.453848937343984"><ele>712.0</ele><time>2026-04-08T14:47:31.998Z</time></trkpt><trkpt lat="38.14807927127888" lon="15.45390000897267"><ele>712.0</ele><time>2026-04-08T14:47:35.998Z</time></trkpt><trkpt lat="38.148016264973805" lon="15.453953546850638"><ele>717.2</ele><time>2026-04-08T14:47:37.998Z</time></trkpt><trkpt lat="38.14793951459631" lon="15.453971195969434"><ele>722.4000000000001</ele><time>2026-04-08T14:47:41Z</time></trkpt><trkpt lat="38.147799996767596" lon="15.454064674471892"><ele>727.5999999999999</ele><time>2026-04-08T14:47:57Z</time></trkpt><trkpt lat="38.14771357128504" lon="15.454104345810139"><ele>732.8</ele><time>2026-04-08T14:47:59Z</time></trkpt><trkpt lat="38.147653876794074" lon="15.45414547162785"><ele>738.0</ele><time>2026-04-08T14:48:05.999Z</time></trkpt><trkpt lat="38.14759093285817" lon="15.454160540110843"><ele>738.0</ele><time>2026-04-08T14:48:12.999Z</time></trkpt><trkpt lat="38.14752799623294" lon="15.45416289652326"><ele>738.0</ele><time>2026-04-08T14:48:23.999Z</time></trkpt><trkpt lat="38.14744642131919" lon="15.454176340532017"><ele>738.0</ele><time>2026-04-08T14:48:31.999Z</time></trkpt><trkpt lat="38.14737532505499" lon="15.454212324573932"><ele>738.0</ele><time>2026-04-08T14:48:40.999Z</time></trkpt><trkpt lat="38.1473052102883" lon="15.454226165451763"><ele>738.0</ele><time>2026-04-08T14:48:45.999Z</time></trkpt><trkpt lat="38.14722928109234" lon="15.45424261684995"><ele>738.0</ele><time>2026-04-08T14:48:49.999Z</time></trkpt><trkpt lat="38.14714785086865" lon="15.454281904351403"><ele>738.3333333333334</ele><time>2026-04-08T14:48:51.999Z</time></trkpt><trkpt lat="38.147055467022476" lon="15.454345204464857"><ele>738.6666666666666</ele><time>2026-04-08T14:48:53.999Z</time></trkpt><trkpt lat="38.14699618374314" lon="15.454374338537926"><ele>739.0</ele><time>2026-04-08T14:48:54.999Z</time></trkpt><trkpt lat="38.14692898920842" lon="15.454401826764872"><ele>739.3333333333333</ele><time>2026-04-08T14:48:55.999Z</time></trkpt><trkpt lat="38.14684795658735" lon="15.454441311957657"><ele>739.6666666666666</ele><time>2026-04-08T14:48:56.999Z</time></trkpt><trkpt lat="38.14677063085417" lon="15.454465737048707"><ele>740.0</ele><time>2026-04-08T14:48:57.999Z</time></trkpt><trkpt lat="38.14670571175478" lon="15.45450624196698"><ele>740.0</ele><time>2026-04-08T14:48:58.999Z</time></trkpt><trkpt lat="38.146621888027155" lon="15.454490286669346"><ele>740.0</ele><time>2026-04-08T14:49:00.998Z</time></trkpt><trkpt lat="38.14655500837673" lon="15.454430999955767"><ele>740.0</ele><time>2026-04-08T14:49:01.998Z</time></trkpt><trkpt lat="38.14649550512334" lon="15.454389521680017"><ele>740.0</ele><time>2026-04-08T14:49:02.998Z</time></trkpt><trkpt lat="38.146450108226425" lon="15.454331500332287"><ele>740.0</ele><time>2026-04-08T14:49:04.998Z</time></trkpt><trkpt lat="38.1463814418989" lon="15.454221340174792"><ele>740.0</ele><time>2026-04-08T14:49:07.998Z</time></trkpt><trkpt lat="38.146293562373856" lon="15.454174791520032"><ele>742.0</ele><time>2026-04-08T14:49:09.998Z</time></trkpt><trkpt lat="38.14621328915373" lon="15.454125925114505"><ele>744.0</ele><time>2026-04-08T14:49:11.998Z</time></trkpt><trkpt lat="38.14614493837786" lon="15.454097121067267"><ele>746.0</ele><time>2026-04-08T14:49:13.998Z</time></trkpt><trkpt lat="38.146075639776804" lon="15.45408920876215"><ele>748.0</ele><time>2026-04-08T14:49:16.998Z</time></trkpt><trkpt lat="38.146003808585256" lon="15.454071024607305"><ele>750.0</ele><time>2026-04-08T14:49:28.998Z</time></trkpt><trkpt lat="38.14596315061822" lon="15.454151635279228"><ele>752.0</ele><time>2026-04-08T14:49:58Z</time></trkpt><trkpt lat="38.145952202894186" lon="15.454253343074555"><ele>752.0</ele><time>2026-04-08T14:50:03Z</time></trkpt><trkpt lat="38.145952903633706" lon="15.454341747476647"><ele>752.0</ele><time>2026-04-08T14:50:05.999Z</time></trkpt><trkpt lat="38.14595704593579" lon="15.454474863596465"><ele>752.0</ele><time>2026-04-08T14:50:08.999Z</time></trkpt><trkpt lat="38.145969585121605" lon="15.454604717497036"><ele>752.0</ele><time>2026-04-08T14:50:10.999Z</time></trkpt><trkpt lat="38.145960331025435" lon="15.454692194863014"><ele>752.0</ele><time>2026-04-08T14:50:13.999Z</time></trkpt><trkpt lat="38.14592722053685" lon="15.454764501212297"><ele>752.0</ele><time>2026-04-08T14:50:15.999Z</time></trkpt><trkpt lat="38.14589992599981" lon="15.454836751064311"><ele>756.3333333333333</ele><time>2026-04-08T14:50:16.999Z</time></trkpt><trkpt lat="38.145849165556164" lon="15.454899196491889"><ele>760.6666666666666</ele><time>2026-04-08T14:50:20.999Z</time></trkpt><trkpt lat="38.145782725896375" lon="15.454930847705954"><ele>765.0</ele><time>2026-04-08T14:50:22.999Z</time></trkpt><trkpt lat="38.14570706822689" lon="15.454983714467517"><ele>769.3333333333333</ele><time>2026-04-08T14:50:24.999Z</time></trkpt><trkpt lat="38.14566591783312" lon="15.455053240710853"><ele>773.6666666666666</ele><time>2026-04-08T14:50:27.999Z</time></trkpt><trkpt lat="38.145583066518164" lon="15.455091579796878"><ele>778.0</ele><time>2026-04-08T14:50:30.999Z</time></trkpt><trkpt lat="38.14551392477279" lon="15.455047148844216"><ele>780.6666666666666</ele><time>2026-04-08T14:50:34.999Z</time></trkpt><trkpt lat="38.14547961959679" lon="15.454927852116196"><ele>783.3333333333333</ele><time>2026-04-08T14:50:36.999Z</time></trkpt><trkpt lat="38.14539058352662" lon="15.454908317796528"><ele>786.0</ele><time>2026-04-08T14:50:39.999Z</time></trkpt><trkpt lat="38.145330987725586" lon="15.45488163769441"><ele>788.6666666666667</ele><time>2026-04-08T14:50:43.999Z</time></trkpt><trkpt lat="38.14526304360635" lon="15.454840423096826"><ele>791.3333333333334</ele><time>2026-04-08T14:50:48.999Z</time></trkpt><trkpt lat="38.14520222629741" lon="15.454886138957349"><ele>794.0</ele><time>2026-04-08T14:50:53.999Z</time></trkpt><trkpt lat="38.14522900099651" lon="15.454978444653708"><ele>794.0</ele><time>2026-04-08T14:50:57.999Z</time></trkpt><trkpt lat="38.145266641919804" lon="15.455103151129302"><ele>794.0</ele><time>2026-04-08T14:51:00.999Z</time></trkpt><trkpt lat="38.145201720551896" lon="15.455088228882873"><ele>794.0</ele><time>2026-04-08T14:51:03.998Z</time></trkpt><trkpt lat="38.14513412448272" lon="15.455095889556276"><ele>794.0</ele><time>2026-04-08T14:51:14.998Z</time></trkpt><trkpt lat="38.14513235439123" lon="15.455190668784981"><ele>794.0</ele><time>2026-04-08T14:51:25.998Z</time></trkpt><trkpt lat="38.145146946719684" lon="15.455273374765774"><ele>794.0</ele><time>2026-04-08T14:51:28.998Z</time></trkpt><trkpt lat="38.14511814916841" lon="15.455351845378996"><ele>794.0</ele><time>2026-04-08T14:51:38.998Z</time></trkpt><trkpt lat="38.1451754108492" lon="15.455401511655213"><ele>799.8333333333334</ele><time>2026-04-08T14:51:46.998Z</time></trkpt><trkpt lat="38.14521384410439" lon="15.455485751957944"><ele>805.6666666666667</ele><time>2026-04-08T14:51:49.998Z</time></trkpt><trkpt lat="38.145157792288785" lon="15.455531054294196"><ele>811.5</ele><time>2026-04-08T14:51:54Z</time></trkpt><trkpt lat="38.145055468186754" lon="15.45552706838593"><ele>817.3333333333333</ele><time>2026-04-08T14:52:10.999Z</time></trkpt><trkpt lat="38.144993021813406" lon="15.455496015426082"><ele>823.1666666666666</ele><time>2026-04-08T14:52:12.999Z</time></trkpt><trkpt lat="38.144889158308814" lon="15.455502179279938"><ele>829.0</ele><time>2026-04-08T14:52:15.999Z</time></trkpt><trkpt lat="38.14481564437571" lon="15.455510889776729"><ele>829.1428571428571</ele><time>2026-04-08T14:52:17.999Z</time></trkpt><trkpt lat="38.14472926752211" lon="15.455531010423577"><ele>829.2857142857142</ele><time>2026-04-08T14:52:20.999Z</time></trkpt><trkpt lat="38.144664763212575" lon="15.455589779425956"><ele>829.4285714285714</ele><time>2026-04-08T14:52:30.999Z</time></trkpt><trkpt lat="38.144717842478755" lon="15.455645674254008"><ele>829.5714285714286</ele><time>2026-04-08T14:53:00.999Z</time></trkpt><trkpt lat="38.14476356616092" lon="15.45570991950297"><ele>829.7142857142858</ele><time>2026-04-08T14:53:12.998Z</time></trkpt><trkpt lat="38.14470624880189" lon="15.455669328967339"><ele>829.8571428571429</ele><time>2026-04-08T14:55:23.998Z</time></trkpt><trkpt lat="38.144659067338765" lon="15.455604461943745"><ele>830.0</ele><time>2026-04-08T14:55:30.998Z</time></trkpt><trkpt lat="38.144690203658506" lon="15.455674181954198"><ele>830.0</ele><time>2026-04-08T14:56:00.998Z</time></trkpt><trkpt lat="38.1447259377243" lon="15.455742512549854"><ele>830.0</ele><time>2026-04-08T14:56:29.999Z</time></trkpt><trkpt lat="38.14471391646252" lon="15.455837761758914"><ele>830.0</ele><time>2026-04-08T14:56:46.999Z</time></trkpt><trkpt lat="38.14473882174458" lon="15.455925891641723"><ele>830.0</ele><time>2026-04-08T14:56:54.999Z</time></trkpt><trkpt lat="38.144786994270774" lon="15.456012248876087"><ele>830.0</ele><time>2026-04-08T14:56:57.999Z</time></trkpt><trkpt lat="38.14480336918743" lon="15.45610484608588"><ele>830.0</ele><time>2026-04-08T14:57:01.999Z</time></trkpt><trkpt lat="38.14485424931783" lon="15.456160778804934"><ele>830.0</ele><time>2026-04-08T14:57:08.999Z</time></trkpt><trkpt lat="38.14478771406357" lon="15.456153804641087"><ele>830.0</ele><time>2026-04-08T14:57:32.998Z</time></trkpt><trkpt lat="38.144716022612236" lon="15.456170134344227"><ele>830.0</ele><time>2026-04-08T14:57:40.998Z</time></trkpt><trkpt lat="38.14476357777368" lon="15.456228081215809"><ele>830.0</ele><time>2026-04-08T14:57:47.998Z</time></trkpt><trkpt lat="38.14477929505253" lon="15.456306318367098"><ele>830.0</ele><time>2026-04-08T14:57:52.998Z</time></trkpt><trkpt lat="38.144786985242845" lon="15.456390415737776"><ele>830.0</ele><time>2026-04-08T14:58:00.998Z</time></trkpt><trkpt lat="38.14472089965415" lon="15.456436774340336"><ele>830.0</ele><time>2026-04-08T14:58:36.999Z</time></trkpt><trkpt lat="38.14473751973223" lon="15.456531750808525"><ele>830.0</ele><time>2026-04-08T14:59:04.999Z</time></trkpt><trkpt lat="38.14477058844237" lon="15.45661262749765"><ele>835.5000000000001</ele><time>2026-04-08T14:59:06.999Z</time></trkpt><trkpt lat="38.14472335748798" lon="15.456687762307812"><ele>841.0</ele><time>2026-04-08T14:59:12.999Z</time></trkpt><trkpt lat="38.144666155179635" lon="15.4567722587655"><ele>846.5</ele><time>2026-04-08T14:59:28.998Z</time></trkpt><trkpt lat="38.14462581969012" lon="15.456847499322206"><ele>852.0</ele><time>2026-04-08T14:59:30.998Z</time></trkpt><trkpt lat="38.1445570478162" lon="15.456881263360923"><ele>857.5000000000001</ele><time>2026-04-08T14:59:33.998Z</time></trkpt><trkpt lat="38.14451385054481" lon="15.456949659190293"><ele>863.0</ele><time>2026-04-08T14:59:35.998Z</time></trkpt><trkpt lat="38.14446158990007" lon="15.457017936195534"><ele>863.0000000000001</ele><time>2026-04-08T14:59:37.998Z</time></trkpt><trkpt lat="38.14439772545269" lon="15.457074252056401"><ele>863.0</ele><time>2026-04-08T14:59:40.998Z</time></trkpt><trkpt lat="38.14434276965124" lon="15.457124542518672"><ele>863.0</ele><time>2026-04-08T14:59:42.998Z</time></trkpt><trkpt lat="38.14426823487866" lon="15.457219857186125"><ele>863.0</ele><time>2026-04-08T14:59:44.998Z</time></trkpt><trkpt lat="38.14420761049721" lon="15.457334777278781"><ele>863.0000000000001</ele><time>2026-04-08T14:59:46.998Z</time></trkpt><trkpt lat="38.14417133883124" lon="15.457413224478573"><ele>863.0</ele><time>2026-04-08T14:59:49.998Z</time></trkpt><trkpt lat="38.14415744501468" lon="15.457500786243234"><ele>868.0000000000001</ele><time>2026-04-08T14:59:52.998Z</time></trkpt><trkpt lat="38.14408699376964" lon="15.457564023427077"><ele>873.0</ele><time>2026-04-08T14:59:55.998Z</time></trkpt><trkpt lat="38.14402436260993" lon="15.457654693506422"><ele>878.0</ele><time>2026-04-08T14:59:57.998Z</time></trkpt><trkpt lat="38.14399489874307" lon="15.457732200514195"><ele>883.0</ele><time>2026-04-08T15:00:00.998Z</time></trkpt><trkpt lat="38.14389401786419" lon="15.4577640431109"><ele>888.0000000000001</ele><time>2026-04-08T15:00:02.998Z</time></trkpt><trkpt lat="38.143827772988075" lon="15.457787917061607"><ele>893.0</ele><time>2026-04-08T15:00:04.998Z</time></trkpt><trkpt lat="38.14374886755572" lon="15.457763407366501"><ele>894.4285714285714</ele><time>2026-04-08T15:00:07.998Z</time></trkpt><trkpt lat="38.143684178971014" lon="15.457686508268258"><ele>895.8571428571429</ele><time>2026-04-08T15:00:10.998Z</time></trkpt><trkpt lat="38.14360655620523" lon="15.457658976488123"><ele>897.2857142857142</ele><time>2026-04-08T15:00:14Z</time></trkpt><trkpt lat="38.14354523112869" lon="15.457633801194142"><ele>898.7142857142858</ele><time>2026-04-08T15:00:20Z</time></trkpt><trkpt lat="38.143469329030296" lon="15.457643688393876"><ele>900.1428571428571</ele><time>2026-04-08T15:00:25Z</time></trkpt><trkpt lat="38.143406896688965" lon="15.457670898757122"><ele>901.5714285714286</ele><time>2026-04-08T15:00:29Z</time></trkpt><trkpt lat="38.14334334253405" lon="15.457688194373176"><ele>903.0</ele><time>2026-04-08T15:00:45.999Z</time></trkpt><trkpt lat="38.14327160173078" lon="15.4575774032074"><ele>907.8333333333334</ele><time>2026-04-08T15:01:27.999Z</time></trkpt><trkpt lat="38.14321339629781" lon="15.45749996944461"><ele>912.6666666666667</ele><time>2026-04-08T15:01:30.998Z</time></trkpt><trkpt lat="38.14315844342129" lon="15.457460407035883"><ele>917.5</ele><time>2026-04-08T15:01:32.998Z</time></trkpt><trkpt lat="38.143108164784174" lon="15.457361440166457"><ele>922.3333333333334</ele><time>2026-04-08T15:01:35.998Z</time></trkpt><trkpt lat="38.143031717523435" lon="15.457340470770065"><ele>927.1666666666667</ele><time>2026-04-08T15:01:37.998Z</time></trkpt><trkpt lat="38.142950819200976" lon="15.457338946938691"><ele>932.0</ele><time>2026-04-08T15:01:40.998Z</time></trkpt><trkpt lat="38.14289536447484" lon="15.457278145021125"><ele>932.0000000000001</ele><time>2026-04-08T15:01:42.998Z</time></trkpt><trkpt lat="38.14279835294774" lon="15.457292143941562"><ele>932.0</ele><time>2026-04-08T15:01:44.998Z</time></trkpt><trkpt lat="38.142692432736546" lon="15.457275633598638"><ele>932.0</ele><time>2026-04-08T15:01:47.998Z</time></trkpt><trkpt lat="38.14261062361913" lon="15.457234728382906"><ele>932.0</ele><time>2026-04-08T15:01:49.998Z</time></trkpt><trkpt lat="38.14252835503919" lon="15.457205827220452"><ele>932.0000000000001</ele><time>2026-04-08T15:01:51.998Z</time></trkpt><trkpt lat="38.14247240639383" lon="15.457158617408764"><ele>932.0</ele><time>2026-04-08T15:01:53.998Z</time></trkpt><trkpt lat="38.142406910308374" lon="15.457124508658513"><ele>933.2</ele><time>2026-04-08T15:01:55.998Z</time></trkpt><trkpt lat="38.14231679942852" lon="15.457117729162556"><ele>934.4000000000001</ele><time>2026-04-08T15:01:57.998Z</time></trkpt><trkpt lat="38.14222532820529" lon="15.457087873098745"><ele>935.5999999999999</ele><time>2026-04-08T15:01:59.998Z</time></trkpt><trkpt lat="38.14216618479092" lon="15.457023992581188"><ele>936.8</ele><time>2026-04-08T15:02:01.998Z</time></trkpt><trkpt lat="38.142107532563735" lon="15.456905805362696"><ele>938.0</ele><time>2026-04-08T15:02:03.998Z</time></trkpt><trkpt lat="38.14207418302639" lon="15.456802925036655"><ele>938.0000000000001</ele><time>2026-04-08T15:02:05.998Z</time></trkpt><trkpt lat="38.142009329794625" lon="15.456706033243771"><ele>938.0</ele><time>2026-04-08T15:02:08.998Z</time></trkpt><trkpt lat="38.14196481899965" lon="15.456779141543812"><ele>938.0</ele><time>2026-04-08T15:02:13.998Z</time></trkpt><trkpt lat="38.141879625495" lon="15.456766110862915"><ele>938.0</ele><time>2026-04-08T15:02:19Z</time></trkpt><trkpt lat="38.14180941986105" lon="15.456766905405964"><ele>938.0000000000001</ele><time>2026-04-08T15:02:22Z</time></trkpt><trkpt lat="38.14174912840858" lon="15.456736749379695"><ele>938.0</ele><time>2026-04-08T15:02:24Z</time></trkpt><trkpt lat="38.141674447531614" lon="15.456787344039551"><ele>938.0000000000001</ele><time>2026-04-08T15:02:28Z</time></trkpt><trkpt lat="38.141655704255456" lon="15.456910707089124"><ele>938.0</ele><time>2026-04-08T15:02:30Z</time></trkpt><trkpt lat="38.14162932764875" lon="15.457001721836688"><ele>938.0</ele><time>2026-04-08T15:02:32Z</time></trkpt><trkpt lat="38.141582422334054" lon="15.457062447455936"><ele>938.0</ele><time>2026-04-08T15:02:34Z</time></trkpt><trkpt lat="38.14158179148508" lon="15.457143622824915"><ele>938.0000000000001</ele><time>2026-04-08T15:02:35Z</time></trkpt><trkpt lat="38.14157657251017" lon="15.457301150090698"><ele>938.0</ele><time>2026-04-08T15:02:36.999Z</time></trkpt><trkpt lat="38.14162555630886" lon="15.457396410558285"><ele>940.8333333333334</ele><time>2026-04-08T15:02:38.999Z</time></trkpt><trkpt lat="38.14171356783416" lon="15.457428600321796"><ele>943.6666666666667</ele><time>2026-04-08T15:02:40.999Z</time></trkpt><trkpt lat="38.141813077514286" lon="15.457447965690745"><ele>946.5</ele><time>2026-04-08T15:02:42.999Z</time></trkpt><trkpt lat="38.141821622031735" lon="15.457549705913625"><ele>949.3333333333333</ele><time>2026-04-08T15:02:46.999Z</time></trkpt><trkpt lat="38.14185394559687" lon="15.457626468187582"><ele>952.1666666666666</ele><time>2026-04-08T15:02:48.999Z</time></trkpt><trkpt lat="38.14191603171366" lon="15.45771697828722"><ele>955.0</ele><time>2026-04-08T15:02:50.999Z</time></trkpt><trkpt lat="38.14192629458799" lon="15.457810566177384"><ele>954.9999999999999</ele><time>2026-04-08T15:02:52.999Z</time></trkpt><trkpt lat="38.141875090899966" lon="15.45787331242839"><ele>955.0</ele><time>2026-04-08T15:02:55.999Z</time></trkpt><trkpt lat="38.14185868026516" lon="15.457955712271835"><ele>954.9999999999999</ele><time>2026-04-08T15:03:00.999Z</time></trkpt><trkpt lat="38.141788985824675" lon="15.457925271344118"><ele>954.9999999999999</ele><time>2026-04-08T15:03:06.999Z</time></trkpt><trkpt lat="38.14172582830674" lon="15.457985509406717"><ele>955.0</ele><time>2026-04-08T15:03:11.999Z</time></trkpt><trkpt lat="38.14170125444517" lon="15.458076973234707"><ele>954.9999999999999</ele><time>2026-04-08T15:03:14.999Z</time></trkpt><trkpt lat="38.141734659238594" lon="15.45815443427151"><ele>954.9999999999999</ele><time>2026-04-08T15:03:17.999Z</time></trkpt><trkpt lat="38.1417581577519" lon="15.458250151381664"><ele>958.9999999999999</ele><time>2026-04-08T15:03:27.999Z</time></trkpt><trkpt lat="38.14169224173018" lon="15.458298185167678"><ele>963.0</ele><time>2026-04-08T15:03:33.998Z</time></trkpt><trkpt lat="38.14162094980907" lon="15.45828846260025"><ele>966.9999999999999</ele><time>2026-04-08T15:03:38.998Z</time></trkpt><trkpt lat="38.14155674038865" lon="15.458264741930956"><ele>970.9999999999999</ele><time>2026-04-08T15:03:45.998Z</time></trkpt><trkpt lat="38.14148476079305" lon="15.458226785196944"><ele>975.0</ele><time>2026-04-08T15:03:50.998Z</time></trkpt><trkpt lat="38.14142966966576" lon="15.458178810990356"><ele>978.9999999999999</ele><time>2026-04-08T15:04:01.998Z</time></trkpt><trkpt lat="38.14141770855637" lon="15.45825995209544"><ele>982.9999999999999</ele><time>2026-04-08T15:04:27Z</time></trkpt><trkpt lat="38.14134654541668" lon="15.458227955982077"><ele>985.7142857142856</ele><time>2026-04-08T15:04:57.999Z</time></trkpt><trkpt lat="38.14128229839379" lon="15.458188243014428"><ele>988.4285714285713</ele><time>2026-04-08T15:05:02.999Z</time></trkpt><trkpt lat="38.14131161608897" lon="15.4582639276953"><ele>991.1428571428571</ele><time>2026-04-08T15:05:23Z</time></trkpt><trkpt lat="38.14130659909769" lon="15.458362370980064"><ele>993.8571428571428</ele><time>2026-04-08T15:05:27Z</time></trkpt><trkpt lat="38.14131052142145" lon="15.458476606464092"><ele>996.5714285714284</ele><time>2026-04-08T15:05:29Z</time></trkpt><trkpt lat="38.14126889708346" lon="15.458536948344955"><ele>999.2857142857143</ele><time>2026-04-08T15:05:31Z</time></trkpt><trkpt lat="38.14120626519625" lon="15.458583346936397"><ele>1002.0</ele><time>2026-04-08T15:09:20Z</time></trkpt><trkpt lat="38.14118517476991" lon="15.458659075512381"><ele>1002.0</ele><time>2026-04-08T15:09:21Z</time></trkpt><trkpt lat="38.1412479697111" lon="15.458737995485526"><ele>1002.0</ele><time>2026-04-08T15:09:24Z</time></trkpt><trkpt lat="38.14132474719945" lon="15.458800474798768"><ele>1002.0</ele><time>2026-04-08T15:09:25Z</time></trkpt><trkpt lat="38.14139267039651" lon="15.458879987447725"><ele>1002.0</ele><time>2026-04-08T15:09:26Z</time></trkpt><trkpt lat="38.14144245478013" lon="15.458972001313697"><ele>1002.0</ele><time>2026-04-08T15:09:27Z</time></trkpt><trkpt lat="38.141494991682194" lon="15.459033890598098"><ele>1002.0</ele><time>2026-04-08T15:09:28Z</time></trkpt><trkpt lat="38.14154167840056" lon="15.459095082352823"><ele>1002.8333333333334</ele><time>2026-04-08T15:09:29Z</time></trkpt><trkpt lat="38.141580051034964" lon="15.459169824756074"><ele>1003.6666666666667</ele><time>2026-04-08T15:09:30Z</time></trkpt><trkpt lat="38.14160842903344" lon="15.459287129668692"><ele>1004.5</ele><time>2026-04-08T15:09:31Z</time></trkpt><trkpt lat="38.14161477672958" lon="15.459392253353474"><ele>1005.3333333333334</ele><time>2026-04-08T15:09:32Z</time></trkpt><trkpt lat="38.14161013581753" lon="15.459512264614242"><ele>1006.1666666666667</ele><time>2026-04-08T15:09:33Z</time></trkpt><trkpt lat="38.14160635378569" lon="15.459628606993924"><ele>1007.0</ele><time>2026-04-08T15:09:34Z</time></trkpt><trkpt lat="38.141594260661236" lon="15.4597519949293"><ele>1007.2</ele><time>2026-04-08T15:09:35Z</time></trkpt><trkpt lat="38.141606292599505" lon="15.459875354558255"><ele>1007.4000000000001</ele><time>2026-04-08T15:09:36Z</time></trkpt><trkpt lat="38.14165117941629" lon="15.459998649029062"><ele>1007.5999999999999</ele><time>2026-04-08T15:09:37Z</time></trkpt><trkpt lat="38.141733664737416" lon="15.460067974686062"><ele>1007.8</ele><time>2026-04-08T15:09:38Z</time></trkpt><trkpt lat="38.14183470616149" lon="15.46014413720231"><ele>1008.0</ele><time>2026-04-08T15:09:39Z</time></trkpt><trkpt lat="38.14193753900825" lon="15.460220507369682"><ele>1008.0</ele><time>2026-04-08T15:09:40Z</time></trkpt><trkpt lat="38.14205192660336" lon="15.460309688545284"><ele>1008.0</ele><time>2026-04-08T15:09:41Z</time></trkpt><trkpt lat="38.14216054300519" lon="15.46041577396466"><ele>1008.0</ele><time>2026-04-08T15:09:42Z</time></trkpt><trkpt lat="38.142277052547996" lon="15.460493987310857"><ele>1008.0</ele><time>2026-04-08T15:09:43Z</time></trkpt><trkpt lat="38.14236907938256" lon="15.460599554490669"><ele>1008.25</ele><time>2026-04-08T15:09:44Z</time></trkpt><trkpt lat="38.142454995798914" lon="15.460686034581714"><ele>1008.5</ele><time>2026-04-08T15:09:45Z</time></trkpt><trkpt lat="38.14251667762787" lon="15.460758399845233"><ele>1008.75</ele><time>2026-04-08T15:09:46Z</time></trkpt><trkpt lat="38.14257500553028" lon="15.460914179416573"><ele>1009.0</ele><time>2026-04-08T15:09:46.999Z</time></trkpt><trkpt lat="38.142671039438994" lon="15.461029343004286"><ele>1009.0</ele><time>2026-04-08T15:09:47.999Z</time></trkpt><trkpt lat="38.142763314309114" lon="15.461109807365839"><ele>1009.0000000000001</ele><time>2026-04-08T15:09:48.999Z</time></trkpt><trkpt lat="38.14284829714704" lon="15.46115588944933"><ele>1009.0000000000001</ele><time>2026-04-08T15:09:49.999Z</time></trkpt><trkpt lat="38.142932400825764" lon="15.461197171590879"><ele>1009.0</ele><time>2026-04-08T15:09:50.999Z</time></trkpt><trkpt lat="38.14300776017468" lon="15.46122404940381"><ele>1009.0</ele><time>2026-04-08T15:09:51.999Z</time></trkpt><trkpt lat="38.14308670084732" lon="15.461243838733042"><ele>1009.0</ele><time>2026-04-08T15:09:52.999Z</time></trkpt><trkpt lat="38.14317106146925" lon="15.461261679632225"><ele>1009.0</ele><time>2026-04-08T15:09:53.999Z</time></trkpt><trkpt lat="38.143262159915885" lon="15.461275376103515"><ele>1009.0</ele><time>2026-04-08T15:09:54.999Z</time></trkpt><trkpt lat="38.14338289246244" lon="15.461286949493694"><ele>1009.0</ele><time>2026-04-08T15:09:55.999Z</time></trkpt><trkpt lat="38.143541925319596" lon="15.461298597571624"><ele>1006.0</ele><time>2026-04-08T15:09:56.999Z</time></trkpt><trkpt lat="38.14367756882389" lon="15.461308603008904"><ele>1003.0</ele><time>2026-04-08T15:09:57.999Z</time></trkpt><trkpt lat="38.14380883238731" lon="15.461341862842605"><ele>1000.0</ele><time>2026-04-08T15:09:58.999Z</time></trkpt><trkpt lat="38.14395984170364" lon="15.461353637482448"><ele>997.0</ele><time>2026-04-08T15:09:59.999Z</time></trkpt><trkpt lat="38.1440896718066" lon="15.461369410339763"><ele>996.25</ele><time>2026-04-08T15:10:00.999Z</time></trkpt><trkpt lat="38.14423300608196" lon="15.461343230739663"><ele>995.5</ele><time>2026-04-08T15:10:01.999Z</time></trkpt><trkpt lat="38.144362342704746" lon="15.461308864538596"><ele>994.75</ele><time>2026-04-08T15:10:02.999Z</time></trkpt><trkpt lat="38.14449192590672" lon="15.46126269026532"><ele>994.0</ele><time>2026-04-08T15:10:03.999Z</time></trkpt><trkpt lat="38.14464702768775" lon="15.461249457708739"><ele>994.0</ele><time>2026-04-08T15:10:04.999Z</time></trkpt><trkpt lat="38.144807268895136" lon="15.461287278323136"><ele>994.0</ele><time>2026-04-08T15:10:05.999Z</time></trkpt><trkpt lat="38.144915695490106" lon="15.461274640875677"><ele>994.0</ele><time>2026-04-08T15:10:06.999Z</time></trkpt><trkpt lat="38.1450380319418" lon="15.461236348604567"><ele>994.0</ele><time>2026-04-08T15:10:08.999Z</time></trkpt><trkpt lat="38.14516794428301" lon="15.461201237444627"><ele>992.8000000000001</ele><time>2026-04-08T15:10:09.999Z</time></trkpt><trkpt lat="38.145305872815364" lon="15.461190233059108"><ele>991.6000000000001</ele><time>2026-04-08T15:10:10.999Z</time></trkpt><trkpt lat="38.14539196536701" lon="15.461208314728092"><ele>990.4</ele><time>2026-04-08T15:10:11.999Z</time></trkpt><trkpt lat="38.145439721824246" lon="15.461272946736988"><ele>989.2</ele><time>2026-04-08T15:10:12.999Z</time></trkpt><trkpt lat="38.14546453694188" lon="15.461361630963552"><ele>988.0</ele><time>2026-04-08T15:10:13.999Z</time></trkpt><trkpt lat="38.14552821892918" lon="15.46143459655719"><ele>988.0</ele><time>2026-04-08T15:10:14.999Z</time></trkpt><trkpt lat="38.145593679970276" lon="15.461547912866164"><ele>988.0</ele><time>2026-04-08T15:10:15.999Z</time></trkpt><trkpt lat="38.14567921336822" lon="15.461692221340943"><ele>988.0</ele><time>2026-04-08T15:10:16.999Z</time></trkpt><trkpt lat="38.145769263307336" lon="15.461799638492208"><ele>988.0</ele><time>2026-04-08T15:10:17.999Z</time></trkpt><trkpt lat="38.14585544374812" lon="15.46184088283318"><ele>991.0</ele><time>2026-04-08T15:10:18.999Z</time></trkpt><trkpt lat="38.145936257049456" lon="15.461832804641904"><ele>994.0</ele><time>2026-04-08T15:10:19.999Z</time></trkpt><trkpt lat="38.146031647506504" lon="15.461891217251582"><ele>997.0</ele><time>2026-04-08T15:10:20.999Z</time></trkpt><trkpt lat="38.14613925928479" lon="15.461973050994681"><ele>1000.0</ele><time>2026-04-08T15:10:21.999Z</time></trkpt><trkpt lat="38.146230262068855" lon="15.462091638342885"><ele>1003.0</ele><time>2026-04-08T15:10:22.999Z</time></trkpt><trkpt lat="38.146306459522975" lon="15.46215990312393"><ele>995.5</ele><time>2026-04-08T15:10:23.999Z</time></trkpt><trkpt lat="38.14627696031074" lon="15.462304935461704"><ele>988.0</ele><time>2026-04-08T15:10:25.999Z</time></trkpt><trkpt lat="38.14618284423092" lon="15.462391775322706"><ele>980.5</ele><time>2026-04-08T15:10:26.999Z</time></trkpt><trkpt lat="38.14617453370233" lon="15.462557307581944"><ele>973.0</ele><time>2026-04-08T15:10:27.999Z</time></trkpt><trkpt lat="38.14617900599923" lon="15.462707550757228"><ele>973.0</ele><time>2026-04-08T15:10:28.999Z</time></trkpt><trkpt lat="38.14622488690812" lon="15.46282451035716"><ele>973.0</ele><time>2026-04-08T15:10:30.999Z</time></trkpt><trkpt lat="38.146345526032135" lon="15.462732929542335"><ele>973.0</ele><time>2026-04-08T15:10:31.999Z</time></trkpt><trkpt lat="38.14644397808443" lon="15.462666717663438"><ele>973.0</ele><time>2026-04-08T15:10:33.999Z</time></trkpt><trkpt lat="38.14652721130605" lon="15.462588607429403"><ele>974.25</ele><time>2026-04-08T15:10:34.999Z</time></trkpt><trkpt lat="38.14662554537159" lon="15.462516944484184"><ele>975.5</ele><time>2026-04-08T15:10:35.999Z</time></trkpt><trkpt lat="38.14676212029118" lon="15.462402209881676"><ele>976.75</ele><time>2026-04-08T15:10:36.999Z</time></trkpt><trkpt lat="38.14689217721148" lon="15.46229248143532"><ele>978.0</ele><time>2026-04-08T15:10:37.999Z</time></trkpt><trkpt lat="38.147021129639846" lon="15.46222153005225"><ele>978.0</ele><time>2026-04-08T15:10:38.999Z</time></trkpt><trkpt lat="38.14714332486969" lon="15.462232790190088"><ele>978.0</ele><time>2026-04-08T15:10:39.999Z</time></trkpt><trkpt lat="38.147264805636894" lon="15.462230490887016"><ele>978.0</ele><time>2026-04-08T15:10:41.999Z</time></trkpt><trkpt lat="38.14736447364674" lon="15.462191745334996"><ele>978.0</ele><time>2026-04-08T15:11:18Z</time></trkpt><trkpt lat="38.14742470989975" lon="15.462115072277332"><ele>978.0</ele><time>2026-04-08T15:11:19Z</time></trkpt><trkpt lat="38.147496150669944" lon="15.462016856290628"><ele>984.5</ele><time>2026-04-08T15:11:20Z</time></trkpt><trkpt lat="38.1475403915196" lon="15.46185318909657"><ele>991.0</ele><time>2026-04-08T15:11:21Z</time></trkpt><trkpt lat="38.14764219578747" lon="15.461736699140687"><ele>997.5</ele><time>2026-04-08T15:11:22Z</time></trkpt><trkpt lat="38.14773245908811" lon="15.461613802860864"><ele>1004.0</ele><time>2026-04-08T15:11:23Z</time></trkpt><trkpt lat="38.147851944228265" lon="15.461533773936535"><ele>1004.0</ele><time>2026-04-08T15:11:24Z</time></trkpt><trkpt lat="38.14796992208244" lon="15.461513478754648"><ele>1004.0000000000001</ele><time>2026-04-08T15:11:25Z</time></trkpt><trkpt lat="38.14808753249766" lon="15.461473246219976"><ele>1004.0000000000001</ele><time>2026-04-08T15:11:26Z</time></trkpt><trkpt lat="38.1481838993169" lon="15.461418996762417"><ele>1004.0</ele><time>2026-04-08T15:11:27Z</time></trkpt><trkpt lat="38.1482534918636" lon="15.461333834039152"><ele>1004.0</ele><time>2026-04-08T15:11:28Z</time></trkpt><trkpt lat="38.14834969746916" lon="15.461269454402087"><ele>998.25</ele><time>2026-04-08T15:11:29Z</time></trkpt><trkpt lat="38.14846330625984" lon="15.461249119168096"><ele>992.5</ele><time>2026-04-08T15:11:30Z</time></trkpt><trkpt lat="38.14856557482207" lon="15.461295868022876"><ele>986.75</ele><time>2026-04-08T15:11:31Z</time></trkpt><trkpt lat="38.14866351359124" lon="15.461360396391788"><ele>981.0</ele><time>2026-04-08T15:11:32Z</time></trkpt><trkpt lat="38.1487817483628" lon="15.461393810589371"><ele>981.0</ele><time>2026-04-08T15:11:33Z</time></trkpt><trkpt lat="38.148939100244654" lon="15.461418224561172"><ele>981.0</ele><time>2026-04-08T15:11:34Z</time></trkpt><trkpt lat="38.14910376875546" lon="15.461476038381912"><ele>981.0</ele><time>2026-04-08T15:11:35Z</time></trkpt><trkpt lat="38.14927045741731" lon="15.461500693615577"><ele>980.75</ele><time>2026-04-08T15:11:36Z</time></trkpt><trkpt lat="38.14940754210615" lon="15.461511963120852"><ele>980.5</ele><time>2026-04-08T15:11:37Z</time></trkpt><trkpt lat="38.149479777320366" lon="15.461602487451875"><ele>980.25</ele><time>2026-04-08T15:11:38Z</time></trkpt><trkpt lat="38.14953534449217" lon="15.461696219417025"><ele>980.0</ele><time>2026-04-08T15:11:39Z</time></trkpt><trkpt lat="38.149644109080334" lon="15.461798390888681"><ele>980.0</ele><time>2026-04-08T15:11:40Z</time></trkpt><trkpt lat="38.1497312754035" lon="15.46189407427253"><ele>980.0</ele><time>2026-04-08T15:11:41Z</time></trkpt><trkpt lat="38.14978072409487" lon="15.461986765387687"><ele>980.0</ele><time>2026-04-08T15:11:42Z</time></trkpt><trkpt lat="38.14978697006521" lon="15.462074176817607"><ele>980.0</ele><time>2026-04-08T15:11:43Z</time></trkpt><trkpt lat="38.14982648087059" lon="15.462180847748781"><ele>980.0</ele><time>2026-04-08T15:11:44Z</time></trkpt><trkpt lat="38.14986626118179" lon="15.462281905736623"><ele>980.5</ele><time>2026-04-08T15:11:45Z</time></trkpt><trkpt lat="38.14994263992953" lon="15.462407869665457"><ele>981.0</ele><time>2026-04-08T15:11:46Z</time></trkpt><trkpt lat="38.15005356832866" lon="15.462489803372884"><ele>981.5</ele><time>2026-04-08T15:11:47Z</time></trkpt><trkpt lat="38.15015421097387" lon="15.462565908178512"><ele>982.0</ele><time>2026-04-08T15:11:48Z</time></trkpt><trkpt lat="38.15025462671506" lon="15.462609804255903"><ele>982.0</ele><time>2026-04-08T15:11:49Z</time></trkpt><trkpt lat="38.15033378167472" lon="15.462668088533732"><ele>982.0</ele><time>2026-04-08T15:11:50Z</time></trkpt><trkpt lat="38.15039996597646" lon="15.462770015035899"><ele>982.0</ele><time>2026-04-08T15:11:51.999Z</time></trkpt><trkpt lat="38.15044513610889" lon="15.462828400029947"><ele>982.0</ele><time>2026-04-08T15:11:54.999Z</time></trkpt><trkpt lat="38.15053664562003" lon="15.462830191967731"><ele>982.0</ele><time>2026-04-08T15:11:56.999Z</time></trkpt><trkpt lat="38.15065813400141" lon="15.462840612014178"><ele>982.4999999999999</ele><time>2026-04-08T15:11:58.999Z</time></trkpt><trkpt lat="38.15073497084959" lon="15.462844489168585"><ele>983.0</ele><time>2026-04-08T15:11:59.999Z</time></trkpt><trkpt lat="38.15082051858308" lon="15.462851410737223"><ele>983.5</ele><time>2026-04-08T15:12:00.999Z</time></trkpt><trkpt lat="38.15090066988352" lon="15.462858863276436"><ele>984.0</ele><time>2026-04-08T15:12:01.999Z</time></trkpt><trkpt lat="38.15097578549561" lon="15.462895091347765"><ele>984.4999999999999</ele><time>2026-04-08T15:12:02.999Z</time></trkpt><trkpt lat="38.15104412124852" lon="15.462928504927314"><ele>985.0</ele><time>2026-04-08T15:12:03.999Z</time></trkpt><trkpt lat="38.151122409710574" lon="15.462940252076486"><ele>985.0</ele><time>2026-04-08T15:12:04.999Z</time></trkpt><trkpt lat="38.1511884962421" lon="15.462934903846335"><ele>985.0</ele><time>2026-04-08T15:12:05.999Z</time></trkpt><trkpt lat="38.15128219080677" lon="15.462841900962557"><ele>985.0</ele><time>2026-04-08T15:12:07.999Z</time></trkpt><trkpt lat="38.151365267112624" lon="15.462788034083054"><ele>985.0</ele><time>2026-04-08T15:12:08.999Z</time></trkpt><trkpt lat="38.15146883162233" lon="15.462743197844214"><ele>985.0</ele><time>2026-04-08T15:12:09.999Z</time></trkpt><trkpt lat="38.151562215221084" lon="15.462710412569779"><ele>983.0</ele><time>2026-04-08T15:12:10.999Z</time></trkpt><trkpt lat="38.15166617715558" lon="15.462683293873347"><ele>981.0</ele><time>2026-04-08T15:12:11.999Z</time></trkpt><trkpt lat="38.15177251222446" lon="15.462675661694455"><ele>979.0</ele><time>2026-04-08T15:12:12.999Z</time></trkpt><trkpt lat="38.151873288090776" lon="15.46268410039575"><ele>977.0</ele><time>2026-04-08T15:12:13.999Z</time></trkpt><trkpt lat="38.15197117247303" lon="15.462685087691183"><ele>975.0</ele><time>2026-04-08T15:12:14.999Z</time></trkpt><trkpt lat="38.15204714423697" lon="15.462622382231585"><ele>975.0</ele><time>2026-04-08T15:12:15.999Z</time></trkpt><trkpt lat="38.15212202300955" lon="15.462605189841458"><ele>975.0</ele><time>2026-04-08T15:12:16.999Z</time></trkpt><trkpt lat="38.15218597374639" lon="15.462590506622371"><ele>975.0</ele><time>2026-04-08T15:12:17.999Z</time></trkpt><trkpt lat="38.15226673780897" lon="15.46257821385674"><ele>975.0</ele><time>2026-04-08T15:12:18.999Z</time></trkpt><trkpt lat="38.15234229347397" lon="15.462582580022406"><ele>975.0</ele><time>2026-04-08T15:12:19.999Z</time></trkpt><trkpt lat="38.152421182359404" lon="15.462606219188181"><ele>975.0</ele><time>2026-04-08T15:12:20.999Z</time></trkpt><trkpt lat="38.152493353259075" lon="15.46262073928251"><ele>973.5</ele><time>2026-04-08T15:12:21.999Z</time></trkpt><trkpt lat="38.152562309241205" lon="15.462626272932349"><ele>972.0</ele><time>2026-04-08T15:12:22.999Z</time></trkpt><trkpt lat="38.152626354728" lon="15.462622425649837"><ele>970.5</ele><time>2026-04-08T15:12:23.999Z</time></trkpt><trkpt lat="38.15270210999527" lon="15.462608454173061"><ele>969.0</ele><time>2026-04-08T15:12:24.999Z</time></trkpt><trkpt lat="38.15281635797063" lon="15.462597332932322"><ele>967.5</ele><time>2026-04-08T15:12:26.999Z</time></trkpt><trkpt lat="38.152749371502374" lon="15.46260703858959"><ele>966.0</ele><time>2026-04-08T15:12:33.999Z</time></trkpt><trkpt lat="38.152701651271975" lon="15.462462545375217"><ele>966.0</ele><time>2026-04-08T15:12:34.999Z</time></trkpt><trkpt lat="38.15274390541969" lon="15.46240218304468"><ele>966.0</ele><time>2026-04-08T15:12:37.999Z</time></trkpt><trkpt lat="38.15281586920776" lon="15.462345657593985"><ele>966.0</ele><time>2026-04-08T15:12:39.999Z</time></trkpt><trkpt lat="38.15295203426467" lon="15.462324888055743"><ele>966.0</ele><time>2026-04-08T15:12:41.999Z</time></trkpt><trkpt lat="38.15302738265007" lon="15.462287858312061"><ele>966.0</ele><time>2026-04-08T15:12:42.999Z</time></trkpt><trkpt lat="38.15309739630245" lon="15.462230276677044"><ele>966.0</ele><time>2026-04-08T15:12:43.999Z</time></trkpt><trkpt lat="38.15318349217847" lon="15.462161016726812"><ele>962.0</ele><time>2026-04-08T15:12:44.999Z</time></trkpt><trkpt lat="38.153263092634155" lon="15.462093372330207"><ele>958.0</ele><time>2026-04-08T15:12:45.999Z</time></trkpt><trkpt lat="38.15333087254613" lon="15.462045155324939"><ele>954.0</ele><time>2026-04-08T15:12:46.999Z</time></trkpt><trkpt lat="38.153395206843555" lon="15.462011268554303"><ele>950.0</ele><time>2026-04-08T15:12:47.999Z</time></trkpt><trkpt lat="38.153457943365815" lon="15.461992658114768"><ele>946.0</ele><time>2026-04-08T15:12:49Z</time></trkpt><trkpt lat="38.153519922618315" lon="15.461933166239374"><ele>942.0</ele><time>2026-04-08T15:12:51Z</time></trkpt><trkpt lat="38.15343928326732" lon="15.461871158383804"><ele>942.0</ele><time>2026-04-08T15:12:54Z</time></trkpt><trkpt lat="38.153366964987015" lon="15.461894382300953"><ele>942.0</ele><time>2026-04-08T15:12:55Z</time></trkpt><trkpt lat="38.1532869419317" lon="15.461903211962747"><ele>942.0</ele><time>2026-04-08T15:12:56Z</time></trkpt><trkpt lat="38.15321133668014" lon="15.461890144544217"><ele>942.0</ele><time>2026-04-08T15:12:57Z</time></trkpt><trkpt lat="38.15312099970732" lon="15.461843769723579"><ele>942.0</ele><time>2026-04-08T15:12:58Z</time></trkpt><trkpt lat="38.15302986637325" lon="15.461804254054075"><ele>942.0</ele><time>2026-04-08T15:12:59Z</time></trkpt><trkpt lat="38.1529455681184" lon="15.461776005341092"><ele>942.0</ele><time>2026-04-08T15:13:00Z</time></trkpt><trkpt lat="38.15284252518378" lon="15.461719404856945"><ele>942.0</ele><time>2026-04-08T15:13:01Z</time></trkpt><trkpt lat="38.15271541788013" lon="15.461706685171057"><ele>942.0</ele><time>2026-04-08T15:13:02Z</time></trkpt><trkpt lat="38.152597797833465" lon="15.461733307087835"><ele>942.0</ele><time>2026-04-08T15:13:03Z</time></trkpt><trkpt lat="38.152474980145776" lon="15.46174723762012"><ele>942.0</ele><time>2026-04-08T15:13:04Z</time></trkpt><trkpt lat="38.152387650688375" lon="15.461778361445505"><ele>942.0</ele><time>2026-04-08T15:13:05Z</time></trkpt><trkpt lat="38.152303893018384" lon="15.461771024665463"><ele>942.0</ele><time>2026-04-08T15:13:06Z</time></trkpt><trkpt lat="38.15221019315069" lon="15.461757380842483"><ele>942.0</ele><time>2026-04-08T15:13:07Z</time></trkpt><trkpt lat="38.15213972944439" lon="15.46170374824574"><ele>942.0</ele><time>2026-04-08T15:13:08Z</time></trkpt><trkpt lat="38.15205892134152" lon="15.461565083237218"><ele>944.0</ele><time>2026-04-08T15:13:10Z</time></trkpt><trkpt lat="38.151942046101404" lon="15.461496231739458"><ele>946.0</ele><time>2026-04-08T15:13:11Z</time></trkpt><trkpt lat="38.15187320163637" lon="15.4614323607976"><ele>948.0</ele><time>2026-04-08T15:13:12Z</time></trkpt><trkpt lat="38.151789687044925" lon="15.46135336844019"><ele>950.0</ele><time>2026-04-08T15:13:13Z</time></trkpt><trkpt lat="38.151726805208256" lon="15.461305051843459"><ele>952.0</ele><time>2026-04-08T15:13:14Z</time></trkpt><trkpt lat="38.15165753578857" lon="15.461282047472254"><ele>952.0</ele><time>2026-04-08T15:13:15Z</time></trkpt><trkpt lat="38.15157580472603" lon="15.46128806735895"><ele>952.0</ele><time>2026-04-08T15:13:16Z</time></trkpt><trkpt lat="38.15147883596935" lon="15.461265914470395"><ele>952.0</ele><time>2026-04-08T15:13:17Z</time></trkpt><trkpt lat="38.151369815800365" lon="15.46120494699027"><ele>952.0</ele><time>2026-04-08T15:13:18Z</time></trkpt><trkpt lat="38.15126583848958" lon="15.461161878579405"><ele>952.0</ele><time>2026-04-08T15:13:19Z</time></trkpt><trkpt lat="38.1511672705978" lon="15.461147830457332"><ele>951.0</ele><time>2026-04-08T15:13:20Z</time></trkpt><trkpt lat="38.151068192785615" lon="15.461148011739601"><ele>950.0</ele><time>2026-04-08T15:13:21Z</time></trkpt><trkpt lat="38.15097909514227" lon="15.461152692407037"><ele>949.0</ele><time>2026-04-08T15:13:22Z</time></trkpt><trkpt lat="38.150881644420394" lon="15.461105418940093"><ele>948.0</ele><time>2026-04-08T15:13:23Z</time></trkpt><trkpt lat="38.15078333774185" lon="15.461057141802211"><ele>947.0</ele><time>2026-04-08T15:13:24Z</time></trkpt><trkpt lat="38.15069803766825" lon="15.461005150363064"><ele>947.0</ele><time>2026-04-08T15:13:25Z</time></trkpt><trkpt lat="38.150610232125594" lon="15.460939325207317"><ele>947.0</ele><time>2026-04-08T15:13:26Z</time></trkpt><trkpt lat="38.15053899516712" lon="15.460870237923537"><ele>947.0</ele><time>2026-04-08T15:13:27Z</time></trkpt><trkpt lat="38.150480951458675" lon="15.460813059881376"><ele>947.0</ele><time>2026-04-08T15:13:28Z</time></trkpt><trkpt lat="38.150389185995174" lon="15.460700734644325"><ele>947.0</ele><time>2026-04-08T15:13:29Z</time></trkpt><trkpt lat="38.15031003592347" lon="15.460568233802157"><ele>947.0</ele><time>2026-04-08T15:13:30Z</time></trkpt><trkpt lat="38.1502556164521" lon="15.460482758490294"><ele>947.0</ele><time>2026-04-08T15:13:31Z</time></trkpt><trkpt lat="38.15022747609813" lon="15.460322075598492"><ele>947.0</ele><time>2026-04-08T15:13:32Z</time></trkpt><trkpt lat="38.15016901917758" lon="15.460158114823326"><ele>947.0</ele><time>2026-04-08T15:13:33Z</time></trkpt><trkpt lat="38.150113834198194" lon="15.460014726860768"><ele>940.8</ele><time>2026-04-08T15:13:34Z</time></trkpt><trkpt lat="38.15006016540656" lon="15.459861314845817"><ele>934.6</ele><time>2026-04-08T15:13:35Z</time></trkpt><trkpt lat="38.15003563034483" lon="15.459731189452043"><ele>928.3999999999999</ele><time>2026-04-08T15:13:36Z</time></trkpt><trkpt lat="38.150028426898714" lon="15.459632051986446"><ele>922.1999999999999</ele><time>2026-04-08T15:13:37Z</time></trkpt><trkpt lat="38.14998297344829" lon="15.45952543608133"><ele>916.0</ele><time>2026-04-08T15:13:38Z</time></trkpt><trkpt lat="38.14992560719568" lon="15.459434630921944"><ele>910.75</ele><time>2026-04-08T15:13:39Z</time></trkpt><trkpt lat="38.14982395570481" lon="15.459336153699546"><ele>905.5</ele><time>2026-04-08T15:13:40Z</time></trkpt><trkpt lat="38.149723245787015" lon="15.459257071452283"><ele>900.25</ele><time>2026-04-08T15:13:41Z</time></trkpt><trkpt lat="38.14964015744016" lon="15.459225063728141"><ele>895.0</ele><time>2026-04-08T15:13:42Z</time></trkpt><trkpt lat="38.14951925535891" lon="15.459192310736812"><ele>895.0</ele><time>2026-04-08T15:13:43Z</time></trkpt><trkpt lat="38.14939267836461" lon="15.45915446238541"><ele>895.0</ele><time>2026-04-08T15:13:44Z</time></trkpt><trkpt lat="38.14927533853206" lon="15.459096049638553"><ele>895.0</ele><time>2026-04-08T15:13:45Z</time></trkpt><trkpt lat="38.14915250484837" lon="15.459047848532721"><ele>895.0</ele><time>2026-04-08T15:13:46Z</time></trkpt><trkpt lat="38.14906252968947" lon="15.459007072733662"><ele>895.6666666666666</ele><time>2026-04-08T15:13:47Z</time></trkpt><trkpt lat="38.14899248365092" lon="15.45893892462431"><ele>896.3333333333333</ele><time>2026-04-08T15:13:48Z</time></trkpt><trkpt lat="38.148922373385545" lon="15.45893748113029"><ele>897.0</ele><time>2026-04-08T15:13:50Z</time></trkpt><trkpt lat="38.14881803604116" lon="15.459003618014968"><ele>897.6666666666667</ele><time>2026-04-08T15:13:52Z</time></trkpt><trkpt lat="38.14873650875274" lon="15.459051521511247"><ele>898.3333333333334</ele><time>2026-04-08T15:13:54Z</time></trkpt><trkpt lat="38.14866470287167" lon="15.4590635587306"><ele>899.0</ele><time>2026-04-08T15:13:55Z</time></trkpt><trkpt lat="38.14856963903179" lon="15.459016293859866"><ele>899.0</ele><time>2026-04-08T15:13:56.999Z</time></trkpt><trkpt lat="38.148536867987595" lon="15.458936663720214"><ele>899.0000000000001</ele><time>2026-04-08T15:13:57.999Z</time></trkpt><trkpt lat="38.14849127397459" lon="15.45884362578644"><ele>899.0000000000001</ele><time>2026-04-08T15:13:58.999Z</time></trkpt><trkpt lat="38.14839348397883" lon="15.458746942868132"><ele>899.0</ele><time>2026-04-08T15:13:59.999Z</time></trkpt><trkpt lat="38.14828150233702" lon="15.458710037493647"><ele>899.0</ele><time>2026-04-08T15:14:01.999Z</time></trkpt><trkpt lat="38.148160041067996" lon="15.458600008526785"><ele>894.2</ele><time>2026-04-08T15:14:03.999Z</time></trkpt><trkpt lat="38.14802566415155" lon="15.458472440562904"><ele>889.4000000000001</ele><time>2026-04-08T15:14:05.999Z</time></trkpt><trkpt lat="38.1479477549446" lon="15.458412336855373"><ele>884.6</ele><time>2026-04-08T15:14:06.999Z</time></trkpt><trkpt lat="38.147868639371445" lon="15.458381707881609"><ele>879.8</ele><time>2026-04-08T15:14:07.999Z</time></trkpt><trkpt lat="38.14776826230291" lon="15.458346295086388"><ele>875.0</ele><time>2026-04-08T15:14:08.999Z</time></trkpt><trkpt lat="38.147665257522284" lon="15.458312028888868"><ele>875.0</ele><time>2026-04-08T15:14:09.999Z</time></trkpt><trkpt lat="38.14754897120059" lon="15.458287898569138"><ele>875.0</ele><time>2026-04-08T15:14:10.999Z</time></trkpt><trkpt lat="38.14745248982967" lon="15.45827885698912"><ele>875.0</ele><time>2026-04-08T15:14:11.999Z</time></trkpt><trkpt lat="38.147355447025966" lon="15.458248327081483"><ele>875.0</ele><time>2026-04-08T15:14:12.999Z</time></trkpt><trkpt lat="38.1472505656182" lon="15.458201377723066"><ele>875.0</ele><time>2026-04-08T15:14:13.999Z</time></trkpt><trkpt lat="38.14717246247677" lon="15.458138692356147"><ele>877.6</ele><time>2026-04-08T15:14:14.999Z</time></trkpt><trkpt lat="38.14704889328177" lon="15.45807001118327"><ele>880.2</ele><time>2026-04-08T15:14:16.999Z</time></trkpt><trkpt lat="38.14698940157041" lon="15.457944424001436"><ele>882.8</ele><time>2026-04-08T15:14:18.999Z</time></trkpt><trkpt lat="38.14697932022215" lon="15.45781187108813"><ele>885.4</ele><time>2026-04-08T15:14:19.999Z</time></trkpt><trkpt lat="38.146970017590064" lon="15.457725273002417"><ele>888.0</ele><time>2026-04-08T15:14:20.999Z</time></trkpt><trkpt lat="38.14690492206185" lon="15.457595382663643"><ele>881.8</ele><time>2026-04-08T15:14:22.999Z</time></trkpt><trkpt lat="38.146820954202475" lon="15.457514261037932"><ele>875.5999999999999</ele><time>2026-04-08T15:14:23.999Z</time></trkpt><trkpt lat="38.14675676049353" lon="15.457396547453042"><ele>869.4000000000001</ele><time>2026-04-08T15:14:24.999Z</time></trkpt><trkpt lat="38.146698739701904" lon="15.457315250507616"><ele>863.2</ele><time>2026-04-08T15:14:25.999Z</time></trkpt><trkpt lat="38.146630778355" lon="15.457228214895641"><ele>857.0</ele><time>2026-04-08T15:14:26.999Z</time></trkpt><trkpt lat="38.14656029618975" lon="15.45717604642045"><ele>853.8</ele><time>2026-04-08T15:14:27.999Z</time></trkpt><trkpt lat="38.14643501543985" lon="15.45707301667276"><ele>850.6</ele><time>2026-04-08T15:14:29.999Z</time></trkpt><trkpt lat="38.14634735426159" lon="15.457012686471506"><ele>847.4</ele><time>2026-04-08T15:14:30.999Z</time></trkpt><trkpt lat="38.14628374215813" lon="15.456940650489809"><ele>844.1999999999999</ele><time>2026-04-08T15:14:31.999Z</time></trkpt><trkpt lat="38.14622306010859" lon="15.456867789748157"><ele>841.0</ele><time>2026-04-08T15:14:32.999Z</time></trkpt><trkpt lat="38.14613716618025" lon="15.456792896666824"><ele>841.0</ele><time>2026-04-08T15:14:34.999Z</time></trkpt><trkpt lat="38.14617064050611" lon="15.456694345311956"><ele>841.0</ele><time>2026-04-08T15:14:37.999Z</time></trkpt><trkpt lat="38.14627021003813" lon="15.456795802787063"><ele>841.0</ele><time>2026-04-08T15:14:39.999Z</time></trkpt><trkpt lat="38.14633451835765" lon="15.456849084235115"><ele>841.0</ele><time>2026-04-08T15:14:40.999Z</time></trkpt><trkpt lat="38.146425694897495" lon="15.456887535204062"><ele>841.0</ele><time>2026-04-08T15:14:42.999Z</time></trkpt><trkpt lat="38.14648944973811" lon="15.456868526140125"><ele>841.0</ele><time>2026-04-08T15:14:43.999Z</time></trkpt><trkpt lat="38.1465442856752" lon="15.456914094097792"><ele>841.0</ele><time>2026-04-08T15:14:44.999Z</time></trkpt><trkpt lat="38.14661826672399" lon="15.456975454866907"><ele>841.0</ele><time>2026-04-08T15:14:46.999Z</time></trkpt><trkpt lat="38.14665573144993" lon="15.457043046116098"><ele>841.0</ele><time>2026-04-08T15:14:47.999Z</time></trkpt><trkpt lat="38.146789096909345" lon="15.457140906740925"><ele>841.0</ele><time>2026-04-08T15:14:49.999Z</time></trkpt><trkpt lat="38.14686348683114" lon="15.457188905622498"><ele>843.6666666666666</ele><time>2026-04-08T15:14:50.999Z</time></trkpt><trkpt lat="38.14695373910945" lon="15.457202786796458"><ele>846.3333333333333</ele><time>2026-04-08T15:14:51.999Z</time></trkpt><trkpt lat="38.147014962869115" lon="15.457234004704967"><ele>849.0</ele><time>2026-04-08T15:14:52.998Z</time></trkpt><trkpt lat="38.147054169084306" lon="15.457331107021329"><ele>851.6666666666667</ele><time>2026-04-08T15:14:55Z</time></trkpt><trkpt lat="38.14708789142869" lon="15.457408230029792"><ele>854.3333333333334</ele><time>2026-04-08T15:14:56Z</time></trkpt><trkpt lat="38.14714614025306" lon="15.45750066587922"><ele>857.0</ele><time>2026-04-08T15:14:57Z</time></trkpt><trkpt lat="38.14725403308067" lon="15.457580990943336"><ele>857.0</ele><time>2026-04-08T15:14:59Z</time></trkpt><trkpt lat="38.14732454373312" lon="15.457649519129108"><ele>857.0</ele><time>2026-04-08T15:15:00Z</time></trkpt><trkpt lat="38.147436202086915" lon="15.457718755067058"><ele>857.0</ele><time>2026-04-08T15:15:02Z</time></trkpt><trkpt lat="38.14750907941772" lon="15.457779429917174"><ele>857.0</ele><time>2026-04-08T15:15:03Z</time></trkpt><trkpt lat="38.147589001739654" lon="15.45776809055452"><ele>857.0</ele><time>2026-04-08T15:15:04Z</time></trkpt><trkpt lat="38.147656806273744" lon="15.45760822723217"><ele>853.6</ele><time>2026-04-08T15:15:05Z</time></trkpt><trkpt lat="38.147754162672314" lon="15.457528297020405"><ele>850.2</ele><time>2026-04-08T15:15:07Z</time></trkpt><trkpt lat="38.14780866307618" lon="15.457486334706115"><ele>846.8</ele><time>2026-04-08T15:15:08Z</time></trkpt><trkpt lat="38.14787859558812" lon="15.457468340563432"><ele>843.4</ele><time>2026-04-08T15:15:09Z</time></trkpt><trkpt lat="38.14795943135638" lon="15.457451854307324"><ele>840.0</ele><time>2026-04-08T15:15:10Z</time></trkpt><trkpt lat="38.14807764638188" lon="15.457434639046921"><ele>840.0</ele><time>2026-04-08T15:15:12Z</time></trkpt><trkpt lat="38.148182590535534" lon="15.45749175977419"><ele>840.0</ele><time>2026-04-08T15:15:14Z</time></trkpt><trkpt lat="38.14829776673963" lon="15.457448543433136"><ele>840.0</ele><time>2026-04-08T15:15:16Z</time></trkpt><trkpt lat="38.14833733603426" lon="15.457355986389661"><ele>840.0</ele><time>2026-04-08T15:15:18Z</time></trkpt><trkpt lat="38.14840375059846" lon="15.457301252739597"><ele>840.0</ele><time>2026-04-08T15:15:20Z</time></trkpt><trkpt lat="38.14848073662645" lon="15.457306151846801"><ele>838.5</ele><time>2026-04-08T15:15:21Z</time></trkpt><trkpt lat="38.14855087061492" lon="15.457287420353477"><ele>837.0</ele><time>2026-04-08T15:15:22Z</time></trkpt><trkpt lat="38.148630358749536" lon="15.45731684168229"><ele>835.5</ele><time>2026-04-08T15:15:23Z</time></trkpt><trkpt lat="38.14869412417464" lon="15.45732450262041"><ele>834.0</ele><time>2026-04-08T15:15:24Z</time></trkpt><trkpt lat="38.14881971049017" lon="15.457275855950558"><ele>832.5</ele><time>2026-04-08T15:15:26Z</time></trkpt><trkpt lat="38.14891142021748" lon="15.4572622834989"><ele>831.0</ele><time>2026-04-08T15:15:27Z</time></trkpt><trkpt lat="38.14902112573148" lon="15.457248576886297"><ele>830.5999999999999</ele><time>2026-04-08T15:15:28Z</time></trkpt><trkpt lat="38.149114888773774" lon="15.457209914633074"><ele>830.2</ele><time>2026-04-08T15:15:29Z</time></trkpt><trkpt lat="38.14916341006059" lon="15.457132039632835"><ele>829.8</ele><time>2026-04-08T15:15:31Z</time></trkpt><trkpt lat="38.149244789554714" lon="15.457095089292444"><ele>829.4000000000001</ele><time>2026-04-08T15:15:33Z</time></trkpt><trkpt lat="38.14936129130995" lon="15.457145236618516"><ele>829.0</ele><time>2026-04-08T15:15:36Z</time></trkpt><trkpt lat="38.149434073517384" lon="15.457175369905576"><ele>828.9999999999999</ele><time>2026-04-08T15:15:37Z</time></trkpt><trkpt lat="38.1494987180221" lon="15.457204838883001"><ele>829.0</ele><time>2026-04-08T15:15:38Z</time></trkpt><trkpt lat="38.14958634642158" lon="15.457219408852593"><ele>829.0</ele><time>2026-04-08T15:15:40Z</time></trkpt><trkpt lat="38.14966215806898" lon="15.457272425253185"><ele>829.0</ele><time>2026-04-08T15:15:42Z</time></trkpt><trkpt lat="38.14972845008687" lon="15.457318302720752"><ele>828.9999999999999</ele><time>2026-04-08T15:15:44Z</time></trkpt><trkpt lat="38.149785031856496" lon="15.45738025189859"><ele>829.0</ele><time>2026-04-08T15:15:46Z</time></trkpt><trkpt lat="38.149850709795935" lon="15.457352731715925"><ele>825.25</ele><time>2026-04-08T15:15:47Z</time></trkpt><trkpt lat="38.149988910280115" lon="15.457317990361886"><ele>821.5</ele><time>2026-04-08T15:15:48Z</time></trkpt><trkpt lat="38.15013369885689" lon="15.457279424491439"><ele>817.75</ele><time>2026-04-08T15:15:49Z</time></trkpt><trkpt lat="38.150231219847804" lon="15.457272887374986"><ele>814.0</ele><time>2026-04-08T15:15:51Z</time></trkpt><trkpt lat="38.15029092722405" lon="15.45730538662927"><ele>814.0</ele><time>2026-04-08T15:15:52Z</time></trkpt><trkpt lat="38.15036587564329" lon="15.45736016873753"><ele>814.0</ele><time>2026-04-08T15:15:53Z</time></trkpt><trkpt lat="38.150490069621334" lon="15.457407985049429"><ele>814.0</ele><time>2026-04-08T15:15:54Z</time></trkpt><trkpt lat="38.15054217784733" lon="15.457471197313565"><ele>814.0</ele><time>2026-04-08T15:15:55Z</time></trkpt><trkpt lat="38.15063891078706" lon="15.457524301809231"><ele>814.0</ele><time>2026-04-08T15:15:56Z</time></trkpt><trkpt lat="38.15074297859904" lon="15.457590242210927"><ele>809.4000000000001</ele><time>2026-04-08T15:15:57Z</time></trkpt><trkpt lat="38.15081718840057" lon="15.457632286581417"><ele>804.8</ele><time>2026-04-08T15:15:58Z</time></trkpt><trkpt lat="38.1509094302619" lon="15.45765564993213"><ele>800.2</ele><time>2026-04-08T15:15:59Z</time></trkpt><trkpt lat="38.150979380458764" lon="15.45766272835311"><ele>795.5999999999999</ele><time>2026-04-08T15:16:00Z</time></trkpt><trkpt lat="38.151106372070416" lon="15.457722601130973"><ele>791.0</ele><time>2026-04-08T15:16:01.999Z</time></trkpt><trkpt lat="38.151208666212206" lon="15.457750951888"><ele>791.0</ele><time>2026-04-08T15:16:03.999Z</time></trkpt><trkpt lat="38.151225068198954" lon="15.457663262331359"><ele>791.0</ele><time>2026-04-08T15:16:06.999Z</time></trkpt><trkpt lat="38.151132651791016" lon="15.457571590525923"><ele>791.0</ele><time>2026-04-08T15:16:08.999Z</time></trkpt><trkpt lat="38.15102504690381" lon="15.457477624306406"><ele>791.0</ele><time>2026-04-08T15:16:09.999Z</time></trkpt><trkpt lat="38.15093797524695" lon="15.45738423961828"><ele>791.0</ele><time>2026-04-08T15:16:10.999Z</time></trkpt><trkpt lat="38.150871933442914" lon="15.45731917499925"><ele>791.0000000000001</ele><time>2026-04-08T15:16:11.999Z</time></trkpt><trkpt lat="38.15081383834395" lon="15.457242629644446"><ele>791.0</ele><time>2026-04-08T15:16:12.999Z</time></trkpt><trkpt lat="38.15078452703265" lon="15.45713997585172"><ele>791.0</ele><time>2026-04-08T15:16:13.999Z</time></trkpt><trkpt lat="38.15074340720399" lon="15.457035783392401"><ele>791.0</ele><time>2026-04-08T15:16:14.999Z</time></trkpt><trkpt lat="38.15069162133692" lon="15.456989146632065"><ele>791.0000000000001</ele><time>2026-04-08T15:16:16.999Z</time></trkpt><trkpt lat="38.150629732653556" lon="15.457010914450922"><ele>791.0</ele><time>2026-04-08T15:16:18.999Z</time></trkpt><trkpt lat="38.1505416720323" lon="15.457028375854028"><ele>788.8</ele><time>2026-04-08T15:16:20.999Z</time></trkpt><trkpt lat="38.150449126506885" lon="15.456994780203235"><ele>786.5999999999999</ele><time>2026-04-08T15:16:22.999Z</time></trkpt><trkpt lat="38.1503613380172" lon="15.456898532463864"><ele>784.4</ele><time>2026-04-08T15:16:24.999Z</time></trkpt><trkpt lat="38.15031251269825" lon="15.456809332820104"><ele>782.2</ele><time>2026-04-08T15:16:26.999Z</time></trkpt><trkpt lat="38.15027275447008" lon="15.456712162001693"><ele>780.0</ele><time>2026-04-08T15:16:29.999Z</time></trkpt><trkpt lat="38.150215236678754" lon="15.456630772411415"><ele>780.0</ele><time>2026-04-08T15:16:30.999Z</time></trkpt><trkpt lat="38.15016625963378" lon="15.456531485245794"><ele>780.0</ele><time>2026-04-08T15:16:31.999Z</time></trkpt><trkpt lat="38.15011123727019" lon="15.456416695507476"><ele>780.0</ele><time>2026-04-08T15:16:32.999Z</time></trkpt><trkpt lat="38.15007801140197" lon="15.456287936420273"><ele>780.0</ele><time>2026-04-08T15:16:33.999Z</time></trkpt><trkpt lat="38.1500678772143" lon="15.456160884380868"><ele>780.0</ele><time>2026-04-08T15:16:34.999Z</time></trkpt><trkpt lat="38.150036859351054" lon="15.456042375287073"><ele>779.2</ele><time>2026-04-08T15:16:35.999Z</time></trkpt><trkpt lat="38.14999797567208" lon="15.455974082017926"><ele>778.4</ele><time>2026-04-08T15:16:36.999Z</time></trkpt><trkpt lat="38.14991857486594" lon="15.455913583798973"><ele>777.5999999999999</ele><time>2026-04-08T15:16:37.999Z</time></trkpt><trkpt lat="38.149775682688286" lon="15.455814819727095"><ele>776.8</ele><time>2026-04-08T15:16:39.999Z</time></trkpt><trkpt lat="38.14969948913958" lon="15.455733421581503"><ele>776.0</ele><time>2026-04-08T15:16:40.999Z</time></trkpt><trkpt lat="38.14962222749651" lon="15.455678307045888"><ele>776.0</ele><time>2026-04-08T15:16:41.999Z</time></trkpt><trkpt lat="38.14956321840549" lon="15.455602153155683"><ele>776.0</ele><time>2026-04-08T15:16:42.999Z</time></trkpt><trkpt lat="38.149453572477434" lon="15.45555633804706"><ele>776.0</ele><time>2026-04-08T15:16:43.999Z</time></trkpt><trkpt lat="38.14937235065464" lon="15.455505295907448"><ele>776.0</ele><time>2026-04-08T15:16:44.999Z</time></trkpt><trkpt lat="38.149310396952245" lon="15.45544010681467"><ele>776.0</ele><time>2026-04-08T15:16:45.999Z</time></trkpt><trkpt lat="38.14923288491496" lon="15.455392972280672"><ele>772.0</ele><time>2026-04-08T15:16:46.999Z</time></trkpt><trkpt lat="38.14919455474134" lon="15.45531406201235"><ele>768.0</ele><time>2026-04-08T15:16:47.999Z</time></trkpt><trkpt lat="38.14911039001605" lon="15.455261332231958"><ele>764.0</ele><time>2026-04-08T15:16:49.999Z</time></trkpt><trkpt lat="38.149042857138724" lon="15.455092150968422"><ele>760.0</ele><time>2026-04-08T15:16:51.999Z</time></trkpt><trkpt lat="38.14894409898473" lon="15.454985740132543"><ele>756.0</ele><time>2026-04-08T15:16:53.999Z</time></trkpt><trkpt lat="38.14889305788947" lon="15.45488721975895"><ele>756.0</ele><time>2026-04-08T15:16:54.999Z</time></trkpt><trkpt lat="38.148798435664176" lon="15.454924129954879"><ele>756.0</ele><time>2026-04-08T15:16:58.998Z</time></trkpt><trkpt lat="38.148651017281644" lon="15.45495761940716"><ele>756.0</ele><time>2026-04-08T15:17:01Z</time></trkpt><trkpt lat="38.14856959649242" lon="15.45490181689998"><ele>756.0</ele><time>2026-04-08T15:17:03Z</time></trkpt><trkpt lat="38.14857475470757" lon="15.454814136600945"><ele>756.0</ele><time>2026-04-08T15:17:04Z</time></trkpt><trkpt lat="38.14858577232244" lon="15.454722979279824"><ele>752.3333333333334</ele><time>2026-04-08T15:17:05Z</time></trkpt><trkpt lat="38.14859224319632" lon="15.454592926444036"><ele>748.6666666666666</ele><time>2026-04-08T15:17:06Z</time></trkpt><trkpt lat="38.14859133648993" lon="15.454490025662992"><ele>745.0</ele><time>2026-04-08T15:17:07Z</time></trkpt><trkpt lat="38.14854632358271" lon="15.454430861551906"><ele>741.3333333333333</ele><time>2026-04-08T15:17:08Z</time></trkpt><trkpt lat="38.14847737718734" lon="15.454388803249218"><ele>737.6666666666666</ele><time>2026-04-08T15:17:09Z</time></trkpt><trkpt lat="38.148386713911236" lon="15.454330702347603"><ele>734.0</ele><time>2026-04-08T15:17:10Z</time></trkpt><trkpt lat="38.14833081668502" lon="15.45422645404279"><ele>734.0</ele><time>2026-04-08T15:17:12Z</time></trkpt><trkpt lat="38.1483756064139" lon="15.454112659607032"><ele>734.0</ele><time>2026-04-08T15:17:14Z</time></trkpt><trkpt lat="38.148456368978856" lon="15.4541090069585"><ele>734.0</ele><time>2026-04-08T15:17:16Z</time></trkpt><trkpt lat="38.14850699006312" lon="15.45419241860842"><ele>734.0</ele><time>2026-04-08T15:17:17Z</time></trkpt><trkpt lat="38.14853714000629" lon="15.454264136563713"><ele>734.0</ele><time>2026-04-08T15:17:18Z</time></trkpt><trkpt lat="38.14863419753619" lon="15.454248308628278"><ele>734.0</ele><time>2026-04-08T15:17:21Z</time></trkpt><trkpt lat="38.14871821502876" lon="15.454247601138865"><ele>734.0</ele><time>2026-04-08T15:17:22Z</time></trkpt><trkpt lat="38.148793990193155" lon="15.454232862813651"><ele>734.0</ele><time>2026-04-08T15:17:23Z</time></trkpt><trkpt lat="38.148776820206955" lon="15.454095497492366"><ele>734.0</ele><time>2026-04-08T15:17:26Z</time></trkpt><trkpt lat="38.14882535290417" lon="15.45419500350159"><ele>734.0</ele><time>2026-04-08T15:17:29Z</time></trkpt><trkpt lat="38.148883012000375" lon="15.454230539367622"><ele>734.0</ele><time>2026-04-08T15:17:30Z</time></trkpt><trkpt lat="38.14899327458394" lon="15.454251868336366"><ele>732.5</ele><time>2026-04-08T15:17:33Z</time></trkpt><trkpt lat="38.14905555924219" lon="15.454183940402414"><ele>731.0</ele><time>2026-04-08T15:17:37Z</time></trkpt><trkpt lat="38.1491234678972" lon="15.454164409626994"><ele>729.5</ele><time>2026-04-08T15:17:40Z</time></trkpt><trkpt lat="38.149226231346084" lon="15.454114134546812"><ele>728.0</ele><time>2026-04-08T15:17:50Z</time></trkpt><trkpt lat="38.149217764252015" lon="15.454027583493263"><ele>726.5</ele><time>2026-04-08T15:18:07Z</time></trkpt><trkpt lat="38.149185062425246" lon="15.453923818577195"><ele>725.0</ele><time>2026-04-08T15:18:08.999Z</time></trkpt><trkpt lat="38.14918186052147" lon="15.453809494357358"><ele>721.75</ele><time>2026-04-08T15:18:12.999Z</time></trkpt><trkpt lat="38.149105491652804" lon="15.453694799466252"><ele>718.5</ele><time>2026-04-08T15:18:14.999Z</time></trkpt><trkpt lat="38.148992609586436" lon="15.45351378726422"><ele>715.25</ele><time>2026-04-08T15:18:15.999Z</time></trkpt><trkpt lat="38.148927580280564" lon="15.453548820839192"><ele>712.0</ele><time>2026-04-08T15:18:16.999Z</time></trkpt><trkpt lat="38.14885264648562" lon="15.453592704190193"><ele>712.0</ele><time>2026-04-08T15:18:17.999Z</time></trkpt><trkpt lat="38.14878139102835" lon="15.453629840384915"><ele>712.0</ele><time>2026-04-08T15:18:18.999Z</time></trkpt><trkpt lat="38.1487394655364" lon="15.453510543958634"><ele>712.0</ele><time>2026-04-08T15:18:21.999Z</time></trkpt><trkpt lat="38.14875458372249" lon="15.453397865851144"><ele>712.0</ele><time>2026-04-08T15:18:22.999Z</time></trkpt><trkpt lat="38.14879168075908" lon="15.453244568310396"><ele>712.0</ele><time>2026-04-08T15:18:23.999Z</time></trkpt><trkpt lat="38.14882781845918" lon="15.453104143064994"><ele>712.0</ele><time>2026-04-08T15:18:24.999Z</time></trkpt><trkpt lat="38.148858648017146" lon="15.45297051533686"><ele>712.0</ele><time>2026-04-08T15:18:25.999Z</time></trkpt><trkpt lat="38.14888781187138" lon="15.452853834856976"><ele>712.0</ele><time>2026-04-08T15:18:26.999Z</time></trkpt><trkpt lat="38.14888007568" lon="15.452746644644122"><ele>712.0</ele><time>2026-04-08T15:18:27.999Z</time></trkpt><trkpt lat="38.14881364116374" lon="15.452730687015286"><ele>712.0</ele><time>2026-04-08T15:18:29.999Z</time></trkpt><trkpt lat="38.14875118958088" lon="15.45271984859689"><ele>712.0</ele><time>2026-04-08T15:18:30.999Z</time></trkpt><trkpt lat="38.14867607624377" lon="15.452714983691996"><ele>712.0</ele><time>2026-04-08T15:18:31.999Z</time></trkpt><trkpt lat="38.14862915768121" lon="15.45278299020075"><ele>712.0</ele><time>2026-04-08T15:18:32.999Z</time></trkpt><trkpt lat="38.14858039730182" lon="15.452833753702272"><ele>712.0</ele><time>2026-04-08T15:18:33.999Z</time></trkpt><trkpt lat="38.14852980964266" lon="15.452915901414814"><ele>712.0</ele><time>2026-04-08T15:18:34.999Z</time></trkpt><trkpt lat="38.14849004487719" lon="15.452994349265179"><ele>712.0</ele><time>2026-04-08T15:18:35.999Z</time></trkpt><trkpt lat="38.14843587782007" lon="15.4530732150099"><ele>712.0</ele><time>2026-04-08T15:18:36.999Z</time></trkpt><trkpt lat="38.14832769342206" lon="15.453099444777843"><ele>712.0</ele><time>2026-04-08T15:18:37.999Z</time></trkpt><trkpt lat="38.148288203880846" lon="15.45319053670606"><ele>712.0</ele><time>2026-04-08T15:18:38.999Z</time></trkpt><trkpt lat="38.148181268413026" lon="15.453180525554131"><ele>712.0</ele><time>2026-04-08T15:18:39.999Z</time></trkpt><trkpt lat="38.1480730576219" lon="15.453168927414858"><ele>712.0</ele><time>2026-04-08T15:18:40.999Z</time></trkpt><trkpt lat="38.147972931638385" lon="15.453172865230991"><ele>712.0</ele><time>2026-04-08T15:18:41.999Z</time></trkpt><trkpt lat="38.14787349255726" lon="15.453173291460466"><ele>710.0</ele><time>2026-04-08T15:18:42.999Z</time></trkpt><trkpt lat="38.14777926486515" lon="15.453205054886439"><ele>708.0</ele><time>2026-04-08T15:18:43.999Z</time></trkpt><trkpt lat="38.14770131765371" lon="15.453317364514936"><ele>706.0</ele><time>2026-04-08T15:18:44.999Z</time></trkpt><trkpt lat="38.147594796143274" lon="15.453335694483968"><ele>704.0</ele><time>2026-04-08T15:18:45.999Z</time></trkpt><trkpt lat="38.147470385060494" lon="15.453294178724285"><ele>704.6</ele><time>2026-04-08T15:18:46.999Z</time></trkpt><trkpt lat="38.147376339280285" lon="15.453251578424682"><ele>705.2</ele><time>2026-04-08T15:18:47.999Z</time></trkpt><trkpt lat="38.147285121074624" lon="15.45324842034999"><ele>705.8000000000001</ele><time>2026-04-08T15:18:48.999Z</time></trkpt><trkpt lat="38.14718661922329" lon="15.453257614657334"><ele>706.4000000000001</ele><time>2026-04-08T15:18:50.999Z</time></trkpt><trkpt lat="38.14716990060798" lon="15.453161783426534"><ele>707.0</ele><time>2026-04-08T15:18:53.999Z</time></trkpt><trkpt lat="38.147170132881065" lon="15.452972144210568"><ele>707.5</ele><time>2026-04-08T15:18:54.999Z</time></trkpt><trkpt lat="38.147162067007486" lon="15.452848983432322"><ele>708.0</ele><time>2026-04-08T15:18:55.999Z</time></trkpt><trkpt lat="38.1471817338871" lon="15.452657972874519"><ele>708.5</ele><time>2026-04-08T15:18:56.999Z</time></trkpt><trkpt lat="38.14724906997735" lon="15.452460467086214"><ele>709.0</ele><time>2026-04-08T15:18:57.999Z</time></trkpt><trkpt lat="38.147352726136624" lon="15.452316011941624"><ele>701.75</ele><time>2026-04-08T15:18:58.999Z</time></trkpt><trkpt lat="38.14741611496703" lon="15.452180771779945"><ele>694.5</ele><time>2026-04-08T15:18:59.999Z</time></trkpt><trkpt lat="38.14748505465162" lon="15.452042157935962"><ele>687.25</ele><time>2026-04-08T15:19:00.999Z</time></trkpt><trkpt lat="38.14749786012759" lon="15.451938074767293"><ele>680.0</ele><time>2026-04-08T15:19:01.999Z</time></trkpt><trkpt lat="38.147474542" lon="15.451778368895503"><ele>680.0</ele><time>2026-04-08T15:19:02.999Z</time></trkpt><trkpt lat="38.14749710361381" lon="15.451601838520327"><ele>680.0</ele><time>2026-04-08T15:19:04.998Z</time></trkpt><trkpt lat="38.14746205102809" lon="15.45153063606951"><ele>680.0</ele><time>2026-04-08T15:19:05.998Z</time></trkpt><trkpt lat="38.14739401896726" lon="15.451511562903137"><ele>680.0</ele><time>2026-04-08T15:19:07Z</time></trkpt><trkpt lat="38.14729948546359" lon="15.451464758781682"><ele>680.0</ele><time>2026-04-08T15:19:08Z</time></trkpt><trkpt lat="38.147211200709904" lon="15.451376838266494"><ele>682.2</ele><time>2026-04-08T15:19:09Z</time></trkpt><trkpt lat="38.14716436063457" lon="15.451323104948322"><ele>684.4</ele><time>2026-04-08T15:19:10Z</time></trkpt><trkpt lat="38.147045369221466" lon="15.451223672463733"><ele>686.5999999999999</ele><time>2026-04-08T15:19:12Z</time></trkpt><trkpt lat="38.14697098044538" lon="15.451165461247498"><ele>688.8</ele><time>2026-04-08T15:19:13Z</time></trkpt><trkpt lat="38.14688844112231" lon="15.451101487562514"><ele>691.0</ele><time>2026-04-08T15:19:14Z</time></trkpt><trkpt lat="38.147436552202755" lon="15.45101552105368"><ele>691.0</ele><time>2026-04-08T15:19:15Z</time></trkpt><trkpt lat="38.14752463648746" lon="15.450989959328757"><ele>691.0</ele><time>2026-04-08T15:19:16Z</time></trkpt><trkpt lat="38.147575747221175" lon="15.450911381603865"><ele>691.0</ele><time>2026-04-08T15:19:17Z</time></trkpt><trkpt lat="38.14757741424893" lon="15.450817853881675"><ele>691.0</ele><time>2026-04-08T15:19:18Z</time></trkpt><trkpt lat="38.14759559109415" lon="15.4506649206513"><ele>691.0</ele><time>2026-04-08T15:19:19Z</time></trkpt><trkpt lat="38.14762599368676" lon="15.450538588640477"><ele>697.1666666666667</ele><time>2026-04-08T15:19:20Z</time></trkpt><trkpt lat="38.14766832427218" lon="15.450455796873973"><ele>703.3333333333334</ele><time>2026-04-08T15:19:21Z</time></trkpt><trkpt lat="38.14765908860389" lon="15.450367827219809"><ele>709.5</ele><time>2026-04-08T15:19:22Z</time></trkpt><trkpt lat="38.14770131455128" lon="15.450276360402778"><ele>715.6666666666666</ele><time>2026-04-08T15:19:24Z</time></trkpt><trkpt lat="38.147776529958705" lon="15.450276895829399"><ele>721.8333333333333</ele><time>2026-04-08T15:19:25Z</time></trkpt><trkpt lat="38.147842681646914" lon="15.450296097103072"><ele>728.0</ele><time>2026-04-08T15:19:26Z</time></trkpt><trkpt lat="38.147955256488906" lon="15.45030767316231"><ele>728.0</ele><time>2026-04-08T15:19:28Z</time></trkpt><trkpt lat="38.1479760199558" lon="15.450172686779435"><ele>728.0</ele><time>2026-04-08T15:19:30Z</time></trkpt><trkpt lat="38.14797246370218" lon="15.450064058126587"><ele>728.0</ele><time>2026-04-08T15:19:31Z</time></trkpt><trkpt lat="38.14799154166769" lon="15.44992749978319"><ele>728.0</ele><time>2026-04-08T15:19:32Z</time></trkpt><trkpt lat="38.14803648622845" lon="15.449801406661464"><ele>728.0</ele><time>2026-04-08T15:19:33Z</time></trkpt><trkpt lat="38.14809810373148" lon="15.449755820811909"><ele>728.0</ele><time>2026-04-08T15:19:34Z</time></trkpt><trkpt lat="38.148176878574084" lon="15.449738371592657"><ele>728.0</ele><time>2026-04-08T15:19:35Z</time></trkpt><trkpt lat="38.14827250620823" lon="15.449704523186904"><ele>728.0</ele><time>2026-04-08T15:19:36Z</time></trkpt><trkpt lat="38.14838717736934" lon="15.449677303731692"><ele>728.0</ele><time>2026-04-08T15:19:37Z</time></trkpt><trkpt lat="38.148496308069035" lon="15.449659732423173"><ele>728.0</ele><time>2026-04-08T15:19:38Z</time></trkpt><trkpt lat="38.148589438995096" lon="15.449689062966243"><ele>722.4</ele><time>2026-04-08T15:19:39Z</time></trkpt><trkpt lat="38.14867233830982" lon="15.449712088140469"><ele>716.8</ele><time>2026-04-08T15:19:40Z</time></trkpt><trkpt lat="38.14879841937168" lon="15.449733009786586"><ele>711.2</ele><time>2026-04-08T15:19:41Z</time></trkpt><trkpt lat="38.148882022081956" lon="15.449817657613002"><ele>705.6</ele><time>2026-04-08T15:19:42Z</time></trkpt><trkpt lat="38.148968968244006" lon="15.449882064041919"><ele>700.0</ele><time>2026-04-08T15:19:43Z</time></trkpt><trkpt lat="38.149044648191484" lon="15.449967999150063"><ele>699.8</ele><time>2026-04-08T15:19:44Z</time></trkpt><trkpt lat="38.14910893391351" lon="15.450041283335247"><ele>699.6</ele><time>2026-04-08T15:19:45Z</time></trkpt><trkpt lat="38.149239436385855" lon="15.450043191154299"><ele>699.4000000000001</ele><time>2026-04-08T15:19:47Z</time></trkpt><trkpt lat="38.14931174043028" lon="15.450030801651614"><ele>699.2</ele><time>2026-04-08T15:19:48Z</time></trkpt><trkpt lat="38.149261202366354" lon="15.449947758290723"><ele>699.0</ele><time>2026-04-08T15:19:51Z</time></trkpt><trkpt lat="38.149160693097066" lon="15.449948771628948"><ele>699.0</ele><time>2026-04-08T15:19:53Z</time></trkpt><trkpt lat="38.14909681750377" lon="15.449966955314336"><ele>699.0</ele><time>2026-04-08T15:19:55Z</time></trkpt><trkpt lat="38.149205982289104" lon="15.449954060719469"><ele>699.0</ele><time>2026-04-08T15:19:58Z</time></trkpt><trkpt lat="38.14925833875676" lon="15.449909563506754"><ele>699.0</ele><time>2026-04-08T15:20:02Z</time></trkpt><trkpt lat="38.149201406898456" lon="15.449873955803595"><ele>699.0</ele><time>2026-04-08T15:20:04Z</time></trkpt><trkpt lat="38.14915342535593" lon="15.449817769924175"><ele>699.0</ele><time>2026-04-08T15:20:06Z</time></trkpt><trkpt lat="38.14910111769444" lon="15.449717937749007"><ele>699.0</ele><time>2026-04-08T15:20:08Z</time></trkpt><trkpt lat="38.14917547490125" lon="15.449656132168112"><ele>699.0</ele><time>2026-04-08T15:20:11Z</time></trkpt><trkpt lat="38.14927524402023" lon="15.449645291566204"><ele>699.0</ele><time>2026-04-08T15:20:13Z</time></trkpt><trkpt lat="38.149352787333555" lon="15.449591977237516"><ele>699.0</ele><time>2026-04-08T15:20:15.999Z</time></trkpt><trkpt lat="38.149278141407805" lon="15.449494958877906"><ele>699.0</ele><time>2026-04-08T15:20:18.999Z</time></trkpt><trkpt lat="38.14921021372822" lon="15.449455397085119"><ele>707.8000000000001</ele><time>2026-04-08T15:20:19.999Z</time></trkpt><trkpt lat="38.149115996517445" lon="15.44944844385788"><ele>716.6</ele><time>2026-04-08T15:20:20.999Z</time></trkpt><trkpt lat="38.1490218776128" lon="15.449422741033452"><ele>725.4</ele><time>2026-04-08T15:20:21.999Z</time></trkpt><trkpt lat="38.14895020411266" lon="15.449424275801238"><ele>734.2</ele><time>2026-04-08T15:20:22.999Z</time></trkpt><trkpt lat="38.148906378337955" lon="15.449354574435944"><ele>743.0</ele><time>2026-04-08T15:20:24.999Z</time></trkpt><trkpt lat="38.149034065738185" lon="15.449317794195565"><ele>743.0</ele><time>2026-04-08T15:20:26.999Z</time></trkpt><trkpt lat="38.14912069049874" lon="15.44932190135733"><ele>743.0</ele><time>2026-04-08T15:20:27.999Z</time></trkpt><trkpt lat="38.14924737638282" lon="15.449306665610791"><ele>743.0</ele><time>2026-04-08T15:20:28.999Z</time></trkpt><trkpt lat="38.149384965776115" lon="15.449287580463222"><ele>743.0</ele><time>2026-04-08T15:20:29.999Z</time></trkpt><trkpt lat="38.14948808035634" lon="15.449332176550149"><ele>743.0</ele><time>2026-04-08T15:20:30.999Z</time></trkpt><trkpt lat="38.14958496819434" lon="15.449344822516705"><ele>743.0</ele><time>2026-04-08T15:20:31.999Z</time></trkpt><trkpt lat="38.14967998438657" lon="15.449350913787004"><ele>743.0</ele><time>2026-04-08T15:20:32.999Z</time></trkpt><trkpt lat="38.14975327230695" lon="15.449352598077887"><ele>743.0</ele><time>2026-04-08T15:20:33.999Z</time></trkpt><trkpt lat="38.14979106606177" lon="15.44927279003248"><ele>743.0</ele><time>2026-04-08T15:20:36.999Z</time></trkpt><trkpt lat="38.14970857635509" lon="15.44913755229825"><ele>743.0</ele><time>2026-04-08T15:20:38.999Z</time></trkpt><trkpt lat="38.149762055613195" lon="15.449040910501044"><ele>743.0</ele><time>2026-04-08T15:20:40.999Z</time></trkpt><trkpt lat="38.1496572883696" lon="15.448902918621934"><ele>743.0</ele><time>2026-04-08T15:20:42.999Z</time></trkpt><trkpt lat="38.14957485757831" lon="15.448820437373394"><ele>743.0</ele><time>2026-04-08T15:20:43.999Z</time></trkpt><trkpt lat="38.149464813678485" lon="15.448753407312559"><ele>741.5999999999999</ele><time>2026-04-08T15:20:44.999Z</time></trkpt><trkpt lat="38.14935858021587" lon="15.448722018775003"><ele>740.1999999999999</ele><time>2026-04-08T15:20:45.999Z</time></trkpt><trkpt lat="38.1492655176896" lon="15.448658147446848"><ele>738.8</ele><time>2026-04-08T15:20:46.999Z</time></trkpt><trkpt lat="38.14917187902811" lon="15.448592847361448"><ele>737.4</ele><time>2026-04-08T15:20:47.999Z</time></trkpt><trkpt lat="38.14910329818831" lon="15.448578712433779"><ele>736.0</ele><time>2026-04-08T15:20:48.999Z</time></trkpt><trkpt lat="38.14903087401893" lon="15.448536721766416"><ele>744.75</ele><time>2026-04-08T15:20:49.999Z</time></trkpt><trkpt lat="38.14893711497967" lon="15.448471535327268"><ele>753.5</ele><time>2026-04-08T15:20:50.999Z</time></trkpt><trkpt lat="38.14881879640644" lon="15.448347035403792"><ele>762.25</ele><time>2026-04-08T15:20:51.999Z</time></trkpt><trkpt lat="38.148745047377666" lon="15.44823722595387"><ele>771.0</ele><time>2026-04-08T15:20:52.999Z</time></trkpt><trkpt lat="38.14872659948177" lon="15.448077754074662"><ele>771.0</ele><time>2026-04-08T15:20:53.999Z</time></trkpt><trkpt lat="38.14871199952374" lon="15.44797881769909"><ele>771.0</ele><time>2026-04-08T15:20:54.999Z</time></trkpt><trkpt lat="38.148694342027525" lon="15.447871917589334"><ele>771.0</ele><time>2026-04-08T15:20:55.999Z</time></trkpt><trkpt lat="38.14869342437914" lon="15.447761646512365"><ele>771.0</ele><time>2026-04-08T15:20:56.999Z</time></trkpt><trkpt lat="38.1486890665622" lon="15.447672722450351"><ele>771.0</ele><time>2026-04-08T15:20:57.999Z</time></trkpt><trkpt lat="38.1486841093242" lon="15.447537892247231"><ele>771.0</ele><time>2026-04-08T15:20:59.999Z</time></trkpt><trkpt lat="38.14865022450925" lon="15.447455103751368"><ele>770.3333333333334</ele><time>2026-04-08T15:21:00.999Z</time></trkpt><trkpt lat="38.14861520514068" lon="15.447338562913863"><ele>769.6666666666666</ele><time>2026-04-08T15:21:01.999Z</time></trkpt><trkpt lat="38.14860539555897" lon="15.447230113977216"><ele>769.0</ele><time>2026-04-08T15:21:02.999Z</time></trkpt><trkpt lat="38.14859400564411" lon="15.447102465131003"><ele>768.3333333333333</ele><time>2026-04-08T15:21:03.999Z</time></trkpt><trkpt lat="38.148588473921436" lon="15.447009141839153"><ele>767.6666666666666</ele><time>2026-04-08T15:21:04.999Z</time></trkpt><trkpt lat="38.1485915517556" lon="15.446928975149259"><ele>767.0</ele><time>2026-04-08T15:21:05.999Z</time></trkpt><trkpt lat="38.14858129597272" lon="15.446849716426135"><ele>760.6</ele><time>2026-04-08T15:21:06.999Z</time></trkpt><trkpt lat="38.14855140956227" lon="15.446753404602182"><ele>754.2</ele><time>2026-04-08T15:21:07.999Z</time></trkpt><trkpt lat="38.14847391002329" lon="15.446697770410308"><ele>747.8</ele><time>2026-04-08T15:21:08.999Z</time></trkpt><trkpt lat="38.14841476144878" lon="15.446573033611076"><ele>741.4</ele><time>2026-04-08T15:21:09.999Z</time></trkpt><trkpt lat="38.148365695449165" lon="15.446473286288752"><ele>735.0</ele><time>2026-04-08T15:21:10.998Z</time></trkpt><trkpt lat="38.148323355666385" lon="15.446395326302179"><ele>735.0</ele><time>2026-04-08T15:21:11.998Z</time></trkpt><trkpt lat="38.14827807092102" lon="15.446335845178385"><ele>735.0</ele><time>2026-04-08T15:21:13Z</time></trkpt><trkpt lat="38.14820427731726" lon="15.446276916924232"><ele>735.0</ele><time>2026-04-08T15:21:15Z</time></trkpt><trkpt lat="38.14813602913154" lon="15.446312841797669"><ele>735.0</ele><time>2026-04-08T15:21:17Z</time></trkpt><trkpt lat="38.14805204352997" lon="15.446353853025503"><ele>735.0</ele><time>2026-04-08T15:21:18Z</time></trkpt><trkpt lat="38.14797890078053" lon="15.446431618260938"><ele>735.0</ele><time>2026-04-08T15:21:19Z</time></trkpt><trkpt lat="38.14791213730256" lon="15.446508450499921"><ele>736.75</ele><time>2026-04-08T15:21:20Z</time></trkpt><trkpt lat="38.1478304157719" lon="15.446550748212324"><ele>738.5</ele><time>2026-04-08T15:21:22Z</time></trkpt><trkpt lat="38.147657008526544" lon="15.446662514540776"><ele>740.25</ele><time>2026-04-08T15:21:23Z</time></trkpt><trkpt lat="38.14753022727982" lon="15.446623184895584"><ele>742.0</ele><time>2026-04-08T15:21:24Z</time></trkpt><trkpt lat="38.14743557729197" lon="15.44666162318153"><ele>743.25</ele><time>2026-04-08T15:21:25Z</time></trkpt><trkpt lat="38.14733127404906" lon="15.44667641748578"><ele>744.5</ele><time>2026-04-08T15:21:26Z</time></trkpt><trkpt lat="38.14721677599762" lon="15.4466853266135"><ele>745.75</ele><time>2026-04-08T15:21:27Z</time></trkpt><trkpt lat="38.14710178658432" lon="15.446740296472516"><ele>747.0</ele><time>2026-04-08T15:21:28Z</time></trkpt><trkpt lat="38.14697859023553" lon="15.446720634833804"><ele>747.0</ele><time>2026-04-08T15:21:29Z</time></trkpt><trkpt lat="38.14685398830838" lon="15.446712356795576"><ele>747.0</ele><time>2026-04-08T15:21:30Z</time></trkpt><trkpt lat="38.14674675294739" lon="15.446703255671705"><ele>747.0</ele><time>2026-04-08T15:21:31Z</time></trkpt><trkpt lat="38.146632764032844" lon="15.446720857275437"><ele>747.0</ele><time>2026-04-08T15:21:32Z</time></trkpt><trkpt lat="38.14671658354099" lon="15.446668626746032"><ele>747.0</ele><time>2026-04-08T15:21:36Z</time></trkpt><trkpt lat="38.14680150373707" lon="15.446655017662247"><ele>747.0</ele><time>2026-04-08T15:21:37Z</time></trkpt><trkpt lat="38.146891592396585" lon="15.446614104627198"><ele>747.0</ele><time>2026-04-08T15:21:38Z</time></trkpt><trkpt lat="38.14696754953508" lon="15.446553527136212"><ele>747.0</ele><time>2026-04-08T15:21:39Z</time></trkpt><trkpt lat="38.14702417326958" lon="15.44641220065687"><ele>747.0</ele><time>2026-04-08T15:21:41Z</time></trkpt><trkpt lat="38.147084206114734" lon="15.446307396969745"><ele>747.0</ele><time>2026-04-08T15:21:42Z</time></trkpt><trkpt lat="38.147172108130434" lon="15.446180433942336"><ele>749.5</ele><time>2026-04-08T15:21:43Z</time></trkpt><trkpt lat="38.147259041131385" lon="15.446047267666252"><ele>752.0</ele><time>2026-04-08T15:21:44Z</time></trkpt><trkpt lat="38.1472853795408" lon="15.445890858385813"><ele>754.5</ele><time>2026-04-08T15:21:45Z</time></trkpt><trkpt lat="38.147322509851264" lon="15.445771101512054"><ele>757.0</ele><time>2026-04-08T15:21:46Z</time></trkpt><trkpt lat="38.14738405889189" lon="15.445681944270257"><ele>757.6</ele><time>2026-04-08T15:21:47Z</time></trkpt><trkpt lat="38.14744261664671" lon="15.44557555918704"><ele>758.2</ele><time>2026-04-08T15:21:48Z</time></trkpt><trkpt lat="38.14742851041734" lon="15.445444838306166"><ele>758.8</ele><time>2026-04-08T15:21:49Z</time></trkpt><trkpt lat="38.14741122889601" lon="15.445329490354021"><ele>759.4</ele><time>2026-04-08T15:21:50Z</time></trkpt><trkpt lat="38.147347608248076" lon="15.445193201258633"><ele>760.0</ele><time>2026-04-08T15:21:51Z</time></trkpt><trkpt lat="38.14733867525007" lon="15.44508257545636"><ele>760.0</ele><time>2026-04-08T15:21:52Z</time></trkpt><trkpt lat="38.147300407266464" lon="15.444945550531143"><ele>760.0</ele><time>2026-04-08T15:21:53Z</time></trkpt><trkpt lat="38.14725331540427" lon="15.444810523461578"><ele>760.0</ele><time>2026-04-08T15:21:54Z</time></trkpt><trkpt lat="38.147253701160324" lon="15.444677783185492"><ele>760.0</ele><time>2026-04-08T15:21:55Z</time></trkpt><trkpt lat="38.147216621422174" lon="15.444557150081828"><ele>760.0</ele><time>2026-04-08T15:21:56Z</time></trkpt><trkpt lat="38.14718612764337" lon="15.444442590698102"><ele>755.75</ele><time>2026-04-08T15:21:57Z</time></trkpt><trkpt lat="38.14713604223699" lon="15.444375414087594"><ele>751.5</ele><time>2026-04-08T15:22:03Z</time></trkpt><trkpt lat="38.14712831816477" lon="15.444282294256892"><ele>747.25</ele><time>2026-04-08T15:22:11Z</time></trkpt><trkpt lat="38.147080669942525" lon="15.44417994489866"><ele>743.0</ele><time>2026-04-08T15:22:13Z</time></trkpt><trkpt lat="38.14710972317047" lon="15.44372604556316"><ele>737.25</ele><time>2026-04-08T15:22:16Z</time></trkpt><trkpt lat="38.14714372661769" lon="15.443609503097543"><ele>731.5</ele><time>2026-04-08T15:22:17Z</time></trkpt><trkpt lat="38.14719866808795" lon="15.443480393950711"><ele>725.75</ele><time>2026-04-08T15:22:17.999Z</time></trkpt><trkpt lat="38.147163515669746" lon="15.443284522518613"><ele>720.0</ele><time>2026-04-08T15:22:18.999Z</time></trkpt><trkpt lat="38.14723110859065" lon="15.443173087924759"><ele>720.0</ele><time>2026-04-08T15:22:19.999Z</time></trkpt><trkpt lat="38.147258777884716" lon="15.443046327015418"><ele>720.0</ele><time>2026-04-08T15:22:21.999Z</time></trkpt><trkpt lat="38.14723907995885" lon="15.442892820850656"><ele>720.0</ele><time>2026-04-08T15:22:23.999Z</time></trkpt><trkpt lat="38.14719934212561" lon="15.442795793480592"><ele>720.0</ele><time>2026-04-08T15:22:24.999Z</time></trkpt><trkpt lat="38.14715891030395" lon="15.44270511615864"><ele>720.0</ele><time>2026-04-08T15:22:25.999Z</time></trkpt><trkpt lat="38.14713625003979" lon="15.44261075694737"><ele>719.8333333333334</ele><time>2026-04-08T15:22:26.999Z</time></trkpt><trkpt lat="38.14711190551205" lon="15.442516056572803"><ele>719.6666666666666</ele><time>2026-04-08T15:22:27.999Z</time></trkpt><trkpt lat="38.147083545624966" lon="15.442436963516512"><ele>719.5</ele><time>2026-04-08T15:22:28.999Z</time></trkpt><trkpt lat="38.14703342054327" lon="15.442352219076463"><ele>719.3333333333333</ele><time>2026-04-08T15:22:29.999Z</time></trkpt><trkpt lat="38.14699250213486" lon="15.442282193153405"><ele>719.1666666666666</ele><time>2026-04-08T15:22:30.999Z</time></trkpt><trkpt lat="38.14697351931679" lon="15.442158299363443"><ele>719.0</ele><time>2026-04-08T15:22:31.999Z</time></trkpt><trkpt lat="38.147002466411564" lon="15.442035015418185"><ele>719.0</ele><time>2026-04-08T15:22:32.999Z</time></trkpt><trkpt lat="38.14702498646805" lon="15.441917271313823"><ele>719.0</ele><time>2026-04-08T15:22:33.999Z</time></trkpt><trkpt lat="38.14704561918709" lon="15.441800556809929"><ele>719.0</ele><time>2026-04-08T15:22:34.999Z</time></trkpt><trkpt lat="38.14706358207757" lon="15.441689490359622"><ele>719.0</ele><time>2026-04-08T15:22:35.999Z</time></trkpt><trkpt lat="38.147079722829695" lon="15.441572617016487"><ele>719.0</ele><time>2026-04-08T15:22:36.999Z</time></trkpt><trkpt lat="38.14707899734963" lon="15.441473735324543"><ele>719.0</ele><time>2026-04-08T15:22:37.999Z</time></trkpt><trkpt lat="38.14707208780186" lon="15.44135989359686"><ele>719.0</ele><time>2026-04-08T15:22:38.999Z</time></trkpt><trkpt lat="38.147059524719204" lon="15.441237853889378"><ele>719.0</ele><time>2026-04-08T15:22:39.999Z</time></trkpt><trkpt lat="38.14704060700299" lon="15.441101931174664"><ele>719.0</ele><time>2026-04-08T15:22:40.999Z</time></trkpt><trkpt lat="38.14704374921126" lon="15.440951061140387"><ele>719.0</ele><time>2026-04-08T15:22:41.999Z</time></trkpt><trkpt lat="38.14705143704647" lon="15.440811838404231"><ele>719.2</ele><time>2026-04-08T15:22:42.999Z</time></trkpt><trkpt lat="38.1470550772302" lon="15.440694271316907"><ele>719.4000000000001</ele><time>2026-04-08T15:22:43.999Z</time></trkpt><trkpt lat="38.14703587006667" lon="15.440582038033131"><ele>719.6</ele><time>2026-04-08T15:22:44.999Z</time></trkpt><trkpt lat="38.14702671803984" lon="15.440464746181563"><ele>719.8</ele><time>2026-04-08T15:22:45.999Z</time></trkpt><trkpt lat="38.147025197365714" lon="15.440347666739145"><ele>720.0</ele><time>2026-04-08T15:22:46.999Z</time></trkpt><trkpt lat="38.14705242352895" lon="15.440230467615583"><ele>718.5</ele><time>2026-04-08T15:22:47.999Z</time></trkpt><trkpt lat="38.14708894624097" lon="15.440127477251735"><ele>717.0</ele><time>2026-04-08T15:22:48.999Z</time></trkpt><trkpt lat="38.147129844567765" lon="15.44002836096687"><ele>715.5</ele><time>2026-04-08T15:22:49.999Z</time></trkpt><trkpt lat="38.14718816800067" lon="15.439954383395367"><ele>714.0</ele><time>2026-04-08T15:22:50.999Z</time></trkpt><trkpt lat="38.147232738088434" lon="15.439870334095245"><ele>712.5</ele><time>2026-04-08T15:22:51.999Z</time></trkpt><trkpt lat="38.14729689343464" lon="15.43981226260253"><ele>711.0</ele><time>2026-04-08T15:22:52.999Z</time></trkpt><trkpt lat="38.14740589719975" lon="15.439771752434341"><ele>710.1999999999999</ele><time>2026-04-08T15:22:53.999Z</time></trkpt><trkpt lat="38.14748547911346" lon="15.439729157891867"><ele>709.4</ele><time>2026-04-08T15:22:54.999Z</time></trkpt><trkpt lat="38.1475715098344" lon="15.439696241353499"><ele>708.6</ele><time>2026-04-08T15:22:55.999Z</time></trkpt><trkpt lat="38.1476445631593" lon="15.439611778738248"><ele>707.8</ele><time>2026-04-08T15:22:56.999Z</time></trkpt><trkpt lat="38.14770578367198" lon="15.439541295014061"><ele>707.0</ele><time>2026-04-08T15:22:57.999Z</time></trkpt><trkpt lat="38.147790729451486" lon="15.43947053295675"><ele>710.0</ele><time>2026-04-08T15:22:58.999Z</time></trkpt><trkpt lat="38.147862290484916" lon="15.439393545599266"><ele>713.0</ele><time>2026-04-08T15:22:59.999Z</time></trkpt><trkpt lat="38.147908344698614" lon="15.439306835656545"><ele>716.0</ele><time>2026-04-08T15:23:00.999Z</time></trkpt><trkpt lat="38.14796216904442" lon="15.439241004736404"><ele>719.0</ele><time>2026-04-08T15:23:01.999Z</time></trkpt><trkpt lat="38.14799583275184" lon="15.439164908069245"><ele>722.0</ele><time>2026-04-08T15:23:02.999Z</time></trkpt><trkpt lat="38.14797991844122" lon="15.43904504605917"><ele>725.0</ele><time>2026-04-08T15:23:04.999Z</time></trkpt><trkpt lat="38.147932754821596" lon="15.438929856033498"><ele>725.0</ele><time>2026-04-08T15:23:05.999Z</time></trkpt><trkpt lat="38.147933534824794" lon="15.43881465848031"><ele>725.0</ele><time>2026-04-08T15:23:06.999Z</time></trkpt><trkpt lat="38.14791692312036" lon="15.438703940517323"><ele>725.0</ele><time>2026-04-08T15:23:07.999Z</time></trkpt><trkpt lat="38.1479452631754" lon="15.438596840297889"><ele>725.0</ele><time>2026-04-08T15:23:08.999Z</time></trkpt><trkpt lat="38.1479840064941" lon="15.438493838682692"><ele>725.0</ele><time>2026-04-08T15:23:09.999Z</time></trkpt><trkpt lat="38.148012404936125" lon="15.438394027443143"><ele>725.0</ele><time>2026-04-08T15:23:10.999Z</time></trkpt><trkpt lat="38.14802345637534" lon="15.438293173060531"><ele>723.0</ele><time>2026-04-08T15:23:11.999Z</time></trkpt><trkpt lat="38.148034227299114" lon="15.438188637572281"><ele>721.0</ele><time>2026-04-08T15:23:12.999Z</time></trkpt><trkpt lat="38.14806201715954" lon="15.43808948998955"><ele>719.0</ele><time>2026-04-08T15:23:14.999Z</time></trkpt><trkpt lat="38.14811645740994" lon="15.438185181245526"><ele>717.0</ele><time>2026-04-08T15:23:16.998Z</time></trkpt><trkpt lat="38.148066237794126" lon="15.4382684857988"><ele>715.0</ele><time>2026-04-08T15:23:18Z</time></trkpt><trkpt lat="38.1480538366928" lon="15.438388915478566"><ele>713.0</ele><time>2026-04-08T15:23:19Z</time></trkpt><trkpt lat="38.14805323747927" lon="15.438542630525724"><ele>713.0</ele><time>2026-04-08T15:23:20Z</time></trkpt><trkpt lat="38.14804034012459" lon="15.438681058218028"><ele>713.0</ele><time>2026-04-08T15:23:21Z</time></trkpt><trkpt lat="38.14804940128358" lon="15.438789276426876"><ele>713.0</ele><time>2026-04-08T15:23:22Z</time></trkpt><trkpt lat="38.14809164969295" lon="15.438875592146042"><ele>713.0</ele><time>2026-04-08T15:23:23Z</time></trkpt><trkpt lat="38.14816015620812" lon="15.438901714281275"><ele>713.0</ele><time>2026-04-08T15:23:24Z</time></trkpt><trkpt lat="38.14825918192203" lon="15.438861005329883"><ele>707.5</ele><time>2026-04-08T15:23:25Z</time></trkpt><trkpt lat="38.14831208666545" lon="15.438942845582588"><ele>702.0</ele><time>2026-04-08T15:23:26Z</time></trkpt><trkpt lat="38.148361654877604" lon="15.438993802148598"><ele>696.5</ele><time>2026-04-08T15:23:27Z</time></trkpt><trkpt lat="38.148442176440135" lon="15.43903921753648"><ele>691.0</ele><time>2026-04-08T15:23:29Z</time></trkpt><trkpt lat="38.14844463334893" lon="15.438930026422954"><ele>685.5</ele><time>2026-04-08T15:23:30Z</time></trkpt><trkpt lat="38.14844347285833" lon="15.438819395654578"><ele>680.0</ele><time>2026-04-08T15:23:32Z</time></trkpt><trkpt lat="38.148388148409936" lon="15.438752122147894"><ele>679.5</ele><time>2026-04-08T15:23:33Z</time></trkpt><trkpt lat="38.14829508389409" lon="15.438720382524489"><ele>679.0</ele><time>2026-04-08T15:23:34Z</time></trkpt><trkpt lat="38.1482319647526" lon="15.438697631924356"><ele>678.5</ele><time>2026-04-08T15:23:35Z</time></trkpt><trkpt lat="38.14817455623482" lon="15.438619871718291"><ele>678.0</ele><time>2026-04-08T15:23:37Z</time></trkpt><trkpt lat="38.148187756171595" lon="15.438529007333848"><ele>677.5</ele><time>2026-04-08T15:23:38Z</time></trkpt><trkpt lat="38.148227089090085" lon="15.438411568060468"><ele>677.0</ele><time>2026-04-08T15:23:39Z</time></trkpt><trkpt lat="38.148276211706765" lon="15.438287434021188"><ele>677.0</ele><time>2026-04-08T15:23:40Z</time></trkpt><trkpt lat="38.14831425025829" lon="15.438135192871462"><ele>677.0</ele><time>2026-04-08T15:23:41Z</time></trkpt><trkpt lat="38.14833762096544" lon="15.43802338782819"><ele>677.0</ele><time>2026-04-08T15:23:42Z</time></trkpt><trkpt lat="38.14835531983295" lon="15.437941384744539"><ele>677.0</ele><time>2026-04-08T15:23:43Z</time></trkpt><trkpt lat="38.14835062107411" lon="15.437860282580438"><ele>677.0</ele><time>2026-04-08T15:23:44Z</time></trkpt><trkpt lat="38.14829210728463" lon="15.437719260928729"><ele>673.2</ele><time>2026-04-08T15:23:46Z</time></trkpt><trkpt lat="38.148265720001596" lon="15.437620452447145"><ele>669.4000000000001</ele><time>2026-04-08T15:23:48Z</time></trkpt><trkpt lat="38.148334149531074" lon="15.437549699163378"><ele>665.5999999999999</ele><time>2026-04-08T15:23:50Z</time></trkpt><trkpt lat="38.14835417924181" lon="15.437638906118826"><ele>661.8</ele><time>2026-04-08T15:23:52Z</time></trkpt><trkpt lat="38.148433086973384" lon="15.437683430007509"><ele>658.0</ele><time>2026-04-08T15:23:54Z</time></trkpt><trkpt lat="38.14849193868355" lon="15.437925740038228"><ele>661.8</ele><time>2026-04-08T15:23:55Z</time></trkpt><trkpt lat="38.14844951902802" lon="15.438059233090051"><ele>665.5999999999999</ele><time>2026-04-08T15:23:56Z</time></trkpt><trkpt lat="38.14843403307995" lon="15.438165719545665"><ele>669.4000000000001</ele><time>2026-04-08T15:23:57Z</time></trkpt><trkpt lat="38.14849949899177" lon="15.43829962252182"><ele>673.2</ele><time>2026-04-08T15:23:58Z</time></trkpt><trkpt lat="38.14849169392619" lon="15.438401776468108"><ele>677.0</ele><time>2026-04-08T15:23:59Z</time></trkpt><trkpt lat="38.148535176321914" lon="15.43848962977097"><ele>677.0</ele><time>2026-04-08T15:24:00Z</time></trkpt><trkpt lat="38.14860772794839" lon="15.438512345188702"><ele>677.0</ele><time>2026-04-08T15:24:01Z</time></trkpt><trkpt lat="38.14872331757293" lon="15.438419735602375"><ele>677.0</ele><time>2026-04-08T15:24:03Z</time></trkpt><trkpt lat="38.14878059705428" lon="15.43837678553425"><ele>677.0</ele><time>2026-04-08T15:24:04Z</time></trkpt><trkpt lat="38.1487579569941" lon="15.43824574616907"><ele>677.0</ele><time>2026-04-08T15:24:06Z</time></trkpt><trkpt lat="38.14869641544482" lon="15.438176865960356"><ele>677.0</ele><time>2026-04-08T15:24:07Z</time></trkpt><trkpt lat="38.14867446357471" lon="15.438020303549354"><ele>677.0</ele><time>2026-04-08T15:24:09Z</time></trkpt><trkpt lat="38.148693368178485" lon="15.437918901436719"><ele>677.0</ele><time>2026-04-08T15:24:10Z</time></trkpt><trkpt lat="38.14871467415679" lon="15.437823233519863"><ele>677.0</ele><time>2026-04-08T15:24:11Z</time></trkpt><trkpt lat="38.14874251321593" lon="15.437721013762333"><ele>677.0</ele><time>2026-04-08T15:24:12Z</time></trkpt><trkpt lat="38.14877689765898" lon="15.437632073853292"><ele>677.0</ele><time>2026-04-08T15:24:13Z</time></trkpt><trkpt lat="38.148817496090466" lon="15.437553201023565"><ele>673.2</ele><time>2026-04-08T15:24:14Z</time></trkpt><trkpt lat="38.14896158983836" lon="15.43746199147979"><ele>669.4000000000001</ele><time>2026-04-08T15:24:15Z</time></trkpt><trkpt lat="38.14897957008991" lon="15.437379304109518"><ele>665.5999999999999</ele><time>2026-04-08T15:24:16Z</time></trkpt><trkpt lat="38.14889179196166" lon="15.437282184181345"><ele>661.8</ele><time>2026-04-08T15:24:18Z</time></trkpt><trkpt lat="38.148836592559434" lon="15.437207571926322"><ele>658.0</ele><time>2026-04-08T15:24:19Z</time></trkpt><trkpt lat="38.148775471151005" lon="15.437137350382603"><ele>654.8</ele><time>2026-04-08T15:24:20Z</time></trkpt><trkpt lat="38.148803540857784" lon="15.43698318715903"><ele>651.5999999999999</ele><time>2026-04-08T15:24:22.999Z</time></trkpt><trkpt lat="38.14891487933296" lon="15.437006698441586"><ele>648.4000000000001</ele><time>2026-04-08T15:24:24.999Z</time></trkpt><trkpt lat="38.14899635233519" lon="15.437033294299898"><ele>645.2</ele><time>2026-04-08T15:24:25.999Z</time></trkpt><trkpt lat="38.149091602259084" lon="15.437134204012139"><ele>642.0</ele><time>2026-04-08T15:24:27.999Z</time></trkpt><trkpt lat="38.149106043998685" lon="15.437240048712376"><ele>642.0</ele><time>2026-04-08T15:24:28.999Z</time></trkpt><trkpt lat="38.14911122927803" lon="15.437353242713348"><ele>642.0</ele><time>2026-04-08T15:24:29.999Z</time></trkpt><trkpt lat="38.14914575163351" lon="15.437463854685562"><ele>642.0</ele><time>2026-04-08T15:24:30.999Z</time></trkpt><trkpt lat="38.149253409348916" lon="15.437499478463293"><ele>642.0</ele><time>2026-04-08T15:24:32.999Z</time></trkpt><trkpt lat="38.14932152810323" lon="15.43744490768129"><ele>642.0</ele><time>2026-04-08T15:24:33.999Z</time></trkpt><trkpt lat="38.14938366330094" lon="15.437339940017722"><ele>642.0</ele><time>2026-04-08T15:24:34.999Z</time></trkpt><trkpt lat="38.149451490158285" lon="15.437288024305339"><ele>642.0</ele><time>2026-04-08T15:24:35.999Z</time></trkpt><trkpt lat="38.149527467007175" lon="15.437329097180886"><ele>642.0</ele><time>2026-04-08T15:24:37.999Z</time></trkpt><trkpt lat="38.149625700723305" lon="15.437447747897412"><ele>642.0</ele><time>2026-04-08T15:24:38.999Z</time></trkpt><trkpt lat="38.14977977398483" lon="15.43754262105909"><ele>642.0</ele><time>2026-04-08T15:24:39.999Z</time></trkpt><trkpt lat="38.1498643490552" lon="15.437574667228688"><ele>642.0</ele><time>2026-04-08T15:24:40.999Z</time></trkpt><trkpt lat="38.14993988153111" lon="15.437641638092357"><ele>642.0</ele><time>2026-04-08T15:24:41.999Z</time></trkpt><trkpt lat="38.15002029035193" lon="15.437733914033894"><ele>642.0</ele><time>2026-04-08T15:24:42.999Z</time></trkpt><trkpt lat="38.150080084957324" lon="15.437825051060443"><ele>642.0</ele><time>2026-04-08T15:24:43.999Z</time></trkpt><trkpt lat="38.15013657752032" lon="15.437920852973459"><ele>637.4</ele><time>2026-04-08T15:24:44.999Z</time></trkpt><trkpt lat="38.15020208208348" lon="15.438018477823844"><ele>632.8000000000001</ele><time>2026-04-08T15:24:45.999Z</time></trkpt><trkpt lat="38.150279401016775" lon="15.43806977066415"><ele>628.2</ele><time>2026-04-08T15:24:46.999Z</time></trkpt><trkpt lat="38.15035576763877" lon="15.438097380121514"><ele>623.6</ele><time>2026-04-08T15:24:47.999Z</time></trkpt><trkpt lat="38.15043481159823" lon="15.438088107386053"><ele>619.0</ele><time>2026-04-08T15:24:48.999Z</time></trkpt><trkpt lat="38.1505638341809" lon="15.438052448716759"><ele>619.0</ele><time>2026-04-08T15:24:49.999Z</time></trkpt><trkpt lat="38.1506682530065" lon="15.438052758455656"><ele>619.0</ele><time>2026-04-08T15:24:50.999Z</time></trkpt><trkpt lat="38.15076779468453" lon="15.438075981643365"><ele>619.0</ele><time>2026-04-08T15:24:51.999Z</time></trkpt><trkpt lat="38.150864165388136" lon="15.438087445693874"><ele>619.0</ele><time>2026-04-08T15:24:52.999Z</time></trkpt><trkpt lat="38.15094371236633" lon="15.438080577520152"><ele>619.0</ele><time>2026-04-08T15:24:53.999Z</time></trkpt><trkpt lat="38.15100537700569" lon="15.438059164101505"><ele>619.0</ele><time>2026-04-08T15:24:54.999Z</time></trkpt><trkpt lat="38.15106042273868" lon="15.437979852773008"><ele>618.0</ele><time>2026-04-08T15:24:55.999Z</time></trkpt><trkpt lat="38.15113898335783" lon="15.437941299014103"><ele>617.0</ele><time>2026-04-08T15:24:56.999Z</time></trkpt><trkpt lat="38.15119870143738" lon="15.437812562874635"><ele>616.0</ele><time>2026-04-08T15:24:58.999Z</time></trkpt><trkpt lat="38.15116789640052" lon="15.437719264659563"><ele>615.0</ele><time>2026-04-08T15:24:59.999Z</time></trkpt><trkpt lat="38.151120866119754" lon="15.437605789516583"><ele>614.0</ele><time>2026-04-08T15:25:00.999Z</time></trkpt><trkpt lat="38.15106998509814" lon="15.437525421736119"><ele>614.0</ele><time>2026-04-08T15:25:01.999Z</time></trkpt><trkpt lat="38.151018674894395" lon="15.437450331637562"><ele>614.0</ele><time>2026-04-08T15:25:02.999Z</time></trkpt><trkpt lat="38.1509540248665" lon="15.43739442223323"><ele>614.0</ele><time>2026-04-08T15:25:03.999Z</time></trkpt><trkpt lat="38.15087789562686" lon="15.43732290431652"><ele>614.0</ele><time>2026-04-08T15:25:04.999Z</time></trkpt><trkpt lat="38.15080813849128" lon="15.437256589357656"><ele>614.0</ele><time>2026-04-08T15:25:05.999Z</time></trkpt><trkpt lat="38.150748719346026" lon="15.437226223315747"><ele>614.0</ele><time>2026-04-08T15:25:06.999Z</time></trkpt><trkpt lat="38.15067700392018" lon="15.437206542871769"><ele>615.6666666666666</ele><time>2026-04-08T15:25:07.999Z</time></trkpt><trkpt lat="38.150611023443425" lon="15.437225376108628"><ele>617.3333333333333</ele><time>2026-04-08T15:25:08.999Z</time></trkpt><trkpt lat="38.150524166008815" lon="15.437249429785142"><ele>619.0</ele><time>2026-04-08T15:25:09.999Z</time></trkpt><trkpt lat="38.15041008333557" lon="15.437290758610137"><ele>620.6666666666666</ele><time>2026-04-08T15:25:10.999Z</time></trkpt><trkpt lat="38.15030716044868" lon="15.437314934446421"><ele>622.3333333333334</ele><time>2026-04-08T15:25:11.999Z</time></trkpt><trkpt lat="38.150244079411856" lon="15.437292793218221"><ele>624.0</ele><time>2026-04-08T15:25:12.999Z</time></trkpt><trkpt lat="38.15013039735502" lon="15.437142755698359"><ele>622.4</ele><time>2026-04-08T15:25:14.999Z</time></trkpt><trkpt lat="38.150080490364594" lon="15.437033593414586"><ele>620.8</ele><time>2026-04-08T15:25:15.999Z</time></trkpt><trkpt lat="38.15003253048745" lon="15.436961991187717"><ele>619.2</ele><time>2026-04-08T15:25:16.999Z</time></trkpt><trkpt lat="38.14995919949736" lon="15.43687072225999"><ele>617.6</ele><time>2026-04-08T15:25:17.999Z</time></trkpt><trkpt lat="38.14989224896186" lon="15.436801424006564"><ele>616.0</ele><time>2026-04-08T15:25:18.999Z</time></trkpt><trkpt lat="38.149779300115846" lon="15.436712926468374"><ele>616.0</ele><time>2026-04-08T15:25:20.999Z</time></trkpt><trkpt lat="38.14972202619228" lon="15.436648570694866"><ele>616.0</ele><time>2026-04-08T15:25:21.998Z</time></trkpt><trkpt lat="38.14972796926654" lon="15.436517125860961"><ele>616.0</ele><time>2026-04-08T15:25:24Z</time></trkpt><trkpt lat="38.14976642068257" lon="15.436436740558555"><ele>616.0</ele><time>2026-04-08T15:25:25Z</time></trkpt><trkpt lat="38.149831856587994" lon="15.436441633695456"><ele>616.0</ele><time>2026-04-08T15:25:26Z</time></trkpt><trkpt lat="38.149907989309554" lon="15.436460974449641"><ele>616.0</ele><time>2026-04-08T15:25:27Z</time></trkpt><trkpt lat="38.149988028841264" lon="15.436508080040642"><ele>612.2</ele><time>2026-04-08T15:25:28Z</time></trkpt><trkpt lat="38.150060572341516" lon="15.436558958122852"><ele>608.4000000000001</ele><time>2026-04-08T15:25:29Z</time></trkpt><trkpt lat="38.150205827049454" lon="15.436609420530784"><ele>604.6</ele><time>2026-04-08T15:25:31Z</time></trkpt><trkpt lat="38.150286688975285" lon="15.436624731724502"><ele>600.8000000000001</ele><time>2026-04-08T15:25:32Z</time></trkpt><trkpt lat="38.15036676099156" lon="15.436645762203474"><ele>597.0</ele><time>2026-04-08T15:25:33Z</time></trkpt><trkpt lat="38.15046441642112" lon="15.43666188691787"><ele>597.0</ele><time>2026-04-08T15:25:34Z</time></trkpt><trkpt lat="38.15055161759945" lon="15.436616668744856"><ele>597.0</ele><time>2026-04-08T15:25:35Z</time></trkpt><trkpt lat="38.15063036558334" lon="15.436581244171354"><ele>597.0</ele><time>2026-04-08T15:25:36Z</time></trkpt><trkpt lat="38.15070108653863" lon="15.436528914453158"><ele>597.0</ele><time>2026-04-08T15:25:37Z</time></trkpt><trkpt lat="38.15077073887827" lon="15.436488447953147"><ele>597.0</ele><time>2026-04-08T15:25:38Z</time></trkpt><trkpt lat="38.15083714578201" lon="15.436447058057123"><ele>597.0</ele><time>2026-04-08T15:25:39Z</time></trkpt><trkpt lat="38.15076674554562" lon="15.436328208613533"><ele>597.0000000000001</ele><time>2026-04-08T15:25:42Z</time></trkpt><trkpt lat="38.1506890728199" lon="15.436312627395832"><ele>597.0</ele><time>2026-04-08T15:25:43Z</time></trkpt><trkpt lat="38.15060372874087" lon="15.436312720852243"><ele>597.0</ele><time>2026-04-08T15:25:44Z</time></trkpt><trkpt lat="38.15053473867229" lon="15.43630492528758"><ele>597.0</ele><time>2026-04-08T15:25:45Z</time></trkpt><trkpt lat="38.15047195328307" lon="15.43629832367128"><ele>597.0</ele><time>2026-04-08T15:25:46Z</time></trkpt><trkpt lat="38.15039414312295" lon="15.436302695265837"><ele>597.0000000000001</ele><time>2026-04-08T15:25:47Z</time></trkpt><trkpt lat="38.15032570510634" lon="15.43627556449293"><ele>597.0</ele><time>2026-04-08T15:25:48Z</time></trkpt><trkpt lat="38.150256060353605" lon="15.436224888112463"><ele>592.8333333333334</ele><time>2026-04-08T15:25:49Z</time></trkpt><trkpt lat="38.1502027305395" lon="15.436166754113248"><ele>588.6666666666666</ele><time>2026-04-08T15:25:50Z</time></trkpt><trkpt lat="38.15014398078575" lon="15.436107782457984"><ele>584.5</ele><time>2026-04-08T15:25:52Z</time></trkpt><trkpt lat="38.150209641432184" lon="15.436024957622752"><ele>580.3333333333333</ele><time>2026-04-08T15:25:53Z</time></trkpt><trkpt lat="38.15029428047644" lon="15.436030627536834"><ele>576.1666666666666</ele><time>2026-04-08T15:25:54Z</time></trkpt><trkpt lat="38.150365703880944" lon="15.436069515458634"><ele>572.0</ele><time>2026-04-08T15:25:55Z</time></trkpt><trkpt lat="38.150426965201596" lon="15.43612472543048"><ele>572.0</ele><time>2026-04-08T15:25:56Z</time></trkpt><trkpt lat="38.150511744231395" lon="15.436131475362977"><ele>572.0</ele><time>2026-04-08T15:25:58Z</time></trkpt><trkpt lat="38.15052401701057" lon="15.435977960242086"><ele>572.0</ele><time>2026-04-08T15:26:01Z</time></trkpt><trkpt lat="38.150574961892026" lon="15.435930149709314"><ele>572.0</ele><time>2026-04-08T15:26:02Z</time></trkpt><trkpt lat="38.150556410643624" lon="15.435829414019741"><ele>572.0</ele><time>2026-04-08T15:26:03Z</time></trkpt><trkpt lat="38.15052442757444" lon="15.435743600790145"><ele>572.0</ele><time>2026-04-08T15:26:04Z</time></trkpt><trkpt lat="38.15055183791914" lon="15.435626947207412"><ele>572.0</ele><time>2026-04-08T15:26:05Z</time></trkpt><trkpt lat="38.15058652881103" lon="15.435476776136612"><ele>572.0</ele><time>2026-04-08T15:26:06Z</time></trkpt><trkpt lat="38.15064014981051" lon="15.435264313250197"><ele>572.0</ele><time>2026-04-08T15:26:07Z</time></trkpt><trkpt lat="38.15071816300661" lon="15.435041662845718"><ele>568.6666666666666</ele><time>2026-04-08T15:26:08Z</time></trkpt><trkpt lat="38.150767718005135" lon="15.434846214949731"><ele>565.3333333333334</ele><time>2026-04-08T15:26:09Z</time></trkpt><trkpt lat="38.15082144859466" lon="15.434662891319302"><ele>562.0</ele><time>2026-04-08T15:26:10Z</time></trkpt><trkpt lat="38.150884360012576" lon="15.43450811502985"><ele>562.0</ele><time>2026-04-08T15:26:11Z</time></trkpt><trkpt lat="38.15093618684658" lon="15.434388735568119"><ele>562.0</ele><time>2026-04-08T15:26:12Z</time></trkpt><trkpt lat="38.15096717811069" lon="15.434252737178632"><ele>562.0</ele><time>2026-04-08T15:26:13Z</time></trkpt><trkpt lat="38.150977273124965" lon="15.434149239345201"><ele>562.0</ele><time>2026-04-08T15:26:14Z</time></trkpt><trkpt lat="38.15097131393377" lon="15.434045948365082"><ele>562.0</ele><time>2026-04-08T15:26:16Z</time></trkpt><trkpt lat="38.151032436790345" lon="15.433998288944737"><ele>562.0</ele><time>2026-04-08T15:27:39Z</time></trkpt><trkpt lat="38.151005482316855" lon="15.433884506739782"><ele>562.0</ele><time>2026-04-08T15:27:41Z</time></trkpt><trkpt lat="38.15096053294252" lon="15.433819246715734"><ele>562.0</ele><time>2026-04-08T15:27:42Z</time></trkpt><trkpt lat="38.15090487738257" lon="15.433738790152582"><ele>562.0</ele><time>2026-04-08T15:27:43Z</time></trkpt><trkpt lat="38.15084779953176" lon="15.433620157597291"><ele>562.0</ele><time>2026-04-08T15:27:44Z</time></trkpt><trkpt lat="38.150794601936106" lon="15.433511794376457"><ele>559.0</ele><time>2026-04-08T15:27:45Z</time></trkpt><trkpt lat="38.15071745412659" lon="15.43342184590018"><ele>556.0</ele><time>2026-04-08T15:27:46Z</time></trkpt><trkpt lat="38.150656669619785" lon="15.433330493845084"><ele>553.0</ele><time>2026-04-08T15:27:47Z</time></trkpt><trkpt lat="38.15058950167679" lon="15.433240471713782"><ele>550.0</ele><time>2026-04-08T15:27:48Z</time></trkpt><trkpt lat="38.15052193839392" lon="15.433150024456186"><ele>547.0</ele><time>2026-04-08T15:27:49Z</time></trkpt><trkpt lat="38.150449560176185" lon="15.433040507971564"><ele>549.6</ele><time>2026-04-08T15:27:50Z</time></trkpt><trkpt lat="38.15039967805305" lon="15.432940617812779"><ele>552.2</ele><time>2026-04-08T15:27:51Z</time></trkpt><trkpt lat="38.150368098874715" lon="15.43280890278945"><ele>554.8</ele><time>2026-04-08T15:27:52Z</time></trkpt><trkpt lat="38.15036057433431" lon="15.432686610029851"><ele>557.4</ele><time>2026-04-08T15:27:53Z</time></trkpt><trkpt lat="38.15039321627235" lon="15.432519788287898"><ele>560.0</ele><time>2026-04-08T15:27:54Z</time></trkpt><trkpt lat="38.15044934448991" lon="15.432391832757359"><ele>560.0</ele><time>2026-04-08T15:27:55Z</time></trkpt><trkpt lat="38.15055459140309" lon="15.43227659082761"><ele>560.0</ele><time>2026-04-08T15:27:56Z</time></trkpt><trkpt lat="38.15061652938826" lon="15.432196015986706"><ele>560.0</ele><time>2026-04-08T15:27:57Z</time></trkpt><trkpt lat="38.150650462766336" lon="15.432127932548852"><ele>560.0</ele><time>2026-04-08T15:27:58Z</time></trkpt><trkpt lat="38.150642097943106" lon="15.432001195411072"><ele>560.0</ele><time>2026-04-08T15:28:00Z</time></trkpt><trkpt lat="38.15055132686366" lon="15.431884375803435"><ele>558.5</ele><time>2026-04-08T15:28:02Z</time></trkpt><trkpt lat="38.15051339174996" lon="15.431784903326731"><ele>557.0</ele><time>2026-04-08T15:28:03Z</time></trkpt><trkpt lat="38.150531681648644" lon="15.431603084026333"><ele>555.5</ele><time>2026-04-08T15:28:04Z</time></trkpt><trkpt lat="38.15057090270391" lon="15.431450562622922"><ele>554.0</ele><time>2026-04-08T15:28:05Z</time></trkpt><trkpt lat="38.15061000746246" lon="15.431312679312459"><ele>551.25</ele><time>2026-04-08T15:28:06Z</time></trkpt><trkpt lat="38.15066617779326" lon="15.431163312844516"><ele>548.5</ele><time>2026-04-08T15:28:07Z</time></trkpt><trkpt lat="38.15074066182507" lon="15.43104099721103"><ele>545.75</ele><time>2026-04-08T15:28:08Z</time></trkpt><trkpt lat="38.15086135840131" lon="15.431007523046235"><ele>543.0</ele><time>2026-04-08T15:28:09Z</time></trkpt><trkpt lat="38.15094981486339" lon="15.430988854093767"><ele>547.6</ele><time>2026-04-08T15:28:10Z</time></trkpt><trkpt lat="38.15104281582624" lon="15.431022834178696"><ele>552.1999999999999</ele><time>2026-04-08T15:28:11Z</time></trkpt><trkpt lat="38.15107914090338" lon="15.431123142989065"><ele>556.8</ele><time>2026-04-08T15:28:12Z</time></trkpt><trkpt lat="38.15114671003515" lon="15.431168189225847"><ele>561.4</ele><time>2026-04-08T15:28:13Z</time></trkpt><trkpt lat="38.15121721993144" lon="15.43121519603214"><ele>566.0</ele><time>2026-04-08T15:28:14Z</time></trkpt><trkpt lat="38.15131481647516" lon="15.431105907335034"><ele>566.0</ele><time>2026-04-08T15:28:15Z</time></trkpt><trkpt lat="38.15141975590199" lon="15.431114234837423"><ele>566.0</ele><time>2026-04-08T15:28:17Z</time></trkpt><trkpt lat="38.15151409779632" lon="15.431154654619752"><ele>566.0</ele><time>2026-04-08T15:28:19Z</time></trkpt><trkpt lat="38.151583089204316" lon="15.431214205422359"><ele>566.0</ele><time>2026-04-08T15:28:20Z</time></trkpt><trkpt lat="38.15167344763515" lon="15.431287559300701"><ele>566.0</ele><time>2026-04-08T15:28:21Z</time></trkpt><trkpt lat="38.15169360280659" lon="15.431412893884662"><ele>570.0</ele><time>2026-04-08T15:28:22Z</time></trkpt><trkpt lat="38.151741890080366" lon="15.431478759904383"><ele>574.0</ele><time>2026-04-08T15:28:23Z</time></trkpt><trkpt lat="38.15183827600306" lon="15.431519648392884"><ele>578.0</ele><time>2026-04-08T15:28:24Z</time></trkpt><trkpt lat="38.15191019484493" lon="15.431622930809544"><ele>582.0</ele><time>2026-04-08T15:28:25Z</time></trkpt><trkpt lat="38.151982099907" lon="15.431714671805217"><ele>586.0</ele><time>2026-04-08T15:28:26Z</time></trkpt><trkpt lat="38.152060117607796" lon="15.431728001472248"><ele>586.0</ele><time>2026-04-08T15:28:27Z</time></trkpt><trkpt lat="38.15214772712786" lon="15.431688507640464"><ele>586.0</ele><time>2026-04-08T15:28:28Z</time></trkpt><trkpt lat="38.152247396579625" lon="15.431611056697164"><ele>586.0</ele><time>2026-04-08T15:28:29Z</time></trkpt><trkpt lat="38.15235316135967" lon="15.431658357088285"><ele>586.0</ele><time>2026-04-08T15:28:30Z</time></trkpt><trkpt lat="38.15242158089029" lon="15.431713220590893"><ele>586.0</ele><time>2026-04-08T15:28:31Z</time></trkpt><trkpt lat="38.1525025101384" lon="15.431833276437048"><ele>583.4</ele><time>2026-04-08T15:28:32Z</time></trkpt><trkpt lat="38.152606376691146" lon="15.431900923116356"><ele>580.8</ele><time>2026-04-08T15:28:33Z</time></trkpt><trkpt lat="38.152698537731574" lon="15.431952087905957"><ele>578.1999999999999</ele><time>2026-04-08T15:28:34Z</time></trkpt><trkpt lat="38.152788743115536" lon="15.43199847111242"><ele>575.6</ele><time>2026-04-08T15:28:35Z</time></trkpt><trkpt lat="38.15286498834432" lon="15.431975464300093"><ele>573.0</ele><time>2026-04-08T15:28:35.999Z</time></trkpt><trkpt lat="38.152989805813164" lon="15.431986371215219"><ele>573.0</ele><time>2026-04-08T15:28:36.999Z</time></trkpt><trkpt lat="38.153096664316045" lon="15.432055414857697"><ele>573.0</ele><time>2026-04-08T15:28:37.999Z</time></trkpt><trkpt lat="38.15317322599" lon="15.432129242179542"><ele>573.0</ele><time>2026-04-08T15:28:38.999Z</time></trkpt><trkpt lat="38.15323351317028" lon="15.43216485293987"><ele>573.0</ele><time>2026-04-08T15:28:39.999Z</time></trkpt><trkpt lat="38.15333393730443" lon="15.432209969333163"><ele>573.0</ele><time>2026-04-08T15:28:41.999Z</time></trkpt><trkpt lat="38.1534317140744" lon="15.432214674856109"><ele>575.8</ele><time>2026-04-08T15:28:43.999Z</time></trkpt><trkpt lat="38.153561181897" lon="15.43220086050533"><ele>578.5999999999999</ele><time>2026-04-08T15:28:44.999Z</time></trkpt><trkpt lat="38.1536985032065" lon="15.43221105014044"><ele>581.4000000000001</ele><time>2026-04-08T15:28:45.999Z</time></trkpt><trkpt lat="38.153781747908354" lon="15.432232618659548"><ele>584.2</ele><time>2026-04-08T15:28:46.999Z</time></trkpt><trkpt lat="38.15385747998765" lon="15.432240237182183"><ele>587.0</ele><time>2026-04-08T15:28:47.999Z</time></trkpt><trkpt lat="38.15394017613565" lon="15.432228683447434"><ele>587.0</ele><time>2026-04-08T15:28:48.999Z</time></trkpt><trkpt lat="38.15400454075956" lon="15.432203649854854"><ele>587.0</ele><time>2026-04-08T15:28:49.999Z</time></trkpt><trkpt lat="38.15408330883929" lon="15.43204309864372"><ele>587.0</ele><time>2026-04-08T15:28:51.999Z</time></trkpt><trkpt lat="38.15414781008121" lon="15.431973409373708"><ele>587.0</ele><time>2026-04-08T15:28:52.999Z</time></trkpt><trkpt lat="38.154204049548575" lon="15.43191050970076"><ele>587.0</ele><time>2026-04-08T15:28:53.999Z</time></trkpt><trkpt lat="38.15429832092352" lon="15.43182143254928"><ele>582.8000000000001</ele><time>2026-04-08T15:28:54.999Z</time></trkpt><trkpt lat="38.15437255219115" lon="15.431751827012977"><ele>578.6</ele><time>2026-04-08T15:28:55.999Z</time></trkpt><trkpt lat="38.15445060186637" lon="15.4316534928856"><ele>574.4000000000001</ele><time>2026-04-08T15:28:56.999Z</time></trkpt><trkpt lat="38.154506180977435" lon="15.43155997912116"><ele>570.2</ele><time>2026-04-08T15:28:57.999Z</time></trkpt><trkpt lat="38.154528818950325" lon="15.43145547318715"><ele>566.0</ele><time>2026-04-08T15:28:58.999Z</time></trkpt><trkpt lat="38.15456219472091" lon="15.431347909250649"><ele>567.0</ele><time>2026-04-08T15:28:59.999Z</time></trkpt><trkpt lat="38.15456786528294" lon="15.431223143368463"><ele>568.0</ele><time>2026-04-08T15:29:00.999Z</time></trkpt><trkpt lat="38.1545499805561" lon="15.43108934180967"><ele>569.0</ele><time>2026-04-08T15:29:01.999Z</time></trkpt><trkpt lat="38.15449376028021" lon="15.430977029757187"><ele>570.0</ele><time>2026-04-08T15:29:02.999Z</time></trkpt><trkpt lat="38.154447911963636" lon="15.430881862663226"><ele>571.0</ele><time>2026-04-08T15:29:03.999Z</time></trkpt><trkpt lat="38.15443194904084" lon="15.430766202784671"><ele>571.0</ele><time>2026-04-08T15:29:04.999Z</time></trkpt><trkpt lat="38.15442227391899" lon="15.43065328953781"><ele>571.0</ele><time>2026-04-08T15:29:05.999Z</time></trkpt><trkpt lat="38.15440913070994" lon="15.430573728117796"><ele>571.0</ele><time>2026-04-08T15:29:06.999Z</time></trkpt><trkpt lat="38.154352930796776" lon="15.430499605005666"><ele>571.0</ele><time>2026-04-08T15:29:07.999Z</time></trkpt><trkpt lat="38.1542677471252" lon="15.43047812714594"><ele>571.0</ele><time>2026-04-08T15:29:08.999Z</time></trkpt><trkpt lat="38.15419568931916" lon="15.430441174301667"><ele>571.0</ele><time>2026-04-08T15:29:09.999Z</time></trkpt><trkpt lat="38.154138150183734" lon="15.430394088274369"><ele>569.8333333333334</ele><time>2026-04-08T15:29:10.999Z</time></trkpt><trkpt lat="38.15409809081623" lon="15.430317472346314"><ele>568.6666666666667</ele><time>2026-04-08T15:29:11.999Z</time></trkpt><trkpt lat="38.154026579658286" lon="15.430223368307225"><ele>567.5</ele><time>2026-04-08T15:29:12.999Z</time></trkpt><trkpt lat="38.15397076097526" lon="15.430154080590762"><ele>566.3333333333334</ele><time>2026-04-08T15:29:13.999Z</time></trkpt><trkpt lat="38.15391603219654" lon="15.430017208957237"><ele>565.1666666666666</ele><time>2026-04-08T15:29:15.999Z</time></trkpt><trkpt lat="38.153943421439656" lon="15.429928397932366"><ele>564.0</ele><time>2026-04-08T15:29:16.999Z</time></trkpt><trkpt lat="38.153884049290895" lon="15.429820562906407"><ele>564.0</ele><time>2026-04-08T15:29:17.999Z</time></trkpt><trkpt lat="38.15379393386409" lon="15.429792094847153"><ele>564.0</ele><time>2026-04-08T15:29:18.999Z</time></trkpt><trkpt lat="38.15373052087005" lon="15.4297345731619"><ele>564.0</ele><time>2026-04-08T15:29:19.999Z</time></trkpt><trkpt lat="38.153676950926865" lon="15.429661499715504"><ele>564.0</ele><time>2026-04-08T15:29:20.999Z</time></trkpt><trkpt lat="38.15363330813258" lon="15.429583095089002"><ele>564.0</ele><time>2026-04-08T15:29:21.999Z</time></trkpt><trkpt lat="38.153595387299646" lon="15.429509481431099"><ele>564.0</ele><time>2026-04-08T15:29:22.999Z</time></trkpt><trkpt lat="38.15360059786407" lon="15.429375303945333"><ele>568.0</ele><time>2026-04-08T15:29:23.999Z</time></trkpt><trkpt lat="38.153607494415354" lon="15.429219098401536"><ele>572.0</ele><time>2026-04-08T15:29:24.999Z</time></trkpt><trkpt lat="38.153615730390335" lon="15.429077419130422"><ele>576.0</ele><time>2026-04-08T15:29:25.999Z</time></trkpt><trkpt lat="38.15361345576901" lon="15.428956450528384"><ele>580.0</ele><time>2026-04-08T15:29:26.999Z</time></trkpt><trkpt lat="38.1535862094436" lon="15.428847293016833"><ele>584.0</ele><time>2026-04-08T15:29:27.999Z</time></trkpt><trkpt lat="38.15354761621248" lon="15.428764353072694"><ele>583.5</ele><time>2026-04-08T15:29:28.999Z</time></trkpt><trkpt lat="38.15346444168942" lon="15.428662876169069"><ele>583.0</ele><time>2026-04-08T15:29:29.999Z</time></trkpt><trkpt lat="38.15336144574201" lon="15.42857230711429"><ele>582.5</ele><time>2026-04-08T15:29:30.999Z</time></trkpt><trkpt lat="38.15326208550598" lon="15.428458486136186"><ele>582.0</ele><time>2026-04-08T15:29:31.999Z</time></trkpt><trkpt lat="38.1531787905209" lon="15.428317405933633"><ele>582.0</ele><time>2026-04-08T15:29:32.999Z</time></trkpt><trkpt lat="38.15306114328945" lon="15.428217519653513"><ele>582.0</ele><time>2026-04-08T15:29:33.999Z</time></trkpt><trkpt lat="38.152950484333545" lon="15.428147851500224"><ele>582.0</ele><time>2026-04-08T15:29:34.998Z</time></trkpt><trkpt lat="38.152847000861556" lon="15.42806258697927"><ele>582.0</ele><time>2026-04-08T15:29:36Z</time></trkpt><trkpt lat="38.152781127867684" lon="15.427986984088799"><ele>586.5</ele><time>2026-04-08T15:29:37Z</time></trkpt><trkpt lat="38.15272313230624" lon="15.427903976814342"><ele>591.0</ele><time>2026-04-08T15:29:38Z</time></trkpt><trkpt lat="38.152693371554314" lon="15.427803411564742"><ele>595.5</ele><time>2026-04-08T15:29:39Z</time></trkpt><trkpt lat="38.152676373335666" lon="15.427660566149866"><ele>600.0</ele><time>2026-04-08T15:29:40Z</time></trkpt><trkpt lat="38.15264282951023" lon="15.427547468062642"><ele>604.5</ele><time>2026-04-08T15:29:41Z</time></trkpt><trkpt lat="38.15261906802119" lon="15.427466201878856"><ele>609.0</ele><time>2026-04-08T15:29:42Z</time></trkpt><trkpt lat="38.152548294804504" lon="15.42741666485514"><ele>609.0</ele><time>2026-04-08T15:29:43Z</time></trkpt><trkpt lat="38.152488656990556" lon="15.42735839710688"><ele>609.0</ele><time>2026-04-08T15:29:44Z</time></trkpt><trkpt lat="38.15245002424068" lon="15.42728675261617"><ele>609.0</ele><time>2026-04-08T15:29:45Z</time></trkpt><trkpt lat="38.15244836246998" lon="15.427165888949695"><ele>609.0</ele><time>2026-04-08T15:29:46Z</time></trkpt><trkpt lat="38.15243968876783" lon="15.427005719279489"><ele>609.0</ele><time>2026-04-08T15:29:47Z</time></trkpt><trkpt lat="38.15242912334545" lon="15.426857356194112"><ele>608.6</ele><time>2026-04-08T15:29:48Z</time></trkpt><trkpt lat="38.15241447836361" lon="15.426763831897977"><ele>608.2</ele><time>2026-04-08T15:29:49Z</time></trkpt><trkpt lat="38.152494699391866" lon="15.426708348800064"><ele>607.8000000000001</ele><time>2026-04-08T15:29:50Z</time></trkpt><trkpt lat="38.152581327926185" lon="15.426664524229064"><ele>607.4</ele><time>2026-04-08T15:29:51Z</time></trkpt><trkpt lat="38.15269817112299" lon="15.42665111466348"><ele>607.0</ele><time>2026-04-08T15:29:53Z</time></trkpt><trkpt lat="38.15278800831277" lon="15.42665006850189"><ele>607.0</ele><time>2026-04-08T15:29:54Z</time></trkpt><trkpt lat="38.15290431718913" lon="15.426615268749178"><ele>607.0</ele><time>2026-04-08T15:29:55Z</time></trkpt><trkpt lat="38.153022114434926" lon="15.426582666888702"><ele>607.0</ele><time>2026-04-08T15:29:56Z</time></trkpt><trkpt lat="38.15313376453911" lon="15.426567228369553"><ele>607.0</ele><time>2026-04-08T15:29:57Z</time></trkpt><trkpt lat="38.15323697096262" lon="15.426566828911495"><ele>606.4</ele><time>2026-04-08T15:29:58Z</time></trkpt><trkpt lat="38.15333424468749" lon="15.426616062347225"><ele>605.8000000000001</ele><time>2026-04-08T15:29:59Z</time></trkpt><trkpt lat="38.153429465182064" lon="15.426642452350002"><ele>605.2</ele><time>2026-04-08T15:30:00Z</time></trkpt><trkpt lat="38.1535050526599" lon="15.426735926586224"><ele>604.6</ele><time>2026-04-08T15:30:01Z</time></trkpt><trkpt lat="38.153624052000595" lon="15.426804182454587"><ele>604.0</ele><time>2026-04-08T15:30:02Z</time></trkpt><trkpt lat="38.153744996487404" lon="15.426899361306996"><ele>604.0</ele><time>2026-04-08T15:30:03Z</time></trkpt><trkpt lat="38.1538468949391" lon="15.426972069748826"><ele>604.0</ele><time>2026-04-08T15:30:04Z</time></trkpt><trkpt lat="38.15394593940676" lon="15.42701664426284"><ele>604.0</ele><time>2026-04-08T15:30:05Z</time></trkpt><trkpt lat="38.15404094394024" lon="15.427042293277875"><ele>604.0</ele><time>2026-04-08T15:30:06Z</time></trkpt><trkpt lat="38.1541333708479" lon="15.427077527768471"><ele>604.0</ele><time>2026-04-08T15:30:07Z</time></trkpt><trkpt lat="38.15419964749636" lon="15.427172026564193"><ele>608.0</ele><time>2026-04-08T15:30:08Z</time></trkpt><trkpt lat="38.154284372294754" lon="15.427219667145593"><ele>612.0</ele><time>2026-04-08T15:30:09Z</time></trkpt><trkpt lat="38.15436939425953" lon="15.42725854196116"><ele>616.0</ele><time>2026-04-08T15:30:10Z</time></trkpt><trkpt lat="38.15446149255278" lon="15.42722405913026"><ele>620.0</ele><time>2026-04-08T15:30:11Z</time></trkpt><trkpt lat="38.15455992603844" lon="15.427226840374038"><ele>624.0</ele><time>2026-04-08T15:30:12Z</time></trkpt><trkpt lat="38.15465569727595" lon="15.4272176075914"><ele>624.0</ele><time>2026-04-08T15:30:13Z</time></trkpt><trkpt lat="38.15475303091143" lon="15.427221740313552"><ele>624.0</ele><time>2026-04-08T15:30:14Z</time></trkpt><trkpt lat="38.15485223310388" lon="15.42724405891101"><ele>624.0</ele><time>2026-04-08T15:30:15Z</time></trkpt><trkpt lat="38.154959237094765" lon="15.427257114767228"><ele>624.0</ele><time>2026-04-08T15:30:16Z</time></trkpt><trkpt lat="38.15504904951033" lon="15.427209598108355"><ele>624.0</ele><time>2026-04-08T15:30:17Z</time></trkpt><trkpt lat="38.155148710939095" lon="15.427188195658761"><ele>623.8333333333334</ele><time>2026-04-08T15:30:18Z</time></trkpt><trkpt lat="38.15523741558428" lon="15.427207030152829"><ele>623.6666666666666</ele><time>2026-04-08T15:30:19Z</time></trkpt><trkpt lat="38.1553090708653" lon="15.427227815860231"><ele>623.5</ele><time>2026-04-08T15:30:20Z</time></trkpt><trkpt lat="38.15536892538847" lon="15.427308400862303"><ele>623.3333333333333</ele><time>2026-04-08T15:30:21Z</time></trkpt><trkpt lat="38.15544697658197" lon="15.427384149773886"><ele>623.1666666666666</ele><time>2026-04-08T15:30:22Z</time></trkpt><trkpt lat="38.15553045825502" lon="15.42742909627656"><ele>623.0</ele><time>2026-04-08T15:30:23Z</time></trkpt><trkpt lat="38.15560338574204" lon="15.427478259765392"><ele>623.0</ele><time>2026-04-08T15:30:24Z</time></trkpt><trkpt lat="38.15566832365536" lon="15.427471560738256"><ele>623.0</ele><time>2026-04-08T15:30:25Z</time></trkpt><trkpt lat="38.155729830743" lon="15.427432280969189"><ele>623.0</ele><time>2026-04-08T15:30:26Z</time></trkpt><trkpt lat="38.15584241520279" lon="15.427405933034542"><ele>623.0</ele><time>2026-04-08T15:30:27Z</time></trkpt><trkpt lat="38.15594340849314" lon="15.427374399131772"><ele>623.0</ele><time>2026-04-08T15:30:28Z</time></trkpt><trkpt lat="38.15604126533299" lon="15.427356824655364"><ele>620.6666666666666</ele><time>2026-04-08T15:30:29Z</time></trkpt><trkpt lat="38.1561161027697" lon="15.42737265004658"><ele>618.3333333333333</ele><time>2026-04-08T15:30:30Z</time></trkpt><trkpt lat="38.156173162525945" lon="15.42742594118057"><ele>616.0</ele><time>2026-04-08T15:30:31Z</time></trkpt><trkpt lat="38.15621454186266" lon="15.427510003816693"><ele>613.6666666666666</ele><time>2026-04-08T15:30:32Z</time></trkpt><trkpt lat="38.15623169129415" lon="15.427620750527739"><ele>611.3333333333334</ele><time>2026-04-08T15:30:33Z</time></trkpt><trkpt lat="38.156295310668256" lon="15.427691351827223"><ele>609.0</ele><time>2026-04-08T15:30:34Z</time></trkpt><trkpt lat="38.15634893799237" lon="15.42777029280661"><ele>609.0</ele><time>2026-04-08T15:30:35Z</time></trkpt><trkpt lat="38.15643835180683" lon="15.42785513268233"><ele>609.0</ele><time>2026-04-08T15:30:36Z</time></trkpt><trkpt lat="38.15652210294932" lon="15.427941895245283"><ele>609.0</ele><time>2026-04-08T15:30:37Z</time></trkpt><trkpt lat="38.15659205261064" lon="15.428006234488588"><ele>609.0</ele><time>2026-04-08T15:30:38Z</time></trkpt><trkpt lat="38.15669103283404" lon="15.428113900013637"><ele>609.0</ele><time>2026-04-08T15:30:40Z</time></trkpt><trkpt lat="38.156748170196856" lon="15.42818933917629"><ele>610.2</ele><time>2026-04-08T15:30:41Z</time></trkpt><trkpt lat="38.15681047860664" lon="15.42826201768861"><ele>611.4</ele><time>2026-04-08T15:30:42Z</time></trkpt><trkpt lat="38.15688463483078" lon="15.428349260482452"><ele>612.6</ele><time>2026-04-08T15:30:42.999Z</time></trkpt><trkpt lat="38.15696741451601" lon="15.42844706430235"><ele>613.8</ele><time>2026-04-08T15:30:43.999Z</time></trkpt><trkpt lat="38.15703342162642" lon="15.428526394775965"><ele>615.0</ele><time>2026-04-08T15:30:44.999Z</time></trkpt><trkpt lat="38.15711990387564" lon="15.428535733518494"><ele>615.0</ele><time>2026-04-08T15:30:45.999Z</time></trkpt><trkpt lat="38.15722696437124" lon="15.428513354382648"><ele>615.0</ele><time>2026-04-08T15:30:47.999Z</time></trkpt><trkpt lat="38.15727513308912" lon="15.428454032007979"><ele>615.0</ele><time>2026-04-08T15:30:48.999Z</time></trkpt><trkpt lat="38.15735208906929" lon="15.428374723569432"><ele>615.0</ele><time>2026-04-08T15:30:49.999Z</time></trkpt><trkpt lat="38.15744464883403" lon="15.428293818287225"><ele>615.0</ele><time>2026-04-08T15:30:50.999Z</time></trkpt><trkpt lat="38.15755553762058" lon="15.428215220108875"><ele>614.5</ele><time>2026-04-08T15:30:51.999Z</time></trkpt><trkpt lat="38.15766740807101" lon="15.42816716397331"><ele>614.0</ele><time>2026-04-08T15:30:52.999Z</time></trkpt><trkpt lat="38.15779927450911" lon="15.428130041625979"><ele>613.5</ele><time>2026-04-08T15:30:53.999Z</time></trkpt><trkpt lat="38.157934785352744" lon="15.42805833279191"><ele>613.0</ele><time>2026-04-08T15:30:54.999Z</time></trkpt><trkpt lat="38.158054715190374" lon="15.428011411428553"><ele>608.75</ele><time>2026-04-08T15:30:55.999Z</time></trkpt><trkpt lat="38.15816077853254" lon="15.42794993577796"><ele>604.5</ele><time>2026-04-08T15:30:56.999Z</time></trkpt><trkpt lat="38.15825042554928" lon="15.427866016371247"><ele>600.25</ele><time>2026-04-08T15:30:57.999Z</time></trkpt><trkpt lat="38.15832170417815" lon="15.42775091673065"><ele>596.0</ele><time>2026-04-08T15:30:58.999Z</time></trkpt><trkpt lat="38.158402972617964" lon="15.427626105920886"><ele>596.0</ele><time>2026-04-08T15:30:59.999Z</time></trkpt><trkpt lat="38.15848855158871" lon="15.42748388031695"><ele>596.0</ele><time>2026-04-08T15:31:00.999Z</time></trkpt><trkpt lat="38.158592022806275" lon="15.427336691189971"><ele>596.0</ele><time>2026-04-08T15:31:01.999Z</time></trkpt><trkpt lat="38.158696613691134" lon="15.427154632901967"><ele>597.0</ele><time>2026-04-08T15:31:02.999Z</time></trkpt><trkpt lat="38.158807318171355" lon="15.427018784856815"><ele>598.0</ele><time>2026-04-08T15:31:03.999Z</time></trkpt><trkpt lat="38.15890972362953" lon="15.426908106171254"><ele>599.0</ele><time>2026-04-08T15:31:04.999Z</time></trkpt><trkpt lat="38.15901517211727" lon="15.426823873827907"><ele>600.0</ele><time>2026-04-08T15:31:05.999Z</time></trkpt><trkpt lat="38.15912411695289" lon="15.426817357927058"><ele>600.0</ele><time>2026-04-08T15:31:06.999Z</time></trkpt><trkpt lat="38.15920854763574" lon="15.42677094552158"><ele>600.0</ele><time>2026-04-08T15:31:07.999Z</time></trkpt><trkpt lat="38.1592835460807" lon="15.426713516076841"><ele>600.0</ele><time>2026-04-08T15:31:08.999Z</time></trkpt><trkpt lat="38.159325123845065" lon="15.426615141130855"><ele>600.0</ele><time>2026-04-08T15:31:09.999Z</time></trkpt><trkpt lat="38.15931666726634" lon="15.426481593807113"><ele>600.0</ele><time>2026-04-08T15:31:10.999Z</time></trkpt><trkpt lat="38.159344234683324" lon="15.426321180852225"><ele>598.25</ele><time>2026-04-08T15:31:11.999Z</time></trkpt><trkpt lat="38.15932273943388" lon="15.426159121908944"><ele>596.5</ele><time>2026-04-08T15:31:12.999Z</time></trkpt><trkpt lat="38.159322562872" lon="15.425997166151559"><ele>594.75</ele><time>2026-04-08T15:31:13.999Z</time></trkpt><trkpt lat="38.159303729030164" lon="15.425869915372584"><ele>593.0</ele><time>2026-04-08T15:31:14.999Z</time></trkpt><trkpt lat="38.15930729255514" lon="15.42572460654305"><ele>593.0</ele><time>2026-04-08T15:31:15.999Z</time></trkpt><trkpt lat="38.15930004339736" lon="15.4256007974702"><ele>593.0</ele><time>2026-04-08T15:31:16.999Z</time></trkpt><trkpt lat="38.159300135809566" lon="15.425501865040484"><ele>593.0</ele><time>2026-04-08T15:31:17.999Z</time></trkpt><trkpt lat="38.15927694275564" lon="15.425423139684057"><ele>593.0</ele><time>2026-04-08T15:31:18.999Z</time></trkpt><trkpt lat="38.15919934028516" lon="15.4254041500091"><ele>593.0</ele><time>2026-04-08T15:31:19.999Z</time></trkpt><trkpt lat="38.159119683137625" lon="15.425391348097364"><ele>593.0</ele><time>2026-04-08T15:31:20.999Z</time></trkpt><trkpt lat="38.15903463959656" lon="15.425361820669375"><ele>588.8333333333333</ele><time>2026-04-08T15:31:21.999Z</time></trkpt><trkpt lat="38.158953683669225" lon="15.425315566536886"><ele>584.6666666666666</ele><time>2026-04-08T15:31:22.999Z</time></trkpt><trkpt lat="38.15891592632569" lon="15.425241288719718"><ele>580.5</ele><time>2026-04-08T15:31:23.999Z</time></trkpt><trkpt lat="38.15888583282075" lon="15.425128907537111"><ele>576.3333333333334</ele><time>2026-04-08T15:31:24.999Z</time></trkpt><trkpt lat="38.15886626762883" lon="15.425025820870415"><ele>572.1666666666667</ele><time>2026-04-08T15:31:25.999Z</time></trkpt><trkpt lat="38.15880500517623" lon="15.424933895276084"><ele>568.0</ele><time>2026-04-08T15:31:26.999Z</time></trkpt><trkpt lat="38.158743027888455" lon="15.424845478781966"><ele>568.0</ele><time>2026-04-08T15:31:27.999Z</time></trkpt><trkpt lat="38.158677564233045" lon="15.424773718042651"><ele>568.0</ele><time>2026-04-08T15:31:28.999Z</time></trkpt><trkpt lat="38.158620008745686" lon="15.424706234710907"><ele>568.0</ele><time>2026-04-08T15:31:29.999Z</time></trkpt><trkpt lat="38.158564040454564" lon="15.42459523999225"><ele>568.0</ele><time>2026-04-08T15:31:30.999Z</time></trkpt><trkpt lat="38.15852422848439" lon="15.424467230940797"><ele>568.0</ele><time>2026-04-08T15:31:31.999Z</time></trkpt><trkpt lat="38.15849250057011" lon="15.424337435558154"><ele>567.1999999999999</ele><time>2026-04-08T15:31:32.999Z</time></trkpt><trkpt lat="38.15845841760411" lon="15.424214900185806"><ele>566.4</ele><time>2026-04-08T15:31:33.999Z</time></trkpt><trkpt lat="38.15842575467275" lon="15.424073929119787"><ele>565.5999999999999</ele><time>2026-04-08T15:31:34.999Z</time></trkpt><trkpt lat="38.15839150191514" lon="15.423942845382903"><ele>564.8</ele><time>2026-04-08T15:31:35.999Z</time></trkpt><trkpt lat="38.1583647765391" lon="15.423831726128592"><ele>564.0</ele><time>2026-04-08T15:31:36.999Z</time></trkpt><trkpt lat="38.15833112486664" lon="15.423721921166159"><ele>564.0</ele><time>2026-04-08T15:31:37.999Z</time></trkpt><trkpt lat="38.15829387009968" lon="15.423610429348223"><ele>564.0</ele><time>2026-04-08T15:31:38.999Z</time></trkpt><trkpt lat="38.15825780369157" lon="15.423524408135272"><ele>564.0</ele><time>2026-04-08T15:31:39.999Z</time></trkpt><trkpt lat="38.15825857637172" lon="15.423378116338565"><ele>564.0</ele><time>2026-04-08T15:31:42Z</time></trkpt><trkpt lat="38.158331445648116" lon="15.423340820346349"><ele>564.0</ele><time>2026-04-08T15:31:44Z</time></trkpt><trkpt lat="38.158403553419376" lon="15.423342326323068"><ele>564.0</ele><time>2026-04-08T15:31:46Z</time></trkpt><trkpt lat="38.158470565485594" lon="15.423389196250598"><ele>564.0</ele><time>2026-04-08T15:31:49Z</time></trkpt><trkpt lat="38.15854000166039" lon="15.423388886153319"><ele>564.0</ele><time>2026-04-08T15:31:53Z</time></trkpt><trkpt lat="38.158656874706566" lon="15.423301400488057"><ele>564.0</ele><time>2026-04-08T15:32:50.999Z</time></trkpt><trkpt lat="38.158717274137025" lon="15.423222486050118"><ele>564.0</ele><time>2026-04-08T15:32:52.999Z</time></trkpt><trkpt lat="38.15872713289075" lon="15.423057899345295"><ele>564.0</ele><time>2026-04-08T15:32:54.999Z</time></trkpt><trkpt lat="38.158709386067265" lon="15.422962212231823"><ele>561.3333333333334</ele><time>2026-04-08T15:32:55.999Z</time></trkpt><trkpt lat="38.15867400170038" lon="15.42285552842854"><ele>558.6666666666666</ele><time>2026-04-08T15:32:56.999Z</time></trkpt><trkpt lat="38.15862580729386" lon="15.422755218932535"><ele>556.0</ele><time>2026-04-08T15:32:57.999Z</time></trkpt><trkpt lat="38.15859412361261" lon="15.422664267040071"><ele>553.3333333333333</ele><time>2026-04-08T15:32:58.999Z</time></trkpt><trkpt lat="38.15852969523179" lon="15.422590113489193"><ele>550.6666666666666</ele><time>2026-04-08T15:32:59.999Z</time></trkpt><trkpt lat="38.15848105911835" lon="15.422523681910382"><ele>548.0</ele><time>2026-04-08T15:33:00.999Z</time></trkpt><trkpt lat="38.15843792068956" lon="15.422448886651942"><ele>548.0</ele><time>2026-04-08T15:33:01.999Z</time></trkpt><trkpt lat="38.15840104104088" lon="15.422377997663938"><ele>548.0</ele><time>2026-04-08T15:33:02.999Z</time></trkpt><trkpt lat="38.158375395737565" lon="15.422303817199797"><ele>548.0</ele><time>2026-04-08T15:33:03.999Z</time></trkpt><trkpt lat="38.15832349962693" lon="15.42224317593866"><ele>548.0</ele><time>2026-04-08T15:33:04.999Z</time></trkpt><trkpt lat="38.15829312502618" lon="15.422149872326775"><ele>548.0</ele><time>2026-04-08T15:33:05.999Z</time></trkpt><trkpt lat="38.158319994769684" lon="15.422028370533502"><ele>548.0</ele><time>2026-04-08T15:33:06.999Z</time></trkpt><trkpt lat="38.15839156466066" lon="15.421941048093476"><ele>544.6</ele><time>2026-04-08T15:33:07.999Z</time></trkpt><trkpt lat="38.1584519448749" lon="15.421893581658148"><ele>541.1999999999999</ele><time>2026-04-08T15:33:08.999Z</time></trkpt><trkpt lat="38.15856368847126" lon="15.421812596111785"><ele>537.8</ele><time>2026-04-08T15:33:10.999Z</time></trkpt><trkpt lat="38.15869433715677" lon="15.42173273665626"><ele>534.4</ele><time>2026-04-08T15:33:12.999Z</time></trkpt><trkpt lat="38.15877795975711" lon="15.421684512757416"><ele>531.0</ele><time>2026-04-08T15:33:13.999Z</time></trkpt><trkpt lat="38.15884266343829" lon="15.421647971329623"><ele>531.0</ele><time>2026-04-08T15:33:14.999Z</time></trkpt><trkpt lat="38.15890567699858" lon="15.421618713229142"><ele>531.0</ele><time>2026-04-08T15:33:15.999Z</time></trkpt><trkpt lat="38.15898494985116" lon="15.421575261432752"><ele>531.0</ele><time>2026-04-08T15:33:16.999Z</time></trkpt><trkpt lat="38.159077401211384" lon="15.421527624337546"><ele>531.0</ele><time>2026-04-08T15:33:17.999Z</time></trkpt><trkpt lat="38.15919134977582" lon="15.421494949048862"><ele>531.0</ele><time>2026-04-08T15:33:18.999Z</time></trkpt><trkpt lat="38.15926773023617" lon="15.421443446341748"><ele>531.0</ele><time>2026-04-08T15:33:19.999Z</time></trkpt><trkpt lat="38.15933958157061" lon="15.421374392102052"><ele>531.0</ele><time>2026-04-08T15:33:21.999Z</time></trkpt><trkpt lat="38.15927327531753" lon="15.421381719391627"><ele>531.0</ele><time>2026-04-08T15:33:25.999Z</time></trkpt><trkpt lat="38.15916536932081" lon="15.421323360138043"><ele>531.0</ele><time>2026-04-08T15:33:31.999Z</time></trkpt><trkpt lat="38.15910458631545" lon="15.421371133832292"><ele>531.0</ele><time>2026-04-08T15:33:33.999Z</time></trkpt><trkpt lat="38.158543123065805" lon="15.421461049062199"><ele>531.0</ele><time>2026-04-08T15:33:36.999Z</time></trkpt><trkpt lat="38.15843758808553" lon="15.421454617230816"><ele>531.0</ele><time>2026-04-08T15:33:38.999Z</time></trkpt><trkpt lat="38.15841485373364" lon="15.421159339175817"><ele>531.0</ele><time>2026-04-08T15:33:40.999Z</time></trkpt><trkpt lat="38.158309918749936" lon="15.421098836740162"><ele>526.2</ele><time>2026-04-08T15:33:43.999Z</time></trkpt><trkpt lat="38.15820816853295" lon="15.421017676975993"><ele>521.4000000000001</ele><time>2026-04-08T15:33:44.999Z</time></trkpt><trkpt lat="38.15816686188721" lon="15.420940847105278"><ele>516.6</ele><time>2026-04-08T15:33:45.999Z</time></trkpt><trkpt lat="38.15815284562056" lon="15.420765908674072"><ele>511.8</ele><time>2026-04-08T15:33:46.999Z</time></trkpt><trkpt lat="38.15809692050646" lon="15.420703339897917"><ele>507.0</ele><time>2026-04-08T15:33:48Z</time></trkpt><trkpt lat="38.15803899088562" lon="15.420629878839815"><ele>504.5</ele><time>2026-04-08T15:33:49Z</time></trkpt><trkpt lat="38.15797976826607" lon="15.420544382894713"><ele>502.0</ele><time>2026-04-08T15:33:50Z</time></trkpt><trkpt lat="38.15784006939045" lon="15.420316437595153"><ele>499.5</ele><time>2026-04-08T15:33:52Z</time></trkpt><trkpt lat="38.15780165063524" lon="15.42022660162246"><ele>497.0</ele><time>2026-04-08T15:33:54Z</time></trkpt><trkpt lat="38.15789759043973" lon="15.42008819544731"><ele>484.0</ele><time>2026-04-08T15:33:58Z</time></trkpt><trkpt lat="38.15868555735718" lon="15.420225076141758"><ele>484.0</ele><time>2026-04-08T15:33:59Z</time></trkpt><trkpt lat="38.158783177422926" lon="15.420190384381057"><ele>484.0</ele><time>2026-04-08T15:34:00Z</time></trkpt><trkpt lat="38.15888972051699" lon="15.420149805561191"><ele>484.0</ele><time>2026-04-08T15:34:01Z</time></trkpt><trkpt lat="38.159014767607516" lon="15.420082967414311"><ele>484.0</ele><time>2026-04-08T15:34:02Z</time></trkpt><trkpt lat="38.159126619381" lon="15.420003446473837"><ele>484.0</ele><time>2026-04-08T15:34:03Z</time></trkpt><trkpt lat="38.15921418747321" lon="15.419919764357275"><ele>484.0</ele><time>2026-04-08T15:34:04Z</time></trkpt><trkpt lat="38.15929015534061" lon="15.41982564056809"><ele>484.0</ele><time>2026-04-08T15:34:05Z</time></trkpt><trkpt lat="38.15942688030485" lon="15.419691057536266"><ele>484.0</ele><time>2026-04-08T15:34:06Z</time></trkpt><trkpt lat="38.15957432646264" lon="15.419666540952655"><ele>484.0</ele><time>2026-04-08T15:34:07Z</time></trkpt><trkpt lat="38.159639202842556" lon="15.419651296309237"><ele>484.0</ele><time>2026-04-08T15:34:08Z</time></trkpt><trkpt lat="38.15972030651842" lon="15.419614165612332"><ele>484.0</ele><time>2026-04-08T15:34:09Z</time></trkpt><trkpt lat="38.15980897821617" lon="15.419566562327205"><ele>484.0</ele><time>2026-04-08T15:34:10Z</time></trkpt><trkpt lat="38.15988534872131" lon="15.419493060334212"><ele>484.0</ele><time>2026-04-08T15:34:11Z</time></trkpt><trkpt lat="38.15999110543168" lon="15.419426815758879"><ele>482.1666666666667</ele><time>2026-04-08T15:34:12Z</time></trkpt><trkpt lat="38.16007588675604" lon="15.41938599535288"><ele>480.33333333333337</ele><time>2026-04-08T15:34:13Z</time></trkpt><trkpt lat="38.16014610542942" lon="15.419351648371547"><ele>478.5</ele><time>2026-04-08T15:34:14Z</time></trkpt><trkpt lat="38.16021354060825" lon="15.419316794354776"><ele>476.66666666666663</ele><time>2026-04-08T15:34:15Z</time></trkpt><trkpt lat="38.16027974235302" lon="15.41928181830739"><ele>474.8333333333333</ele><time>2026-04-08T15:34:16Z</time></trkpt><trkpt lat="38.160376373207725" lon="15.419226554955003"><ele>473.0</ele><time>2026-04-08T15:34:18Z</time></trkpt><trkpt lat="38.16029820505049" lon="15.419183908531208"><ele>472.99999999999994</ele><time>2026-04-08T15:34:22Z</time></trkpt><trkpt lat="38.16021550445705" lon="15.419208618466266"><ele>473.0</ele><time>2026-04-08T15:34:23Z</time></trkpt><trkpt lat="38.160142258687735" lon="15.419251880375876"><ele>473.0</ele><time>2026-04-08T15:34:24Z</time></trkpt><trkpt lat="38.16005304165174" lon="15.41926860040699"><ele>473.0</ele><time>2026-04-08T15:34:25Z</time></trkpt><trkpt lat="38.15997607939025" lon="15.419274855297987"><ele>472.99999999999994</ele><time>2026-04-08T15:34:26Z</time></trkpt><trkpt lat="38.1598960660256" lon="15.419269593360244"><ele>473.0</ele><time>2026-04-08T15:34:27Z</time></trkpt><trkpt lat="38.15983361214739" lon="15.419257652443937"><ele>470.4</ele><time>2026-04-08T15:34:28Z</time></trkpt><trkpt lat="38.15973142307857" lon="15.419307852290977"><ele>467.79999999999995</ele><time>2026-04-08T15:34:29Z</time></trkpt><trkpt lat="38.15966839461347" lon="15.419352142493329"><ele>465.2</ele><time>2026-04-08T15:34:30Z</time></trkpt><trkpt lat="38.15955802679341" lon="15.419380993327023"><ele>462.6</ele><time>2026-04-08T15:34:32Z</time></trkpt><trkpt lat="38.15949107237155" lon="15.419262862159721"><ele>460.0</ele><time>2026-04-08T15:34:34Z</time></trkpt><trkpt lat="38.159428391416455" lon="15.41923646961016"><ele>460.0</ele><time>2026-04-08T15:34:35Z</time></trkpt><trkpt lat="38.15928486399498" lon="15.419308610233523"><ele>460.0</ele><time>2026-04-08T15:34:36Z</time></trkpt><trkpt lat="38.15915815984039" lon="15.419319737727113"><ele>460.0</ele><time>2026-04-08T15:34:38Z</time></trkpt><trkpt lat="38.159082569680436" lon="15.419299159083765"><ele>460.0</ele><time>2026-04-08T15:34:39Z</time></trkpt><trkpt lat="38.158998541860335" lon="15.419230693278879"><ele>460.33333333333337</ele><time>2026-04-08T15:34:40Z</time></trkpt><trkpt lat="38.15890171220282" lon="15.41923861619559"><ele>460.6666666666667</ele><time>2026-04-08T15:34:41Z</time></trkpt><trkpt lat="38.15880871651102" lon="15.419264407513095"><ele>461.0</ele><time>2026-04-08T15:34:42Z</time></trkpt><trkpt lat="38.158740885669275" lon="15.419273063087616"><ele>461.33333333333337</ele><time>2026-04-08T15:34:43Z</time></trkpt><trkpt lat="38.15863495544768" lon="15.41924576809897"><ele>461.6666666666667</ele><time>2026-04-08T15:34:45Z</time></trkpt><trkpt lat="38.15857146352195" lon="15.419225116178781"><ele>462.0</ele><time>2026-04-08T15:34:46Z</time></trkpt><trkpt lat="38.15850739646158" lon="15.419204895575048"><ele>462.0</ele><time>2026-04-08T15:34:47Z</time></trkpt><trkpt lat="38.15842400216505" lon="15.419172575726371"><ele>462.0</ele><time>2026-04-08T15:34:49Z</time></trkpt><trkpt lat="38.158363916965016" lon="15.41906739679551"><ele>462.0</ele><time>2026-04-08T15:34:51Z</time></trkpt><trkpt lat="38.15831838894326" lon="15.418964882923918"><ele>462.0</ele><time>2026-04-08T15:34:52Z</time></trkpt><trkpt lat="38.158276449747575" lon="15.41890206394053"><ele>462.0</ele><time>2026-04-08T15:34:53Z</time></trkpt><trkpt lat="38.15824176002706" lon="15.418804336894107"><ele>462.0</ele><time>2026-04-08T15:34:54Z</time></trkpt><trkpt lat="38.158205275971525" lon="15.418738262270596"><ele>462.1666666666667</ele><time>2026-04-08T15:34:54.999Z</time></trkpt><trkpt lat="38.158151364103965" lon="15.418655499899213"><ele>462.33333333333337</ele><time>2026-04-08T15:34:55.999Z</time></trkpt><trkpt lat="38.15809190647506" lon="15.41857154830408"><ele>462.5</ele><time>2026-04-08T15:34:56.999Z</time></trkpt><trkpt lat="38.15804049625829" lon="15.418501493100933"><ele>462.6666666666667</ele><time>2026-04-08T15:34:57.999Z</time></trkpt><trkpt lat="38.15798667184242" lon="15.41842814883949"><ele>462.83333333333337</ele><time>2026-04-08T15:34:58.999Z</time></trkpt><trkpt lat="38.1579129306557" lon="15.418339399897764"><ele>463.0</ele><time>2026-04-08T15:34:59.999Z</time></trkpt><trkpt lat="38.15785156772989" lon="15.418250873189253"><ele>463.00000000000006</ele><time>2026-04-08T15:35:00.999Z</time></trkpt><trkpt lat="38.15779499423396" lon="15.418154204899002"><ele>463.0</ele><time>2026-04-08T15:35:01.999Z</time></trkpt><trkpt lat="38.157745522197644" lon="15.418087326885004"><ele>463.0</ele><time>2026-04-08T15:35:02.999Z</time></trkpt><trkpt lat="38.157701899678436" lon="15.418027251319947"><ele>463.0</ele><time>2026-04-08T15:35:03.999Z</time></trkpt><trkpt lat="38.15766243208773" lon="15.417950193161294"><ele>463.00000000000006</ele><time>2026-04-08T15:35:04.999Z</time></trkpt><trkpt lat="38.157607957025704" lon="15.417824409167654"><ele>463.0</ele><time>2026-04-08T15:35:06.999Z</time></trkpt><trkpt lat="38.15756289397781" lon="15.41772399577727"><ele>459.75</ele><time>2026-04-08T15:35:07.999Z</time></trkpt><trkpt lat="38.15752360392828" lon="15.417553715677847"><ele>456.5</ele><time>2026-04-08T15:35:09.999Z</time></trkpt><trkpt lat="38.15749920564052" lon="15.417447752683545"><ele>453.25</ele><time>2026-04-08T15:35:10.999Z</time></trkpt><trkpt lat="38.157497930984476" lon="15.417282462050915"><ele>450.0</ele><time>2026-04-08T15:35:11.999Z</time></trkpt><trkpt lat="38.15750086115661" lon="15.417120604266255"><ele>447.6</ele><time>2026-04-08T15:35:12.999Z</time></trkpt><trkpt lat="38.15749762119669" lon="15.416996726220397"><ele>445.2</ele><time>2026-04-08T15:35:13.999Z</time></trkpt><trkpt lat="38.15748358271312" lon="15.4168812763441"><ele>442.79999999999995</ele><time>2026-04-08T15:35:14.999Z</time></trkpt><trkpt lat="38.157460887669444" lon="15.416775423554276"><ele>440.4</ele><time>2026-04-08T15:35:16.999Z</time></trkpt><trkpt lat="38.15741351809647" lon="15.416598347239955"><ele>438.0</ele><time>2026-04-08T15:35:18.999Z</time></trkpt><trkpt lat="38.15736322941573" lon="15.416534805075631"><ele>436.5</ele><time>2026-04-08T15:35:19.999Z</time></trkpt><trkpt lat="38.15728915617807" lon="15.416455439801437"><ele>435.0</ele><time>2026-04-08T15:35:20.999Z</time></trkpt><trkpt lat="38.157236760223505" lon="15.416279295150495"><ele>433.5</ele><time>2026-04-08T15:35:21.999Z</time></trkpt><trkpt lat="38.15716129303642" lon="15.416157826310114"><ele>432.0</ele><time>2026-04-08T15:35:22.999Z</time></trkpt><trkpt lat="38.15712417447023" lon="15.416025441506944"><ele>431.1666666666667</ele><time>2026-04-08T15:35:23.999Z</time></trkpt><trkpt lat="38.15710006656258" lon="15.415897645160355"><ele>430.33333333333337</ele><time>2026-04-08T15:35:24.999Z</time></trkpt><trkpt lat="38.157077677321205" lon="15.4158039000307"><ele>429.5</ele><time>2026-04-08T15:35:25.999Z</time></trkpt><trkpt lat="38.15701547548842" lon="15.415716016772341"><ele>428.6666666666667</ele><time>2026-04-08T15:35:26.999Z</time></trkpt><trkpt lat="38.15695292832864" lon="15.415677252212152"><ele>427.83333333333337</ele><time>2026-04-08T15:35:27.999Z</time></trkpt><trkpt lat="38.1568915463064" lon="15.41562618152165"><ele>427.0</ele><time>2026-04-08T15:35:28.999Z</time></trkpt><trkpt lat="38.15685946508555" lon="15.415449644343855"><ele>426.20000000000005</ele><time>2026-04-08T15:35:30.999Z</time></trkpt><trkpt lat="38.15690345739208" lon="15.415319680118834"><ele>425.40000000000003</ele><time>2026-04-08T15:35:31.999Z</time></trkpt><trkpt lat="38.15697313962011" lon="15.415210511114674"><ele>424.6</ele><time>2026-04-08T15:35:32.999Z</time></trkpt><trkpt lat="38.15698379741875" lon="15.415090764189692"><ele>423.79999999999995</ele><time>2026-04-08T15:35:33.999Z</time></trkpt><trkpt lat="38.1569731127955" lon="15.414985491993143"><ele>423.0</ele><time>2026-04-08T15:35:34.999Z</time></trkpt><trkpt lat="38.156953655204916" lon="15.41487886895987"><ele>423.0</ele><time>2026-04-08T15:35:35.999Z</time></trkpt><trkpt lat="38.15689442370226" lon="15.414697306466262"><ele>423.0</ele><time>2026-04-08T15:35:36.999Z</time></trkpt><trkpt lat="38.15683833839703" lon="15.414523932696815"><ele>423.0</ele><time>2026-04-08T15:35:37.999Z</time></trkpt><trkpt lat="38.15679586264372" lon="15.414365323675538"><ele>423.0</ele><time>2026-04-08T15:35:38.999Z</time></trkpt><trkpt lat="38.15673522653934" lon="15.41423602809723"><ele>425.4</ele><time>2026-04-08T15:35:39.999Z</time></trkpt><trkpt lat="38.15667367331421" lon="15.41410788199709"><ele>427.79999999999995</ele><time>2026-04-08T15:35:40.999Z</time></trkpt><trkpt lat="38.156607236290945" lon="15.413969736904534"><ele>430.2</ele><time>2026-04-08T15:35:41.999Z</time></trkpt><trkpt lat="38.15658259048489" lon="15.413803065049764"><ele>432.6</ele><time>2026-04-08T15:35:42.999Z</time></trkpt><trkpt lat="38.15657357318194" lon="15.413719550516443"><ele>435.0</ele><time>2026-04-08T15:35:43.999Z</time></trkpt><trkpt lat="38.15655665900698" lon="15.413634063999005"><ele>427.75</ele><time>2026-04-08T15:35:44.999Z</time></trkpt><trkpt lat="38.1565040828434" lon="15.413547671822426"><ele>420.5</ele><time>2026-04-08T15:35:45.999Z</time></trkpt><trkpt lat="38.1564162037335" lon="15.41342323625371"><ele>413.25</ele><time>2026-04-08T15:35:46.999Z</time></trkpt><trkpt lat="38.15635202163331" lon="15.413260275300074"><ele>406.0</ele><time>2026-04-08T15:35:47.999Z</time></trkpt><trkpt lat="38.15627307631416" lon="15.413104707581732"><ele>410.0</ele><time>2026-04-08T15:35:48.999Z</time></trkpt><trkpt lat="38.15617048976811" lon="15.412893071738734"><ele>414.0</ele><time>2026-04-08T15:35:49.999Z</time></trkpt><trkpt lat="38.15612234374489" lon="15.412778502767997"><ele>418.0</ele><time>2026-04-08T15:35:50.999Z</time></trkpt><trkpt lat="38.15608088278993" lon="15.412689342011104"><ele>422.0</ele><time>2026-04-08T15:35:51.999Z</time></trkpt><trkpt lat="38.15603351120362" lon="15.412614569178498"><ele>421.99999999999994</ele><time>2026-04-08T15:35:53Z</time></trkpt><trkpt lat="38.155937083249434" lon="15.412542419492873"><ele>422.0</ele><time>2026-04-08T15:35:54Z</time></trkpt><trkpt lat="38.155858491295916" lon="15.412478871606737"><ele>422.0</ele><time>2026-04-08T15:35:55Z</time></trkpt><trkpt lat="38.155806128264615" lon="15.412429456138709"><ele>422.0</ele><time>2026-04-08T15:35:56Z</time></trkpt><trkpt lat="38.15575216156745" lon="15.4123418553426"><ele>421.99999999999994</ele><time>2026-04-08T15:35:57Z</time></trkpt><trkpt lat="38.155742820183136" lon="15.412235340551995"><ele>422.0</ele><time>2026-04-08T15:35:58Z</time></trkpt><trkpt lat="38.15570613186812" lon="15.41208134060127"><ele>419.66666666666663</ele><time>2026-04-08T15:35:59Z</time></trkpt><trkpt lat="38.155669966863464" lon="15.41197547460552"><ele>417.3333333333333</ele><time>2026-04-08T15:36:00Z</time></trkpt><trkpt lat="38.155644449126385" lon="15.411884596576442"><ele>415.0</ele><time>2026-04-08T15:36:01Z</time></trkpt><trkpt lat="38.155616564272485" lon="15.411779419160856"><ele>412.66666666666663</ele><time>2026-04-08T15:36:02Z</time></trkpt><trkpt lat="38.15555016102944" lon="15.411713710338033"><ele>410.3333333333333</ele><time>2026-04-08T15:36:03Z</time></trkpt><trkpt lat="38.15546091196503" lon="15.411636137030223"><ele>408.0</ele><time>2026-04-08T15:36:04Z</time></trkpt><trkpt lat="38.1553376839012" lon="15.411579354893062"><ele>408.0</ele><time>2026-04-08T15:36:05Z</time></trkpt><trkpt lat="38.15518961158538" lon="15.41152167560633"><ele>408.0</ele><time>2026-04-08T15:36:06Z</time></trkpt><trkpt lat="38.155047205904" lon="15.411444195429862"><ele>408.0</ele><time>2026-04-08T15:36:07Z</time></trkpt><trkpt lat="38.15489086180165" lon="15.411403605132802"><ele>408.0</ele><time>2026-04-08T15:36:08Z</time></trkpt><trkpt lat="38.15474690948859" lon="15.411390899483893"><ele>408.0</ele><time>2026-04-08T15:36:09Z</time></trkpt><trkpt lat="38.15462078638774" lon="15.411365294838545"><ele>408.0</ele><time>2026-04-08T15:36:10Z</time></trkpt><trkpt lat="38.154512633536285" lon="15.411336036779979"><ele>408.0</ele><time>2026-04-08T15:36:11Z</time></trkpt><trkpt lat="38.15441834640857" lon="15.41132160108528"><ele>408.0</ele><time>2026-04-08T15:36:12Z</time></trkpt><trkpt lat="38.15432616215376" lon="15.411311178674323"><ele>408.0</ele><time>2026-04-08T15:36:13Z</time></trkpt><trkpt lat="38.15425238547621" lon="15.41127318255356"><ele>408.0</ele><time>2026-04-08T15:36:15Z</time></trkpt><trkpt lat="38.154214869451465" lon="15.41111926085594"><ele>408.0</ele><time>2026-04-08T15:36:17Z</time></trkpt><trkpt lat="38.154259492648876" lon="15.410988693265514"><ele>408.0</ele><time>2026-04-08T15:36:18Z</time></trkpt><trkpt lat="38.15430278479958" lon="15.410853104157807"><ele>408.0</ele><time>2026-04-08T15:36:19Z</time></trkpt><trkpt lat="38.15432795517232" lon="15.41072857209124"><ele>408.0</ele><time>2026-04-08T15:36:20Z</time></trkpt><trkpt lat="38.15430644848579" lon="15.410599496562877"><ele>408.0</ele><time>2026-04-08T15:36:22Z</time></trkpt><trkpt lat="38.15426681675203" lon="15.410530119560187"><ele>408.0</ele><time>2026-04-08T15:36:23Z</time></trkpt><trkpt lat="38.154196883575246" lon="15.410445754486894"><ele>408.0</ele><time>2026-04-08T15:36:24Z</time></trkpt><trkpt lat="38.15413214637769" lon="15.410358954660628"><ele>404.59999999999997</ele><time>2026-04-08T15:36:25Z</time></trkpt><trkpt lat="38.154089027376315" lon="15.410257275283012"><ele>401.2</ele><time>2026-04-08T15:36:26Z</time></trkpt><trkpt lat="38.15404127554682" lon="15.410179120740468"><ele>397.8</ele><time>2026-04-08T15:36:27Z</time></trkpt><trkpt lat="38.15396145042823" lon="15.410112297944949"><ele>394.4</ele><time>2026-04-08T15:36:28Z</time></trkpt><trkpt lat="38.15386877043466" lon="15.4100573913805"><ele>391.0</ele><time>2026-04-08T15:36:29Z</time></trkpt><trkpt lat="38.15376242106793" lon="15.410008137787427"><ele>391.0</ele><time>2026-04-08T15:36:30Z</time></trkpt><trkpt lat="38.15367152186818" lon="15.409924685488438"><ele>391.0</ele><time>2026-04-08T15:36:31Z</time></trkpt><trkpt lat="38.153591721834175" lon="15.409854612502174"><ele>391.0</ele><time>2026-04-08T15:36:32Z</time></trkpt><trkpt lat="38.15352139924824" lon="15.409784151418828"><ele>391.0</ele><time>2026-04-08T15:36:33Z</time></trkpt><trkpt lat="38.15345741423061" lon="15.409696887877734"><ele>391.0</ele><time>2026-04-08T15:36:34Z</time></trkpt><trkpt lat="38.153384442709545" lon="15.409643233112025"><ele>389.83333333333337</ele><time>2026-04-08T15:36:35Z</time></trkpt><trkpt lat="38.15331168012483" lon="15.409620372860891"><ele>388.6666666666667</ele><time>2026-04-08T15:36:36Z</time></trkpt><trkpt lat="38.15322471320997" lon="15.409628007572946"><ele>387.5</ele><time>2026-04-08T15:36:37Z</time></trkpt><trkpt lat="38.153144286003105" lon="15.409628191166686"><ele>386.33333333333337</ele><time>2026-04-08T15:36:38Z</time></trkpt><trkpt lat="38.15306495115656" lon="15.409629801472882"><ele>385.1666666666667</ele><time>2026-04-08T15:36:40Z</time></trkpt><trkpt lat="38.15310762839614" lon="15.409513654167082"><ele>384.0</ele><time>2026-04-08T15:36:41Z</time></trkpt><trkpt lat="38.15312779535739" lon="15.409388790445625"><ele>384.0</ele><time>2026-04-08T15:36:42Z</time></trkpt><trkpt lat="38.153219690527685" lon="15.409288258331626"><ele>384.0</ele><time>2026-04-08T15:36:43Z</time></trkpt><trkpt lat="38.1533358190623" lon="15.4092503398672"><ele>384.0</ele><time>2026-04-08T15:36:44Z</time></trkpt><trkpt lat="38.15338201415918" lon="15.409188012887194"><ele>384.0</ele><time>2026-04-08T15:36:45Z</time></trkpt><trkpt lat="38.153445842972666" lon="15.409181735929113"><ele>384.0</ele><time>2026-04-08T15:36:46Z</time></trkpt><trkpt lat="38.153425579978475" lon="15.409087195067332"><ele>384.0</ele><time>2026-04-08T15:36:48Z</time></trkpt><trkpt lat="38.15333698030783" lon="15.409016925400127"><ele>384.0</ele><time>2026-04-08T15:36:51Z</time></trkpt><trkpt lat="38.15326844179763" lon="15.408978496049183"><ele>384.0</ele><time>2026-04-08T15:36:52Z</time></trkpt><trkpt lat="38.153192378807674" lon="15.408977357306263"><ele>384.0</ele><time>2026-04-08T15:36:53Z</time></trkpt><trkpt lat="38.15308618523086" lon="15.409032204651124"><ele>384.0</ele><time>2026-04-08T15:36:54Z</time></trkpt><trkpt lat="38.15299448781525" lon="15.409094831831725"><ele>381.6</ele><time>2026-04-08T15:36:55Z</time></trkpt><trkpt lat="38.15290611070839" lon="15.409155305703491"><ele>379.2</ele><time>2026-04-08T15:36:56Z</time></trkpt><trkpt lat="38.1527988427251" lon="15.409227953362818"><ele>376.8</ele><time>2026-04-08T15:36:57Z</time></trkpt><trkpt lat="38.15272278669231" lon="15.409283439692462"><ele>374.40000000000003</ele><time>2026-04-08T15:36:58Z</time></trkpt><trkpt lat="38.152639348141754" lon="15.409327081310746"><ele>372.0</ele><time>2026-04-08T15:36:59Z</time></trkpt><trkpt lat="38.152559538967225" lon="15.40935702852315"><ele>372.0</ele><time>2026-04-08T15:36:59.999Z</time></trkpt><trkpt lat="38.152471292882666" lon="15.409390533700437"><ele>372.0</ele><time>2026-04-08T15:37:00.999Z</time></trkpt><trkpt lat="38.15254723579243" lon="15.409289346338293"><ele>372.0</ele><time>2026-04-08T15:37:04.999Z</time></trkpt><trkpt lat="38.15261835202472" lon="15.409203513506984"><ele>372.0</ele><time>2026-04-08T15:37:05.999Z</time></trkpt><trkpt lat="38.152706958669725" lon="15.409083937533712"><ele>372.0</ele><time>2026-04-08T15:37:06.999Z</time></trkpt><trkpt lat="38.15280923219714" lon="15.408964231548321"><ele>372.0</ele><time>2026-04-08T15:37:07.999Z</time></trkpt><trkpt lat="38.15291761054036" lon="15.408857710507927"><ele>372.0</ele><time>2026-04-08T15:37:08.999Z</time></trkpt><trkpt lat="38.15300197962307" lon="15.408752341785563"><ele>372.0</ele><time>2026-04-08T15:37:09.999Z</time></trkpt><trkpt lat="38.15309454307447" lon="15.408631126307323"><ele>372.0</ele><time>2026-04-08T15:37:10.999Z</time></trkpt><trkpt lat="38.15318447323412" lon="15.408517847276936"><ele>370.0</ele><time>2026-04-08T15:37:11.999Z</time></trkpt><trkpt lat="38.15327028320112" lon="15.408412810870761"><ele>368.0</ele><time>2026-04-08T15:37:12.999Z</time></trkpt><trkpt lat="38.15335455848615" lon="15.408315056064328"><ele>366.0</ele><time>2026-04-08T15:37:13.999Z</time></trkpt><trkpt lat="38.15344980362447" lon="15.40822585010556"><ele>364.0</ele><time>2026-04-08T15:37:14.999Z</time></trkpt><trkpt lat="38.15352401586732" lon="15.408146260385394"><ele>362.0</ele><time>2026-04-08T15:37:15.999Z</time></trkpt><trkpt lat="38.15359308823568" lon="15.408030722888412"><ele>357.6</ele><time>2026-04-08T15:37:16.999Z</time></trkpt><trkpt lat="38.15366884739451" lon="15.40794961534694"><ele>353.20000000000005</ele><time>2026-04-08T15:37:17.999Z</time></trkpt><trkpt lat="38.15375811530279" lon="15.407866284353778"><ele>348.8</ele><time>2026-04-08T15:37:18.999Z</time></trkpt><trkpt lat="38.1538488713545" lon="15.407803030799373"><ele>344.4</ele><time>2026-04-08T15:37:19.999Z</time></trkpt><trkpt lat="38.15392266487239" lon="15.407733573598023"><ele>340.0</ele><time>2026-04-08T15:37:20.999Z</time></trkpt><trkpt lat="38.15398343948128" lon="15.40767023380953"><ele>340.0</ele><time>2026-04-08T15:37:21.999Z</time></trkpt><trkpt lat="38.1539960456146" lon="15.407575073174925"><ele>340.0</ele><time>2026-04-08T15:37:22.999Z</time></trkpt><trkpt lat="38.154031283658085" lon="15.407463665565647"><ele>340.0</ele><time>2026-04-08T15:37:23.999Z</time></trkpt><trkpt lat="38.154057613616686" lon="15.40735018044555"><ele>340.0</ele><time>2026-04-08T15:37:24.999Z</time></trkpt><trkpt lat="38.154063546850004" lon="15.407269847859352"><ele>340.0</ele><time>2026-04-08T15:37:25.999Z</time></trkpt><trkpt lat="38.15397825747852" lon="15.40719400583685"><ele>340.0</ele><time>2026-04-08T15:37:28.999Z</time></trkpt><trkpt lat="38.153878669790046" lon="15.4071864773633"><ele>340.0</ele><time>2026-04-08T15:37:29.999Z</time></trkpt><trkpt lat="38.153777497890125" lon="15.407194490230943"><ele>340.0</ele><time>2026-04-08T15:37:30.999Z</time></trkpt><trkpt lat="38.15369935712357" lon="15.407213570897559"><ele>340.0</ele><time>2026-04-08T15:37:31.999Z</time></trkpt><trkpt lat="38.15363706611775" lon="15.407253209613053"><ele>340.0</ele><time>2026-04-08T15:37:32.999Z</time></trkpt><trkpt lat="38.153573373251135" lon="15.407325186117065"><ele>340.0</ele><time>2026-04-08T15:37:33.999Z</time></trkpt><trkpt lat="38.15348774601065" lon="15.407365862506646"><ele>340.0</ele><time>2026-04-08T15:37:35.999Z</time></trkpt><trkpt lat="38.153391559939486" lon="15.407372677587405"><ele>340.0</ele><time>2026-04-08T15:37:36.999Z</time></trkpt><trkpt lat="38.15329044180362" lon="15.407378335882482"><ele>340.0</ele><time>2026-04-08T15:37:37.999Z</time></trkpt><trkpt lat="38.15320106376848" lon="15.40738328394154"><ele>340.0</ele><time>2026-04-08T15:37:38.999Z</time></trkpt><trkpt lat="38.15312649857761" lon="15.407413821737979"><ele>340.0</ele><time>2026-04-08T15:37:40.999Z</time></trkpt><trkpt lat="38.153187836706465" lon="15.407273700782975"><ele>340.0</ele><time>2026-04-08T15:37:43.999Z</time></trkpt><trkpt lat="38.15326853111933" lon="15.407228179215318"><ele>340.0</ele><time>2026-04-08T15:37:44.999Z</time></trkpt><trkpt lat="38.1533576732414" lon="15.407189526876895"><ele>340.0</ele><time>2026-04-08T15:37:45.999Z</time></trkpt><trkpt lat="38.15342874027179" lon="15.40712527781917"><ele>340.0</ele><time>2026-04-08T15:37:46.999Z</time></trkpt><trkpt lat="38.153492769610885" lon="15.407063440737165"><ele>340.0</ele><time>2026-04-08T15:37:47.999Z</time></trkpt><trkpt lat="38.15354581597808" lon="15.406970434920757"><ele>340.0</ele><time>2026-04-08T15:37:48.999Z</time></trkpt><trkpt lat="38.15356866093456" lon="15.40687326588137"><ele>340.0</ele><time>2026-04-08T15:37:49.999Z</time></trkpt><trkpt lat="38.15357782006241" lon="15.406769711648241"><ele>334.0</ele><time>2026-04-08T15:37:50.999Z</time></trkpt><trkpt lat="38.153580087671806" lon="15.406645753197132"><ele>328.0</ele><time>2026-04-08T15:37:51.999Z</time></trkpt><trkpt lat="38.15357518178486" lon="15.406481441804361"><ele>322.0</ele><time>2026-04-08T15:37:52.999Z</time></trkpt><trkpt lat="38.15355595215635" lon="15.406300031153469"><ele>316.0</ele><time>2026-04-08T15:37:53.999Z</time></trkpt><trkpt lat="38.15353742276265" lon="15.406148702162039"><ele>315.40000000000003</ele><time>2026-04-08T15:37:54.999Z</time></trkpt><trkpt lat="38.15352562034314" lon="15.406009341930217"><ele>314.8</ele><time>2026-04-08T15:37:55.999Z</time></trkpt><trkpt lat="38.1535128930627" lon="15.405890971880305"><ele>314.20000000000005</ele><time>2026-04-08T15:37:56.999Z</time></trkpt><trkpt lat="38.15348344010544" lon="15.405769989644194"><ele>313.6</ele><time>2026-04-08T15:37:57.999Z</time></trkpt><trkpt lat="38.15345346183056" lon="15.405640906544955"><ele>313.0</ele><time>2026-04-08T15:37:59Z</time></trkpt><trkpt lat="38.153436235569544" lon="15.405512673524017"><ele>314.4</ele><time>2026-04-08T15:38:00Z</time></trkpt><trkpt lat="38.153444933409745" lon="15.40537763245442"><ele>315.8</ele><time>2026-04-08T15:38:01Z</time></trkpt><trkpt lat="38.153501030188885" lon="15.405251335138933"><ele>317.2</ele><time>2026-04-08T15:38:02Z</time></trkpt><trkpt lat="38.15356712583674" lon="15.405174870315966"><ele>318.6</ele><time>2026-04-08T15:38:03Z</time></trkpt><trkpt lat="38.15358887028606" lon="15.405090145277692"><ele>320.0</ele><time>2026-04-08T15:38:04Z</time></trkpt><trkpt lat="38.15364416262932" lon="15.40494387893674"><ele>320.0</ele><time>2026-04-08T15:38:06Z</time></trkpt><trkpt lat="38.1536748081919" lon="15.40483158906863"><ele>320.0</ele><time>2026-04-08T15:38:07Z</time></trkpt><trkpt lat="38.153707799754926" lon="15.404720478753157"><ele>320.0</ele><time>2026-04-08T15:38:08Z</time></trkpt><trkpt lat="38.15374710099698" lon="15.40461179686254"><ele>320.0</ele><time>2026-04-08T15:38:09Z</time></trkpt><trkpt lat="38.15377957540238" lon="15.40451824292214"><ele>320.0</ele><time>2026-04-08T15:38:10Z</time></trkpt><trkpt lat="38.15375360055019" lon="15.404436828111571"><ele>320.0</ele><time>2026-04-08T15:38:12Z</time></trkpt><trkpt lat="38.15364619335387" lon="15.404335109126972"><ele>321.0</ele><time>2026-04-08T15:38:14Z</time></trkpt><trkpt lat="38.15355947852463" lon="15.40427018936572"><ele>322.0</ele><time>2026-04-08T15:38:15Z</time></trkpt><trkpt lat="38.15349397244661" lon="15.404223435456922"><ele>323.0</ele><time>2026-04-08T15:38:16Z</time></trkpt><trkpt lat="38.15345276719039" lon="15.404125230105295"><ele>324.0</ele><time>2026-04-08T15:38:17Z</time></trkpt><trkpt lat="38.15341323100666" lon="15.404010762454396"><ele>325.0</ele><time>2026-04-08T15:38:18Z</time></trkpt><trkpt lat="38.15338711465126" lon="15.403875117595367"><ele>324.0</ele><time>2026-04-08T15:38:19Z</time></trkpt><trkpt lat="38.15339664114898" lon="15.403730676890179"><ele>323.0</ele><time>2026-04-08T15:38:20Z</time></trkpt><trkpt lat="38.15341116010536" lon="15.403548659748225"><ele>322.0</ele><time>2026-04-08T15:38:21Z</time></trkpt><trkpt lat="38.15342456598503" lon="15.403381725833315"><ele>321.0</ele><time>2026-04-08T15:38:22Z</time></trkpt><trkpt lat="38.15342903099163" lon="15.403202196533366"><ele>321.0</ele><time>2026-04-08T15:38:23Z</time></trkpt><trkpt lat="38.1534432819616" lon="15.403058577927103"><ele>321.0</ele><time>2026-04-08T15:38:24Z</time></trkpt><trkpt lat="38.153442834280376" lon="15.402946377790292"><ele>321.0</ele><time>2026-04-08T15:38:25Z</time></trkpt><trkpt lat="38.15342710569613" lon="15.402834002186966"><ele>321.0</ele><time>2026-04-08T15:38:26Z</time></trkpt><trkpt lat="38.15341161625165" lon="15.402708727407164"><ele>321.0</ele><time>2026-04-08T15:38:27Z</time></trkpt><trkpt lat="38.15343309048058" lon="15.402575653804073"><ele>322.4</ele><time>2026-04-08T15:38:28Z</time></trkpt><trkpt lat="38.15345432254271" lon="15.402464881251586"><ele>323.8</ele><time>2026-04-08T15:38:29Z</time></trkpt><trkpt lat="38.15348128888192" lon="15.40238302294439"><ele>325.2</ele><time>2026-04-08T15:38:30Z</time></trkpt><trkpt lat="38.153658567413466" lon="15.402390109723896"><ele>326.59999999999997</ele><time>2026-04-08T15:38:32Z</time></trkpt><trkpt lat="38.1537366879897" lon="15.40234917442993"><ele>328.0</ele><time>2026-04-08T15:38:33Z</time></trkpt><trkpt lat="38.15379749498561" lon="15.40226594182796"><ele>328.0</ele><time>2026-04-08T15:38:34Z</time></trkpt><trkpt lat="38.15384796443425" lon="15.402210142156637"><ele>328.0</ele><time>2026-04-08T15:38:35Z</time></trkpt><trkpt lat="38.153900750154975" lon="15.4021418608275"><ele>328.0</ele><time>2026-04-08T15:38:36Z</time></trkpt><trkpt lat="38.15395502123328" lon="15.40205100125831"><ele>328.0</ele><time>2026-04-08T15:38:38Z</time></trkpt><trkpt lat="38.154003616929444" lon="15.401975756290335"><ele>328.0</ele><time>2026-04-08T15:38:39Z</time></trkpt><trkpt lat="38.15403297466247" lon="15.40187509352858"><ele>328.0</ele><time>2026-04-08T15:38:41Z</time></trkpt><trkpt lat="38.1540536228721" lon="15.401715098916288"><ele>321.66666666666663</ele><time>2026-04-08T15:38:43Z</time></trkpt><trkpt lat="38.15405909999996" lon="15.401625283901215"><ele>315.3333333333333</ele><time>2026-04-08T15:38:44Z</time></trkpt><trkpt lat="38.15406217112879" lon="15.401541545806289"><ele>309.0</ele><time>2026-04-08T15:38:45Z</time></trkpt><trkpt lat="38.15406401486847" lon="15.401426272268585"><ele>302.6666666666667</ele><time>2026-04-08T15:38:46Z</time></trkpt><trkpt lat="38.154069606161" lon="15.401323069291488"><ele>296.33333333333337</ele><time>2026-04-08T15:38:47Z</time></trkpt><trkpt lat="38.15407439882227" lon="15.40123219683555"><ele>290.0</ele><time>2026-04-08T15:38:48Z</time></trkpt><trkpt lat="38.15407556773069" lon="15.401103718251417"><ele>289.0</ele><time>2026-04-08T15:38:49Z</time></trkpt><trkpt lat="38.15408941124875" lon="15.400996264024645"><ele>288.0</ele><time>2026-04-08T15:38:50Z</time></trkpt><trkpt lat="38.15410236116565" lon="15.400862332893343"><ele>287.0</ele><time>2026-04-08T15:38:51Z</time></trkpt><trkpt lat="38.15412126041821" lon="15.400755739018948"><ele>286.0</ele><time>2026-04-08T15:38:52Z</time></trkpt><trkpt lat="38.15417243241482" lon="15.400609665259626"><ele>285.0</ele><time>2026-04-08T15:38:53Z</time></trkpt><trkpt lat="38.154230223713824" lon="15.400527631963039"><ele>282.4</ele><time>2026-04-08T15:38:54Z</time></trkpt><trkpt lat="38.154276800664086" lon="15.40044629377764"><ele>279.8</ele><time>2026-04-08T15:38:55Z</time></trkpt><trkpt lat="38.15429890955207" lon="15.400356956993786"><ele>277.2</ele><time>2026-04-08T15:38:57Z</time></trkpt><trkpt lat="38.15424288870272" lon="15.400253964381765"><ele>274.6</ele><time>2026-04-08T15:38:59Z</time></trkpt><trkpt lat="38.154141483552614" lon="15.400103359703266"><ele>272.0</ele><time>2026-04-08T15:39:01Z</time></trkpt><trkpt lat="38.154068221685584" lon="15.400039514892622"><ele>274.4</ele><time>2026-04-08T15:39:02Z</time></trkpt><trkpt lat="38.15401738793277" lon="15.399938312833427"><ele>276.79999999999995</ele><time>2026-04-08T15:39:03Z</time></trkpt><trkpt lat="38.15392352494469" lon="15.399840641144529"><ele>279.2</ele><time>2026-04-08T15:39:04.999Z</time></trkpt><trkpt lat="38.153827575552214" lon="15.399740209778718"><ele>281.59999999999997</ele><time>2026-04-08T15:39:06.999Z</time></trkpt><trkpt lat="38.15375316682899" lon="15.399715849695903"><ele>284.0</ele><time>2026-04-08T15:39:07.999Z</time></trkpt><trkpt lat="38.153685676480215" lon="15.399669734584494"><ele>274.75</ele><time>2026-04-08T15:39:09.999Z</time></trkpt><trkpt lat="38.153590424535146" lon="15.399654962020078"><ele>265.5</ele><time>2026-04-08T15:39:10.999Z</time></trkpt><trkpt lat="38.15376896235619" lon="15.399512772752997"><ele>256.25</ele><time>2026-04-08T15:39:11.999Z</time></trkpt><trkpt lat="38.15388842610994" lon="15.39954853123134"><ele>247.0</ele><time>2026-04-08T15:39:13.999Z</time></trkpt><trkpt lat="38.15396554230338" lon="15.399578763302916"><ele>246.83333333333331</ele><time>2026-04-08T15:39:14.999Z</time></trkpt><trkpt lat="38.154047501287096" lon="15.39962276282717"><ele>246.66666666666666</ele><time>2026-04-08T15:39:15.999Z</time></trkpt><trkpt lat="38.1541288699469" lon="15.399660333653136"><ele>246.5</ele><time>2026-04-08T15:39:16.999Z</time></trkpt><trkpt lat="38.15417398821286" lon="15.399723360575177"><ele>246.33333333333331</ele><time>2026-04-08T15:39:17.999Z</time></trkpt><trkpt lat="38.15423059267608" lon="15.399759364266108"><ele>246.16666666666666</ele><time>2026-04-08T15:39:18.999Z</time></trkpt><trkpt lat="38.154322746650145" lon="15.399817981066725"><ele>246.0</ele><time>2026-04-08T15:39:20.999Z</time></trkpt><trkpt lat="38.15438125870122" lon="15.39985519834045"><ele>246.0</ele><time>2026-04-08T15:39:21.999Z</time></trkpt><trkpt lat="38.154471444645075" lon="15.399684430682367"><ele>246.0</ele><time>2026-04-08T15:39:24.999Z</time></trkpt><trkpt lat="38.15441874187467" lon="15.399612014256133"><ele>246.0</ele><time>2026-04-08T15:39:28.999Z</time></trkpt><trkpt lat="38.154159625027994" lon="15.399298774974428"><ele>246.0</ele><time>2026-04-08T15:39:32.999Z</time></trkpt><trkpt lat="38.15408525293883" lon="15.39923419473822"><ele>246.00000000000003</ele><time>2026-04-08T15:39:33.999Z</time></trkpt><trkpt lat="38.15395371216979" lon="15.399225118412572"><ele>246.00000000000003</ele><time>2026-04-08T15:39:34.999Z</time></trkpt><trkpt lat="38.153858089137024" lon="15.399224870517799"><ele>246.0</ele><time>2026-04-08T15:39:35.999Z</time></trkpt><trkpt lat="38.153742777392594" lon="15.399218596428346"><ele>246.0</ele><time>2026-04-08T15:39:37.999Z</time></trkpt><trkpt lat="38.153706289954236" lon="15.399140259273572"><ele>246.0</ele><time>2026-04-08T15:39:39.999Z</time></trkpt><trkpt lat="38.15373360027164" lon="15.399064807846765"><ele>246.0</ele><time>2026-04-08T15:39:40.999Z</time></trkpt><trkpt lat="38.15394984303129" lon="15.399094360464543"><ele>246.0</ele><time>2026-04-08T15:39:42.999Z</time></trkpt><trkpt lat="38.1540687339605" lon="15.398970790490058"><ele>246.0</ele><time>2026-04-08T15:39:44.999Z</time></trkpt><trkpt lat="38.154129818302174" lon="15.398834048173986"><ele>242.20000000000002</ele><time>2026-04-08T15:39:46.999Z</time></trkpt><trkpt lat="38.15418345015267" lon="15.398719727734917"><ele>238.40000000000003</ele><time>2026-04-08T15:39:47.999Z</time></trkpt><trkpt lat="38.15421401201852" lon="15.398612838341935"><ele>234.6</ele><time>2026-04-08T15:39:48.999Z</time></trkpt><trkpt lat="38.154235031814" lon="15.39849644127013"><ele>230.8</ele><time>2026-04-08T15:39:49.999Z</time></trkpt><trkpt lat="38.15425236922098" lon="15.39837171570083"><ele>227.0</ele><time>2026-04-08T15:39:50.999Z</time></trkpt><trkpt lat="38.154277416489265" lon="15.398263783513048"><ele>227.00000000000003</ele><time>2026-04-08T15:39:51.999Z</time></trkpt><trkpt lat="38.15434900688682" lon="15.398192926264086"><ele>227.0</ele><time>2026-04-08T15:39:53.999Z</time></trkpt><trkpt lat="38.15442638572807" lon="15.398258410227982"><ele>227.0</ele><time>2026-04-08T15:39:54.999Z</time></trkpt><trkpt lat="38.15448704846857" lon="15.398330830146731"><ele>227.0</ele><time>2026-04-08T15:39:56.999Z</time></trkpt><trkpt lat="38.154589985852304" lon="15.398343421236062"><ele>227.00000000000003</ele><time>2026-04-08T15:39:58.999Z</time></trkpt><trkpt lat="38.154662864313906" lon="15.398373070280996"><ele>227.0</ele><time>2026-04-08T15:39:59.999Z</time></trkpt><trkpt lat="38.15470699586596" lon="15.398433332717932"><ele>227.00000000000003</ele><time>2026-04-08T15:40:00.999Z</time></trkpt><trkpt lat="38.154767600505075" lon="15.398482767873027"><ele>227.0</ele><time>2026-04-08T15:40:01.999Z</time></trkpt><trkpt lat="38.154834383983854" lon="15.398524816185716"><ele>227.0</ele><time>2026-04-08T15:40:02.998Z</time></trkpt><trkpt lat="38.154925821008995" lon="15.398587618683138"><ele>227.0</ele><time>2026-04-08T15:40:05Z</time></trkpt><trkpt lat="38.15497317956634" lon="15.398530939773602"><ele>227.00000000000003</ele><time>2026-04-08T15:40:06Z</time></trkpt><trkpt lat="38.15503974485364" lon="15.39848635945164"><ele>227.0</ele><time>2026-04-08T15:40:07Z</time></trkpt><trkpt lat="38.15511909736102" lon="15.398470613110538"><ele>226.66666666666669</ele><time>2026-04-08T15:40:08Z</time></trkpt><trkpt lat="38.155223697862866" lon="15.398484165025078"><ele>226.33333333333334</ele><time>2026-04-08T15:40:10Z</time></trkpt><trkpt lat="38.155299359630874" lon="15.398502968298438"><ele>226.0</ele><time>2026-04-08T15:40:11Z</time></trkpt><trkpt lat="38.155369727230664" lon="15.39846387855932"><ele>225.66666666666669</ele><time>2026-04-08T15:40:12Z</time></trkpt><trkpt lat="38.15543676351916" lon="15.398417564677455"><ele>225.33333333333334</ele><time>2026-04-08T15:40:13Z</time></trkpt><trkpt lat="38.1555153865416" lon="15.398352040922402"><ele>225.0</ele><time>2026-04-08T15:40:14Z</time></trkpt><trkpt lat="38.15558515779974" lon="15.398305161216523"><ele>225.0</ele><time>2026-04-08T15:40:15Z</time></trkpt><trkpt lat="38.155646131344746" lon="15.398264192825025"><ele>225.0</ele><time>2026-04-08T15:40:16Z</time></trkpt><trkpt lat="38.155732122074234" lon="15.398213751230307"><ele>225.0</ele><time>2026-04-08T15:40:17Z</time></trkpt><trkpt lat="38.15579365012772" lon="15.398192037553274"><ele>225.0</ele><time>2026-04-08T15:40:18Z</time></trkpt><trkpt lat="38.15582516484236" lon="15.3980912893731"><ele>225.0</ele><time>2026-04-08T15:40:21Z</time></trkpt><trkpt lat="38.155817234154135" lon="15.398006030640795"><ele>225.0</ele><time>2026-04-08T15:40:22Z</time></trkpt><trkpt lat="38.1557719303598" lon="15.397917129538204"><ele>223.66666666666666</ele><time>2026-04-08T15:40:23Z</time></trkpt><trkpt lat="38.15574682761719" lon="15.397810895739273"><ele>222.33333333333331</ele><time>2026-04-08T15:40:24Z</time></trkpt><trkpt lat="38.15572003680599" lon="15.397712794096032"><ele>221.0</ele><time>2026-04-08T15:40:25Z</time></trkpt><trkpt lat="38.155698272708605" lon="15.39760147824905"><ele>219.66666666666666</ele><time>2026-04-08T15:40:26Z</time></trkpt><trkpt lat="38.15568478519878" lon="15.397508990410552"><ele>218.33333333333331</ele><time>2026-04-08T15:40:27Z</time></trkpt><trkpt lat="38.155660563925146" lon="15.397425692689943"><ele>217.0</ele><time>2026-04-08T15:40:28Z</time></trkpt><trkpt lat="38.15563348351468" lon="15.397332922559626"><ele>216.99999999999997</ele><time>2026-04-08T15:40:29Z</time></trkpt><trkpt lat="38.15561458561822" lon="15.397227263292542"><ele>217.0</ele><time>2026-04-08T15:40:30Z</time></trkpt><trkpt lat="38.15560866528702" lon="15.397122755294207"><ele>217.0</ele><time>2026-04-08T15:40:31Z</time></trkpt><trkpt lat="38.15560990040892" lon="15.397014457819317"><ele>217.0</ele><time>2026-04-08T15:40:32Z</time></trkpt><trkpt lat="38.15561135601728" lon="15.396913677223498"><ele>216.99999999999997</ele><time>2026-04-08T15:40:33Z</time></trkpt><trkpt lat="38.155604133270145" lon="15.396819458160103"><ele>217.0</ele><time>2026-04-08T15:40:34Z</time></trkpt><trkpt lat="38.15559328182437" lon="15.396726399701747"><ele>214.66666666666666</ele><time>2026-04-08T15:40:35Z</time></trkpt><trkpt lat="38.155570089841724" lon="15.396648492045983"><ele>212.33333333333331</ele><time>2026-04-08T15:40:36Z</time></trkpt><trkpt lat="38.15552564643652" lon="15.396572331160627"><ele>210.0</ele><time>2026-04-08T15:40:37Z</time></trkpt><trkpt lat="38.155477542472624" lon="15.396516667850012"><ele>207.66666666666669</ele><time>2026-04-08T15:40:38Z</time></trkpt><trkpt lat="38.15544076556973" lon="15.396432588329812"><ele>205.33333333333334</ele><time>2026-04-08T15:40:39Z</time></trkpt><trkpt lat="38.15539731219636" lon="15.396364642872983"><ele>203.0</ele><time>2026-04-08T15:40:41Z</time></trkpt><trkpt lat="38.15525914816723" lon="15.39649908107535"><ele>203.0</ele><time>2026-04-08T15:40:43Z</time></trkpt><trkpt lat="38.155172944783956" lon="15.396592648150039"><ele>203.0</ele><time>2026-04-08T15:40:44Z</time></trkpt><trkpt lat="38.1550825840412" lon="15.396691767786312"><ele>203.0</ele><time>2026-04-08T15:40:45Z</time></trkpt><trkpt lat="38.15500675128888" lon="15.396802129772398"><ele>203.0</ele><time>2026-04-08T15:40:46Z</time></trkpt><trkpt lat="38.15494160532367" lon="15.396842005415886"><ele>203.0</ele><time>2026-04-08T15:40:47Z</time></trkpt><trkpt lat="38.15481806748674" lon="15.396882842518528"><ele>203.16666666666669</ele><time>2026-04-08T15:40:49Z</time></trkpt><trkpt lat="38.15475350325042" lon="15.39695239390462"><ele>203.33333333333334</ele><time>2026-04-08T15:40:50Z</time></trkpt><trkpt lat="38.15468907113103" lon="15.397034260750637"><ele>203.5</ele><time>2026-04-08T15:40:51Z</time></trkpt><trkpt lat="38.154607837513055" lon="15.39709427805681"><ele>203.66666666666669</ele><time>2026-04-08T15:40:52Z</time></trkpt><trkpt lat="38.15453732862167" lon="15.397152155812648"><ele>203.83333333333334</ele><time>2026-04-08T15:40:53Z</time></trkpt><trkpt lat="38.15448431696722" lon="15.397246613673818"><ele>204.0</ele><time>2026-04-08T15:40:54Z</time></trkpt><trkpt lat="38.154440075950234" lon="15.397334411738209"><ele>204.0</ele><time>2026-04-08T15:40:55Z</time></trkpt><trkpt lat="38.15438760146002" lon="15.397406517913398"><ele>204.0</ele><time>2026-04-08T15:40:56Z</time></trkpt><trkpt lat="38.15430121746417" lon="15.397442787414661"><ele>204.0</ele><time>2026-04-08T15:40:57Z</time></trkpt><trkpt lat="38.15422209334669" lon="15.397459352246637"><ele>204.0</ele><time>2026-04-08T15:40:58Z</time></trkpt><trkpt lat="38.154145013242555" lon="15.397468746914448"><ele>204.0</ele><time>2026-04-08T15:40:59Z</time></trkpt><trkpt lat="38.15403666918725" lon="15.397512290303414"><ele>204.0</ele><time>2026-04-08T15:41:01Z</time></trkpt><trkpt lat="38.153923205393625" lon="15.397561931535863"><ele>199.6</ele><time>2026-04-08T15:41:03Z</time></trkpt><trkpt lat="38.15379579667044" lon="15.397553290772972"><ele>195.2</ele><time>2026-04-08T15:41:05Z</time></trkpt><trkpt lat="38.15369875604234" lon="15.397498975975488"><ele>190.79999999999998</ele><time>2026-04-08T15:41:07Z</time></trkpt><trkpt lat="38.15365771904966" lon="15.397380445427205"><ele>186.39999999999998</ele><time>2026-04-08T15:41:09Z</time></trkpt><trkpt lat="38.15359105446296" lon="15.397294627777592"><ele>182.0</ele><time>2026-04-08T15:41:10.999Z</time></trkpt><trkpt lat="38.15359202051887" lon="15.397194273083706"><ele>179.5</ele><time>2026-04-08T15:41:12.999Z</time></trkpt><trkpt lat="38.15361433993055" lon="15.397099093030043"><ele>177.0</ele><time>2026-04-08T15:41:13.999Z</time></trkpt><trkpt lat="38.15364710082838" lon="15.397010094644195"><ele>174.5</ele><time>2026-04-08T15:41:14.999Z</time></trkpt><trkpt lat="38.15368583709352" lon="15.396894654079036"><ele>172.0</ele><time>2026-04-08T15:41:15.999Z</time></trkpt><trkpt lat="38.153731261122054" lon="15.396807975434836"><ele>169.5</ele><time>2026-04-08T15:41:16.999Z</time></trkpt><trkpt lat="38.15376901543793" lon="15.396726704793993"><ele>167.0</ele><time>2026-04-08T15:41:17.999Z</time></trkpt><trkpt lat="38.15375119615142" lon="15.396597908020297"><ele>167.0</ele><time>2026-04-08T15:41:19.999Z</time></trkpt><trkpt lat="38.15376955698788" lon="15.396499744445306"><ele>167.0</ele><time>2026-04-08T15:41:20.999Z</time></trkpt><trkpt lat="38.15380944248205" lon="15.396411940798123"><ele>167.0</ele><time>2026-04-08T15:41:21.999Z</time></trkpt><trkpt lat="38.15384782115898" lon="15.396307983077204"><ele>167.0</ele><time>2026-04-08T15:41:22.999Z</time></trkpt><trkpt lat="38.153904842185646" lon="15.396216964273043"><ele>167.0</ele><time>2026-04-08T15:41:23.999Z</time></trkpt><trkpt lat="38.15394569073723" lon="15.396101775228255"><ele>167.0</ele><time>2026-04-08T15:41:24.999Z</time></trkpt><trkpt lat="38.15397932708684" lon="15.395990629076525"><ele>167.33333333333331</ele><time>2026-04-08T15:41:26.999Z</time></trkpt><trkpt lat="38.15405456466995" lon="15.39594009478404"><ele>167.66666666666666</ele><time>2026-04-08T15:41:28.999Z</time></trkpt><trkpt lat="38.15411456748038" lon="15.395975496615963"><ele>168.0</ele><time>2026-04-08T15:41:29.999Z</time></trkpt><trkpt lat="38.154213008680706" lon="15.395989898500542"><ele>168.33333333333334</ele><time>2026-04-08T15:41:31.999Z</time></trkpt><trkpt lat="38.154257727097544" lon="15.395928342465579"><ele>168.66666666666669</ele><time>2026-04-08T15:41:33.999Z</time></trkpt><trkpt lat="38.15437066648797" lon="15.395844969570804"><ele>169.0</ele><time>2026-04-08T15:41:35.999Z</time></trkpt><trkpt lat="38.15442612124427" lon="15.395791735903188"><ele>169.0</ele><time>2026-04-08T15:41:39.999Z</time></trkpt><trkpt lat="38.154463256583966" lon="15.395700073456291"><ele>169.0</ele><time>2026-04-08T15:41:42.999Z</time></trkpt><trkpt lat="38.15438725347566" lon="15.395706570394"><ele>169.0</ele><time>2026-04-08T15:41:44.999Z</time></trkpt><trkpt lat="38.154305677637005" lon="15.395694611925087"><ele>169.0</ele><time>2026-04-08T15:41:46.999Z</time></trkpt><trkpt lat="38.15422405914791" lon="15.395681194717714"><ele>169.0</ele><time>2026-04-08T15:41:48.999Z</time></trkpt><trkpt lat="38.154119588268046" lon="15.395643119083715"><ele>169.0</ele><time>2026-04-08T15:41:50.999Z</time></trkpt><trkpt lat="38.15404401472978" lon="15.395596131072713"><ele>166.39999999999998</ele><time>2026-04-08T15:41:51.999Z</time></trkpt><trkpt lat="38.15396832857956" lon="15.395575109799582"><ele>163.79999999999998</ele><time>2026-04-08T15:41:52.999Z</time></trkpt><trkpt lat="38.1539044315192" lon="15.395599918117831"><ele>161.2</ele><time>2026-04-08T15:41:54.999Z</time></trkpt><trkpt lat="38.15387171577389" lon="15.3955274878507"><ele>158.6</ele><time>2026-04-08T15:41:56.999Z</time></trkpt><trkpt lat="38.15395874246755" lon="15.39532576369535"><ele>156.0</ele><time>2026-04-08T15:43:13.999Z</time></trkpt><trkpt lat="38.15401212233508" lon="15.395255558340766"><ele>155.66666666666666</ele><time>2026-04-08T15:43:14.999Z</time></trkpt><trkpt lat="38.15405827074364" lon="15.395191953263936"><ele>155.33333333333334</ele><time>2026-04-08T15:43:15.999Z</time></trkpt><trkpt lat="38.1541333416094" lon="15.395113180661763"><ele>155.0</ele><time>2026-04-08T15:43:17.999Z</time></trkpt><trkpt lat="38.154119233775596" lon="15.395014609444162"><ele>154.66666666666669</ele><time>2026-04-08T15:43:29.999Z</time></trkpt><trkpt lat="38.15411353137008" lon="15.394904218623822"><ele>154.33333333333334</ele><time>2026-04-08T15:43:32.999Z</time></trkpt><trkpt lat="38.15413517074004" lon="15.394783566674205"><ele>154.0</ele><time>2026-04-08T15:43:34.999Z</time></trkpt><trkpt lat="38.15415281982407" lon="15.394655919578502"><ele>154.0</ele><time>2026-04-08T15:43:36.999Z</time></trkpt><trkpt lat="38.15419026434742" lon="15.394524150393858"><ele>154.0</ele><time>2026-04-08T15:43:38.999Z</time></trkpt><trkpt lat="38.15424913006191" lon="15.394425897203517"><ele>154.0</ele><time>2026-04-08T15:43:39.999Z</time></trkpt><trkpt lat="38.15431656885568" lon="15.394320485196939"><ele>154.0</ele><time>2026-04-08T15:43:40.999Z</time></trkpt><trkpt lat="38.1543955447345" lon="15.394253991918788"><ele>154.0</ele><time>2026-04-08T15:43:41.999Z</time></trkpt><trkpt lat="38.15447597645413" lon="15.394191565354314"><ele>154.0</ele><time>2026-04-08T15:43:42.999Z</time></trkpt><trkpt lat="38.154561079798974" lon="15.394128916557513"><ele>154.0</ele><time>2026-04-08T15:43:43.999Z</time></trkpt><trkpt lat="38.15462569313408" lon="15.394050813361462"><ele>154.0</ele><time>2026-04-08T15:43:44.999Z</time></trkpt><trkpt lat="38.1546690013207" lon="15.393923673875566"><ele>154.0</ele><time>2026-04-08T15:43:45.999Z</time></trkpt><trkpt lat="38.1547484905674" lon="15.393857509367642"><ele>154.0</ele><time>2026-04-08T15:43:46.999Z</time></trkpt><trkpt lat="38.15483264664069" lon="15.393792040870826"><ele>154.4</ele><time>2026-04-08T15:43:47.999Z</time></trkpt><trkpt lat="38.15492692096495" lon="15.393760558482379"><ele>154.8</ele><time>2026-04-08T15:43:48.999Z</time></trkpt><trkpt lat="38.15500054070689" lon="15.393704460483082"><ele>155.2</ele><time>2026-04-08T15:43:49.999Z</time></trkpt><trkpt lat="38.15509343314433" lon="15.393676043756617"><ele>155.6</ele><time>2026-04-08T15:43:50.999Z</time></trkpt><trkpt lat="38.15517053563934" lon="15.393625416965946"><ele>156.0</ele><time>2026-04-08T15:43:51.999Z</time></trkpt><trkpt lat="38.155254055885464" lon="15.393573072678715"><ele>156.0</ele><time>2026-04-08T15:43:52.999Z</time></trkpt><trkpt lat="38.1553397024148" lon="15.393511957282364"><ele>156.0</ele><time>2026-04-08T15:43:53.999Z</time></trkpt><trkpt lat="38.155448501487385" lon="15.393432649733624"><ele>156.0</ele><time>2026-04-08T15:43:54.999Z</time></trkpt><trkpt lat="38.15554228658375" lon="15.393359317813776"><ele>156.0</ele><time>2026-04-08T15:43:55.999Z</time></trkpt><trkpt lat="38.15562792630002" lon="15.393275326487492"><ele>156.0</ele><time>2026-04-08T15:43:56.999Z</time></trkpt><trkpt lat="38.15567932775803" lon="15.393181098368387"><ele>154.0</ele><time>2026-04-08T15:43:57.999Z</time></trkpt><trkpt lat="38.1557506429285" lon="15.393097946807163"><ele>152.0</ele><time>2026-04-08T15:43:58.999Z</time></trkpt><trkpt lat="38.15584863955133" lon="15.393039308868255"><ele>150.0</ele><time>2026-04-08T15:43:59.999Z</time></trkpt><trkpt lat="38.15595291500643" lon="15.392952665500815"><ele>148.0</ele><time>2026-04-08T15:44:00.999Z</time></trkpt><trkpt lat="38.15605714909771" lon="15.39288789810502"><ele>146.0</ele><time>2026-04-08T15:44:01.999Z</time></trkpt><trkpt lat="38.156140986964154" lon="15.39280308059181"><ele>146.0</ele><time>2026-04-08T15:44:02.999Z</time></trkpt><trkpt lat="38.15622011819117" lon="15.392720620944958"><ele>146.0</ele><time>2026-04-08T15:44:03.999Z</time></trkpt><trkpt lat="38.15631234315541" lon="15.392659244249268"><ele>146.0</ele><time>2026-04-08T15:44:04.999Z</time></trkpt><trkpt lat="38.15640840179069" lon="15.392602372100267"><ele>146.0</ele><time>2026-04-08T15:44:05.999Z</time></trkpt><trkpt lat="38.15650190958303" lon="15.392519502027286"><ele>146.0</ele><time>2026-04-08T15:44:06.999Z</time></trkpt><trkpt lat="38.15660650466394" lon="15.392457288678903"><ele>145.2</ele><time>2026-04-08T15:44:07.999Z</time></trkpt><trkpt lat="38.15672142736018" lon="15.392425189908725"><ele>144.39999999999998</ele><time>2026-04-08T15:44:08.999Z</time></trkpt><trkpt lat="38.15681808686351" lon="15.392365144411142"><ele>143.6</ele><time>2026-04-08T15:44:09.999Z</time></trkpt><trkpt lat="38.15691540904675" lon="15.392325341366906"><ele>142.79999999999998</ele><time>2026-04-08T15:44:11.998Z</time></trkpt><trkpt lat="38.15700028693621" lon="15.392245015683637"><ele>142.0</ele><time>2026-04-08T15:44:13.998Z</time></trkpt><trkpt lat="38.15708374963063" lon="15.392204427840241"><ele>141.79999999999998</ele><time>2026-04-08T15:44:14.998Z</time></trkpt><trkpt lat="38.1571776373454" lon="15.392132348757078"><ele>141.6</ele><time>2026-04-08T15:44:15.998Z</time></trkpt><trkpt lat="38.157276395775924" lon="15.392076762113469"><ele>141.39999999999998</ele><time>2026-04-08T15:44:17Z</time></trkpt><trkpt lat="38.157355539135956" lon="15.391995285676913"><ele>141.2</ele><time>2026-04-08T15:44:18Z</time></trkpt><trkpt lat="38.15744654632717" lon="15.391895429530328"><ele>141.0</ele><time>2026-04-08T15:44:19Z</time></trkpt><trkpt lat="38.15754584321457" lon="15.391802197596219"><ele>140.5</ele><time>2026-04-08T15:44:20Z</time></trkpt><trkpt lat="38.15765244810705" lon="15.391731244079773"><ele>140.0</ele><time>2026-04-08T15:44:21Z</time></trkpt><trkpt lat="38.15774804390512" lon="15.391692605719001"><ele>139.5</ele><time>2026-04-08T15:44:22Z</time></trkpt><trkpt lat="38.15785839212184" lon="15.391661942657484"><ele>139.0</ele><time>2026-04-08T15:44:23Z</time></trkpt><trkpt lat="38.15797243110397" lon="15.391626603624053"><ele>139.0</ele><time>2026-04-08T15:44:24Z</time></trkpt><trkpt lat="38.158102299379635" lon="15.391572243913593"><ele>139.0</ele><time>2026-04-08T15:44:25Z</time></trkpt><trkpt lat="38.1582637176585" lon="15.391503929580445"><ele>139.0</ele><time>2026-04-08T15:44:26Z</time></trkpt><trkpt lat="38.15841744421591" lon="15.391466477610454"><ele>138.75</ele><time>2026-04-08T15:44:27Z</time></trkpt><trkpt lat="38.158545405359696" lon="15.391395472744383"><ele>138.5</ele><time>2026-04-08T15:44:28Z</time></trkpt><trkpt lat="38.15865990470677" lon="15.391359193745481"><ele>138.25</ele><time>2026-04-08T15:44:29Z</time></trkpt><trkpt lat="38.15878680061787" lon="15.391306706486548"><ele>138.0</ele><time>2026-04-08T15:44:30Z</time></trkpt><trkpt lat="38.158912104546204" lon="15.391223749986443"><ele>138.0</ele><time>2026-04-08T15:44:31Z</time></trkpt><trkpt lat="38.159058335752846" lon="15.39113753906559"><ele>138.0</ele><time>2026-04-08T15:44:32Z</time></trkpt><trkpt lat="38.15920781241958" lon="15.39103632834524"><ele>138.0</ele><time>2026-04-08T15:44:33Z</time></trkpt><trkpt lat="38.15936349492498" lon="15.390974448664654"><ele>138.0</ele><time>2026-04-08T15:44:34Z</time></trkpt><trkpt lat="38.159507019788855" lon="15.390891543758688"><ele>138.0</ele><time>2026-04-08T15:44:35Z</time></trkpt><trkpt lat="38.1596479274234" lon="15.390802358189442"><ele>138.0</ele><time>2026-04-08T15:44:36Z</time></trkpt><trkpt lat="38.15979164672841" lon="15.39069691893882"><ele>138.5</ele><time>2026-04-08T15:44:37Z</time></trkpt><trkpt lat="38.15990169453561" lon="15.390627516552163"><ele>139.0</ele><time>2026-04-08T15:44:38Z</time></trkpt><trkpt lat="38.16002639159166" lon="15.390549275587343"><ele>139.5</ele><time>2026-04-08T15:44:39Z</time></trkpt><trkpt lat="38.16016513256759" lon="15.390498709769911"><ele>140.0</ele><time>2026-04-08T15:44:40Z</time></trkpt><trkpt lat="38.160309221748186" lon="15.390429194100342"><ele>140.0</ele><time>2026-04-08T15:44:41Z</time></trkpt><trkpt lat="38.16044635208942" lon="15.390354640658812"><ele>140.0</ele><time>2026-04-08T15:44:42Z</time></trkpt><trkpt lat="38.16059191937168" lon="15.390291595767044"><ele>140.0</ele><time>2026-04-08T15:44:43Z</time></trkpt><trkpt lat="38.160741352041214" lon="15.390217411444901"><ele>138.0</ele><time>2026-04-08T15:44:44Z</time></trkpt><trkpt lat="38.16088752035087" lon="15.39015848576364"><ele>136.0</ele><time>2026-04-08T15:44:45Z</time></trkpt><trkpt lat="38.16102470403749" lon="15.390096314690627"><ele>134.0</ele><time>2026-04-08T15:44:46Z</time></trkpt><trkpt lat="38.161157537095164" lon="15.390029317446132"><ele>132.0</ele><time>2026-04-08T15:44:47Z</time></trkpt><trkpt lat="38.16129214475782" lon="15.389934712617922"><ele>132.0</ele><time>2026-04-08T15:44:48Z</time></trkpt><trkpt lat="38.161422277601076" lon="15.389848649376779"><ele>132.0</ele><time>2026-04-08T15:44:49Z</time></trkpt><trkpt lat="38.16156432600969" lon="15.389768304771712"><ele>132.0</ele><time>2026-04-08T15:44:50Z</time></trkpt><trkpt lat="38.16170482929108" lon="15.389706947698878"><ele>132.33333333333334</ele><time>2026-04-08T15:44:51Z</time></trkpt><trkpt lat="38.161842997800306" lon="15.389634439144347"><ele>132.66666666666669</ele><time>2026-04-08T15:44:52Z</time></trkpt><trkpt lat="38.161982671096375" lon="15.389547654319962"><ele>133.0</ele><time>2026-04-08T15:44:53Z</time></trkpt><trkpt lat="38.16211952129502" lon="15.389462016212445"><ele>133.0</ele><time>2026-04-08T15:44:54Z</time></trkpt><trkpt lat="38.16225431414332" lon="15.389391520071964"><ele>133.0</ele><time>2026-04-08T15:44:55Z</time></trkpt><trkpt lat="38.16238877519056" lon="15.389318560123936"><ele>133.0</ele><time>2026-04-08T15:44:56Z</time></trkpt><trkpt lat="38.16249941962983" lon="15.389223535786652"><ele>133.0</ele><time>2026-04-08T15:44:57Z</time></trkpt><trkpt lat="38.1626109977705" lon="15.389160104623935"><ele>132.0</ele><time>2026-04-08T15:44:58Z</time></trkpt><trkpt lat="38.162714222229766" lon="15.389051684761977"><ele>131.0</ele><time>2026-04-08T15:44:59Z</time></trkpt><trkpt lat="38.16283620840582" lon="15.388970324123552"><ele>130.0</ele><time>2026-04-08T15:45:00Z</time></trkpt><trkpt lat="38.16293607714198" lon="15.388881315318931"><ele>129.0</ele><time>2026-04-08T15:45:01Z</time></trkpt><trkpt lat="38.16301507849364" lon="15.388804085378137"><ele>129.0</ele><time>2026-04-08T15:45:02Z</time></trkpt><trkpt lat="38.163070379763745" lon="15.388761044913926"><ele>129.0</ele><time>2026-04-08T15:45:03Z</time></trkpt><trkpt lat="38.16314753477019" lon="15.388892998586043"><ele>129.0</ele><time>2026-04-08T15:45:10Z</time></trkpt><trkpt lat="38.16321097026351" lon="15.388994142474832"><ele>129.0</ele><time>2026-04-08T15:45:13Z</time></trkpt><trkpt lat="38.16326818945047" lon="15.389099009341031"><ele>129.0</ele><time>2026-04-08T15:45:15Z</time></trkpt><trkpt lat="38.163380123002995" lon="15.389104399701974"><ele>128.8</ele><time>2026-04-08T15:45:18Z</time></trkpt><trkpt lat="38.16344185069555" lon="15.389064125555619"><ele>128.60000000000002</ele><time>2026-04-08T15:45:19Z</time></trkpt><trkpt lat="38.16352598732504" lon="15.388998193285445"><ele>128.4</ele><time>2026-04-08T15:45:20Z</time></trkpt><trkpt lat="38.16360614800265" lon="15.388905537261781"><ele>128.20000000000002</ele><time>2026-04-08T15:45:21Z</time></trkpt><trkpt lat="38.163666524727255" lon="15.388802934010759"><ele>128.0</ele><time>2026-04-08T15:45:22Z</time></trkpt><trkpt lat="38.16375856982933" lon="15.388727652664334"><ele>128.0</ele><time>2026-04-08T15:45:22.999Z</time></trkpt><trkpt lat="38.16383934592704" lon="15.388626796086688"><ele>128.0</ele><time>2026-04-08T15:45:23.999Z</time></trkpt><trkpt lat="38.163901204667745" lon="15.388527358859864"><ele>128.0</ele><time>2026-04-08T15:45:24.999Z</time></trkpt><trkpt lat="38.16396926570955" lon="15.388431422562014"><ele>128.0</ele><time>2026-04-08T15:45:25.999Z</time></trkpt><trkpt lat="38.16404692369411" lon="15.388314912714547"><ele>128.0</ele><time>2026-04-08T15:45:26.999Z</time></trkpt><trkpt lat="38.1641235443116" lon="15.388199719076498"><ele>128.25</ele><time>2026-04-08T15:45:27.999Z</time></trkpt><trkpt lat="38.16420357259151" lon="15.3880889996452"><ele>128.5</ele><time>2026-04-08T15:45:28.999Z</time></trkpt><trkpt lat="38.164279136176695" lon="15.387941963449917"><ele>128.75</ele><time>2026-04-08T15:45:29.999Z</time></trkpt><trkpt lat="38.1643486170354" lon="15.387799301240975"><ele>129.0</ele><time>2026-04-08T15:45:30.999Z</time></trkpt><trkpt lat="38.16438820725455" lon="15.38764688738298"><ele>127.5</ele><time>2026-04-08T15:45:31.999Z</time></trkpt><trkpt lat="38.164458416292206" lon="15.387534546002477"><ele>126.0</ele><time>2026-04-08T15:45:32.999Z</time></trkpt><trkpt lat="38.164535917348815" lon="15.38742143095958"><ele>124.5</ele><time>2026-04-08T15:45:33.999Z</time></trkpt><trkpt lat="38.16463458276536" lon="15.387304873903664"><ele>123.0</ele><time>2026-04-08T15:45:34.999Z</time></trkpt><trkpt lat="38.164750702857184" lon="15.387181680425737"><ele>122.66666666666666</ele><time>2026-04-08T15:45:35.999Z</time></trkpt><trkpt lat="38.16487699385692" lon="15.387046975894531"><ele>122.33333333333333</ele><time>2026-04-08T15:45:36.999Z</time></trkpt><trkpt lat="38.16500228256487" lon="15.38692434999295"><ele>122.0</ele><time>2026-04-08T15:45:37.999Z</time></trkpt><trkpt lat="38.16511048732371" lon="15.386811527150577"><ele>122.0</ele><time>2026-04-08T15:45:38.999Z</time></trkpt><trkpt lat="38.16520747253427" lon="15.386683222897183"><ele>122.0</ele><time>2026-04-08T15:45:39.999Z</time></trkpt><trkpt lat="38.16533054487797" lon="15.386595053998661"><ele>122.0</ele><time>2026-04-08T15:45:40.999Z</time></trkpt><trkpt lat="38.16544795451577" lon="15.386472190195692"><ele>122.0</ele><time>2026-04-08T15:45:41.999Z</time></trkpt><trkpt lat="38.16557418976943" lon="15.386380910310068"><ele>121.66666666666666</ele><time>2026-04-08T15:45:42.999Z</time></trkpt><trkpt lat="38.165715643119626" lon="15.386314612529851"><ele>121.33333333333334</ele><time>2026-04-08T15:45:43.999Z</time></trkpt><trkpt lat="38.16585552185433" lon="15.386239735019494"><ele>121.0</ele><time>2026-04-08T15:45:44.999Z</time></trkpt><trkpt lat="38.16599287818249" lon="15.386145974133651"><ele>121.0</ele><time>2026-04-08T15:45:45.999Z</time></trkpt><trkpt lat="38.16612106975626" lon="15.386068843067454"><ele>121.0</ele><time>2026-04-08T15:45:46.999Z</time></trkpt><trkpt lat="38.16623609440325" lon="15.385974406983681"><ele>121.0</ele><time>2026-04-08T15:45:47.999Z</time></trkpt><trkpt lat="38.166364377339335" lon="15.38589225075404"><ele>121.0</ele><time>2026-04-08T15:45:48.999Z</time></trkpt><trkpt lat="38.16648994396348" lon="15.38580674202328"><ele>120.75</ele><time>2026-04-08T15:45:49.999Z</time></trkpt><trkpt lat="38.166616394460256" lon="15.385740285763974"><ele>120.5</ele><time>2026-04-08T15:45:50.999Z</time></trkpt><trkpt lat="38.16672520862742" lon="15.385684444743635"><ele>120.25</ele><time>2026-04-08T15:45:51.999Z</time></trkpt><trkpt lat="38.166829275726954" lon="15.385627378831618"><ele>120.0</ele><time>2026-04-08T15:45:52.999Z</time></trkpt><trkpt lat="38.16693650056171" lon="15.385556892267504"><ele>119.75</ele><time>2026-04-08T15:45:53.999Z</time></trkpt><trkpt lat="38.16705858805302" lon="15.385454744221947"><ele>119.5</ele><time>2026-04-08T15:45:54.999Z</time></trkpt><trkpt lat="38.167163749229296" lon="15.385341436095525"><ele>119.25</ele><time>2026-04-08T15:45:55.999Z</time></trkpt><trkpt lat="38.1672541599838" lon="15.385216473850768"><ele>119.0</ele><time>2026-04-08T15:45:56.999Z</time></trkpt><trkpt lat="38.167326023011235" lon="15.38508523548942"><ele>119.0</ele><time>2026-04-08T15:45:57.999Z</time></trkpt><trkpt lat="38.16735439907794" lon="15.384948489193018"><ele>119.0</ele><time>2026-04-08T15:45:58.999Z</time></trkpt><trkpt lat="38.167382283959356" lon="15.384820273441623"><ele>119.0</ele><time>2026-04-08T15:45:59.999Z</time></trkpt><trkpt lat="38.167411254358704" lon="15.38469002903069"><ele>119.0</ele><time>2026-04-08T15:46:00.999Z</time></trkpt><trkpt lat="38.16742625594144" lon="15.384559270770403"><ele>119.0</ele><time>2026-04-08T15:46:01.999Z</time></trkpt><trkpt lat="38.16747652924181" lon="15.384436169080784"><ele>119.0</ele><time>2026-04-08T15:46:02.999Z</time></trkpt><trkpt lat="38.16753413628359" lon="15.384301436746155"><ele>119.0</ele><time>2026-04-08T15:46:03.999Z</time></trkpt><trkpt lat="38.16756033791637" lon="15.384165949765933"><ele>119.0</ele><time>2026-04-08T15:46:04.999Z</time></trkpt><trkpt lat="38.167588529273885" lon="15.384014396727368"><ele>119.0</ele><time>2026-04-08T15:46:05.999Z</time></trkpt><trkpt lat="38.16761741052842" lon="15.383851334711988"><ele>118.2</ele><time>2026-04-08T15:46:06.999Z</time></trkpt><trkpt lat="38.16766948759155" lon="15.383699266306166"><ele>117.4</ele><time>2026-04-08T15:46:07.999Z</time></trkpt><trkpt lat="38.167703701234" lon="15.38356352092793"><ele>116.6</ele><time>2026-04-08T15:46:08.999Z</time></trkpt><trkpt lat="38.16770179338842" lon="15.383434009297483"><ele>115.8</ele><time>2026-04-08T15:46:09.999Z</time></trkpt><trkpt lat="38.167701732948366" lon="15.383304752917503"><ele>115.0</ele><time>2026-04-08T15:46:10.999Z</time></trkpt><trkpt lat="38.16770337068048" lon="15.383129863756237"><ele>114.25</ele><time>2026-04-08T15:46:11.999Z</time></trkpt><trkpt lat="38.16770833973633" lon="15.38295888580909"><ele>113.5</ele><time>2026-04-08T15:46:12.999Z</time></trkpt><trkpt lat="38.16771293355362" lon="15.382808101944246"><ele>112.75</ele><time>2026-04-08T15:46:13.999Z</time></trkpt><trkpt lat="38.16770746730226" lon="15.382666143325096"><ele>112.0</ele><time>2026-04-08T15:46:14.999Z</time></trkpt><trkpt lat="38.167713218943796" lon="15.382511389549373"><ele>112.0</ele><time>2026-04-08T15:46:15.999Z</time></trkpt><trkpt lat="38.16773600300204" lon="15.382352627995173"><ele>112.0</ele><time>2026-04-08T15:46:16.999Z</time></trkpt><trkpt lat="38.16776961945209" lon="15.382193038698832"><ele>112.0</ele><time>2026-04-08T15:46:17.999Z</time></trkpt><trkpt lat="38.16781174414671" lon="15.382031419833293"><ele>112.0</ele><time>2026-04-08T15:46:18.999Z</time></trkpt><trkpt lat="38.16786275895013" lon="15.381917501124732"><ele>112.6</ele><time>2026-04-08T15:46:19.998Z</time></trkpt><trkpt lat="38.167935637963325" lon="15.381876898242108"><ele>113.19999999999999</ele><time>2026-04-08T15:46:20.998Z</time></trkpt><trkpt lat="38.16795492380856" lon="15.381759726301617"><ele>113.8</ele><time>2026-04-08T15:46:21.998Z</time></trkpt><trkpt lat="38.16800518331832" lon="15.38162345433451"><ele>114.4</ele><time>2026-04-08T15:46:23Z</time></trkpt><trkpt lat="38.16805739652272" lon="15.381493539184138"><ele>115.0</ele><time>2026-04-08T15:46:24Z</time></trkpt><trkpt lat="38.168099736910456" lon="15.3813382362414"><ele>113.0</ele><time>2026-04-08T15:46:25Z</time></trkpt><trkpt lat="38.16815970128502" lon="15.381177032581018"><ele>111.0</ele><time>2026-04-08T15:46:26Z</time></trkpt><trkpt lat="38.1682327937504" lon="15.381030808677016"><ele>109.0</ele><time>2026-04-08T15:46:27Z</time></trkpt><trkpt lat="38.16833490817299" lon="15.380874884619791"><ele>107.0</ele><time>2026-04-08T15:46:28Z</time></trkpt><trkpt lat="38.168420521139986" lon="15.380698363079553"><ele>107.0</ele><time>2026-04-08T15:46:29Z</time></trkpt><trkpt lat="38.16850687852003" lon="15.380541569813749"><ele>107.0</ele><time>2026-04-08T15:46:30Z</time></trkpt><trkpt lat="38.16858994054987" lon="15.380378637226494"><ele>107.0</ele><time>2026-04-08T15:46:31Z</time></trkpt><trkpt lat="38.16866954655888" lon="15.380217250678124"><ele>107.25</ele><time>2026-04-08T15:46:32Z</time></trkpt><trkpt lat="38.168744321923015" lon="15.380066273377858"><ele>107.5</ele><time>2026-04-08T15:46:33Z</time></trkpt><trkpt lat="38.16880322074297" lon="15.379901926459043"><ele>107.75</ele><time>2026-04-08T15:46:34Z</time></trkpt><trkpt lat="38.16890217743078" lon="15.379767174212464"><ele>108.0</ele><time>2026-04-08T15:46:35Z</time></trkpt><trkpt lat="38.16897864204321" lon="15.379607952470598"><ele>106.25</ele><time>2026-04-08T15:46:36Z</time></trkpt><trkpt lat="38.169044489214656" lon="15.379442328112287"><ele>104.5</ele><time>2026-04-08T15:46:37Z</time></trkpt><trkpt lat="38.16910954589064" lon="15.379283770196084"><ele>102.75</ele><time>2026-04-08T15:46:38Z</time></trkpt><trkpt lat="38.169174065571646" lon="15.379121416307262"><ele>101.0</ele><time>2026-04-08T15:46:39Z</time></trkpt><trkpt lat="38.16924413416361" lon="15.37896311739043"><ele>100.5</ele><time>2026-04-08T15:46:40Z</time></trkpt><trkpt lat="38.16931772055171" lon="15.378806549865145"><ele>100.0</ele><time>2026-04-08T15:46:41Z</time></trkpt><trkpt lat="38.16939924715355" lon="15.37867486301587"><ele>99.5</ele><time>2026-04-08T15:46:42Z</time></trkpt><trkpt lat="38.16949271841421" lon="15.378546969186461"><ele>99.0</ele><time>2026-04-08T15:46:43Z</time></trkpt><trkpt lat="38.16958789643519" lon="15.378420956510826"><ele>99.0</ele><time>2026-04-08T15:46:44Z</time></trkpt><trkpt lat="38.16967384616081" lon="15.378290910953924"><ele>99.0</ele><time>2026-04-08T15:46:45Z</time></trkpt><trkpt lat="38.169761131206" lon="15.378185984442355"><ele>99.0</ele><time>2026-04-08T15:46:46Z</time></trkpt><trkpt lat="38.16981702549386" lon="15.378060384670606"><ele>99.0</ele><time>2026-04-08T15:46:47Z</time></trkpt><trkpt lat="38.16987527969777" lon="15.37794606843338"><ele>99.0</ele><time>2026-04-08T15:46:48Z</time></trkpt><trkpt lat="38.169942358091944" lon="15.377819766044606"><ele>99.0</ele><time>2026-04-08T15:46:49Z</time></trkpt><trkpt lat="38.16997669550891" lon="15.377687349678839"><ele>99.0</ele><time>2026-04-08T15:46:50Z</time></trkpt><trkpt lat="38.17000699287856" lon="15.377567518369615"><ele>99.0</ele><time>2026-04-08T15:46:51Z</time></trkpt><trkpt lat="38.17004165718733" lon="15.377445248742445"><ele>99.0</ele><time>2026-04-08T15:46:52Z</time></trkpt><trkpt lat="38.17009429423024" lon="15.377306970095889"><ele>98.25</ele><time>2026-04-08T15:46:53Z</time></trkpt><trkpt lat="38.17015608095122" lon="15.37717858799846"><ele>97.5</ele><time>2026-04-08T15:46:54Z</time></trkpt><trkpt lat="38.17019645235926" lon="15.377050084760434"><ele>96.75</ele><time>2026-04-08T15:46:55Z</time></trkpt><trkpt lat="38.170270864638695" lon="15.376917498462744"><ele>96.0</ele><time>2026-04-08T15:46:56Z</time></trkpt><trkpt lat="38.170345447864584" lon="15.376733035149849"><ele>96.0</ele><time>2026-04-08T15:46:57Z</time></trkpt><trkpt lat="38.17039597898738" lon="15.376549753415258"><ele>96.0</ele><time>2026-04-08T15:46:58Z</time></trkpt><trkpt lat="38.17043655447031" lon="15.37640413155845"><ele>96.0</ele><time>2026-04-08T15:46:59Z</time></trkpt><trkpt lat="38.17047676461092" lon="15.376312457859482"><ele>96.0</ele><time>2026-04-08T15:47:00Z</time></trkpt><trkpt lat="38.17047521767907" lon="15.3762318078238"><ele>96.0</ele><time>2026-04-08T15:47:02Z</time></trkpt><trkpt lat="38.17048993088468" lon="15.376021530128073"><ele>96.0</ele><time>2026-04-08T15:47:32.999Z</time></trkpt><trkpt lat="38.17048928816747" lon="15.375900497107743"><ele>96.0</ele><time>2026-04-08T15:47:33.999Z</time></trkpt><trkpt lat="38.170492330516176" lon="15.375726820803164"><ele>96.0</ele><time>2026-04-08T15:47:34.999Z</time></trkpt><trkpt lat="38.17051969584771" lon="15.375549865960867"><ele>96.0</ele><time>2026-04-08T15:47:35.999Z</time></trkpt><trkpt lat="38.17055780884439" lon="15.375381229853872"><ele>96.0</ele><time>2026-04-08T15:47:36.999Z</time></trkpt><trkpt lat="38.17061023085779" lon="15.375235681264757"><ele>96.0</ele><time>2026-04-08T15:47:37.999Z</time></trkpt><trkpt lat="38.170659319108815" lon="15.375042398932333"><ele>96.0</ele><time>2026-04-08T15:47:38.999Z</time></trkpt><trkpt lat="38.17073062394235" lon="15.374846718904564"><ele>95.25</ele><time>2026-04-08T15:47:39.999Z</time></trkpt><trkpt lat="38.17079117289625" lon="15.374675213466881"><ele>94.5</ele><time>2026-04-08T15:47:40.999Z</time></trkpt><trkpt lat="38.1708470563583" lon="15.374516923086059"><ele>93.75</ele><time>2026-04-08T15:47:41.999Z</time></trkpt><trkpt lat="38.17090763949054" lon="15.374348930074161"><ele>93.0</ele><time>2026-04-08T15:47:42.999Z</time></trkpt><trkpt lat="38.17097191419796" lon="15.374168067768267"><ele>93.0</ele><time>2026-04-08T15:47:43.999Z</time></trkpt><trkpt lat="38.17103016122763" lon="15.373992833682665"><ele>93.0</ele><time>2026-04-08T15:47:44.999Z</time></trkpt><trkpt lat="38.171071182431845" lon="15.373834602734595"><ele>93.0</ele><time>2026-04-08T15:47:45.999Z</time></trkpt><trkpt lat="38.171107677354264" lon="15.373671939585499"><ele>93.0</ele><time>2026-04-08T15:47:46.999Z</time></trkpt><trkpt lat="38.17115047899522" lon="15.373498909185018"><ele>92.66666666666667</ele><time>2026-04-08T15:47:47.999Z</time></trkpt><trkpt lat="38.17122704660071" lon="15.373325090920401"><ele>92.33333333333334</ele><time>2026-04-08T15:47:48.999Z</time></trkpt><trkpt lat="38.17129617051503" lon="15.37313436333219"><ele>92.0</ele><time>2026-04-08T15:47:49.999Z</time></trkpt><trkpt lat="38.171369980020245" lon="15.372955103802108"><ele>91.5</ele><time>2026-04-08T15:47:50.999Z</time></trkpt><trkpt lat="38.17142743030646" lon="15.372781871003795"><ele>91.0</ele><time>2026-04-08T15:47:51.999Z</time></trkpt><trkpt lat="38.17147170743545" lon="15.372615410705732"><ele>90.5</ele><time>2026-04-08T15:47:52.999Z</time></trkpt><trkpt lat="38.17154859654624" lon="15.372476440847132"><ele>90.0</ele><time>2026-04-08T15:47:53.999Z</time></trkpt><trkpt lat="38.17160091529111" lon="15.372327991347309"><ele>88.75</ele><time>2026-04-08T15:47:54.999Z</time></trkpt><trkpt lat="38.17165462202826" lon="15.372183351970003"><ele>87.5</ele><time>2026-04-08T15:47:55.999Z</time></trkpt><trkpt lat="38.17170273682131" lon="15.372015294605633"><ele>86.25</ele><time>2026-04-08T15:47:56.999Z</time></trkpt><trkpt lat="38.171717263763455" lon="15.371830292942258"><ele>85.0</ele><time>2026-04-08T15:47:57.999Z</time></trkpt><trkpt lat="38.1717604275118" lon="15.371642254852425"><ele>85.0</ele><time>2026-04-08T15:47:58.999Z</time></trkpt><trkpt lat="38.17183480251655" lon="15.37148129371735"><ele>85.0</ele><time>2026-04-08T15:47:59.999Z</time></trkpt><trkpt lat="38.171887823861944" lon="15.371315579405378"><ele>85.0</ele><time>2026-04-08T15:48:00.999Z</time></trkpt><trkpt lat="38.17196191315177" lon="15.371162949053602"><ele>85.0</ele><time>2026-04-08T15:48:01.999Z</time></trkpt><trkpt lat="38.172026306568746" lon="15.371023437929244"><ele>85.0</ele><time>2026-04-08T15:48:02.999Z</time></trkpt><trkpt lat="38.17207647986444" lon="15.370883622360871"><ele>85.0</ele><time>2026-04-08T15:48:03.999Z</time></trkpt><trkpt lat="38.172126682374966" lon="15.370741030020602"><ele>85.0</ele><time>2026-04-08T15:48:04.999Z</time></trkpt><trkpt lat="38.17219016621879" lon="15.37059551928111"><ele>85.0</ele><time>2026-04-08T15:48:05.999Z</time></trkpt><trkpt lat="38.1722376831802" lon="15.370435613167707"><ele>85.0</ele><time>2026-04-08T15:48:06.999Z</time></trkpt><trkpt lat="38.172285035428615" lon="15.370269516944706"><ele>85.0</ele><time>2026-04-08T15:48:07.999Z</time></trkpt><trkpt lat="38.17234318962173" lon="15.370103780798107"><ele>85.0</ele><time>2026-04-08T15:48:08.999Z</time></trkpt><trkpt lat="38.17240336989886" lon="15.36994520021657"><ele>85.0</ele><time>2026-04-08T15:48:09.999Z</time></trkpt><trkpt lat="38.17247327587919" lon="15.369792861489525"><ele>85.0</ele><time>2026-04-08T15:48:10.999Z</time></trkpt><trkpt lat="38.172535958647224" lon="15.369635704989266"><ele>85.0</ele><time>2026-04-08T15:48:11.999Z</time></trkpt><trkpt lat="38.172571090905656" lon="15.36946646374033"><ele>85.0</ele><time>2026-04-08T15:48:12.999Z</time></trkpt><trkpt lat="38.172613339310715" lon="15.369302648983819"><ele>85.0</ele><time>2026-04-08T15:48:13.999Z</time></trkpt><trkpt lat="38.17266599700451" lon="15.369185328752883"><ele>85.0</ele><time>2026-04-08T15:48:14.999Z</time></trkpt><trkpt lat="38.17270799181299" lon="15.369043941569995"><ele>85.0</ele><time>2026-04-08T15:48:15.999Z</time></trkpt><trkpt lat="38.17275139452686" lon="15.368907749877337"><ele>85.0</ele><time>2026-04-08T15:48:16.999Z</time></trkpt><trkpt lat="38.1727586421881" lon="15.36877354736339"><ele>85.0</ele><time>2026-04-08T15:48:17.999Z</time></trkpt><trkpt lat="38.17279714806039" lon="15.368641963575607"><ele>84.6</ele><time>2026-04-08T15:48:18.999Z</time></trkpt><trkpt lat="38.172835719762716" lon="15.368508024690158"><ele>84.2</ele><time>2026-04-08T15:48:19.999Z</time></trkpt><trkpt lat="38.17290152842395" lon="15.368392464951226"><ele>83.80000000000001</ele><time>2026-04-08T15:48:20.999Z</time></trkpt><trkpt lat="38.17297139394645" lon="15.368279523055204"><ele>83.4</ele><time>2026-04-08T15:48:21.999Z</time></trkpt><trkpt lat="38.17299745003941" lon="15.368156134622913"><ele>83.0</ele><time>2026-04-08T15:48:22.999Z</time></trkpt><trkpt lat="38.17300445218657" lon="15.36803901029669"><ele>82.80000000000001</ele><time>2026-04-08T15:48:23.998Z</time></trkpt><trkpt lat="38.17301221948748" lon="15.367899827904466"><ele>82.6</ele><time>2026-04-08T15:48:24.998Z</time></trkpt><trkpt lat="38.173009977848636" lon="15.367771428718372"><ele>82.4</ele><time>2026-04-08T15:48:25.998Z</time></trkpt><trkpt lat="38.17302423259728" lon="15.367653722136225"><ele>82.19999999999999</ele><time>2026-04-08T15:48:26.998Z</time></trkpt><trkpt lat="38.173037091149915" lon="15.367543437321233"><ele>82.0</ele><time>2026-04-08T15:48:27.998Z</time></trkpt><trkpt lat="38.173040389943594" lon="15.367444819783694"><ele>82.0</ele><time>2026-04-08T15:48:29Z</time></trkpt><trkpt lat="38.173027109072954" lon="15.367329422203596"><ele>82.0</ele><time>2026-04-08T15:48:31Z</time></trkpt><trkpt lat="38.17289429594431" lon="15.36725813199374"><ele>82.0</ele><time>2026-04-08T15:48:33Z</time></trkpt><trkpt lat="38.1728333171379" lon="15.367223675141174"><ele>82.0</ele><time>2026-04-08T15:48:34Z</time></trkpt><trkpt lat="38.172754779096074" lon="15.367157991643364"><ele>82.0</ele><time>2026-04-08T15:48:36Z</time></trkpt><trkpt lat="38.17269403885361" lon="15.36709456378308"><ele>81.83333333333333</ele><time>2026-04-08T15:48:39Z</time></trkpt><trkpt lat="38.17261522498774" lon="15.3670439882277"><ele>81.66666666666666</ele><time>2026-04-08T15:48:42Z</time></trkpt><trkpt lat="38.17254825463397" lon="15.36702137008045"><ele>81.5</ele><time>2026-04-08T15:48:44Z</time></trkpt><trkpt lat="38.17244210545746" lon="15.36697950671107"><ele>81.33333333333333</ele><time>2026-04-08T15:48:46Z</time></trkpt><trkpt lat="38.17236172091475" lon="15.36697161648164"><ele>81.16666666666667</ele><time>2026-04-08T15:48:47Z</time></trkpt><trkpt lat="38.1723055340168" lon="15.366907273803506"><ele>81.0</ele><time>2026-04-08T15:48:49Z</time></trkpt><trkpt lat="38.17234603939867" lon="15.36678372415391"><ele>81.0</ele><time>2026-04-08T15:48:50Z</time></trkpt><trkpt lat="38.17238343277843" lon="15.366682442350013"><ele>81.0</ele><time>2026-04-08T15:48:51Z</time></trkpt><trkpt lat="38.1724248496065" lon="15.366578211154355"><ele>81.0</ele><time>2026-04-08T15:48:52Z</time></trkpt><trkpt lat="38.17243886962251" lon="15.366494635510488"><ele>81.0</ele><time>2026-04-08T15:48:53Z</time></trkpt><trkpt lat="38.17228851114345" lon="15.366349607900165"><ele>81.0</ele><time>2026-04-08T15:48:57Z</time></trkpt><trkpt lat="38.172224311731654" lon="15.36630248877895"><ele>83.25</ele><time>2026-04-08T15:48:58Z</time></trkpt><trkpt lat="38.172156129819264" lon="15.366217081858434"><ele>85.5</ele><time>2026-04-08T15:48:59Z</time></trkpt><trkpt lat="38.17206798378559" lon="15.366112711352821"><ele>87.75</ele><time>2026-04-08T15:49:00Z</time></trkpt><trkpt lat="38.17196093579398" lon="15.365990452211676"><ele>90.0</ele><time>2026-04-08T15:49:01Z</time></trkpt><trkpt lat="38.17185400116316" lon="15.365874632968962"><ele>90.0</ele><time>2026-04-08T15:49:02Z</time></trkpt><trkpt lat="38.17175107634836" lon="15.365772132237398"><ele>90.0</ele><time>2026-04-08T15:49:03Z</time></trkpt><trkpt lat="38.17163351812608" lon="15.365677830917894"><ele>90.0</ele><time>2026-04-08T15:49:04Z</time></trkpt><trkpt lat="38.171529258945" lon="15.365632321794195"><ele>90.0</ele><time>2026-04-08T15:49:05Z</time></trkpt><trkpt lat="38.171423475429954" lon="15.365589568964939"><ele>96.5</ele><time>2026-04-08T15:49:06Z</time></trkpt><trkpt lat="38.17131542133495" lon="15.365585430855393"><ele>103.0</ele><time>2026-04-08T15:49:07Z</time></trkpt><trkpt lat="38.17119826939777" lon="15.365605019373271"><ele>109.5</ele><time>2026-04-08T15:49:08Z</time></trkpt><trkpt lat="38.17108086731925" lon="15.365659542644938"><ele>116.0</ele><time>2026-04-08T15:49:09Z</time></trkpt><trkpt lat="38.17096677379956" lon="15.365741904879954"><ele>116.0</ele><time>2026-04-08T15:49:10Z</time></trkpt><trkpt lat="38.17085543696233" lon="15.365852491020075"><ele>116.0</ele><time>2026-04-08T15:49:11Z</time></trkpt><trkpt lat="38.170748293281854" lon="15.365972568451438"><ele>116.0</ele><time>2026-04-08T15:49:12Z</time></trkpt><trkpt lat="38.17064355413527" lon="15.366095717499853"><ele>116.0</ele><time>2026-04-08T15:49:13Z</time></trkpt><trkpt lat="38.170549618794965" lon="15.366180786341149"><ele>118.4</ele><time>2026-04-08T15:49:14Z</time></trkpt><trkpt lat="38.170472244710126" lon="15.366232068732073"><ele>120.8</ele><time>2026-04-08T15:49:15Z</time></trkpt><trkpt lat="38.17039709358189" lon="15.366253294101506"><ele>123.20000000000002</ele><time>2026-04-08T15:49:16Z</time></trkpt><trkpt lat="38.17029197569671" lon="15.366266726606986"><ele>125.60000000000001</ele><time>2026-04-08T15:49:17Z</time></trkpt><trkpt lat="38.17017852082496" lon="15.366263260516957"><ele>128.0</ele><time>2026-04-08T15:49:18Z</time></trkpt><trkpt lat="38.17009151316267" lon="15.366240494549974"><ele>128.0</ele><time>2026-04-08T15:49:19Z</time></trkpt><trkpt lat="38.16999152206502" lon="15.36619417032342"><ele>128.0</ele><time>2026-04-08T15:49:20Z</time></trkpt><trkpt lat="38.16988160091129" lon="15.366124156115623"><ele>128.0</ele><time>2026-04-08T15:49:21Z</time></trkpt><trkpt lat="38.1697810598779" lon="15.366045291192357"><ele>128.0</ele><time>2026-04-08T15:49:22Z</time></trkpt><trkpt lat="38.169692269714915" lon="15.36598447400489"><ele>128.0</ele><time>2026-04-08T15:49:23Z</time></trkpt><trkpt lat="38.16964982610815" lon="15.365913034896794"><ele>128.0</ele><time>2026-04-08T15:49:24Z</time></trkpt><trkpt lat="38.16960665525336" lon="15.365845373331906"><ele>128.0</ele><time>2026-04-08T15:49:26Z</time></trkpt><trkpt lat="38.16965811747049" lon="15.365614744457506"><ele>128.0</ele><time>2026-04-08T15:49:32.999Z</time></trkpt><trkpt lat="38.16979957806484" lon="15.365635045593846"><ele>128.0</ele><time>2026-04-08T15:49:34.999Z</time></trkpt><trkpt lat="38.16987274834946" lon="15.365591791012458"><ele>128.5</ele><time>2026-04-08T15:49:36.999Z</time></trkpt><trkpt lat="38.16981023901384" lon="15.36540951846038"><ele>129.0</ele><time>2026-04-08T15:49:38.999Z</time></trkpt><trkpt lat="38.169739156124635" lon="15.365330603374641"><ele>129.5</ele><time>2026-04-08T15:49:39.999Z</time></trkpt><trkpt lat="38.16965055357469" lon="15.365224576324584"><ele>130.0</ele><time>2026-04-08T15:49:40.999Z</time></trkpt><trkpt lat="38.16955467377195" lon="15.365100275347071"><ele>130.0</ele><time>2026-04-08T15:49:41.999Z</time></trkpt><trkpt lat="38.16945603199287" lon="15.364987256098074"><ele>130.0</ele><time>2026-04-08T15:49:42.999Z</time></trkpt><trkpt lat="38.169374174173726" lon="15.36487265568164"><ele>130.0</ele><time>2026-04-08T15:49:43.999Z</time></trkpt><trkpt lat="38.169310796007764" lon="15.364789493394639"><ele>130.0</ele><time>2026-04-08T15:49:44.999Z</time></trkpt><trkpt lat="38.16925295391195" lon="15.364698307489395"><ele>130.0</ele><time>2026-04-08T15:49:45.999Z</time></trkpt><trkpt lat="38.16922731007886" lon="15.364576564743222"><ele>128.8</ele><time>2026-04-08T15:49:46.999Z</time></trkpt><trkpt lat="38.169229011156126" lon="15.364444449866507"><ele>127.6</ele><time>2026-04-08T15:49:47.999Z</time></trkpt><trkpt lat="38.16925540114059" lon="15.364312916036347"><ele>126.4</ele><time>2026-04-08T15:49:48.999Z</time></trkpt><trkpt lat="38.16928363864839" lon="15.364213418746722"><ele>125.2</ele><time>2026-04-08T15:49:49.999Z</time></trkpt><trkpt lat="38.16928474134724" lon="15.364066514480143"><ele>124.0</ele><time>2026-04-08T15:49:51.999Z</time></trkpt><trkpt lat="38.169194088409895" lon="15.363980197524292"><ele>124.00000000000001</ele><time>2026-04-08T15:49:53.999Z</time></trkpt><trkpt lat="38.16914199095988" lon="15.364082382635605"><ele>124.0</ele><time>2026-04-08T15:49:54.999Z</time></trkpt><trkpt lat="38.16909035474659" lon="15.36419123076571"><ele>124.0</ele><time>2026-04-08T15:49:56.999Z</time></trkpt><trkpt lat="38.1690619809558" lon="15.364299699955161"><ele>124.0</ele><time>2026-04-08T15:49:58.999Z</time></trkpt><trkpt lat="38.16904730466703" lon="15.364380169291884"><ele>124.00000000000001</ele><time>2026-04-08T15:50:00.999Z</time></trkpt><trkpt lat="38.16903562768563" lon="15.364465330755353"><ele>124.0</ele><time>2026-04-08T15:50:03.999Z</time></trkpt><trkpt lat="38.169070277109704" lon="15.364579795997404"><ele>125.2</ele><time>2026-04-08T15:50:05.999Z</time></trkpt><trkpt lat="38.16904872127443" lon="15.36470221897153"><ele>126.4</ele><time>2026-04-08T15:50:06.999Z</time></trkpt><trkpt lat="38.168963137205054" lon="15.364844781609218"><ele>127.6</ele><time>2026-04-08T15:50:07.999Z</time></trkpt><trkpt lat="38.168913636869" lon="15.364945556585958"><ele>128.8</ele><time>2026-04-08T15:50:08.999Z</time></trkpt><trkpt lat="38.168860102561176" lon="15.365055317590093"><ele>130.0</ele><time>2026-04-08T15:50:09.999Z</time></trkpt><trkpt lat="38.16880278090506" lon="15.365163264083199"><ele>124.25</ele><time>2026-04-08T15:50:10.999Z</time></trkpt><trkpt lat="38.16880619547785" lon="15.365072074260272"><ele>118.5</ele><time>2026-04-08T15:50:15.999Z</time></trkpt><trkpt lat="38.1688493271731" lon="15.364844611546774"><ele>112.75</ele><time>2026-04-08T15:50:16.999Z</time></trkpt><trkpt lat="38.168910197419024" lon="15.364676162341235"><ele>107.0</ele><time>2026-04-08T15:50:17.999Z</time></trkpt><trkpt lat="38.16894352692534" lon="15.364529355581205"><ele>104.5</ele><time>2026-04-08T15:50:18.999Z</time></trkpt><trkpt lat="38.16896350175544" lon="15.364426419670863"><ele>102.0</ele><time>2026-04-08T15:50:19.999Z</time></trkpt><trkpt lat="38.16896046995048" lon="15.364324429284457"><ele>99.5</ele><time>2026-04-08T15:50:21.999Z</time></trkpt><trkpt lat="38.1689187793638" lon="15.364475905828835"><ele>97.0</ele><time>2026-04-08T15:50:24.999Z</time></trkpt><trkpt lat="38.168748048828434" lon="15.364540191025963"><ele>97.0</ele><time>2026-04-08T15:50:25.999Z</time></trkpt><trkpt lat="38.16868996913513" lon="15.364651154999654"><ele>97.0</ele><time>2026-04-08T15:50:26.998Z</time></trkpt><trkpt lat="38.168620808078856" lon="15.364746174924514"><ele>97.0</ele><time>2026-04-08T15:50:27.998Z</time></trkpt><trkpt lat="38.16857128082031" lon="15.36480615483161"><ele>97.0</ele><time>2026-04-08T15:50:28.998Z</time></trkpt><trkpt lat="38.1684952759435" lon="15.36486403957387"><ele>97.0</ele><time>2026-04-08T15:50:30.998Z</time></trkpt><trkpt lat="38.168420383513244" lon="15.364810195904068"><ele>97.0</ele><time>2026-04-08T15:50:31.998Z</time></trkpt><trkpt lat="38.16831129038704" lon="15.364693603606675"><ele>97.0</ele><time>2026-04-08T15:50:32.998Z</time></trkpt><trkpt lat="38.168172381877746" lon="15.364638838743009"><ele>97.0</ele><time>2026-04-08T15:50:33.998Z</time></trkpt><trkpt lat="38.168045839501666" lon="15.364562265889646"><ele>97.0</ele><time>2026-04-08T15:50:35Z</time></trkpt><trkpt lat="38.167923744672244" lon="15.364500168072366"><ele>95.8</ele><time>2026-04-08T15:50:36Z</time></trkpt><trkpt lat="38.1678195734545" lon="15.36442348714185"><ele>94.6</ele><time>2026-04-08T15:50:37Z</time></trkpt><trkpt lat="38.16770337250112" lon="15.364383745568015"><ele>93.39999999999999</ele><time>2026-04-08T15:50:38Z</time></trkpt><trkpt lat="38.16760593366123" lon="15.364403759901238"><ele>92.19999999999999</ele><time>2026-04-08T15:50:39Z</time></trkpt><trkpt lat="38.167512728079345" lon="15.364391802515991"><ele>91.0</ele><time>2026-04-08T15:50:41Z</time></trkpt><trkpt lat="38.167497772203966" lon="15.36426703134392"><ele>91.0</ele><time>2026-04-08T15:50:42Z</time></trkpt><trkpt lat="38.167470152300965" lon="15.364134469359296"><ele>91.0</ele><time>2026-04-08T15:50:43Z</time></trkpt><trkpt lat="38.167451700539594" lon="15.36400231894715"><ele>91.0</ele><time>2026-04-08T15:50:44Z</time></trkpt><trkpt lat="38.167455712091304" lon="15.363863315745391"><ele>91.0</ele><time>2026-04-08T15:50:45Z</time></trkpt><trkpt lat="38.16745623169093" lon="15.363728154225527"><ele>91.0</ele><time>2026-04-08T15:50:46Z</time></trkpt><trkpt lat="38.167452911387514" lon="15.36358224618546"><ele>89.25</ele><time>2026-04-08T15:50:47Z</time></trkpt><trkpt lat="38.16749367593589" lon="15.363431938353969"><ele>87.5</ele><time>2026-04-08T15:50:48Z</time></trkpt><trkpt lat="38.16756657736898" lon="15.363280653416705"><ele>85.75</ele><time>2026-04-08T15:50:49Z</time></trkpt><trkpt lat="38.16764469238752" lon="15.363134143518904"><ele>84.0</ele><time>2026-04-08T15:50:50Z</time></trkpt><trkpt lat="38.167724538516595" lon="15.362977791742473"><ele>83.66666666666667</ele><time>2026-04-08T15:50:51Z</time></trkpt><trkpt lat="38.16780878617371" lon="15.362810808250387"><ele>83.33333333333334</ele><time>2026-04-08T15:50:52Z</time></trkpt><trkpt lat="38.167898078210996" lon="15.36263382696088"><ele>83.0</ele><time>2026-04-08T15:50:53Z</time></trkpt><trkpt lat="38.16798521537783" lon="15.362461116621953"><ele>83.0</ele><time>2026-04-08T15:50:54Z</time></trkpt><trkpt lat="38.168060597295046" lon="15.362302421932341"><ele>83.0</ele><time>2026-04-08T15:50:55Z</time></trkpt><trkpt lat="38.168105312471596" lon="15.362203024376832"><ele>83.0</ele><time>2026-04-08T15:50:56Z</time></trkpt><trkpt lat="38.16812881156233" lon="15.362108549417965"><ele>83.0</ele><time>2026-04-08T15:50:57Z</time></trkpt><trkpt lat="38.16813431573903" lon="15.362020943823019"><ele>83.0</ele><time>2026-04-08T15:50:58Z</time></trkpt><trkpt lat="38.168094268761436" lon="15.361949634337845"><ele>83.0</ele><time>2026-04-08T15:50:59Z</time></trkpt><trkpt lat="38.168051884965486" lon="15.361799354888642"><ele>83.0</ele><time>2026-04-08T15:51:01Z</time></trkpt><trkpt lat="38.16806751546583" lon="15.361703950322465"><ele>83.0</ele><time>2026-04-08T15:51:03Z</time></trkpt><trkpt lat="38.16810824926127" lon="15.361635648190454"><ele>83.0</ele><time>2026-04-08T15:51:04Z</time></trkpt><trkpt lat="38.168120974231314" lon="15.36149143218458"><ele>83.0</ele><time>2026-04-08T15:51:06Z</time></trkpt><trkpt lat="38.168124361826926" lon="15.361400647319046"><ele>82.60000000000001</ele><time>2026-04-08T15:51:07Z</time></trkpt><trkpt lat="38.16804450492339" lon="15.361297794410685"><ele>82.2</ele><time>2026-04-08T15:51:08Z</time></trkpt><trkpt lat="38.16804775693701" lon="15.361199289826983"><ele>81.8</ele><time>2026-04-08T15:51:09Z</time></trkpt><trkpt lat="38.16804725041447" lon="15.361088231753692"><ele>81.4</ele><time>2026-04-08T15:51:11Z</time></trkpt><trkpt lat="38.16799722551551" lon="15.360977385717135"><ele>81.0</ele><time>2026-04-08T15:51:14Z</time></trkpt><trkpt lat="38.167970707626274" lon="15.360880705993807"><ele>81.0</ele><time>2026-04-08T15:51:16Z</time></trkpt><trkpt lat="38.167944862293176" lon="15.360799313581426"><ele>81.0</ele><time>2026-04-08T15:51:18Z</time></trkpt><trkpt lat="38.167941804189226" lon="15.360713629283685"><ele>81.0</ele><time>2026-04-08T15:51:20Z</time></trkpt><trkpt lat="38.167929269197906" lon="15.360574834707105"><ele>81.0</ele><time>2026-04-08T15:51:22Z</time></trkpt><trkpt lat="38.16791439271598" lon="15.360492844438168"><ele>81.0</ele><time>2026-04-08T15:51:23Z</time></trkpt><trkpt lat="38.16790056359259" lon="15.360381200010822"><ele>81.0</ele><time>2026-04-08T15:51:25Z</time></trkpt><trkpt lat="38.167898524191735" lon="15.360279705018842"><ele>80.83333333333333</ele><time>2026-04-08T15:51:27Z</time></trkpt><trkpt lat="38.16791116541907" lon="15.360168342219998"><ele>80.66666666666667</ele><time>2026-04-08T15:51:30Z</time></trkpt><trkpt lat="38.16794049108609" lon="15.36005843878475"><ele>80.5</ele><time>2026-04-08T15:51:32Z</time></trkpt><trkpt lat="38.16796355957595" lon="15.35990806223968"><ele>80.33333333333334</ele><time>2026-04-08T15:51:33.999Z</time></trkpt><trkpt lat="38.16795892859688" lon="15.359812810250173"><ele>80.16666666666667</ele><time>2026-04-08T15:51:34.999Z</time></trkpt><trkpt lat="38.16796329572733" lon="15.359719222667902"><ele>80.0</ele><time>2026-04-08T15:51:35.999Z</time></trkpt><trkpt lat="38.1679788375875" lon="15.359619026021829"><ele>79.6</ele><time>2026-04-08T15:51:36.999Z</time></trkpt><trkpt lat="38.16801026770646" lon="15.359509026021884"><ele>79.2</ele><time>2026-04-08T15:51:37.999Z</time></trkpt><trkpt lat="38.16801826145995" lon="15.359393288958032"><ele>78.8</ele><time>2026-04-08T15:51:38.999Z</time></trkpt><trkpt lat="38.168028812596" lon="15.359271903498616"><ele>78.4</ele><time>2026-04-08T15:51:39.999Z</time></trkpt><trkpt lat="38.16803891692565" lon="15.359144764380341"><ele>78.0</ele><time>2026-04-08T15:51:40.999Z</time></trkpt><trkpt lat="38.168059738257966" lon="15.35901661953154"><ele>78.0</ele><time>2026-04-08T15:51:41.999Z</time></trkpt><trkpt lat="38.16806545541473" lon="15.358882210323264"><ele>78.0</ele><time>2026-04-08T15:51:42.999Z</time></trkpt><trkpt lat="38.168079225772864" lon="15.358741469371564"><ele>78.0</ele><time>2026-04-08T15:51:43.999Z</time></trkpt><trkpt lat="38.16809788952628" lon="15.358602343082998"><ele>78.0</ele><time>2026-04-08T15:51:44.999Z</time></trkpt><trkpt lat="38.16811817354943" lon="15.358477275260006"><ele>78.0</ele><time>2026-04-08T15:51:45.999Z</time></trkpt><trkpt lat="38.16813757513629" lon="15.358354315886958"><ele>78.2</ele><time>2026-04-08T15:51:46.999Z</time></trkpt><trkpt lat="38.16815327553976" lon="15.358239796784513"><ele>78.4</ele><time>2026-04-08T15:51:47.999Z</time></trkpt><trkpt lat="38.168174246808306" lon="15.358117725648492"><ele>78.60000000000001</ele><time>2026-04-08T15:51:48.999Z</time></trkpt><trkpt lat="38.16819545859994" lon="15.357985279664808"><ele>78.8</ele><time>2026-04-08T15:51:49.999Z</time></trkpt><trkpt lat="38.16821662584417" lon="15.35783356120783"><ele>79.0</ele><time>2026-04-08T15:51:50.999Z</time></trkpt><trkpt lat="38.16824253595507" lon="15.357659555863606"><ele>78.0</ele><time>2026-04-08T15:51:51.999Z</time></trkpt><trkpt lat="38.168272699643175" lon="15.357465287903674"><ele>77.0</ele><time>2026-04-08T15:51:52.999Z</time></trkpt><trkpt lat="38.16830816314777" lon="15.35723109483742"><ele>76.0</ele><time>2026-04-08T15:51:53.999Z</time></trkpt><trkpt lat="38.16834308385657" lon="15.356985788992418"><ele>76.0</ele><time>2026-04-08T15:51:54.999Z</time></trkpt><trkpt lat="38.16837216366458" lon="15.356745152981862"><ele>76.0</ele><time>2026-04-08T15:51:55.999Z</time></trkpt><trkpt lat="38.168410583738144" lon="15.356542069824888"><ele>76.0</ele><time>2026-04-08T15:51:56.999Z</time></trkpt><trkpt lat="38.168444683003216" lon="15.356342264848767"><ele>75.66666666666666</ele><time>2026-04-08T15:51:57.999Z</time></trkpt><trkpt lat="38.16847657099009" lon="15.356145499775433"><ele>75.33333333333333</ele><time>2026-04-08T15:51:58.999Z</time></trkpt><trkpt lat="38.16851051398582" lon="15.35594397928802"><ele>75.0</ele><time>2026-04-08T15:51:59.999Z</time></trkpt><trkpt lat="38.16854347489025" lon="15.355744287969484"><ele>75.0</ele><time>2026-04-08T15:52:00.999Z</time></trkpt><trkpt lat="38.16857835818805" lon="15.355558464656621"><ele>75.0</ele><time>2026-04-08T15:52:01.999Z</time></trkpt><trkpt lat="38.16861313280694" lon="15.355357565790209"><ele>75.0</ele><time>2026-04-08T15:52:02.999Z</time></trkpt><trkpt lat="38.16864458630064" lon="15.355148751517905"><ele>75.0</ele><time>2026-04-08T15:52:03.999Z</time></trkpt><trkpt lat="38.16867924410055" lon="15.354938333662016"><ele>75.0</ele><time>2026-04-08T15:52:04.999Z</time></trkpt><trkpt lat="38.16871594066892" lon="15.35472248677062"><ele>75.0</ele><time>2026-04-08T15:52:05.999Z</time></trkpt><trkpt lat="38.16875414922525" lon="15.3545080249226"><ele>75.0</ele><time>2026-04-08T15:52:06.999Z</time></trkpt><trkpt lat="38.16880239949734" lon="15.354307982405668"><ele>75.0</ele><time>2026-04-08T15:52:07.999Z</time></trkpt><trkpt lat="38.16886201497848" lon="15.354123634119242"><ele>75.0</ele><time>2026-04-08T15:52:08.999Z</time></trkpt><trkpt lat="38.16892792173119" lon="15.353944252299948"><ele>75.0</ele><time>2026-04-08T15:52:09.999Z</time></trkpt><trkpt lat="38.168999853707234" lon="15.353762109426865"><ele>75.0</ele><time>2026-04-08T15:52:10.999Z</time></trkpt><trkpt lat="38.16907655252235" lon="15.353586355940184"><ele>75.0</ele><time>2026-04-08T15:52:11.999Z</time></trkpt><trkpt lat="38.16915721867314" lon="15.353426486865011"><ele>74.75</ele><time>2026-04-08T15:52:12.999Z</time></trkpt><trkpt lat="38.169238065135886" lon="15.35327633989466"><ele>74.5</ele><time>2026-04-08T15:52:13.999Z</time></trkpt><trkpt lat="38.16932316960836" lon="15.353125421421163"><ele>74.25</ele><time>2026-04-08T15:52:14.999Z</time></trkpt><trkpt lat="38.169408056798716" lon="15.35297726999113"><ele>74.0</ele><time>2026-04-08T15:52:15.999Z</time></trkpt><trkpt lat="38.16949478937699" lon="15.352832210618667"><ele>73.5</ele><time>2026-04-08T15:52:16.999Z</time></trkpt><trkpt lat="38.169584349224635" lon="15.35269058750119"><ele>73.0</ele><time>2026-04-08T15:52:17.999Z</time></trkpt><trkpt lat="38.16968012987375" lon="15.35255225701071"><ele>72.5</ele><time>2026-04-08T15:52:18.999Z</time></trkpt><trkpt lat="38.16978284732786" lon="15.352423289046433"><ele>72.0</ele><time>2026-04-08T15:52:19.999Z</time></trkpt><trkpt lat="38.16989017777736" lon="15.352300333016986"><ele>71.66666666666667</ele><time>2026-04-08T15:52:20.999Z</time></trkpt><trkpt lat="38.17000576744397" lon="15.352171669678238"><ele>71.33333333333334</ele><time>2026-04-08T15:52:21.999Z</time></trkpt><trkpt lat="38.170118586090936" lon="15.352050247761724"><ele>71.0</ele><time>2026-04-08T15:52:22.999Z</time></trkpt><trkpt lat="38.17023398826499" lon="15.35192926784094"><ele>71.0</ele><time>2026-04-08T15:52:23.999Z</time></trkpt><trkpt lat="38.170347395788944" lon="15.351802251636895"><ele>71.0</ele><time>2026-04-08T15:52:24.999Z</time></trkpt><trkpt lat="38.17046143965788" lon="15.351675596344357"><ele>71.0</ele><time>2026-04-08T15:52:25.999Z</time></trkpt><trkpt lat="38.17057983858511" lon="15.351562341653983"><ele>71.66666666666667</ele><time>2026-04-08T15:52:26.999Z</time></trkpt><trkpt lat="38.17070634927504" lon="15.351464347217165"><ele>72.33333333333333</ele><time>2026-04-08T15:52:27.999Z</time></trkpt><trkpt lat="38.1708518137289" lon="15.351385569200023"><ele>73.0</ele><time>2026-04-08T15:52:28.999Z</time></trkpt><trkpt lat="38.17100598889857" lon="15.351317541129"><ele>73.0</ele><time>2026-04-08T15:52:29.998Z</time></trkpt><trkpt lat="38.171166589586015" lon="15.351257731686164"><ele>73.0</ele><time>2026-04-08T15:52:30.998Z</time></trkpt><trkpt lat="38.171332013255444" lon="15.351199847063542"><ele>73.0</ele><time>2026-04-08T15:52:31.998Z</time></trkpt><trkpt lat="38.17150085108829" lon="15.351140339913604"><ele>71.66666666666666</ele><time>2026-04-08T15:52:32.998Z</time></trkpt><trkpt lat="38.171664218788145" lon="15.35108256727062"><ele>70.33333333333333</ele><time>2026-04-08T15:52:33.998Z</time></trkpt><trkpt lat="38.17183162569113" lon="15.351022759127732"><ele>69.0</ele><time>2026-04-08T15:52:34.998Z</time></trkpt><trkpt lat="38.1719958936319" lon="15.350962912385604"><ele>69.0</ele><time>2026-04-08T15:52:35.998Z</time></trkpt><trkpt lat="38.17217116289028" lon="15.350898385270204"><ele>69.0</ele><time>2026-04-08T15:52:36.998Z</time></trkpt><trkpt lat="38.17233402812042" lon="15.350838841613411"><ele>69.0</ele><time>2026-04-08T15:52:37.998Z</time></trkpt><trkpt lat="38.172504627098256" lon="15.350777770916634"><ele>68.66666666666667</ele><time>2026-04-08T15:52:38.998Z</time></trkpt><trkpt lat="38.17266406872805" lon="15.350713362670696"><ele>68.33333333333334</ele><time>2026-04-08T15:52:39.998Z</time></trkpt><trkpt lat="38.17282792706524" lon="15.350650223848106"><ele>68.0</ele><time>2026-04-08T15:52:41Z</time></trkpt><trkpt lat="38.17299908909438" lon="15.350588598001192"><ele>69.66666666666667</ele><time>2026-04-08T15:52:42Z</time></trkpt><trkpt lat="38.173158531829856" lon="15.35052677401057"><ele>71.33333333333333</ele><time>2026-04-08T15:52:43Z</time></trkpt><trkpt lat="38.173321180588616" lon="15.3504623909362"><ele>73.0</ele><time>2026-04-08T15:52:44Z</time></trkpt><trkpt lat="38.17348545517586" lon="15.350394190171436"><ele>73.0</ele><time>2026-04-08T15:52:45Z</time></trkpt><trkpt lat="38.17364352413576" lon="15.350332596719841"><ele>73.0</ele><time>2026-04-08T15:52:46Z</time></trkpt><trkpt lat="38.17380398464105" lon="15.350271672733859"><ele>73.0</ele><time>2026-04-08T15:52:47Z</time></trkpt><trkpt lat="38.173967724670426" lon="15.350205531413147"><ele>70.33333333333333</ele><time>2026-04-08T15:52:48Z</time></trkpt><trkpt lat="38.17413013678186" lon="15.350137711011323"><ele>67.66666666666667</ele><time>2026-04-08T15:52:49Z</time></trkpt><trkpt lat="38.17429400835281" lon="15.350068841462734"><ele>65.0</ele><time>2026-04-08T15:52:50Z</time></trkpt><trkpt lat="38.17444964670048" lon="15.349985076278804"><ele>65.0</ele><time>2026-04-08T15:52:51Z</time></trkpt><trkpt lat="38.174590977482076" lon="15.349878972477587"><ele>65.0</ele><time>2026-04-08T15:52:52Z</time></trkpt><trkpt lat="38.17472236510263" lon="15.349743731462281"><ele>65.0</ele><time>2026-04-08T15:52:53Z</time></trkpt><trkpt lat="38.174841730044626" lon="15.34958860942077"><ele>64.0</ele><time>2026-04-08T15:52:54Z</time></trkpt><trkpt lat="38.17495483767368" lon="15.349425597689972"><ele>63.0</ele><time>2026-04-08T15:52:55Z</time></trkpt><trkpt lat="38.175067461404204" lon="15.349256604823362"><ele>62.0</ele><time>2026-04-08T15:52:56Z</time></trkpt><trkpt lat="38.175180441837725" lon="15.349087750285864"><ele>62.0</ele><time>2026-04-08T15:52:57Z</time></trkpt><trkpt lat="38.17529256697096" lon="15.348920396574783"><ele>62.0</ele><time>2026-04-08T15:52:58Z</time></trkpt><trkpt lat="38.17540830752188" lon="15.348761020380417"><ele>62.0</ele><time>2026-04-08T15:52:59Z</time></trkpt><trkpt lat="38.175512032955076" lon="15.348586592561944"><ele>62.333333333333336</ele><time>2026-04-08T15:53:00Z</time></trkpt><trkpt lat="38.175625727736836" lon="15.348421874458321"><ele>62.66666666666667</ele><time>2026-04-08T15:53:01Z</time></trkpt><trkpt lat="38.17574526183607" lon="15.348256525618885"><ele>63.0</ele><time>2026-04-08T15:53:02Z</time></trkpt><trkpt lat="38.175877351784955" lon="15.348114504207514"><ele>61.33333333333333</ele><time>2026-04-08T15:53:03Z</time></trkpt><trkpt lat="38.17599637638254" lon="15.347965117524387"><ele>59.666666666666664</ele><time>2026-04-08T15:53:04Z</time></trkpt><trkpt lat="38.17612530741406" lon="15.347819830477604"><ele>58.0</ele><time>2026-04-08T15:53:05Z</time></trkpt><trkpt lat="38.17624870370107" lon="15.347663541169169"><ele>58.0</ele><time>2026-04-08T15:53:06Z</time></trkpt><trkpt lat="38.1763888886646" lon="15.347518366499768"><ele>58.0</ele><time>2026-04-08T15:53:07Z</time></trkpt><trkpt lat="38.176529212681984" lon="15.347401405118012"><ele>58.0</ele><time>2026-04-08T15:53:08Z</time></trkpt><trkpt lat="38.17666793867599" lon="15.347272170620084"><ele>58.33333333333333</ele><time>2026-04-08T15:53:09Z</time></trkpt><trkpt lat="38.17680917752655" lon="15.347147045881696"><ele>58.66666666666667</ele><time>2026-04-08T15:53:10Z</time></trkpt><trkpt lat="38.17695483986389" lon="15.347026473450228"><ele>59.0</ele><time>2026-04-08T15:53:11Z</time></trkpt><trkpt lat="38.17710756571172" lon="15.346909441385744"><ele>59.0</ele><time>2026-04-08T15:53:12Z</time></trkpt><trkpt lat="38.17724873379031" lon="15.346772461221853"><ele>59.0</ele><time>2026-04-08T15:53:13Z</time></trkpt><trkpt lat="38.177400727574984" lon="15.346649908913733"><ele>59.0</ele><time>2026-04-08T15:53:14Z</time></trkpt><trkpt lat="38.17755244520348" lon="15.346526299497341"><ele>58.0</ele><time>2026-04-08T15:53:15Z</time></trkpt><trkpt lat="38.17770077200365" lon="15.346405452706518"><ele>57.0</ele><time>2026-04-08T15:53:16Z</time></trkpt><trkpt lat="38.17785064422694" lon="15.346284537716546"><ele>56.0</ele><time>2026-04-08T15:53:17Z</time></trkpt><trkpt lat="38.17799968192027" lon="15.346163899020604"><ele>56.0</ele><time>2026-04-08T15:53:18Z</time></trkpt><trkpt lat="38.17815192239575" lon="15.346040667816347"><ele>56.0</ele><time>2026-04-08T15:53:19Z</time></trkpt><trkpt lat="38.178307311865126" lon="15.345933495948312"><ele>56.0</ele><time>2026-04-08T15:53:20Z</time></trkpt><trkpt lat="38.178456835331666" lon="15.34581312670805"><ele>56.333333333333336</ele><time>2026-04-08T15:53:21Z</time></trkpt><trkpt lat="38.17860780996299" lon="15.345694821649683"><ele>56.66666666666667</ele><time>2026-04-08T15:53:22Z</time></trkpt><trkpt lat="38.178749930177126" lon="15.345555170963443"><ele>57.0</ele><time>2026-04-08T15:53:23Z</time></trkpt><trkpt lat="38.17891549916935" lon="15.345461348954242"><ele>55.33333333333333</ele><time>2026-04-08T15:53:24Z</time></trkpt><trkpt lat="38.17907216345902" lon="15.345354767496547"><ele>53.666666666666664</ele><time>2026-04-08T15:53:25Z</time></trkpt><trkpt lat="38.1792318261381" lon="15.345260702640285"><ele>52.0</ele><time>2026-04-08T15:53:26Z</time></trkpt><trkpt lat="38.179385596867434" lon="15.345172845853801"><ele>52.0</ele><time>2026-04-08T15:53:27Z</time></trkpt><trkpt lat="38.17953055840648" lon="15.345090263030256"><ele>52.0</ele><time>2026-04-08T15:53:28Z</time></trkpt><trkpt lat="38.17967020836413" lon="15.345006306089202"><ele>52.0</ele><time>2026-04-08T15:53:29Z</time></trkpt><trkpt lat="38.1798077628181" lon="15.344927261173455"><ele>52.0</ele><time>2026-04-08T15:53:30Z</time></trkpt><trkpt lat="38.17995025876424" lon="15.344860372212853"><ele>52.0</ele><time>2026-04-08T15:53:31Z</time></trkpt><trkpt lat="38.180101147620945" lon="15.344824880196429"><ele>52.0</ele><time>2026-04-08T15:53:32Z</time></trkpt><trkpt lat="38.18024773086673" lon="15.344864314326573"><ele>52.0</ele><time>2026-04-08T15:53:33Z</time></trkpt><trkpt lat="38.180402021138185" lon="15.34490361463974"><ele>52.0</ele><time>2026-04-08T15:53:34Z</time></trkpt><trkpt lat="38.18056122457182" lon="15.344918140500283"><ele>52.0</ele><time>2026-04-08T15:53:35Z</time></trkpt><trkpt lat="38.18072422626563" lon="15.344921974014374"><ele>51.666666666666664</ele><time>2026-04-08T15:53:36Z</time></trkpt><trkpt lat="38.180891735990556" lon="15.344889950749527"><ele>51.33333333333333</ele><time>2026-04-08T15:53:37Z</time></trkpt><trkpt lat="38.18105667836865" lon="15.344850980193842"><ele>51.0</ele><time>2026-04-08T15:53:38Z</time></trkpt><trkpt lat="38.18121331350994" lon="15.344816986089063"><ele>51.0</ele><time>2026-04-08T15:53:39Z</time></trkpt><trkpt lat="38.181365751225634" lon="15.344793429277917"><ele>51.0</ele><time>2026-04-08T15:53:39.999Z</time></trkpt><trkpt lat="38.181519847840775" lon="15.344786099619514"><ele>51.0</ele><time>2026-04-08T15:53:40.999Z</time></trkpt><trkpt lat="38.1816703995665" lon="15.344813820269163"><ele>50.0</ele><time>2026-04-08T15:53:41.999Z</time></trkpt><trkpt lat="38.18182149668283" lon="15.344894960856019"><ele>49.0</ele><time>2026-04-08T15:53:42.999Z</time></trkpt><trkpt lat="38.18198652893968" lon="15.344952046402986"><ele>48.0</ele><time>2026-04-08T15:53:43.999Z</time></trkpt><trkpt lat="38.1821574817763" lon="15.345028520019598"><ele>48.0</ele><time>2026-04-08T15:53:44.999Z</time></trkpt><trkpt lat="38.18232546823495" lon="15.345078536770004"><ele>48.0</ele><time>2026-04-08T15:53:45.999Z</time></trkpt><trkpt lat="38.18249805519175" lon="15.34511705590488"><ele>48.0</ele><time>2026-04-08T15:53:46.999Z</time></trkpt><trkpt lat="38.18267221643379" lon="15.345143315826649"><ele>47.666666666666664</ele><time>2026-04-08T15:53:47.999Z</time></trkpt><trkpt lat="38.182844651060215" lon="15.345152109969332"><ele>47.33333333333333</ele><time>2026-04-08T15:53:48.999Z</time></trkpt><trkpt lat="38.18301818097688" lon="15.345141623876481"><ele>47.0</ele><time>2026-04-08T15:53:49.999Z</time></trkpt><trkpt lat="38.183174767346195" lon="15.345116381272838"><ele>46.25</ele><time>2026-04-08T15:53:50.999Z</time></trkpt><trkpt lat="38.18331838888389" lon="15.345083797228298"><ele>45.5</ele><time>2026-04-08T15:53:51.999Z</time></trkpt><trkpt lat="38.18344977422812" lon="15.345056663695695"><ele>44.75</ele><time>2026-04-08T15:53:52.999Z</time></trkpt><trkpt lat="38.183567292991874" lon="15.345030887707685"><ele>44.0</ele><time>2026-04-08T15:53:53.999Z</time></trkpt><trkpt lat="38.18367068485371" lon="15.345004543012235"><ele>44.0</ele><time>2026-04-08T15:53:54.999Z</time></trkpt><trkpt lat="38.183762188889155" lon="15.344984972952284"><ele>44.0</ele><time>2026-04-08T15:53:55.999Z</time></trkpt><trkpt lat="38.183840235002855" lon="15.3449704733577"><ele>44.0</ele><time>2026-04-08T15:53:56.999Z</time></trkpt><trkpt lat="38.18391718701307" lon="15.34494534384472"><ele>44.0</ele><time>2026-04-08T15:53:57.999Z</time></trkpt><trkpt lat="38.18399301634264" lon="15.344918697519995"><ele>44.0</ele><time>2026-04-08T15:53:58.999Z</time></trkpt><trkpt lat="38.18407820544284" lon="15.344911614359486"><ele>44.0</ele><time>2026-04-08T15:53:59.999Z</time></trkpt><trkpt lat="38.184181433958926" lon="15.344928010997341"><ele>44.25</ele><time>2026-04-08T15:54:00.999Z</time></trkpt><trkpt lat="38.18430148082478" lon="15.344955279182322"><ele>44.5</ele><time>2026-04-08T15:54:01.999Z</time></trkpt><trkpt lat="38.18442273004012" lon="15.344987310015082"><ele>44.75</ele><time>2026-04-08T15:54:02.999Z</time></trkpt><trkpt lat="38.1845511694951" lon="15.345024514391403"><ele>45.0</ele><time>2026-04-08T15:54:03.999Z</time></trkpt><trkpt lat="38.184683542493" lon="15.345073118616234"><ele>45.0</ele><time>2026-04-08T15:54:04.999Z</time></trkpt><trkpt lat="38.18481986533796" lon="15.345129122259003"><ele>45.0</ele><time>2026-04-08T15:54:05.999Z</time></trkpt><trkpt lat="38.18496687486913" lon="15.34519584452299"><ele>45.0</ele><time>2026-04-08T15:54:06.999Z</time></trkpt><trkpt lat="38.18510400053435" lon="15.345255613534466"><ele>45.0</ele><time>2026-04-08T15:54:07.999Z</time></trkpt><trkpt lat="38.18524566726678" lon="15.345310618346614"><ele>45.0</ele><time>2026-04-08T15:54:08.999Z</time></trkpt><trkpt lat="38.185385937603726" lon="15.34536253348237"><ele>45.0</ele><time>2026-04-08T15:54:09.999Z</time></trkpt><trkpt lat="38.185523974438574" lon="15.345414651612401"><ele>45.0</ele><time>2026-04-08T15:54:10.999Z</time></trkpt><trkpt lat="38.18566819452051" lon="15.345450077352332"><ele>45.0</ele><time>2026-04-08T15:54:11.999Z</time></trkpt><trkpt lat="38.1858120454244" lon="15.345459813098826"><ele>44.5</ele><time>2026-04-08T15:54:12.999Z</time></trkpt><trkpt lat="38.18594955662848" lon="15.345446803958897"><ele>44.0</ele><time>2026-04-08T15:54:13.999Z</time></trkpt><trkpt lat="38.18609161950329" lon="15.345422238733555"><ele>43.5</ele><time>2026-04-08T15:54:14.999Z</time></trkpt><trkpt lat="38.18622160094976" lon="15.345391994906212"><ele>43.0</ele><time>2026-04-08T15:54:15.999Z</time></trkpt><trkpt lat="38.18636292724386" lon="15.345353296770197"><ele>43.0</ele><time>2026-04-08T15:54:16.999Z</time></trkpt><trkpt lat="38.18650231452654" lon="15.345308264145002"><ele>43.0</ele><time>2026-04-08T15:54:17.999Z</time></trkpt><trkpt lat="38.18663427584341" lon="15.345266485398936"><ele>43.0</ele><time>2026-04-08T15:54:18.999Z</time></trkpt><trkpt lat="38.186767877588466" lon="15.345228056750523"><ele>43.0</ele><time>2026-04-08T15:54:19.999Z</time></trkpt><trkpt lat="38.18690242761681" lon="15.345187128684245"><ele>42.75</ele><time>2026-04-08T15:54:20.999Z</time></trkpt><trkpt lat="38.18704104214368" lon="15.345151915329483"><ele>42.5</ele><time>2026-04-08T15:54:21.999Z</time></trkpt><trkpt lat="38.18717407229699" lon="15.345119652066304"><ele>42.25</ele><time>2026-04-08T15:54:22.999Z</time></trkpt><trkpt lat="38.18730936079584" lon="15.345081012102785"><ele>42.0</ele><time>2026-04-08T15:54:23.999Z</time></trkpt><trkpt lat="38.187451842299815" lon="15.345042303799183"><ele>41.0</ele><time>2026-04-08T15:54:24.999Z</time></trkpt><trkpt lat="38.18759424254117" lon="15.345004676044091"><ele>40.0</ele><time>2026-04-08T15:54:25.999Z</time></trkpt><trkpt lat="38.1877409308921" lon="15.344972811041238"><ele>39.0</ele><time>2026-04-08T15:54:26.999Z</time></trkpt><trkpt lat="38.187894322975744" lon="15.34494142163756"><ele>39.0</ele><time>2026-04-08T15:54:27.999Z</time></trkpt><trkpt lat="38.18804618841099" lon="15.344897439915599"><ele>39.0</ele><time>2026-04-08T15:54:28.999Z</time></trkpt><trkpt lat="38.188193791418755" lon="15.34485089253981"><ele>39.0</ele><time>2026-04-08T15:54:29.999Z</time></trkpt><trkpt lat="38.18833287138241" lon="15.344796178803351"><ele>39.25</ele><time>2026-04-08T15:54:30.999Z</time></trkpt><trkpt lat="38.18845825473346" lon="15.344709283156279"><ele>39.5</ele><time>2026-04-08T15:54:31.999Z</time></trkpt><trkpt lat="38.18857899352362" lon="15.34461513406216"><ele>39.75</ele><time>2026-04-08T15:54:32.999Z</time></trkpt><trkpt lat="38.18870094966946" lon="15.344502987920993"><ele>40.0</ele><time>2026-04-08T15:54:33.999Z</time></trkpt><trkpt lat="38.18882944088648" lon="15.344383411869943"><ele>40.0</ele><time>2026-04-08T15:54:34.999Z</time></trkpt><trkpt lat="38.18895184333" lon="15.344269505603739"><ele>40.0</ele><time>2026-04-08T15:54:35.998Z</time></trkpt><trkpt lat="38.18907044285246" lon="15.344159134663698"><ele>40.0</ele><time>2026-04-08T15:54:36.998Z</time></trkpt><trkpt lat="38.18918703333336" lon="15.344050633378158"><ele>40.0</ele><time>2026-04-08T15:54:37.998Z</time></trkpt><trkpt lat="38.189299609650455" lon="15.343945867759503"><ele>39.5</ele><time>2026-04-08T15:54:38.998Z</time></trkpt><trkpt lat="38.18940586536557" lon="15.343846984201768"><ele>39.0</ele><time>2026-04-08T15:54:39.998Z</time></trkpt><trkpt lat="38.189512795577464" lon="15.343747558304965"><ele>38.5</ele><time>2026-04-08T15:54:40.998Z</time></trkpt><trkpt lat="38.189619760897074" lon="15.343648251601785"><ele>38.0</ele><time>2026-04-08T15:54:41.998Z</time></trkpt><trkpt lat="38.18972648861147" lon="15.34354700009295"><ele>38.0</ele><time>2026-04-08T15:54:42.998Z</time></trkpt><trkpt lat="38.18983267015525" lon="15.343445693680078"><ele>38.0</ele><time>2026-04-08T15:54:43.998Z</time></trkpt><trkpt lat="38.18993794829833" lon="15.34333931278332"><ele>38.0</ele><time>2026-04-08T15:54:44.998Z</time></trkpt><trkpt lat="38.19004061798122" lon="15.343231796124886"><ele>38.0</ele><time>2026-04-08T15:54:45.998Z</time></trkpt><trkpt lat="38.19014426565523" lon="15.343119116103404"><ele>37.5</ele><time>2026-04-08T15:54:47Z</time></trkpt><trkpt lat="38.19024876928392" lon="15.343001565532827"><ele>37.0</ele><time>2026-04-08T15:54:48Z</time></trkpt><trkpt lat="38.190354429531354" lon="15.34287865781986"><ele>36.5</ele><time>2026-04-08T15:54:49Z</time></trkpt><trkpt lat="38.19046121367164" lon="15.342748096584902"><ele>36.0</ele><time>2026-04-08T15:54:50Z</time></trkpt><trkpt lat="38.19056524438372" lon="15.34261844572053"><ele>36.0</ele><time>2026-04-08T15:54:51Z</time></trkpt><trkpt lat="38.190669749496216" lon="15.342486840923973"><ele>36.0</ele><time>2026-04-08T15:54:52Z</time></trkpt><trkpt lat="38.19078028692546" lon="15.342348328600695"><ele>36.0</ele><time>2026-04-08T15:54:53Z</time></trkpt><trkpt lat="38.19089043531703" lon="15.34221022057478"><ele>35.666666666666664</ele><time>2026-04-08T15:54:54Z</time></trkpt><trkpt lat="38.19100057348633" lon="15.34207164854309"><ele>35.33333333333333</ele><time>2026-04-08T15:54:55Z</time></trkpt><trkpt lat="38.191112929022616" lon="15.341930286690753"><ele>35.0</ele><time>2026-04-08T15:54:56Z</time></trkpt><trkpt lat="38.19122610952691" lon="15.341788433256877"><ele>35.0</ele><time>2026-04-08T15:54:57Z</time></trkpt><trkpt lat="38.19134090786974" lon="15.34164456687016"><ele>35.0</ele><time>2026-04-08T15:54:58Z</time></trkpt><trkpt lat="38.191451769551385" lon="15.341505704233466"><ele>35.0</ele><time>2026-04-08T15:54:59Z</time></trkpt><trkpt lat="38.191569575052526" lon="15.341384902301641"><ele>34.33333333333333</ele><time>2026-04-08T15:55:00Z</time></trkpt><trkpt lat="38.191679242609595" lon="15.341248176601022"><ele>33.666666666666664</ele><time>2026-04-08T15:55:01Z</time></trkpt><trkpt lat="38.19179366771641" lon="15.34110710527796"><ele>33.0</ele><time>2026-04-08T15:55:02Z</time></trkpt><trkpt lat="38.19189807417471" lon="15.340971050575552"><ele>33.0</ele><time>2026-04-08T15:55:03Z</time></trkpt><trkpt lat="38.19199480050557" lon="15.340844932506904"><ele>33.0</ele><time>2026-04-08T15:55:04Z</time></trkpt><trkpt lat="38.19208826104341" lon="15.340725089394173"><ele>33.0</ele><time>2026-04-08T15:55:05Z</time></trkpt><trkpt lat="38.1921791025367" lon="15.340609549561794"><ele>33.0</ele><time>2026-04-08T15:55:06Z</time></trkpt><trkpt lat="38.19227855507977" lon="15.340495926053327"><ele>32.5</ele><time>2026-04-08T15:55:07Z</time></trkpt><trkpt lat="38.19236902965157" lon="15.340362183269031"><ele>32.0</ele><time>2026-04-08T15:55:08Z</time></trkpt><trkpt lat="38.19247396001543" lon="15.340261170408514"><ele>31.5</ele><time>2026-04-08T15:55:09Z</time></trkpt><trkpt lat="38.19257141811977" lon="15.340150816897639"><ele>31.0</ele><time>2026-04-08T15:55:10Z</time></trkpt><trkpt lat="38.192685550145306" lon="15.340038862435302"><ele>31.0</ele><time>2026-04-08T15:55:11Z</time></trkpt><trkpt lat="38.19280467314887" lon="15.339922848446733"><ele>31.0</ele><time>2026-04-08T15:55:12Z</time></trkpt><trkpt lat="38.19292886853869" lon="15.339801457757108"><ele>31.0</ele><time>2026-04-08T15:55:13Z</time></trkpt><trkpt lat="38.193062957476755" lon="15.339675990944821"><ele>30.666666666666668</ele><time>2026-04-08T15:55:14Z</time></trkpt><trkpt lat="38.193199333755366" lon="15.339556388540567"><ele>30.333333333333336</ele><time>2026-04-08T15:55:15Z</time></trkpt><trkpt lat="38.193342802126914" lon="15.339430077275798"><ele>30.0</ele><time>2026-04-08T15:55:16Z</time></trkpt><trkpt lat="38.19347737409658" lon="15.339309958044716"><ele>30.0</ele><time>2026-04-08T15:55:17Z</time></trkpt><trkpt lat="38.193615185952076" lon="15.339186066484089"><ele>30.0</ele><time>2026-04-08T15:55:18Z</time></trkpt><trkpt lat="38.193755824824656" lon="15.33905763665898"><ele>30.0</ele><time>2026-04-08T15:55:19Z</time></trkpt><trkpt lat="38.19389493180565" lon="15.338932723134164"><ele>29.333333333333336</ele><time>2026-04-08T15:55:20Z</time></trkpt><trkpt lat="38.19403241474993" lon="15.338812822166233"><ele>28.666666666666668</ele><time>2026-04-08T15:55:21Z</time></trkpt><trkpt lat="38.19416893120598" lon="15.338691476692267"><ele>28.0</ele><time>2026-04-08T15:55:22Z</time></trkpt><trkpt lat="38.19430251283748" lon="15.338573220033435"><ele>28.0</ele><time>2026-04-08T15:55:23Z</time></trkpt><trkpt lat="38.19443835800512" lon="15.338451382529438"><ele>28.0</ele><time>2026-04-08T15:55:24Z</time></trkpt><trkpt lat="38.194571731016865" lon="15.33833127081822"><ele>28.0</ele><time>2026-04-08T15:55:25Z</time></trkpt><trkpt lat="38.194701202261946" lon="15.33822345669786"><ele>28.0</ele><time>2026-04-08T15:55:26Z</time></trkpt><trkpt lat="38.194835646591756" lon="15.338124798577686"><ele>28.0</ele><time>2026-04-08T15:55:27Z</time></trkpt><trkpt lat="38.19497568369205" lon="15.338033869275916"><ele>28.0</ele><time>2026-04-08T15:55:28Z</time></trkpt><trkpt lat="38.19512051290726" lon="15.337949589512185"><ele>28.333333333333336</ele><time>2026-04-08T15:55:29Z</time></trkpt><trkpt lat="38.19526785657444" lon="15.33787050101005"><ele>28.666666666666664</ele><time>2026-04-08T15:55:30Z</time></trkpt><trkpt lat="38.19541660677081" lon="15.337794034967487"><ele>29.0</ele><time>2026-04-08T15:55:31Z</time></trkpt><trkpt lat="38.195565701606625" lon="15.337719993732623"><ele>28.333333333333332</ele><time>2026-04-08T15:55:32Z</time></trkpt><trkpt lat="38.19571767657125" lon="15.337646304396467"><ele>27.666666666666664</ele><time>2026-04-08T15:55:33Z</time></trkpt><trkpt lat="38.1958662786017" lon="15.337568351554005"><ele>27.0</ele><time>2026-04-08T15:55:34Z</time></trkpt><trkpt lat="38.19601681008748" lon="15.337490939032719"><ele>27.0</ele><time>2026-04-08T15:55:35Z</time></trkpt><trkpt lat="38.19616696851057" lon="15.337413949961888"><ele>27.0</ele><time>2026-04-08T15:55:36Z</time></trkpt><trkpt lat="38.19632513502411" lon="15.33733733988063"><ele>27.0</ele><time>2026-04-08T15:55:37Z</time></trkpt><trkpt lat="38.1964826136892" lon="15.337263305816855"><ele>26.333333333333336</ele><time>2026-04-08T15:55:38Z</time></trkpt><trkpt lat="38.19664316403691" lon="15.337180659793903"><ele>25.666666666666668</ele><time>2026-04-08T15:55:39Z</time></trkpt><trkpt lat="38.1968043353263" lon="15.337097217855678"><ele>25.0</ele><time>2026-04-08T15:55:40Z</time></trkpt><trkpt lat="38.196965478290025" lon="15.337014092406546"><ele>25.0</ele><time>2026-04-08T15:55:41Z</time></trkpt><trkpt lat="38.19712673477593" lon="15.336936302779426"><ele>25.0</ele><time>2026-04-08T15:55:42Z</time></trkpt><trkpt lat="38.197285499582186" lon="15.336856907014905"><ele>25.0</ele><time>2026-04-08T15:55:43Z</time></trkpt><trkpt lat="38.19744440958783" lon="15.33677571462406"><ele>24.666666666666668</ele><time>2026-04-08T15:55:43.999Z</time></trkpt><trkpt lat="38.197601896675046" lon="15.336695036243691"><ele>24.333333333333336</ele><time>2026-04-08T15:55:44.999Z</time></trkpt><trkpt lat="38.197751366177954" lon="15.336611409424696"><ele>24.0</ele><time>2026-04-08T15:55:45.999Z</time></trkpt><trkpt lat="38.19788793141993" lon="15.33649739523672"><ele>24.0</ele><time>2026-04-08T15:55:46.999Z</time></trkpt><trkpt lat="38.198035122918846" lon="15.336407347650248"><ele>24.0</ele><time>2026-04-08T15:55:47.999Z</time></trkpt><trkpt lat="38.198171905290195" lon="15.33628597150089"><ele>24.0</ele><time>2026-04-08T15:55:48.999Z</time></trkpt><trkpt lat="38.198304996840086" lon="15.336163089145591"><ele>24.0</ele><time>2026-04-08T15:55:49.999Z</time></trkpt><trkpt lat="38.198431031188406" lon="15.336039196567537"><ele>24.0</ele><time>2026-04-08T15:55:50.999Z</time></trkpt><trkpt lat="38.198558196736336" lon="15.335915960488649"><ele>24.0</ele><time>2026-04-08T15:55:51.999Z</time></trkpt><trkpt lat="38.198685802594895" lon="15.33579902037909"><ele>24.0</ele><time>2026-04-08T15:55:52.999Z</time></trkpt><trkpt lat="38.1988160445853" lon="15.335678789389455"><ele>24.0</ele><time>2026-04-08T15:55:53.999Z</time></trkpt><trkpt lat="38.1989417159226" lon="15.335554276705894"><ele>24.0</ele><time>2026-04-08T15:55:54.999Z</time></trkpt><trkpt lat="38.19906740010801" lon="15.33543195657315"><ele>23.0</ele><time>2026-04-08T15:55:55.999Z</time></trkpt><trkpt lat="38.199198072532326" lon="15.335309598852158"><ele>22.0</ele><time>2026-04-08T15:55:56.999Z</time></trkpt><trkpt lat="38.19933207942225" lon="15.33518845838448"><ele>21.0</ele><time>2026-04-08T15:55:57.999Z</time></trkpt><trkpt lat="38.19947096821146" lon="15.335062752079908"><ele>21.0</ele><time>2026-04-08T15:55:58.999Z</time></trkpt><trkpt lat="38.19960768243684" lon="15.334940791142884"><ele>21.0</ele><time>2026-04-08T15:55:59.999Z</time></trkpt><trkpt lat="38.19974446195561" lon="15.334813595722931"><ele>21.0</ele><time>2026-04-08T15:56:00.999Z</time></trkpt><trkpt lat="38.19988097912891" lon="15.334687138836774"><ele>21.666666666666668</ele><time>2026-04-08T15:56:01.999Z</time></trkpt><trkpt lat="38.20001746568357" lon="15.334561384672652"><ele>22.333333333333336</ele><time>2026-04-08T15:56:02.999Z</time></trkpt><trkpt lat="38.20014438330545" lon="15.334416654273051"><ele>23.0</ele><time>2026-04-08T15:56:03.999Z</time></trkpt><trkpt lat="38.200279359721506" lon="15.334290057590032"><ele>23.0</ele><time>2026-04-08T15:56:04.999Z</time></trkpt><trkpt lat="38.20041673041774" lon="15.33416118907958"><ele>23.0</ele><time>2026-04-08T15:56:05.999Z</time></trkpt><trkpt lat="38.20056484410623" lon="15.334046335874701"><ele>23.0</ele><time>2026-04-08T15:56:06.999Z</time></trkpt><trkpt lat="38.2007019479634" lon="15.333904686431689"><ele>22.0</ele><time>2026-04-08T15:56:07.999Z</time></trkpt><trkpt lat="38.200847577885014" lon="15.33375340612958"><ele>21.0</ele><time>2026-04-08T15:56:08.999Z</time></trkpt><trkpt lat="38.20098806599478" lon="15.333622356630427"><ele>20.0</ele><time>2026-04-08T15:56:09.999Z</time></trkpt><trkpt lat="38.20114372937905" lon="15.333499704442877"><ele>20.0</ele><time>2026-04-08T15:56:10.999Z</time></trkpt><trkpt lat="38.20128973988994" lon="15.33336229590571"><ele>20.0</ele><time>2026-04-08T15:56:11.999Z</time></trkpt><trkpt lat="38.20143327278907" lon="15.333201023807696"><ele>20.0</ele><time>2026-04-08T15:56:12.999Z</time></trkpt><trkpt lat="38.20158539614784" lon="15.333060859158955"><ele>19.333333333333336</ele><time>2026-04-08T15:56:13.999Z</time></trkpt><trkpt lat="38.201737213212546" lon="15.332919973598752"><ele>18.666666666666668</ele><time>2026-04-08T15:56:14.999Z</time></trkpt><trkpt lat="38.20189045787183" lon="15.332775885211314"><ele>18.0</ele><time>2026-04-08T15:56:15.999Z</time></trkpt><trkpt lat="38.202043505285424" lon="15.332631982278764"><ele>18.0</ele><time>2026-04-08T15:56:16.999Z</time></trkpt><trkpt lat="38.20219381344343" lon="15.332490654938775"><ele>18.0</ele><time>2026-04-08T15:56:17.999Z</time></trkpt><trkpt lat="38.20234536110737" lon="15.33234816215408"><ele>18.0</ele><time>2026-04-08T15:56:18.999Z</time></trkpt><trkpt lat="38.20248865838779" lon="15.3322150213071"><ele>18.0</ele><time>2026-04-08T15:56:19.999Z</time></trkpt><trkpt lat="38.20262278387005" lon="15.332090716620506"><ele>18.0</ele><time>2026-04-08T15:56:20.999Z</time></trkpt><trkpt lat="38.20274649490026" lon="15.33197496336853"><ele>18.0</ele><time>2026-04-08T15:56:21.999Z</time></trkpt><trkpt lat="38.202876043151676" lon="15.331853229524905"><ele>18.0</ele><time>2026-04-08T15:56:22.999Z</time></trkpt><trkpt lat="38.20301025323135" lon="15.331726962991294"><ele>18.0</ele><time>2026-04-08T15:56:23.999Z</time></trkpt><trkpt lat="38.20314688584129" lon="15.331597891976934"><ele>18.0</ele><time>2026-04-08T15:56:24.999Z</time></trkpt><trkpt lat="38.203286798855515" lon="15.331465722108591"><ele>17.666666666666668</ele><time>2026-04-08T15:56:25.999Z</time></trkpt><trkpt lat="38.20342648391072" lon="15.33133459030094"><ele>17.333333333333336</ele><time>2026-04-08T15:56:26.999Z</time></trkpt><trkpt lat="38.20356601463431" lon="15.331206653123761"><ele>17.0</ele><time>2026-04-08T15:56:27.999Z</time></trkpt><trkpt lat="38.20370078134342" lon="15.331073797838794"><ele>17.0</ele><time>2026-04-08T15:56:28.999Z</time></trkpt><trkpt lat="38.20383190506168" lon="15.330949472550056"><ele>17.0</ele><time>2026-04-08T15:56:29.999Z</time></trkpt><trkpt lat="38.20396523750277" lon="15.330829350576922"><ele>17.0</ele><time>2026-04-08T15:56:30.999Z</time></trkpt><trkpt lat="38.20410051765508" lon="15.33070779331851"><ele>16.333333333333336</ele><time>2026-04-08T15:56:31.999Z</time></trkpt><trkpt lat="38.20424097553257" lon="15.33058013146227"><ele>15.666666666666668</ele><time>2026-04-08T15:56:32.999Z</time></trkpt><trkpt lat="38.2043768981546" lon="15.330444477550017"><ele>15.0</ele><time>2026-04-08T15:56:33.999Z</time></trkpt><trkpt lat="38.20452893081405" lon="15.33034900550749"><ele>15.0</ele><time>2026-04-08T15:56:34.999Z</time></trkpt><trkpt lat="38.204641400109765" lon="15.330232960298273"><ele>15.0</ele><time>2026-04-08T15:56:35.999Z</time></trkpt><trkpt lat="38.20475044214417" lon="15.330122098692083"><ele>15.0</ele><time>2026-04-08T15:56:36.999Z</time></trkpt><trkpt lat="38.20484828422026" lon="15.330018841722524"><ele>15.0</ele><time>2026-04-08T15:56:37.999Z</time></trkpt><trkpt lat="38.20493497250559" lon="15.329928951462023"><ele>15.0</ele><time>2026-04-08T15:56:38.999Z</time></trkpt><trkpt lat="38.205014322148344" lon="15.329851940796472"><ele>15.0</ele><time>2026-04-08T15:56:39.998Z</time></trkpt><trkpt lat="38.20509936820619" lon="15.329760788537524"><ele>15.0</ele><time>2026-04-08T15:56:40.998Z</time></trkpt><trkpt lat="38.20515787757543" lon="15.329675595160452"><ele>15.0</ele><time>2026-04-08T15:56:41.998Z</time></trkpt><trkpt lat="38.205208301298924" lon="15.32957874962849"><ele>15.0</ele><time>2026-04-08T15:56:42.998Z</time></trkpt><trkpt lat="38.205248994947816" lon="15.32950285053625"><ele>15.166666666666666</ele><time>2026-04-08T15:56:43.998Z</time></trkpt><trkpt lat="38.205302168386446" lon="15.329429669716767"><ele>15.333333333333332</ele><time>2026-04-08T15:56:44.998Z</time></trkpt><trkpt lat="38.205347466240134" lon="15.32936492150648"><ele>15.5</ele><time>2026-04-08T15:56:45.998Z</time></trkpt><trkpt lat="38.20531840640581" lon="15.329226849514384"><ele>15.666666666666666</ele><time>2026-04-08T15:56:46.998Z</time></trkpt><trkpt lat="38.20537486152998" lon="15.329166753886277"><ele>15.833333333333332</ele><time>2026-04-08T15:56:48.998Z</time></trkpt><trkpt lat="38.20539715163797" lon="15.329064934781995"><ele>16.0</ele><time>2026-04-08T15:56:51.998Z</time></trkpt><trkpt lat="38.205352086701495" lon="15.32898605268047"><ele>16.0</ele><time>2026-04-08T15:56:53Z</time></trkpt><trkpt lat="38.20530920242639" lon="15.32889686088679"><ele>16.0</ele><time>2026-04-08T15:56:54Z</time></trkpt><trkpt lat="38.20524964547793" lon="15.328765649052594"><ele>16.0</ele><time>2026-04-08T15:56:55Z</time></trkpt><trkpt lat="38.20519874975141" lon="15.328645814058088"><ele>16.0</ele><time>2026-04-08T15:56:56Z</time></trkpt><trkpt lat="38.20516027067586" lon="15.328525097308505"><ele>16.0</ele><time>2026-04-08T15:56:57Z</time></trkpt><trkpt lat="38.20511871018982" lon="15.328411026335804"><ele>15.8</ele><time>2026-04-08T15:56:58Z</time></trkpt><trkpt lat="38.20507958088263" lon="15.328285532887842"><ele>15.600000000000001</ele><time>2026-04-08T15:56:59Z</time></trkpt><trkpt lat="38.20504127909691" lon="15.328155773032917"><ele>15.4</ele><time>2026-04-08T15:57:00Z</time></trkpt><trkpt lat="38.20499982651498" lon="15.328026620673965"><ele>15.2</ele><time>2026-04-08T15:57:01Z</time></trkpt><trkpt lat="38.204956743396075" lon="15.327886244342624"><ele>15.0</ele><time>2026-04-08T15:57:02Z</time></trkpt><trkpt lat="38.204910063960966" lon="15.327730808311363"><ele>15.5</ele><time>2026-04-08T15:57:03Z</time></trkpt><trkpt lat="38.204867198085914" lon="15.327579379713658"><ele>16.0</ele><time>2026-04-08T15:57:04Z</time></trkpt><trkpt lat="38.204828896078524" lon="15.327434652290556"><ele>16.5</ele><time>2026-04-08T15:57:05Z</time></trkpt><trkpt lat="38.204792452538875" lon="15.327288027231141"><ele>17.0</ele><time>2026-04-08T15:57:06Z</time></trkpt><trkpt lat="38.204758106832756" lon="15.327128998561616"><ele>17.5</ele><time>2026-04-08T15:57:07.072Z</time></trkpt><trkpt lat="38.20472696801078" lon="15.326980120652706"><ele>18.0</ele><time>2026-04-08T15:57:08.068Z</time></trkpt><trkpt lat="38.204697027769875" lon="15.326831212887141"><ele>18.5</ele><time>2026-04-08T15:57:09.066Z</time></trkpt><trkpt lat="38.20466487947208" lon="15.326679612041072"><ele>19.0</ele><time>2026-04-08T15:57:10.068Z</time></trkpt><trkpt lat="38.204238516206416" lon="15.325126206877794"><ele>19.0</ele><time>2026-04-08T15:57:19Z</time></trkpt><trkpt lat="38.20414155673648" lon="15.325027896101927"><ele>19.0</ele><time>2026-04-08T15:57:20Z</time></trkpt><trkpt lat="38.2040802672893" lon="15.324974656765786"><ele>19.0</ele><time>2026-04-08T15:57:21Z</time></trkpt><trkpt lat="38.20398204415993" lon="15.324944265782326"><ele>19.0</ele><time>2026-04-08T15:57:22Z</time></trkpt><trkpt lat="38.20389937704274" lon="15.324941938699688"><ele>19.0</ele><time>2026-04-08T15:57:23Z</time></trkpt><trkpt lat="38.203788820983846" lon="15.324903677225715"><ele>19.2</ele><time>2026-04-08T15:57:24Z</time></trkpt><trkpt lat="38.203622683784765" lon="15.324868857744564"><ele>19.4</ele><time>2026-04-08T15:57:25Z</time></trkpt><trkpt lat="38.203532203240435" lon="15.3248754532498"><ele>19.6</ele><time>2026-04-08T15:57:26Z</time></trkpt><trkpt lat="38.203452416322676" lon="15.324840133722985"><ele>19.8</ele><time>2026-04-08T15:57:27Z</time></trkpt><trkpt lat="38.20337733481118" lon="15.324767303054518"><ele>20.0</ele><time>2026-04-08T15:57:28Z</time></trkpt><trkpt lat="38.203316356108175" lon="15.324664055716978"><ele>19.4</ele><time>2026-04-08T15:57:29Z</time></trkpt><trkpt lat="38.2032669024421" lon="15.324534273573878"><ele>18.8</ele><time>2026-04-08T15:57:30Z</time></trkpt><trkpt lat="38.20321492826383" lon="15.32440860841509"><ele>18.2</ele><time>2026-04-08T15:57:31Z</time></trkpt><trkpt lat="38.20315955535777" lon="15.324288755731404"><ele>17.6</ele><time>2026-04-08T15:57:32Z</time></trkpt><trkpt lat="38.20310879062016" lon="15.324171984735857"><ele>17.0</ele><time>2026-04-08T15:57:33Z</time></trkpt><trkpt lat="38.20308081911063" lon="15.324046814599626"><ele>17.0</ele><time>2026-04-08T15:57:34Z</time></trkpt><trkpt lat="38.203063705773715" lon="15.323915426686126"><ele>17.0</ele><time>2026-04-08T15:57:35Z</time></trkpt><trkpt lat="38.20304650106342" lon="15.323773849342713"><ele>17.0</ele><time>2026-04-08T15:57:36Z</time></trkpt><trkpt lat="38.20303830401727" lon="15.323625528453155"><ele>17.0</ele><time>2026-04-08T15:57:37Z</time></trkpt><trkpt lat="38.20302951588122" lon="15.323477215391387"><ele>17.0</ele><time>2026-04-08T15:57:38Z</time></trkpt><trkpt lat="38.20302101159365" lon="15.323343568857014"><ele>17.0</ele><time>2026-04-08T15:57:39Z</time></trkpt><trkpt lat="38.2030194209929" lon="15.323223277315503"><ele>17.0</ele><time>2026-04-08T15:57:40Z</time></trkpt><trkpt lat="38.20301265415647" lon="15.323103301097198"><ele>17.0</ele><time>2026-04-08T15:57:41Z</time></trkpt><trkpt lat="38.203005708263824" lon="15.322976414390421"><ele>17.0</ele><time>2026-04-08T15:57:42Z</time></trkpt><trkpt lat="38.20299227931526" lon="15.322859836080744"><ele>17.0</ele><time>2026-04-08T15:57:43Z</time></trkpt><trkpt lat="38.20298401744196" lon="15.322742306456416"><ele>17.0</ele><time>2026-04-08T15:57:44Z</time></trkpt><trkpt lat="38.20298283284774" lon="15.322629376992866"><ele>17.0</ele><time>2026-04-08T15:57:45Z</time></trkpt><trkpt lat="38.202990270396434" lon="15.32252692284401"><ele>17.0</ele><time>2026-04-08T15:57:46Z</time></trkpt><trkpt lat="38.20299621273087" lon="15.32242073720639"><ele>17.0</ele><time>2026-04-08T15:57:47Z</time></trkpt><trkpt lat="38.20300049530156" lon="15.322311244167533"><ele>17.0</ele><time>2026-04-08T15:57:47.999Z</time></trkpt><trkpt lat="38.20300390372847" lon="15.32219650780328"><ele>17.0</ele><time>2026-04-08T15:57:48.999Z</time></trkpt><trkpt lat="38.2030261695559" lon="15.322089702921113"><ele>17.0</ele><time>2026-04-08T15:57:49.999Z</time></trkpt><trkpt lat="38.20301596532085" lon="15.321989542066705"><ele>17.0</ele><time>2026-04-08T15:57:50.999Z</time></trkpt><trkpt lat="38.203019640805934" lon="15.321878630691423"><ele>17.0</ele><time>2026-04-08T15:57:51.999Z</time></trkpt><trkpt lat="38.203023650792815" lon="15.32177718280375"><ele>17.0</ele><time>2026-04-08T15:57:52.999Z</time></trkpt><trkpt lat="38.20302737895116" lon="15.321672441068994"><ele>17.0</ele><time>2026-04-08T15:57:53.999Z</time></trkpt><trkpt lat="38.20303160297573" lon="15.321553767726616"><ele>17.0</ele><time>2026-04-08T15:57:54.999Z</time></trkpt><trkpt lat="38.20303528101062" lon="15.321451575140477"><ele>17.0</ele><time>2026-04-08T15:57:55.999Z</time></trkpt><trkpt lat="38.20305152521409" lon="15.321357839696773"><ele>17.0</ele><time>2026-04-08T15:57:56.999Z</time></trkpt><trkpt lat="38.20305173340274" lon="15.321244171217675"><ele>17.0</ele><time>2026-04-08T15:57:57.999Z</time></trkpt><trkpt lat="38.20305404200365" lon="15.321123898024606"><ele>17.0</ele><time>2026-04-08T15:57:58.999Z</time></trkpt><trkpt lat="38.203060958992374" lon="15.320994109727648"><ele>17.0</ele><time>2026-04-08T15:57:59.999Z</time></trkpt><trkpt lat="38.20306694294066" lon="15.320866909331556"><ele>17.0</ele><time>2026-04-08T15:58:00.999Z</time></trkpt><trkpt lat="38.20306966438676" lon="15.320730602203295"><ele>17.0</ele><time>2026-04-08T15:58:01.999Z</time></trkpt><trkpt lat="38.203074685998146" lon="15.320603425425597"><ele>17.0</ele><time>2026-04-08T15:58:02.999Z</time></trkpt><trkpt lat="38.20307856896914" lon="15.320479155019653"><ele>17.0</ele><time>2026-04-08T15:58:03.999Z</time></trkpt><trkpt lat="38.20307637574014" lon="15.320379009681384"><ele>17.0</ele><time>2026-04-08T15:58:04.999Z</time></trkpt><trkpt lat="38.203063516787985" lon="15.320294275475423"><ele>17.0</ele><time>2026-04-08T15:58:05.999Z</time></trkpt><trkpt lat="38.203057902725575" lon="15.320208919034965"><ele>17.0</ele><time>2026-04-08T15:58:06.999Z</time></trkpt><trkpt lat="38.2030473569007" lon="15.320107071148131"><ele>17.0</ele><time>2026-04-08T15:58:07.999Z</time></trkpt><trkpt lat="38.2030275388031" lon="15.319981092572835"><ele>17.0</ele><time>2026-04-08T15:58:08.999Z</time></trkpt><trkpt lat="38.20301198068349" lon="15.319841774186314"><ele>17.0</ele><time>2026-04-08T15:58:09.999Z</time></trkpt><trkpt lat="38.202982869407656" lon="15.319672012649157"><ele>16.75</ele><time>2026-04-08T15:58:10.999Z</time></trkpt><trkpt lat="38.20296538967275" lon="15.31951939329622"><ele>16.5</ele><time>2026-04-08T15:58:11.999Z</time></trkpt><trkpt lat="38.20293862546961" lon="15.319375906320237"><ele>16.25</ele><time>2026-04-08T15:58:12.999Z</time></trkpt><trkpt lat="38.20290946167803" lon="15.31924061657413"><ele>16.0</ele><time>2026-04-08T15:58:13.999Z</time></trkpt><trkpt lat="38.20287656685323" lon="15.319101701335198"><ele>16.0</ele><time>2026-04-08T15:58:14.999Z</time></trkpt><trkpt lat="38.20285750617955" lon="15.318948700931104"><ele>16.0</ele><time>2026-04-08T15:58:15.999Z</time></trkpt><trkpt lat="38.20283237438536" lon="15.318794340642288"><ele>16.0</ele><time>2026-04-08T15:58:16.999Z</time></trkpt><trkpt lat="38.202804551579945" lon="15.31864435571361"><ele>16.0</ele><time>2026-04-08T15:58:17.999Z</time></trkpt><trkpt lat="38.20278381004617" lon="15.318500005132822"><ele>16.0</ele><time>2026-04-08T15:58:18.999Z</time></trkpt><trkpt lat="38.20275866271749" lon="15.318369099924322"><ele>16.0</ele><time>2026-04-08T15:58:19.999Z</time></trkpt><trkpt lat="38.20273393962738" lon="15.318232133090643"><ele>16.0</ele><time>2026-04-08T15:58:20.999Z</time></trkpt><trkpt lat="38.202707699967064" lon="15.31809851826822"><ele>16.0</ele><time>2026-04-08T15:58:21.999Z</time></trkpt><trkpt lat="38.20268354757334" lon="15.317969573911975"><ele>16.0</ele><time>2026-04-08T15:58:22.999Z</time></trkpt><trkpt lat="38.20265877842952" lon="15.317844909288691"><ele>15.600000000000001</ele><time>2026-04-08T15:58:23.999Z</time></trkpt><trkpt lat="38.20263477983063" lon="15.317719460579644"><ele>15.200000000000001</ele><time>2026-04-08T15:58:24.999Z</time></trkpt><trkpt lat="38.20261508329946" lon="15.317592550746502"><ele>14.799999999999999</ele><time>2026-04-08T15:58:25.999Z</time></trkpt><trkpt lat="38.20259945438055" lon="15.317473598265401"><ele>14.399999999999999</ele><time>2026-04-08T15:58:26.999Z</time></trkpt><trkpt lat="38.202576256735085" lon="15.317354316803453"><ele>14.0</ele><time>2026-04-08T15:58:27.999Z</time></trkpt><trkpt lat="38.20255110607204" lon="15.31721525237918"><ele>14.0</ele><time>2026-04-08T15:58:28.999Z</time></trkpt><trkpt lat="38.202534152199625" lon="15.317040797932322"><ele>14.0</ele><time>2026-04-08T15:58:29.999Z</time></trkpt><trkpt lat="38.20249701864767" lon="15.316834663916676"><ele>14.0</ele><time>2026-04-08T15:58:30.999Z</time></trkpt><trkpt lat="38.202466803859814" lon="15.316658468868315"><ele>14.0</ele><time>2026-04-08T15:58:31.999Z</time></trkpt><trkpt lat="38.202441540219375" lon="15.31650459515503"><ele>14.2</ele><time>2026-04-08T15:58:32.999Z</time></trkpt><trkpt lat="38.20242001876382" lon="15.316376372834899"><ele>14.399999999999999</ele><time>2026-04-08T15:58:33.999Z</time></trkpt><trkpt lat="38.20238277897145" lon="15.316253133817085"><ele>14.6</ele><time>2026-04-08T15:58:34.999Z</time></trkpt><trkpt lat="38.202360007153004" lon="15.316133453712519"><ele>14.8</ele><time>2026-04-08T15:58:35.999Z</time></trkpt><trkpt lat="38.20232971033402" lon="15.315968562976455"><ele>15.0</ele><time>2026-04-08T15:58:37.999Z</time></trkpt><trkpt lat="38.202315431344495" lon="15.315889189430353"><ele>15.0</ele><time>2026-04-08T15:58:38.999Z</time></trkpt><trkpt lat="38.202306127616254" lon="15.315772846291054"><ele>15.0</ele><time>2026-04-08T15:58:39.999Z</time></trkpt><trkpt lat="38.202275572849096" lon="15.315652423388817"><ele>15.0</ele><time>2026-04-08T15:58:40.999Z</time></trkpt><trkpt lat="38.202252497500524" lon="15.315537933271147"><ele>15.0</ele><time>2026-04-08T15:58:41.999Z</time></trkpt><trkpt lat="38.20223594443255" lon="15.315439561126144"><ele>15.0</ele><time>2026-04-08T15:58:42.999Z</time></trkpt><trkpt lat="38.20222346118656" lon="15.31534678455376"><ele>15.0</ele><time>2026-04-08T15:58:43.998Z</time></trkpt><trkpt lat="38.20221130783756" lon="15.315260596521226"><ele>15.2</ele><time>2026-04-08T15:58:44.998Z</time></trkpt><trkpt lat="38.2021959151199" lon="15.315170024489724"><ele>15.4</ele><time>2026-04-08T15:58:45.998Z</time></trkpt><trkpt lat="38.20217114584381" lon="15.315068183355654"><ele>15.600000000000001</ele><time>2026-04-08T15:58:46.998Z</time></trkpt><trkpt lat="38.20215272657781" lon="15.31495317576237"><ele>15.8</ele><time>2026-04-08T15:58:47.998Z</time></trkpt><trkpt lat="38.202123612039095" lon="15.314811049752022"><ele>16.0</ele><time>2026-04-08T15:58:48.998Z</time></trkpt><trkpt lat="38.202092626258704" lon="15.314646743197551"><ele>16.25</ele><time>2026-04-08T15:58:49.998Z</time></trkpt><trkpt lat="38.20206004094245" lon="15.314482912965495"><ele>16.5</ele><time>2026-04-08T15:58:50.998Z</time></trkpt><trkpt lat="38.20202831925593" lon="15.31431360027814"><ele>16.75</ele><time>2026-04-08T15:58:51.998Z</time></trkpt><trkpt lat="38.201998822533916" lon="15.314147049122504"><ele>17.0</ele><time>2026-04-08T15:58:52.998Z</time></trkpt><trkpt lat="38.20197459096871" lon="15.313986596142978"><ele>17.5</ele><time>2026-04-08T15:58:53.998Z</time></trkpt><trkpt lat="38.20194225415848" lon="15.313828303813077"><ele>18.0</ele><time>2026-04-08T15:58:54.998Z</time></trkpt><trkpt lat="38.20191374980674" lon="15.313672078892843"><ele>18.5</ele><time>2026-04-08T15:58:55.998Z</time></trkpt><trkpt lat="38.20188527346929" lon="15.31352208005246"><ele>19.0</ele><time>2026-04-08T15:58:56.998Z</time></trkpt><trkpt lat="38.20186033404744" lon="15.313367345398214"><ele>19.0</ele><time>2026-04-08T15:58:57.998Z</time></trkpt><trkpt lat="38.2018310324193" lon="15.313209223090043"><ele>19.0</ele><time>2026-04-08T15:58:59Z</time></trkpt><trkpt lat="38.201801289644315" lon="15.313054768401535"><ele>19.0</ele><time>2026-04-08T15:59:00Z</time></trkpt><trkpt lat="38.201776229404054" lon="15.312900897203106"><ele>19.0</ele><time>2026-04-08T15:59:01Z</time></trkpt><trkpt lat="38.20174871968079" lon="15.312754532663561"><ele>18.599999999999998</ele><time>2026-04-08T15:59:02Z</time></trkpt><trkpt lat="38.20172445814692" lon="15.312619037892514"><ele>18.2</ele><time>2026-04-08T15:59:03Z</time></trkpt><trkpt lat="38.201704364703545" lon="15.312489179456316"><ele>17.799999999999997</ele><time>2026-04-08T15:59:04Z</time></trkpt><trkpt lat="38.201677021224135" lon="15.312356415144205"><ele>17.4</ele><time>2026-04-08T15:59:05Z</time></trkpt><trkpt lat="38.20164125021868" lon="15.312207712642843"><ele>17.0</ele><time>2026-04-08T15:59:06Z</time></trkpt><trkpt lat="38.20159997390741" lon="15.312034557121537"><ele>16.333333333333336</ele><time>2026-04-08T15:59:07Z</time></trkpt><trkpt lat="38.201569940731396" lon="15.311845488451322"><ele>15.666666666666668</ele><time>2026-04-08T15:59:08Z</time></trkpt><trkpt lat="38.20153933425426" lon="15.311648322334117"><ele>15.0</ele><time>2026-04-08T15:59:09Z</time></trkpt><trkpt lat="38.201511765103206" lon="15.311451541130825"><ele>16.5</ele><time>2026-04-08T15:59:10Z</time></trkpt><trkpt lat="38.201483084698296" lon="15.311273912868124"><ele>18.0</ele><time>2026-04-08T15:59:11Z</time></trkpt><trkpt lat="38.20145263613059" lon="15.311080160421062"><ele>19.5</ele><time>2026-04-08T15:59:12Z</time></trkpt><trkpt lat="38.201420295604144" lon="15.310893811216609"><ele>21.0</ele><time>2026-04-08T15:59:13Z</time></trkpt><trkpt lat="38.2013814465441" lon="15.310699584820277"><ele>21.0</ele><time>2026-04-08T15:59:14Z</time></trkpt><trkpt lat="38.201343063407286" lon="15.310489733326259"><ele>21.0</ele><time>2026-04-08T15:59:15Z</time></trkpt><trkpt lat="38.201306675256646" lon="15.310285624318002"><ele>21.0</ele><time>2026-04-08T15:59:16Z</time></trkpt><trkpt lat="38.201271562660054" lon="15.310083307908515"><ele>21.0</ele><time>2026-04-08T15:59:17Z</time></trkpt><trkpt lat="38.20123517966523" lon="15.309877603864923"><ele>21.0</ele><time>2026-04-08T15:59:18Z</time></trkpt><trkpt lat="38.201201669237136" lon="15.309672723718268"><ele>21.0</ele><time>2026-04-08T15:59:19Z</time></trkpt><trkpt lat="38.201168659473694" lon="15.30947579467386"><ele>20.75</ele><time>2026-04-08T15:59:20Z</time></trkpt><trkpt lat="38.2011337157502" lon="15.30928894543862"><ele>20.5</ele><time>2026-04-08T15:59:21Z</time></trkpt><trkpt lat="38.20111035601063" lon="15.309124655716666"><ele>20.25</ele><time>2026-04-08T15:59:22Z</time></trkpt><trkpt lat="38.20107653325043" lon="15.308963548936479"><ele>20.0</ele><time>2026-04-08T15:59:23Z</time></trkpt><trkpt lat="38.201047819467554" lon="15.308802799426752"><ele>19.5</ele><time>2026-04-08T15:59:24Z</time></trkpt><trkpt lat="38.20102207952696" lon="15.308640946049318"><ele>19.0</ele><time>2026-04-08T15:59:25Z</time></trkpt><trkpt lat="38.20099809844713" lon="15.308480836310222"><ele>18.5</ele><time>2026-04-08T15:59:26Z</time></trkpt><trkpt lat="38.20096814559743" lon="15.308321499496811"><ele>18.0</ele><time>2026-04-08T15:59:27Z</time></trkpt><trkpt lat="38.200942340340866" lon="15.308167170336915"><ele>17.75</ele><time>2026-04-08T15:59:28Z</time></trkpt><trkpt lat="38.20090556593988" lon="15.308003151899248"><ele>17.5</ele><time>2026-04-08T15:59:29Z</time></trkpt><trkpt lat="38.20087069010808" lon="15.30783530622232"><ele>17.25</ele><time>2026-04-08T15:59:30Z</time></trkpt><trkpt lat="38.20084823414458" lon="15.3076731452226"><ele>17.0</ele><time>2026-04-08T15:59:31Z</time></trkpt><trkpt lat="38.20082662137169" lon="15.30752348525205"><ele>17.0</ele><time>2026-04-08T15:59:32Z</time></trkpt><trkpt lat="38.20080775972747" lon="15.307386802979272"><ele>17.0</ele><time>2026-04-08T15:59:33Z</time></trkpt><trkpt lat="38.20078907854534" lon="15.307257141662419"><ele>17.0</ele><time>2026-04-08T15:59:34Z</time></trkpt><trkpt lat="38.20076206335211" lon="15.307134036809169"><ele>17.0</ele><time>2026-04-08T15:59:35Z</time></trkpt><trkpt lat="38.20073214653702" lon="15.307014969541292"><ele>17.0</ele><time>2026-04-08T15:59:36Z</time></trkpt><trkpt lat="38.200705617887536" lon="15.306865764510546"><ele>17.0</ele><time>2026-04-08T15:59:37Z</time></trkpt><trkpt lat="38.20067723161502" lon="15.306704873365891"><ele>17.0</ele><time>2026-04-08T15:59:38Z</time></trkpt><trkpt lat="38.200655750717075" lon="15.306542448152191"><ele>17.0</ele><time>2026-04-08T15:59:39Z</time></trkpt><trkpt lat="38.200628612828446" lon="15.306381993630168"><ele>17.0</ele><time>2026-04-08T15:59:40Z</time></trkpt><trkpt lat="38.20059749262659" lon="15.306226503950871"><ele>18.0</ele><time>2026-04-08T15:59:41Z</time></trkpt><trkpt lat="38.200574682614786" lon="15.306090273965419"><ele>19.0</ele><time>2026-04-08T15:59:42Z</time></trkpt><trkpt lat="38.20055087813066" lon="15.305929476600966"><ele>20.0</ele><time>2026-04-08T15:59:43Z</time></trkpt><trkpt lat="38.2005210703835" lon="15.305770125437299"><ele>21.0</ele><time>2026-04-08T15:59:44Z</time></trkpt><trkpt lat="38.200494722348374" lon="15.305615293932421"><ele>20.400000000000002</ele><time>2026-04-08T15:59:45Z</time></trkpt><trkpt lat="38.20046984430362" lon="15.305465469402218"><ele>19.8</ele><time>2026-04-08T15:59:46Z</time></trkpt><trkpt lat="38.20044464711997" lon="15.305327018970788"><ele>19.200000000000003</ele><time>2026-04-08T15:59:47Z</time></trkpt><trkpt lat="38.20042422734549" lon="15.305190827638889"><ele>18.6</ele><time>2026-04-08T15:59:48Z</time></trkpt><trkpt lat="38.20041291622076" lon="15.305076189899506"><ele>18.0</ele><time>2026-04-08T15:59:49Z</time></trkpt><trkpt lat="38.200390394709075" lon="15.304970046260472"><ele>18.0</ele><time>2026-04-08T15:59:50Z</time></trkpt><trkpt lat="38.20036959652077" lon="15.304857534993637"><ele>18.0</ele><time>2026-04-08T15:59:51Z</time></trkpt><trkpt lat="38.20034613688269" lon="15.304777148178946"><ele>18.0</ele><time>2026-04-08T15:59:52Z</time></trkpt><trkpt lat="38.20031832471745" lon="15.304645147467198"><ele>18.0</ele><time>2026-04-08T15:59:54Z</time></trkpt><trkpt lat="38.20030128139217" lon="15.304564257822003"><ele>18.0</ele><time>2026-04-08T15:59:56.999Z</time></trkpt><trkpt lat="38.20041041999203" lon="15.304476015106198"><ele>17.666666666666668</ele><time>2026-04-08T16:00:02.999Z</time></trkpt><trkpt lat="38.20039347929685" lon="15.304375382386645"><ele>17.333333333333332</ele><time>2026-04-08T16:00:16.999Z</time></trkpt><trkpt lat="38.20030411934299" lon="15.304314211870468"><ele>17.0</ele><time>2026-04-08T16:00:18.999Z</time></trkpt><trkpt lat="38.200248387407754" lon="15.304260713662416"><ele>16.666666666666664</ele><time>2026-04-08T16:00:19.999Z</time></trkpt><trkpt lat="38.20019991990585" lon="15.304180049972269"><ele>16.333333333333332</ele><time>2026-04-08T16:00:20.999Z</time></trkpt><trkpt lat="38.200169229204604" lon="15.304077299638152"><ele>16.0</ele><time>2026-04-08T16:00:21.999Z</time></trkpt><trkpt lat="38.20013501911301" lon="15.30394389031231"><ele>15.75</ele><time>2026-04-08T16:00:22.999Z</time></trkpt><trkpt lat="38.200101870863655" lon="15.303809717809743"><ele>15.5</ele><time>2026-04-08T16:00:23.999Z</time></trkpt><trkpt lat="38.2000681002339" lon="15.303659226305202"><ele>15.25</ele><time>2026-04-08T16:00:24.999Z</time></trkpt><trkpt lat="38.20003132601547" lon="15.303502859190644"><ele>15.0</ele><time>2026-04-08T16:00:25.999Z</time></trkpt><trkpt lat="38.19997357255435" lon="15.303334311562256"><ele>15.0</ele><time>2026-04-08T16:00:26.999Z</time></trkpt><trkpt lat="38.199923963030884" lon="15.303135175430373"><ele>15.0</ele><time>2026-04-08T16:00:27.999Z</time></trkpt><trkpt lat="38.199865779079325" lon="15.302920971597135"><ele>15.0</ele><time>2026-04-08T16:00:28.999Z</time></trkpt><trkpt lat="38.199802377799905" lon="15.302685359182494"><ele>16.0</ele><time>2026-04-08T16:00:29.999Z</time></trkpt><trkpt lat="38.199738044680394" lon="15.302424868156129"><ele>17.0</ele><time>2026-04-08T16:00:30.999Z</time></trkpt><trkpt lat="38.19966861663536" lon="15.302160689438034"><ele>18.0</ele><time>2026-04-08T16:00:31.999Z</time></trkpt><trkpt lat="38.199602019448044" lon="15.301896404071504"><ele>18.0</ele><time>2026-04-08T16:00:32.999Z</time></trkpt><trkpt lat="38.199549038006005" lon="15.301623184181729"><ele>18.0</ele><time>2026-04-08T16:00:33.999Z</time></trkpt><trkpt lat="38.19951401950993" lon="15.301326506136025"><ele>18.0</ele><time>2026-04-08T16:00:34.999Z</time></trkpt><trkpt lat="38.19948959212482" lon="15.301036335312165"><ele>18.0</ele><time>2026-04-08T16:00:35.999Z</time></trkpt><trkpt lat="38.199472683695284" lon="15.300761285375067"><ele>18.0</ele><time>2026-04-08T16:00:36.999Z</time></trkpt><trkpt lat="38.199464583689235" lon="15.300502516786027"><ele>17.333333333333332</ele><time>2026-04-08T16:00:37.999Z</time></trkpt><trkpt lat="38.19946061010437" lon="15.300261524864002"><ele>16.666666666666664</ele><time>2026-04-08T16:00:38.999Z</time></trkpt><trkpt lat="38.199467641908086" lon="15.300012193679075"><ele>16.0</ele><time>2026-04-08T16:00:39.999Z</time></trkpt><trkpt lat="38.199479639862076" lon="15.299755362551624"><ele>15.666666666666666</ele><time>2026-04-08T16:00:40.999Z</time></trkpt><trkpt lat="38.19949202647212" lon="15.299496571138473"><ele>15.333333333333332</ele><time>2026-04-08T16:00:41.999Z</time></trkpt><trkpt lat="38.199503408544125" lon="15.299243824813168"><ele>15.0</ele><time>2026-04-08T16:00:42.999Z</time></trkpt><trkpt lat="38.19950971721535" lon="15.298998884225718"><ele>16.0</ele><time>2026-04-08T16:00:43.999Z</time></trkpt><trkpt lat="38.19951588021623" lon="15.298758659494796"><ele>17.0</ele><time>2026-04-08T16:00:44.999Z</time></trkpt><trkpt lat="38.19952379632867" lon="15.298507411568508"><ele>18.0</ele><time>2026-04-08T16:00:45.999Z</time></trkpt><trkpt lat="38.199528562496944" lon="15.298249798377368"><ele>17.666666666666668</ele><time>2026-04-08T16:00:46.999Z</time></trkpt><trkpt lat="38.19953477106438" lon="15.297991136479778"><ele>17.333333333333336</ele><time>2026-04-08T16:00:47.999Z</time></trkpt><trkpt lat="38.19953954879306" lon="15.29773567312675"><ele>17.0</ele><time>2026-04-08T16:00:48.999Z</time></trkpt><trkpt lat="38.19954730063802" lon="15.297483382839467"><ele>16.0</ele><time>2026-04-08T16:00:49.998Z</time></trkpt><trkpt lat="38.19956635562117" lon="15.297229539909052"><ele>15.0</ele><time>2026-04-08T16:00:50.998Z</time></trkpt><trkpt lat="38.199584283075275" lon="15.29697684936502"><ele>14.0</ele><time>2026-04-08T16:00:51.998Z</time></trkpt><trkpt lat="38.19959910962522" lon="15.296724789603825"><ele>14.0</ele><time>2026-04-08T16:00:52.998Z</time></trkpt><trkpt lat="38.19960720774183" lon="15.296481278086096"><ele>14.0</ele><time>2026-04-08T16:00:53.998Z</time></trkpt><trkpt lat="38.199622233383465" lon="15.296226703805058"><ele>14.0</ele><time>2026-04-08T16:00:54.998Z</time></trkpt><trkpt lat="38.19963021428971" lon="15.295967500799817"><ele>14.0</ele><time>2026-04-08T16:00:55.998Z</time></trkpt><trkpt lat="38.19963721207976" lon="15.295701227839768"><ele>14.0</ele><time>2026-04-08T16:00:56.998Z</time></trkpt><trkpt lat="38.19964621505705" lon="15.29544045934086"><ele>14.0</ele><time>2026-04-08T16:00:57.998Z</time></trkpt><trkpt lat="38.199656602098244" lon="15.29519533726785"><ele>13.333333333333334</ele><time>2026-04-08T16:00:58.998Z</time></trkpt><trkpt lat="38.19966770337309" lon="15.294971160640555"><ele>12.666666666666668</ele><time>2026-04-08T16:00:59.998Z</time></trkpt><trkpt lat="38.199687066798475" lon="15.29476527013897"><ele>12.0</ele><time>2026-04-08T16:01:00.998Z</time></trkpt><trkpt lat="38.19971134748491" lon="15.294543166908063"><ele>11.333333333333334</ele><time>2026-04-08T16:01:01.998Z</time></trkpt><trkpt lat="38.19973484431942" lon="15.294322608306782"><ele>10.666666666666668</ele><time>2026-04-08T16:01:02.998Z</time></trkpt><trkpt lat="38.19975655517565" lon="15.294134835269224"><ele>10.0</ele><time>2026-04-08T16:01:04Z</time></trkpt><trkpt lat="38.19977929422831" lon="15.293967543105515"><ele>10.0</ele><time>2026-04-08T16:01:05Z</time></trkpt><trkpt lat="38.19979430137" lon="15.29379927937179"><ele>10.0</ele><time>2026-04-08T16:01:06Z</time></trkpt><trkpt lat="38.19980122128061" lon="15.293623534795639"><ele>10.0</ele><time>2026-04-08T16:01:07Z</time></trkpt><trkpt lat="38.199800495831866" lon="15.293443918552379"><ele>10.0</ele><time>2026-04-08T16:01:08Z</time></trkpt><trkpt lat="38.19978348241221" lon="15.29326363190148"><ele>10.666666666666668</ele><time>2026-04-08T16:01:09Z</time></trkpt><trkpt lat="38.19975266576894" lon="15.293076037402074"><ele>11.333333333333334</ele><time>2026-04-08T16:01:10Z</time></trkpt><trkpt lat="38.19971456846711" lon="15.292884852818698"><ele>12.0</ele><time>2026-04-08T16:01:11Z</time></trkpt><trkpt lat="38.19966666158491" lon="15.29269437582665"><ele>12.0</ele><time>2026-04-08T16:01:12Z</time></trkpt><trkpt lat="38.19961166183671" lon="15.292495866586336"><ele>12.0</ele><time>2026-04-08T16:01:13Z</time></trkpt><trkpt lat="38.19955560549104" lon="15.292294250021074"><ele>12.0</ele><time>2026-04-08T16:01:14Z</time></trkpt><trkpt lat="38.199509936171616" lon="15.292095548828009"><ele>12.666666666666668</ele><time>2026-04-08T16:01:15Z</time></trkpt><trkpt lat="38.1994613936734" lon="15.29189750373829"><ele>13.333333333333334</ele><time>2026-04-08T16:01:16Z</time></trkpt><trkpt lat="38.19941062563538" lon="15.291694581482833"><ele>14.0</ele><time>2026-04-08T16:01:17Z</time></trkpt><trkpt lat="38.19936999930235" lon="15.291482592900476"><ele>14.333333333333334</ele><time>2026-04-08T16:01:18Z</time></trkpt><trkpt lat="38.1993208203715" lon="15.291270735477507"><ele>14.666666666666668</ele><time>2026-04-08T16:01:19Z</time></trkpt><trkpt lat="38.199275709876" lon="15.291049791317374"><ele>15.0</ele><time>2026-04-08T16:01:20Z</time></trkpt><trkpt lat="38.19923470423986" lon="15.290832474593445"><ele>15.0</ele><time>2026-04-08T16:01:21Z</time></trkpt><trkpt lat="38.19920160565725" lon="15.290611801871856"><ele>15.0</ele><time>2026-04-08T16:01:22Z</time></trkpt><trkpt lat="38.199181531333664" lon="15.290385507580735"><ele>15.0</ele><time>2026-04-08T16:01:23Z</time></trkpt><trkpt lat="38.199199248549526" lon="15.29014894899425"><ele>14.0</ele><time>2026-04-08T16:01:24Z</time></trkpt><trkpt lat="38.199202385458484" lon="15.289900267966008"><ele>13.0</ele><time>2026-04-08T16:01:25Z</time></trkpt><trkpt lat="38.19920093078761" lon="15.289660316022992"><ele>12.0</ele><time>2026-04-08T16:01:26Z</time></trkpt><trkpt lat="38.19919920919299" lon="15.289413801003942"><ele>12.0</ele><time>2026-04-08T16:01:27Z</time></trkpt><trkpt lat="38.19919405210317" lon="15.289163536201636"><ele>12.0</ele><time>2026-04-08T16:01:28Z</time></trkpt><trkpt lat="38.19918820837492" lon="15.28891950254355"><ele>12.0</ele><time>2026-04-08T16:01:29Z</time></trkpt><trkpt lat="38.19918450924266" lon="15.288667352038301"><ele>13.333333333333332</ele><time>2026-04-08T16:01:30Z</time></trkpt><trkpt lat="38.199182162652484" lon="15.288421276267925"><ele>14.666666666666666</ele><time>2026-04-08T16:01:31Z</time></trkpt><trkpt lat="38.19917996515367" lon="15.288176758280505"><ele>16.0</ele><time>2026-04-08T16:01:32Z</time></trkpt><trkpt lat="38.19918070093092" lon="15.28793847628755"><ele>16.0</ele><time>2026-04-08T16:01:33Z</time></trkpt><trkpt lat="38.199179747427785" lon="15.28771701754301"><ele>16.0</ele><time>2026-04-08T16:01:34Z</time></trkpt><trkpt lat="38.19918746814504" lon="15.287492448491138"><ele>16.0</ele><time>2026-04-08T16:01:35Z</time></trkpt><trkpt lat="38.199192015926556" lon="15.287269684332799"><ele>16.666666666666664</ele><time>2026-04-08T16:01:36Z</time></trkpt><trkpt lat="38.19918719502757" lon="15.287048514807857"><ele>17.333333333333332</ele><time>2026-04-08T16:01:37Z</time></trkpt><trkpt lat="38.19916632498844" lon="15.286832480330169"><ele>18.0</ele><time>2026-04-08T16:01:38Z</time></trkpt><trkpt lat="38.19913865191615" lon="15.28661898139932"><ele>17.333333333333332</ele><time>2026-04-08T16:01:39Z</time></trkpt><trkpt lat="38.19910983351428" lon="15.28639479664924"><ele>16.666666666666664</ele><time>2026-04-08T16:01:40Z</time></trkpt><trkpt lat="38.19907308605874" lon="15.286159108641263"><ele>16.0</ele><time>2026-04-08T16:01:41Z</time></trkpt><trkpt lat="38.199025262842824" lon="15.285920864423291"><ele>16.333333333333332</ele><time>2026-04-08T16:01:42Z</time></trkpt><trkpt lat="38.19895949929156" lon="15.285693203527"><ele>16.666666666666668</ele><time>2026-04-08T16:01:43Z</time></trkpt><trkpt lat="38.198879457733085" lon="15.285468409809738"><ele>17.0</ele><time>2026-04-08T16:01:44Z</time></trkpt><trkpt lat="38.198780961803" lon="15.285263447122079"><ele>17.0</ele><time>2026-04-08T16:01:45Z</time></trkpt><trkpt lat="38.1986631250864" lon="15.285094936447445"><ele>17.0</ele><time>2026-04-08T16:01:46Z</time></trkpt><trkpt lat="38.198528059320125" lon="15.284943322133183"><ele>17.0</ele><time>2026-04-08T16:01:47Z</time></trkpt><trkpt lat="38.19837968875085" lon="15.284805132515897"><ele>16.333333333333336</ele><time>2026-04-08T16:01:48Z</time></trkpt><trkpt lat="38.198221180790966" lon="15.284675924794103"><ele>15.666666666666668</ele><time>2026-04-08T16:01:49Z</time></trkpt><trkpt lat="38.1980564847657" lon="15.284553657470365"><ele>15.0</ele><time>2026-04-08T16:01:50Z</time></trkpt><trkpt lat="38.19788502688141" lon="15.284427077602725"><ele>16.666666666666668</ele><time>2026-04-08T16:01:51Z</time></trkpt><trkpt lat="38.197727041214115" lon="15.28429201801822"><ele>18.333333333333336</ele><time>2026-04-08T16:01:52Z</time></trkpt><trkpt lat="38.19757243009386" lon="15.284145252099142"><ele>20.0</ele><time>2026-04-08T16:01:53Z</time></trkpt><trkpt lat="38.197431683733925" lon="15.283979090092672"><ele>21.666666666666668</ele><time>2026-04-08T16:01:54Z</time></trkpt><trkpt lat="38.19731637506462" lon="15.28379077066407"><ele>23.333333333333336</ele><time>2026-04-08T16:01:55Z</time></trkpt><trkpt lat="38.197217964145985" lon="15.283586164661912"><ele>25.0</ele><time>2026-04-08T16:01:56Z</time></trkpt><trkpt lat="38.19711936297052" lon="15.283383907011197"><ele>25.0</ele><time>2026-04-08T16:01:57Z</time></trkpt><trkpt lat="38.197009452089446" lon="15.283194531239705"><ele>25.0</ele><time>2026-04-08T16:01:58Z</time></trkpt><trkpt lat="38.196889122355216" lon="15.283007040157178"><ele>25.0</ele><time>2026-04-08T16:01:59Z</time></trkpt><trkpt lat="38.196766768453884" lon="15.282821284896485"><ele>25.666666666666668</ele><time>2026-04-08T16:01:59.999Z</time></trkpt><trkpt lat="38.196665385891194" lon="15.282655643580036"><ele>26.333333333333336</ele><time>2026-04-08T16:02:00.999Z</time></trkpt><trkpt lat="38.19656808336665" lon="15.28249450662405"><ele>27.0</ele><time>2026-04-08T16:02:01.999Z</time></trkpt><trkpt lat="38.196495888833454" lon="15.282342044787006"><ele>26.75</ele><time>2026-04-08T16:02:02.999Z</time></trkpt><trkpt lat="38.19643511713415" lon="15.282198732208135"><ele>26.5</ele><time>2026-04-08T16:02:03.999Z</time></trkpt><trkpt lat="38.1963745585266" lon="15.282047009077086"><ele>26.25</ele><time>2026-04-08T16:02:04.999Z</time></trkpt><trkpt lat="38.1963113432264" lon="15.281883750680786"><ele>26.0</ele><time>2026-04-08T16:02:05.999Z</time></trkpt><trkpt lat="38.196246674214834" lon="15.281704406059504"><ele>26.0</ele><time>2026-04-08T16:02:06.999Z</time></trkpt><trkpt lat="38.196167087966494" lon="15.281526021020802"><ele>26.0</ele><time>2026-04-08T16:02:07.999Z</time></trkpt><trkpt lat="38.196081050921656" lon="15.28133173165101"><ele>26.0</ele><time>2026-04-08T16:02:08.999Z</time></trkpt><trkpt lat="38.19598838829609" lon="15.281136995744895"><ele>25.5</ele><time>2026-04-08T16:02:09.999Z</time></trkpt><trkpt lat="38.19590195332627" lon="15.280941050386396"><ele>25.0</ele><time>2026-04-08T16:02:10.999Z</time></trkpt><trkpt lat="38.19583247576295" lon="15.280791138945819"><ele>24.5</ele><time>2026-04-08T16:02:11.999Z</time></trkpt><trkpt lat="38.1957765907847" lon="15.280655446700298"><ele>24.0</ele><time>2026-04-08T16:02:12.999Z</time></trkpt><trkpt lat="38.19573076575152" lon="15.2805118269409"><ele>23.5</ele><time>2026-04-08T16:02:13.999Z</time></trkpt><trkpt lat="38.19569775968111" lon="15.280375937105777"><ele>23.0</ele><time>2026-04-08T16:02:14.999Z</time></trkpt><trkpt lat="38.19570302546775" lon="15.280222423990855"><ele>22.5</ele><time>2026-04-08T16:02:15.999Z</time></trkpt><trkpt lat="38.195736534161966" lon="15.28007668254484"><ele>22.0</ele><time>2026-04-08T16:02:16.999Z</time></trkpt><trkpt lat="38.19579761788938" lon="15.279935131258185"><ele>22.0</ele><time>2026-04-08T16:02:17.999Z</time></trkpt><trkpt lat="38.19584019228533" lon="15.279778009720788"><ele>22.0</ele><time>2026-04-08T16:02:18.999Z</time></trkpt><trkpt lat="38.19590983110781" lon="15.27963395788588"><ele>22.0</ele><time>2026-04-08T16:02:19.999Z</time></trkpt><trkpt lat="38.19597943093802" lon="15.27949275566764"><ele>22.0</ele><time>2026-04-08T16:02:20.999Z</time></trkpt><trkpt lat="38.19604656861393" lon="15.279371459982217"><ele>22.75</ele><time>2026-04-08T16:02:21.999Z</time></trkpt><trkpt lat="38.19611095367743" lon="15.279265472021525"><ele>23.5</ele><time>2026-04-08T16:02:22.999Z</time></trkpt><trkpt lat="38.19614853824931" lon="15.279167596635865"><ele>24.25</ele><time>2026-04-08T16:02:23.999Z</time></trkpt><trkpt lat="38.19615818510809" lon="15.279072828960649"><ele>25.0</ele><time>2026-04-08T16:02:24.999Z</time></trkpt><trkpt lat="38.19600315921225" lon="15.278872294893104"><ele>25.2</ele><time>2026-04-08T16:02:26.999Z</time></trkpt><trkpt lat="38.195920848514966" lon="15.278807877221732"><ele>25.4</ele><time>2026-04-08T16:02:27.999Z</time></trkpt><trkpt lat="38.19582888531523" lon="15.27874934285569"><ele>25.6</ele><time>2026-04-08T16:02:28.999Z</time></trkpt><trkpt lat="38.195750779354896" lon="15.278675761742626"><ele>25.8</ele><time>2026-04-08T16:02:29.999Z</time></trkpt><trkpt lat="38.195691829846936" lon="15.278595121106077"><ele>26.0</ele><time>2026-04-08T16:02:30.999Z</time></trkpt><trkpt lat="38.19563368866362" lon="15.278475056576344"><ele>26.25</ele><time>2026-04-08T16:02:31.999Z</time></trkpt><trkpt lat="38.19557249011052" lon="15.27833351094908"><ele>26.5</ele><time>2026-04-08T16:02:32.999Z</time></trkpt><trkpt lat="38.19552164851165" lon="15.278175606324337"><ele>26.75</ele><time>2026-04-08T16:02:33.999Z</time></trkpt><trkpt lat="38.19548803965053" lon="15.278006644181811"><ele>27.0</ele><time>2026-04-08T16:02:34.999Z</time></trkpt><trkpt lat="38.19550502238545" lon="15.277818328577705"><ele>27.0</ele><time>2026-04-08T16:02:35.999Z</time></trkpt><trkpt lat="38.195541126072335" lon="15.277597347271934"><ele>27.0</ele><time>2026-04-08T16:02:36.999Z</time></trkpt><trkpt lat="38.19557755463021" lon="15.277376823523982"><ele>27.0</ele><time>2026-04-08T16:02:37.999Z</time></trkpt><trkpt lat="38.195615942312806" lon="15.27711033319794"><ele>26.666666666666664</ele><time>2026-04-08T16:02:38.999Z</time></trkpt><trkpt lat="38.195600565633846" lon="15.27682641820458"><ele>26.333333333333332</ele><time>2026-04-08T16:02:39.999Z</time></trkpt><trkpt lat="38.195630493052484" lon="15.276566184686198"><ele>26.0</ele><time>2026-04-08T16:02:40.999Z</time></trkpt><trkpt lat="38.19566062822076" lon="15.276328342644995"><ele>25.0</ele><time>2026-04-08T16:02:41.999Z</time></trkpt><trkpt lat="38.19569973003855" lon="15.276104463914018"><ele>24.0</ele><time>2026-04-08T16:02:42.999Z</time></trkpt><trkpt lat="38.19576775385435" lon="15.275896278241332"><ele>23.0</ele><time>2026-04-08T16:02:43.999Z</time></trkpt><trkpt lat="38.19586989422072" lon="15.275718754360394"><ele>23.333333333333336</ele><time>2026-04-08T16:02:44.999Z</time></trkpt><trkpt lat="38.19598794436451" lon="15.27556862181302"><ele>23.666666666666668</ele><time>2026-04-08T16:02:45.999Z</time></trkpt><trkpt lat="38.19612351857764" lon="15.27544335818937"><ele>24.0</ele><time>2026-04-08T16:02:46.999Z</time></trkpt><trkpt lat="38.196262241206256" lon="15.275316058042911"><ele>24.0</ele><time>2026-04-08T16:02:47.999Z</time></trkpt><trkpt lat="38.19639952113265" lon="15.27518623372863"><ele>24.0</ele><time>2026-04-08T16:02:48.999Z</time></trkpt><trkpt lat="38.196534807470776" lon="15.275058990692829"><ele>24.0</ele><time>2026-04-08T16:02:49.999Z</time></trkpt><trkpt lat="38.19668374451326" lon="15.274919529675035"><ele>22.666666666666668</ele><time>2026-04-08T16:02:50.999Z</time></trkpt><trkpt lat="38.19685334021913" lon="15.274760950133746"><ele>21.333333333333336</ele><time>2026-04-08T16:02:51.999Z</time></trkpt><trkpt lat="38.19701175968353" lon="15.274612820899065"><ele>20.0</ele><time>2026-04-08T16:02:52.999Z</time></trkpt><trkpt lat="38.19715751513807" lon="15.274476532954944"><ele>20.0</ele><time>2026-04-08T16:02:53.999Z</time></trkpt><trkpt lat="38.19729671654622" lon="15.274346986586684"><ele>20.0</ele><time>2026-04-08T16:02:54.999Z</time></trkpt><trkpt lat="38.1974196891316" lon="15.274214333667647"><ele>20.0</ele><time>2026-04-08T16:02:55.998Z</time></trkpt><trkpt lat="38.19753394759874" lon="15.274059774726148"><ele>21.0</ele><time>2026-04-08T16:02:56.998Z</time></trkpt><trkpt lat="38.19762084088788" lon="15.273886998268031"><ele>22.0</ele><time>2026-04-08T16:02:57.998Z</time></trkpt><trkpt lat="38.19768883330389" lon="15.273698811311638"><ele>23.0</ele><time>2026-04-08T16:02:58.998Z</time></trkpt><trkpt lat="38.197747987183774" lon="15.273502601515116"><ele>23.0</ele><time>2026-04-08T16:02:59.998Z</time></trkpt><trkpt lat="38.19783993183919" lon="15.273308307925895"><ele>23.0</ele><time>2026-04-08T16:03:00.998Z</time></trkpt><trkpt lat="38.19788016153309" lon="15.273088840599746"><ele>23.0</ele><time>2026-04-08T16:03:01.998Z</time></trkpt><trkpt lat="38.19791361331876" lon="15.27286383254983"><ele>22.333333333333336</ele><time>2026-04-08T16:03:02.998Z</time></trkpt><trkpt lat="38.197944736709914" lon="15.272636760360896"><ele>21.666666666666668</ele><time>2026-04-08T16:03:03.998Z</time></trkpt><trkpt lat="38.19793906354228" lon="15.272399148501778"><ele>21.0</ele><time>2026-04-08T16:03:04.998Z</time></trkpt><trkpt lat="38.19796833586672" lon="15.272167748717415"><ele>21.0</ele><time>2026-04-08T16:03:05.998Z</time></trkpt><trkpt lat="38.19799751509761" lon="15.27193794597861"><ele>21.0</ele><time>2026-04-08T16:03:06.998Z</time></trkpt><trkpt lat="38.198026418487274" lon="15.271705761072443"><ele>21.0</ele><time>2026-04-08T16:03:07.998Z</time></trkpt><trkpt lat="38.198055629839516" lon="15.271473298536188"><ele>21.0</ele><time>2026-04-08T16:03:08.998Z</time></trkpt><trkpt lat="38.19809079475606" lon="15.271233750463411"><ele>21.0</ele><time>2026-04-08T16:03:10Z</time></trkpt><trkpt lat="38.19815364445509" lon="15.27101190686478"><ele>21.0</ele><time>2026-04-08T16:03:11Z</time></trkpt><trkpt lat="38.19823310654276" lon="15.270809416974016"><ele>21.0</ele><time>2026-04-08T16:03:12Z</time></trkpt><trkpt lat="38.19832418835923" lon="15.270606575032888"><ele>21.0</ele><time>2026-04-08T16:03:13Z</time></trkpt><trkpt lat="38.19841341135331" lon="15.270402027827503"><ele>21.0</ele><time>2026-04-08T16:03:14Z</time></trkpt><trkpt lat="38.198500867943764" lon="15.270201529624028"><ele>21.0</ele><time>2026-04-08T16:03:15Z</time></trkpt><trkpt lat="38.19858483967845" lon="15.270009020779781"><ele>21.0</ele><time>2026-04-08T16:03:16Z</time></trkpt><trkpt lat="38.19866574011359" lon="15.269820034870186"><ele>21.0</ele><time>2026-04-08T16:03:17Z</time></trkpt><trkpt lat="38.198746094719645" lon="15.269630298723053"><ele>21.0</ele><time>2026-04-08T16:03:18Z</time></trkpt><trkpt lat="38.19882634510818" lon="15.26944092457353"><ele>21.0</ele><time>2026-04-08T16:03:19Z</time></trkpt><trkpt lat="38.19890737952788" lon="15.269250228707401"><ele>21.0</ele><time>2026-04-08T16:03:20Z</time></trkpt><trkpt lat="38.198993865792644" lon="15.269048145849732"><ele>21.0</ele><time>2026-04-08T16:03:21Z</time></trkpt><trkpt lat="38.19908116969112" lon="15.268844915348323"><ele>21.0</ele><time>2026-04-08T16:03:22Z</time></trkpt><trkpt lat="38.19916821473145" lon="15.268642287584969"><ele>21.0</ele><time>2026-04-08T16:03:23Z</time></trkpt><trkpt lat="38.199255579128874" lon="15.26843912602983"><ele>21.0</ele><time>2026-04-08T16:03:24Z</time></trkpt><trkpt lat="38.199348002019185" lon="15.268241075729721"><ele>21.0</ele><time>2026-04-08T16:03:25Z</time></trkpt><trkpt lat="38.19945338290235" lon="15.268059538220363"><ele>21.0</ele><time>2026-04-08T16:03:26Z</time></trkpt><trkpt lat="38.199583379696044" lon="15.26790360796195"><ele>20.666666666666668</ele><time>2026-04-08T16:03:27Z</time></trkpt><trkpt lat="38.19971786674959" lon="15.267753784963174"><ele>20.333333333333336</ele><time>2026-04-08T16:03:28Z</time></trkpt><trkpt lat="38.19984963542064" lon="15.267606577544711"><ele>20.0</ele><time>2026-04-08T16:03:29Z</time></trkpt><trkpt lat="38.199974559947705" lon="15.267464705972026"><ele>19.666666666666668</ele><time>2026-04-08T16:03:30Z</time></trkpt><trkpt lat="38.20008113736237" lon="15.267327000759167"><ele>19.333333333333332</ele><time>2026-04-08T16:03:31Z</time></trkpt><trkpt lat="38.20016762665377" lon="15.267179980834385"><ele>19.0</ele><time>2026-04-08T16:03:32Z</time></trkpt><trkpt lat="38.20024799491723" lon="15.26701342354839"><ele>19.0</ele><time>2026-04-08T16:03:33Z</time></trkpt><trkpt lat="38.200317929692524" lon="15.266828800188552"><ele>19.0</ele><time>2026-04-08T16:03:34Z</time></trkpt><trkpt lat="38.200387436725705" lon="15.266636399848917"><ele>19.0</ele><time>2026-04-08T16:03:35Z</time></trkpt><trkpt lat="38.200462108026954" lon="15.26643083102346"><ele>19.0</ele><time>2026-04-08T16:03:36Z</time></trkpt><trkpt lat="38.20053755600721" lon="15.266215428005898"><ele>19.0</ele><time>2026-04-08T16:03:37Z</time></trkpt><trkpt lat="38.2006088620691" lon="15.265991496143897"><ele>19.0</ele><time>2026-04-08T16:03:38Z</time></trkpt><trkpt lat="38.200675488359856" lon="15.265771024238779"><ele>18.0</ele><time>2026-04-08T16:03:39Z</time></trkpt><trkpt lat="38.20074334602251" lon="15.265546477659763"><ele>17.0</ele><time>2026-04-08T16:03:40Z</time></trkpt><trkpt lat="38.20081399470679" lon="15.26531269533116"><ele>16.0</ele><time>2026-04-08T16:03:41Z</time></trkpt><trkpt lat="38.200880135459386" lon="15.265082232386066"><ele>16.0</ele><time>2026-04-08T16:03:42Z</time></trkpt><trkpt lat="38.20094433525743" lon="15.264844711809475"><ele>16.0</ele><time>2026-04-08T16:03:43Z</time></trkpt><trkpt lat="38.20101111074372" lon="15.264603632937023"><ele>16.0</ele><time>2026-04-08T16:03:44Z</time></trkpt><trkpt lat="38.201080659110765" lon="15.264356532131801"><ele>15.0</ele><time>2026-04-08T16:03:45Z</time></trkpt><trkpt lat="38.20114739794097" lon="15.264111530234672"><ele>14.0</ele><time>2026-04-08T16:03:46Z</time></trkpt><trkpt lat="38.20121104393036" lon="15.26386264461247"><ele>13.0</ele><time>2026-04-08T16:03:47Z</time></trkpt><trkpt lat="38.201264019015966" lon="15.263613328555008"><ele>12.666666666666666</ele><time>2026-04-08T16:03:48Z</time></trkpt><trkpt lat="38.20131559960216" lon="15.263354853189352"><ele>12.333333333333332</ele><time>2026-04-08T16:03:49Z</time></trkpt><trkpt lat="38.20136415373326" lon="15.26310335990976"><ele>12.0</ele><time>2026-04-08T16:03:50Z</time></trkpt><trkpt lat="38.20141219842617" lon="15.26284599056974"><ele>12.0</ele><time>2026-04-08T16:03:51Z</time></trkpt><trkpt lat="38.20146368012473" lon="15.262598105361292"><ele>12.0</ele><time>2026-04-08T16:03:52Z</time></trkpt><trkpt lat="38.20153449915819" lon="15.262350799541814"><ele>12.0</ele><time>2026-04-08T16:03:53Z</time></trkpt><trkpt lat="38.20162224436611" lon="15.262120255527691"><ele>11.0</ele><time>2026-04-08T16:03:54Z</time></trkpt><trkpt lat="38.20172197765388" lon="15.261902437948565"><ele>10.0</ele><time>2026-04-08T16:03:55Z</time></trkpt><trkpt lat="38.201834099565296" lon="15.261697649050465"><ele>9.0</ele><time>2026-04-08T16:03:56Z</time></trkpt><trkpt lat="38.20194898232722" lon="15.261504368435538"><ele>10.666666666666668</ele><time>2026-04-08T16:03:57Z</time></trkpt><trkpt lat="38.202060295080365" lon="15.261304995349175"><ele>12.333333333333334</ele><time>2026-04-08T16:03:58Z</time></trkpt><trkpt lat="38.202160688268016" lon="15.261112580925339"><ele>14.0</ele><time>2026-04-08T16:03:59Z</time></trkpt><trkpt lat="38.202246814782406" lon="15.260914652727168"><ele>14.0</ele><time>2026-04-08T16:04:00Z</time></trkpt><trkpt lat="38.20231542605088" lon="15.26070839733"><ele>14.0</ele><time>2026-04-08T16:04:01Z</time></trkpt><trkpt lat="38.20237026726928" lon="15.260501666898621"><ele>14.0</ele><time>2026-04-08T16:04:02Z</time></trkpt><trkpt lat="38.20241597523712" lon="15.260302806085253"><ele>13.75</ele><time>2026-04-08T16:04:03Z</time></trkpt><trkpt lat="38.20244942723971" lon="15.260126919040266"><ele>13.5</ele><time>2026-04-08T16:04:03.999Z</time></trkpt><trkpt lat="38.20247841200491" lon="15.259966395012185"><ele>13.25</ele><time>2026-04-08T16:04:04.999Z</time></trkpt><trkpt lat="38.20250603719184" lon="15.259816632046967"><ele>13.0</ele><time>2026-04-08T16:04:05.999Z</time></trkpt><trkpt lat="38.20253373427145" lon="15.259678282454509"><ele>13.0</ele><time>2026-04-08T16:04:06.999Z</time></trkpt><trkpt lat="38.202560362786336" lon="15.259561562513335"><ele>13.0</ele><time>2026-04-08T16:04:07.999Z</time></trkpt><trkpt lat="38.202598127563846" lon="15.259425636646926"><ele>13.0</ele><time>2026-04-08T16:04:08.999Z</time></trkpt><trkpt lat="38.202646392266736" lon="15.259302242493636"><ele>13.0</ele><time>2026-04-08T16:04:09.999Z</time></trkpt><trkpt lat="38.20271457506453" lon="15.25918971087147"><ele>13.0</ele><time>2026-04-08T16:04:10.999Z</time></trkpt><trkpt lat="38.20278779795603" lon="15.259042421682642"><ele>13.333333333333332</ele><time>2026-04-08T16:04:11.999Z</time></trkpt><trkpt lat="38.20287085605586" lon="15.25888601923324"><ele>13.666666666666668</ele><time>2026-04-08T16:04:12.999Z</time></trkpt><trkpt lat="38.202990992657746" lon="15.258741749142809"><ele>14.0</ele><time>2026-04-08T16:04:13.999Z</time></trkpt><trkpt lat="38.203120121029855" lon="15.258561113842187"><ele>13.5</ele><time>2026-04-08T16:04:14.999Z</time></trkpt><trkpt lat="38.203242852332465" lon="15.258334205950963"><ele>13.0</ele><time>2026-04-08T16:04:15.999Z</time></trkpt><trkpt lat="38.203355807678534" lon="15.258066344488965"><ele>13.0</ele><time>2026-04-08T16:04:16.999Z</time></trkpt><trkpt lat="38.2034224603173" lon="15.257894515482299"><ele>13.0</ele><time>2026-04-08T16:04:17.999Z</time></trkpt><trkpt lat="38.20351888994513" lon="15.257646172432171"><ele>13.0</ele><time>2026-04-08T16:04:18.999Z</time></trkpt><trkpt lat="38.20360161626622" lon="15.257424074506025"><ele>13.0</ele><time>2026-04-08T16:04:19.999Z</time></trkpt><trkpt lat="38.20368675441558" lon="15.257193766131058"><ele>13.0</ele><time>2026-04-08T16:04:20.999Z</time></trkpt><trkpt lat="38.20377289677594" lon="15.256961957761634"><ele>13.0</ele><time>2026-04-08T16:04:21.999Z</time></trkpt><trkpt lat="38.20385515016515" lon="15.256740809540688"><ele>13.0</ele><time>2026-04-08T16:04:22.999Z</time></trkpt><trkpt lat="38.203936399093685" lon="15.256522296017415"><ele>13.0</ele><time>2026-04-08T16:04:23.999Z</time></trkpt><trkpt lat="38.204007734288474" lon="15.256320222980927"><ele>13.0</ele><time>2026-04-08T16:04:24.999Z</time></trkpt><trkpt lat="38.20406444274816" lon="15.256107172376183"><ele>13.0</ele><time>2026-04-08T16:04:25.999Z</time></trkpt><trkpt lat="38.20411462231944" lon="15.255901212027638"><ele>13.0</ele><time>2026-04-08T16:04:26.999Z</time></trkpt><trkpt lat="38.20416141442154" lon="15.25568085556036"><ele>13.0</ele><time>2026-04-08T16:04:27.999Z</time></trkpt><trkpt lat="38.204268854231486" lon="15.25548588397857"><ele>13.0</ele><time>2026-04-08T16:04:28.999Z</time></trkpt><trkpt lat="38.20430009017645" lon="15.25526816837561"><ele>13.0</ele><time>2026-04-08T16:04:29.999Z</time></trkpt><trkpt lat="38.204320791734865" lon="15.255066023510917"><ele>13.0</ele><time>2026-04-08T16:04:30.999Z</time></trkpt><trkpt lat="38.204337619056155" lon="15.254860526388146"><ele>13.0</ele><time>2026-04-08T16:04:31.999Z</time></trkpt><trkpt lat="38.204255310919486" lon="15.254668246158193"><ele>13.0</ele><time>2026-04-08T16:04:32.999Z</time></trkpt><trkpt lat="38.20426087168745" lon="15.254502526458893"><ele>13.0</ele><time>2026-04-08T16:04:33.999Z</time></trkpt><trkpt lat="38.20426671818632" lon="15.254348867967153"><ele>13.0</ele><time>2026-04-08T16:04:34.999Z</time></trkpt><trkpt lat="38.20427396138082" lon="15.25418346881856"><ele>13.0</ele><time>2026-04-08T16:04:36.999Z</time></trkpt><trkpt lat="38.20427836541263" lon="15.254082900942011"><ele>13.0</ele><time>2026-04-08T16:04:38.999Z</time></trkpt><trkpt lat="38.20457920530515" lon="15.254171720688792"><ele>13.0</ele><time>2026-04-08T16:04:39.999Z</time></trkpt><trkpt lat="38.204707704984735" lon="15.254234380973644"><ele>13.0</ele><time>2026-04-08T16:04:40.999Z</time></trkpt><trkpt lat="38.20482420178663" lon="15.254299185582955"><ele>13.0</ele><time>2026-04-08T16:04:41.999Z</time></trkpt><trkpt lat="38.20489404961705" lon="15.254324825516251"><ele>13.0</ele><time>2026-04-08T16:04:42.999Z</time></trkpt><trkpt lat="38.20495217919632" lon="15.254364539973944"><ele>13.0</ele><time>2026-04-08T16:04:43.999Z</time></trkpt><trkpt lat="38.20499029319624" lon="15.253997527286362"><ele>11.5</ele><time>2026-04-08T16:04:45.999Z</time></trkpt><trkpt lat="38.20505455954565" lon="15.253916130902782"><ele>10.0</ele><time>2026-04-08T16:04:46.999Z</time></trkpt><trkpt lat="38.20513831053174" lon="15.253821185356847"><ele>8.5</ele><time>2026-04-08T16:04:47.999Z</time></trkpt><trkpt lat="38.205226140025815" lon="15.25368564328052"><ele>7.0</ele><time>2026-04-08T16:04:48.999Z</time></trkpt><trkpt lat="38.20535446919178" lon="15.253523787602083"><ele>7.0</ele><time>2026-04-08T16:04:49.999Z</time></trkpt><trkpt lat="38.20546928646369" lon="15.253383648199346"><ele>7.0</ele><time>2026-04-08T16:04:50.999Z</time></trkpt><trkpt lat="38.20558365545001" lon="15.253237296419792"><ele>7.0</ele><time>2026-04-08T16:04:51.999Z</time></trkpt><trkpt lat="38.20569464409905" lon="15.253091601092462"><ele>7.5</ele><time>2026-04-08T16:04:52.999Z</time></trkpt><trkpt lat="38.20580256316459" lon="15.252949935250893"><ele>8.0</ele><time>2026-04-08T16:04:53.999Z</time></trkpt><trkpt lat="38.205901636911705" lon="15.252819880709035"><ele>8.5</ele><time>2026-04-08T16:04:54.999Z</time></trkpt><trkpt lat="38.205994464221064" lon="15.2526958722564"><ele>9.0</ele><time>2026-04-08T16:04:55.999Z</time></trkpt><trkpt lat="38.206081695345894" lon="15.252579203576392"><ele>9.0</ele><time>2026-04-08T16:04:56.999Z</time></trkpt><trkpt lat="38.206155323505754" lon="15.25246843664641"><ele>9.0</ele><time>2026-04-08T16:04:57.999Z</time></trkpt><trkpt lat="38.206222176405674" lon="15.252350147583655"><ele>9.0</ele><time>2026-04-08T16:04:58.998Z</time></trkpt><trkpt lat="38.2062490694215" lon="15.252236721664099"><ele>9.0</ele><time>2026-04-08T16:04:59.998Z</time></trkpt><trkpt lat="38.2062436679731" lon="15.252136816410347"><ele>9.0</ele><time>2026-04-08T16:05:00.998Z</time></trkpt><trkpt lat="38.206220605365374" lon="15.252043091378225"><ele>8.6</ele><time>2026-04-08T16:05:01.998Z</time></trkpt><trkpt lat="38.206181143136185" lon="15.251949996806282"><ele>8.2</ele><time>2026-04-08T16:05:02.998Z</time></trkpt><trkpt lat="38.206125966421254" lon="15.251878538916943"><ele>7.799999999999999</ele><time>2026-04-08T16:05:03.998Z</time></trkpt><trkpt lat="38.206055039401356" lon="15.25181056902491"><ele>7.3999999999999995</ele><time>2026-04-08T16:05:04.998Z</time></trkpt><trkpt lat="38.205961775907696" lon="15.25172554089159"><ele>7.0</ele><time>2026-04-08T16:05:05.998Z</time></trkpt><trkpt lat="38.20585108000207" lon="15.251631435423622"><ele>7.0</ele><time>2026-04-08T16:05:06.998Z</time></trkpt><trkpt lat="38.20571545403809" lon="15.251516576574641"><ele>7.0</ele><time>2026-04-08T16:05:07.998Z</time></trkpt><trkpt lat="38.20557169973354" lon="15.251396086119824"><ele>7.0</ele><time>2026-04-08T16:05:08.998Z</time></trkpt><trkpt lat="38.20545618679874" lon="15.25129266191956"><ele>7.75</ele><time>2026-04-08T16:05:09.998Z</time></trkpt><trkpt lat="38.20534546256231" lon="15.251186476646764"><ele>8.5</ele><time>2026-04-08T16:05:10.998Z</time></trkpt><trkpt lat="38.20522607748316" lon="15.251070004630298"><ele>9.25</ele><time>2026-04-08T16:05:11.998Z</time></trkpt><trkpt lat="38.2051077374312" lon="15.250951299008323"><ele>10.0</ele><time>2026-04-08T16:05:12.998Z</time></trkpt><trkpt lat="38.20498718687469" lon="15.250820758715838"><ele>10.0</ele><time>2026-04-08T16:05:13.998Z</time></trkpt><trkpt lat="38.204864565062444" lon="15.250688370527149"><ele>10.0</ele><time>2026-04-08T16:05:14.998Z</time></trkpt><trkpt lat="38.2047381275596" lon="15.250557392909942"><ele>10.0</ele><time>2026-04-08T16:05:16Z</time></trkpt><trkpt lat="38.204615241082486" lon="15.250419225316787"><ele>10.0</ele><time>2026-04-08T16:05:17Z</time></trkpt><trkpt lat="38.20449581588894" lon="15.25026103320407"><ele>10.0</ele><time>2026-04-08T16:05:18Z</time></trkpt><trkpt lat="38.20438563522296" lon="15.250090919737573"><ele>10.0</ele><time>2026-04-08T16:05:19Z</time></trkpt><trkpt lat="38.2042919530471" lon="15.2499199213382"><ele>10.0</ele><time>2026-04-08T16:05:20Z</time></trkpt><trkpt lat="38.20421917331425" lon="15.249753083320146"><ele>10.0</ele><time>2026-04-08T16:05:21Z</time></trkpt><trkpt lat="38.20416171421792" lon="15.249601494137464"><ele>10.0</ele><time>2026-04-08T16:05:22Z</time></trkpt><trkpt lat="38.20410860059771" lon="15.249449876013031"><ele>10.0</ele><time>2026-04-08T16:05:23Z</time></trkpt><trkpt lat="38.20406426462446" lon="15.249311573450255"><ele>10.0</ele><time>2026-04-08T16:05:24Z</time></trkpt><trkpt lat="38.20402579837435" lon="15.249190057745881"><ele>10.0</ele><time>2026-04-08T16:05:25Z</time></trkpt><trkpt lat="38.20399483712085" lon="15.249085500373402"><ele>10.0</ele><time>2026-04-08T16:05:26Z</time></trkpt><trkpt lat="38.20396893567718" lon="15.248997487529694"><ele>10.0</ele><time>2026-04-08T16:05:27Z</time></trkpt><trkpt lat="38.204120289073856" lon="15.248852235559095"><ele>9.75</ele><time>2026-04-08T16:05:30Z</time></trkpt><trkpt lat="38.20421616030381" lon="15.248822272506455"><ele>9.5</ele><time>2026-04-08T16:05:31Z</time></trkpt><trkpt lat="38.20434344732073" lon="15.248778908851527"><ele>9.25</ele><time>2026-04-08T16:05:32Z</time></trkpt><trkpt lat="38.204507466098" lon="15.248728778419522"><ele>9.0</ele><time>2026-04-08T16:05:33Z</time></trkpt><trkpt lat="38.20469517435887" lon="15.248679815976795"><ele>9.333333333333334</ele><time>2026-04-08T16:05:34Z</time></trkpt><trkpt lat="38.20489609691666" lon="15.248612699774691"><ele>9.666666666666668</ele><time>2026-04-08T16:05:35Z</time></trkpt><trkpt lat="38.2050968211541" lon="15.248551157475966"><ele>10.0</ele><time>2026-04-08T16:05:36Z</time></trkpt><trkpt lat="38.20527609039604" lon="15.248504143607091"><ele>10.0</ele><time>2026-04-08T16:05:37Z</time></trkpt><trkpt lat="38.20545115211643" lon="15.248463773243621"><ele>10.0</ele><time>2026-04-08T16:05:38Z</time></trkpt><trkpt lat="38.20560346035319" lon="15.248431436673794"><ele>10.0</ele><time>2026-04-08T16:05:39Z</time></trkpt><trkpt lat="38.20575755193977" lon="15.248394630082236"><ele>9.333333333333334</ele><time>2026-04-08T16:05:40Z</time></trkpt><trkpt lat="38.205919493505775" lon="15.248355507679157"><ele>8.666666666666666</ele><time>2026-04-08T16:05:41Z</time></trkpt><trkpt lat="38.20608789356596" lon="15.248321618179009"><ele>8.0</ele><time>2026-04-08T16:05:42Z</time></trkpt><trkpt lat="38.206252491205674" lon="15.248285445682138"><ele>8.0</ele><time>2026-04-08T16:05:43Z</time></trkpt><trkpt lat="38.2064139262298" lon="15.248243927728481"><ele>8.0</ele><time>2026-04-08T16:05:44Z</time></trkpt><trkpt lat="38.206565002538284" lon="15.248203796174167"><ele>8.0</ele><time>2026-04-08T16:05:45Z</time></trkpt><trkpt lat="38.2067076075824" lon="15.248168882829267"><ele>8.25</ele><time>2026-04-08T16:05:46Z</time></trkpt><trkpt lat="38.20684614862577" lon="15.248140328680115"><ele>8.5</ele><time>2026-04-08T16:05:47Z</time></trkpt><trkpt lat="38.20699070264983" lon="15.248106542733241"><ele>8.75</ele><time>2026-04-08T16:05:48Z</time></trkpt><trkpt lat="38.20713393232966" lon="15.248070241757878"><ele>9.0</ele><time>2026-04-08T16:05:49Z</time></trkpt><trkpt lat="38.20727155782192" lon="15.248031220204641"><ele>8.5</ele><time>2026-04-08T16:05:50Z</time></trkpt><trkpt lat="38.207399863897024" lon="15.247992394441138"><ele>8.0</ele><time>2026-04-08T16:05:51Z</time></trkpt><trkpt lat="38.207523789033225" lon="15.247956021638954"><ele>7.5</ele><time>2026-04-08T16:05:52Z</time></trkpt><trkpt lat="38.20763338432117" lon="15.247915706938196"><ele>7.0</ele><time>2026-04-08T16:05:53Z</time></trkpt><trkpt lat="38.20773145758579" lon="15.247876962301142"><ele>7.0</ele><time>2026-04-08T16:05:54Z</time></trkpt><trkpt lat="38.20783229054083" lon="15.247835245732235"><ele>6.999999999999999</ele><time>2026-04-08T16:05:55Z</time></trkpt><trkpt lat="38.20791943835839" lon="15.247781157029218"><ele>6.999999999999999</ele><time>2026-04-08T16:05:56Z</time></trkpt><trkpt lat="38.20799376616307" lon="15.247733597313912"><ele>7.0</ele><time>2026-04-08T16:05:57Z</time></trkpt><trkpt lat="38.208086538188326" lon="15.24769338558627"><ele>7.0</ele><time>2026-04-08T16:05:58Z</time></trkpt><trkpt lat="38.20818332800179" lon="15.247647815068262"><ele>6.833333333333334</ele><time>2026-04-08T16:05:59Z</time></trkpt><trkpt lat="38.20827892056478" lon="15.247594448070362"><ele>6.666666666666667</ele><time>2026-04-08T16:06:00Z</time></trkpt><trkpt lat="38.20836072027338" lon="15.247555067620079"><ele>6.5</ele><time>2026-04-08T16:06:01Z</time></trkpt><trkpt lat="38.208438879207314" lon="15.247522846577654"><ele>6.333333333333334</ele><time>2026-04-08T16:06:02Z</time></trkpt><trkpt lat="38.20851304064851" lon="15.247485829916668"><ele>6.166666666666667</ele><time>2026-04-08T16:06:03Z</time></trkpt><trkpt lat="38.20858649866161" lon="15.247446668293502"><ele>6.0</ele><time>2026-04-08T16:06:04Z</time></trkpt><trkpt lat="38.20866095967372" lon="15.247405049136821"><ele>6.0</ele><time>2026-04-08T16:06:05Z</time></trkpt><trkpt lat="38.208738994891256" lon="15.247363567816299"><ele>6.0</ele><time>2026-04-08T16:06:06Z</time></trkpt><trkpt lat="38.20882048442527" lon="15.24731307992831"><ele>6.0</ele><time>2026-04-08T16:06:07Z</time></trkpt><trkpt lat="38.20890561233831" lon="15.247250471465264"><ele>6.0</ele><time>2026-04-08T16:06:07.999Z</time></trkpt><trkpt lat="38.20898818807445" lon="15.247172761880385"><ele>6.0</ele><time>2026-04-08T16:06:08.999Z</time></trkpt><trkpt lat="38.20907364139345" lon="15.247066362636216"><ele>6.0</ele><time>2026-04-08T16:06:09.999Z</time></trkpt><trkpt lat="38.209141798857104" lon="15.24692168128027"><ele>6.0</ele><time>2026-04-08T16:06:10.999Z</time></trkpt><trkpt lat="38.209210852704814" lon="15.246770269175247"><ele>6.0</ele><time>2026-04-08T16:06:11.999Z</time></trkpt><trkpt lat="38.209304532771974" lon="15.246618394644797"><ele>6.0</ele><time>2026-04-08T16:06:12.999Z</time></trkpt><trkpt lat="38.20936223774089" lon="15.246445464687465"><ele>6.0</ele><time>2026-04-08T16:06:13.999Z</time></trkpt><trkpt lat="38.2094147758354" lon="15.246285600148532"><ele>6.0</ele><time>2026-04-08T16:06:14.999Z</time></trkpt><trkpt lat="38.20946778391234" lon="15.246146853780527"><ele>6.0</ele><time>2026-04-08T16:06:15.999Z</time></trkpt><trkpt lat="38.20951694814239" lon="15.246022261082528"><ele>6.0</ele><time>2026-04-08T16:06:16.999Z</time></trkpt><trkpt lat="38.209538015975085" lon="15.245900837582886"><ele>6.0</ele><time>2026-04-08T16:06:17.999Z</time></trkpt><trkpt lat="38.20957199017671" lon="15.245811844930373"><ele>6.0</ele><time>2026-04-08T16:06:18.999Z</time></trkpt><trkpt lat="38.20959960666941" lon="15.24573950527445"><ele>6.0</ele><time>2026-04-08T16:06:19.999Z</time></trkpt><trkpt lat="38.209607470803384" lon="15.245659204417443"><ele>6.0</ele><time>2026-04-08T16:06:21.999Z</time></trkpt><trkpt lat="38.20951525505323" lon="15.245596479672834"><ele>6.0</ele><time>2026-04-08T16:06:22.999Z</time></trkpt><trkpt lat="38.2094593231051" lon="15.245541032633614"><ele>6.0</ele><time>2026-04-08T16:06:23.999Z</time></trkpt><trkpt lat="38.20940664681468" lon="15.245477474358262"><ele>6.25</ele><time>2026-04-08T16:06:24.999Z</time></trkpt><trkpt lat="38.209375759084395" lon="15.245308719088303"><ele>6.5</ele><time>2026-04-08T16:06:25.999Z</time></trkpt><trkpt lat="38.20926438746014" lon="15.245193207071274"><ele>6.75</ele><time>2026-04-08T16:06:26.999Z</time></trkpt><trkpt lat="38.209167055950296" lon="15.24505253064293"><ele>7.0</ele><time>2026-04-08T16:06:27.999Z</time></trkpt><trkpt lat="38.20910193202722" lon="15.24491661618847"><ele>7.333333333333334</ele><time>2026-04-08T16:06:28.999Z</time></trkpt><trkpt lat="38.20900499374534" lon="15.244790085870806"><ele>7.666666666666666</ele><time>2026-04-08T16:06:29.999Z</time></trkpt><trkpt lat="38.20896777965996" lon="15.244609559332694"><ele>8.0</ele><time>2026-04-08T16:06:30.999Z</time></trkpt><trkpt lat="38.20893598367282" lon="15.244399192919639"><ele>8.333333333333332</ele><time>2026-04-08T16:06:31.999Z</time></trkpt><trkpt lat="38.208961330609284" lon="15.24417447318609"><ele>8.666666666666666</ele><time>2026-04-08T16:06:32.999Z</time></trkpt><trkpt lat="38.2089348695538" lon="15.243988178935837"><ele>9.0</ele><time>2026-04-08T16:06:33.999Z</time></trkpt><trkpt lat="38.20889721664015" lon="15.24380838445171"><ele>9.0</ele><time>2026-04-08T16:06:34.999Z</time></trkpt><trkpt lat="38.20887686529347" lon="15.243648774412472"><ele>9.0</ele><time>2026-04-08T16:06:35.999Z</time></trkpt><trkpt lat="38.2088520364521" lon="15.243486835587511"><ele>9.0</ele><time>2026-04-08T16:06:36.999Z</time></trkpt><trkpt lat="38.20882264631186" lon="15.243341634646661"><ele>9.0</ele><time>2026-04-08T16:06:37.999Z</time></trkpt><trkpt lat="38.208734861752234" lon="15.24323818080531"><ele>9.0</ele><time>2026-04-08T16:06:38.999Z</time></trkpt><trkpt lat="38.20871317393007" lon="15.243115740419869"><ele>9.0</ele><time>2026-04-08T16:06:39.999Z</time></trkpt><trkpt lat="38.208695057475666" lon="15.243013364274546"><ele>9.0</ele><time>2026-04-08T16:06:40.999Z</time></trkpt><trkpt lat="38.208679189772134" lon="15.242922461259123"><ele>9.0</ele><time>2026-04-08T16:06:41.999Z</time></trkpt><trkpt lat="38.20864879660786" lon="15.242827894215285"><ele>9.0</ele><time>2026-04-08T16:06:43.999Z</time></trkpt><trkpt lat="38.20856478653478" lon="15.242887678692432"><ele>9.0</ele><time>2026-04-08T16:06:46.999Z</time></trkpt><trkpt lat="38.20850042966806" lon="15.242860311489254"><ele>9.0</ele><time>2026-04-08T16:06:48.999Z</time></trkpt><trkpt lat="38.20843485896539" lon="15.242870752637113"><ele>9.0</ele><time>2026-04-08T16:06:49.999Z</time></trkpt><trkpt lat="38.2083560346216" lon="15.242883304710157"><ele>9.0</ele><time>2026-04-08T16:06:50.999Z</time></trkpt><trkpt lat="38.20826844342303" lon="15.24289576874628"><ele>9.0</ele><time>2026-04-08T16:06:51.999Z</time></trkpt><trkpt lat="38.20818079235842" lon="15.242910525520319"><ele>9.0</ele><time>2026-04-08T16:06:52.999Z</time></trkpt><trkpt lat="38.208084376511316" lon="15.242926758251606"><ele>9.0</ele><time>2026-04-08T16:06:53.999Z</time></trkpt><trkpt lat="38.20798336944075" lon="15.24294424859422"><ele>9.0</ele><time>2026-04-08T16:06:54.999Z</time></trkpt><trkpt lat="38.20787427518227" lon="15.24296303598136"><ele>9.0</ele><time>2026-04-08T16:06:55.999Z</time></trkpt><trkpt lat="38.2077655561344" lon="15.2430717148433"><ele>9.0</ele><time>2026-04-08T16:06:56.999Z</time></trkpt><trkpt lat="38.20762610781476" lon="15.24310110412549"><ele>9.0</ele><time>2026-04-08T16:06:57.999Z</time></trkpt><trkpt lat="38.20745475630327" lon="15.243116148787031"><ele>9.0</ele><time>2026-04-08T16:06:58.999Z</time></trkpt><trkpt lat="38.20730234145402" lon="15.243136386429155"><ele>9.0</ele><time>2026-04-08T16:06:59.999Z</time></trkpt><trkpt lat="38.20720232484043" lon="15.243163995777328"><ele>9.0</ele><time>2026-04-08T16:07:00.999Z</time></trkpt><trkpt lat="38.207110689168616" lon="15.243198098973574"><ele>9.0</ele><time>2026-04-08T16:07:01.999Z</time></trkpt><trkpt lat="38.20701724737652" lon="15.243111595709259"><ele>9.0</ele><time>2026-04-08T16:07:02.998Z</time></trkpt><trkpt lat="38.20692344157445" lon="15.243128624287408"><ele>9.0</ele><time>2026-04-08T16:07:04.998Z</time></trkpt><trkpt lat="38.207136610309014" lon="15.243223095822685"><ele>9.0</ele><time>2026-04-08T16:07:07.998Z</time></trkpt><trkpt lat="38.207223023225474" lon="15.243209034315491"><ele>9.0</ele><time>2026-04-08T16:07:08.998Z</time></trkpt><trkpt lat="38.20730748387721" lon="15.243215659915782"><ele>9.0</ele><time>2026-04-08T16:07:10.998Z</time></trkpt><trkpt lat="38.207189995128864" lon="15.243502917497766"><ele>9.0</ele><time>2026-04-08T16:07:15.998Z</time></trkpt><trkpt lat="38.20720124521906" lon="15.243587268691055"><ele>9.0</ele><time>2026-04-08T16:07:16.998Z</time></trkpt><trkpt lat="38.207213901396635" lon="15.243671721624787"><ele>9.0</ele><time>2026-04-08T16:07:17.998Z</time></trkpt><trkpt lat="38.207237656415245" lon="15.24377232796681"><ele>9.000000000000002</ele><time>2026-04-08T16:07:19.998Z</time></trkpt><trkpt lat="38.20732643750844" lon="15.243757023342809"><ele>9.0</ele><time>2026-04-08T16:07:22Z</time></trkpt><trkpt lat="38.20726043170563" lon="15.243808035256745"><ele>9.0</ele><time>2026-04-08T16:07:27Z</time></trkpt><trkpt lat="38.207228447038084" lon="15.24387792484496"><ele>9.0</ele><time>2026-04-08T16:07:30Z</time></trkpt><trkpt lat="38.207188075038616" lon="15.243959591895237"><ele>9.0</ele><time>2026-04-08T16:07:34Z</time></trkpt><trkpt lat="38.20714550719142" lon="15.244024298872228"><ele>9.000000000000002</ele><time>2026-04-08T16:07:35Z</time></trkpt><trkpt lat="38.20707760319534" lon="15.244022015784145"><ele>9.0</ele><time>2026-04-08T16:07:44Z</time></trkpt><trkpt lat="38.207056605552694" lon="15.243942976021383"><ele>9.0</ele><time>2026-04-08T16:07:47Z</time></trkpt><trkpt lat="38.20706707339674" lon="15.244026697774057"><ele>9.0</ele><time>2026-04-08T16:07:51Z</time></trkpt><trkpt lat="38.20720198259471" lon="15.243874369992504"><ele>9.0</ele><time>2026-04-08T16:08:27.999Z</time></trkpt><trkpt lat="38.20716459554404" lon="15.243696813193566"><ele>9.0</ele><time>2026-04-08T16:08:32.063Z</time></trkpt><trkpt lat="38.20722285816134" lon="15.24360449358772"><ele>9.0</ele><time>2026-04-08T16:08:33.039Z</time></trkpt><trkpt lat="38.20778507659493" lon="15.243906469412021"><ele>9.0</ele><time>2026-04-08T16:08:47.758Z</time></trkpt></trkseg></trk></gpx>